<?xml version='1.0' encoding='UTF-8'?><gpx version="1.1" creator="JPX - https://github.com/jenetics/jpx" xmlns="http://www.topografix.com/GPX/1/1"><trk><trkseg><trkpt lat="42.0597393" lon="13.543617"><ele>695.0</ele><time>2026-05-03T08:21:25.03Z</time></trkpt><trkpt lat="42.0597824" lon="13.5436996"><ele>695.0</ele><time>2026-05-03T08:21:27.04Z</time></trkpt><trkpt lat="42.0598123" lon="13.5438141"><ele>695.0</ele><time>2026-05-03T08:21:29.063Z</time></trkpt><trkpt lat="42.0598344" lon="13.5439566"><ele>695.0</ele><time>2026-05-03T08:21:31.038Z</time></trkpt><trkpt lat="42.0598057" lon="13.5441082"><ele>695.0</ele><time>2026-05-03T08:21:33.039Z</time></trkpt><trkpt lat="42.0597973" lon="13.5441941"><ele>695.0</ele><time>2026-05-03T08:21:34.082Z</time></trkpt><trkpt lat="42.0598395" lon="13.544324"><ele>695.0</ele><time>2026-05-03T08:21:36.042Z</time></trkpt><trkpt lat="42.0599177" lon="13.5443806"><ele>695.0</ele><time>2026-05-03T08:21:38.043Z</time></trkpt><trkpt lat="42.0599737" lon="13.5444368"><ele>695.0</ele><time>2026-05-03T08:21:41.058Z</time></trkpt><trkpt lat="42.0600224" lon="13.5445281"><ele>695.0</ele><time>2026-05-03T08:22:01.047Z</time></trkpt><trkpt lat="42.0600064" lon="13.5446164"><ele>695.0</ele><time>2026-05-03T08:22:02.042Z</time></trkpt><trkpt lat="42.0599848" lon="13.544711"><ele>695.0</ele><time>2026-05-03T08:22:03.031Z</time></trkpt><trkpt lat="42.0599692" lon="13.544815"><ele>695.0</ele><time>2026-05-03T08:22:04.05Z</time></trkpt><trkpt lat="42.059954" lon="13.5449123"><ele>695.0</ele><time>2026-05-03T08:22:05.046Z</time></trkpt><trkpt lat="42.0599327" lon="13.5450236"><ele>695.0</ele><time>2026-05-03T08:22:06.055Z</time></trkpt><trkpt lat="42.0599139" lon="13.5451417"><ele>695.0</ele><time>2026-05-03T08:22:07.065Z</time></trkpt><trkpt lat="42.0598907" lon="13.5452692"><ele>695.0</ele><time>2026-05-03T08:22:08.05Z</time></trkpt><trkpt lat="42.0598687" lon="13.5454155"><ele>695.25</ele><time>2026-05-03T08:22:09.041Z</time></trkpt><trkpt lat="42.0598452" lon="13.5455628"><ele>695.5</ele><time>2026-05-03T08:22:10.058Z</time></trkpt><trkpt lat="42.0598202" lon="13.5457084"><ele>695.75</ele><time>2026-05-03T08:22:11.044Z</time></trkpt><trkpt lat="42.0597958" lon="13.5458573"><ele>696.0</ele><time>2026-05-03T08:22:12.027Z</time></trkpt><trkpt lat="42.0597734" lon="13.5460111"><ele>696.0</ele><time>2026-05-03T08:22:13.045Z</time></trkpt><trkpt lat="42.059751" lon="13.5461697"><ele>696.0</ele><time>2026-05-03T08:22:14.062Z</time></trkpt><trkpt lat="42.059728" lon="13.5463337"><ele>696.0</ele><time>2026-05-03T08:22:15.052Z</time></trkpt><trkpt lat="42.0597001" lon="13.5464954"><ele>696.0</ele><time>2026-05-03T08:22:16.038Z</time></trkpt><trkpt lat="42.0596748" lon="13.5466638"><ele>696.0</ele><time>2026-05-03T08:22:17.038Z</time></trkpt><trkpt lat="42.0596523" lon="13.5468315"><ele>696.0</ele><time>2026-05-03T08:22:18.058Z</time></trkpt><trkpt lat="42.0596228" lon="13.5470019"><ele>696.0</ele><time>2026-05-03T08:22:19.048Z</time></trkpt><trkpt lat="42.0595961" lon="13.5471813"><ele>696.0</ele><time>2026-05-03T08:22:20.033Z</time></trkpt><trkpt lat="42.0595642" lon="13.5473569"><ele>696.0</ele><time>2026-05-03T08:22:21.049Z</time></trkpt><trkpt lat="42.0595329" lon="13.5475351"><ele>696.0</ele><time>2026-05-03T08:22:22.047Z</time></trkpt><trkpt lat="42.0595022" lon="13.5477124"><ele>696.0</ele><time>2026-05-03T08:22:23.044Z</time></trkpt><trkpt lat="42.0594739" lon="13.5478898"><ele>696.0</ele><time>2026-05-03T08:22:24.063Z</time></trkpt><trkpt lat="42.059441" lon="13.5480681"><ele>695.75</ele><time>2026-05-03T08:22:25.044Z</time></trkpt><trkpt lat="42.0594137" lon="13.5482536"><ele>695.5</ele><time>2026-05-03T08:22:26.038Z</time></trkpt><trkpt lat="42.0593832" lon="13.5484422"><ele>695.25</ele><time>2026-05-03T08:22:27.047Z</time></trkpt><trkpt lat="42.0593499" lon="13.5486336"><ele>695.0</ele><time>2026-05-03T08:22:28.054Z</time></trkpt><trkpt lat="42.05932" lon="13.5488271"><ele>695.6666666666666</ele><time>2026-05-03T08:22:29.048Z</time></trkpt><trkpt lat="42.0592902" lon="13.5490208"><ele>696.3333333333334</ele><time>2026-05-03T08:22:30.053Z</time></trkpt><trkpt lat="42.0592615" lon="13.5492196"><ele>697.0</ele><time>2026-05-03T08:22:31.049Z</time></trkpt><trkpt lat="42.0592256" lon="13.5494215"><ele>697.0</ele><time>2026-05-03T08:22:32.042Z</time></trkpt><trkpt lat="42.059191" lon="13.5496236"><ele>697.0</ele><time>2026-05-03T08:22:33.033Z</time></trkpt><trkpt lat="42.059158" lon="13.5498268"><ele>697.0</ele><time>2026-05-03T08:22:34.041Z</time></trkpt><trkpt lat="42.0591198" lon="13.5500341"><ele>697.0</ele><time>2026-05-03T08:22:35.032Z</time></trkpt><trkpt lat="42.0590866" lon="13.55024"><ele>697.0</ele><time>2026-05-03T08:22:36.026Z</time></trkpt><trkpt lat="42.0590504" lon="13.550445"><ele>697.0</ele><time>2026-05-03T08:22:37.03Z</time></trkpt><trkpt lat="42.059015" lon="13.5506529"><ele>696.3333333333334</ele><time>2026-05-03T08:22:38.034Z</time></trkpt><trkpt lat="42.0589807" lon="13.5508647"><ele>695.6666666666666</ele><time>2026-05-03T08:22:39.061Z</time></trkpt><trkpt lat="42.0589488" lon="13.5510762"><ele>695.0</ele><time>2026-05-03T08:22:40.051Z</time></trkpt><trkpt lat="42.0589146" lon="13.5512828"><ele>694.0</ele><time>2026-05-03T08:22:41.056Z</time></trkpt><trkpt lat="42.0588809" lon="13.5514888"><ele>693.0</ele><time>2026-05-03T08:22:42.043Z</time></trkpt><trkpt lat="42.0588443" lon="13.5516967"><ele>692.0</ele><time>2026-05-03T08:22:43.055Z</time></trkpt><trkpt lat="42.0588131" lon="13.5519077"><ele>692.3333333333333</ele><time>2026-05-03T08:22:44.045Z</time></trkpt><trkpt lat="42.0587807" lon="13.5521175"><ele>692.6666666666666</ele><time>2026-05-03T08:22:45.055Z</time></trkpt><trkpt lat="42.0587437" lon="13.5523253"><ele>693.0</ele><time>2026-05-03T08:22:46.052Z</time></trkpt><trkpt lat="42.0587101" lon="13.5525369"><ele>693.0</ele><time>2026-05-03T08:22:47.049Z</time></trkpt><trkpt lat="42.0586796" lon="13.5527476"><ele>693.0</ele><time>2026-05-03T08:22:48.042Z</time></trkpt><trkpt lat="42.0586468" lon="13.5529572"><ele>693.0</ele><time>2026-05-03T08:22:49.058Z</time></trkpt><trkpt lat="42.0586141" lon="13.553172"><ele>693.6666666666666</ele><time>2026-05-03T08:22:50.047Z</time></trkpt><trkpt lat="42.0585783" lon="13.553385"><ele>694.3333333333333</ele><time>2026-05-03T08:22:51.054Z</time></trkpt><trkpt lat="42.0585425" lon="13.5535993"><ele>695.0</ele><time>2026-05-03T08:22:52.055Z</time></trkpt><trkpt lat="42.0585097" lon="13.5538099"><ele>696.3333333333333</ele><time>2026-05-03T08:22:53.05Z</time></trkpt><trkpt lat="42.058475" lon="13.554022"><ele>697.6666666666666</ele><time>2026-05-03T08:22:54.036Z</time></trkpt><trkpt lat="42.0584417" lon="13.5542273"><ele>699.0</ele><time>2026-05-03T08:22:55.028Z</time></trkpt><trkpt lat="42.0584085" lon="13.5544348"><ele>698.6666666666666</ele><time>2026-05-03T08:22:56.052Z</time></trkpt><trkpt lat="42.0583783" lon="13.5546415"><ele>698.3333333333333</ele><time>2026-05-03T08:22:57.046Z</time></trkpt><trkpt lat="42.0583508" lon="13.5548525"><ele>698.0</ele><time>2026-05-03T08:22:58.048Z</time></trkpt><trkpt lat="42.0583247" lon="13.555067"><ele>698.0</ele><time>2026-05-03T08:22:59.052Z</time></trkpt><trkpt lat="42.0583042" lon="13.5552822"><ele>698.0</ele><time>2026-05-03T08:23:00.052Z</time></trkpt><trkpt lat="42.0582784" lon="13.5554939"><ele>698.0</ele><time>2026-05-03T08:23:01.05Z</time></trkpt><trkpt lat="42.0582511" lon="13.5557069"><ele>697.3333333333333</ele><time>2026-05-03T08:23:02.07Z</time></trkpt><trkpt lat="42.0582301" lon="13.5559216"><ele>696.6666666666666</ele><time>2026-05-03T08:23:03.051Z</time></trkpt><trkpt lat="42.0582118" lon="13.5561372"><ele>696.0</ele><time>2026-05-03T08:23:04.045Z</time></trkpt><trkpt lat="42.0581925" lon="13.5563455"><ele>696.0</ele><time>2026-05-03T08:23:05.061Z</time></trkpt><trkpt lat="42.0581766" lon="13.5565579"><ele>696.0</ele><time>2026-05-03T08:23:06.041Z</time></trkpt><trkpt lat="42.0581626" lon="13.5567737"><ele>696.0</ele><time>2026-05-03T08:23:07.037Z</time></trkpt><trkpt lat="42.0581472" lon="13.5569867"><ele>695.75</ele><time>2026-05-03T08:23:08.049Z</time></trkpt><trkpt lat="42.0581356" lon="13.5571924"><ele>695.5</ele><time>2026-05-03T08:23:09.047Z</time></trkpt><trkpt lat="42.058123" lon="13.5573887"><ele>695.25</ele><time>2026-05-03T08:23:10.025Z</time></trkpt><trkpt lat="42.0581109" lon="13.5575841"><ele>695.0</ele><time>2026-05-03T08:23:11.079Z</time></trkpt><trkpt lat="42.0581007" lon="13.5577732"><ele>694.75</ele><time>2026-05-03T08:23:12.047Z</time></trkpt><trkpt lat="42.0580936" lon="13.5579502"><ele>694.5</ele><time>2026-05-03T08:23:13.039Z</time></trkpt><trkpt lat="42.058098" lon="13.5581133"><ele>694.25</ele><time>2026-05-03T08:23:14.04Z</time></trkpt><trkpt lat="42.0581076" lon="13.5582686"><ele>694.0</ele><time>2026-05-03T08:23:15.06Z</time></trkpt><trkpt lat="42.0581265" lon="13.5584104"><ele>694.0</ele><time>2026-05-03T08:23:16.054Z</time></trkpt><trkpt lat="42.0581375" lon="13.5585451"><ele>694.0</ele><time>2026-05-03T08:23:17.037Z</time></trkpt><trkpt lat="42.0581369" lon="13.5586695"><ele>694.0</ele><time>2026-05-03T08:23:18.047Z</time></trkpt><trkpt lat="42.0581188" lon="13.5587798"><ele>694.0</ele><time>2026-05-03T08:23:19.049Z</time></trkpt><trkpt lat="42.0580762" lon="13.5588789"><ele>694.0</ele><time>2026-05-03T08:23:20.05Z</time></trkpt><trkpt lat="42.0580331" lon="13.5589714"><ele>694.0</ele><time>2026-05-03T08:23:21.037Z</time></trkpt><trkpt lat="42.0580071" lon="13.5590832"><ele>693.8000000000001</ele><time>2026-05-03T08:23:22.054Z</time></trkpt><trkpt lat="42.0579934" lon="13.5592141"><ele>693.6</ele><time>2026-05-03T08:23:23.046Z</time></trkpt><trkpt lat="42.0580159" lon="13.5593432"><ele>693.4</ele><time>2026-05-03T08:23:24.055Z</time></trkpt><trkpt lat="42.0580495" lon="13.5594668"><ele>693.2</ele><time>2026-05-03T08:23:25.036Z</time></trkpt><trkpt lat="42.058074" lon="13.5595946"><ele>693.0</ele><time>2026-05-03T08:23:26.054Z</time></trkpt><trkpt lat="42.058077" lon="13.5597218"><ele>693.0</ele><time>2026-05-03T08:23:27.043Z</time></trkpt><trkpt lat="42.0580458" lon="13.5598659"><ele>693.0</ele><time>2026-05-03T08:23:28.047Z</time></trkpt><trkpt lat="42.0580107" lon="13.5600173"><ele>693.0</ele><time>2026-05-03T08:23:29.037Z</time></trkpt><trkpt lat="42.0579791" lon="13.5601788"><ele>693.0</ele><time>2026-05-03T08:23:30.054Z</time></trkpt><trkpt lat="42.0579521" lon="13.5603595"><ele>693.0</ele><time>2026-05-03T08:23:31.054Z</time></trkpt><trkpt lat="42.0579324" lon="13.5605422"><ele>693.0</ele><time>2026-05-03T08:23:32.044Z</time></trkpt><trkpt lat="42.0579235" lon="13.5607392"><ele>693.0</ele><time>2026-05-03T08:23:33.03Z</time></trkpt><trkpt lat="42.0579137" lon="13.5609409"><ele>693.0</ele><time>2026-05-03T08:23:34.06Z</time></trkpt><trkpt lat="42.0579009" lon="13.5611501"><ele>693.3333333333334</ele><time>2026-05-03T08:23:35.049Z</time></trkpt><trkpt lat="42.05789" lon="13.5613669"><ele>693.6666666666667</ele><time>2026-05-03T08:23:36.047Z</time></trkpt><trkpt lat="42.0578799" lon="13.5615882"><ele>694.0</ele><time>2026-05-03T08:23:37.034Z</time></trkpt><trkpt lat="42.0578673" lon="13.5618147"><ele>693.6666666666667</ele><time>2026-05-03T08:23:38.036Z</time></trkpt><trkpt lat="42.0578563" lon="13.5620477"><ele>693.3333333333334</ele><time>2026-05-03T08:23:39.036Z</time></trkpt><trkpt lat="42.057842" lon="13.5622839"><ele>693.0</ele><time>2026-05-03T08:23:40.03Z</time></trkpt><trkpt lat="42.05783" lon="13.5625193"><ele>693.0</ele><time>2026-05-03T08:23:41.026Z</time></trkpt><trkpt lat="42.0578167" lon="13.5627633"><ele>693.0</ele><time>2026-05-03T08:23:42.034Z</time></trkpt><trkpt lat="42.0578046" lon="13.5630109"><ele>693.0</ele><time>2026-05-03T08:23:43.034Z</time></trkpt><trkpt lat="42.0577896" lon="13.5632574"><ele>692.6666666666666</ele><time>2026-05-03T08:23:44.031Z</time></trkpt><trkpt lat="42.0577751" lon="13.5635086"><ele>692.3333333333333</ele><time>2026-05-03T08:23:45.041Z</time></trkpt><trkpt lat="42.0577618" lon="13.5637588"><ele>692.0</ele><time>2026-05-03T08:23:46.037Z</time></trkpt><trkpt lat="42.0577522" lon="13.5640077"><ele>692.0</ele><time>2026-05-03T08:23:47.025Z</time></trkpt><trkpt lat="42.0577341" lon="13.5642429"><ele>692.0</ele><time>2026-05-03T08:23:48.044Z</time></trkpt><trkpt lat="42.0577186" lon="13.5644735"><ele>692.0</ele><time>2026-05-03T08:23:49.039Z</time></trkpt><trkpt lat="42.0577056" lon="13.5646965"><ele>691.3333333333333</ele><time>2026-05-03T08:23:50.039Z</time></trkpt><trkpt lat="42.0576923" lon="13.564916"><ele>690.6666666666666</ele><time>2026-05-03T08:23:51.049Z</time></trkpt><trkpt lat="42.0576769" lon="13.5651331"><ele>690.0</ele><time>2026-05-03T08:23:52.049Z</time></trkpt><trkpt lat="42.0576634" lon="13.5653506"><ele>689.6666666666666</ele><time>2026-05-03T08:23:53.029Z</time></trkpt><trkpt lat="42.0576528" lon="13.5655641"><ele>689.3333333333333</ele><time>2026-05-03T08:23:54.041Z</time></trkpt><trkpt lat="42.0576426" lon="13.5657775"><ele>689.0</ele><time>2026-05-03T08:23:55.036Z</time></trkpt><trkpt lat="42.0576335" lon="13.5659892"><ele>689.0</ele><time>2026-05-03T08:23:56.039Z</time></trkpt><trkpt lat="42.0576277" lon="13.5661987"><ele>689.0</ele><time>2026-05-03T08:23:57.044Z</time></trkpt><trkpt lat="42.0576188" lon="13.5663983"><ele>689.0</ele><time>2026-05-03T08:23:58.039Z</time></trkpt><trkpt lat="42.057619" lon="13.5665826"><ele>689.0</ele><time>2026-05-03T08:23:59.046Z</time></trkpt><trkpt lat="42.057615" lon="13.5667283"><ele>689.0</ele><time>2026-05-03T08:24:00.041Z</time></trkpt><trkpt lat="42.0576128" lon="13.5668579"><ele>689.0</ele><time>2026-05-03T08:24:01.038Z</time></trkpt><trkpt lat="42.0576139" lon="13.5669802"><ele>689.0</ele><time>2026-05-03T08:24:02.043Z</time></trkpt><trkpt lat="42.05761" lon="13.5670954"><ele>689.0</ele><time>2026-05-03T08:24:03.034Z</time></trkpt><trkpt lat="42.0575977" lon="13.5672152"><ele>689.0</ele><time>2026-05-03T08:24:04.039Z</time></trkpt><trkpt lat="42.0575845" lon="13.567342"><ele>689.0</ele><time>2026-05-03T08:24:05.038Z</time></trkpt><trkpt lat="42.0575663" lon="13.5674799"><ele>689.0</ele><time>2026-05-03T08:24:06.048Z</time></trkpt><trkpt lat="42.0575438" lon="13.5676337"><ele>689.0</ele><time>2026-05-03T08:24:07.041Z</time></trkpt><trkpt lat="42.0575328" lon="13.5677967"><ele>689.0</ele><time>2026-05-03T08:24:08.046Z</time></trkpt><trkpt lat="42.0575202" lon="13.5679696"><ele>688.75</ele><time>2026-05-03T08:24:09.035Z</time></trkpt><trkpt lat="42.0575103" lon="13.568154"><ele>688.5</ele><time>2026-05-03T08:24:10.038Z</time></trkpt><trkpt lat="42.0575027" lon="13.5683505"><ele>688.25</ele><time>2026-05-03T08:24:11.041Z</time></trkpt><trkpt lat="42.0574929" lon="13.5685576"><ele>688.0</ele><time>2026-05-03T08:24:12.039Z</time></trkpt><trkpt lat="42.0574835" lon="13.5687751"><ele>688.0</ele><time>2026-05-03T08:24:13.042Z</time></trkpt><trkpt lat="42.057469" lon="13.5690015"><ele>688.0</ele><time>2026-05-03T08:24:14.043Z</time></trkpt><trkpt lat="42.0574541" lon="13.5692403"><ele>688.0</ele><time>2026-05-03T08:24:15.042Z</time></trkpt><trkpt lat="42.0574404" lon="13.5694832"><ele>687.0</ele><time>2026-05-03T08:24:16.041Z</time></trkpt><trkpt lat="42.0574258" lon="13.5697285"><ele>686.0</ele><time>2026-05-03T08:24:17.038Z</time></trkpt><trkpt lat="42.0574116" lon="13.5699822"><ele>685.0</ele><time>2026-05-03T08:24:18.034Z</time></trkpt><trkpt lat="42.0573964" lon="13.5702316"><ele>684.6666666666667</ele><time>2026-05-03T08:24:19.035Z</time></trkpt><trkpt lat="42.057383" lon="13.5704855"><ele>684.3333333333334</ele><time>2026-05-03T08:24:20.031Z</time></trkpt><trkpt lat="42.057368" lon="13.5707513"><ele>684.0</ele><time>2026-05-03T08:24:21.035Z</time></trkpt><trkpt lat="42.0573503" lon="13.5710248"><ele>683.3333333333334</ele><time>2026-05-03T08:24:22.045Z</time></trkpt><trkpt lat="42.0573332" lon="13.5713004"><ele>682.6666666666667</ele><time>2026-05-03T08:24:23.034Z</time></trkpt><trkpt lat="42.0573174" lon="13.5715853"><ele>682.0</ele><time>2026-05-03T08:24:24.039Z</time></trkpt><trkpt lat="42.0573039" lon="13.5718685"><ele>682.3333333333334</ele><time>2026-05-03T08:24:25.033Z</time></trkpt><trkpt lat="42.0572864" lon="13.5721543"><ele>682.6666666666666</ele><time>2026-05-03T08:24:26.033Z</time></trkpt><trkpt lat="42.0572736" lon="13.57244"><ele>683.0</ele><time>2026-05-03T08:24:27.037Z</time></trkpt><trkpt lat="42.0572639" lon="13.5727361"><ele>685.0</ele><time>2026-05-03T08:24:28.034Z</time></trkpt><trkpt lat="42.0572517" lon="13.5730473"><ele>687.0</ele><time>2026-05-03T08:24:29.042Z</time></trkpt><trkpt lat="42.0572392" lon="13.5733621"><ele>687.0</ele><time>2026-05-03T08:24:30.038Z</time></trkpt><trkpt lat="42.0572223" lon="13.5736771"><ele>687.0</ele><time>2026-05-03T08:24:31.046Z</time></trkpt><trkpt lat="42.0572002" lon="13.574001"><ele>687.0</ele><time>2026-05-03T08:24:32.041Z</time></trkpt><trkpt lat="42.0571749" lon="13.5743282"><ele>687.0</ele><time>2026-05-03T08:24:33.043Z</time></trkpt><trkpt lat="42.0571485" lon="13.5746612"><ele>687.0</ele><time>2026-05-03T08:24:34.054Z</time></trkpt><trkpt lat="42.0571209" lon="13.5749931"><ele>687.0</ele><time>2026-05-03T08:24:35.053Z</time></trkpt><trkpt lat="42.0570977" lon="13.5753261"><ele>686.5</ele><time>2026-05-03T08:24:36.044Z</time></trkpt><trkpt lat="42.0570736" lon="13.5756636"><ele>686.0</ele><time>2026-05-03T08:24:37.037Z</time></trkpt><trkpt lat="42.0570551" lon="13.5760002"><ele>686.5</ele><time>2026-05-03T08:24:38.045Z</time></trkpt><trkpt lat="42.0570371" lon="13.5763296"><ele>687.0</ele><time>2026-05-03T08:24:39.04Z</time></trkpt><trkpt lat="42.0570141" lon="13.5766592"><ele>687.0</ele><time>2026-05-03T08:24:40.041Z</time></trkpt><trkpt lat="42.0569964" lon="13.5769902"><ele>687.0</ele><time>2026-05-03T08:24:41.037Z</time></trkpt><trkpt lat="42.0569765" lon="13.5773129"><ele>687.0</ele><time>2026-05-03T08:24:42.029Z</time></trkpt><trkpt lat="42.0569602" lon="13.5776269"><ele>687.0</ele><time>2026-05-03T08:24:43.039Z</time></trkpt><trkpt lat="42.0569422" lon="13.5779254"><ele>687.0</ele><time>2026-05-03T08:24:44.032Z</time></trkpt><trkpt lat="42.0569309" lon="13.5782142"><ele>687.0</ele><time>2026-05-03T08:24:45.041Z</time></trkpt><trkpt lat="42.0569201" lon="13.5784905"><ele>687.0</ele><time>2026-05-03T08:24:46.033Z</time></trkpt><trkpt lat="42.0568995" lon="13.5787494"><ele>687.6666666666666</ele><time>2026-05-03T08:24:47.034Z</time></trkpt><trkpt lat="42.0568802" lon="13.5789958"><ele>688.3333333333333</ele><time>2026-05-03T08:24:48.037Z</time></trkpt><trkpt lat="42.0568555" lon="13.5792259"><ele>689.0</ele><time>2026-05-03T08:24:49.029Z</time></trkpt><trkpt lat="42.0568239" lon="13.5794418"><ele>689.6666666666666</ele><time>2026-05-03T08:24:50.038Z</time></trkpt><trkpt lat="42.0567784" lon="13.5796481"><ele>690.3333333333334</ele><time>2026-05-03T08:24:51.029Z</time></trkpt><trkpt lat="42.0567146" lon="13.5798357"><ele>691.0</ele><time>2026-05-03T08:24:52.038Z</time></trkpt><trkpt lat="42.0566386" lon="13.5800205"><ele>690.5</ele><time>2026-05-03T08:24:53.027Z</time></trkpt><trkpt lat="42.0565608" lon="13.5801914"><ele>690.0</ele><time>2026-05-03T08:24:54.055Z</time></trkpt><trkpt lat="42.0564864" lon="13.5803445"><ele>689.5</ele><time>2026-05-03T08:24:55.044Z</time></trkpt><trkpt lat="42.0564173" lon="13.5804895"><ele>689.0</ele><time>2026-05-03T08:24:56.032Z</time></trkpt><trkpt lat="42.0563602" lon="13.5806107"><ele>689.0</ele><time>2026-05-03T08:24:57.042Z</time></trkpt><trkpt lat="42.0563051" lon="13.580708"><ele>689.0</ele><time>2026-05-03T08:24:58.035Z</time></trkpt><trkpt lat="42.0562491" lon="13.5807849"><ele>689.0</ele><time>2026-05-03T08:24:59.053Z</time></trkpt><trkpt lat="42.0561776" lon="13.5808323"><ele>689.0</ele><time>2026-05-03T08:25:00.041Z</time></trkpt><trkpt lat="42.0560923" lon="13.580875"><ele>689.0</ele><time>2026-05-03T08:25:01.039Z</time></trkpt><trkpt lat="42.0560087" lon="13.5809158"><ele>689.0</ele><time>2026-05-03T08:25:02.04Z</time></trkpt><trkpt lat="42.0559399" lon="13.5809729"><ele>689.0</ele><time>2026-05-03T08:25:03.038Z</time></trkpt><trkpt lat="42.0558965" lon="13.5810769"><ele>689.0</ele><time>2026-05-03T08:25:04.048Z</time></trkpt><trkpt lat="42.0558633" lon="13.5812088"><ele>689.0</ele><time>2026-05-03T08:25:05.031Z</time></trkpt><trkpt lat="42.0558795" lon="13.5813239"><ele>689.0</ele><time>2026-05-03T08:25:06.049Z</time></trkpt><trkpt lat="42.0559207" lon="13.5814339"><ele>689.0</ele><time>2026-05-03T08:25:07.035Z</time></trkpt><trkpt lat="42.0559716" lon="13.5815503"><ele>689.75</ele><time>2026-05-03T08:25:08.031Z</time></trkpt><trkpt lat="42.0560184" lon="13.5816835"><ele>690.5</ele><time>2026-05-03T08:25:09.041Z</time></trkpt><trkpt lat="42.0560408" lon="13.581837"><ele>691.25</ele><time>2026-05-03T08:25:10.044Z</time></trkpt><trkpt lat="42.0560404" lon="13.5820119"><ele>692.0</ele><time>2026-05-03T08:25:11.04Z</time></trkpt><trkpt lat="42.0560293" lon="13.5821995"><ele>692.75</ele><time>2026-05-03T08:25:12.031Z</time></trkpt><trkpt lat="42.0560237" lon="13.582389"><ele>693.5</ele><time>2026-05-03T08:25:13.043Z</time></trkpt><trkpt lat="42.0560394" lon="13.5825921"><ele>694.25</ele><time>2026-05-03T08:25:14.034Z</time></trkpt><trkpt lat="42.0560762" lon="13.5827947"><ele>695.0</ele><time>2026-05-03T08:25:15.029Z</time></trkpt><trkpt lat="42.0561381" lon="13.5829944"><ele>695.3333333333333</ele><time>2026-05-03T08:25:16.043Z</time></trkpt><trkpt lat="42.0562051" lon="13.5831924"><ele>695.6666666666666</ele><time>2026-05-03T08:25:17.028Z</time></trkpt><trkpt lat="42.0562693" lon="13.5833819"><ele>696.0</ele><time>2026-05-03T08:25:18.04Z</time></trkpt><trkpt lat="42.0563288" lon="13.5835639"><ele>696.6666666666666</ele><time>2026-05-03T08:25:19.032Z</time></trkpt><trkpt lat="42.0563854" lon="13.5837534"><ele>697.3333333333333</ele><time>2026-05-03T08:25:20.031Z</time></trkpt><trkpt lat="42.0564343" lon="13.583941"><ele>698.0</ele><time>2026-05-03T08:25:21.029Z</time></trkpt><trkpt lat="42.0564751" lon="13.584137"><ele>698.0</ele><time>2026-05-03T08:25:22.035Z</time></trkpt><trkpt lat="42.056504" lon="13.584329"><ele>698.0</ele><time>2026-05-03T08:25:23.038Z</time></trkpt><trkpt lat="42.0565163" lon="13.5845236"><ele>698.0</ele><time>2026-05-03T08:25:24.033Z</time></trkpt><trkpt lat="42.056512" lon="13.5847202"><ele>698.0</ele><time>2026-05-03T08:25:25.03Z</time></trkpt><trkpt lat="42.0565046" lon="13.5849189"><ele>699.0</ele><time>2026-05-03T08:25:26.032Z</time></trkpt><trkpt lat="42.056489" lon="13.5851169"><ele>700.0</ele><time>2026-05-03T08:25:27.041Z</time></trkpt><trkpt lat="42.0564797" lon="13.5853085"><ele>701.0</ele><time>2026-05-03T08:25:28.037Z</time></trkpt><trkpt lat="42.0564699" lon="13.585497"><ele>702.0</ele><time>2026-05-03T08:25:29.03Z</time></trkpt><trkpt lat="42.0564557" lon="13.5856868"><ele>702.5</ele><time>2026-05-03T08:25:30.04Z</time></trkpt><trkpt lat="42.0564489" lon="13.5858747"><ele>703.0</ele><time>2026-05-03T08:25:31.042Z</time></trkpt><trkpt lat="42.0564418" lon="13.5860603"><ele>703.5</ele><time>2026-05-03T08:25:32.037Z</time></trkpt><trkpt lat="42.0564305" lon="13.5862439"><ele>704.0</ele><time>2026-05-03T08:25:33.054Z</time></trkpt><trkpt lat="42.0564189" lon="13.5864273"><ele>704.75</ele><time>2026-05-03T08:25:34.042Z</time></trkpt><trkpt lat="42.0564063" lon="13.5866126"><ele>705.5</ele><time>2026-05-03T08:25:35.039Z</time></trkpt><trkpt lat="42.0563975" lon="13.5868059"><ele>706.25</ele><time>2026-05-03T08:25:36.029Z</time></trkpt><trkpt lat="42.0563831" lon="13.5869992"><ele>707.0</ele><time>2026-05-03T08:25:37.039Z</time></trkpt><trkpt lat="42.0563684" lon="13.5872095"><ele>708.0</ele><time>2026-05-03T08:25:38.045Z</time></trkpt><trkpt lat="42.0563541" lon="13.587452"><ele>709.0</ele><time>2026-05-03T08:25:39.043Z</time></trkpt><trkpt lat="42.0563398" lon="13.5877226"><ele>710.0</ele><time>2026-05-03T08:25:40.042Z</time></trkpt><trkpt lat="42.0563247" lon="13.5880019"><ele>710.6666666666666</ele><time>2026-05-03T08:25:41.035Z</time></trkpt><trkpt lat="42.0563098" lon="13.588288"><ele>711.3333333333334</ele><time>2026-05-03T08:25:42.043Z</time></trkpt><trkpt lat="42.0562964" lon="13.5885713"><ele>712.0</ele><time>2026-05-03T08:25:43.042Z</time></trkpt><trkpt lat="42.0562832" lon="13.5888467"><ele>712.6666666666667</ele><time>2026-05-03T08:25:44.049Z</time></trkpt><trkpt lat="42.0562701" lon="13.5891122"><ele>713.3333333333334</ele><time>2026-05-03T08:25:45.05Z</time></trkpt><trkpt lat="42.0562567" lon="13.5893707"><ele>714.0</ele><time>2026-05-03T08:25:46.024Z</time></trkpt><trkpt lat="42.0562313" lon="13.5896216"><ele>714.0</ele><time>2026-05-03T08:25:47.046Z</time></trkpt><trkpt lat="42.0562161" lon="13.5898615"><ele>714.0</ele><time>2026-05-03T08:25:48.048Z</time></trkpt><trkpt lat="42.0562021" lon="13.590098"><ele>714.0</ele><time>2026-05-03T08:25:49.044Z</time></trkpt><trkpt lat="42.0561916" lon="13.5903243"><ele>714.6666666666666</ele><time>2026-05-03T08:25:50.037Z</time></trkpt><trkpt lat="42.0561775" lon="13.5905417"><ele>715.3333333333333</ele><time>2026-05-03T08:25:51.04Z</time></trkpt><trkpt lat="42.0561677" lon="13.5907551"><ele>716.0</ele><time>2026-05-03T08:25:52.032Z</time></trkpt><trkpt lat="42.0561571" lon="13.5909627"><ele>716.0</ele><time>2026-05-03T08:25:53.046Z</time></trkpt><trkpt lat="42.0561494" lon="13.5911672"><ele>716.0</ele><time>2026-05-03T08:25:54.043Z</time></trkpt><trkpt lat="42.0561344" lon="13.5913684"><ele>716.0</ele><time>2026-05-03T08:25:55.045Z</time></trkpt><trkpt lat="42.0561258" lon="13.5915707"><ele>716.0</ele><time>2026-05-03T08:25:56.035Z</time></trkpt><trkpt lat="42.0561126" lon="13.5917776"><ele>716.0</ele><time>2026-05-03T08:25:57.045Z</time></trkpt><trkpt lat="42.0560976" lon="13.5919807"><ele>716.0</ele><time>2026-05-03T08:25:58.046Z</time></trkpt><trkpt lat="42.0560858" lon="13.5921818"><ele>716.5</ele><time>2026-05-03T08:25:59.044Z</time></trkpt><trkpt lat="42.0560741" lon="13.5923805"><ele>717.0</ele><time>2026-05-03T08:26:00.036Z</time></trkpt><trkpt lat="42.0560655" lon="13.5925797"><ele>717.5</ele><time>2026-05-03T08:26:01.063Z</time></trkpt><trkpt lat="42.0560573" lon="13.5927828"><ele>718.0</ele><time>2026-05-03T08:26:02.058Z</time></trkpt><trkpt lat="42.0560552" lon="13.5929839"><ele>718.3333333333334</ele><time>2026-05-03T08:26:03.047Z</time></trkpt><trkpt lat="42.0560582" lon="13.5931878"><ele>718.6666666666666</ele><time>2026-05-03T08:26:04.038Z</time></trkpt><trkpt lat="42.0560675" lon="13.5933992"><ele>719.0</ele><time>2026-05-03T08:26:05.048Z</time></trkpt><trkpt lat="42.0560807" lon="13.5936131"><ele>719.3333333333333</ele><time>2026-05-03T08:26:06.036Z</time></trkpt><trkpt lat="42.0560935" lon="13.5938359"><ele>719.6666666666666</ele><time>2026-05-03T08:26:07.045Z</time></trkpt><trkpt lat="42.0561106" lon="13.5940571"><ele>720.0</ele><time>2026-05-03T08:26:08.043Z</time></trkpt><trkpt lat="42.0561314" lon="13.5942824"><ele>720.0</ele><time>2026-05-03T08:26:09.037Z</time></trkpt><trkpt lat="42.0561537" lon="13.5945156"><ele>720.0</ele><time>2026-05-03T08:26:10.041Z</time></trkpt><trkpt lat="42.0561798" lon="13.5947498"><ele>720.0</ele><time>2026-05-03T08:26:11.053Z</time></trkpt><trkpt lat="42.0562022" lon="13.5949835"><ele>720.0</ele><time>2026-05-03T08:26:12.049Z</time></trkpt><trkpt lat="42.0562232" lon="13.595221"><ele>720.0</ele><time>2026-05-03T08:26:13.044Z</time></trkpt><trkpt lat="42.0562435" lon="13.5954609"><ele>720.0</ele><time>2026-05-03T08:26:14.048Z</time></trkpt><trkpt lat="42.0562702" lon="13.5956995"><ele>720.0</ele><time>2026-05-03T08:26:15.035Z</time></trkpt><trkpt lat="42.0562991" lon="13.5959362"><ele>720.0</ele><time>2026-05-03T08:26:16.057Z</time></trkpt><trkpt lat="42.056323" lon="13.596175"><ele>720.0</ele><time>2026-05-03T08:26:17.044Z</time></trkpt><trkpt lat="42.0563505" lon="13.5964129"><ele>720.0</ele><time>2026-05-03T08:26:18.053Z</time></trkpt><trkpt lat="42.0563744" lon="13.5966441"><ele>720.0</ele><time>2026-05-03T08:26:19.042Z</time></trkpt><trkpt lat="42.0563973" lon="13.5968795"><ele>720.0</ele><time>2026-05-03T08:26:20.052Z</time></trkpt><trkpt lat="42.0564234" lon="13.5971174"><ele>720.3333333333334</ele><time>2026-05-03T08:26:21.027Z</time></trkpt><trkpt lat="42.0564491" lon="13.5973537"><ele>720.6666666666667</ele><time>2026-05-03T08:26:22.046Z</time></trkpt><trkpt lat="42.0564716" lon="13.5975852"><ele>721.0</ele><time>2026-05-03T08:26:23.048Z</time></trkpt><trkpt lat="42.0564944" lon="13.5978145"><ele>721.6666666666667</ele><time>2026-05-03T08:26:24.051Z</time></trkpt><trkpt lat="42.0565197" lon="13.5980442"><ele>722.3333333333334</ele><time>2026-05-03T08:26:25.046Z</time></trkpt><trkpt lat="42.0565421" lon="13.5982745"><ele>723.0</ele><time>2026-05-03T08:26:26.055Z</time></trkpt><trkpt lat="42.0565662" lon="13.5984996"><ele>723.3333333333334</ele><time>2026-05-03T08:26:27.052Z</time></trkpt><trkpt lat="42.0565854" lon="13.5987238"><ele>723.6666666666667</ele><time>2026-05-03T08:26:28.045Z</time></trkpt><trkpt lat="42.0566054" lon="13.5989445"><ele>724.0</ele><time>2026-05-03T08:26:29.047Z</time></trkpt><trkpt lat="42.056625" lon="13.5991645"><ele>724.3333333333334</ele><time>2026-05-03T08:26:30.039Z</time></trkpt><trkpt lat="42.0566497" lon="13.5993819"><ele>724.6666666666666</ele><time>2026-05-03T08:26:31.05Z</time></trkpt><trkpt lat="42.0566733" lon="13.599592"><ele>725.0</ele><time>2026-05-03T08:26:32.045Z</time></trkpt><trkpt lat="42.0566983" lon="13.5998045"><ele>726.3333333333333</ele><time>2026-05-03T08:26:33.055Z</time></trkpt><trkpt lat="42.0567209" lon="13.6000162"><ele>727.6666666666666</ele><time>2026-05-03T08:26:34.049Z</time></trkpt><trkpt lat="42.0567477" lon="13.6002277"><ele>729.0</ele><time>2026-05-03T08:26:35.061Z</time></trkpt><trkpt lat="42.0567677" lon="13.6004157"><ele>729.25</ele><time>2026-05-03T08:26:36.048Z</time></trkpt><trkpt lat="42.0567835" lon="13.600592"><ele>729.5</ele><time>2026-05-03T08:26:37.042Z</time></trkpt><trkpt lat="42.0568048" lon="13.6007674"><ele>729.75</ele><time>2026-05-03T08:26:38.047Z</time></trkpt><trkpt lat="42.0568291" lon="13.6009453"><ele>730.0</ele><time>2026-05-03T08:26:39.049Z</time></trkpt><trkpt lat="42.0568493" lon="13.6011238"><ele>730.5</ele><time>2026-05-03T08:26:40.032Z</time></trkpt><trkpt lat="42.0568674" lon="13.6012993"><ele>731.0</ele><time>2026-05-03T08:26:41.037Z</time></trkpt><trkpt lat="42.056884" lon="13.6014703"><ele>731.5</ele><time>2026-05-03T08:26:42.042Z</time></trkpt><trkpt lat="42.0569037" lon="13.6016425"><ele>732.0</ele><time>2026-05-03T08:26:43.034Z</time></trkpt><trkpt lat="42.0569176" lon="13.6018122"><ele>732.0</ele><time>2026-05-03T08:26:44.044Z</time></trkpt><trkpt lat="42.0569336" lon="13.6019724"><ele>732.0</ele><time>2026-05-03T08:26:45.047Z</time></trkpt><trkpt lat="42.0569532" lon="13.6021375"><ele>732.0</ele><time>2026-05-03T08:26:46.038Z</time></trkpt><trkpt lat="42.0569713" lon="13.6023054"><ele>732.0</ele><time>2026-05-03T08:26:47.038Z</time></trkpt><trkpt lat="42.0569836" lon="13.6024701"><ele>732.5</ele><time>2026-05-03T08:26:48.046Z</time></trkpt><trkpt lat="42.0569847" lon="13.6026396"><ele>733.0</ele><time>2026-05-03T08:26:49.05Z</time></trkpt><trkpt lat="42.0569733" lon="13.6027998"><ele>733.5</ele><time>2026-05-03T08:26:50.035Z</time></trkpt><trkpt lat="42.0569464" lon="13.6029518"><ele>734.0</ele><time>2026-05-03T08:26:51.049Z</time></trkpt><trkpt lat="42.0568932" lon="13.603087"><ele>734.5</ele><time>2026-05-03T08:26:52.036Z</time></trkpt><trkpt lat="42.0568233" lon="13.603218"><ele>735.0</ele><time>2026-05-03T08:26:53.048Z</time></trkpt><trkpt lat="42.0567521" lon="13.6033419"><ele>735.5</ele><time>2026-05-03T08:26:54.051Z</time></trkpt><trkpt lat="42.0566789" lon="13.6034781"><ele>736.0</ele><time>2026-05-03T08:26:55.053Z</time></trkpt><trkpt lat="42.0566092" lon="13.603615"><ele>736.25</ele><time>2026-05-03T08:26:56.052Z</time></trkpt><trkpt lat="42.0565374" lon="13.603757"><ele>736.5</ele><time>2026-05-03T08:26:57.039Z</time></trkpt><trkpt lat="42.0564613" lon="13.6038969"><ele>736.75</ele><time>2026-05-03T08:26:58.037Z</time></trkpt><trkpt lat="42.0563848" lon="13.6040414"><ele>737.0</ele><time>2026-05-03T08:26:59.032Z</time></trkpt><trkpt lat="42.0563094" lon="13.6041803"><ele>737.0</ele><time>2026-05-03T08:27:00.046Z</time></trkpt><trkpt lat="42.0562341" lon="13.6043142"><ele>737.0</ele><time>2026-05-03T08:27:01.021Z</time></trkpt><trkpt lat="42.0561515" lon="13.6044566"><ele>737.0</ele><time>2026-05-03T08:27:02.048Z</time></trkpt><trkpt lat="42.0560749" lon="13.6045991"><ele>737.0</ele><time>2026-05-03T08:27:03.025Z</time></trkpt><trkpt lat="42.0559982" lon="13.6047468"><ele>736.5</ele><time>2026-05-03T08:27:04.034Z</time></trkpt><trkpt lat="42.0559204" lon="13.6048891"><ele>736.0</ele><time>2026-05-03T08:27:05.053Z</time></trkpt><trkpt lat="42.0558437" lon="13.6050308"><ele>735.5</ele><time>2026-05-03T08:27:06.038Z</time></trkpt><trkpt lat="42.0557624" lon="13.6051674"><ele>735.0</ele><time>2026-05-03T08:27:07.042Z</time></trkpt><trkpt lat="42.0556799" lon="13.605303"><ele>736.25</ele><time>2026-05-03T08:27:08.046Z</time></trkpt><trkpt lat="42.055605" lon="13.6054414"><ele>737.5</ele><time>2026-05-03T08:27:09.034Z</time></trkpt><trkpt lat="42.0555292" lon="13.6055813"><ele>738.75</ele><time>2026-05-03T08:27:10.03Z</time></trkpt><trkpt lat="42.0554532" lon="13.6057238"><ele>740.0</ele><time>2026-05-03T08:27:11.035Z</time></trkpt><trkpt lat="42.0553812" lon="13.6058694"><ele>740.0</ele><time>2026-05-03T08:27:12.041Z</time></trkpt><trkpt lat="42.0553178" lon="13.6060232"><ele>740.0</ele><time>2026-05-03T08:27:13.029Z</time></trkpt><trkpt lat="42.0552643" lon="13.6061845"><ele>740.0</ele><time>2026-05-03T08:27:14.046Z</time></trkpt><trkpt lat="42.0552225" lon="13.6063578"><ele>740.0</ele><time>2026-05-03T08:27:15.032Z</time></trkpt><trkpt lat="42.0551968" lon="13.6065303"><ele>740.25</ele><time>2026-05-03T08:27:16.038Z</time></trkpt><trkpt lat="42.0551974" lon="13.6066986"><ele>740.5</ele><time>2026-05-03T08:27:17.045Z</time></trkpt><trkpt lat="42.0552378" lon="13.6068545"><ele>740.75</ele><time>2026-05-03T08:27:18.052Z</time></trkpt><trkpt lat="42.055313" lon="13.6069851"><ele>741.0</ele><time>2026-05-03T08:27:19.043Z</time></trkpt><trkpt lat="42.0554148" lon="13.607096"><ele>741.0</ele><time>2026-05-03T08:27:20.049Z</time></trkpt><trkpt lat="42.0555336" lon="13.6071979"><ele>741.0</ele><time>2026-05-03T08:27:21.031Z</time></trkpt><trkpt lat="42.0556588" lon="13.6073095"><ele>741.0</ele><time>2026-05-03T08:27:22.039Z</time></trkpt><trkpt lat="42.0557724" lon="13.6074354"><ele>741.0</ele><time>2026-05-03T08:27:23.03Z</time></trkpt><trkpt lat="42.055893" lon="13.6075737"><ele>741.6666666666666</ele><time>2026-05-03T08:27:24.044Z</time></trkpt><trkpt lat="42.0560187" lon="13.6077187"><ele>742.3333333333333</ele><time>2026-05-03T08:27:25.043Z</time></trkpt><trkpt lat="42.0561488" lon="13.6078627"><ele>743.0</ele><time>2026-05-03T08:27:26.051Z</time></trkpt><trkpt lat="42.0562756" lon="13.6080106"><ele>743.0</ele><time>2026-05-03T08:27:27.037Z</time></trkpt><trkpt lat="42.0564006" lon="13.6081571"><ele>743.0</ele><time>2026-05-03T08:27:28.044Z</time></trkpt><trkpt lat="42.0565234" lon="13.6082999"><ele>743.0</ele><time>2026-05-03T08:27:29.043Z</time></trkpt><trkpt lat="42.0566444" lon="13.6084445"><ele>742.3333333333333</ele><time>2026-05-03T08:27:30.049Z</time></trkpt><trkpt lat="42.0567643" lon="13.6085899"><ele>741.6666666666666</ele><time>2026-05-03T08:27:31.049Z</time></trkpt><trkpt lat="42.0568798" lon="13.6087349"><ele>741.0</ele><time>2026-05-03T08:27:32.044Z</time></trkpt><trkpt lat="42.056992" lon="13.6088734"><ele>741.0</ele><time>2026-05-03T08:27:33.038Z</time></trkpt><trkpt lat="42.0571005" lon="13.6089993"><ele>741.0</ele><time>2026-05-03T08:27:34.055Z</time></trkpt><trkpt lat="42.0572021" lon="13.6091188"><ele>741.0</ele><time>2026-05-03T08:27:35.037Z</time></trkpt><trkpt lat="42.057301" lon="13.6092338"><ele>741.0</ele><time>2026-05-03T08:27:36.04Z</time></trkpt><trkpt lat="42.0574012" lon="13.6093537"><ele>742.75</ele><time>2026-05-03T08:27:37.023Z</time></trkpt><trkpt lat="42.0574956" lon="13.6094645"><ele>744.5</ele><time>2026-05-03T08:27:38.047Z</time></trkpt><trkpt lat="42.057589" lon="13.6095746"><ele>746.25</ele><time>2026-05-03T08:27:39.047Z</time></trkpt><trkpt lat="42.0576844" lon="13.6096846"><ele>748.0</ele><time>2026-05-03T08:27:40.047Z</time></trkpt><trkpt lat="42.0577855" lon="13.6098014"><ele>748.0</ele><time>2026-05-03T08:27:41.044Z</time></trkpt><trkpt lat="42.0578897" lon="13.6099241"><ele>748.0</ele><time>2026-05-03T08:27:42.041Z</time></trkpt><trkpt lat="42.0579965" lon="13.6100584"><ele>748.0</ele><time>2026-05-03T08:27:43.036Z</time></trkpt><trkpt lat="42.0581035" lon="13.6101964"><ele>748.0</ele><time>2026-05-03T08:27:44.041Z</time></trkpt><trkpt lat="42.058211" lon="13.6103299"><ele>749.0</ele><time>2026-05-03T08:27:45.034Z</time></trkpt><trkpt lat="42.0583225" lon="13.6104634"><ele>750.0</ele><time>2026-05-03T08:27:46.032Z</time></trkpt><trkpt lat="42.0584331" lon="13.6106022"><ele>751.0</ele><time>2026-05-03T08:27:47.024Z</time></trkpt><trkpt lat="42.0585375" lon="13.6107511"><ele>751.0</ele><time>2026-05-03T08:27:48.033Z</time></trkpt><trkpt lat="42.0586355" lon="13.6109054"><ele>751.0</ele><time>2026-05-03T08:27:49.033Z</time></trkpt><trkpt lat="42.0587329" lon="13.6110566"><ele>751.0</ele><time>2026-05-03T08:27:50.047Z</time></trkpt><trkpt lat="42.0588297" lon="13.6112021"><ele>751.0</ele><time>2026-05-03T08:27:51.045Z</time></trkpt><trkpt lat="42.0589212" lon="13.6113464"><ele>750.75</ele><time>2026-05-03T08:27:52.029Z</time></trkpt><trkpt lat="42.0590093" lon="13.6114849"><ele>750.5</ele><time>2026-05-03T08:27:53.062Z</time></trkpt><trkpt lat="42.0590944" lon="13.6116202"><ele>750.25</ele><time>2026-05-03T08:27:54.043Z</time></trkpt><trkpt lat="42.0591781" lon="13.6117608"><ele>750.0</ele><time>2026-05-03T08:27:55.039Z</time></trkpt><trkpt lat="42.0592445" lon="13.6119084"><ele>751.5</ele><time>2026-05-03T08:27:56.032Z</time></trkpt><trkpt lat="42.0592968" lon="13.6120636"><ele>753.0</ele><time>2026-05-03T08:27:57.047Z</time></trkpt><trkpt lat="42.0593413" lon="13.6122201"><ele>754.5</ele><time>2026-05-03T08:27:58.052Z</time></trkpt><trkpt lat="42.0593821" lon="13.6123687"><ele>756.0</ele><time>2026-05-03T08:27:59.039Z</time></trkpt><trkpt lat="42.0594225" lon="13.612512"><ele>756.0</ele><time>2026-05-03T08:28:00.037Z</time></trkpt><trkpt lat="42.0594556" lon="13.6126397"><ele>756.0</ele><time>2026-05-03T08:28:01.027Z</time></trkpt><trkpt lat="42.0594897" lon="13.6127578"><ele>756.0</ele><time>2026-05-03T08:28:02.047Z</time></trkpt><trkpt lat="42.0595178" lon="13.6128868"><ele>756.0</ele><time>2026-05-03T08:28:03.047Z</time></trkpt><trkpt lat="42.059533" lon="13.6130043"><ele>756.0</ele><time>2026-05-03T08:28:04.04Z</time></trkpt><trkpt lat="42.0595229" lon="13.6131135"><ele>756.6666666666666</ele><time>2026-05-03T08:28:05.057Z</time></trkpt><trkpt lat="42.0594985" lon="13.6132248"><ele>757.3333333333334</ele><time>2026-05-03T08:28:06.056Z</time></trkpt><trkpt lat="42.0594509" lon="13.613314"><ele>758.0</ele><time>2026-05-03T08:28:07.046Z</time></trkpt><trkpt lat="42.0593822" lon="13.6133763"><ele>758.6666666666667</ele><time>2026-05-03T08:28:08.038Z</time></trkpt><trkpt lat="42.0593065" lon="13.6134033"><ele>759.3333333333334</ele><time>2026-05-03T08:28:09.009Z</time></trkpt><trkpt lat="42.0592216" lon="13.6133984"><ele>760.0</ele><time>2026-05-03T08:28:10.047Z</time></trkpt><trkpt lat="42.0591299" lon="13.6133664"><ele>761.0</ele><time>2026-05-03T08:28:11.038Z</time></trkpt><trkpt lat="42.0590369" lon="13.6132926"><ele>762.0</ele><time>2026-05-03T08:28:12.053Z</time></trkpt><trkpt lat="42.0589439" lon="13.613209"><ele>763.0</ele><time>2026-05-03T08:28:13.038Z</time></trkpt><trkpt lat="42.0588556" lon="13.6131166"><ele>764.0</ele><time>2026-05-03T08:28:14.046Z</time></trkpt><trkpt lat="42.0587654" lon="13.6130167"><ele>765.0</ele><time>2026-05-03T08:28:15.041Z</time></trkpt><trkpt lat="42.0586686" lon="13.6129178"><ele>765.0</ele><time>2026-05-03T08:28:16.042Z</time></trkpt><trkpt lat="42.0585723" lon="13.6128191"><ele>765.0</ele><time>2026-05-03T08:28:17.032Z</time></trkpt><trkpt lat="42.0584759" lon="13.6127174"><ele>765.0</ele><time>2026-05-03T08:28:18.043Z</time></trkpt><trkpt lat="42.0583771" lon="13.6126239"><ele>765.0</ele><time>2026-05-03T08:28:19.05Z</time></trkpt><trkpt lat="42.0582702" lon="13.6125358"><ele>765.0</ele><time>2026-05-03T08:28:20.053Z</time></trkpt><trkpt lat="42.0581601" lon="13.612465"><ele>765.0</ele><time>2026-05-03T08:28:21.054Z</time></trkpt><trkpt lat="42.0580432" lon="13.6124232"><ele>765.0</ele><time>2026-05-03T08:28:22.053Z</time></trkpt><trkpt lat="42.0579265" lon="13.6124003"><ele>765.0</ele><time>2026-05-03T08:28:23.048Z</time></trkpt><trkpt lat="42.057806" lon="13.6123888"><ele>765.0</ele><time>2026-05-03T08:28:24.05Z</time></trkpt><trkpt lat="42.057689" lon="13.6123792"><ele>765.0</ele><time>2026-05-03T08:28:25.054Z</time></trkpt><trkpt lat="42.0575661" lon="13.6123797"><ele>765.0</ele><time>2026-05-03T08:28:26.048Z</time></trkpt><trkpt lat="42.0574472" lon="13.6123848"><ele>765.0</ele><time>2026-05-03T08:28:27.048Z</time></trkpt><trkpt lat="42.0573246" lon="13.6123851"><ele>765.0</ele><time>2026-05-03T08:28:28.036Z</time></trkpt><trkpt lat="42.057199" lon="13.6124081"><ele>765.0</ele><time>2026-05-03T08:28:29.052Z</time></trkpt><trkpt lat="42.0570788" lon="13.6124281"><ele>765.0</ele><time>2026-05-03T08:28:30.03Z</time></trkpt><trkpt lat="42.0569573" lon="13.6124526"><ele>765.0</ele><time>2026-05-03T08:28:31.056Z</time></trkpt><trkpt lat="42.0568406" lon="13.6124863"><ele>765.0</ele><time>2026-05-03T08:28:32.042Z</time></trkpt><trkpt lat="42.0567209" lon="13.6125182"><ele>765.0</ele><time>2026-05-03T08:28:33.038Z</time></trkpt><trkpt lat="42.0565921" lon="13.612549"><ele>765.0</ele><time>2026-05-03T08:28:34.046Z</time></trkpt><trkpt lat="42.0564699" lon="13.6125771"><ele>765.0</ele><time>2026-05-03T08:28:35.05Z</time></trkpt><trkpt lat="42.0563442" lon="13.6126055"><ele>764.5</ele><time>2026-05-03T08:28:36.039Z</time></trkpt><trkpt lat="42.0562195" lon="13.6126341"><ele>764.0</ele><time>2026-05-03T08:28:37.025Z</time></trkpt><trkpt lat="42.0560963" lon="13.6126589"><ele>763.5</ele><time>2026-05-03T08:28:38.043Z</time></trkpt><trkpt lat="42.055977" lon="13.6126723"><ele>763.0</ele><time>2026-05-03T08:28:39.057Z</time></trkpt><trkpt lat="42.055853" lon="13.6126733"><ele>763.4</ele><time>2026-05-03T08:28:40.053Z</time></trkpt><trkpt lat="42.055731" lon="13.6126676"><ele>763.8</ele><time>2026-05-03T08:28:41.034Z</time></trkpt><trkpt lat="42.0556165" lon="13.6126557"><ele>764.2</ele><time>2026-05-03T08:28:42.043Z</time></trkpt><trkpt lat="42.0555091" lon="13.6126482"><ele>764.6</ele><time>2026-05-03T08:28:43.05Z</time></trkpt><trkpt lat="42.0554167" lon="13.6126427"><ele>765.0</ele><time>2026-05-03T08:28:44.055Z</time></trkpt><trkpt lat="42.0553275" lon="13.6126642"><ele>765.0</ele><time>2026-05-03T08:28:45.044Z</time></trkpt><trkpt lat="42.0552492" lon="13.6127251"><ele>765.0</ele><time>2026-05-03T08:28:46.044Z</time></trkpt><trkpt lat="42.0551959" lon="13.6128309"><ele>765.0</ele><time>2026-05-03T08:28:47.048Z</time></trkpt><trkpt lat="42.0551795" lon="13.6129539"><ele>765.0</ele><time>2026-05-03T08:28:48.051Z</time></trkpt><trkpt lat="42.055174" lon="13.6130945"><ele>765.0</ele><time>2026-05-03T08:28:49.044Z</time></trkpt><trkpt lat="42.0552142" lon="13.613222"><ele>765.75</ele><time>2026-05-03T08:28:50.062Z</time></trkpt><trkpt lat="42.0552555" lon="13.613365"><ele>766.5</ele><time>2026-05-03T08:28:51.047Z</time></trkpt><trkpt lat="42.055303" lon="13.6135126"><ele>767.25</ele><time>2026-05-03T08:28:52.041Z</time></trkpt><trkpt lat="42.0553458" lon="13.6136598"><ele>768.0</ele><time>2026-05-03T08:28:53.042Z</time></trkpt><trkpt lat="42.055379" lon="13.6138152"><ele>768.0</ele><time>2026-05-03T08:28:54.04Z</time></trkpt><trkpt lat="42.0554037" lon="13.6139801"><ele>768.0</ele><time>2026-05-03T08:28:55.043Z</time></trkpt><trkpt lat="42.0554191" lon="13.6141449"><ele>768.0</ele><time>2026-05-03T08:28:56.043Z</time></trkpt><trkpt lat="42.0554156" lon="13.6143166"><ele>768.0</ele><time>2026-05-03T08:28:57.043Z</time></trkpt><trkpt lat="42.055397" lon="13.6144769"><ele>769.25</ele><time>2026-05-03T08:28:58.038Z</time></trkpt><trkpt lat="42.0553637" lon="13.6146387"><ele>770.5</ele><time>2026-05-03T08:28:59.039Z</time></trkpt><trkpt lat="42.0553173" lon="13.614798"><ele>771.75</ele><time>2026-05-03T08:29:00.038Z</time></trkpt><trkpt lat="42.0552563" lon="13.614943"><ele>773.0</ele><time>2026-05-03T08:29:01.057Z</time></trkpt><trkpt lat="42.0551846" lon="13.6150766"><ele>773.0</ele><time>2026-05-03T08:29:02.051Z</time></trkpt><trkpt lat="42.0551091" lon="13.6151956"><ele>773.0</ele><time>2026-05-03T08:29:03.04Z</time></trkpt><trkpt lat="42.0550154" lon="13.6153095"><ele>773.0</ele><time>2026-05-03T08:29:04.048Z</time></trkpt><trkpt lat="42.0549249" lon="13.6154067"><ele>773.0</ele><time>2026-05-03T08:29:05.039Z</time></trkpt><trkpt lat="42.0548406" lon="13.6154859"><ele>772.5999999999999</ele><time>2026-05-03T08:29:06.063Z</time></trkpt><trkpt lat="42.0547717" lon="13.6155759"><ele>772.1999999999999</ele><time>2026-05-03T08:29:07.047Z</time></trkpt><trkpt lat="42.0547216" lon="13.6156873"><ele>771.8</ele><time>2026-05-03T08:29:08.034Z</time></trkpt><trkpt lat="42.0546942" lon="13.6158223"><ele>771.4</ele><time>2026-05-03T08:29:09.042Z</time></trkpt><trkpt lat="42.0546954" lon="13.6159663"><ele>771.0</ele><time>2026-05-03T08:29:10.035Z</time></trkpt><trkpt lat="42.0546996" lon="13.6161279"><ele>772.25</ele><time>2026-05-03T08:29:11.042Z</time></trkpt><trkpt lat="42.054728" lon="13.6162838"><ele>773.5</ele><time>2026-05-03T08:29:12.047Z</time></trkpt><trkpt lat="42.0547687" lon="13.6164393"><ele>774.75</ele><time>2026-05-03T08:29:13.04Z</time></trkpt><trkpt lat="42.0548046" lon="13.6165948"><ele>776.0</ele><time>2026-05-03T08:29:14.051Z</time></trkpt><trkpt lat="42.0548352" lon="13.6167534"><ele>776.0</ele><time>2026-05-03T08:29:15.043Z</time></trkpt><trkpt lat="42.0548708" lon="13.6169157"><ele>776.0</ele><time>2026-05-03T08:29:16.043Z</time></trkpt><trkpt lat="42.054905" lon="13.6170816"><ele>776.0</ele><time>2026-05-03T08:29:17.046Z</time></trkpt><trkpt lat="42.0549434" lon="13.617249"><ele>776.0</ele><time>2026-05-03T08:29:18.039Z</time></trkpt><trkpt lat="42.0549811" lon="13.6174238"><ele>778.25</ele><time>2026-05-03T08:29:19.047Z</time></trkpt><trkpt lat="42.0550177" lon="13.6175935"><ele>780.5</ele><time>2026-05-03T08:29:20.04Z</time></trkpt><trkpt lat="42.0550575" lon="13.6177571"><ele>782.75</ele><time>2026-05-03T08:29:21.037Z</time></trkpt><trkpt lat="42.0550957" lon="13.6179275"><ele>785.0</ele><time>2026-05-03T08:29:22.048Z</time></trkpt><trkpt lat="42.0551334" lon="13.6180926"><ele>785.4</ele><time>2026-05-03T08:29:23.044Z</time></trkpt><trkpt lat="42.0551671" lon="13.6182463"><ele>785.8</ele><time>2026-05-03T08:29:24.042Z</time></trkpt><trkpt lat="42.055201" lon="13.6184037"><ele>786.2</ele><time>2026-05-03T08:29:25.044Z</time></trkpt><trkpt lat="42.0552286" lon="13.6185462"><ele>786.6</ele><time>2026-05-03T08:29:26.043Z</time></trkpt><trkpt lat="42.0552425" lon="13.618676"><ele>787.0</ele><time>2026-05-03T08:29:27.047Z</time></trkpt><trkpt lat="42.0552363" lon="13.6188008"><ele>788.0</ele><time>2026-05-03T08:29:28.044Z</time></trkpt><trkpt lat="42.055202" lon="13.61892"><ele>789.0</ele><time>2026-05-03T08:29:29.042Z</time></trkpt><trkpt lat="42.0551394" lon="13.6190258"><ele>790.0</ele><time>2026-05-03T08:29:30.039Z</time></trkpt><trkpt lat="42.0550539" lon="13.619118"><ele>791.0</ele><time>2026-05-03T08:29:31.051Z</time></trkpt><trkpt lat="42.0549575" lon="13.6192052"><ele>792.0</ele><time>2026-05-03T08:29:32.032Z</time></trkpt><trkpt lat="42.0548677" lon="13.6192812"><ele>790.8</ele><time>2026-05-03T08:29:33.03Z</time></trkpt><trkpt lat="42.0547791" lon="13.6193714"><ele>789.6</ele><time>2026-05-03T08:29:34.039Z</time></trkpt><trkpt lat="42.054709" lon="13.61947"><ele>788.4</ele><time>2026-05-03T08:29:35.049Z</time></trkpt><trkpt lat="42.0546558" lon="13.6195875"><ele>787.1999999999999</ele><time>2026-05-03T08:29:36.043Z</time></trkpt><trkpt lat="42.0546154" lon="13.6197272"><ele>786.0</ele><time>2026-05-03T08:29:37.031Z</time></trkpt><trkpt lat="42.0545916" lon="13.6198878"><ele>786.0</ele><time>2026-05-03T08:29:38.048Z</time></trkpt><trkpt lat="42.0545836" lon="13.6200486"><ele>786.0</ele><time>2026-05-03T08:29:39.032Z</time></trkpt><trkpt lat="42.0545771" lon="13.6202127"><ele>786.0</ele><time>2026-05-03T08:29:40.035Z</time></trkpt><trkpt lat="42.0545761" lon="13.6203907"><ele>786.0</ele><time>2026-05-03T08:29:41.031Z</time></trkpt><trkpt lat="42.0545777" lon="13.6205696"><ele>787.25</ele><time>2026-05-03T08:29:42.041Z</time></trkpt><trkpt lat="42.054572" lon="13.620748"><ele>788.5</ele><time>2026-05-03T08:29:43.027Z</time></trkpt><trkpt lat="42.0545681" lon="13.6209265"><ele>789.75</ele><time>2026-05-03T08:29:44.037Z</time></trkpt><trkpt lat="42.0545639" lon="13.621105"><ele>791.0</ele><time>2026-05-03T08:29:45.031Z</time></trkpt><trkpt lat="42.0545562" lon="13.6212831"><ele>791.75</ele><time>2026-05-03T08:29:46.041Z</time></trkpt><trkpt lat="42.054546" lon="13.6214623"><ele>792.5</ele><time>2026-05-03T08:29:47.035Z</time></trkpt><trkpt lat="42.0545304" lon="13.6216395"><ele>793.25</ele><time>2026-05-03T08:29:48.047Z</time></trkpt><trkpt lat="42.0545164" lon="13.6218082"><ele>794.0</ele><time>2026-05-03T08:29:49.045Z</time></trkpt><trkpt lat="42.054496" lon="13.6219772"><ele>795.25</ele><time>2026-05-03T08:29:50.044Z</time></trkpt><trkpt lat="42.0544681" lon="13.6221447"><ele>796.5</ele><time>2026-05-03T08:29:51.038Z</time></trkpt><trkpt lat="42.054435" lon="13.6223105"><ele>797.75</ele><time>2026-05-03T08:29:52.041Z</time></trkpt><trkpt lat="42.0543926" lon="13.6224762"><ele>799.0</ele><time>2026-05-03T08:29:53.046Z</time></trkpt><trkpt lat="42.0543403" lon="13.6226263"><ele>799.0</ele><time>2026-05-03T08:29:54.033Z</time></trkpt><trkpt lat="42.0542788" lon="13.6227807"><ele>799.0</ele><time>2026-05-03T08:29:55.034Z</time></trkpt><trkpt lat="42.0542026" lon="13.6229232"><ele>799.0</ele><time>2026-05-03T08:29:56.033Z</time></trkpt><trkpt lat="42.0541285" lon="13.6230523"><ele>799.0</ele><time>2026-05-03T08:29:57.033Z</time></trkpt><trkpt lat="42.0540514" lon="13.6231863"><ele>799.0</ele><time>2026-05-03T08:29:58.031Z</time></trkpt><trkpt lat="42.0539774" lon="13.6233178"><ele>799.0</ele><time>2026-05-03T08:29:59.028Z</time></trkpt><trkpt lat="42.0539097" lon="13.6234502"><ele>799.0</ele><time>2026-05-03T08:30:00.043Z</time></trkpt><trkpt lat="42.0538496" lon="13.6235828"><ele>799.0</ele><time>2026-05-03T08:30:01.043Z</time></trkpt><trkpt lat="42.0538006" lon="13.6237028"><ele>799.0</ele><time>2026-05-03T08:30:02.041Z</time></trkpt><trkpt lat="42.0537669" lon="13.6238184"><ele>799.0</ele><time>2026-05-03T08:30:03.042Z</time></trkpt><trkpt lat="42.0537505" lon="13.623941"><ele>799.0</ele><time>2026-05-03T08:30:04.038Z</time></trkpt><trkpt lat="42.0537597" lon="13.6240654"><ele>799.0</ele><time>2026-05-03T08:30:05.048Z</time></trkpt><trkpt lat="42.0537959" lon="13.6241928"><ele>799.0</ele><time>2026-05-03T08:30:06.042Z</time></trkpt><trkpt lat="42.0538629" lon="13.6243157"><ele>799.0</ele><time>2026-05-03T08:30:07.039Z</time></trkpt><trkpt lat="42.0539377" lon="13.6244218"><ele>799.0</ele><time>2026-05-03T08:30:08.04Z</time></trkpt><trkpt lat="42.0540322" lon="13.6245075"><ele>799.0</ele><time>2026-05-03T08:30:09.04Z</time></trkpt><trkpt lat="42.0541371" lon="13.6245611"><ele>799.0</ele><time>2026-05-03T08:30:10.04Z</time></trkpt><trkpt lat="42.0542499" lon="13.6245704"><ele>799.0</ele><time>2026-05-03T08:30:11.037Z</time></trkpt><trkpt lat="42.0543542" lon="13.6245466"><ele>800.75</ele><time>2026-05-03T08:30:12.041Z</time></trkpt><trkpt lat="42.0544756" lon="13.6244882"><ele>802.5</ele><time>2026-05-03T08:30:13.028Z</time></trkpt><trkpt lat="42.0545926" lon="13.6244233"><ele>804.25</ele><time>2026-05-03T08:30:14.038Z</time></trkpt><trkpt lat="42.0547107" lon="13.6243584"><ele>806.0</ele><time>2026-05-03T08:30:15.025Z</time></trkpt><trkpt lat="42.0548291" lon="13.6243022"><ele>806.75</ele><time>2026-05-03T08:30:16.054Z</time></trkpt><trkpt lat="42.0549438" lon="13.6242483"><ele>807.5</ele><time>2026-05-03T08:30:17.047Z</time></trkpt><trkpt lat="42.0550633" lon="13.6242097"><ele>808.25</ele><time>2026-05-03T08:30:18.039Z</time></trkpt><trkpt lat="42.0551862" lon="13.6241726"><ele>809.0</ele><time>2026-05-03T08:30:19.034Z</time></trkpt><trkpt lat="42.0553108" lon="13.6241477"><ele>809.5</ele><time>2026-05-03T08:30:20.049Z</time></trkpt><trkpt lat="42.0554366" lon="13.6241162"><ele>810.0</ele><time>2026-05-03T08:30:21.047Z</time></trkpt><trkpt lat="42.0555584" lon="13.6240907"><ele>810.5</ele><time>2026-05-03T08:30:22.03Z</time></trkpt><trkpt lat="42.0556731" lon="13.6240868"><ele>811.0</ele><time>2026-05-03T08:30:23.043Z</time></trkpt><trkpt lat="42.0557893" lon="13.6240965"><ele>811.4</ele><time>2026-05-03T08:30:24.039Z</time></trkpt><trkpt lat="42.0558978" lon="13.624114"><ele>811.8</ele><time>2026-05-03T08:30:25.042Z</time></trkpt><trkpt lat="42.056003" lon="13.6241379"><ele>812.1999999999999</ele><time>2026-05-03T08:30:26.038Z</time></trkpt><trkpt lat="42.0561001" lon="13.6241624"><ele>812.5999999999999</ele><time>2026-05-03T08:30:27.031Z</time></trkpt><trkpt lat="42.0561904" lon="13.6241845"><ele>813.0</ele><time>2026-05-03T08:30:28.042Z</time></trkpt><trkpt lat="42.0562842" lon="13.6242099"><ele>813.0</ele><time>2026-05-03T08:30:29.041Z</time></trkpt><trkpt lat="42.0563846" lon="13.6242451"><ele>813.0</ele><time>2026-05-03T08:30:30.037Z</time></trkpt><trkpt lat="42.0564888" lon="13.6242827"><ele>813.0</ele><time>2026-05-03T08:30:31.049Z</time></trkpt><trkpt lat="42.0565927" lon="13.6243245"><ele>813.0</ele><time>2026-05-03T08:30:32.052Z</time></trkpt><trkpt lat="42.0567017" lon="13.6243677"><ele>813.0</ele><time>2026-05-03T08:30:33.038Z</time></trkpt><trkpt lat="42.0568152" lon="13.6244092"><ele>814.0</ele><time>2026-05-03T08:30:34.042Z</time></trkpt><trkpt lat="42.0569309" lon="13.6244536"><ele>815.0</ele><time>2026-05-03T08:30:35.045Z</time></trkpt><trkpt lat="42.0570483" lon="13.6245007"><ele>816.0</ele><time>2026-05-03T08:30:36.039Z</time></trkpt><trkpt lat="42.0571701" lon="13.6245521"><ele>817.0</ele><time>2026-05-03T08:30:37.033Z</time></trkpt><trkpt lat="42.0572919" lon="13.6246052"><ele>817.0</ele><time>2026-05-03T08:30:38.046Z</time></trkpt><trkpt lat="42.0574202" lon="13.6246607"><ele>817.0</ele><time>2026-05-03T08:30:39.052Z</time></trkpt><trkpt lat="42.0575419" lon="13.6247186"><ele>817.0</ele><time>2026-05-03T08:30:40.051Z</time></trkpt><trkpt lat="42.0576546" lon="13.6247802"><ele>817.0</ele><time>2026-05-03T08:30:41.007Z</time></trkpt><trkpt lat="42.0577648" lon="13.6248528"><ele>818.75</ele><time>2026-05-03T08:30:42.035Z</time></trkpt><trkpt lat="42.0578602" lon="13.6249481"><ele>820.5</ele><time>2026-05-03T08:30:43.032Z</time></trkpt><trkpt lat="42.0579501" lon="13.6250608"><ele>822.25</ele><time>2026-05-03T08:30:44.032Z</time></trkpt><trkpt lat="42.0580314" lon="13.625177"><ele>824.0</ele><time>2026-05-03T08:30:45.035Z</time></trkpt><trkpt lat="42.0581153" lon="13.6252988"><ele>823.75</ele><time>2026-05-03T08:30:46.045Z</time></trkpt><trkpt lat="42.0582064" lon="13.6254089"><ele>823.5</ele><time>2026-05-03T08:30:47.037Z</time></trkpt><trkpt lat="42.0583049" lon="13.6255062"><ele>823.25</ele><time>2026-05-03T08:30:48.046Z</time></trkpt><trkpt lat="42.0584149" lon="13.625594"><ele>823.0</ele><time>2026-05-03T08:30:49.045Z</time></trkpt><trkpt lat="42.0585285" lon="13.6256581"><ele>824.75</ele><time>2026-05-03T08:30:50.044Z</time></trkpt><trkpt lat="42.0586443" lon="13.6257153"><ele>826.5</ele><time>2026-05-03T08:30:51.045Z</time></trkpt><trkpt lat="42.0587605" lon="13.6257691"><ele>828.25</ele><time>2026-05-03T08:30:52.037Z</time></trkpt><trkpt lat="42.0588671" lon="13.625817"><ele>830.0</ele><time>2026-05-03T08:30:53.034Z</time></trkpt><trkpt lat="42.0589775" lon="13.6258668"><ele>830.0</ele><time>2026-05-03T08:30:54.051Z</time></trkpt><trkpt lat="42.0590827" lon="13.625918"><ele>830.0</ele><time>2026-05-03T08:30:55.038Z</time></trkpt><trkpt lat="42.0591852" lon="13.6259681"><ele>830.0</ele><time>2026-05-03T08:30:56.032Z</time></trkpt><trkpt lat="42.0592878" lon="13.6260199"><ele>830.0</ele><time>2026-05-03T08:30:57.031Z</time></trkpt><trkpt lat="42.0593903" lon="13.6260722"><ele>830.0</ele><time>2026-05-03T08:30:58.031Z</time></trkpt><trkpt lat="42.0594902" lon="13.6261212"><ele>830.6</ele><time>2026-05-03T08:30:59.039Z</time></trkpt><trkpt lat="42.0595901" lon="13.6261701"><ele>831.2</ele><time>2026-05-03T08:31:00.05Z</time></trkpt><trkpt lat="42.0596833" lon="13.6262197"><ele>831.8</ele><time>2026-05-03T08:31:01.048Z</time></trkpt><trkpt lat="42.0597804" lon="13.6262681"><ele>832.4</ele><time>2026-05-03T08:31:02.046Z</time></trkpt><trkpt lat="42.0598796" lon="13.6263149"><ele>833.0</ele><time>2026-05-03T08:31:03.038Z</time></trkpt><trkpt lat="42.0599773" lon="13.626359"><ele>833.2</ele><time>2026-05-03T08:31:04.039Z</time></trkpt><trkpt lat="42.0600747" lon="13.6264025"><ele>833.4</ele><time>2026-05-03T08:31:05.038Z</time></trkpt><trkpt lat="42.0601693" lon="13.6264448"><ele>833.6</ele><time>2026-05-03T08:31:06.044Z</time></trkpt><trkpt lat="42.0602637" lon="13.6264933"><ele>833.8000000000001</ele><time>2026-05-03T08:31:07.051Z</time></trkpt><trkpt lat="42.0603566" lon="13.6265406"><ele>834.0</ele><time>2026-05-03T08:31:08.043Z</time></trkpt><trkpt lat="42.0604518" lon="13.6265869"><ele>834.0</ele><time>2026-05-03T08:31:09.046Z</time></trkpt><trkpt lat="42.0605416" lon="13.626636"><ele>834.0</ele><time>2026-05-03T08:31:10.033Z</time></trkpt><trkpt lat="42.0606356" lon="13.6266851"><ele>834.0</ele><time>2026-05-03T08:31:11.04Z</time></trkpt><trkpt lat="42.0607332" lon="13.6267261"><ele>834.0</ele><time>2026-05-03T08:31:12.038Z</time></trkpt><trkpt lat="42.06083" lon="13.6267687"><ele>834.0</ele><time>2026-05-03T08:31:13.033Z</time></trkpt><trkpt lat="42.0609262" lon="13.6268118"><ele>834.8000000000001</ele><time>2026-05-03T08:31:14.021Z</time></trkpt><trkpt lat="42.061024" lon="13.626861"><ele>835.6</ele><time>2026-05-03T08:31:15.045Z</time></trkpt><trkpt lat="42.0611177" lon="13.6269051"><ele>836.4</ele><time>2026-05-03T08:31:16.049Z</time></trkpt><trkpt lat="42.0612159" lon="13.626953"><ele>837.2</ele><time>2026-05-03T08:31:17.033Z</time></trkpt><trkpt lat="42.0613098" lon="13.6269991"><ele>838.0</ele><time>2026-05-03T08:31:18.043Z</time></trkpt><trkpt lat="42.0614055" lon="13.6270431"><ele>838.2</ele><time>2026-05-03T08:31:19.045Z</time></trkpt><trkpt lat="42.0615045" lon="13.6270863"><ele>838.4</ele><time>2026-05-03T08:31:20.044Z</time></trkpt><trkpt lat="42.0615975" lon="13.627131"><ele>838.6</ele><time>2026-05-03T08:31:21.031Z</time></trkpt><trkpt lat="42.0616912" lon="13.6271808"><ele>838.8000000000001</ele><time>2026-05-03T08:31:22.043Z</time></trkpt><trkpt lat="42.0617877" lon="13.6272308"><ele>839.0</ele><time>2026-05-03T08:31:23.037Z</time></trkpt><trkpt lat="42.0618878" lon="13.6272806"><ele>839.4000000000001</ele><time>2026-05-03T08:31:24.047Z</time></trkpt><trkpt lat="42.0619911" lon="13.6273291"><ele>839.8</ele><time>2026-05-03T08:31:25.053Z</time></trkpt><trkpt lat="42.0620963" lon="13.6273799"><ele>840.2</ele><time>2026-05-03T08:31:26.039Z</time></trkpt><trkpt lat="42.0621977" lon="13.6274316"><ele>840.5999999999999</ele><time>2026-05-03T08:31:27.057Z</time></trkpt><trkpt lat="42.0623" lon="13.6274852"><ele>841.0</ele><time>2026-05-03T08:31:28.035Z</time></trkpt><trkpt lat="42.0624034" lon="13.6275443"><ele>841.5</ele><time>2026-05-03T08:31:29.037Z</time></trkpt><trkpt lat="42.062506" lon="13.6276062"><ele>842.0</ele><time>2026-05-03T08:31:30.049Z</time></trkpt><trkpt lat="42.0626117" lon="13.6276638"><ele>842.5</ele><time>2026-05-03T08:31:31.047Z</time></trkpt><trkpt lat="42.0627184" lon="13.6277132"><ele>843.0</ele><time>2026-05-03T08:31:32.041Z</time></trkpt><trkpt lat="42.0628245" lon="13.6277604"><ele>842.75</ele><time>2026-05-03T08:31:33.031Z</time></trkpt><trkpt lat="42.0629313" lon="13.6278116"><ele>842.5</ele><time>2026-05-03T08:31:34.054Z</time></trkpt><trkpt lat="42.0630388" lon="13.6278621"><ele>842.25</ele><time>2026-05-03T08:31:35.031Z</time></trkpt><trkpt lat="42.0631468" lon="13.6279173"><ele>842.0</ele><time>2026-05-03T08:31:36.033Z</time></trkpt><trkpt lat="42.0632566" lon="13.6279655"><ele>842.5</ele><time>2026-05-03T08:31:37.037Z</time></trkpt><trkpt lat="42.0633663" lon="13.6280214"><ele>843.0</ele><time>2026-05-03T08:31:38.04Z</time></trkpt><trkpt lat="42.0634743" lon="13.628081"><ele>843.5</ele><time>2026-05-03T08:31:39.038Z</time></trkpt><trkpt lat="42.0635855" lon="13.6281342"><ele>844.0</ele><time>2026-05-03T08:31:40.035Z</time></trkpt><trkpt lat="42.0636967" lon="13.628189"><ele>844.0</ele><time>2026-05-03T08:31:41.041Z</time></trkpt><trkpt lat="42.0638098" lon="13.6282434"><ele>844.0</ele><time>2026-05-03T08:31:42.034Z</time></trkpt><trkpt lat="42.0639204" lon="13.6282969"><ele>844.0</ele><time>2026-05-03T08:31:43.045Z</time></trkpt><trkpt lat="42.0640295" lon="13.6283515"><ele>844.0</ele><time>2026-05-03T08:31:44.035Z</time></trkpt><trkpt lat="42.0641379" lon="13.6284061"><ele>844.25</ele><time>2026-05-03T08:31:45.054Z</time></trkpt><trkpt lat="42.0642458" lon="13.6284623"><ele>844.5</ele><time>2026-05-03T08:31:46.045Z</time></trkpt><trkpt lat="42.0643493" lon="13.6285299"><ele>844.75</ele><time>2026-05-03T08:31:47.04Z</time></trkpt><trkpt lat="42.0644448" lon="13.6286178"><ele>845.0</ele><time>2026-05-03T08:31:48.037Z</time></trkpt><trkpt lat="42.0645313" lon="13.6287323"><ele>845.0</ele><time>2026-05-03T08:31:49.039Z</time></trkpt><trkpt lat="42.064609" lon="13.628857"><ele>845.0</ele><time>2026-05-03T08:31:50.05Z</time></trkpt><trkpt lat="42.0646787" lon="13.6289885"><ele>845.0</ele><time>2026-05-03T08:31:51.04Z</time></trkpt><trkpt lat="42.0647405" lon="13.6291237"><ele>845.0</ele><time>2026-05-03T08:31:52.048Z</time></trkpt><trkpt lat="42.064804" lon="13.6292606"><ele>845.0</ele><time>2026-05-03T08:31:53.029Z</time></trkpt><trkpt lat="42.0648701" lon="13.6293937"><ele>845.0</ele><time>2026-05-03T08:31:54.04Z</time></trkpt><trkpt lat="42.0649383" lon="13.6295238"><ele>845.0</ele><time>2026-05-03T08:31:55.038Z</time></trkpt><trkpt lat="42.0650046" lon="13.629656"><ele>845.0</ele><time>2026-05-03T08:31:56.037Z</time></trkpt><trkpt lat="42.0650691" lon="13.6297899"><ele>845.75</ele><time>2026-05-03T08:31:57.037Z</time></trkpt><trkpt lat="42.0651357" lon="13.629927"><ele>846.5</ele><time>2026-05-03T08:31:58.036Z</time></trkpt><trkpt lat="42.0651997" lon="13.6300613"><ele>847.25</ele><time>2026-05-03T08:31:59.037Z</time></trkpt><trkpt lat="42.065266" lon="13.6301953"><ele>848.0</ele><time>2026-05-03T08:32:00.037Z</time></trkpt><trkpt lat="42.0653334" lon="13.6303235"><ele>848.2</ele><time>2026-05-03T08:32:01.031Z</time></trkpt><trkpt lat="42.0654017" lon="13.6304488"><ele>848.4</ele><time>2026-05-03T08:32:02.037Z</time></trkpt><trkpt lat="42.065467" lon="13.630573"><ele>848.6</ele><time>2026-05-03T08:32:03.035Z</time></trkpt><trkpt lat="42.0655295" lon="13.6306952"><ele>848.8000000000001</ele><time>2026-05-03T08:32:04.036Z</time></trkpt><trkpt lat="42.0655905" lon="13.6308192"><ele>849.0</ele><time>2026-05-03T08:32:05.03Z</time></trkpt><trkpt lat="42.0656506" lon="13.6309404"><ele>849.0</ele><time>2026-05-03T08:32:06.033Z</time></trkpt><trkpt lat="42.0657151" lon="13.631065"><ele>849.0</ele><time>2026-05-03T08:32:07.035Z</time></trkpt><trkpt lat="42.0657772" lon="13.6311869"><ele>849.0</ele><time>2026-05-03T08:32:08.039Z</time></trkpt><trkpt lat="42.0658386" lon="13.6313063"><ele>849.0</ele><time>2026-05-03T08:32:09.027Z</time></trkpt><trkpt lat="42.0658972" lon="13.6314239"><ele>849.0</ele><time>2026-05-03T08:32:10.054Z</time></trkpt><trkpt lat="42.0659549" lon="13.6315382"><ele>851.0</ele><time>2026-05-03T08:32:11.038Z</time></trkpt><trkpt lat="42.0660149" lon="13.631649"><ele>853.0</ele><time>2026-05-03T08:32:12.053Z</time></trkpt><trkpt lat="42.0660948" lon="13.631732"><ele>855.0000000000001</ele><time>2026-05-03T08:32:13.034Z</time></trkpt><trkpt lat="42.0661984" lon="13.6317697"><ele>857.0</ele><time>2026-05-03T08:32:14.039Z</time></trkpt><trkpt lat="42.0663204" lon="13.6317594"><ele>859.0</ele><time>2026-05-03T08:32:15.034Z</time></trkpt><trkpt lat="42.0664478" lon="13.6317341"><ele>859.0</ele><time>2026-05-03T08:32:16.039Z</time></trkpt><trkpt lat="42.0665715" lon="13.6316931"><ele>859.0</ele><time>2026-05-03T08:32:17.024Z</time></trkpt><trkpt lat="42.0666995" lon="13.6316548"><ele>859.0</ele><time>2026-05-03T08:32:18.036Z</time></trkpt><trkpt lat="42.0668275" lon="13.6316173"><ele>859.0</ele><time>2026-05-03T08:32:19.034Z</time></trkpt><trkpt lat="42.0669569" lon="13.6315823"><ele>860.25</ele><time>2026-05-03T08:32:20.054Z</time></trkpt><trkpt lat="42.067085" lon="13.6315404"><ele>861.5</ele><time>2026-05-03T08:32:21.045Z</time></trkpt><trkpt lat="42.067204" lon="13.6314928"><ele>862.75</ele><time>2026-05-03T08:32:22.03Z</time></trkpt><trkpt lat="42.0673297" lon="13.6314543"><ele>864.0</ele><time>2026-05-03T08:32:23.036Z</time></trkpt><trkpt lat="42.0674505" lon="13.631418"><ele>865.25</ele><time>2026-05-03T08:32:24.046Z</time></trkpt><trkpt lat="42.0675687" lon="13.6313925"><ele>866.5</ele><time>2026-05-03T08:32:25.035Z</time></trkpt><trkpt lat="42.0676871" lon="13.631358"><ele>867.75</ele><time>2026-05-03T08:32:26.031Z</time></trkpt><trkpt lat="42.067806" lon="13.6313205"><ele>869.0</ele><time>2026-05-03T08:32:27.039Z</time></trkpt><trkpt lat="42.0679245" lon="13.6312635"><ele>869.0</ele><time>2026-05-03T08:32:28.036Z</time></trkpt><trkpt lat="42.0680324" lon="13.6312006"><ele>869.0</ele><time>2026-05-03T08:32:29.028Z</time></trkpt><trkpt lat="42.0681307" lon="13.6311204"><ele>869.0</ele><time>2026-05-03T08:32:30.037Z</time></trkpt><trkpt lat="42.068232" lon="13.6310421"><ele>869.0</ele><time>2026-05-03T08:32:31.036Z</time></trkpt><trkpt lat="42.0683372" lon="13.6309773"><ele>868.5</ele><time>2026-05-03T08:32:32.038Z</time></trkpt><trkpt lat="42.0684436" lon="13.630933"><ele>868.0</ele><time>2026-05-03T08:32:33.048Z</time></trkpt><trkpt lat="42.0685516" lon="13.6309253"><ele>867.5</ele><time>2026-05-03T08:32:34.031Z</time></trkpt><trkpt lat="42.0686623" lon="13.6309575"><ele>867.0</ele><time>2026-05-03T08:32:35.025Z</time></trkpt><trkpt lat="42.0687772" lon="13.631021"><ele>867.0</ele><time>2026-05-03T08:32:36.039Z</time></trkpt><trkpt lat="42.0688856" lon="13.6311034"><ele>867.0</ele><time>2026-05-03T08:32:37.031Z</time></trkpt><trkpt lat="42.0689757" lon="13.6312073"><ele>867.0</ele><time>2026-05-03T08:32:38.05Z</time></trkpt><trkpt lat="42.0690488" lon="13.631332"><ele>867.0</ele><time>2026-05-03T08:32:39.041Z</time></trkpt><trkpt lat="42.0690916" lon="13.6314702"><ele>868.0</ele><time>2026-05-03T08:32:40.053Z</time></trkpt><trkpt lat="42.0691231" lon="13.6316125"><ele>869.0</ele><time>2026-05-03T08:32:41.047Z</time></trkpt><trkpt lat="42.0691548" lon="13.6317584"><ele>870.0</ele><time>2026-05-03T08:32:42.036Z</time></trkpt><trkpt lat="42.069192" lon="13.6319039"><ele>871.0</ele><time>2026-05-03T08:32:43.049Z</time></trkpt><trkpt lat="42.0692316" lon="13.6320511"><ele>872.75</ele><time>2026-05-03T08:32:44.06Z</time></trkpt><trkpt lat="42.069271" lon="13.6321962"><ele>874.5</ele><time>2026-05-03T08:32:45.04Z</time></trkpt><trkpt lat="42.0693124" lon="13.6323444"><ele>876.25</ele><time>2026-05-03T08:32:46.04Z</time></trkpt><trkpt lat="42.0693526" lon="13.6324945"><ele>878.0</ele><time>2026-05-03T08:32:47.047Z</time></trkpt><trkpt lat="42.0693926" lon="13.6326462"><ele>878.0</ele><time>2026-05-03T08:32:48.038Z</time></trkpt><trkpt lat="42.0694315" lon="13.6327952"><ele>878.0</ele><time>2026-05-03T08:32:49.033Z</time></trkpt><trkpt lat="42.0694697" lon="13.63294"><ele>878.0</ele><time>2026-05-03T08:32:50.047Z</time></trkpt><trkpt lat="42.0695069" lon="13.6330876"><ele>878.0</ele><time>2026-05-03T08:32:51.042Z</time></trkpt><trkpt lat="42.0695406" lon="13.6332351"><ele>879.2</ele><time>2026-05-03T08:32:52.027Z</time></trkpt><trkpt lat="42.0695737" lon="13.6333813"><ele>880.4</ele><time>2026-05-03T08:32:53.038Z</time></trkpt><trkpt lat="42.0696004" lon="13.6335187"><ele>881.6000000000001</ele><time>2026-05-03T08:32:54.039Z</time></trkpt><trkpt lat="42.0696155" lon="13.633663"><ele>882.8000000000001</ele><time>2026-05-03T08:32:55.025Z</time></trkpt><trkpt lat="42.0696304" lon="13.6338009"><ele>884.0</ele><time>2026-05-03T08:32:56.048Z</time></trkpt><trkpt lat="42.0696439" lon="13.6339351"><ele>884.8000000000001</ele><time>2026-05-03T08:32:57.04Z</time></trkpt><trkpt lat="42.0696556" lon="13.6340672"><ele>885.6000000000001</ele><time>2026-05-03T08:32:58.058Z</time></trkpt><trkpt lat="42.0696739" lon="13.6341926"><ele>886.4</ele><time>2026-05-03T08:32:59.051Z</time></trkpt><trkpt lat="42.0697061" lon="13.634314"><ele>887.2</ele><time>2026-05-03T08:33:00.043Z</time></trkpt><trkpt lat="42.0697553" lon="13.6344453"><ele>888.0</ele><time>2026-05-03T08:33:01.029Z</time></trkpt><trkpt lat="42.0698183" lon="13.634567"><ele>888.25</ele><time>2026-05-03T08:33:02.049Z</time></trkpt><trkpt lat="42.069889" lon="13.6346921"><ele>888.5</ele><time>2026-05-03T08:33:03.033Z</time></trkpt><trkpt lat="42.0699623" lon="13.6348144"><ele>888.75</ele><time>2026-05-03T08:33:04.085Z</time></trkpt><trkpt lat="42.0700337" lon="13.6349382"><ele>889.0</ele><time>2026-05-03T08:33:05.043Z</time></trkpt><trkpt lat="42.0701059" lon="13.6350598"><ele>889.0</ele><time>2026-05-03T08:33:06.041Z</time></trkpt><trkpt lat="42.0701761" lon="13.6351861"><ele>889.0</ele><time>2026-05-03T08:33:07.048Z</time></trkpt><trkpt lat="42.0702489" lon="13.6353123"><ele>889.0</ele><time>2026-05-03T08:33:08.039Z</time></trkpt><trkpt lat="42.0703231" lon="13.6354363"><ele>889.0</ele><time>2026-05-03T08:33:09.039Z</time></trkpt><trkpt lat="42.0703976" lon="13.6355586"><ele>892.2</ele><time>2026-05-03T08:33:10.051Z</time></trkpt><trkpt lat="42.0704636" lon="13.6356808"><ele>895.4000000000001</ele><time>2026-05-03T08:33:11.034Z</time></trkpt><trkpt lat="42.0705269" lon="13.6357972"><ele>898.6</ele><time>2026-05-03T08:33:12.042Z</time></trkpt><trkpt lat="42.0705784" lon="13.6359018"><ele>901.8</ele><time>2026-05-03T08:33:13.037Z</time></trkpt><trkpt lat="42.070616" lon="13.6359871"><ele>905.0</ele><time>2026-05-03T08:33:14.041Z</time></trkpt><trkpt lat="42.0706696" lon="13.63609"><ele>905.0</ele><time>2026-05-03T08:33:16.033Z</time></trkpt><trkpt lat="42.0707255" lon="13.6361715"><ele>905.0</ele><time>2026-05-03T08:36:57.042Z</time></trkpt><trkpt lat="42.0708065" lon="13.6363325"><ele>905.0</ele><time>2026-05-03T08:36:59.03Z</time></trkpt><trkpt lat="42.0708786" lon="13.6364435"><ele>905.0</ele><time>2026-05-03T08:37:00.033Z</time></trkpt><trkpt lat="42.070954" lon="13.6365599"><ele>905.0</ele><time>2026-05-03T08:37:01.034Z</time></trkpt><trkpt lat="42.0710407" lon="13.636665"><ele>905.0</ele><time>2026-05-03T08:37:02.032Z</time></trkpt><trkpt lat="42.0711336" lon="13.6367541"><ele>905.0</ele><time>2026-05-03T08:37:03.025Z</time></trkpt><trkpt lat="42.0712252" lon="13.6368408"><ele>905.0</ele><time>2026-05-03T08:37:04.048Z</time></trkpt><trkpt lat="42.0713247" lon="13.6369412"><ele>904.5</ele><time>2026-05-03T08:37:05.032Z</time></trkpt><trkpt lat="42.0714118" lon="13.637053"><ele>904.0</ele><time>2026-05-03T08:37:06.032Z</time></trkpt><trkpt lat="42.0714997" lon="13.6371713"><ele>903.5</ele><time>2026-05-03T08:37:07.052Z</time></trkpt><trkpt lat="42.0715925" lon="13.6372838"><ele>903.0</ele><time>2026-05-03T08:37:08.039Z</time></trkpt><trkpt lat="42.0716899" lon="13.6373954"><ele>903.0</ele><time>2026-05-03T08:37:09.023Z</time></trkpt><trkpt lat="42.0717893" lon="13.6374983"><ele>903.0</ele><time>2026-05-03T08:37:10.041Z</time></trkpt><trkpt lat="42.0718915" lon="13.6375901"><ele>903.0</ele><time>2026-05-03T08:37:11.029Z</time></trkpt><trkpt lat="42.0719946" lon="13.6376769"><ele>903.0</ele><time>2026-05-03T08:37:12.04Z</time></trkpt><trkpt lat="42.0721008" lon="13.6377569"><ele>904.75</ele><time>2026-05-03T08:37:13.035Z</time></trkpt><trkpt lat="42.0722118" lon="13.6378274"><ele>906.5</ele><time>2026-05-03T08:37:14.039Z</time></trkpt><trkpt lat="42.0723243" lon="13.6378923"><ele>908.25</ele><time>2026-05-03T08:37:15.034Z</time></trkpt><trkpt lat="42.0724386" lon="13.637954"><ele>910.0</ele><time>2026-05-03T08:37:16.045Z</time></trkpt><trkpt lat="42.07255" lon="13.6380189"><ele>910.0</ele><time>2026-05-03T08:37:17.038Z</time></trkpt><trkpt lat="42.0726623" lon="13.6380785"><ele>910.0</ele><time>2026-05-03T08:37:18.033Z</time></trkpt><trkpt lat="42.0727694" lon="13.6381418"><ele>910.0</ele><time>2026-05-03T08:37:19.026Z</time></trkpt><trkpt lat="42.0728721" lon="13.638212"><ele>910.0</ele><time>2026-05-03T08:37:20.035Z</time></trkpt><trkpt lat="42.0729655" lon="13.6382935"><ele>910.0</ele><time>2026-05-03T08:37:21.032Z</time></trkpt><trkpt lat="42.0730532" lon="13.6383857"><ele>910.0</ele><time>2026-05-03T08:37:22.027Z</time></trkpt><trkpt lat="42.0731338" lon="13.6384919"><ele>910.0</ele><time>2026-05-03T08:37:23.029Z</time></trkpt><trkpt lat="42.0732066" lon="13.638605"><ele>910.0</ele><time>2026-05-03T08:37:24.035Z</time></trkpt><trkpt lat="42.0732736" lon="13.6387194"><ele>910.0</ele><time>2026-05-03T08:37:25.023Z</time></trkpt><trkpt lat="42.0733423" lon="13.6388413"><ele>911.75</ele><time>2026-05-03T08:37:26.031Z</time></trkpt><trkpt lat="42.0734136" lon="13.6389526"><ele>913.5</ele><time>2026-05-03T08:37:27.024Z</time></trkpt><trkpt lat="42.0734921" lon="13.6390661"><ele>915.25</ele><time>2026-05-03T08:37:28.027Z</time></trkpt><trkpt lat="42.073577" lon="13.6391868"><ele>917.0</ele><time>2026-05-03T08:37:29.028Z</time></trkpt><trkpt lat="42.0736838" lon="13.6393232"><ele>917.0</ele><time>2026-05-03T08:37:30.029Z</time></trkpt><trkpt lat="42.0737981" lon="13.6394596"><ele>917.0</ele><time>2026-05-03T08:37:31.037Z</time></trkpt><trkpt lat="42.0739141" lon="13.6395867"><ele>917.0</ele><time>2026-05-03T08:37:32.04Z</time></trkpt><trkpt lat="42.0740333" lon="13.6397047"><ele>918.6666666666667</ele><time>2026-05-03T08:37:33.03Z</time></trkpt><trkpt lat="42.0741518" lon="13.63983"><ele>920.3333333333333</ele><time>2026-05-03T08:37:34.027Z</time></trkpt><trkpt lat="42.0742681" lon="13.6399632"><ele>922.0</ele><time>2026-05-03T08:37:35.032Z</time></trkpt><trkpt lat="42.0743865" lon="13.6401016"><ele>922.0</ele><time>2026-05-03T08:37:36.029Z</time></trkpt><trkpt lat="42.0745036" lon="13.6402496"><ele>922.0</ele><time>2026-05-03T08:37:37.04Z</time></trkpt><trkpt lat="42.0746169" lon="13.6403993"><ele>922.0</ele><time>2026-05-03T08:37:38.032Z</time></trkpt><trkpt lat="42.0747354" lon="13.6405491"><ele>923.5</ele><time>2026-05-03T08:37:39.026Z</time></trkpt><trkpt lat="42.0748361" lon="13.640689"><ele>925.0</ele><time>2026-05-03T08:37:40.023Z</time></trkpt><trkpt lat="42.0749334" lon="13.6408223"><ele>926.5</ele><time>2026-05-03T08:37:41.03Z</time></trkpt><trkpt lat="42.0750351" lon="13.6409732"><ele>928.0</ele><time>2026-05-03T08:37:42.041Z</time></trkpt><trkpt lat="42.0751358" lon="13.6411271"><ele>930.6666666666666</ele><time>2026-05-03T08:37:43.025Z</time></trkpt><trkpt lat="42.0752361" lon="13.6412867"><ele>933.3333333333333</ele><time>2026-05-03T08:37:44.041Z</time></trkpt><trkpt lat="42.0753359" lon="13.6414461"><ele>936.0</ele><time>2026-05-03T08:37:45.037Z</time></trkpt><trkpt lat="42.0754396" lon="13.6416036"><ele>936.0</ele><time>2026-05-03T08:37:46.034Z</time></trkpt><trkpt lat="42.0755353" lon="13.6417553"><ele>936.0</ele><time>2026-05-03T08:37:47.036Z</time></trkpt><trkpt lat="42.0756427" lon="13.6419021"><ele>936.0</ele><time>2026-05-03T08:37:48.043Z</time></trkpt><trkpt lat="42.0757607" lon="13.6420414"><ele>936.0</ele><time>2026-05-03T08:37:49.031Z</time></trkpt><trkpt lat="42.0758813" lon="13.6421708"><ele>936.0</ele><time>2026-05-03T08:37:50.032Z</time></trkpt><trkpt lat="42.0760023" lon="13.6422988"><ele>936.0</ele><time>2026-05-03T08:37:51.03Z</time></trkpt><trkpt lat="42.0761247" lon="13.6424304"><ele>936.0</ele><time>2026-05-03T08:37:52.025Z</time></trkpt><trkpt lat="42.0762387" lon="13.642562"><ele>936.0</ele><time>2026-05-03T08:37:53.031Z</time></trkpt><trkpt lat="42.0763532" lon="13.6427115"><ele>936.0</ele><time>2026-05-03T08:37:54.039Z</time></trkpt><trkpt lat="42.0764675" lon="13.6428616"><ele>938.0</ele><time>2026-05-03T08:37:55.03Z</time></trkpt><trkpt lat="42.0765814" lon="13.6430233"><ele>940.0</ele><time>2026-05-03T08:37:56.048Z</time></trkpt><trkpt lat="42.0766984" lon="13.6431846"><ele>942.0</ele><time>2026-05-03T08:37:57.036Z</time></trkpt><trkpt lat="42.0768078" lon="13.6433477"><ele>942.0</ele><time>2026-05-03T08:37:58.029Z</time></trkpt><trkpt lat="42.0769159" lon="13.64351"><ele>942.0</ele><time>2026-05-03T08:37:59.041Z</time></trkpt><trkpt lat="42.0770182" lon="13.6436655"><ele>942.0</ele><time>2026-05-03T08:38:00.028Z</time></trkpt><trkpt lat="42.0771224" lon="13.6438034"><ele>943.75</ele><time>2026-05-03T08:38:01.028Z</time></trkpt><trkpt lat="42.0772324" lon="13.6439271"><ele>945.5</ele><time>2026-05-03T08:38:02.025Z</time></trkpt><trkpt lat="42.077342" lon="13.6440472"><ele>947.25</ele><time>2026-05-03T08:38:03.034Z</time></trkpt><trkpt lat="42.077449" lon="13.6441615"><ele>949.0</ele><time>2026-05-03T08:38:04.031Z</time></trkpt><trkpt lat="42.0775534" lon="13.6442694"><ele>949.0</ele><time>2026-05-03T08:38:05.05Z</time></trkpt><trkpt lat="42.0776597" lon="13.644372"><ele>949.0</ele><time>2026-05-03T08:38:06.026Z</time></trkpt><trkpt lat="42.0777615" lon="13.6444852"><ele>949.0</ele><time>2026-05-03T08:38:07.023Z</time></trkpt><trkpt lat="42.0778576" lon="13.6446159"><ele>949.0</ele><time>2026-05-03T08:38:08.02Z</time></trkpt><trkpt lat="42.077946" lon="13.6447734"><ele>951.75</ele><time>2026-05-03T08:38:09.019Z</time></trkpt><trkpt lat="42.0780273" lon="13.6449429"><ele>954.5</ele><time>2026-05-03T08:38:10.037Z</time></trkpt><trkpt lat="42.0781105" lon="13.6451085"><ele>957.25</ele><time>2026-05-03T08:38:11.025Z</time></trkpt><trkpt lat="42.0781976" lon="13.6452595"><ele>960.0</ele><time>2026-05-03T08:38:12.048Z</time></trkpt><trkpt lat="42.0782792" lon="13.6453933"><ele>960.0</ele><time>2026-05-03T08:38:13.039Z</time></trkpt><trkpt lat="42.0783563" lon="13.6455198"><ele>960.0</ele><time>2026-05-03T08:38:14.032Z</time></trkpt><trkpt lat="42.0784346" lon="13.6456462"><ele>960.0</ele><time>2026-05-03T08:38:15.035Z</time></trkpt><trkpt lat="42.0785249" lon="13.6457625"><ele>960.0</ele><time>2026-05-03T08:38:16.02Z</time></trkpt><trkpt lat="42.0786261" lon="13.6458666"><ele>960.0</ele><time>2026-05-03T08:38:17.033Z</time></trkpt><trkpt lat="42.0787391" lon="13.645955"><ele>960.0</ele><time>2026-05-03T08:38:18.031Z</time></trkpt><trkpt lat="42.0788486" lon="13.646054"><ele>960.0</ele><time>2026-05-03T08:38:19.045Z</time></trkpt><trkpt lat="42.0789482" lon="13.6461592"><ele>960.0</ele><time>2026-05-03T08:38:20.028Z</time></trkpt><trkpt lat="42.0790437" lon="13.6462741"><ele>960.25</ele><time>2026-05-03T08:38:21.038Z</time></trkpt><trkpt lat="42.0791285" lon="13.6464005"><ele>960.5</ele><time>2026-05-03T08:38:22.033Z</time></trkpt><trkpt lat="42.079205" lon="13.6465391"><ele>960.75</ele><time>2026-05-03T08:38:23.017Z</time></trkpt><trkpt lat="42.0792742" lon="13.6466874"><ele>961.0</ele><time>2026-05-03T08:38:24.04Z</time></trkpt><trkpt lat="42.0793361" lon="13.6468359"><ele>963.75</ele><time>2026-05-03T08:38:25.021Z</time></trkpt><trkpt lat="42.0793986" lon="13.6469748"><ele>966.5</ele><time>2026-05-03T08:38:26.021Z</time></trkpt><trkpt lat="42.0794651" lon="13.6471048"><ele>969.25</ele><time>2026-05-03T08:38:27.026Z</time></trkpt><trkpt lat="42.0795325" lon="13.6472326"><ele>972.0</ele><time>2026-05-03T08:38:28.036Z</time></trkpt><trkpt lat="42.0796063" lon="13.6473562"><ele>972.0</ele><time>2026-05-03T08:38:29.045Z</time></trkpt><trkpt lat="42.0796835" lon="13.6474701"><ele>972.0</ele><time>2026-05-03T08:38:30.033Z</time></trkpt><trkpt lat="42.0797583" lon="13.6475823"><ele>972.0</ele><time>2026-05-03T08:38:31.046Z</time></trkpt><trkpt lat="42.0798283" lon="13.6476966"><ele>972.0</ele><time>2026-05-03T08:38:32.036Z</time></trkpt><trkpt lat="42.0798932" lon="13.6478054"><ele>972.0</ele><time>2026-05-03T08:38:33.032Z</time></trkpt><trkpt lat="42.0799628" lon="13.6479139"><ele>969.4000000000001</ele><time>2026-05-03T08:38:34.038Z</time></trkpt><trkpt lat="42.0800416" lon="13.6480177"><ele>966.8000000000001</ele><time>2026-05-03T08:38:35.031Z</time></trkpt><trkpt lat="42.0801271" lon="13.6481135"><ele>964.2</ele><time>2026-05-03T08:38:36.045Z</time></trkpt><trkpt lat="42.0802064" lon="13.6482089"><ele>961.6</ele><time>2026-05-03T08:38:37.04Z</time></trkpt><trkpt lat="42.0802769" lon="13.6483139"><ele>959.0</ele><time>2026-05-03T08:38:38.039Z</time></trkpt><trkpt lat="42.0803502" lon="13.6484186"><ele>959.0</ele><time>2026-05-03T08:38:39.041Z</time></trkpt><trkpt lat="42.0804233" lon="13.6485228"><ele>959.0000000000001</ele><time>2026-05-03T08:38:40.033Z</time></trkpt><trkpt lat="42.0804939" lon="13.648632"><ele>959.0000000000001</ele><time>2026-05-03T08:38:41.039Z</time></trkpt><trkpt lat="42.0805742" lon="13.6487418"><ele>959.0</ele><time>2026-05-03T08:38:42.038Z</time></trkpt><trkpt lat="42.0806616" lon="13.648849"><ele>959.0</ele><time>2026-05-03T08:38:43.061Z</time></trkpt><trkpt lat="42.080754" lon="13.648954"><ele>960.25</ele><time>2026-05-03T08:38:44.041Z</time></trkpt><trkpt lat="42.0808547" lon="13.6490411"><ele>961.5</ele><time>2026-05-03T08:38:45.045Z</time></trkpt><trkpt lat="42.0809618" lon="13.6491196"><ele>962.75</ele><time>2026-05-03T08:38:46.033Z</time></trkpt><trkpt lat="42.0810647" lon="13.6491972"><ele>964.0</ele><time>2026-05-03T08:38:47.034Z</time></trkpt><trkpt lat="42.0811624" lon="13.6492764"><ele>964.0</ele><time>2026-05-03T08:38:48.046Z</time></trkpt><trkpt lat="42.0812627" lon="13.6493614"><ele>964.0</ele><time>2026-05-03T08:38:49.032Z</time></trkpt><trkpt lat="42.081359" lon="13.6494484"><ele>964.0</ele><time>2026-05-03T08:38:50.054Z</time></trkpt><trkpt lat="42.0814509" lon="13.6495442"><ele>964.0</ele><time>2026-05-03T08:38:51.041Z</time></trkpt><trkpt lat="42.0815371" lon="13.6496468"><ele>965.6</ele><time>2026-05-03T08:38:52.044Z</time></trkpt><trkpt lat="42.0816174" lon="13.6497556"><ele>967.2</ele><time>2026-05-03T08:38:53.039Z</time></trkpt><trkpt lat="42.0816926" lon="13.6498631"><ele>968.8000000000001</ele><time>2026-05-03T08:38:54.041Z</time></trkpt><trkpt lat="42.0817755" lon="13.6499666"><ele>970.4000000000001</ele><time>2026-05-03T08:38:55.042Z</time></trkpt><trkpt lat="42.0818528" lon="13.6500555"><ele>972.0</ele><time>2026-05-03T08:38:56.057Z</time></trkpt><trkpt lat="42.0819244" lon="13.6501296"><ele>972.0</ele><time>2026-05-03T08:38:57.037Z</time></trkpt><trkpt lat="42.0819868" lon="13.6502042"><ele>972.0</ele><time>2026-05-03T08:38:58.045Z</time></trkpt><trkpt lat="42.0820443" lon="13.650279"><ele>972.0</ele><time>2026-05-03T08:38:59.043Z</time></trkpt><trkpt lat="42.0820984" lon="13.6503456"><ele>972.0</ele><time>2026-05-03T08:39:00.045Z</time></trkpt><trkpt lat="42.0821472" lon="13.6504049"><ele>972.0</ele><time>2026-05-03T08:39:01.034Z</time></trkpt><trkpt lat="42.0821958" lon="13.6504606"><ele>972.0</ele><time>2026-05-03T08:39:02.042Z</time></trkpt><trkpt lat="42.0822751" lon="13.6505637"><ele>972.0</ele><time>2026-05-03T08:39:04.041Z</time></trkpt><trkpt lat="42.0823461" lon="13.6506477"><ele>972.0</ele><time>2026-05-03T08:39:06.044Z</time></trkpt><trkpt lat="42.0824139" lon="13.6507391"><ele>972.0</ele><time>2026-05-03T08:39:08.044Z</time></trkpt><trkpt lat="42.0824765" lon="13.6508295"><ele>972.0</ele><time>2026-05-03T08:39:10.04Z</time></trkpt><trkpt lat="42.0825457" lon="13.6509094"><ele>972.0</ele><time>2026-05-03T08:39:12.038Z</time></trkpt><trkpt lat="42.0826281" lon="13.6510107"><ele>973.2</ele><time>2026-05-03T08:39:14.04Z</time></trkpt><trkpt lat="42.0826765" lon="13.6510754"><ele>974.4000000000001</ele><time>2026-05-03T08:39:15.042Z</time></trkpt><trkpt lat="42.0827355" lon="13.6511442"><ele>975.5999999999999</ele><time>2026-05-03T08:39:16.058Z</time></trkpt><trkpt lat="42.082811" lon="13.6512277"><ele>976.8</ele><time>2026-05-03T08:39:17.033Z</time></trkpt><trkpt lat="42.082894" lon="13.6513244"><ele>978.0</ele><time>2026-05-03T08:39:18.04Z</time></trkpt><trkpt lat="42.082991" lon="13.6514187"><ele>978.5</ele><time>2026-05-03T08:39:19.039Z</time></trkpt><trkpt lat="42.0830904" lon="13.6515109"><ele>979.0</ele><time>2026-05-03T08:39:20.045Z</time></trkpt><trkpt lat="42.0831916" lon="13.6516049"><ele>979.5</ele><time>2026-05-03T08:39:21.042Z</time></trkpt><trkpt lat="42.08329" lon="13.6516922"><ele>980.0</ele><time>2026-05-03T08:39:22.037Z</time></trkpt><trkpt lat="42.0833883" lon="13.6517733"><ele>981.0</ele><time>2026-05-03T08:39:23.04Z</time></trkpt><trkpt lat="42.083487" lon="13.6518499"><ele>982.0</ele><time>2026-05-03T08:39:24.034Z</time></trkpt><trkpt lat="42.0835877" lon="13.6519241"><ele>983.0</ele><time>2026-05-03T08:39:25.036Z</time></trkpt><trkpt lat="42.0836814" lon="13.6519937"><ele>984.0</ele><time>2026-05-03T08:39:26.035Z</time></trkpt><trkpt lat="42.0837757" lon="13.6520618"><ele>985.0</ele><time>2026-05-03T08:39:27.04Z</time></trkpt><trkpt lat="42.0838701" lon="13.6521281"><ele>985.4</ele><time>2026-05-03T08:39:28.058Z</time></trkpt><trkpt lat="42.0839621" lon="13.6521923"><ele>985.8</ele><time>2026-05-03T08:39:29.025Z</time></trkpt><trkpt lat="42.0840582" lon="13.6522481"><ele>986.2</ele><time>2026-05-03T08:39:30.035Z</time></trkpt><trkpt lat="42.0841586" lon="13.6523089"><ele>986.6</ele><time>2026-05-03T08:39:31.033Z</time></trkpt><trkpt lat="42.0842567" lon="13.6523767"><ele>987.0</ele><time>2026-05-03T08:39:32.039Z</time></trkpt><trkpt lat="42.0843558" lon="13.6524552"><ele>987.8</ele><time>2026-05-03T08:39:33.039Z</time></trkpt><trkpt lat="42.0844607" lon="13.6525358"><ele>988.6</ele><time>2026-05-03T08:39:34.051Z</time></trkpt><trkpt lat="42.0845627" lon="13.6526171"><ele>989.3999999999999</ele><time>2026-05-03T08:39:35.041Z</time></trkpt><trkpt lat="42.0846524" lon="13.6526894"><ele>990.1999999999999</ele><time>2026-05-03T08:39:36.035Z</time></trkpt><trkpt lat="42.0847399" lon="13.6527497"><ele>991.0</ele><time>2026-05-03T08:39:37.034Z</time></trkpt><trkpt lat="42.0848218" lon="13.6528128"><ele>993.4</ele><time>2026-05-03T08:39:38.036Z</time></trkpt><trkpt lat="42.0848998" lon="13.6528767"><ele>995.8</ele><time>2026-05-03T08:39:39.04Z</time></trkpt><trkpt lat="42.0849736" lon="13.6529473"><ele>998.1999999999999</ele><time>2026-05-03T08:39:40.038Z</time></trkpt><trkpt lat="42.0850444" lon="13.6530246"><ele>1000.5999999999999</ele><time>2026-05-03T08:39:41.042Z</time></trkpt><trkpt lat="42.0851051" lon="13.653108"><ele>1003.0</ele><time>2026-05-03T08:39:42.055Z</time></trkpt><trkpt lat="42.0851577" lon="13.6532094"><ele>1002.9999999999999</ele><time>2026-05-03T08:39:43.038Z</time></trkpt><trkpt lat="42.0851998" lon="13.6533187"><ele>1003.0</ele><time>2026-05-03T08:39:44.039Z</time></trkpt><trkpt lat="42.0852328" lon="13.6534314"><ele>1003.0</ele><time>2026-05-03T08:39:45.035Z</time></trkpt><trkpt lat="42.0852618" lon="13.6535412"><ele>1003.0</ele><time>2026-05-03T08:39:46.042Z</time></trkpt><trkpt lat="42.0853047" lon="13.6536427"><ele>1002.9999999999999</ele><time>2026-05-03T08:39:47.033Z</time></trkpt><trkpt lat="42.0853534" lon="13.653741"><ele>1003.0</ele><time>2026-05-03T08:39:48.036Z</time></trkpt><trkpt lat="42.0853935" lon="13.653852"><ele>1005.4</ele><time>2026-05-03T08:39:49.032Z</time></trkpt><trkpt lat="42.0854124" lon="13.653984"><ele>1007.8</ele><time>2026-05-03T08:39:50.031Z</time></trkpt><trkpt lat="42.0854162" lon="13.6541271"><ele>1010.2</ele><time>2026-05-03T08:39:51.034Z</time></trkpt><trkpt lat="42.0854207" lon="13.6542702"><ele>1012.6</ele><time>2026-05-03T08:39:52.031Z</time></trkpt><trkpt lat="42.08542" lon="13.6544219"><ele>1015.0</ele><time>2026-05-03T08:39:53.038Z</time></trkpt><trkpt lat="42.0854117" lon="13.6545682"><ele>1015.75</ele><time>2026-05-03T08:39:54.047Z</time></trkpt><trkpt lat="42.0853962" lon="13.6547222"><ele>1016.5</ele><time>2026-05-03T08:39:55.039Z</time></trkpt><trkpt lat="42.0853734" lon="13.654875"><ele>1017.25</ele><time>2026-05-03T08:39:56.032Z</time></trkpt><trkpt lat="42.0853483" lon="13.6550399"><ele>1018.0</ele><time>2026-05-03T08:39:57.033Z</time></trkpt><trkpt lat="42.0853223" lon="13.6551991"><ele>1018.25</ele><time>2026-05-03T08:39:58.034Z</time></trkpt><trkpt lat="42.0852879" lon="13.6553518"><ele>1018.5</ele><time>2026-05-03T08:39:59.037Z</time></trkpt><trkpt lat="42.0852556" lon="13.6555043"><ele>1018.75</ele><time>2026-05-03T08:40:00.038Z</time></trkpt><trkpt lat="42.0852252" lon="13.6556474"><ele>1019.0</ele><time>2026-05-03T08:40:01.04Z</time></trkpt><trkpt lat="42.0851919" lon="13.655799"><ele>1019.0</ele><time>2026-05-03T08:40:02.037Z</time></trkpt><trkpt lat="42.0851593" lon="13.6559572"><ele>1019.0</ele><time>2026-05-03T08:40:03.026Z</time></trkpt><trkpt lat="42.0851278" lon="13.6561196"><ele>1019.0</ele><time>2026-05-03T08:40:04.034Z</time></trkpt><trkpt lat="42.0850973" lon="13.6562791"><ele>1019.0</ele><time>2026-05-03T08:40:05.035Z</time></trkpt><trkpt lat="42.0850612" lon="13.6564315"><ele>1019.0</ele><time>2026-05-03T08:40:06.031Z</time></trkpt><trkpt lat="42.0850282" lon="13.6565833"><ele>1019.0</ele><time>2026-05-03T08:40:07.032Z</time></trkpt><trkpt lat="42.0849977" lon="13.6567363"><ele>1019.0</ele><time>2026-05-03T08:40:08.032Z</time></trkpt><trkpt lat="42.084969" lon="13.6568905"><ele>1019.0</ele><time>2026-05-03T08:40:09.032Z</time></trkpt><trkpt lat="42.0849454" lon="13.6570442"><ele>1022.25</ele><time>2026-05-03T08:40:10.035Z</time></trkpt><trkpt lat="42.0849253" lon="13.6571922"><ele>1025.5</ele><time>2026-05-03T08:40:11.029Z</time></trkpt><trkpt lat="42.0849008" lon="13.6573429"><ele>1028.75</ele><time>2026-05-03T08:40:12.036Z</time></trkpt><trkpt lat="42.0848805" lon="13.6574926"><ele>1032.0</ele><time>2026-05-03T08:40:13.03Z</time></trkpt><trkpt lat="42.0848544" lon="13.6576408"><ele>1030.5</ele><time>2026-05-03T08:40:14.032Z</time></trkpt><trkpt lat="42.0848275" lon="13.6577956"><ele>1029.0</ele><time>2026-05-03T08:40:15.026Z</time></trkpt><trkpt lat="42.0847955" lon="13.6579448"><ele>1027.5</ele><time>2026-05-03T08:40:16.044Z</time></trkpt><trkpt lat="42.0847639" lon="13.6580987"><ele>1026.0</ele><time>2026-05-03T08:40:17.03Z</time></trkpt><trkpt lat="42.0847315" lon="13.6582497"><ele>1026.0</ele><time>2026-05-03T08:40:18.038Z</time></trkpt><trkpt lat="42.0846889" lon="13.6584067"><ele>1026.0</ele><time>2026-05-03T08:40:19.038Z</time></trkpt><trkpt lat="42.0846375" lon="13.6585521"><ele>1026.0</ele><time>2026-05-03T08:40:20.032Z</time></trkpt><trkpt lat="42.084585" lon="13.6586955"><ele>1026.0</ele><time>2026-05-03T08:40:21.034Z</time></trkpt><trkpt lat="42.0845318" lon="13.6588428"><ele>1025.6</ele><time>2026-05-03T08:40:22.031Z</time></trkpt><trkpt lat="42.0844749" lon="13.6589783"><ele>1025.1999999999998</ele><time>2026-05-03T08:40:23.032Z</time></trkpt><trkpt lat="42.0844167" lon="13.6591124"><ele>1024.8000000000002</ele><time>2026-05-03T08:40:24.039Z</time></trkpt><trkpt lat="42.0843693" lon="13.6592405"><ele>1024.4</ele><time>2026-05-03T08:40:25.032Z</time></trkpt><trkpt lat="42.0843226" lon="13.659367"><ele>1024.0</ele><time>2026-05-03T08:40:26.047Z</time></trkpt><trkpt lat="42.084274" lon="13.65949"><ele>1024.0</ele><time>2026-05-03T08:40:27.037Z</time></trkpt><trkpt lat="42.084228" lon="13.6596157"><ele>1024.0</ele><time>2026-05-03T08:40:28.037Z</time></trkpt><trkpt lat="42.0841797" lon="13.6597401"><ele>1024.0</ele><time>2026-05-03T08:40:29.035Z</time></trkpt><trkpt lat="42.0841301" lon="13.65986"><ele>1024.0</ele><time>2026-05-03T08:40:30.045Z</time></trkpt><trkpt lat="42.0840791" lon="13.6599814"><ele>1024.0</ele><time>2026-05-03T08:40:31.045Z</time></trkpt><trkpt lat="42.0840296" lon="13.6600946"><ele>1024.4</ele><time>2026-05-03T08:40:32.028Z</time></trkpt><trkpt lat="42.0839761" lon="13.660208"><ele>1024.8000000000002</ele><time>2026-05-03T08:40:33.029Z</time></trkpt><trkpt lat="42.0839229" lon="13.6603311"><ele>1025.1999999999998</ele><time>2026-05-03T08:40:34.034Z</time></trkpt><trkpt lat="42.0838784" lon="13.6604578"><ele>1025.6</ele><time>2026-05-03T08:40:35.033Z</time></trkpt><trkpt lat="42.0838359" lon="13.660593"><ele>1026.0</ele><time>2026-05-03T08:40:36.058Z</time></trkpt><trkpt lat="42.0837943" lon="13.660723"><ele>1026.0</ele><time>2026-05-03T08:40:37.036Z</time></trkpt><trkpt lat="42.0837509" lon="13.6608479"><ele>1026.0</ele><time>2026-05-03T08:40:38.035Z</time></trkpt><trkpt lat="42.0837079" lon="13.660971"><ele>1026.0</ele><time>2026-05-03T08:40:39.033Z</time></trkpt><trkpt lat="42.0836652" lon="13.6610933"><ele>1026.0</ele><time>2026-05-03T08:40:40.037Z</time></trkpt><trkpt lat="42.083618" lon="13.6612068"><ele>1026.0</ele><time>2026-05-03T08:40:41.033Z</time></trkpt><trkpt lat="42.0835644" lon="13.6613054"><ele>1027.0</ele><time>2026-05-03T08:40:42.035Z</time></trkpt><trkpt lat="42.0835117" lon="13.6613874"><ele>1028.0</ele><time>2026-05-03T08:40:43.043Z</time></trkpt><trkpt lat="42.0834471" lon="13.6614527"><ele>1029.0</ele><time>2026-05-03T08:40:44.04Z</time></trkpt><trkpt lat="42.0833828" lon="13.6615045"><ele>1030.0</ele><time>2026-05-03T08:40:45.031Z</time></trkpt><trkpt lat="42.0833084" lon="13.6615572"><ele>1031.0</ele><time>2026-05-03T08:40:46.03Z</time></trkpt><trkpt lat="42.0832417" lon="13.6616152"><ele>1032.0</ele><time>2026-05-03T08:40:47.047Z</time></trkpt><trkpt lat="42.083181" lon="13.6616849"><ele>1032.0</ele><time>2026-05-03T08:40:48.055Z</time></trkpt><trkpt lat="42.0831326" lon="13.6617803"><ele>1032.0</ele><time>2026-05-03T08:40:49.032Z</time></trkpt><trkpt lat="42.0830957" lon="13.6618843"><ele>1032.0</ele><time>2026-05-03T08:40:50.033Z</time></trkpt><trkpt lat="42.0830631" lon="13.6620104"><ele>1032.0</ele><time>2026-05-03T08:40:51.037Z</time></trkpt><trkpt lat="42.0830469" lon="13.6621423"><ele>1032.0</ele><time>2026-05-03T08:40:52.042Z</time></trkpt><trkpt lat="42.083043" lon="13.6622869"><ele>1035.0</ele><time>2026-05-03T08:40:53.04Z</time></trkpt><trkpt lat="42.0830373" lon="13.6624292"><ele>1038.0</ele><time>2026-05-03T08:40:54.035Z</time></trkpt><trkpt lat="42.0830277" lon="13.6625708"><ele>1041.0</ele><time>2026-05-03T08:40:55.035Z</time></trkpt><trkpt lat="42.0830223" lon="13.6626974"><ele>1044.0</ele><time>2026-05-03T08:40:56.036Z</time></trkpt><trkpt lat="42.0830235" lon="13.6628285"><ele>1047.0</ele><time>2026-05-03T08:40:57.043Z</time></trkpt><trkpt lat="42.0830167" lon="13.6629583"><ele>1048.4</ele><time>2026-05-03T08:40:58.039Z</time></trkpt><trkpt lat="42.083002" lon="13.663089"><ele>1049.8000000000002</ele><time>2026-05-03T08:40:59.025Z</time></trkpt><trkpt lat="42.0829853" lon="13.6632177"><ele>1051.2</ele><time>2026-05-03T08:41:00.036Z</time></trkpt><trkpt lat="42.0829641" lon="13.6633397"><ele>1052.6000000000001</ele><time>2026-05-03T08:41:01.046Z</time></trkpt><trkpt lat="42.0829381" lon="13.6634611"><ele>1054.0</ele><time>2026-05-03T08:41:02.033Z</time></trkpt><trkpt lat="42.0829056" lon="13.6635856"><ele>1054.0</ele><time>2026-05-03T08:41:03.033Z</time></trkpt><trkpt lat="42.0828734" lon="13.6637023"><ele>1054.0</ele><time>2026-05-03T08:41:04.039Z</time></trkpt><trkpt lat="42.0828447" lon="13.6638173"><ele>1054.0</ele><time>2026-05-03T08:41:05.039Z</time></trkpt><trkpt lat="42.0828146" lon="13.6639384"><ele>1054.0</ele><time>2026-05-03T08:41:06.03Z</time></trkpt><trkpt lat="42.0827637" lon="13.6640582"><ele>1054.0</ele><time>2026-05-03T08:41:07.034Z</time></trkpt><trkpt lat="42.082701" lon="13.6641832"><ele>1054.0</ele><time>2026-05-03T08:41:08.029Z</time></trkpt><trkpt lat="42.0826268" lon="13.6643013"><ele>1054.0</ele><time>2026-05-03T08:41:09.027Z</time></trkpt><trkpt lat="42.0825584" lon="13.6644148"><ele>1054.0</ele><time>2026-05-03T08:41:10.025Z</time></trkpt><trkpt lat="42.0824885" lon="13.6645147"><ele>1054.0</ele><time>2026-05-03T08:41:11.036Z</time></trkpt><trkpt lat="42.0824184" lon="13.6646059"><ele>1054.0</ele><time>2026-05-03T08:41:12.027Z</time></trkpt><trkpt lat="42.0823488" lon="13.6646841"><ele>1055.0</ele><time>2026-05-03T08:41:13.025Z</time></trkpt><trkpt lat="42.082271" lon="13.6647437"><ele>1056.0</ele><time>2026-05-03T08:41:14.023Z</time></trkpt><trkpt lat="42.0821844" lon="13.6647911"><ele>1057.0</ele><time>2026-05-03T08:41:15.038Z</time></trkpt><trkpt lat="42.0820921" lon="13.6648366"><ele>1058.0</ele><time>2026-05-03T08:41:16.03Z</time></trkpt><trkpt lat="42.0819955" lon="13.6648742"><ele>1059.0</ele><time>2026-05-03T08:41:17.03Z</time></trkpt><trkpt lat="42.0819075" lon="13.6649195"><ele>1059.0</ele><time>2026-05-03T08:41:18.029Z</time></trkpt><trkpt lat="42.0818234" lon="13.6649732"><ele>1059.0</ele><time>2026-05-03T08:41:19.024Z</time></trkpt><trkpt lat="42.0817418" lon="13.6650219"><ele>1059.0</ele><time>2026-05-03T08:41:20.036Z</time></trkpt><trkpt lat="42.0816602" lon="13.6650853"><ele>1059.0</ele><time>2026-05-03T08:41:21.014Z</time></trkpt><trkpt lat="42.0815782" lon="13.665157"><ele>1059.0</ele><time>2026-05-03T08:41:22.034Z</time></trkpt><trkpt lat="42.0815056" lon="13.6652294"><ele>1061.6666666666667</ele><time>2026-05-03T08:41:23.024Z</time></trkpt><trkpt lat="42.0814464" lon="13.6652993"><ele>1064.3333333333333</ele><time>2026-05-03T08:41:24.034Z</time></trkpt><trkpt lat="42.081397" lon="13.6653762"><ele>1067.0</ele><time>2026-05-03T08:41:25.027Z</time></trkpt><trkpt lat="42.0813605" lon="13.6654734"><ele>1069.6666666666665</ele><time>2026-05-03T08:41:26.027Z</time></trkpt><trkpt lat="42.0813349" lon="13.6655866"><ele>1072.3333333333333</ele><time>2026-05-03T08:41:27.034Z</time></trkpt><trkpt lat="42.0813302" lon="13.6657099"><ele>1075.0</ele><time>2026-05-03T08:41:28.036Z</time></trkpt><trkpt lat="42.081329" lon="13.6658353"><ele>1075.0</ele><time>2026-05-03T08:41:29.037Z</time></trkpt><trkpt lat="42.081326" lon="13.665961"><ele>1075.0</ele><time>2026-05-03T08:41:30.03Z</time></trkpt><trkpt lat="42.0813155" lon="13.6660817"><ele>1075.0</ele><time>2026-05-03T08:41:31.036Z</time></trkpt><trkpt lat="42.0813082" lon="13.6662019"><ele>1075.0</ele><time>2026-05-03T08:41:32.036Z</time></trkpt><trkpt lat="42.0812896" lon="13.6663164"><ele>1075.0</ele><time>2026-05-03T08:41:33.029Z</time></trkpt><trkpt lat="42.0812775" lon="13.6664304"><ele>1075.0</ele><time>2026-05-03T08:41:34.032Z</time></trkpt><trkpt lat="42.0812611" lon="13.666551"><ele>1078.2</ele><time>2026-05-03T08:41:35.042Z</time></trkpt><trkpt lat="42.0812455" lon="13.6666813"><ele>1081.4</ele><time>2026-05-03T08:41:36.03Z</time></trkpt><trkpt lat="42.0812313" lon="13.6668146"><ele>1084.6</ele><time>2026-05-03T08:41:37.017Z</time></trkpt><trkpt lat="42.0812345" lon="13.6669414"><ele>1087.8</ele><time>2026-05-03T08:41:38.034Z</time></trkpt><trkpt lat="42.0812512" lon="13.667054"><ele>1091.0</ele><time>2026-05-03T08:41:39.027Z</time></trkpt><trkpt lat="42.0812802" lon="13.667161"><ele>1093.0</ele><time>2026-05-03T08:41:40.042Z</time></trkpt><trkpt lat="42.0813149" lon="13.6672755"><ele>1095.0</ele><time>2026-05-03T08:41:41.019Z</time></trkpt><trkpt lat="42.0813429" lon="13.6673887"><ele>1097.0</ele><time>2026-05-03T08:41:42.032Z</time></trkpt><trkpt lat="42.0813657" lon="13.6674938"><ele>1099.0</ele><time>2026-05-03T08:41:43.016Z</time></trkpt><trkpt lat="42.0813852" lon="13.6675936"><ele>1101.0</ele><time>2026-05-03T08:41:44.028Z</time></trkpt><trkpt lat="42.0814043" lon="13.6676897"><ele>1103.0</ele><time>2026-05-03T08:41:45.025Z</time></trkpt><trkpt lat="42.0814145" lon="13.6677958"><ele>1104.6666666666667</ele><time>2026-05-03T08:41:46.028Z</time></trkpt><trkpt lat="42.0814183" lon="13.6679019"><ele>1106.3333333333335</ele><time>2026-05-03T08:41:47.045Z</time></trkpt><trkpt lat="42.0814201" lon="13.6680109"><ele>1108.0</ele><time>2026-05-03T08:41:48.029Z</time></trkpt><trkpt lat="42.0814086" lon="13.6681151"><ele>1109.6666666666667</ele><time>2026-05-03T08:41:49.027Z</time></trkpt><trkpt lat="42.0813892" lon="13.6682185"><ele>1111.3333333333333</ele><time>2026-05-03T08:41:50.027Z</time></trkpt><trkpt lat="42.081359" lon="13.6683122"><ele>1113.0</ele><time>2026-05-03T08:41:51.026Z</time></trkpt><trkpt lat="42.0813138" lon="13.6684053"><ele>1113.0</ele><time>2026-05-03T08:41:52.036Z</time></trkpt><trkpt lat="42.0812697" lon="13.6684944"><ele>1113.0</ele><time>2026-05-03T08:41:53.016Z</time></trkpt><trkpt lat="42.0812379" lon="13.6685878"><ele>1113.0</ele><time>2026-05-03T08:41:54.038Z</time></trkpt><trkpt lat="42.0812155" lon="13.6686894"><ele>1113.0</ele><time>2026-05-03T08:41:55.008Z</time></trkpt><trkpt lat="42.0811923" lon="13.6687934"><ele>1113.0</ele><time>2026-05-03T08:41:56.025Z</time></trkpt><trkpt lat="42.0811754" lon="13.6688992"><ele>1113.0</ele><time>2026-05-03T08:41:57.023Z</time></trkpt><trkpt lat="42.0811612" lon="13.6690092"><ele>1112.6</ele><time>2026-05-03T08:41:58.031Z</time></trkpt><trkpt lat="42.0811516" lon="13.669129"><ele>1112.1999999999998</ele><time>2026-05-03T08:41:59.026Z</time></trkpt><trkpt lat="42.0811365" lon="13.6692546"><ele>1111.8</ele><time>2026-05-03T08:42:00.031Z</time></trkpt><trkpt lat="42.0811215" lon="13.6693846"><ele>1111.3999999999999</ele><time>2026-05-03T08:42:01.026Z</time></trkpt><trkpt lat="42.0810977" lon="13.6695068"><ele>1111.0</ele><time>2026-05-03T08:42:02.017Z</time></trkpt><trkpt lat="42.081078" lon="13.6696184"><ele>1111.0</ele><time>2026-05-03T08:42:03.015Z</time></trkpt><trkpt lat="42.0810684" lon="13.6697047"><ele>1111.0</ele><time>2026-05-03T08:42:04.029Z</time></trkpt><trkpt lat="42.0810598" lon="13.6697955"><ele>1111.0</ele><time>2026-05-03T08:42:06.051Z</time></trkpt><trkpt lat="42.0810619" lon="13.669945"><ele>1111.0</ele><time>2026-05-03T08:42:25.032Z</time></trkpt><trkpt lat="42.0810414" lon="13.6700407"><ele>1111.0</ele><time>2026-05-03T08:42:26.039Z</time></trkpt><trkpt lat="42.081015" lon="13.6701623"><ele>1111.0</ele><time>2026-05-03T08:42:27.031Z</time></trkpt><trkpt lat="42.0809756" lon="13.670288"><ele>1109.75</ele><time>2026-05-03T08:42:28.033Z</time></trkpt><trkpt lat="42.0809291" lon="13.6704273"><ele>1108.5</ele><time>2026-05-03T08:42:29.044Z</time></trkpt><trkpt lat="42.0808797" lon="13.6705791"><ele>1107.25</ele><time>2026-05-03T08:42:30.036Z</time></trkpt><trkpt lat="42.0808252" lon="13.6707376"><ele>1106.0</ele><time>2026-05-03T08:42:31.048Z</time></trkpt><trkpt lat="42.0807635" lon="13.6708909"><ele>1110.25</ele><time>2026-05-03T08:42:32.031Z</time></trkpt><trkpt lat="42.080705" lon="13.6710422"><ele>1114.5</ele><time>2026-05-03T08:42:33.034Z</time></trkpt><trkpt lat="42.0806484" lon="13.6711915"><ele>1118.75</ele><time>2026-05-03T08:42:34.04Z</time></trkpt><trkpt lat="42.0806038" lon="13.6713468"><ele>1123.0</ele><time>2026-05-03T08:42:35.026Z</time></trkpt><trkpt lat="42.0805636" lon="13.6714926"><ele>1123.0</ele><time>2026-05-03T08:42:36.03Z</time></trkpt><trkpt lat="42.0805237" lon="13.6716389"><ele>1123.0</ele><time>2026-05-03T08:42:37.03Z</time></trkpt><trkpt lat="42.0804869" lon="13.6717793"><ele>1123.0</ele><time>2026-05-03T08:42:38.037Z</time></trkpt><trkpt lat="42.0804526" lon="13.6719171"><ele>1123.0</ele><time>2026-05-03T08:42:39.042Z</time></trkpt><trkpt lat="42.0804183" lon="13.6720474"><ele>1123.0</ele><time>2026-05-03T08:42:40.031Z</time></trkpt><trkpt lat="42.0803898" lon="13.6721863"><ele>1123.0</ele><time>2026-05-03T08:42:41.029Z</time></trkpt><trkpt lat="42.0803744" lon="13.6723293"><ele>1123.0</ele><time>2026-05-03T08:42:42.036Z</time></trkpt><trkpt lat="42.0803615" lon="13.6724731"><ele>1123.0</ele><time>2026-05-03T08:42:43.032Z</time></trkpt><trkpt lat="42.0803566" lon="13.672617"><ele>1123.0</ele><time>2026-05-03T08:42:44.039Z</time></trkpt><trkpt lat="42.080355" lon="13.6727557"><ele>1123.0</ele><time>2026-05-03T08:42:45.021Z</time></trkpt><trkpt lat="42.0803517" lon="13.6728817"><ele>1122.0</ele><time>2026-05-03T08:42:46.045Z</time></trkpt><trkpt lat="42.0803511" lon="13.6730033"><ele>1121.0</ele><time>2026-05-03T08:42:47.035Z</time></trkpt><trkpt lat="42.0803532" lon="13.6731276"><ele>1120.0</ele><time>2026-05-03T08:42:48.027Z</time></trkpt><trkpt lat="42.0803617" lon="13.673252"><ele>1119.0</ele><time>2026-05-03T08:42:49.035Z</time></trkpt><trkpt lat="42.0803628" lon="13.673376"><ele>1118.0</ele><time>2026-05-03T08:42:50.03Z</time></trkpt><trkpt lat="42.0803571" lon="13.6735092"><ele>1116.8</ele><time>2026-05-03T08:42:51.037Z</time></trkpt><trkpt lat="42.0803554" lon="13.6736455"><ele>1115.6</ele><time>2026-05-03T08:42:52.052Z</time></trkpt><trkpt lat="42.0803517" lon="13.6737835"><ele>1114.4</ele><time>2026-05-03T08:42:53.036Z</time></trkpt><trkpt lat="42.0803424" lon="13.6739184"><ele>1113.2</ele><time>2026-05-03T08:42:54.03Z</time></trkpt><trkpt lat="42.0803261" lon="13.674047"><ele>1112.0</ele><time>2026-05-03T08:42:55.037Z</time></trkpt><trkpt lat="42.0803056" lon="13.6741833"><ele>1112.0</ele><time>2026-05-03T08:42:56.04Z</time></trkpt><trkpt lat="42.0802833" lon="13.6743163"><ele>1112.0</ele><time>2026-05-03T08:42:57.051Z</time></trkpt><trkpt lat="42.080254" lon="13.6744478"><ele>1112.0</ele><time>2026-05-03T08:42:58.032Z</time></trkpt><trkpt lat="42.0802232" lon="13.6745766"><ele>1112.0</ele><time>2026-05-03T08:42:59.033Z</time></trkpt><trkpt lat="42.0801924" lon="13.6746936"><ele>1112.0</ele><time>2026-05-03T08:43:00.041Z</time></trkpt><trkpt lat="42.080164" lon="13.6748119"><ele>1111.6666666666667</ele><time>2026-05-03T08:43:01.035Z</time></trkpt><trkpt lat="42.0801427" lon="13.6749248"><ele>1111.3333333333335</ele><time>2026-05-03T08:43:02.06Z</time></trkpt><trkpt lat="42.080118" lon="13.6750269"><ele>1111.0</ele><time>2026-05-03T08:43:03.033Z</time></trkpt><trkpt lat="42.0800945" lon="13.6751217"><ele>1110.6666666666667</ele><time>2026-05-03T08:43:04.035Z</time></trkpt><trkpt lat="42.0800757" lon="13.6752173"><ele>1110.3333333333333</ele><time>2026-05-03T08:43:05.032Z</time></trkpt><trkpt lat="42.0800542" lon="13.675309"><ele>1110.0</ele><time>2026-05-03T08:43:06.038Z</time></trkpt><trkpt lat="42.0800318" lon="13.6754035"><ele>1110.8333333333333</ele><time>2026-05-03T08:43:07.05Z</time></trkpt><trkpt lat="42.080007" lon="13.6755038"><ele>1111.6666666666667</ele><time>2026-05-03T08:43:08.028Z</time></trkpt><trkpt lat="42.079984" lon="13.6756101"><ele>1112.5</ele><time>2026-05-03T08:43:09.031Z</time></trkpt><trkpt lat="42.0799629" lon="13.6757091"><ele>1113.3333333333335</ele><time>2026-05-03T08:43:10.033Z</time></trkpt><trkpt lat="42.0799471" lon="13.6758037"><ele>1114.1666666666667</ele><time>2026-05-03T08:43:11.035Z</time></trkpt><trkpt lat="42.0799326" lon="13.6758985"><ele>1115.0</ele><time>2026-05-03T08:43:12.034Z</time></trkpt><trkpt lat="42.0799163" lon="13.6760004"><ele>1116.8</ele><time>2026-05-03T08:43:13.029Z</time></trkpt><trkpt lat="42.0799041" lon="13.6761142"><ele>1118.6</ele><time>2026-05-03T08:43:14.038Z</time></trkpt><trkpt lat="42.0798938" lon="13.6762342"><ele>1120.4</ele><time>2026-05-03T08:43:15.032Z</time></trkpt><trkpt lat="42.0798832" lon="13.6763613"><ele>1122.2</ele><time>2026-05-03T08:43:16.029Z</time></trkpt><trkpt lat="42.079872" lon="13.6764903"><ele>1124.0</ele><time>2026-05-03T08:43:17.032Z</time></trkpt><trkpt lat="42.0798635" lon="13.6766141"><ele>1124.0</ele><time>2026-05-03T08:43:18.033Z</time></trkpt><trkpt lat="42.0798537" lon="13.676737"><ele>1124.0</ele><time>2026-05-03T08:43:19.036Z</time></trkpt><trkpt lat="42.0798464" lon="13.6768598"><ele>1124.0</ele><time>2026-05-03T08:43:20.034Z</time></trkpt><trkpt lat="42.0798485" lon="13.6769874"><ele>1124.0</ele><time>2026-05-03T08:43:21.037Z</time></trkpt><trkpt lat="42.0798531" lon="13.6771099"><ele>1124.0</ele><time>2026-05-03T08:43:22.032Z</time></trkpt><trkpt lat="42.0798555" lon="13.6772229"><ele>1123.6666666666667</ele><time>2026-05-03T08:43:23.033Z</time></trkpt><trkpt lat="42.0798718" lon="13.6773249"><ele>1123.3333333333335</ele><time>2026-05-03T08:43:24.029Z</time></trkpt><trkpt lat="42.0798975" lon="13.6774294"><ele>1123.0</ele><time>2026-05-03T08:43:25.035Z</time></trkpt><trkpt lat="42.0799384" lon="13.6775328"><ele>1122.6666666666667</ele><time>2026-05-03T08:43:26.035Z</time></trkpt><trkpt lat="42.0799877" lon="13.6776316"><ele>1122.3333333333333</ele><time>2026-05-03T08:43:27.037Z</time></trkpt><trkpt lat="42.0800373" lon="13.6777284"><ele>1122.0</ele><time>2026-05-03T08:43:28.025Z</time></trkpt><trkpt lat="42.0800852" lon="13.6778168"><ele>1122.6666666666667</ele><time>2026-05-03T08:43:29.023Z</time></trkpt><trkpt lat="42.0801341" lon="13.677892"><ele>1123.3333333333333</ele><time>2026-05-03T08:43:30.035Z</time></trkpt><trkpt lat="42.0801914" lon="13.6779552"><ele>1124.0</ele><time>2026-05-03T08:43:31.026Z</time></trkpt><trkpt lat="42.0802599" lon="13.6780136"><ele>1124.6666666666665</ele><time>2026-05-03T08:43:32.034Z</time></trkpt><trkpt lat="42.0803314" lon="13.6780693"><ele>1125.3333333333333</ele><time>2026-05-03T08:43:33.03Z</time></trkpt><trkpt lat="42.0804091" lon="13.6781125"><ele>1126.0</ele><time>2026-05-03T08:43:34.031Z</time></trkpt><trkpt lat="42.0804947" lon="13.6781337"><ele>1126.0</ele><time>2026-05-03T08:43:35.036Z</time></trkpt><trkpt lat="42.0805915" lon="13.6781473"><ele>1126.0</ele><time>2026-05-03T08:43:36.031Z</time></trkpt><trkpt lat="42.0806921" lon="13.678147"><ele>1126.0</ele><time>2026-05-03T08:43:37.028Z</time></trkpt><trkpt lat="42.0807901" lon="13.6781453"><ele>1126.0</ele><time>2026-05-03T08:43:38.027Z</time></trkpt><trkpt lat="42.0808915" lon="13.6781263"><ele>1126.0</ele><time>2026-05-03T08:43:39.039Z</time></trkpt><trkpt lat="42.0809971" lon="13.6781089"><ele>1125.3999999999999</ele><time>2026-05-03T08:43:40.037Z</time></trkpt><trkpt lat="42.0811054" lon="13.6780972"><ele>1124.8</ele><time>2026-05-03T08:43:41.019Z</time></trkpt><trkpt lat="42.081218" lon="13.6780916"><ele>1124.1999999999998</ele><time>2026-05-03T08:43:42.029Z</time></trkpt><trkpt lat="42.0813307" lon="13.6780866"><ele>1123.6</ele><time>2026-05-03T08:43:43.024Z</time></trkpt><trkpt lat="42.0814398" lon="13.6780975"><ele>1123.0</ele><time>2026-05-03T08:43:44.021Z</time></trkpt><trkpt lat="42.0815519" lon="13.6781094"><ele>1123.25</ele><time>2026-05-03T08:43:45.028Z</time></trkpt><trkpt lat="42.0816621" lon="13.6781205"><ele>1123.5</ele><time>2026-05-03T08:43:46.025Z</time></trkpt><trkpt lat="42.0817714" lon="13.6781378"><ele>1123.75</ele><time>2026-05-03T08:43:47.028Z</time></trkpt><trkpt lat="42.0818864" lon="13.678168"><ele>1124.0</ele><time>2026-05-03T08:43:48.035Z</time></trkpt><trkpt lat="42.0819951" lon="13.6782102"><ele>1124.0</ele><time>2026-05-03T08:43:49.036Z</time></trkpt><trkpt lat="42.0821049" lon="13.6782627"><ele>1124.0</ele><time>2026-05-03T08:43:50.031Z</time></trkpt><trkpt lat="42.0822082" lon="13.6783161"><ele>1124.0</ele><time>2026-05-03T08:43:51.037Z</time></trkpt><trkpt lat="42.0823073" lon="13.6783694"><ele>1124.0</ele><time>2026-05-03T08:43:52.037Z</time></trkpt><trkpt lat="42.0824074" lon="13.6784218"><ele>1124.0</ele><time>2026-05-03T08:43:53.027Z</time></trkpt><trkpt lat="42.0825085" lon="13.6784633"><ele>1124.4</ele><time>2026-05-03T08:43:54.026Z</time></trkpt><trkpt lat="42.0826036" lon="13.6784917"><ele>1124.8000000000002</ele><time>2026-05-03T08:43:55.038Z</time></trkpt><trkpt lat="42.0827056" lon="13.6784968"><ele>1125.1999999999998</ele><time>2026-05-03T08:43:56.039Z</time></trkpt><trkpt lat="42.0828047" lon="13.6784749"><ele>1125.6</ele><time>2026-05-03T08:43:57.035Z</time></trkpt><trkpt lat="42.0828956" lon="13.6784436"><ele>1126.0</ele><time>2026-05-03T08:43:58.021Z</time></trkpt><trkpt lat="42.0829873" lon="13.6784096"><ele>1126.0</ele><time>2026-05-03T08:43:59.024Z</time></trkpt><trkpt lat="42.0830813" lon="13.6783609"><ele>1126.0</ele><time>2026-05-03T08:44:00.031Z</time></trkpt><trkpt lat="42.0831686" lon="13.6783011"><ele>1126.0</ele><time>2026-05-03T08:44:01.03Z</time></trkpt><trkpt lat="42.0832531" lon="13.6782425"><ele>1126.0</ele><time>2026-05-03T08:44:02.035Z</time></trkpt><trkpt lat="42.083341" lon="13.6781868"><ele>1126.0</ele><time>2026-05-03T08:44:03.028Z</time></trkpt><trkpt lat="42.0834305" lon="13.6781276"><ele>1125.8</ele><time>2026-05-03T08:44:04.023Z</time></trkpt><trkpt lat="42.0835162" lon="13.678064"><ele>1125.6</ele><time>2026-05-03T08:44:05.032Z</time></trkpt><trkpt lat="42.0836078" lon="13.678002"><ele>1125.4</ele><time>2026-05-03T08:44:06.034Z</time></trkpt><trkpt lat="42.0836937" lon="13.6779397"><ele>1125.2</ele><time>2026-05-03T08:44:07.031Z</time></trkpt><trkpt lat="42.0837774" lon="13.6778765"><ele>1125.0</ele><time>2026-05-03T08:44:08.032Z</time></trkpt><trkpt lat="42.0838583" lon="13.6778089"><ele>1126.2</ele><time>2026-05-03T08:44:09.027Z</time></trkpt><trkpt lat="42.0839356" lon="13.6777412"><ele>1127.4</ele><time>2026-05-03T08:44:10.031Z</time></trkpt><trkpt lat="42.0840098" lon="13.6776638"><ele>1128.6</ele><time>2026-05-03T08:44:11.031Z</time></trkpt><trkpt lat="42.0840832" lon="13.677581"><ele>1129.8</ele><time>2026-05-03T08:44:12.026Z</time></trkpt><trkpt lat="42.0841524" lon="13.6774948"><ele>1131.0</ele><time>2026-05-03T08:44:13.022Z</time></trkpt><trkpt lat="42.0842108" lon="13.6773977"><ele>1131.0</ele><time>2026-05-03T08:44:14.028Z</time></trkpt><trkpt lat="42.0842681" lon="13.6772873"><ele>1131.0</ele><time>2026-05-03T08:44:15.026Z</time></trkpt><trkpt lat="42.0843237" lon="13.6771642"><ele>1131.0</ele><time>2026-05-03T08:44:16.028Z</time></trkpt><trkpt lat="42.084375" lon="13.6770381"><ele>1131.0</ele><time>2026-05-03T08:44:17.024Z</time></trkpt><trkpt lat="42.0844316" lon="13.6769177"><ele>1131.0</ele><time>2026-05-03T08:44:18.029Z</time></trkpt><trkpt lat="42.0844894" lon="13.676804"><ele>1134.3999999999999</ele><time>2026-05-03T08:44:19.04Z</time></trkpt><trkpt lat="42.0845509" lon="13.6766994"><ele>1137.8</ele><time>2026-05-03T08:44:20.031Z</time></trkpt><trkpt lat="42.084606" lon="13.6765972"><ele>1141.1999999999998</ele><time>2026-05-03T08:44:21.029Z</time></trkpt><trkpt lat="42.084669" lon="13.6765041"><ele>1144.6</ele><time>2026-05-03T08:44:22.038Z</time></trkpt><trkpt lat="42.0847349" lon="13.6764163"><ele>1148.0</ele><time>2026-05-03T08:44:23.027Z</time></trkpt><trkpt lat="42.0848076" lon="13.6763434"><ele>1148.0</ele><time>2026-05-03T08:44:24.032Z</time></trkpt><trkpt lat="42.0848841" lon="13.6762862"><ele>1148.0</ele><time>2026-05-03T08:44:25.023Z</time></trkpt><trkpt lat="42.0849741" lon="13.6762426"><ele>1148.0</ele><time>2026-05-03T08:44:26.028Z</time></trkpt><trkpt lat="42.0850681" lon="13.6762222"><ele>1148.0</ele><time>2026-05-03T08:44:27.031Z</time></trkpt><trkpt lat="42.0851678" lon="13.6762181"><ele>1148.0</ele><time>2026-05-03T08:44:28.031Z</time></trkpt><trkpt lat="42.0852673" lon="13.6762142"><ele>1147.4</ele><time>2026-05-03T08:44:29.029Z</time></trkpt><trkpt lat="42.0853636" lon="13.6762223"><ele>1146.8</ele><time>2026-05-03T08:44:30.026Z</time></trkpt><trkpt lat="42.0854596" lon="13.6762331"><ele>1146.2</ele><time>2026-05-03T08:44:31.03Z</time></trkpt><trkpt lat="42.0855593" lon="13.6762374"><ele>1145.6</ele><time>2026-05-03T08:44:32.029Z</time></trkpt><trkpt lat="42.085663" lon="13.6762365"><ele>1145.0</ele><time>2026-05-03T08:44:33.026Z</time></trkpt><trkpt lat="42.0857651" lon="13.6762341"><ele>1145.0</ele><time>2026-05-03T08:44:34.035Z</time></trkpt><trkpt lat="42.0858669" lon="13.6762315"><ele>1145.0</ele><time>2026-05-03T08:44:35.021Z</time></trkpt><trkpt lat="42.0859728" lon="13.6762202"><ele>1145.0</ele><time>2026-05-03T08:44:36.021Z</time></trkpt><trkpt lat="42.0860789" lon="13.6762034"><ele>1145.0</ele><time>2026-05-03T08:44:37.032Z</time></trkpt><trkpt lat="42.0861845" lon="13.6761754"><ele>1145.0</ele><time>2026-05-03T08:44:38.027Z</time></trkpt><trkpt lat="42.0862938" lon="13.6761436"><ele>1145.0</ele><time>2026-05-03T08:44:39.031Z</time></trkpt><trkpt lat="42.0864079" lon="13.6761137"><ele>1145.0</ele><time>2026-05-03T08:44:40.031Z</time></trkpt><trkpt lat="42.0865174" lon="13.6760767"><ele>1145.0</ele><time>2026-05-03T08:44:41.022Z</time></trkpt><trkpt lat="42.0866224" lon="13.6760202"><ele>1145.0</ele><time>2026-05-03T08:44:42.026Z</time></trkpt><trkpt lat="42.086716" lon="13.6759599"><ele>1145.0</ele><time>2026-05-03T08:44:43.022Z</time></trkpt><trkpt lat="42.086802" lon="13.6759135"><ele>1144.8333333333335</ele><time>2026-05-03T08:44:44.027Z</time></trkpt><trkpt lat="42.0868909" lon="13.6758711"><ele>1144.6666666666667</ele><time>2026-05-03T08:44:45.026Z</time></trkpt><trkpt lat="42.0869832" lon="13.6758364"><ele>1144.5</ele><time>2026-05-03T08:44:46.025Z</time></trkpt><trkpt lat="42.0870736" lon="13.6758039"><ele>1144.3333333333333</ele><time>2026-05-03T08:44:47.034Z</time></trkpt><trkpt lat="42.0871531" lon="13.6757761"><ele>1144.1666666666665</ele><time>2026-05-03T08:44:48.029Z</time></trkpt><trkpt lat="42.0872289" lon="13.6757436"><ele>1144.0</ele><time>2026-05-03T08:44:49.038Z</time></trkpt><trkpt lat="42.0873142" lon="13.6757198"><ele>1144.0</ele><time>2026-05-03T08:44:50.026Z</time></trkpt><trkpt lat="42.0874078" lon="13.6756965"><ele>1144.0</ele><time>2026-05-03T08:44:51.032Z</time></trkpt><trkpt lat="42.0874961" lon="13.6756768"><ele>1144.0</ele><time>2026-05-03T08:44:52.031Z</time></trkpt><trkpt lat="42.0875805" lon="13.6756728"><ele>1144.0</ele><time>2026-05-03T08:44:53.029Z</time></trkpt><trkpt lat="42.0876646" lon="13.6756795"><ele>1144.0</ele><time>2026-05-03T08:44:54.031Z</time></trkpt><trkpt lat="42.0877538" lon="13.675702"><ele>1144.0</ele><time>2026-05-03T08:44:55.026Z</time></trkpt><trkpt lat="42.087839" lon="13.6757365"><ele>1143.8</ele><time>2026-05-03T08:44:56.041Z</time></trkpt><trkpt lat="42.0879283" lon="13.6757706"><ele>1143.6000000000001</ele><time>2026-05-03T08:44:57.027Z</time></trkpt><trkpt lat="42.0880172" lon="13.675816"><ele>1143.4</ele><time>2026-05-03T08:44:58.036Z</time></trkpt><trkpt lat="42.0881092" lon="13.6758529"><ele>1143.2</ele><time>2026-05-03T08:44:59.04Z</time></trkpt><trkpt lat="42.0882016" lon="13.6758864"><ele>1143.0</ele><time>2026-05-03T08:45:00.03Z</time></trkpt><trkpt lat="42.0882941" lon="13.6759244"><ele>1143.0</ele><time>2026-05-03T08:45:01.017Z</time></trkpt><trkpt lat="42.0883871" lon="13.6759615"><ele>1143.0</ele><time>2026-05-03T08:45:02.031Z</time></trkpt><trkpt lat="42.0884851" lon="13.6760023"><ele>1143.0</ele><time>2026-05-03T08:45:03.035Z</time></trkpt><trkpt lat="42.0885834" lon="13.6760397"><ele>1143.0</ele><time>2026-05-03T08:45:04.038Z</time></trkpt><trkpt lat="42.0886778" lon="13.6760856"><ele>1143.0</ele><time>2026-05-03T08:45:05.047Z</time></trkpt><trkpt lat="42.0887693" lon="13.6761441"><ele>1145.4</ele><time>2026-05-03T08:45:06.028Z</time></trkpt><trkpt lat="42.0888535" lon="13.6762054"><ele>1147.8</ele><time>2026-05-03T08:45:07.024Z</time></trkpt><trkpt lat="42.088938" lon="13.6762726"><ele>1150.2</ele><time>2026-05-03T08:45:08.034Z</time></trkpt><trkpt lat="42.0890204" lon="13.6763289"><ele>1152.6</ele><time>2026-05-03T08:45:09.026Z</time></trkpt><trkpt lat="42.0891099" lon="13.6763648"><ele>1155.0</ele><time>2026-05-03T08:45:10.045Z</time></trkpt><trkpt lat="42.0892055" lon="13.6763938"><ele>1155.0</ele><time>2026-05-03T08:45:11.038Z</time></trkpt><trkpt lat="42.0893068" lon="13.6764149"><ele>1155.0</ele><time>2026-05-03T08:45:12.033Z</time></trkpt><trkpt lat="42.0894062" lon="13.67642"><ele>1155.0</ele><time>2026-05-03T08:45:13.035Z</time></trkpt><trkpt lat="42.0895052" lon="13.6764266"><ele>1155.0</ele><time>2026-05-03T08:45:14.04Z</time></trkpt><trkpt lat="42.0895998" lon="13.6764357"><ele>1155.0</ele><time>2026-05-03T08:45:15.035Z</time></trkpt><trkpt lat="42.0896869" lon="13.6764519"><ele>1155.0</ele><time>2026-05-03T08:45:16.046Z</time></trkpt><trkpt lat="42.0897713" lon="13.6764752"><ele>1155.0</ele><time>2026-05-03T08:45:17.027Z</time></trkpt><trkpt lat="42.0898515" lon="13.676516"><ele>1155.0</ele><time>2026-05-03T08:45:18.04Z</time></trkpt><trkpt lat="42.0899299" lon="13.6765624"><ele>1155.0</ele><time>2026-05-03T08:45:19.039Z</time></trkpt><trkpt lat="42.0900132" lon="13.6766053"><ele>1155.0</ele><time>2026-05-03T08:45:20.033Z</time></trkpt><trkpt lat="42.0900957" lon="13.6766527"><ele>1155.0</ele><time>2026-05-03T08:45:21.031Z</time></trkpt><trkpt lat="42.0901726" lon="13.6767056"><ele>1153.2</ele><time>2026-05-03T08:45:22.04Z</time></trkpt><trkpt lat="42.0902558" lon="13.6767684"><ele>1151.4</ele><time>2026-05-03T08:45:23.025Z</time></trkpt><trkpt lat="42.0903363" lon="13.6768432"><ele>1149.6</ele><time>2026-05-03T08:45:24.037Z</time></trkpt><trkpt lat="42.0904193" lon="13.6769242"><ele>1147.8</ele><time>2026-05-03T08:45:25.038Z</time></trkpt><trkpt lat="42.0905036" lon="13.6770065"><ele>1146.0</ele><time>2026-05-03T08:45:26.035Z</time></trkpt><trkpt lat="42.090586" lon="13.677076"><ele>1146.8</ele><time>2026-05-03T08:45:27.041Z</time></trkpt><trkpt lat="42.0906637" lon="13.6771361"><ele>1147.6</ele><time>2026-05-03T08:45:28.032Z</time></trkpt><trkpt lat="42.0907382" lon="13.6771968"><ele>1148.4</ele><time>2026-05-03T08:45:29.041Z</time></trkpt><trkpt lat="42.0908153" lon="13.6772656"><ele>1149.2</ele><time>2026-05-03T08:45:30.031Z</time></trkpt><trkpt lat="42.0908914" lon="13.677337"><ele>1150.0</ele><time>2026-05-03T08:45:31.033Z</time></trkpt><trkpt lat="42.0909729" lon="13.6773994"><ele>1150.0</ele><time>2026-05-03T08:45:32.038Z</time></trkpt><trkpt lat="42.0910592" lon="13.67746"><ele>1150.0</ele><time>2026-05-03T08:45:33.038Z</time></trkpt><trkpt lat="42.0911454" lon="13.6775118"><ele>1150.0</ele><time>2026-05-03T08:45:34.03Z</time></trkpt><trkpt lat="42.0912331" lon="13.6775587"><ele>1150.0</ele><time>2026-05-03T08:45:35.043Z</time></trkpt><trkpt lat="42.0913234" lon="13.6776111"><ele>1150.0</ele><time>2026-05-03T08:45:36.042Z</time></trkpt><trkpt lat="42.091409" lon="13.6776639"><ele>1150.0</ele><time>2026-05-03T08:45:37.046Z</time></trkpt><trkpt lat="42.0914969" lon="13.6777282"><ele>1150.0</ele><time>2026-05-03T08:45:38.049Z</time></trkpt><trkpt lat="42.0915819" lon="13.6777893"><ele>1150.0</ele><time>2026-05-03T08:45:39.04Z</time></trkpt><trkpt lat="42.0916569" lon="13.6778465"><ele>1150.0</ele><time>2026-05-03T08:45:40.042Z</time></trkpt><trkpt lat="42.0917265" lon="13.6778985"><ele>1150.0</ele><time>2026-05-03T08:45:41.046Z</time></trkpt><trkpt lat="42.0917853" lon="13.6779382"><ele>1150.0</ele><time>2026-05-03T08:45:42.035Z</time></trkpt><trkpt lat="42.0918522" lon="13.677991"><ele>1151.8</ele><time>2026-05-03T08:45:44.043Z</time></trkpt><trkpt lat="42.091902" lon="13.678084"><ele>1153.6</ele><time>2026-05-03T08:46:01.028Z</time></trkpt><trkpt lat="42.0919863" lon="13.6781955"><ele>1155.4</ele><time>2026-05-03T08:46:03.035Z</time></trkpt><trkpt lat="42.092048" lon="13.6783315"><ele>1157.2</ele><time>2026-05-03T08:46:05.025Z</time></trkpt><trkpt lat="42.092068" lon="13.6784155"><ele>1159.0</ele><time>2026-05-03T08:46:06.036Z</time></trkpt><trkpt lat="42.0920917" lon="13.6785077"><ele>1161.6666666666665</ele><time>2026-05-03T08:46:07.032Z</time></trkpt><trkpt lat="42.0921136" lon="13.6786083"><ele>1164.3333333333333</ele><time>2026-05-03T08:46:08.046Z</time></trkpt><trkpt lat="42.0921363" lon="13.6787124"><ele>1167.0</ele><time>2026-05-03T08:46:09.038Z</time></trkpt><trkpt lat="42.0921614" lon="13.6788214"><ele>1169.6666666666667</ele><time>2026-05-03T08:46:10.051Z</time></trkpt><trkpt lat="42.0921848" lon="13.6789368"><ele>1172.3333333333335</ele><time>2026-05-03T08:46:11.027Z</time></trkpt><trkpt lat="42.0922053" lon="13.6790435"><ele>1175.0</ele><time>2026-05-03T08:46:12.032Z</time></trkpt><trkpt lat="42.0922362" lon="13.6791577"><ele>1175.0</ele><time>2026-05-03T08:46:13.032Z</time></trkpt><trkpt lat="42.0922707" lon="13.6792668"><ele>1175.0</ele><time>2026-05-03T08:46:14.025Z</time></trkpt><trkpt lat="42.0922981" lon="13.6793651"><ele>1175.0</ele><time>2026-05-03T08:46:15.028Z</time></trkpt><trkpt lat="42.0923208" lon="13.6794562"><ele>1175.0</ele><time>2026-05-03T08:46:16.06Z</time></trkpt><trkpt lat="42.0923339" lon="13.6795426"><ele>1175.0</ele><time>2026-05-03T08:46:17.032Z</time></trkpt><trkpt lat="42.0923427" lon="13.6796306"><ele>1175.0</ele><time>2026-05-03T08:46:18.034Z</time></trkpt><trkpt lat="42.0923461" lon="13.6797164"><ele>1175.0</ele><time>2026-05-03T08:46:19.028Z</time></trkpt><trkpt lat="42.0923787" lon="13.6798686"><ele>1175.0</ele><time>2026-05-03T08:46:21.032Z</time></trkpt><trkpt lat="42.0924106" lon="13.6799504"><ele>1175.0</ele><time>2026-05-03T08:46:22.035Z</time></trkpt><trkpt lat="42.0924433" lon="13.6800337"><ele>1175.0</ele><time>2026-05-03T08:46:23.042Z</time></trkpt><trkpt lat="42.0924752" lon="13.6801195"><ele>1175.0</ele><time>2026-05-03T08:46:24.043Z</time></trkpt><trkpt lat="42.092511" lon="13.6802803"><ele>1175.0</ele><time>2026-05-03T08:46:26.052Z</time></trkpt><trkpt lat="42.0925226" lon="13.6804537"><ele>1174.6666666666667</ele><time>2026-05-03T08:46:28.032Z</time></trkpt><trkpt lat="42.0925365" lon="13.6805424"><ele>1174.3333333333335</ele><time>2026-05-03T08:46:29.035Z</time></trkpt><trkpt lat="42.0925682" lon="13.6806229"><ele>1174.0</ele><time>2026-05-03T08:46:30.032Z</time></trkpt><trkpt lat="42.0926438" lon="13.6807334"><ele>1173.6666666666667</ele><time>2026-05-03T08:46:32.029Z</time></trkpt><trkpt lat="42.0926842" lon="13.6808091"><ele>1173.3333333333333</ele><time>2026-05-03T08:46:34.034Z</time></trkpt><trkpt lat="42.0926902" lon="13.6808943"><ele>1173.0</ele><time>2026-05-03T08:46:37.054Z</time></trkpt><trkpt lat="42.0926612" lon="13.6810232"><ele>1173.1666666666667</ele><time>2026-05-03T08:46:40.038Z</time></trkpt><trkpt lat="42.0926192" lon="13.6811214"><ele>1173.3333333333333</ele><time>2026-05-03T08:46:42.041Z</time></trkpt><trkpt lat="42.0925804" lon="13.6812121"><ele>1173.5</ele><time>2026-05-03T08:46:44.052Z</time></trkpt><trkpt lat="42.0925368" lon="13.6812876"><ele>1173.6666666666665</ele><time>2026-05-03T08:46:46.046Z</time></trkpt><trkpt lat="42.0924886" lon="13.6813934"><ele>1173.8333333333333</ele><time>2026-05-03T08:46:48.04Z</time></trkpt><trkpt lat="42.09244" lon="13.6815062"><ele>1174.0</ele><time>2026-05-03T08:46:50.027Z</time></trkpt><trkpt lat="42.0924013" lon="13.681618"><ele>1174.0</ele><time>2026-05-03T08:46:52.046Z</time></trkpt><trkpt lat="42.0923563" lon="13.6817251"><ele>1174.0</ele><time>2026-05-03T08:46:54.041Z</time></trkpt><trkpt lat="42.0923126" lon="13.681822"><ele>1174.0</ele><time>2026-05-03T08:46:56.035Z</time></trkpt><trkpt lat="42.092271" lon="13.6818972"><ele>1174.0</ele><time>2026-05-03T08:46:59.036Z</time></trkpt><trkpt lat="42.0922416" lon="13.6819875"><ele>1174.0</ele><time>2026-05-03T08:47:16.027Z</time></trkpt><trkpt lat="42.0922136" lon="13.6821189"><ele>1174.0</ele><time>2026-05-03T08:47:18.039Z</time></trkpt><trkpt lat="42.0921895" lon="13.6822286"><ele>1172.8</ele><time>2026-05-03T08:47:20.027Z</time></trkpt><trkpt lat="42.0921746" lon="13.682355"><ele>1171.6000000000001</ele><time>2026-05-03T08:47:22.043Z</time></trkpt><trkpt lat="42.0921702" lon="13.6824928"><ele>1170.4</ele><time>2026-05-03T08:47:24.033Z</time></trkpt><trkpt lat="42.0921478" lon="13.6826315"><ele>1169.2</ele><time>2026-05-03T08:47:26.038Z</time></trkpt><trkpt lat="42.0921271" lon="13.682738"><ele>1168.0</ele><time>2026-05-03T08:47:28.027Z</time></trkpt><trkpt lat="42.0920897" lon="13.6828276"><ele>1168.0</ele><time>2026-05-03T08:47:30.031Z</time></trkpt><trkpt lat="42.0920487" lon="13.6829218"><ele>1168.0</ele><time>2026-05-03T08:47:33.045Z</time></trkpt><trkpt lat="42.0921002" lon="13.6828553"><ele>1168.0</ele><time>2026-05-03T08:47:59.037Z</time></trkpt><trkpt lat="42.0921216" lon="13.6827475"><ele>1168.0</ele><time>2026-05-03T08:48:01.029Z</time></trkpt><trkpt lat="42.0921614" lon="13.6826048"><ele>1168.0</ele><time>2026-05-03T08:48:03.032Z</time></trkpt><trkpt lat="42.0921855" lon="13.6824441"><ele>1168.0</ele><time>2026-05-03T08:48:05.052Z</time></trkpt><trkpt lat="42.0921975" lon="13.682297"><ele>1168.0</ele><time>2026-05-03T08:48:07.047Z</time></trkpt><trkpt lat="42.0922148" lon="13.6821564"><ele>1168.0</ele><time>2026-05-03T08:48:09.03Z</time></trkpt><trkpt lat="42.0922459" lon="13.6820175"><ele>1168.0</ele><time>2026-05-03T08:48:11.038Z</time></trkpt><trkpt lat="42.0923004" lon="13.6818655"><ele>1168.0</ele><time>2026-05-03T08:48:13.042Z</time></trkpt><trkpt lat="42.0923319" lon="13.6817826"><ele>1167.8333333333333</ele><time>2026-05-03T08:48:14.02Z</time></trkpt><trkpt lat="42.0923713" lon="13.6817057"><ele>1167.6666666666665</ele><time>2026-05-03T08:48:15.04Z</time></trkpt><trkpt lat="42.0924086" lon="13.6816241"><ele>1167.5</ele><time>2026-05-03T08:48:16.045Z</time></trkpt><trkpt lat="42.09244" lon="13.6815443"><ele>1167.3333333333333</ele><time>2026-05-03T08:48:17.044Z</time></trkpt><trkpt lat="42.0924942" lon="13.6814063"><ele>1167.1666666666667</ele><time>2026-05-03T08:48:19.045Z</time></trkpt><trkpt lat="42.092562" lon="13.6812682"><ele>1167.0</ele><time>2026-05-03T08:48:21.021Z</time></trkpt><trkpt lat="42.0926032" lon="13.6811815"><ele>1168.0</ele><time>2026-05-03T08:48:22.043Z</time></trkpt><trkpt lat="42.0926405" lon="13.6810927"><ele>1169.0</ele><time>2026-05-03T08:48:23.032Z</time></trkpt><trkpt lat="42.0926724" lon="13.6810133"><ele>1170.0</ele><time>2026-05-03T08:48:24.055Z</time></trkpt><trkpt lat="42.0927034" lon="13.680913"><ele>1171.0</ele><time>2026-05-03T08:48:26.035Z</time></trkpt><trkpt lat="42.0926763" lon="13.6807816"><ele>1172.0</ele><time>2026-05-03T08:48:29.036Z</time></trkpt><trkpt lat="42.0926024" lon="13.6806758"><ele>1173.0</ele><time>2026-05-03T08:48:31.027Z</time></trkpt><trkpt lat="42.092551" lon="13.6805736"><ele>1173.0</ele><time>2026-05-03T08:48:33.032Z</time></trkpt><trkpt lat="42.092525" lon="13.6804279"><ele>1173.0</ele><time>2026-05-03T08:48:35.023Z</time></trkpt><trkpt lat="42.0925157" lon="13.6803425"><ele>1173.0</ele><time>2026-05-03T08:48:36.023Z</time></trkpt><trkpt lat="42.0925066" lon="13.6802582"><ele>1173.0</ele><time>2026-05-03T08:48:37.033Z</time></trkpt><trkpt lat="42.0924834" lon="13.6801172"><ele>1173.0</ele><time>2026-05-03T08:48:39.037Z</time></trkpt><trkpt lat="42.0924398" lon="13.6799973"><ele>1173.0</ele><time>2026-05-03T08:48:41.03Z</time></trkpt><trkpt lat="42.0923859" lon="13.6798754"><ele>1173.4</ele><time>2026-05-03T08:48:43.043Z</time></trkpt><trkpt lat="42.0923516" lon="13.6797334"><ele>1173.8</ele><time>2026-05-03T08:48:45.03Z</time></trkpt><trkpt lat="42.0923429" lon="13.6795873"><ele>1174.2</ele><time>2026-05-03T08:48:47.035Z</time></trkpt><trkpt lat="42.0923236" lon="13.6794597"><ele>1174.6</ele><time>2026-05-03T08:48:49.035Z</time></trkpt><trkpt lat="42.0922872" lon="13.6793385"><ele>1175.0</ele><time>2026-05-03T08:48:51.033Z</time></trkpt><trkpt lat="42.0922474" lon="13.6792053"><ele>1175.0</ele><time>2026-05-03T08:48:53.029Z</time></trkpt><trkpt lat="42.0922084" lon="13.6790623"><ele>1175.0</ele><time>2026-05-03T08:48:55.038Z</time></trkpt><trkpt lat="42.0921721" lon="13.6788995"><ele>1175.0</ele><time>2026-05-03T08:48:57.045Z</time></trkpt><trkpt lat="42.0921579" lon="13.6788137"><ele>1175.0</ele><time>2026-05-03T08:48:58.038Z</time></trkpt><trkpt lat="42.0921437" lon="13.6787274"><ele>1175.0</ele><time>2026-05-03T08:48:59.026Z</time></trkpt><trkpt lat="42.0921264" lon="13.6786455"><ele>1175.0</ele><time>2026-05-03T08:49:00.042Z</time></trkpt><trkpt lat="42.092092" lon="13.6784919"><ele>1172.3333333333335</ele><time>2026-05-03T08:49:02.033Z</time></trkpt><trkpt lat="42.0920555" lon="13.6783595"><ele>1169.6666666666667</ele><time>2026-05-03T08:49:04.045Z</time></trkpt><trkpt lat="42.0920282" lon="13.6782472"><ele>1167.0</ele><time>2026-05-03T08:49:06.038Z</time></trkpt><trkpt lat="42.0920199" lon="13.6781485"><ele>1164.3333333333333</ele><time>2026-05-03T08:49:08.057Z</time></trkpt><trkpt lat="42.0920323" lon="13.678055"><ele>1161.6666666666665</ele><time>2026-05-03T08:49:10.051Z</time></trkpt><trkpt lat="42.0920849" lon="13.6779649"><ele>1159.0</ele><time>2026-05-03T08:49:12.037Z</time></trkpt><trkpt lat="42.0921709" lon="13.6778975"><ele>1159.0</ele><time>2026-05-03T08:49:14.038Z</time></trkpt><trkpt lat="42.0922939" lon="13.6778514"><ele>1159.0</ele><time>2026-05-03T08:49:16.044Z</time></trkpt><trkpt lat="42.0923685" lon="13.6778206"><ele>1159.0</ele><time>2026-05-03T08:49:17.024Z</time></trkpt><trkpt lat="42.0924408" lon="13.6777807"><ele>1159.0</ele><time>2026-05-03T08:49:18.044Z</time></trkpt><trkpt lat="42.0925185" lon="13.6777492"><ele>1159.0</ele><time>2026-05-03T08:49:19.038Z</time></trkpt><trkpt lat="42.0925967" lon="13.6777253"><ele>1159.0</ele><time>2026-05-03T08:49:20.049Z</time></trkpt><trkpt lat="42.0926793" lon="13.6777084"><ele>1157.1666666666665</ele><time>2026-05-03T08:49:21.06Z</time></trkpt><trkpt lat="42.0927662" lon="13.6776954"><ele>1155.3333333333333</ele><time>2026-05-03T08:49:22.043Z</time></trkpt><trkpt lat="42.092852" lon="13.6776843"><ele>1153.5</ele><time>2026-05-03T08:49:23.027Z</time></trkpt><trkpt lat="42.0929326" lon="13.6776726"><ele>1151.6666666666667</ele><time>2026-05-03T08:49:24.041Z</time></trkpt><trkpt lat="42.0930083" lon="13.6776597"><ele>1149.8333333333335</ele><time>2026-05-03T08:49:25.055Z</time></trkpt><trkpt lat="42.0930753" lon="13.6776593"><ele>1148.0</ele><time>2026-05-03T08:49:26.048Z</time></trkpt><trkpt lat="42.0931479" lon="13.677668"><ele>1148.0</ele><time>2026-05-03T08:49:27.046Z</time></trkpt><trkpt lat="42.093223" lon="13.6776929"><ele>1148.0</ele><time>2026-05-03T08:49:28.073Z</time></trkpt><trkpt lat="42.0932923" lon="13.6777236"><ele>1148.0</ele><time>2026-05-03T08:49:29.037Z</time></trkpt><trkpt lat="42.0933606" lon="13.6777536"><ele>1148.0</ele><time>2026-05-03T08:49:30.035Z</time></trkpt><trkpt lat="42.0934261" lon="13.6777709"><ele>1148.0</ele><time>2026-05-03T08:49:31.052Z</time></trkpt><trkpt lat="42.0934954" lon="13.6777788"><ele>1148.0</ele><time>2026-05-03T08:49:32.033Z</time></trkpt><trkpt lat="42.0935641" lon="13.6777732"><ele>1148.0</ele><time>2026-05-03T08:49:33.048Z</time></trkpt><trkpt lat="42.0936265" lon="13.6777514"><ele>1147.8333333333335</ele><time>2026-05-03T08:49:34.037Z</time></trkpt><trkpt lat="42.0936809" lon="13.6777043"><ele>1147.6666666666667</ele><time>2026-05-03T08:49:35.045Z</time></trkpt><trkpt lat="42.0937646" lon="13.6775795"><ele>1147.5</ele><time>2026-05-03T08:49:37.031Z</time></trkpt><trkpt lat="42.0937958" lon="13.6774905"><ele>1147.3333333333333</ele><time>2026-05-03T08:49:38.063Z</time></trkpt><trkpt lat="42.0938268" lon="13.6773938"><ele>1147.1666666666665</ele><time>2026-05-03T08:49:39.038Z</time></trkpt><trkpt lat="42.0938572" lon="13.6772904"><ele>1147.0</ele><time>2026-05-03T08:49:40.046Z</time></trkpt><trkpt lat="42.0938949" lon="13.6771926"><ele>1147.0</ele><time>2026-05-03T08:49:41.065Z</time></trkpt><trkpt lat="42.0939392" lon="13.6770967"><ele>1147.0</ele><time>2026-05-03T08:49:42.049Z</time></trkpt><trkpt lat="42.0939914" lon="13.6770124"><ele>1147.0</ele><time>2026-05-03T08:49:43.05Z</time></trkpt><trkpt lat="42.0940505" lon="13.6769369"><ele>1147.0</ele><time>2026-05-03T08:49:44.031Z</time></trkpt><trkpt lat="42.0941181" lon="13.6768638"><ele>1147.0</ele><time>2026-05-03T08:49:45.051Z</time></trkpt><trkpt lat="42.0941917" lon="13.6767885"><ele>1147.0</ele><time>2026-05-03T08:49:46.037Z</time></trkpt><trkpt lat="42.0942679" lon="13.6767072"><ele>1147.8</ele><time>2026-05-03T08:49:47.041Z</time></trkpt><trkpt lat="42.0943454" lon="13.6766198"><ele>1148.6</ele><time>2026-05-03T08:49:48.053Z</time></trkpt><trkpt lat="42.0944304" lon="13.6765258"><ele>1149.3999999999999</ele><time>2026-05-03T08:49:49.028Z</time></trkpt><trkpt lat="42.0945086" lon="13.6764402"><ele>1150.2</ele><time>2026-05-03T08:49:50.034Z</time></trkpt><trkpt lat="42.0945825" lon="13.6763601"><ele>1151.0</ele><time>2026-05-03T08:49:51.035Z</time></trkpt><trkpt lat="42.0946621" lon="13.6762891"><ele>1151.0</ele><time>2026-05-03T08:49:52.036Z</time></trkpt><trkpt lat="42.0947356" lon="13.6762217"><ele>1151.0</ele><time>2026-05-03T08:49:53.038Z</time></trkpt><trkpt lat="42.0948043" lon="13.676159"><ele>1151.0</ele><time>2026-05-03T08:49:54.039Z</time></trkpt><trkpt lat="42.0948658" lon="13.6760877"><ele>1151.0</ele><time>2026-05-03T08:49:55.041Z</time></trkpt><trkpt lat="42.0949278" lon="13.6760164"><ele>1151.0</ele><time>2026-05-03T08:49:56.03Z</time></trkpt><trkpt lat="42.0949926" lon="13.6759467"><ele>1151.0</ele><time>2026-05-03T08:49:57.031Z</time></trkpt><trkpt lat="42.0950567" lon="13.6758706"><ele>1152.1666666666667</ele><time>2026-05-03T08:49:58.034Z</time></trkpt><trkpt lat="42.0951171" lon="13.6757851"><ele>1153.3333333333335</ele><time>2026-05-03T08:49:59.034Z</time></trkpt><trkpt lat="42.0951849" lon="13.6757083"><ele>1154.5</ele><time>2026-05-03T08:50:00.043Z</time></trkpt><trkpt lat="42.0952579" lon="13.6756368"><ele>1155.6666666666667</ele><time>2026-05-03T08:50:01.045Z</time></trkpt><trkpt lat="42.0953275" lon="13.675571"><ele>1156.8333333333333</ele><time>2026-05-03T08:50:02.022Z</time></trkpt><trkpt lat="42.0953944" lon="13.6755095"><ele>1158.0</ele><time>2026-05-03T08:50:03.045Z</time></trkpt><trkpt lat="42.0954605" lon="13.6754546"><ele>1157.9999999999998</ele><time>2026-05-03T08:50:04.04Z</time></trkpt><trkpt lat="42.0955228" lon="13.6754126"><ele>1158.0</ele><time>2026-05-03T08:50:05.029Z</time></trkpt><trkpt lat="42.0955897" lon="13.6753836"><ele>1158.0</ele><time>2026-05-03T08:50:06.062Z</time></trkpt><trkpt lat="42.0956596" lon="13.6753664"><ele>1158.0</ele><time>2026-05-03T08:50:07.032Z</time></trkpt><trkpt lat="42.0957282" lon="13.6753697"><ele>1158.0</ele><time>2026-05-03T08:50:08.038Z</time></trkpt><trkpt lat="42.0957931" lon="13.675381"><ele>1157.9999999999998</ele><time>2026-05-03T08:50:09.045Z</time></trkpt><trkpt lat="42.0958554" lon="13.6754082"><ele>1158.0</ele><time>2026-05-03T08:50:10.034Z</time></trkpt><trkpt lat="42.0959618" lon="13.6755077"><ele>1159.6</ele><time>2026-05-03T08:50:12.041Z</time></trkpt><trkpt lat="42.0960574" lon="13.67561"><ele>1161.1999999999998</ele><time>2026-05-03T08:50:14.042Z</time></trkpt><trkpt lat="42.0961713" lon="13.6756575"><ele>1162.8</ele><time>2026-05-03T08:50:16.06Z</time></trkpt><trkpt lat="42.0962418" lon="13.6756537"><ele>1164.3999999999999</ele><time>2026-05-03T08:50:17.033Z</time></trkpt><trkpt lat="42.0963142" lon="13.6756275"><ele>1166.0</ele><time>2026-05-03T08:50:18.034Z</time></trkpt><trkpt lat="42.0963818" lon="13.6755848"><ele>1166.0</ele><time>2026-05-03T08:50:19.044Z</time></trkpt><trkpt lat="42.0964408" lon="13.6755293"><ele>1166.0</ele><time>2026-05-03T08:50:20.052Z</time></trkpt><trkpt lat="42.0964983" lon="13.6754665"><ele>1166.0</ele><time>2026-05-03T08:50:21.037Z</time></trkpt><trkpt lat="42.0965504" lon="13.6753904"><ele>1166.0</ele><time>2026-05-03T08:50:22.055Z</time></trkpt><trkpt lat="42.096606" lon="13.6753025"><ele>1166.0</ele><time>2026-05-03T08:50:23.033Z</time></trkpt><trkpt lat="42.0966696" lon="13.6751971"><ele>1166.0</ele><time>2026-05-03T08:50:24.051Z</time></trkpt><trkpt lat="42.0967408" lon="13.6750786"><ele>1165.0</ele><time>2026-05-03T08:50:25.052Z</time></trkpt><trkpt lat="42.096813" lon="13.6749539"><ele>1164.0</ele><time>2026-05-03T08:50:26.055Z</time></trkpt><trkpt lat="42.0968919" lon="13.6748439"><ele>1163.0</ele><time>2026-05-03T08:50:27.033Z</time></trkpt><trkpt lat="42.0969791" lon="13.6747269"><ele>1162.0</ele><time>2026-05-03T08:50:28.042Z</time></trkpt><trkpt lat="42.0970664" lon="13.6746064"><ele>1162.0</ele><time>2026-05-03T08:50:29.05Z</time></trkpt><trkpt lat="42.0971459" lon="13.674487"><ele>1162.0</ele><time>2026-05-03T08:50:30.038Z</time></trkpt><trkpt lat="42.0972178" lon="13.674371"><ele>1162.0</ele><time>2026-05-03T08:50:31.071Z</time></trkpt><trkpt lat="42.0972792" lon="13.674263"><ele>1162.0</ele><time>2026-05-03T08:50:32.051Z</time></trkpt><trkpt lat="42.0973347" lon="13.6741652"><ele>1162.0</ele><time>2026-05-03T08:50:33.061Z</time></trkpt><trkpt lat="42.0973836" lon="13.674077"><ele>1162.1666666666665</ele><time>2026-05-03T08:50:34.039Z</time></trkpt><trkpt lat="42.0974261" lon="13.6740069"><ele>1162.3333333333333</ele><time>2026-05-03T08:50:35.037Z</time></trkpt><trkpt lat="42.0974887" lon="13.6738949"><ele>1162.5</ele><time>2026-05-03T08:50:37.038Z</time></trkpt><trkpt lat="42.0975434" lon="13.6738058"><ele>1162.6666666666667</ele><time>2026-05-03T08:50:59.043Z</time></trkpt><trkpt lat="42.0976098" lon="13.6736874"><ele>1162.8333333333335</ele><time>2026-05-03T08:51:01.039Z</time></trkpt><trkpt lat="42.0976564" lon="13.6736129"><ele>1163.0</ele><time>2026-05-03T08:51:02.059Z</time></trkpt><trkpt lat="42.0977108" lon="13.6735298"><ele>1163.0</ele><time>2026-05-03T08:51:03.035Z</time></trkpt><trkpt lat="42.097773" lon="13.6734461"><ele>1163.0</ele><time>2026-05-03T08:51:04.037Z</time></trkpt><trkpt lat="42.0978402" lon="13.6733642"><ele>1163.0</ele><time>2026-05-03T08:51:05.037Z</time></trkpt><trkpt lat="42.0979094" lon="13.6732834"><ele>1163.0</ele><time>2026-05-03T08:51:06.04Z</time></trkpt><trkpt lat="42.0979819" lon="13.6732036"><ele>1163.0</ele><time>2026-05-03T08:51:07.053Z</time></trkpt><trkpt lat="42.0980459" lon="13.6731235"><ele>1163.0</ele><time>2026-05-03T08:51:08.033Z</time></trkpt><trkpt lat="42.0981098" lon="13.673051"><ele>1163.0</ele><time>2026-05-03T08:51:09.024Z</time></trkpt><trkpt lat="42.0981707" lon="13.6729854"><ele>1163.0</ele><time>2026-05-03T08:51:10.043Z</time></trkpt><trkpt lat="42.0982275" lon="13.6729247"><ele>1163.0</ele><time>2026-05-03T08:51:11.048Z</time></trkpt><trkpt lat="42.0982977" lon="13.672874"><ele>1163.0</ele><time>2026-05-03T08:51:12.053Z</time></trkpt><trkpt lat="42.0983852" lon="13.6728268"><ele>1163.0</ele><time>2026-05-03T08:51:13.038Z</time></trkpt><trkpt lat="42.0984718" lon="13.672791"><ele>1163.2</ele><time>2026-05-03T08:51:14.043Z</time></trkpt><trkpt lat="42.0985668" lon="13.672764"><ele>1163.4</ele><time>2026-05-03T08:51:15.042Z</time></trkpt><trkpt lat="42.0986692" lon="13.6727434"><ele>1163.6000000000001</ele><time>2026-05-03T08:51:16.041Z</time></trkpt><trkpt lat="42.0987746" lon="13.672728"><ele>1163.8</ele><time>2026-05-03T08:51:17.04Z</time></trkpt><trkpt lat="42.0988791" lon="13.6727102"><ele>1164.0</ele><time>2026-05-03T08:51:18.049Z</time></trkpt><trkpt lat="42.0989801" lon="13.672691"><ele>1164.0</ele><time>2026-05-03T08:51:19.038Z</time></trkpt><trkpt lat="42.0990795" lon="13.6726686"><ele>1164.0</ele><time>2026-05-03T08:51:20.053Z</time></trkpt><trkpt lat="42.0991763" lon="13.6726359"><ele>1164.0</ele><time>2026-05-03T08:51:21.038Z</time></trkpt><trkpt lat="42.0992689" lon="13.6725908"><ele>1164.0</ele><time>2026-05-03T08:51:22.036Z</time></trkpt><trkpt lat="42.0993503" lon="13.672547"><ele>1164.0</ele><time>2026-05-03T08:51:23.037Z</time></trkpt><trkpt lat="42.0994294" lon="13.6725051"><ele>1165.6666666666667</ele><time>2026-05-03T08:51:24.047Z</time></trkpt><trkpt lat="42.0995037" lon="13.6724713"><ele>1167.3333333333333</ele><time>2026-05-03T08:51:25.052Z</time></trkpt><trkpt lat="42.0995774" lon="13.6724456"><ele>1169.0</ele><time>2026-05-03T08:51:26.036Z</time></trkpt><trkpt lat="42.0996535" lon="13.6724411"><ele>1170.6666666666665</ele><time>2026-05-03T08:51:27.04Z</time></trkpt><trkpt lat="42.0997327" lon="13.6724581"><ele>1172.3333333333333</ele><time>2026-05-03T08:51:28.039Z</time></trkpt><trkpt lat="42.0998074" lon="13.6724897"><ele>1174.0</ele><time>2026-05-03T08:51:29.029Z</time></trkpt><trkpt lat="42.0998835" lon="13.6725417"><ele>1175.8333333333333</ele><time>2026-05-03T08:51:30.047Z</time></trkpt><trkpt lat="42.0999562" lon="13.6726012"><ele>1177.6666666666665</ele><time>2026-05-03T08:51:31.039Z</time></trkpt><trkpt lat="42.1000233" lon="13.6726728"><ele>1179.5</ele><time>2026-05-03T08:51:32.029Z</time></trkpt><trkpt lat="42.100081" lon="13.6727551"><ele>1181.3333333333333</ele><time>2026-05-03T08:51:33.036Z</time></trkpt><trkpt lat="42.1001382" lon="13.6728331"><ele>1183.1666666666667</ele><time>2026-05-03T08:51:34.036Z</time></trkpt><trkpt lat="42.100196" lon="13.6729041"><ele>1185.0</ele><time>2026-05-03T08:51:35.043Z</time></trkpt><trkpt lat="42.1002576" lon="13.6729651"><ele>1185.5</ele><time>2026-05-03T08:51:36.035Z</time></trkpt><trkpt lat="42.1003233" lon="13.6730137"><ele>1186.0</ele><time>2026-05-03T08:51:37.029Z</time></trkpt><trkpt lat="42.1003962" lon="13.6730483"><ele>1186.5</ele><time>2026-05-03T08:51:38.042Z</time></trkpt><trkpt lat="42.1004775" lon="13.6730737"><ele>1187.0</ele><time>2026-05-03T08:51:39.037Z</time></trkpt><trkpt lat="42.1005554" lon="13.6730961"><ele>1187.5</ele><time>2026-05-03T08:51:40.043Z</time></trkpt><trkpt lat="42.1006329" lon="13.6731255"><ele>1188.0</ele><time>2026-05-03T08:51:41.028Z</time></trkpt><trkpt lat="42.1007035" lon="13.6731678"><ele>1187.3333333333333</ele><time>2026-05-03T08:51:42.042Z</time></trkpt><trkpt lat="42.1007645" lon="13.6732101"><ele>1186.6666666666667</ele><time>2026-05-03T08:51:43.034Z</time></trkpt><trkpt lat="42.1008753" lon="13.6732254"><ele>1186.0</ele><time>2026-05-03T08:51:45.034Z</time></trkpt><trkpt lat="42.1009901" lon="13.673166"><ele>1185.3333333333335</ele><time>2026-05-03T08:51:47.041Z</time></trkpt><trkpt lat="42.1010437" lon="13.6731134"><ele>1184.6666666666667</ele><time>2026-05-03T08:51:48.039Z</time></trkpt><trkpt lat="42.101103" lon="13.6730702"><ele>1184.0</ele><time>2026-05-03T08:51:49.044Z</time></trkpt><trkpt lat="42.1011556" lon="13.6730185"><ele>1184.0</ele><time>2026-05-03T08:51:50.04Z</time></trkpt><trkpt lat="42.1012096" lon="13.6729604"><ele>1184.0</ele><time>2026-05-03T08:51:51.031Z</time></trkpt><trkpt lat="42.1012608" lon="13.6729015"><ele>1184.0</ele><time>2026-05-03T08:51:52.044Z</time></trkpt><trkpt lat="42.1013132" lon="13.6728541"><ele>1184.0</ele><time>2026-05-03T08:51:53.031Z</time></trkpt><trkpt lat="42.1013656" lon="13.672806"><ele>1184.0</ele><time>2026-05-03T08:51:54.033Z</time></trkpt><trkpt lat="42.101454" lon="13.6727019"><ele>1184.0</ele><time>2026-05-03T08:51:56.051Z</time></trkpt><trkpt lat="42.1014982" lon="13.6726371"><ele>1184.0</ele><time>2026-05-03T08:51:57.046Z</time></trkpt><trkpt lat="42.101536" lon="13.6725608"><ele>1183.142857142857</ele><time>2026-05-03T08:51:58.027Z</time></trkpt><trkpt lat="42.1015618" lon="13.6724672"><ele>1182.2857142857142</ele><time>2026-05-03T08:51:59.036Z</time></trkpt><trkpt lat="42.1015793" lon="13.6723678"><ele>1181.4285714285713</ele><time>2026-05-03T08:52:00.041Z</time></trkpt><trkpt lat="42.1015999" lon="13.672275"><ele>1180.5714285714284</ele><time>2026-05-03T08:52:01.021Z</time></trkpt><trkpt lat="42.1016313" lon="13.67219"><ele>1179.7142857142856</ele><time>2026-05-03T08:52:02.041Z</time></trkpt><trkpt lat="42.1016755" lon="13.6721088"><ele>1178.857142857143</ele><time>2026-05-03T08:52:03.035Z</time></trkpt><trkpt lat="42.1017178" lon="13.672028"><ele>1178.0</ele><time>2026-05-03T08:52:04.028Z</time></trkpt><trkpt lat="42.1017631" lon="13.671956"><ele>1180.1666666666667</ele><time>2026-05-03T08:52:05.047Z</time></trkpt><trkpt lat="42.1018079" lon="13.6718927"><ele>1182.3333333333335</ele><time>2026-05-03T08:52:06.031Z</time></trkpt><trkpt lat="42.1018592" lon="13.6718285"><ele>1184.5</ele><time>2026-05-03T08:52:07.042Z</time></trkpt><trkpt lat="42.1019097" lon="13.6717405"><ele>1186.6666666666667</ele><time>2026-05-03T08:52:08.032Z</time></trkpt><trkpt lat="42.1019568" lon="13.6716457"><ele>1188.8333333333333</ele><time>2026-05-03T08:52:09.033Z</time></trkpt><trkpt lat="42.1020001" lon="13.6715445"><ele>1191.0</ele><time>2026-05-03T08:52:10.036Z</time></trkpt><trkpt lat="42.1020379" lon="13.6714491"><ele>1191.0</ele><time>2026-05-03T08:52:11.041Z</time></trkpt><trkpt lat="42.1020602" lon="13.6713615"><ele>1191.0</ele><time>2026-05-03T08:52:12.042Z</time></trkpt><trkpt lat="42.1020949" lon="13.6712882"><ele>1191.0</ele><time>2026-05-03T08:52:13.051Z</time></trkpt><trkpt lat="42.1021411" lon="13.6712271"><ele>1191.0</ele><time>2026-05-03T08:52:14.049Z</time></trkpt><trkpt lat="42.1022485" lon="13.671161"><ele>1191.0</ele><time>2026-05-03T08:52:16.031Z</time></trkpt><trkpt lat="42.1023691" lon="13.6711432"><ele>1191.0</ele><time>2026-05-03T08:52:18.034Z</time></trkpt><trkpt lat="42.1024713" lon="13.6711919"><ele>1189.0</ele><time>2026-05-03T08:52:20.024Z</time></trkpt><trkpt lat="42.1025242" lon="13.6712955"><ele>1187.0</ele><time>2026-05-03T08:52:22.032Z</time></trkpt><trkpt lat="42.1025135" lon="13.6714392"><ele>1185.0</ele><time>2026-05-03T08:52:24.05Z</time></trkpt><trkpt lat="42.1024986" lon="13.6715262"><ele>1183.0</ele><time>2026-05-03T08:52:25.022Z</time></trkpt><trkpt lat="42.1024879" lon="13.6716281"><ele>1181.0</ele><time>2026-05-03T08:52:26.038Z</time></trkpt><trkpt lat="42.1024778" lon="13.6717389"><ele>1179.0</ele><time>2026-05-03T08:52:27.024Z</time></trkpt><trkpt lat="42.1024704" lon="13.6718487"><ele>1177.6000000000001</ele><time>2026-05-03T08:52:28.036Z</time></trkpt><trkpt lat="42.1024614" lon="13.6719558"><ele>1176.2</ele><time>2026-05-03T08:52:29.027Z</time></trkpt><trkpt lat="42.1024573" lon="13.672056"><ele>1174.8000000000002</ele><time>2026-05-03T08:52:30.031Z</time></trkpt><trkpt lat="42.1024536" lon="13.6722181"><ele>1173.4</ele><time>2026-05-03T08:52:32.064Z</time></trkpt><trkpt lat="42.1024396" lon="13.6723811"><ele>1172.0</ele><time>2026-05-03T08:52:34.036Z</time></trkpt><trkpt lat="42.1024207" lon="13.6725452"><ele>1172.0</ele><time>2026-05-03T08:52:36.04Z</time></trkpt><trkpt lat="42.1024292" lon="13.6727049"><ele>1172.0</ele><time>2026-05-03T08:52:38.05Z</time></trkpt><trkpt lat="42.1024697" lon="13.6728621"><ele>1172.0</ele><time>2026-05-03T08:52:40.038Z</time></trkpt><trkpt lat="42.1024981" lon="13.6729459"><ele>1172.0</ele><time>2026-05-03T08:52:41.051Z</time></trkpt><trkpt lat="42.1025272" lon="13.6730355"><ele>1172.0</ele><time>2026-05-03T08:52:42.038Z</time></trkpt><trkpt lat="42.1025513" lon="13.6731228"><ele>1170.8333333333335</ele><time>2026-05-03T08:52:43.037Z</time></trkpt><trkpt lat="42.1025774" lon="13.6732055"><ele>1169.6666666666667</ele><time>2026-05-03T08:52:44.033Z</time></trkpt><trkpt lat="42.1026025" lon="13.6732839"><ele>1168.5</ele><time>2026-05-03T08:52:45.046Z</time></trkpt><trkpt lat="42.1026407" lon="13.6734401"><ele>1167.3333333333333</ele><time>2026-05-03T08:52:47.031Z</time></trkpt><trkpt lat="42.1026552" lon="13.6735257"><ele>1166.1666666666665</ele><time>2026-05-03T08:52:48.066Z</time></trkpt><trkpt lat="42.1026621" lon="13.6736129"><ele>1165.0</ele><time>2026-05-03T08:52:49.032Z</time></trkpt><trkpt lat="42.1026651" lon="13.6737679"><ele>1163.75</ele><time>2026-05-03T08:52:51.031Z</time></trkpt><trkpt lat="42.1026778" lon="13.6739254"><ele>1162.5</ele><time>2026-05-03T08:52:53.038Z</time></trkpt><trkpt lat="42.1026917" lon="13.6740732"><ele>1161.25</ele><time>2026-05-03T08:52:55.039Z</time></trkpt><trkpt lat="42.1027115" lon="13.6742304"><ele>1160.0</ele><time>2026-05-03T08:52:57.037Z</time></trkpt><trkpt lat="42.1027379" lon="13.6743867"><ele>1158.5</ele><time>2026-05-03T08:52:59.045Z</time></trkpt><trkpt lat="42.1027418" lon="13.674547"><ele>1157.0</ele><time>2026-05-03T08:53:01.03Z</time></trkpt><trkpt lat="42.1027481" lon="13.6747055"><ele>1155.5</ele><time>2026-05-03T08:53:03.037Z</time></trkpt><trkpt lat="42.1027871" lon="13.6748448"><ele>1154.0</ele><time>2026-05-03T08:53:05.038Z</time></trkpt><trkpt lat="42.1028441" lon="13.6749638"><ele>1154.0</ele><time>2026-05-03T08:53:07.029Z</time></trkpt><trkpt lat="42.102894" lon="13.6750845"><ele>1154.0</ele><time>2026-05-03T08:53:09.038Z</time></trkpt><trkpt lat="42.102958" lon="13.6751959"><ele>1154.0</ele><time>2026-05-03T08:53:11.042Z</time></trkpt><trkpt lat="42.1030496" lon="13.6752864"><ele>1154.0</ele><time>2026-05-03T08:53:13.044Z</time></trkpt><trkpt lat="42.103105" lon="13.6753387"><ele>1154.0</ele><time>2026-05-03T08:53:14.037Z</time></trkpt><trkpt lat="42.103159" lon="13.6753942"><ele>1153.0</ele><time>2026-05-03T08:53:15.039Z</time></trkpt><trkpt lat="42.1032088" lon="13.6754525"><ele>1152.0</ele><time>2026-05-03T08:53:16.054Z</time></trkpt><trkpt lat="42.1032563" lon="13.6755279"><ele>1151.0</ele><time>2026-05-03T08:53:17.028Z</time></trkpt><trkpt lat="42.1033022" lon="13.6756017"><ele>1150.0</ele><time>2026-05-03T08:53:18.046Z</time></trkpt><trkpt lat="42.103345" lon="13.6756745"><ele>1149.0</ele><time>2026-05-03T08:53:19.035Z</time></trkpt><trkpt lat="42.1034227" lon="13.675811"><ele>1148.0</ele><time>2026-05-03T08:53:21.031Z</time></trkpt><trkpt lat="42.103458" lon="13.675886"><ele>1147.6</ele><time>2026-05-03T08:53:22.055Z</time></trkpt><trkpt lat="42.103523" lon="13.6760115"><ele>1147.1999999999998</ele><time>2026-05-03T08:53:24.046Z</time></trkpt><trkpt lat="42.1035868" lon="13.6761235"><ele>1146.8</ele><time>2026-05-03T08:53:26.04Z</time></trkpt><trkpt lat="42.1036443" lon="13.6762437"><ele>1146.3999999999999</ele><time>2026-05-03T08:53:28.052Z</time></trkpt><trkpt lat="42.1037138" lon="13.6763523"><ele>1146.0</ele><time>2026-05-03T08:53:30.056Z</time></trkpt><trkpt lat="42.103772" lon="13.6764637"><ele>1146.0</ele><time>2026-05-03T08:53:32.033Z</time></trkpt><trkpt lat="42.1038249" lon="13.6765963"><ele>1146.0</ele><time>2026-05-03T08:53:34.036Z</time></trkpt><trkpt lat="42.1038972" lon="13.6767159"><ele>1146.0</ele><time>2026-05-03T08:53:36.041Z</time></trkpt><trkpt lat="42.1039999" lon="13.6767882"><ele>1146.0</ele><time>2026-05-03T08:53:38.034Z</time></trkpt><trkpt lat="42.1041132" lon="13.6768441"><ele>1143.75</ele><time>2026-05-03T08:53:40.049Z</time></trkpt><trkpt lat="42.1042248" lon="13.6768967"><ele>1141.5</ele><time>2026-05-03T08:53:42.045Z</time></trkpt><trkpt lat="42.1043441" lon="13.676958"><ele>1139.25</ele><time>2026-05-03T08:53:44.043Z</time></trkpt><trkpt lat="42.1044532" lon="13.6770324"><ele>1137.0</ele><time>2026-05-03T08:53:46.043Z</time></trkpt><trkpt lat="42.1045522" lon="13.6771204"><ele>1136.2</ele><time>2026-05-03T08:53:48.048Z</time></trkpt><trkpt lat="42.1046472" lon="13.6772095"><ele>1135.4</ele><time>2026-05-03T08:53:50.056Z</time></trkpt><trkpt lat="42.1047357" lon="13.6772415"><ele>1134.6</ele><time>2026-05-03T08:53:52.027Z</time></trkpt><trkpt lat="42.1048272" lon="13.6772057"><ele>1133.8</ele><time>2026-05-03T08:53:54.044Z</time></trkpt><trkpt lat="42.1048676" lon="13.6770915"><ele>1133.0</ele><time>2026-05-03T08:53:56.046Z</time></trkpt><trkpt lat="42.1048666" lon="13.6769581"><ele>1133.8</ele><time>2026-05-03T08:53:58.05Z</time></trkpt><trkpt lat="42.1048667" lon="13.6768636"><ele>1134.6</ele><time>2026-05-03T08:53:59.049Z</time></trkpt><trkpt lat="42.1048462" lon="13.6767065"><ele>1135.4</ele><time>2026-05-03T08:54:01.046Z</time></trkpt><trkpt lat="42.1048308" lon="13.6765767"><ele>1136.2</ele><time>2026-05-03T08:54:03.066Z</time></trkpt><trkpt lat="42.1048502" lon="13.6764242"><ele>1137.0</ele><time>2026-05-03T08:54:05.049Z</time></trkpt><trkpt lat="42.1048711" lon="13.6763326"><ele>1137.0</ele><time>2026-05-03T08:54:06.045Z</time></trkpt><trkpt lat="42.1048897" lon="13.676245"><ele>1137.0</ele><time>2026-05-03T08:54:07.042Z</time></trkpt><trkpt lat="42.1049261" lon="13.6760965"><ele>1137.0</ele><time>2026-05-03T08:54:09.058Z</time></trkpt><trkpt lat="42.1049623" lon="13.6759337"><ele>1137.0</ele><time>2026-05-03T08:54:11.029Z</time></trkpt><trkpt lat="42.1049727" lon="13.6758342"><ele>1137.0</ele><time>2026-05-03T08:54:12.046Z</time></trkpt><trkpt lat="42.1049779" lon="13.6757267"><ele>1136.4285714285713</ele><time>2026-05-03T08:54:13.041Z</time></trkpt><trkpt lat="42.1049812" lon="13.6756245"><ele>1135.857142857143</ele><time>2026-05-03T08:54:14.048Z</time></trkpt><trkpt lat="42.1049797" lon="13.675522"><ele>1135.2857142857142</ele><time>2026-05-03T08:54:15.038Z</time></trkpt><trkpt lat="42.1049809" lon="13.6754209"><ele>1134.7142857142858</ele><time>2026-05-03T08:54:16.044Z</time></trkpt><trkpt lat="42.1049857" lon="13.675316"><ele>1134.142857142857</ele><time>2026-05-03T08:54:17.036Z</time></trkpt><trkpt lat="42.1049965" lon="13.6752213"><ele>1133.5714285714284</ele><time>2026-05-03T08:54:18.07Z</time></trkpt><trkpt lat="42.1050039" lon="13.67513"><ele>1133.0</ele><time>2026-05-03T08:54:19.034Z</time></trkpt><trkpt lat="42.1050087" lon="13.6750391"><ele>1133.0</ele><time>2026-05-03T08:54:20.041Z</time></trkpt><trkpt lat="42.1050217" lon="13.6749546"><ele>1133.0</ele><time>2026-05-03T08:54:21.034Z</time></trkpt><trkpt lat="42.1050958" lon="13.6748118"><ele>1133.0</ele><time>2026-05-03T08:54:23.034Z</time></trkpt><trkpt lat="42.1051347" lon="13.6747418"><ele>1133.0</ele><time>2026-05-03T08:54:24.041Z</time></trkpt><trkpt lat="42.1052088" lon="13.6746485"><ele>1133.0</ele><time>2026-05-03T08:54:26.028Z</time></trkpt><trkpt lat="42.1053071" lon="13.6746168"><ele>1133.0</ele><time>2026-05-03T08:54:28.032Z</time></trkpt><trkpt lat="42.1054022" lon="13.6746637"><ele>1133.0</ele><time>2026-05-03T08:54:30.049Z</time></trkpt><trkpt lat="42.1054716" lon="13.6747761"><ele>1133.0</ele><time>2026-05-03T08:54:32.034Z</time></trkpt><trkpt lat="42.1055187" lon="13.6749228"><ele>1133.0</ele><time>2026-05-03T08:54:34.042Z</time></trkpt><trkpt lat="42.1055376" lon="13.6750795"><ele>1133.0</ele><time>2026-05-03T08:54:36.032Z</time></trkpt><trkpt lat="42.1055454" lon="13.6751643"><ele>1132.6</ele><time>2026-05-03T08:54:37.042Z</time></trkpt><trkpt lat="42.1055477" lon="13.6753242"><ele>1132.1999999999998</ele><time>2026-05-03T08:54:39.025Z</time></trkpt><trkpt lat="42.1055476" lon="13.675493"><ele>1131.8</ele><time>2026-05-03T08:54:41.033Z</time></trkpt><trkpt lat="42.1055594" lon="13.6755804"><ele>1131.3999999999999</ele><time>2026-05-03T08:54:42.047Z</time></trkpt><trkpt lat="42.1055884" lon="13.6757351"><ele>1131.0</ele><time>2026-05-03T08:54:44.032Z</time></trkpt><trkpt lat="42.1056039" lon="13.675897"><ele>1131.0</ele><time>2026-05-03T08:54:46.043Z</time></trkpt><trkpt lat="42.1056044" lon="13.6759871"><ele>1131.0</ele><time>2026-05-03T08:54:47.054Z</time></trkpt><trkpt lat="42.1056022" lon="13.6760728"><ele>1131.0</ele><time>2026-05-03T08:54:48.029Z</time></trkpt><trkpt lat="42.1056011" lon="13.67623"><ele>1131.0</ele><time>2026-05-03T08:54:50.036Z</time></trkpt><trkpt lat="42.1056167" lon="13.6764024"><ele>1131.0</ele><time>2026-05-03T08:54:52.045Z</time></trkpt><trkpt lat="42.1056368" lon="13.6764949"><ele>1131.0</ele><time>2026-05-03T08:54:53.027Z</time></trkpt><trkpt lat="42.105661" lon="13.6765856"><ele>1129.8333333333333</ele><time>2026-05-03T08:54:54.034Z</time></trkpt><trkpt lat="42.105685" lon="13.6766745"><ele>1128.6666666666667</ele><time>2026-05-03T08:54:55.038Z</time></trkpt><trkpt lat="42.1057168" lon="13.6767586"><ele>1127.5</ele><time>2026-05-03T08:54:56.021Z</time></trkpt><trkpt lat="42.1057522" lon="13.6768371"><ele>1126.3333333333335</ele><time>2026-05-03T08:54:57.04Z</time></trkpt><trkpt lat="42.1057949" lon="13.6769065"><ele>1125.1666666666667</ele><time>2026-05-03T08:54:58.064Z</time></trkpt><trkpt lat="42.10587" lon="13.6770142"><ele>1124.0</ele><time>2026-05-03T08:55:00.051Z</time></trkpt><trkpt lat="42.1059216" lon="13.6771456"><ele>1120.8</ele><time>2026-05-03T08:55:02.04Z</time></trkpt><trkpt lat="42.1059402" lon="13.6772298"><ele>1117.6000000000001</ele><time>2026-05-03T08:55:03.035Z</time></trkpt><trkpt lat="42.1059485" lon="13.6773157"><ele>1114.4</ele><time>2026-05-03T08:55:04.036Z</time></trkpt><trkpt lat="42.105951" lon="13.6774752"><ele>1111.2</ele><time>2026-05-03T08:55:06.051Z</time></trkpt><trkpt lat="42.1059659" lon="13.6776301"><ele>1108.0</ele><time>2026-05-03T08:55:08.048Z</time></trkpt><trkpt lat="42.1059933" lon="13.6777834"><ele>1106.6</ele><time>2026-05-03T08:55:10.037Z</time></trkpt><trkpt lat="42.106025" lon="13.6779162"><ele>1105.1999999999998</ele><time>2026-05-03T08:55:12.035Z</time></trkpt><trkpt lat="42.1060827" lon="13.6780421"><ele>1103.8</ele><time>2026-05-03T08:55:14.039Z</time></trkpt><trkpt lat="42.1060908" lon="13.6781903"><ele>1102.3999999999999</ele><time>2026-05-03T08:55:16.035Z</time></trkpt><trkpt lat="42.106077" lon="13.6782747"><ele>1101.0</ele><time>2026-05-03T08:55:17.034Z</time></trkpt><trkpt lat="42.1060637" lon="13.6783657"><ele>1101.0</ele><time>2026-05-03T08:55:18.044Z</time></trkpt><trkpt lat="42.1060421" lon="13.6784571"><ele>1101.0</ele><time>2026-05-03T08:55:19.041Z</time></trkpt><trkpt lat="42.1060195" lon="13.678548"><ele>1101.0</ele><time>2026-05-03T08:55:20.056Z</time></trkpt><trkpt lat="42.1059955" lon="13.6786418"><ele>1101.0</ele><time>2026-05-03T08:55:21.029Z</time></trkpt><trkpt lat="42.1059784" lon="13.6787308"><ele>1101.0</ele><time>2026-05-03T08:55:22.039Z</time></trkpt><trkpt lat="42.1059611" lon="13.678818"><ele>1101.0</ele><time>2026-05-03T08:55:23.035Z</time></trkpt><trkpt lat="42.1059362" lon="13.678902"><ele>1101.0</ele><time>2026-05-03T08:55:24.036Z</time></trkpt><trkpt lat="42.1059087" lon="13.678999"><ele>1101.1666666666667</ele><time>2026-05-03T08:55:25.037Z</time></trkpt><trkpt lat="42.1058804" lon="13.6790805"><ele>1101.3333333333333</ele><time>2026-05-03T08:55:26.027Z</time></trkpt><trkpt lat="42.1058461" lon="13.6791535"><ele>1101.5</ele><time>2026-05-03T08:55:27.038Z</time></trkpt><trkpt lat="42.1058072" lon="13.679222"><ele>1101.6666666666665</ele><time>2026-05-03T08:55:28.04Z</time></trkpt><trkpt lat="42.1057203" lon="13.6793418"><ele>1101.8333333333333</ele><time>2026-05-03T08:55:30.031Z</time></trkpt><trkpt lat="42.1056416" lon="13.6794645"><ele>1102.0</ele><time>2026-05-03T08:55:32.041Z</time></trkpt><trkpt lat="42.1055817" lon="13.6795909"><ele>1102.0</ele><time>2026-05-03T08:55:34.031Z</time></trkpt><trkpt lat="42.1055726" lon="13.6797462"><ele>1102.0</ele><time>2026-05-03T08:55:36.034Z</time></trkpt><trkpt lat="42.1055844" lon="13.6798297"><ele>1102.0</ele><time>2026-05-03T08:55:37.024Z</time></trkpt><trkpt lat="42.1056053" lon="13.6799124"><ele>1102.0</ele><time>2026-05-03T08:55:38.039Z</time></trkpt><trkpt lat="42.1056276" lon="13.6800046"><ele>1102.0</ele><time>2026-05-03T08:55:39.034Z</time></trkpt><trkpt lat="42.105641" lon="13.6800943"><ele>1102.0</ele><time>2026-05-03T08:55:40.031Z</time></trkpt><trkpt lat="42.1056436" lon="13.6801879"><ele>1100.142857142857</ele><time>2026-05-03T08:55:41.027Z</time></trkpt><trkpt lat="42.1056366" lon="13.6802826"><ele>1098.2857142857142</ele><time>2026-05-03T08:55:42.028Z</time></trkpt><trkpt lat="42.1056201" lon="13.6803754"><ele>1096.4285714285716</ele><time>2026-05-03T08:55:43.032Z</time></trkpt><trkpt lat="42.1056001" lon="13.6804663"><ele>1094.5714285714284</ele><time>2026-05-03T08:55:44.045Z</time></trkpt><trkpt lat="42.1055816" lon="13.6805646"><ele>1092.7142857142858</ele><time>2026-05-03T08:55:45.031Z</time></trkpt><trkpt lat="42.105569" lon="13.6806634"><ele>1090.857142857143</ele><time>2026-05-03T08:55:46.029Z</time></trkpt><trkpt lat="42.1055646" lon="13.6807668"><ele>1089.0</ele><time>2026-05-03T08:55:47.028Z</time></trkpt><trkpt lat="42.1055639" lon="13.6808741"><ele>1089.0000000000002</ele><time>2026-05-03T08:55:48.031Z</time></trkpt><trkpt lat="42.1055691" lon="13.6809812"><ele>1089.0</ele><time>2026-05-03T08:55:49.025Z</time></trkpt><trkpt lat="42.1055734" lon="13.6810868"><ele>1089.0</ele><time>2026-05-03T08:55:50.029Z</time></trkpt><trkpt lat="42.1055788" lon="13.6811803"><ele>1089.0</ele><time>2026-05-03T08:55:51.045Z</time></trkpt><trkpt lat="42.105584" lon="13.6812724"><ele>1089.0</ele><time>2026-05-03T08:55:52.031Z</time></trkpt><trkpt lat="42.1055941" lon="13.6813648"><ele>1089.0000000000002</ele><time>2026-05-03T08:55:53.028Z</time></trkpt><trkpt lat="42.1056044" lon="13.6814588"><ele>1089.0</ele><time>2026-05-03T08:55:54.038Z</time></trkpt><trkpt lat="42.1056081" lon="13.6815464"><ele>1086.5714285714287</ele><time>2026-05-03T08:55:55.04Z</time></trkpt><trkpt lat="42.105613" lon="13.6816397"><ele>1084.142857142857</ele><time>2026-05-03T08:55:56.037Z</time></trkpt><trkpt lat="42.1056136" lon="13.6817328"><ele>1081.7142857142858</ele><time>2026-05-03T08:55:57.021Z</time></trkpt><trkpt lat="42.1056037" lon="13.6818208"><ele>1079.2857142857142</ele><time>2026-05-03T08:55:58.057Z</time></trkpt><trkpt lat="42.1055824" lon="13.6819539"><ele>1076.857142857143</ele><time>2026-05-03T08:56:00.05Z</time></trkpt><trkpt lat="42.1055626" lon="13.6820364"><ele>1074.4285714285716</ele><time>2026-05-03T08:56:02.044Z</time></trkpt><trkpt lat="42.1055427" lon="13.682134"><ele>1072.0</ele><time>2026-05-03T08:56:05.038Z</time></trkpt><trkpt lat="42.1055374" lon="13.6822809"><ele>1069.6</ele><time>2026-05-03T08:57:37.038Z</time></trkpt><trkpt lat="42.1055332" lon="13.6823789"><ele>1067.2</ele><time>2026-05-03T08:57:38.03Z</time></trkpt><trkpt lat="42.1055201" lon="13.682497"><ele>1064.8</ele><time>2026-05-03T08:57:39.045Z</time></trkpt><trkpt lat="42.1055099" lon="13.6826273"><ele>1062.4</ele><time>2026-05-03T08:57:40.045Z</time></trkpt><trkpt lat="42.1055016" lon="13.6827676"><ele>1060.0</ele><time>2026-05-03T08:57:41.033Z</time></trkpt><trkpt lat="42.1054868" lon="13.6829074"><ele>1059.8</ele><time>2026-05-03T08:57:42.029Z</time></trkpt><trkpt lat="42.1054638" lon="13.6830502"><ele>1059.6</ele><time>2026-05-03T08:57:43.021Z</time></trkpt><trkpt lat="42.1054409" lon="13.6831959"><ele>1059.4</ele><time>2026-05-03T08:57:44.029Z</time></trkpt><trkpt lat="42.1054245" lon="13.6833328"><ele>1059.2</ele><time>2026-05-03T08:57:45.031Z</time></trkpt><trkpt lat="42.1054144" lon="13.6834579"><ele>1059.0</ele><time>2026-05-03T08:57:46.043Z</time></trkpt><trkpt lat="42.1054094" lon="13.6835739"><ele>1057.8333333333333</ele><time>2026-05-03T08:57:47.026Z</time></trkpt><trkpt lat="42.1054041" lon="13.6836816"><ele>1056.6666666666667</ele><time>2026-05-03T08:57:48.023Z</time></trkpt><trkpt lat="42.1053993" lon="13.6837742"><ele>1055.5</ele><time>2026-05-03T08:57:49.031Z</time></trkpt><trkpt lat="42.1054046" lon="13.6838648"><ele>1054.3333333333335</ele><time>2026-05-03T08:57:50.042Z</time></trkpt><trkpt lat="42.1054441" lon="13.6840238"><ele>1053.1666666666667</ele><time>2026-05-03T08:57:52.029Z</time></trkpt><trkpt lat="42.1054854" lon="13.684096"><ele>1052.0</ele><time>2026-05-03T08:57:53.046Z</time></trkpt><trkpt lat="42.1055353" lon="13.6841533"><ele>1052.0</ele><time>2026-05-03T08:57:54.04Z</time></trkpt><trkpt lat="42.105597" lon="13.6841975"><ele>1052.0</ele><time>2026-05-03T08:57:55.045Z</time></trkpt><trkpt lat="42.1056704" lon="13.6842421"><ele>1052.0</ele><time>2026-05-03T08:57:56.034Z</time></trkpt><trkpt lat="42.1057494" lon="13.6842753"><ele>1052.0</ele><time>2026-05-03T08:57:57.034Z</time></trkpt><trkpt lat="42.1058252" lon="13.6843109"><ele>1052.0</ele><time>2026-05-03T08:57:58.035Z</time></trkpt><trkpt lat="42.1059" lon="13.6843451"><ele>1052.0</ele><time>2026-05-03T08:57:59.04Z</time></trkpt><trkpt lat="42.1059704" lon="13.6843805"><ele>1054.5</ele><time>2026-05-03T08:58:00.026Z</time></trkpt><trkpt lat="42.106028" lon="13.684427"><ele>1057.0</ele><time>2026-05-03T08:58:01.022Z</time></trkpt><trkpt lat="42.1060812" lon="13.6844827"><ele>1059.5</ele><time>2026-05-03T08:58:02.045Z</time></trkpt><trkpt lat="42.1061354" lon="13.6846006"><ele>1062.0</ele><time>2026-05-03T08:58:04.026Z</time></trkpt><trkpt lat="42.106147" lon="13.6847674"><ele>1064.5</ele><time>2026-05-03T08:58:06.046Z</time></trkpt><trkpt lat="42.1061222" lon="13.6848668"><ele>1067.0</ele><time>2026-05-03T08:58:07.054Z</time></trkpt><trkpt lat="42.1060826" lon="13.6849588"><ele>1067.0</ele><time>2026-05-03T08:58:08.037Z</time></trkpt><trkpt lat="42.1060318" lon="13.6850396"><ele>1067.0</ele><time>2026-05-03T08:58:09.03Z</time></trkpt><trkpt lat="42.1059775" lon="13.685121"><ele>1067.0</ele><time>2026-05-03T08:58:10.057Z</time></trkpt><trkpt lat="42.1059253" lon="13.6851844"><ele>1067.0</ele><time>2026-05-03T08:58:11.046Z</time></trkpt><trkpt lat="42.1058891" lon="13.6852569"><ele>1067.0</ele><time>2026-05-03T08:58:12.04Z</time></trkpt><trkpt lat="42.1058584" lon="13.6854132"><ele>1067.0</ele><time>2026-05-03T08:58:14.037Z</time></trkpt><trkpt lat="42.1058932" lon="13.6855658"><ele>1066.0</ele><time>2026-05-03T08:58:16.046Z</time></trkpt><trkpt lat="42.1059758" lon="13.6856948"><ele>1065.0</ele><time>2026-05-03T08:58:18.039Z</time></trkpt><trkpt lat="42.1060314" lon="13.6857472"><ele>1064.0</ele><time>2026-05-03T08:58:19.037Z</time></trkpt><trkpt lat="42.1060941" lon="13.6858032"><ele>1063.0</ele><time>2026-05-03T08:58:20.036Z</time></trkpt><trkpt lat="42.1061631" lon="13.6858576"><ele>1062.0</ele><time>2026-05-03T08:58:21.045Z</time></trkpt><trkpt lat="42.1062361" lon="13.6859205"><ele>1061.0</ele><time>2026-05-03T08:58:22.048Z</time></trkpt><trkpt lat="42.1063063" lon="13.6859925"><ele>1061.0</ele><time>2026-05-03T08:58:23.048Z</time></trkpt><trkpt lat="42.1063692" lon="13.6860753"><ele>1061.0</ele><time>2026-05-03T08:58:24.047Z</time></trkpt><trkpt lat="42.1064285" lon="13.6861548"><ele>1061.0</ele><time>2026-05-03T08:58:25.049Z</time></trkpt><trkpt lat="42.1064829" lon="13.6862292"><ele>1061.0</ele><time>2026-05-03T08:58:26.037Z</time></trkpt><trkpt lat="42.106539" lon="13.6862979"><ele>1061.0</ele><time>2026-05-03T08:58:27.035Z</time></trkpt><trkpt lat="42.1065999" lon="13.6863616"><ele>1061.0</ele><time>2026-05-03T08:58:28.043Z</time></trkpt><trkpt lat="42.1066627" lon="13.686427"><ele>1061.5</ele><time>2026-05-03T08:58:29.033Z</time></trkpt><trkpt lat="42.106728" lon="13.6864914"><ele>1062.0</ele><time>2026-05-03T08:58:30.034Z</time></trkpt><trkpt lat="42.1067907" lon="13.6865609"><ele>1062.5</ele><time>2026-05-03T08:58:31.046Z</time></trkpt><trkpt lat="42.1068607" lon="13.6866235"><ele>1063.0</ele><time>2026-05-03T08:58:32.038Z</time></trkpt><trkpt lat="42.1069331" lon="13.6866799"><ele>1063.5</ele><time>2026-05-03T08:58:33.028Z</time></trkpt><trkpt lat="42.107011" lon="13.6867289"><ele>1064.0</ele><time>2026-05-03T08:58:34.037Z</time></trkpt><trkpt lat="42.1070942" lon="13.686768"><ele>1064.0</ele><time>2026-05-03T08:58:35.041Z</time></trkpt><trkpt lat="42.1071797" lon="13.6867964"><ele>1064.0</ele><time>2026-05-03T08:58:36.032Z</time></trkpt><trkpt lat="42.1072672" lon="13.6868183"><ele>1064.0</ele><time>2026-05-03T08:58:37.037Z</time></trkpt><trkpt lat="42.1073527" lon="13.6868364"><ele>1064.0</ele><time>2026-05-03T08:58:38.052Z</time></trkpt><trkpt lat="42.1074312" lon="13.6868533"><ele>1064.0</ele><time>2026-05-03T08:58:39.047Z</time></trkpt><trkpt lat="42.1075013" lon="13.6868694"><ele>1064.0</ele><time>2026-05-03T08:58:40.046Z</time></trkpt><trkpt lat="42.1075761" lon="13.6868875"><ele>1065.3333333333335</ele><time>2026-05-03T08:58:41.032Z</time></trkpt><trkpt lat="42.1076446" lon="13.6869023"><ele>1066.6666666666667</ele><time>2026-05-03T08:58:42.04Z</time></trkpt><trkpt lat="42.1077119" lon="13.6869097"><ele>1068.0</ele><time>2026-05-03T08:58:43.025Z</time></trkpt><trkpt lat="42.1078357" lon="13.6869204"><ele>1069.3333333333333</ele><time>2026-05-03T08:58:45.036Z</time></trkpt><trkpt lat="42.1079057" lon="13.6869113"><ele>1070.6666666666665</ele><time>2026-05-03T08:58:46.033Z</time></trkpt><trkpt lat="42.1079835" lon="13.686892"><ele>1072.0</ele><time>2026-05-03T08:58:47.046Z</time></trkpt><trkpt lat="42.1080621" lon="13.6868628"><ele>1072.0</ele><time>2026-05-03T08:58:48.043Z</time></trkpt><trkpt lat="42.1081403" lon="13.6868269"><ele>1072.0</ele><time>2026-05-03T08:58:49.037Z</time></trkpt><trkpt lat="42.1082179" lon="13.6867892"><ele>1072.0</ele><time>2026-05-03T08:58:50.063Z</time></trkpt><trkpt lat="42.1082979" lon="13.6867484"><ele>1072.0</ele><time>2026-05-03T08:58:51.032Z</time></trkpt><trkpt lat="42.1083767" lon="13.6867102"><ele>1072.0</ele><time>2026-05-03T08:58:52.042Z</time></trkpt><trkpt lat="42.10845" lon="13.6866759"><ele>1072.0</ele><time>2026-05-03T08:58:53.033Z</time></trkpt><trkpt lat="42.108522" lon="13.6866405"><ele>1071.7142857142858</ele><time>2026-05-03T08:58:54.041Z</time></trkpt><trkpt lat="42.108591" lon="13.6866087"><ele>1071.4285714285713</ele><time>2026-05-03T08:58:55.035Z</time></trkpt><trkpt lat="42.1086641" lon="13.6865814"><ele>1071.142857142857</ele><time>2026-05-03T08:58:56.044Z</time></trkpt><trkpt lat="42.1087354" lon="13.6865582"><ele>1070.857142857143</ele><time>2026-05-03T08:58:57.039Z</time></trkpt><trkpt lat="42.1088091" lon="13.6865362"><ele>1070.5714285714287</ele><time>2026-05-03T08:58:58.03Z</time></trkpt><trkpt lat="42.1088817" lon="13.6865172"><ele>1070.2857142857142</ele><time>2026-05-03T08:58:59.037Z</time></trkpt><trkpt lat="42.1089573" lon="13.6865013"><ele>1070.0</ele><time>2026-05-03T08:59:00.033Z</time></trkpt><trkpt lat="42.1090383" lon="13.6864884"><ele>1067.6666666666667</ele><time>2026-05-03T08:59:01.028Z</time></trkpt><trkpt lat="42.1091209" lon="13.6864796"><ele>1065.3333333333335</ele><time>2026-05-03T08:59:02.037Z</time></trkpt><trkpt lat="42.1092007" lon="13.6864707"><ele>1063.0</ele><time>2026-05-03T08:59:03.042Z</time></trkpt><trkpt lat="42.1092861" lon="13.6864683"><ele>1060.6666666666667</ele><time>2026-05-03T08:59:04.029Z</time></trkpt><trkpt lat="42.1093712" lon="13.6864628"><ele>1058.3333333333333</ele><time>2026-05-03T08:59:05.035Z</time></trkpt><trkpt lat="42.1094577" lon="13.6864564"><ele>1056.0</ele><time>2026-05-03T08:59:06.043Z</time></trkpt><trkpt lat="42.1095462" lon="13.6864433"><ele>1056.0</ele><time>2026-05-03T08:59:07.041Z</time></trkpt><trkpt lat="42.109634" lon="13.6864246"><ele>1056.0</ele><time>2026-05-03T08:59:08.037Z</time></trkpt><trkpt lat="42.1097192" lon="13.686399"><ele>1056.0</ele><time>2026-05-03T08:59:09.041Z</time></trkpt><trkpt lat="42.1098028" lon="13.6863646"><ele>1056.0</ele><time>2026-05-03T08:59:10.043Z</time></trkpt><trkpt lat="42.1098851" lon="13.6863292"><ele>1056.0</ele><time>2026-05-03T08:59:11.035Z</time></trkpt><trkpt lat="42.1099579" lon="13.68629"><ele>1056.0</ele><time>2026-05-03T08:59:12.029Z</time></trkpt><trkpt lat="42.1100247" lon="13.6862515"><ele>1056.3333333333333</ele><time>2026-05-03T08:59:13.036Z</time></trkpt><trkpt lat="42.1100918" lon="13.6862201"><ele>1056.6666666666667</ele><time>2026-05-03T08:59:14.035Z</time></trkpt><trkpt lat="42.1101554" lon="13.6861878"><ele>1057.0</ele><time>2026-05-03T08:59:15.035Z</time></trkpt><trkpt lat="42.1102165" lon="13.6861607"><ele>1057.3333333333335</ele><time>2026-05-03T08:59:16.035Z</time></trkpt><trkpt lat="42.1103266" lon="13.6861503"><ele>1057.6666666666667</ele><time>2026-05-03T08:59:18.03Z</time></trkpt><trkpt lat="42.1104179" lon="13.6862324"><ele>1058.0</ele><time>2026-05-03T08:59:20.033Z</time></trkpt><trkpt lat="42.1104249" lon="13.6863939"><ele>1058.0</ele><time>2026-05-03T08:59:22.022Z</time></trkpt><trkpt lat="42.1103634" lon="13.6865434"><ele>1058.0</ele><time>2026-05-03T08:59:24.032Z</time></trkpt><trkpt lat="42.1103334" lon="13.6866224"><ele>1058.0</ele><time>2026-05-03T08:59:25.039Z</time></trkpt><trkpt lat="42.1103009" lon="13.6867054"><ele>1058.0</ele><time>2026-05-03T08:59:26.038Z</time></trkpt><trkpt lat="42.1102666" lon="13.6867982"><ele>1058.0</ele><time>2026-05-03T08:59:27.034Z</time></trkpt><trkpt lat="42.1102279" lon="13.6868922"><ele>1058.0</ele><time>2026-05-03T08:59:28.041Z</time></trkpt><trkpt lat="42.1101873" lon="13.6869941"><ele>1057.3333333333335</ele><time>2026-05-03T08:59:29.046Z</time></trkpt><trkpt lat="42.1101422" lon="13.6870961"><ele>1056.6666666666667</ele><time>2026-05-03T08:59:30.029Z</time></trkpt><trkpt lat="42.1100965" lon="13.6871967"><ele>1056.0</ele><time>2026-05-03T08:59:31.034Z</time></trkpt><trkpt lat="42.1100501" lon="13.6873015"><ele>1055.3333333333333</ele><time>2026-05-03T08:59:32.034Z</time></trkpt><trkpt lat="42.1100048" lon="13.6874056"><ele>1054.6666666666665</ele><time>2026-05-03T08:59:33.027Z</time></trkpt><trkpt lat="42.1099536" lon="13.6874991"><ele>1054.0</ele><time>2026-05-03T08:59:34.041Z</time></trkpt><trkpt lat="42.1098987" lon="13.6875791"><ele>1050.5714285714287</ele><time>2026-05-03T08:59:35.035Z</time></trkpt><trkpt lat="42.1098464" lon="13.6876511"><ele>1047.142857142857</ele><time>2026-05-03T08:59:36.033Z</time></trkpt><trkpt lat="42.1097968" lon="13.6877286"><ele>1043.7142857142858</ele><time>2026-05-03T08:59:37.028Z</time></trkpt><trkpt lat="42.1097553" lon="13.6878065"><ele>1040.2857142857142</ele><time>2026-05-03T08:59:38.027Z</time></trkpt><trkpt lat="42.1097097" lon="13.6878858"><ele>1036.857142857143</ele><time>2026-05-03T08:59:39.022Z</time></trkpt><trkpt lat="42.1096664" lon="13.6879654"><ele>1033.4285714285716</ele><time>2026-05-03T08:59:40.041Z</time></trkpt><trkpt lat="42.1096333" lon="13.6880535"><ele>1030.0</ele><time>2026-05-03T08:59:41.023Z</time></trkpt><trkpt lat="42.109603" lon="13.6881432"><ele>1029.4285714285716</ele><time>2026-05-03T08:59:42.036Z</time></trkpt><trkpt lat="42.1095861" lon="13.6882343"><ele>1028.857142857143</ele><time>2026-05-03T08:59:43.032Z</time></trkpt><trkpt lat="42.1095713" lon="13.6883272"><ele>1028.2857142857142</ele><time>2026-05-03T08:59:44.03Z</time></trkpt><trkpt lat="42.1095632" lon="13.6884165"><ele>1027.7142857142858</ele><time>2026-05-03T08:59:45.032Z</time></trkpt><trkpt lat="42.1095711" lon="13.6885033"><ele>1027.142857142857</ele><time>2026-05-03T08:59:46.036Z</time></trkpt><trkpt lat="42.1096022" lon="13.688581"><ele>1026.5714285714287</ele><time>2026-05-03T08:59:47.037Z</time></trkpt><trkpt lat="42.1096447" lon="13.6886499"><ele>1026.0</ele><time>2026-05-03T08:59:48.036Z</time></trkpt><trkpt lat="42.109692" lon="13.6887176"><ele>1025.1428571428573</ele><time>2026-05-03T08:59:49.034Z</time></trkpt><trkpt lat="42.1097452" lon="13.6887803"><ele>1024.2857142857142</ele><time>2026-05-03T08:59:50.058Z</time></trkpt><trkpt lat="42.1097962" lon="13.6888526"><ele>1023.4285714285716</ele><time>2026-05-03T08:59:51.029Z</time></trkpt><trkpt lat="42.1098341" lon="13.688931"><ele>1022.5714285714287</ele><time>2026-05-03T08:59:52.037Z</time></trkpt><trkpt lat="42.1098708" lon="13.6890191"><ele>1021.7142857142858</ele><time>2026-05-03T08:59:53.028Z</time></trkpt><trkpt lat="42.1098928" lon="13.689108"><ele>1020.8571428571429</ele><time>2026-05-03T08:59:54.039Z</time></trkpt><trkpt lat="42.109893" lon="13.6892049"><ele>1020.0</ele><time>2026-05-03T08:59:55.059Z</time></trkpt><trkpt lat="42.1098884" lon="13.6892956"><ele>1020.0</ele><time>2026-05-03T08:59:56.03Z</time></trkpt><trkpt lat="42.1098609" lon="13.6893752"><ele>1020.0</ele><time>2026-05-03T08:59:57.034Z</time></trkpt><trkpt lat="42.1098317" lon="13.6894532"><ele>1020.0</ele><time>2026-05-03T08:59:58.04Z</time></trkpt><trkpt lat="42.1097677" lon="13.6896062"><ele>1020.0</ele><time>2026-05-03T09:00:00.042Z</time></trkpt><trkpt lat="42.1097381" lon="13.6896858"><ele>1020.0</ele><time>2026-05-03T09:00:01.034Z</time></trkpt><trkpt lat="42.1097146" lon="13.6897745"><ele>1020.0</ele><time>2026-05-03T09:00:02.033Z</time></trkpt><trkpt lat="42.1096951" lon="13.6898713"><ele>1020.1666666666666</ele><time>2026-05-03T09:00:03.032Z</time></trkpt><trkpt lat="42.1096753" lon="13.6899656"><ele>1020.3333333333333</ele><time>2026-05-03T09:00:04.038Z</time></trkpt><trkpt lat="42.1096603" lon="13.6900675"><ele>1020.5</ele><time>2026-05-03T09:00:05.037Z</time></trkpt><trkpt lat="42.1096473" lon="13.6901718"><ele>1020.6666666666666</ele><time>2026-05-03T09:00:06.042Z</time></trkpt><trkpt lat="42.1096401" lon="13.6902881"><ele>1020.8333333333333</ele><time>2026-05-03T09:00:07.028Z</time></trkpt><trkpt lat="42.1096359" lon="13.6904028"><ele>1021.0</ele><time>2026-05-03T09:00:08.051Z</time></trkpt><trkpt lat="42.1096317" lon="13.6905217"><ele>1020.1666666666666</ele><time>2026-05-03T09:00:09.03Z</time></trkpt><trkpt lat="42.1096162" lon="13.6906367"><ele>1019.3333333333333</ele><time>2026-05-03T09:00:10.045Z</time></trkpt><trkpt lat="42.109605" lon="13.6907514"><ele>1018.5</ele><time>2026-05-03T09:00:11.042Z</time></trkpt><trkpt lat="42.1095938" lon="13.6908643"><ele>1017.6666666666667</ele><time>2026-05-03T09:00:12.029Z</time></trkpt><trkpt lat="42.10958" lon="13.6909814"><ele>1016.8333333333334</ele><time>2026-05-03T09:00:13.032Z</time></trkpt><trkpt lat="42.1095612" lon="13.691102"><ele>1016.0</ele><time>2026-05-03T09:00:14.034Z</time></trkpt><trkpt lat="42.1095442" lon="13.6912258"><ele>1014.8</ele><time>2026-05-03T09:00:15.029Z</time></trkpt><trkpt lat="42.1095243" lon="13.6913423"><ele>1013.5999999999999</ele><time>2026-05-03T09:00:16.062Z</time></trkpt><trkpt lat="42.1095056" lon="13.6914637"><ele>1012.4</ele><time>2026-05-03T09:00:17.03Z</time></trkpt><trkpt lat="42.1094884" lon="13.6915839"><ele>1011.2</ele><time>2026-05-03T09:00:18.035Z</time></trkpt><trkpt lat="42.1094711" lon="13.6917088"><ele>1010.0</ele><time>2026-05-03T09:00:19.025Z</time></trkpt><trkpt lat="42.1094543" lon="13.6918313"><ele>1009.2</ele><time>2026-05-03T09:00:20.035Z</time></trkpt><trkpt lat="42.1094365" lon="13.6919539"><ele>1008.4</ele><time>2026-05-03T09:00:21.027Z</time></trkpt><trkpt lat="42.1094191" lon="13.692076"><ele>1007.5999999999999</ele><time>2026-05-03T09:00:22.034Z</time></trkpt><trkpt lat="42.1094" lon="13.6922022"><ele>1006.8</ele><time>2026-05-03T09:00:23.041Z</time></trkpt><trkpt lat="42.1093825" lon="13.6923268"><ele>1006.0</ele><time>2026-05-03T09:00:24.035Z</time></trkpt><trkpt lat="42.1093609" lon="13.6924497"><ele>1006.0</ele><time>2026-05-03T09:00:25.036Z</time></trkpt><trkpt lat="42.10934" lon="13.6925716"><ele>1005.9999999999999</ele><time>2026-05-03T09:00:26.036Z</time></trkpt><trkpt lat="42.1093201" lon="13.6926938"><ele>1005.9999999999999</ele><time>2026-05-03T09:00:27.037Z</time></trkpt><trkpt lat="42.1093037" lon="13.692819"><ele>1006.0</ele><time>2026-05-03T09:00:28.037Z</time></trkpt><trkpt lat="42.1092875" lon="13.6929443"><ele>1006.0</ele><time>2026-05-03T09:00:29.033Z</time></trkpt><trkpt lat="42.1092711" lon="13.6930669"><ele>1005.1999999999999</ele><time>2026-05-03T09:00:30.03Z</time></trkpt><trkpt lat="42.1092579" lon="13.6931866"><ele>1004.3999999999999</ele><time>2026-05-03T09:00:31.035Z</time></trkpt><trkpt lat="42.1092436" lon="13.693308"><ele>1003.6</ele><time>2026-05-03T09:00:32.043Z</time></trkpt><trkpt lat="42.109223" lon="13.6934256"><ele>1002.8</ele><time>2026-05-03T09:00:33.032Z</time></trkpt><trkpt lat="42.1091985" lon="13.693542"><ele>1002.0</ele><time>2026-05-03T09:00:34.052Z</time></trkpt><trkpt lat="42.1091738" lon="13.6936583"><ele>1001.6</ele><time>2026-05-03T09:00:35.034Z</time></trkpt><trkpt lat="42.1091531" lon="13.6937792"><ele>1001.2</ele><time>2026-05-03T09:00:36.04Z</time></trkpt><trkpt lat="42.1091314" lon="13.6938984"><ele>1000.8</ele><time>2026-05-03T09:00:37.037Z</time></trkpt><trkpt lat="42.1091081" lon="13.6940159"><ele>1000.4</ele><time>2026-05-03T09:00:38.042Z</time></trkpt><trkpt lat="42.1090848" lon="13.6941356"><ele>1000.0</ele><time>2026-05-03T09:00:39.05Z</time></trkpt><trkpt lat="42.1090585" lon="13.6942507"><ele>995.1666666666666</ele><time>2026-05-03T09:00:40.037Z</time></trkpt><trkpt lat="42.1090298" lon="13.6943609"><ele>990.3333333333333</ele><time>2026-05-03T09:00:41.03Z</time></trkpt><trkpt lat="42.108997" lon="13.6944707"><ele>985.5</ele><time>2026-05-03T09:00:42.037Z</time></trkpt><trkpt lat="42.1089649" lon="13.6945783"><ele>980.6666666666667</ele><time>2026-05-03T09:00:43.04Z</time></trkpt><trkpt lat="42.1089332" lon="13.6946884"><ele>975.8333333333334</ele><time>2026-05-03T09:00:44.05Z</time></trkpt><trkpt lat="42.1089025" lon="13.6947994"><ele>971.0</ele><time>2026-05-03T09:00:45.037Z</time></trkpt><trkpt lat="42.1088659" lon="13.6949068"><ele>971.0000000000001</ele><time>2026-05-03T09:00:46.032Z</time></trkpt><trkpt lat="42.1088328" lon="13.6950099"><ele>971.0</ele><time>2026-05-03T09:00:47.04Z</time></trkpt><trkpt lat="42.1087983" lon="13.6951234"><ele>971.0</ele><time>2026-05-03T09:00:48.042Z</time></trkpt><trkpt lat="42.1087703" lon="13.6952364"><ele>971.0</ele><time>2026-05-03T09:00:49.032Z</time></trkpt><trkpt lat="42.1087419" lon="13.6953525"><ele>971.0000000000001</ele><time>2026-05-03T09:00:50.034Z</time></trkpt><trkpt lat="42.1087069" lon="13.695461"><ele>971.0</ele><time>2026-05-03T09:00:51.034Z</time></trkpt><trkpt lat="42.1086778" lon="13.6955742"><ele>971.0000000000001</ele><time>2026-05-03T09:00:52.035Z</time></trkpt><trkpt lat="42.1086414" lon="13.6956803"><ele>971.0</ele><time>2026-05-03T09:00:53.03Z</time></trkpt><trkpt lat="42.1086055" lon="13.6957869"><ele>971.0</ele><time>2026-05-03T09:00:54.035Z</time></trkpt><trkpt lat="42.1085675" lon="13.6958929"><ele>971.0</ele><time>2026-05-03T09:00:55.034Z</time></trkpt><trkpt lat="42.1085293" lon="13.6959936"><ele>971.0000000000001</ele><time>2026-05-03T09:00:56.034Z</time></trkpt><trkpt lat="42.108493" lon="13.6960951"><ele>971.0</ele><time>2026-05-03T09:00:57.051Z</time></trkpt><trkpt lat="42.1084563" lon="13.6961967"><ele>971.1666666666667</ele><time>2026-05-03T09:00:58.049Z</time></trkpt><trkpt lat="42.1084188" lon="13.6962938"><ele>971.3333333333334</ele><time>2026-05-03T09:00:59.037Z</time></trkpt><trkpt lat="42.10838" lon="13.6963879"><ele>971.5</ele><time>2026-05-03T09:01:00.039Z</time></trkpt><trkpt lat="42.1083367" lon="13.6964763"><ele>971.6666666666667</ele><time>2026-05-03T09:01:01.03Z</time></trkpt><trkpt lat="42.1082941" lon="13.6965716"><ele>971.8333333333334</ele><time>2026-05-03T09:01:02.044Z</time></trkpt><trkpt lat="42.1082533" lon="13.696663"><ele>972.0</ele><time>2026-05-03T09:01:03.025Z</time></trkpt><trkpt lat="42.1082149" lon="13.696759"><ele>968.5</ele><time>2026-05-03T09:01:04.035Z</time></trkpt><trkpt lat="42.1081766" lon="13.6968522"><ele>965.0</ele><time>2026-05-03T09:01:05.032Z</time></trkpt><trkpt lat="42.1081394" lon="13.6969453"><ele>961.5</ele><time>2026-05-03T09:01:06.036Z</time></trkpt><trkpt lat="42.1081103" lon="13.6970446"><ele>958.0</ele><time>2026-05-03T09:01:07.033Z</time></trkpt><trkpt lat="42.1080848" lon="13.6971379"><ele>954.5</ele><time>2026-05-03T09:01:08.038Z</time></trkpt><trkpt lat="42.1080654" lon="13.6972339"><ele>951.0</ele><time>2026-05-03T09:01:09.043Z</time></trkpt><trkpt lat="42.1080552" lon="13.6973349"><ele>951.0</ele><time>2026-05-03T09:01:10.048Z</time></trkpt><trkpt lat="42.108054" lon="13.6974337"><ele>951.0</ele><time>2026-05-03T09:01:11.034Z</time></trkpt><trkpt lat="42.1080645" lon="13.6975266"><ele>951.0</ele><time>2026-05-03T09:01:12.041Z</time></trkpt><trkpt lat="42.1080897" lon="13.6976177"><ele>951.0</ele><time>2026-05-03T09:01:13.03Z</time></trkpt><trkpt lat="42.1081294" lon="13.6977134"><ele>951.0</ele><time>2026-05-03T09:01:14.032Z</time></trkpt><trkpt lat="42.1081697" lon="13.6978065"><ele>951.0</ele><time>2026-05-03T09:01:15.044Z</time></trkpt><trkpt lat="42.1082152" lon="13.6979053"><ele>952.0</ele><time>2026-05-03T09:01:16.037Z</time></trkpt><trkpt lat="42.1082512" lon="13.6980087"><ele>953.0</ele><time>2026-05-03T09:01:17.035Z</time></trkpt><trkpt lat="42.1082743" lon="13.6981138"><ele>954.0</ele><time>2026-05-03T09:01:18.041Z</time></trkpt><trkpt lat="42.1082972" lon="13.6982145"><ele>955.0</ele><time>2026-05-03T09:01:19.046Z</time></trkpt><trkpt lat="42.1083243" lon="13.6983158"><ele>956.0</ele><time>2026-05-03T09:01:20.042Z</time></trkpt><trkpt lat="42.10835" lon="13.6984045"><ele>957.0</ele><time>2026-05-03T09:01:21.035Z</time></trkpt><trkpt lat="42.1084391" lon="13.6985262"><ele>957.0</ele><time>2026-05-03T09:01:23.04Z</time></trkpt><trkpt lat="42.1085002" lon="13.6985643"><ele>957.0000000000001</ele><time>2026-05-03T09:01:24.027Z</time></trkpt><trkpt lat="42.1085629" lon="13.6985853"><ele>957.0</ele><time>2026-05-03T09:01:25.048Z</time></trkpt><trkpt lat="42.1086396" lon="13.6985884"><ele>957.0</ele><time>2026-05-03T09:01:26.037Z</time></trkpt><trkpt lat="42.108712" lon="13.6985765"><ele>957.0000000000001</ele><time>2026-05-03T09:01:27.036Z</time></trkpt><trkpt lat="42.1087885" lon="13.6985521"><ele>957.0</ele><time>2026-05-03T09:01:28.046Z</time></trkpt><trkpt lat="42.1088745" lon="13.6985294"><ele>957.0</ele><time>2026-05-03T09:01:29.034Z</time></trkpt><trkpt lat="42.108962" lon="13.6985031"><ele>957.0</ele><time>2026-05-03T09:01:30.037Z</time></trkpt><trkpt lat="42.1090523" lon="13.6984805"><ele>957.0</ele><time>2026-05-03T09:01:31.028Z</time></trkpt><trkpt lat="42.1091447" lon="13.6984592"><ele>957.0</ele><time>2026-05-03T09:01:32.031Z</time></trkpt><trkpt lat="42.1092377" lon="13.6984327"><ele>957.0</ele><time>2026-05-03T09:01:33.034Z</time></trkpt><trkpt lat="42.1093296" lon="13.6984016"><ele>957.0</ele><time>2026-05-03T09:01:34.042Z</time></trkpt><trkpt lat="42.1094191" lon="13.6983658"><ele>957.2</ele><time>2026-05-03T09:01:35.035Z</time></trkpt><trkpt lat="42.1095074" lon="13.6983251"><ele>957.4000000000001</ele><time>2026-05-03T09:01:36.039Z</time></trkpt><trkpt lat="42.1095967" lon="13.6982805"><ele>957.5999999999999</ele><time>2026-05-03T09:01:37.035Z</time></trkpt><trkpt lat="42.1096857" lon="13.6982338"><ele>957.8</ele><time>2026-05-03T09:01:38.037Z</time></trkpt><trkpt lat="42.1097754" lon="13.6981866"><ele>958.0</ele><time>2026-05-03T09:01:39.042Z</time></trkpt><trkpt lat="42.1098687" lon="13.6981396"><ele>953.0</ele><time>2026-05-03T09:01:40.038Z</time></trkpt><trkpt lat="42.1099633" lon="13.698104"><ele>948.0</ele><time>2026-05-03T09:01:41.025Z</time></trkpt><trkpt lat="42.1100574" lon="13.6980655"><ele>943.0</ele><time>2026-05-03T09:01:42.034Z</time></trkpt><trkpt lat="42.1101518" lon="13.6980235"><ele>938.0</ele><time>2026-05-03T09:01:43.036Z</time></trkpt><trkpt lat="42.1102414" lon="13.6979761"><ele>933.0</ele><time>2026-05-03T09:01:44.031Z</time></trkpt><trkpt lat="42.1103296" lon="13.6979238"><ele>933.0</ele><time>2026-05-03T09:01:45.041Z</time></trkpt><trkpt lat="42.1104152" lon="13.6978686"><ele>933.0</ele><time>2026-05-03T09:01:46.025Z</time></trkpt><trkpt lat="42.1104991" lon="13.6978101"><ele>933.0</ele><time>2026-05-03T09:01:47.032Z</time></trkpt><trkpt lat="42.1105777" lon="13.6977482"><ele>933.0</ele><time>2026-05-03T09:01:48.038Z</time></trkpt><trkpt lat="42.1106571" lon="13.6976864"><ele>933.0</ele><time>2026-05-03T09:01:49.023Z</time></trkpt><trkpt lat="42.1107371" lon="13.6976315"><ele>934.0</ele><time>2026-05-03T09:01:50.034Z</time></trkpt><trkpt lat="42.1108208" lon="13.6975762"><ele>935.0</ele><time>2026-05-03T09:01:51.033Z</time></trkpt><trkpt lat="42.110904" lon="13.6975223"><ele>936.0</ele><time>2026-05-03T09:01:52.031Z</time></trkpt><trkpt lat="42.110988" lon="13.6974699"><ele>937.0</ele><time>2026-05-03T09:01:53.05Z</time></trkpt><trkpt lat="42.1110728" lon="13.6974255"><ele>938.0</ele><time>2026-05-03T09:01:54.021Z</time></trkpt><trkpt lat="42.111157" lon="13.6973903"><ele>938.0</ele><time>2026-05-03T09:01:55.027Z</time></trkpt><trkpt lat="42.1112443" lon="13.6973605"><ele>938.0</ele><time>2026-05-03T09:01:56.032Z</time></trkpt><trkpt lat="42.1113323" lon="13.69733"><ele>938.0</ele><time>2026-05-03T09:01:57.023Z</time></trkpt><trkpt lat="42.1114212" lon="13.6972969"><ele>938.0</ele><time>2026-05-03T09:01:58.033Z</time></trkpt><trkpt lat="42.1115089" lon="13.6972607"><ele>938.0</ele><time>2026-05-03T09:01:59.03Z</time></trkpt><trkpt lat="42.1115987" lon="13.6972203"><ele>932.0</ele><time>2026-05-03T09:02:00.041Z</time></trkpt><trkpt lat="42.111691" lon="13.6971741"><ele>926.0</ele><time>2026-05-03T09:02:01.035Z</time></trkpt><trkpt lat="42.1117842" lon="13.6971175"><ele>920.0</ele><time>2026-05-03T09:02:02.034Z</time></trkpt><trkpt lat="42.1118727" lon="13.6970593"><ele>914.0</ele><time>2026-05-03T09:02:03.028Z</time></trkpt><trkpt lat="42.1119636" lon="13.6969973"><ele>908.0</ele><time>2026-05-03T09:02:04.028Z</time></trkpt><trkpt lat="42.1120572" lon="13.6969393"><ele>910.0</ele><time>2026-05-03T09:02:05.025Z</time></trkpt><trkpt lat="42.1121527" lon="13.6968868"><ele>912.0</ele><time>2026-05-03T09:02:06.024Z</time></trkpt><trkpt lat="42.1122492" lon="13.6968342"><ele>914.0</ele><time>2026-05-03T09:02:07.039Z</time></trkpt><trkpt lat="42.1123428" lon="13.6967815"><ele>916.0</ele><time>2026-05-03T09:02:08.025Z</time></trkpt><trkpt lat="42.1124354" lon="13.6967303"><ele>918.0</ele><time>2026-05-03T09:02:09.03Z</time></trkpt><trkpt lat="42.1125218" lon="13.6966778"><ele>918.0</ele><time>2026-05-03T09:02:10.032Z</time></trkpt><trkpt lat="42.1126053" lon="13.6966231"><ele>918.0</ele><time>2026-05-03T09:02:11.024Z</time></trkpt><trkpt lat="42.1126891" lon="13.6965723"><ele>918.0</ele><time>2026-05-03T09:02:12.039Z</time></trkpt><trkpt lat="42.1127727" lon="13.6965228"><ele>918.0</ele><time>2026-05-03T09:02:13.027Z</time></trkpt><trkpt lat="42.1128523" lon="13.6964784"><ele>918.0</ele><time>2026-05-03T09:02:14.026Z</time></trkpt><trkpt lat="42.1129319" lon="13.696436"><ele>918.0</ele><time>2026-05-03T09:02:15.041Z</time></trkpt><trkpt lat="42.1130114" lon="13.6963946"><ele>918.0</ele><time>2026-05-03T09:02:16.026Z</time></trkpt><trkpt lat="42.113091" lon="13.6963619"><ele>918.0</ele><time>2026-05-03T09:02:17.035Z</time></trkpt><trkpt lat="42.1131779" lon="13.6963345"><ele>918.0</ele><time>2026-05-03T09:02:18.038Z</time></trkpt><trkpt lat="42.1132664" lon="13.696307"><ele>918.0</ele><time>2026-05-03T09:02:19.031Z</time></trkpt><trkpt lat="42.1133582" lon="13.6962848"><ele>918.0</ele><time>2026-05-03T09:02:20.027Z</time></trkpt><trkpt lat="42.1134531" lon="13.6962653"><ele>913.4</ele><time>2026-05-03T09:02:21.026Z</time></trkpt><trkpt lat="42.1135476" lon="13.6962411"><ele>908.8</ele><time>2026-05-03T09:02:22.033Z</time></trkpt><trkpt lat="42.1136461" lon="13.6962097"><ele>904.2</ele><time>2026-05-03T09:02:23.022Z</time></trkpt><trkpt lat="42.1137389" lon="13.6961747"><ele>899.6</ele><time>2026-05-03T09:02:24.028Z</time></trkpt><trkpt lat="42.1138384" lon="13.696144"><ele>895.0</ele><time>2026-05-03T09:02:25.031Z</time></trkpt><trkpt lat="42.113938" lon="13.6961066"><ele>900.4</ele><time>2026-05-03T09:02:26.032Z</time></trkpt><trkpt lat="42.1140376" lon="13.6960772"><ele>905.8</ele><time>2026-05-03T09:02:27.038Z</time></trkpt><trkpt lat="42.1141395" lon="13.6960465"><ele>911.2</ele><time>2026-05-03T09:02:28.022Z</time></trkpt><trkpt lat="42.1142401" lon="13.6960174"><ele>916.6</ele><time>2026-05-03T09:02:29.034Z</time></trkpt><trkpt lat="42.114341" lon="13.6959893"><ele>922.0</ele><time>2026-05-03T09:02:30.031Z</time></trkpt><trkpt lat="42.1144465" lon="13.6959704"><ele>922.0</ele><time>2026-05-03T09:02:31.043Z</time></trkpt><trkpt lat="42.1145476" lon="13.6959476"><ele>922.0</ele><time>2026-05-03T09:02:32.025Z</time></trkpt><trkpt lat="42.1146468" lon="13.6959258"><ele>922.0</ele><time>2026-05-03T09:02:33.037Z</time></trkpt><trkpt lat="42.1147452" lon="13.695903"><ele>922.0</ele><time>2026-05-03T09:02:34.03Z</time></trkpt><trkpt lat="42.1148433" lon="13.6958842"><ele>922.0</ele><time>2026-05-03T09:02:35.022Z</time></trkpt><trkpt lat="42.114941" lon="13.6958631"><ele>918.4000000000001</ele><time>2026-05-03T09:02:36.035Z</time></trkpt><trkpt lat="42.1150358" lon="13.695841"><ele>914.8000000000001</ele><time>2026-05-03T09:02:37.033Z</time></trkpt><trkpt lat="42.1151348" lon="13.6958169"><ele>911.2</ele><time>2026-05-03T09:02:38.034Z</time></trkpt><trkpt lat="42.1152373" lon="13.6957887"><ele>907.6</ele><time>2026-05-03T09:02:39.025Z</time></trkpt><trkpt lat="42.1153378" lon="13.6957598"><ele>904.0</ele><time>2026-05-03T09:02:40.031Z</time></trkpt><trkpt lat="42.1154416" lon="13.6957362"><ele>904.0</ele><time>2026-05-03T09:02:41.026Z</time></trkpt><trkpt lat="42.1155421" lon="13.6957133"><ele>904.0000000000001</ele><time>2026-05-03T09:02:42.031Z</time></trkpt><trkpt lat="42.1156385" lon="13.6956907"><ele>904.0000000000001</ele><time>2026-05-03T09:02:43.034Z</time></trkpt><trkpt lat="42.1157365" lon="13.6956659"><ele>904.0</ele><time>2026-05-03T09:02:44.028Z</time></trkpt><trkpt lat="42.1158363" lon="13.6956373"><ele>904.0</ele><time>2026-05-03T09:02:45.029Z</time></trkpt><trkpt lat="42.1159386" lon="13.6956085"><ele>900.0</ele><time>2026-05-03T09:02:46.026Z</time></trkpt><trkpt lat="42.1160421" lon="13.6955796"><ele>896.0000000000001</ele><time>2026-05-03T09:02:47.028Z</time></trkpt><trkpt lat="42.116148" lon="13.6955483"><ele>892.0000000000001</ele><time>2026-05-03T09:02:48.038Z</time></trkpt><trkpt lat="42.1162542" lon="13.6955157"><ele>888.0</ele><time>2026-05-03T09:02:49.025Z</time></trkpt><trkpt lat="42.1163607" lon="13.695485"><ele>884.0</ele><time>2026-05-03T09:02:50.033Z</time></trkpt><trkpt lat="42.1164652" lon="13.695457"><ele>879.8000000000001</ele><time>2026-05-03T09:02:51.029Z</time></trkpt><trkpt lat="42.1165715" lon="13.6954277"><ele>875.6000000000001</ele><time>2026-05-03T09:02:52.03Z</time></trkpt><trkpt lat="42.1166748" lon="13.6954022"><ele>871.4</ele><time>2026-05-03T09:02:53.025Z</time></trkpt><trkpt lat="42.1167812" lon="13.6953814"><ele>867.2</ele><time>2026-05-03T09:02:54.039Z</time></trkpt><trkpt lat="42.1168859" lon="13.6953591"><ele>863.0</ele><time>2026-05-03T09:02:55.022Z</time></trkpt><trkpt lat="42.1169893" lon="13.6953345"><ele>863.0</ele><time>2026-05-03T09:02:56.026Z</time></trkpt><trkpt lat="42.1170969" lon="13.6953145"><ele>863.0</ele><time>2026-05-03T09:02:57.025Z</time></trkpt><trkpt lat="42.1172057" lon="13.6952926"><ele>863.0</ele><time>2026-05-03T09:02:58.031Z</time></trkpt><trkpt lat="42.1173109" lon="13.6952762"><ele>863.0</ele><time>2026-05-03T09:02:59.023Z</time></trkpt><trkpt lat="42.1174188" lon="13.6952602"><ele>863.0</ele><time>2026-05-03T09:03:00.027Z</time></trkpt><trkpt lat="42.1175196" lon="13.6952365"><ele>867.8</ele><time>2026-05-03T09:03:01.026Z</time></trkpt><trkpt lat="42.1176161" lon="13.6952018"><ele>872.5999999999999</ele><time>2026-05-03T09:03:02.025Z</time></trkpt><trkpt lat="42.117707" lon="13.6951619"><ele>877.4000000000001</ele><time>2026-05-03T09:03:03.023Z</time></trkpt><trkpt lat="42.1177949" lon="13.6951219"><ele>882.2</ele><time>2026-05-03T09:03:04.04Z</time></trkpt><trkpt lat="42.1178825" lon="13.6950716"><ele>887.0</ele><time>2026-05-03T09:03:05.028Z</time></trkpt><trkpt lat="42.1179701" lon="13.6950188"><ele>887.0</ele><time>2026-05-03T09:03:06.027Z</time></trkpt><trkpt lat="42.1180613" lon="13.6949567"><ele>887.0</ele><time>2026-05-03T09:03:07.026Z</time></trkpt><trkpt lat="42.1181485" lon="13.6948934"><ele>887.0</ele><time>2026-05-03T09:03:08.039Z</time></trkpt><trkpt lat="42.1182399" lon="13.6948344"><ele>887.0</ele><time>2026-05-03T09:03:09.032Z</time></trkpt><trkpt lat="42.1183305" lon="13.6947735"><ele>887.0</ele><time>2026-05-03T09:03:10.041Z</time></trkpt><trkpt lat="42.11842" lon="13.6947144"><ele>881.0</ele><time>2026-05-03T09:03:11.029Z</time></trkpt><trkpt lat="42.1185077" lon="13.6946609"><ele>875.0</ele><time>2026-05-03T09:03:12.026Z</time></trkpt><trkpt lat="42.1185938" lon="13.6946106"><ele>869.0</ele><time>2026-05-03T09:03:13.032Z</time></trkpt><trkpt lat="42.1186782" lon="13.6945632"><ele>863.0</ele><time>2026-05-03T09:03:14.029Z</time></trkpt><trkpt lat="42.118758" lon="13.6945148"><ele>857.0</ele><time>2026-05-03T09:03:15.041Z</time></trkpt><trkpt lat="42.1188383" lon="13.6944673"><ele>857.0000000000001</ele><time>2026-05-03T09:03:16.03Z</time></trkpt><trkpt lat="42.1189166" lon="13.6944263"><ele>857.0</ele><time>2026-05-03T09:03:17.031Z</time></trkpt><trkpt lat="42.1189957" lon="13.6943933"><ele>857.0</ele><time>2026-05-03T09:03:18.029Z</time></trkpt><trkpt lat="42.1190783" lon="13.6943646"><ele>857.0</ele><time>2026-05-03T09:03:19.025Z</time></trkpt><trkpt lat="42.1191677" lon="13.6943443"><ele>857.0000000000001</ele><time>2026-05-03T09:03:20.033Z</time></trkpt><trkpt lat="42.1192589" lon="13.6943275"><ele>857.0</ele><time>2026-05-03T09:03:21.025Z</time></trkpt><trkpt lat="42.1193504" lon="13.6943076"><ele>858.4000000000001</ele><time>2026-05-03T09:03:22.03Z</time></trkpt><trkpt lat="42.1194446" lon="13.6942791"><ele>859.8000000000001</ele><time>2026-05-03T09:03:23.032Z</time></trkpt><trkpt lat="42.1195433" lon="13.6942422"><ele>861.2</ele><time>2026-05-03T09:03:24.026Z</time></trkpt><trkpt lat="42.1196408" lon="13.6941987"><ele>862.6</ele><time>2026-05-03T09:03:25.025Z</time></trkpt><trkpt lat="42.1197194" lon="13.69416"><ele>864.0</ele><time>2026-05-03T09:03:26.034Z</time></trkpt><trkpt lat="42.1197849" lon="13.6941269"><ele>864.0</ele><time>2026-05-03T09:03:27.029Z</time></trkpt><trkpt lat="42.1198513" lon="13.6940957"><ele>864.0</ele><time>2026-05-03T09:03:28.025Z</time></trkpt><trkpt lat="42.1199248" lon="13.6940694"><ele>864.0</ele><time>2026-05-03T09:03:29.033Z</time></trkpt><trkpt lat="42.1200096" lon="13.6940333"><ele>864.0</ele><time>2026-05-03T09:03:30.024Z</time></trkpt><trkpt lat="42.1201033" lon="13.6939954"><ele>864.0</ele><time>2026-05-03T09:03:31.039Z</time></trkpt><trkpt lat="42.1201977" lon="13.6939532"><ele>864.0</ele><time>2026-05-03T09:03:32.027Z</time></trkpt><trkpt lat="42.1202939" lon="13.6939069"><ele>859.0</ele><time>2026-05-03T09:03:33.029Z</time></trkpt><trkpt lat="42.1203871" lon="13.6938669"><ele>854.0000000000001</ele><time>2026-05-03T09:03:34.021Z</time></trkpt><trkpt lat="42.1204795" lon="13.6938289"><ele>849.0</ele><time>2026-05-03T09:03:35.026Z</time></trkpt><trkpt lat="42.1205744" lon="13.6937891"><ele>844.0</ele><time>2026-05-03T09:03:36.033Z</time></trkpt><trkpt lat="42.120667" lon="13.6937517"><ele>839.0</ele><time>2026-05-03T09:03:37.024Z</time></trkpt><trkpt lat="42.1207584" lon="13.6937151"><ele>840.8000000000001</ele><time>2026-05-03T09:03:38.037Z</time></trkpt><trkpt lat="42.1208541" lon="13.6936882"><ele>842.6</ele><time>2026-05-03T09:03:39.036Z</time></trkpt><trkpt lat="42.1209439" lon="13.6936575"><ele>844.4</ele><time>2026-05-03T09:03:40.026Z</time></trkpt><trkpt lat="42.1210349" lon="13.6936223"><ele>846.2</ele><time>2026-05-03T09:03:41.026Z</time></trkpt><trkpt lat="42.1211285" lon="13.6935806"><ele>848.0</ele><time>2026-05-03T09:03:42.026Z</time></trkpt><trkpt lat="42.1212147" lon="13.6935524"><ele>848.0</ele><time>2026-05-03T09:03:43.022Z</time></trkpt><trkpt lat="42.1213008" lon="13.6935187"><ele>848.0</ele><time>2026-05-03T09:03:44.046Z</time></trkpt><trkpt lat="42.1213908" lon="13.6934864"><ele>848.0</ele><time>2026-05-03T09:03:45.035Z</time></trkpt><trkpt lat="42.1214819" lon="13.6934488"><ele>848.0</ele><time>2026-05-03T09:03:46.027Z</time></trkpt><trkpt lat="42.1215709" lon="13.6934022"><ele>848.0</ele><time>2026-05-03T09:03:47.032Z</time></trkpt><trkpt lat="42.1216592" lon="13.6933512"><ele>843.8</ele><time>2026-05-03T09:03:48.021Z</time></trkpt><trkpt lat="42.1217482" lon="13.6932926"><ele>839.5999999999999</ele><time>2026-05-03T09:03:49.035Z</time></trkpt><trkpt lat="42.1218379" lon="13.6932375"><ele>835.4000000000001</ele><time>2026-05-03T09:03:50.035Z</time></trkpt><trkpt lat="42.1219265" lon="13.693182"><ele>831.2</ele><time>2026-05-03T09:03:51.036Z</time></trkpt><trkpt lat="42.1220112" lon="13.6931213"><ele>827.0</ele><time>2026-05-03T09:03:52.041Z</time></trkpt><trkpt lat="42.1220965" lon="13.6930597"><ele>827.0000000000001</ele><time>2026-05-03T09:03:53.027Z</time></trkpt><trkpt lat="42.1221805" lon="13.6929999"><ele>827.0</ele><time>2026-05-03T09:03:54.028Z</time></trkpt><trkpt lat="42.1222526" lon="13.6929436"><ele>827.0</ele><time>2026-05-03T09:03:55.029Z</time></trkpt><trkpt lat="42.1223193" lon="13.692897"><ele>827.0</ele><time>2026-05-03T09:03:56.037Z</time></trkpt><trkpt lat="42.1223861" lon="13.6928659"><ele>827.0000000000001</ele><time>2026-05-03T09:03:57.025Z</time></trkpt><trkpt lat="42.1224916" lon="13.6928308"><ele>827.0</ele><time>2026-05-03T09:03:59.034Z</time></trkpt><trkpt lat="42.1225842" lon="13.6928797"><ele>823.6666666666667</ele><time>2026-05-03T09:04:01.029Z</time></trkpt><trkpt lat="42.122607" lon="13.6930172"><ele>820.3333333333334</ele><time>2026-05-03T09:04:03.024Z</time></trkpt><trkpt lat="42.1225868" lon="13.6931016"><ele>817.0</ele><time>2026-05-03T09:04:04.035Z</time></trkpt><trkpt lat="42.1225566" lon="13.6931863"><ele>813.6666666666667</ele><time>2026-05-03T09:04:05.038Z</time></trkpt><trkpt lat="42.1225215" lon="13.6932834"><ele>810.3333333333334</ele><time>2026-05-03T09:04:06.038Z</time></trkpt><trkpt lat="42.1224797" lon="13.693385"><ele>807.0</ele><time>2026-05-03T09:04:07.03Z</time></trkpt><trkpt lat="42.1224425" lon="13.6934922"><ele>807.4285714285714</ele><time>2026-05-03T09:04:08.036Z</time></trkpt><trkpt lat="42.1224079" lon="13.693592"><ele>807.8571428571429</ele><time>2026-05-03T09:04:09.033Z</time></trkpt><trkpt lat="42.1223771" lon="13.6936818"><ele>808.2857142857142</ele><time>2026-05-03T09:04:10.038Z</time></trkpt><trkpt lat="42.1223463" lon="13.6937722"><ele>808.7142857142858</ele><time>2026-05-03T09:04:11.037Z</time></trkpt><trkpt lat="42.1223177" lon="13.6938618"><ele>809.1428571428571</ele><time>2026-05-03T09:04:12.04Z</time></trkpt><trkpt lat="42.1222908" lon="13.6939517"><ele>809.5714285714286</ele><time>2026-05-03T09:04:13.023Z</time></trkpt><trkpt lat="42.1222585" lon="13.6940353"><ele>810.0</ele><time>2026-05-03T09:04:14.036Z</time></trkpt><trkpt lat="42.12223" lon="13.6941174"><ele>810.0</ele><time>2026-05-03T09:04:15.041Z</time></trkpt><trkpt lat="42.1221971" lon="13.6941943"><ele>810.0</ele><time>2026-05-03T09:04:16.052Z</time></trkpt><trkpt lat="42.1221424" lon="13.6943263"><ele>810.0</ele><time>2026-05-03T09:04:18.04Z</time></trkpt><trkpt lat="42.1220883" lon="13.6944282"><ele>810.0</ele><time>2026-05-03T09:04:20.028Z</time></trkpt><trkpt lat="42.1220214" lon="13.6945181"><ele>810.0</ele><time>2026-05-03T09:04:23.022Z</time></trkpt><trkpt lat="42.121937" lon="13.6946168"><ele>807.8</ele><time>2026-05-03T09:04:25.034Z</time></trkpt><trkpt lat="42.1218733" lon="13.6946773"><ele>805.6</ele><time>2026-05-03T09:04:26.051Z</time></trkpt><trkpt lat="42.1217985" lon="13.6947338"><ele>803.4000000000001</ele><time>2026-05-03T09:04:27.026Z</time></trkpt><trkpt lat="42.1217123" lon="13.6947972"><ele>801.2</ele><time>2026-05-03T09:04:28.029Z</time></trkpt><trkpt lat="42.1216248" lon="13.6948521"><ele>799.0</ele><time>2026-05-03T09:04:29.029Z</time></trkpt><trkpt lat="42.121542" lon="13.6949101"><ele>799.0</ele><time>2026-05-03T09:04:30.042Z</time></trkpt><trkpt lat="42.1214623" lon="13.6949631"><ele>799.0</ele><time>2026-05-03T09:04:31.032Z</time></trkpt><trkpt lat="42.1213795" lon="13.6950184"><ele>799.0</ele><time>2026-05-03T09:04:32.045Z</time></trkpt><trkpt lat="42.1212922" lon="13.6950739"><ele>799.0</ele><time>2026-05-03T09:04:33.023Z</time></trkpt><trkpt lat="42.1212097" lon="13.6951344"><ele>799.0</ele><time>2026-05-03T09:04:34.05Z</time></trkpt><trkpt lat="42.1211241" lon="13.6951945"><ele>796.6</ele><time>2026-05-03T09:04:35.028Z</time></trkpt><trkpt lat="42.121042" lon="13.6952548"><ele>794.2</ele><time>2026-05-03T09:04:36.036Z</time></trkpt><trkpt lat="42.1209618" lon="13.6953166"><ele>791.8000000000001</ele><time>2026-05-03T09:04:37.028Z</time></trkpt><trkpt lat="42.1208833" lon="13.695377"><ele>789.4000000000001</ele><time>2026-05-03T09:04:38.039Z</time></trkpt><trkpt lat="42.1208037" lon="13.6954351"><ele>787.0</ele><time>2026-05-03T09:04:39.04Z</time></trkpt><trkpt lat="42.1207301" lon="13.6954897"><ele>787.0</ele><time>2026-05-03T09:04:40.04Z</time></trkpt><trkpt lat="42.1206725" lon="13.6955315"><ele>787.0</ele><time>2026-05-03T09:04:41.038Z</time></trkpt><trkpt lat="42.1206097" lon="13.6955772"><ele>787.0</ele><time>2026-05-03T09:04:43.034Z</time></trkpt><trkpt lat="42.1205337" lon="13.6956384"><ele>787.0</ele><time>2026-05-03T09:04:46.051Z</time></trkpt><trkpt lat="42.1204273" lon="13.695709"><ele>787.0</ele><time>2026-05-03T09:04:48.031Z</time></trkpt><trkpt lat="42.1203317" lon="13.6957744"><ele>786.9999999999999</ele><time>2026-05-03T09:04:50.042Z</time></trkpt><trkpt lat="42.1202302" lon="13.6958477"><ele>787.0</ele><time>2026-05-03T09:04:52.047Z</time></trkpt><trkpt lat="42.1201743" lon="13.6958884"><ele>787.0</ele><time>2026-05-03T09:04:53.04Z</time></trkpt><trkpt lat="42.1201201" lon="13.6959375"><ele>787.0</ele><time>2026-05-03T09:04:54.033Z</time></trkpt><trkpt lat="42.1200616" lon="13.6959906"><ele>786.9999999999999</ele><time>2026-05-03T09:04:55.024Z</time></trkpt><trkpt lat="42.119997" lon="13.6960361"><ele>787.0</ele><time>2026-05-03T09:04:56.044Z</time></trkpt><trkpt lat="42.1199256" lon="13.696087"><ele>785.1666666666666</ele><time>2026-05-03T09:04:57.021Z</time></trkpt><trkpt lat="42.1198554" lon="13.6961364"><ele>783.3333333333333</ele><time>2026-05-03T09:04:58.049Z</time></trkpt><trkpt lat="42.1197889" lon="13.696181"><ele>781.5</ele><time>2026-05-03T09:04:59.017Z</time></trkpt><trkpt lat="42.1197325" lon="13.696225"><ele>779.6666666666667</ele><time>2026-05-03T09:05:00.032Z</time></trkpt><trkpt lat="42.1196453" lon="13.6962899"><ele>777.8333333333334</ele><time>2026-05-03T09:05:02.045Z</time></trkpt><trkpt lat="42.1195975" lon="13.6963818"><ele>776.0</ele><time>2026-05-03T09:05:04.031Z</time></trkpt><trkpt lat="42.1195992" lon="13.6964875"><ele>776.0000000000001</ele><time>2026-05-03T09:05:06.03Z</time></trkpt><trkpt lat="42.11967" lon="13.6965744"><ele>776.0</ele><time>2026-05-03T09:05:08.038Z</time></trkpt><trkpt lat="42.1197792" lon="13.6965799"><ele>776.0</ele><time>2026-05-03T09:05:10.044Z</time></trkpt><trkpt lat="42.119846" lon="13.6965686"><ele>776.0</ele><time>2026-05-03T09:05:11.031Z</time></trkpt><trkpt lat="42.1199178" lon="13.69655"><ele>776.0000000000001</ele><time>2026-05-03T09:05:12.028Z</time></trkpt><trkpt lat="42.1199982" lon="13.6965358"><ele>776.0</ele><time>2026-05-03T09:05:13.037Z</time></trkpt><trkpt lat="42.1200808" lon="13.696524"><ele>774.6666666666667</ele><time>2026-05-03T09:05:14.034Z</time></trkpt><trkpt lat="42.1201609" lon="13.6965126"><ele>773.3333333333334</ele><time>2026-05-03T09:05:15.026Z</time></trkpt><trkpt lat="42.1202432" lon="13.6964988"><ele>772.0</ele><time>2026-05-03T09:05:16.057Z</time></trkpt><trkpt lat="42.1203247" lon="13.696489"><ele>770.6666666666667</ele><time>2026-05-03T09:05:17.032Z</time></trkpt><trkpt lat="42.1203982" lon="13.6964889"><ele>769.3333333333334</ele><time>2026-05-03T09:05:18.056Z</time></trkpt><trkpt lat="42.1204673" lon="13.696495"><ele>768.0</ele><time>2026-05-03T09:05:19.034Z</time></trkpt><trkpt lat="42.1205859" lon="13.6965129"><ele>768.0</ele><time>2026-05-03T09:05:21.031Z</time></trkpt><trkpt lat="42.1206695" lon="13.6965716"><ele>768.0</ele><time>2026-05-03T09:05:23.029Z</time></trkpt><trkpt lat="42.1206788" lon="13.6966799"><ele>768.0</ele><time>2026-05-03T09:05:25.031Z</time></trkpt><trkpt lat="42.1206112" lon="13.6967939"><ele>768.0</ele><time>2026-05-03T09:05:27.026Z</time></trkpt><trkpt lat="42.1205049" lon="13.6968795"><ele>768.0</ele><time>2026-05-03T09:05:29.052Z</time></trkpt><trkpt lat="42.1204464" lon="13.6969271"><ele>765.6666666666666</ele><time>2026-05-03T09:05:30.022Z</time></trkpt><trkpt lat="42.1203824" lon="13.6969834"><ele>763.3333333333334</ele><time>2026-05-03T09:05:31.037Z</time></trkpt><trkpt lat="42.1203149" lon="13.6970442"><ele>761.0</ele><time>2026-05-03T09:05:32.032Z</time></trkpt><trkpt lat="42.1202462" lon="13.6971074"><ele>758.6666666666667</ele><time>2026-05-03T09:05:33.031Z</time></trkpt><trkpt lat="42.1201775" lon="13.6971706"><ele>756.3333333333334</ele><time>2026-05-03T09:05:34.031Z</time></trkpt><trkpt lat="42.1201067" lon="13.6972309"><ele>754.0</ele><time>2026-05-03T09:05:35.046Z</time></trkpt><trkpt lat="42.1200364" lon="13.6972993"><ele>754.0</ele><time>2026-05-03T09:05:36.029Z</time></trkpt><trkpt lat="42.1199648" lon="13.6973633"><ele>754.0</ele><time>2026-05-03T09:05:37.03Z</time></trkpt><trkpt lat="42.1198921" lon="13.6974285"><ele>754.0</ele><time>2026-05-03T09:05:38.024Z</time></trkpt><trkpt lat="42.1198192" lon="13.6974905"><ele>754.0</ele><time>2026-05-03T09:05:39.037Z</time></trkpt><trkpt lat="42.1197443" lon="13.6975604"><ele>754.0</ele><time>2026-05-03T09:05:40.032Z</time></trkpt><trkpt lat="42.1196637" lon="13.6976302"><ele>754.0</ele><time>2026-05-03T09:05:41.038Z</time></trkpt><trkpt lat="42.1195868" lon="13.6976968"><ele>751.4000000000001</ele><time>2026-05-03T09:05:42.044Z</time></trkpt><trkpt lat="42.1195063" lon="13.6977634"><ele>748.8</ele><time>2026-05-03T09:05:43.029Z</time></trkpt><trkpt lat="42.1194323" lon="13.6978307"><ele>746.2</ele><time>2026-05-03T09:05:44.035Z</time></trkpt><trkpt lat="42.1193574" lon="13.697902"><ele>743.5999999999999</ele><time>2026-05-03T09:05:45.027Z</time></trkpt><trkpt lat="42.119283" lon="13.6979686"><ele>741.0</ele><time>2026-05-03T09:05:46.037Z</time></trkpt><trkpt lat="42.1192091" lon="13.6980266"><ele>741.0</ele><time>2026-05-03T09:05:47.034Z</time></trkpt><trkpt lat="42.1191328" lon="13.6980782"><ele>741.0</ele><time>2026-05-03T09:05:48.035Z</time></trkpt><trkpt lat="42.1190484" lon="13.6981122"><ele>741.0</ele><time>2026-05-03T09:05:49.04Z</time></trkpt><trkpt lat="42.1189608" lon="13.6981436"><ele>741.0</ele><time>2026-05-03T09:05:50.032Z</time></trkpt><trkpt lat="42.1188659" lon="13.6981639"><ele>741.0</ele><time>2026-05-03T09:05:51.031Z</time></trkpt><trkpt lat="42.1187722" lon="13.6981808"><ele>740.0</ele><time>2026-05-03T09:05:52.034Z</time></trkpt><trkpt lat="42.1186737" lon="13.6982036"><ele>739.0</ele><time>2026-05-03T09:05:53.028Z</time></trkpt><trkpt lat="42.118579" lon="13.6982341"><ele>738.0</ele><time>2026-05-03T09:05:54.047Z</time></trkpt><trkpt lat="42.1184832" lon="13.698267"><ele>737.0</ele><time>2026-05-03T09:05:55.031Z</time></trkpt><trkpt lat="42.1183874" lon="13.698305"><ele>736.0</ele><time>2026-05-03T09:05:56.039Z</time></trkpt><trkpt lat="42.11829" lon="13.6983444"><ele>736.0</ele><time>2026-05-03T09:05:57.027Z</time></trkpt><trkpt lat="42.1181953" lon="13.6983801"><ele>736.0</ele><time>2026-05-03T09:05:58.028Z</time></trkpt><trkpt lat="42.1181038" lon="13.6984184"><ele>736.0</ele><time>2026-05-03T09:05:59.036Z</time></trkpt><trkpt lat="42.1180104" lon="13.6984573"><ele>736.0</ele><time>2026-05-03T09:06:00.029Z</time></trkpt><trkpt lat="42.11792" lon="13.6984979"><ele>736.0</ele><time>2026-05-03T09:06:01.025Z</time></trkpt><trkpt lat="42.117832" lon="13.6985411"><ele>736.0</ele><time>2026-05-03T09:06:02.036Z</time></trkpt><trkpt lat="42.1177458" lon="13.6985844"><ele>736.0</ele><time>2026-05-03T09:06:03.041Z</time></trkpt><trkpt lat="42.117655" lon="13.6986288"><ele>736.0</ele><time>2026-05-03T09:06:04.028Z</time></trkpt><trkpt lat="42.1175671" lon="13.6986735"><ele>736.0</ele><time>2026-05-03T09:06:05.022Z</time></trkpt><trkpt lat="42.1174762" lon="13.6987138"><ele>736.0</ele><time>2026-05-03T09:06:06.029Z</time></trkpt><trkpt lat="42.1173855" lon="13.6987529"><ele>733.1666666666667</ele><time>2026-05-03T09:06:07.018Z</time></trkpt><trkpt lat="42.1172966" lon="13.6987885"><ele>730.3333333333334</ele><time>2026-05-03T09:06:08.045Z</time></trkpt><trkpt lat="42.1172137" lon="13.6988249"><ele>727.5</ele><time>2026-05-03T09:06:09.025Z</time></trkpt><trkpt lat="42.1171289" lon="13.6988703"><ele>724.6666666666666</ele><time>2026-05-03T09:06:10.039Z</time></trkpt><trkpt lat="42.1170484" lon="13.6989187"><ele>721.8333333333333</ele><time>2026-05-03T09:06:11.031Z</time></trkpt><trkpt lat="42.1169662" lon="13.6989603"><ele>719.0</ele><time>2026-05-03T09:06:12.032Z</time></trkpt><trkpt lat="42.1168841" lon="13.699003"><ele>718.9999999999999</ele><time>2026-05-03T09:06:13.026Z</time></trkpt><trkpt lat="42.1168052" lon="13.6990485"><ele>719.0</ele><time>2026-05-03T09:06:14.027Z</time></trkpt><trkpt lat="42.1167295" lon="13.6990818"><ele>719.0</ele><time>2026-05-03T09:06:15.034Z</time></trkpt><trkpt lat="42.1166594" lon="13.6991155"><ele>719.0</ele><time>2026-05-03T09:06:16.03Z</time></trkpt><trkpt lat="42.116593" lon="13.6991541"><ele>719.0</ele><time>2026-05-03T09:06:17.035Z</time></trkpt><trkpt lat="42.1165289" lon="13.6991903"><ele>718.9999999999999</ele><time>2026-05-03T09:06:18.033Z</time></trkpt><trkpt lat="42.1164687" lon="13.6992258"><ele>719.0</ele><time>2026-05-03T09:06:19.034Z</time></trkpt><trkpt lat="42.1163779" lon="13.6993079"><ele>720.3333333333333</ele><time>2026-05-03T09:06:21.042Z</time></trkpt><trkpt lat="42.1163329" lon="13.6994151"><ele>721.6666666666666</ele><time>2026-05-03T09:06:23.014Z</time></trkpt><trkpt lat="42.1163615" lon="13.6995224"><ele>723.0</ele><time>2026-05-03T09:06:25.027Z</time></trkpt><trkpt lat="42.1164655" lon="13.699561"><ele>724.3333333333334</ele><time>2026-05-03T09:06:27.026Z</time></trkpt><trkpt lat="42.1165292" lon="13.6995571"><ele>725.6666666666667</ele><time>2026-05-03T09:06:28.03Z</time></trkpt><trkpt lat="42.1165997" lon="13.6995451"><ele>727.0</ele><time>2026-05-03T09:06:29.033Z</time></trkpt><trkpt lat="42.1166814" lon="13.6995332"><ele>722.3333333333334</ele><time>2026-05-03T09:06:30.025Z</time></trkpt><trkpt lat="42.1167717" lon="13.6995308"><ele>717.6666666666667</ele><time>2026-05-03T09:06:31.031Z</time></trkpt><trkpt lat="42.1168599" lon="13.6995284"><ele>713.0</ele><time>2026-05-03T09:06:32.024Z</time></trkpt><trkpt lat="42.116949" lon="13.6995233"><ele>708.3333333333334</ele><time>2026-05-03T09:06:33.023Z</time></trkpt><trkpt lat="42.1170366" lon="13.6995176"><ele>703.6666666666666</ele><time>2026-05-03T09:06:34.03Z</time></trkpt><trkpt lat="42.1171182" lon="13.6995215"><ele>699.0</ele><time>2026-05-03T09:06:35.028Z</time></trkpt><trkpt lat="42.1171949" lon="13.6995303"><ele>699.0</ele><time>2026-05-03T09:06:36.03Z</time></trkpt><trkpt lat="42.1172676" lon="13.6995372"><ele>699.0</ele><time>2026-05-03T09:06:37.027Z</time></trkpt><trkpt lat="42.1173344" lon="13.6995472"><ele>699.0</ele><time>2026-05-03T09:06:38.034Z</time></trkpt><trkpt lat="42.1174314" lon="13.6995944"><ele>699.0</ele><time>2026-05-03T09:06:40.041Z</time></trkpt><trkpt lat="42.1174648" lon="13.6996881"><ele>699.0</ele><time>2026-05-03T09:06:42.018Z</time></trkpt><trkpt lat="42.1174102" lon="13.6997915"><ele>699.0</ele><time>2026-05-03T09:06:44.047Z</time></trkpt><trkpt lat="42.1173023" lon="13.699868"><ele>699.0</ele><time>2026-05-03T09:06:46.029Z</time></trkpt><trkpt lat="42.1172389" lon="13.6999104"><ele>699.0</ele><time>2026-05-03T09:06:47.038Z</time></trkpt><trkpt lat="42.1171692" lon="13.6999493"><ele>699.0</ele><time>2026-05-03T09:06:48.042Z</time></trkpt><trkpt lat="42.117098" lon="13.6999954"><ele>699.0</ele><time>2026-05-03T09:06:49.029Z</time></trkpt><trkpt lat="42.1170278" lon="13.7000419"><ele>699.0</ele><time>2026-05-03T09:06:50.041Z</time></trkpt><trkpt lat="42.1169574" lon="13.7000875"><ele>699.0</ele><time>2026-05-03T09:06:51.026Z</time></trkpt><trkpt lat="42.1168847" lon="13.7001377"><ele>699.0</ele><time>2026-05-03T09:06:52.031Z</time></trkpt><trkpt lat="42.1168128" lon="13.7001828"><ele>699.0</ele><time>2026-05-03T09:06:53.027Z</time></trkpt><trkpt lat="42.1167414" lon="13.7002282"><ele>699.0</ele><time>2026-05-03T09:06:54.04Z</time></trkpt><trkpt lat="42.1166734" lon="13.7002766"><ele>699.0</ele><time>2026-05-03T09:06:55.034Z</time></trkpt><trkpt lat="42.1166088" lon="13.7003315"><ele>699.0</ele><time>2026-05-03T09:06:56.03Z</time></trkpt><trkpt lat="42.1165447" lon="13.7003801"><ele>699.0</ele><time>2026-05-03T09:06:57.031Z</time></trkpt><trkpt lat="42.1164783" lon="13.7004339"><ele>697.5</ele><time>2026-05-03T09:06:58.028Z</time></trkpt><trkpt lat="42.1164042" lon="13.7004959"><ele>696.0</ele><time>2026-05-03T09:06:59.03Z</time></trkpt><trkpt lat="42.1163315" lon="13.7005556"><ele>694.5</ele><time>2026-05-03T09:07:00.035Z</time></trkpt><trkpt lat="42.1162584" lon="13.7006204"><ele>693.0</ele><time>2026-05-03T09:07:01.036Z</time></trkpt><trkpt lat="42.1161886" lon="13.70068"><ele>691.5</ele><time>2026-05-03T09:07:02.049Z</time></trkpt><trkpt lat="42.11612" lon="13.7007333"><ele>690.0</ele><time>2026-05-03T09:07:03.026Z</time></trkpt><trkpt lat="42.1160553" lon="13.7007923"><ele>690.0</ele><time>2026-05-03T09:07:04.045Z</time></trkpt><trkpt lat="42.1159905" lon="13.7008534"><ele>690.0</ele><time>2026-05-03T09:07:05.033Z</time></trkpt><trkpt lat="42.1159226" lon="13.7009091"><ele>690.0</ele><time>2026-05-03T09:07:06.028Z</time></trkpt><trkpt lat="42.1158612" lon="13.7009621"><ele>690.0</ele><time>2026-05-03T09:07:07.031Z</time></trkpt><trkpt lat="42.1158046" lon="13.7010193"><ele>690.0</ele><time>2026-05-03T09:07:08.031Z</time></trkpt><trkpt lat="42.1157553" lon="13.7010768"><ele>690.0</ele><time>2026-05-03T09:07:09.039Z</time></trkpt><trkpt lat="42.1156981" lon="13.7011941"><ele>690.2</ele><time>2026-05-03T09:07:11.031Z</time></trkpt><trkpt lat="42.115704" lon="13.7013237"><ele>690.4</ele><time>2026-05-03T09:07:13.031Z</time></trkpt><trkpt lat="42.1157828" lon="13.7014247"><ele>690.5999999999999</ele><time>2026-05-03T09:07:15.029Z</time></trkpt><trkpt lat="42.1158903" lon="13.7014419"><ele>690.8</ele><time>2026-05-03T09:07:17.035Z</time></trkpt><trkpt lat="42.1160024" lon="13.7014018"><ele>691.0</ele><time>2026-05-03T09:07:19.02Z</time></trkpt><trkpt lat="42.1160671" lon="13.7013725"><ele>689.0</ele><time>2026-05-03T09:07:20.039Z</time></trkpt><trkpt lat="42.1161436" lon="13.7013447"><ele>687.0</ele><time>2026-05-03T09:07:21.021Z</time></trkpt><trkpt lat="42.116226" lon="13.7013162"><ele>685.0</ele><time>2026-05-03T09:07:22.031Z</time></trkpt><trkpt lat="42.1163057" lon="13.701296"><ele>683.0</ele><time>2026-05-03T09:07:23.018Z</time></trkpt><trkpt lat="42.1163823" lon="13.7012739"><ele>681.0</ele><time>2026-05-03T09:07:24.034Z</time></trkpt><trkpt lat="42.1164583" lon="13.7012576"><ele>679.0</ele><time>2026-05-03T09:07:25.032Z</time></trkpt><trkpt lat="42.1165364" lon="13.7012389"><ele>677.2857142857143</ele><time>2026-05-03T09:07:26.034Z</time></trkpt><trkpt lat="42.1166173" lon="13.7012192"><ele>675.5714285714286</ele><time>2026-05-03T09:07:27.041Z</time></trkpt><trkpt lat="42.1166947" lon="13.7011903"><ele>673.8571428571429</ele><time>2026-05-03T09:07:28.028Z</time></trkpt><trkpt lat="42.1167639" lon="13.7011661"><ele>672.1428571428571</ele><time>2026-05-03T09:07:29.023Z</time></trkpt><trkpt lat="42.1168331" lon="13.7011495"><ele>670.4285714285714</ele><time>2026-05-03T09:07:30.027Z</time></trkpt><trkpt lat="42.1169022" lon="13.7011375"><ele>668.7142857142858</ele><time>2026-05-03T09:07:31.026Z</time></trkpt><trkpt lat="42.1169738" lon="13.7011333"><ele>667.0</ele><time>2026-05-03T09:07:32.023Z</time></trkpt><trkpt lat="42.1170459" lon="13.7011326"><ele>667.0</ele><time>2026-05-03T09:07:33.022Z</time></trkpt><trkpt lat="42.1171157" lon="13.7011362"><ele>667.0</ele><time>2026-05-03T09:07:34.033Z</time></trkpt><trkpt lat="42.1171808" lon="13.7011501"><ele>667.0</ele><time>2026-05-03T09:07:35.026Z</time></trkpt><trkpt lat="42.1172936" lon="13.7012359"><ele>667.0</ele><time>2026-05-03T09:07:37.029Z</time></trkpt><trkpt lat="42.1173486" lon="13.7012906"><ele>667.0</ele><time>2026-05-03T09:07:38.034Z</time></trkpt><trkpt lat="42.1173974" lon="13.701353"><ele>667.0</ele><time>2026-05-03T09:07:39.042Z</time></trkpt><trkpt lat="42.1174495" lon="13.701422"><ele>666.8571428571429</ele><time>2026-05-03T09:07:40.031Z</time></trkpt><trkpt lat="42.1174951" lon="13.7014956"><ele>666.7142857142858</ele><time>2026-05-03T09:07:41.027Z</time></trkpt><trkpt lat="42.1175381" lon="13.7015703"><ele>666.5714285714287</ele><time>2026-05-03T09:07:42.03Z</time></trkpt><trkpt lat="42.1175857" lon="13.7016405"><ele>666.4285714285714</ele><time>2026-05-03T09:07:43.026Z</time></trkpt><trkpt lat="42.1176356" lon="13.7017084"><ele>666.2857142857142</ele><time>2026-05-03T09:07:44.025Z</time></trkpt><trkpt lat="42.1176791" lon="13.7017737"><ele>666.1428571428572</ele><time>2026-05-03T09:07:45.028Z</time></trkpt><trkpt lat="42.1177269" lon="13.7018359"><ele>666.0</ele><time>2026-05-03T09:07:46.027Z</time></trkpt><trkpt lat="42.1177805" lon="13.7018981"><ele>664.0</ele><time>2026-05-03T09:07:47.019Z</time></trkpt><trkpt lat="42.1178342" lon="13.7019587"><ele>662.0</ele><time>2026-05-03T09:07:48.033Z</time></trkpt><trkpt lat="42.117886" lon="13.7020265"><ele>660.0</ele><time>2026-05-03T09:07:49.031Z</time></trkpt><trkpt lat="42.1179398" lon="13.7020927"><ele>658.0</ele><time>2026-05-03T09:07:50.04Z</time></trkpt><trkpt lat="42.1179914" lon="13.7021626"><ele>656.0</ele><time>2026-05-03T09:07:51.036Z</time></trkpt><trkpt lat="42.1180444" lon="13.7022228"><ele>654.0</ele><time>2026-05-03T09:07:52.034Z</time></trkpt><trkpt lat="42.1180988" lon="13.7022863"><ele>652.0</ele><time>2026-05-03T09:07:53.033Z</time></trkpt><trkpt lat="42.1181483" lon="13.7023433"><ele>652.0</ele><time>2026-05-03T09:07:54.03Z</time></trkpt><trkpt lat="42.1182048" lon="13.7023912"><ele>652.0</ele><time>2026-05-03T09:07:55.033Z</time></trkpt><trkpt lat="42.1182606" lon="13.7024366"><ele>652.0</ele><time>2026-05-03T09:07:56.043Z</time></trkpt><trkpt lat="42.1183628" lon="13.7024962"><ele>652.0</ele><time>2026-05-03T09:07:58.027Z</time></trkpt><trkpt lat="42.1184662" lon="13.7025638"><ele>652.0</ele><time>2026-05-03T09:08:00.028Z</time></trkpt><trkpt lat="42.1185285" lon="13.7025859"><ele>652.0</ele><time>2026-05-03T09:08:01.027Z</time></trkpt><trkpt lat="42.1185974" lon="13.702605"><ele>653.1666666666667</ele><time>2026-05-03T09:08:02.032Z</time></trkpt><trkpt lat="42.1186743" lon="13.7026096"><ele>654.3333333333334</ele><time>2026-05-03T09:08:03.036Z</time></trkpt><trkpt lat="42.1187503" lon="13.7026051"><ele>655.5</ele><time>2026-05-03T09:08:04.027Z</time></trkpt><trkpt lat="42.1188262" lon="13.7025932"><ele>656.6666666666666</ele><time>2026-05-03T09:08:05.026Z</time></trkpt><trkpt lat="42.1189012" lon="13.7025719"><ele>657.8333333333333</ele><time>2026-05-03T09:08:06.025Z</time></trkpt><trkpt lat="42.1189764" lon="13.7025375"><ele>659.0</ele><time>2026-05-03T09:08:07.027Z</time></trkpt><trkpt lat="42.1190462" lon="13.7024991"><ele>658.0</ele><time>2026-05-03T09:08:08.03Z</time></trkpt><trkpt lat="42.1191231" lon="13.7024548"><ele>657.0</ele><time>2026-05-03T09:08:09.022Z</time></trkpt><trkpt lat="42.1192016" lon="13.7024105"><ele>656.0</ele><time>2026-05-03T09:08:10.036Z</time></trkpt><trkpt lat="42.1192796" lon="13.7023686"><ele>655.0</ele><time>2026-05-03T09:08:11.02Z</time></trkpt><trkpt lat="42.1193551" lon="13.7023243"><ele>654.0</ele><time>2026-05-03T09:08:12.034Z</time></trkpt><trkpt lat="42.1194314" lon="13.7022831"><ele>653.0</ele><time>2026-05-03T09:08:13.023Z</time></trkpt><trkpt lat="42.1195066" lon="13.7022435"><ele>653.0</ele><time>2026-05-03T09:08:14.031Z</time></trkpt><trkpt lat="42.1195802" lon="13.7022038"><ele>653.0</ele><time>2026-05-03T09:08:15.023Z</time></trkpt><trkpt lat="42.1196521" lon="13.7021623"><ele>653.0</ele><time>2026-05-03T09:08:16.028Z</time></trkpt><trkpt lat="42.1197266" lon="13.7021176"><ele>653.0</ele><time>2026-05-03T09:08:17.02Z</time></trkpt><trkpt lat="42.1197997" lon="13.702069"><ele>653.0</ele><time>2026-05-03T09:08:18.026Z</time></trkpt><trkpt lat="42.1198749" lon="13.7020193"><ele>653.0</ele><time>2026-05-03T09:08:19.026Z</time></trkpt><trkpt lat="42.1199466" lon="13.7019667"><ele>654.0</ele><time>2026-05-03T09:08:20.025Z</time></trkpt><trkpt lat="42.1200241" lon="13.7019128"><ele>655.0</ele><time>2026-05-03T09:08:21.026Z</time></trkpt><trkpt lat="42.1200994" lon="13.7018562"><ele>656.0</ele><time>2026-05-03T09:08:22.02Z</time></trkpt><trkpt lat="42.1201757" lon="13.7017985"><ele>657.0</ele><time>2026-05-03T09:08:23.028Z</time></trkpt><trkpt lat="42.1202486" lon="13.7017417"><ele>658.0</ele><time>2026-05-03T09:08:24.029Z</time></trkpt><trkpt lat="42.1203232" lon="13.7016845"><ele>659.0</ele><time>2026-05-03T09:08:25.021Z</time></trkpt><trkpt lat="42.1203923" lon="13.7016226"><ele>659.0</ele><time>2026-05-03T09:08:26.025Z</time></trkpt><trkpt lat="42.1204622" lon="13.7015636"><ele>659.0</ele><time>2026-05-03T09:08:27.01Z</time></trkpt><trkpt lat="42.1205249" lon="13.7015021"><ele>659.0</ele><time>2026-05-03T09:08:28.044Z</time></trkpt><trkpt lat="42.1205923" lon="13.7014395"><ele>659.0</ele><time>2026-05-03T09:08:29.032Z</time></trkpt><trkpt lat="42.1206557" lon="13.7013753"><ele>659.0</ele><time>2026-05-03T09:08:30.034Z</time></trkpt><trkpt lat="42.1207219" lon="13.7013147"><ele>659.0</ele><time>2026-05-03T09:08:31.035Z</time></trkpt><trkpt lat="42.1207849" lon="13.7012525"><ele>659.0</ele><time>2026-05-03T09:08:32.036Z</time></trkpt><trkpt lat="42.1208496" lon="13.7011914"><ele>659.0</ele><time>2026-05-03T09:08:33.049Z</time></trkpt><trkpt lat="42.1209093" lon="13.7011307"><ele>659.0</ele><time>2026-05-03T09:08:34.022Z</time></trkpt><trkpt lat="42.1209724" lon="13.7010705"><ele>659.0</ele><time>2026-05-03T09:08:35.024Z</time></trkpt><trkpt lat="42.1210345" lon="13.7010097"><ele>659.0</ele><time>2026-05-03T09:08:36.027Z</time></trkpt><trkpt lat="42.1210918" lon="13.7009542"><ele>659.0</ele><time>2026-05-03T09:08:37.028Z</time></trkpt><trkpt lat="42.1211462" lon="13.7009033"><ele>659.0</ele><time>2026-05-03T09:08:38.03Z</time></trkpt><trkpt lat="42.1212482" lon="13.7008037"><ele>659.0</ele><time>2026-05-03T09:08:40.036Z</time></trkpt><trkpt lat="42.1213049" lon="13.7007597"><ele>659.0</ele><time>2026-05-03T09:08:41.024Z</time></trkpt><trkpt lat="42.1213637" lon="13.7007153"><ele>659.0</ele><time>2026-05-03T09:08:42.032Z</time></trkpt><trkpt lat="42.1214246" lon="13.7006771"><ele>659.0</ele><time>2026-05-03T09:08:43.022Z</time></trkpt><trkpt lat="42.1214855" lon="13.7006309"><ele>659.0</ele><time>2026-05-03T09:08:44.028Z</time></trkpt><trkpt lat="42.1215481" lon="13.7005901"><ele>659.0</ele><time>2026-05-03T09:08:45.037Z</time></trkpt><trkpt lat="42.1216134" lon="13.700551"><ele>659.0</ele><time>2026-05-03T09:08:46.026Z</time></trkpt><trkpt lat="42.1216798" lon="13.7005157"><ele>659.0</ele><time>2026-05-03T09:08:47.048Z</time></trkpt><trkpt lat="42.1217468" lon="13.70048"><ele>659.0</ele><time>2026-05-03T09:08:48.023Z</time></trkpt><trkpt lat="42.1218104" lon="13.7004453"><ele>659.0</ele><time>2026-05-03T09:08:49.019Z</time></trkpt><trkpt lat="42.1218769" lon="13.7004101"><ele>659.0</ele><time>2026-05-03T09:08:50.031Z</time></trkpt><trkpt lat="42.1219455" lon="13.7003671"><ele>659.0</ele><time>2026-05-03T09:08:51.037Z</time></trkpt><trkpt lat="42.1220176" lon="13.7003241"><ele>659.0</ele><time>2026-05-03T09:08:52.029Z</time></trkpt><trkpt lat="42.1220922" lon="13.7002771"><ele>659.0</ele><time>2026-05-03T09:08:53.021Z</time></trkpt><trkpt lat="42.1221665" lon="13.7002237"><ele>659.0</ele><time>2026-05-03T09:08:54.048Z</time></trkpt><trkpt lat="42.1222421" lon="13.7001717"><ele>659.0</ele><time>2026-05-03T09:08:55.016Z</time></trkpt><trkpt lat="42.122317" lon="13.7001162"><ele>659.0</ele><time>2026-05-03T09:08:56.028Z</time></trkpt><trkpt lat="42.1223895" lon="13.7000647"><ele>659.0</ele><time>2026-05-03T09:08:57.026Z</time></trkpt><trkpt lat="42.1224613" lon="13.7000072"><ele>659.0</ele><time>2026-05-03T09:08:58.031Z</time></trkpt><trkpt lat="42.1225327" lon="13.6999444"><ele>659.0</ele><time>2026-05-03T09:08:59.024Z</time></trkpt><trkpt lat="42.1226094" lon="13.6998865"><ele>658.1666666666666</ele><time>2026-05-03T09:09:00.035Z</time></trkpt><trkpt lat="42.1226859" lon="13.6998361"><ele>657.3333333333333</ele><time>2026-05-03T09:09:01.04Z</time></trkpt><trkpt lat="42.122763" lon="13.6997863"><ele>656.5</ele><time>2026-05-03T09:09:02.042Z</time></trkpt><trkpt lat="42.1228372" lon="13.6997418"><ele>655.6666666666666</ele><time>2026-05-03T09:09:03.041Z</time></trkpt><trkpt lat="42.1229068" lon="13.6996979"><ele>654.8333333333334</ele><time>2026-05-03T09:09:04.03Z</time></trkpt><trkpt lat="42.1229826" lon="13.6996588"><ele>654.0</ele><time>2026-05-03T09:09:05.039Z</time></trkpt><trkpt lat="42.1230523" lon="13.6996241"><ele>654.0</ele><time>2026-05-03T09:09:06.036Z</time></trkpt><trkpt lat="42.1231217" lon="13.6995835"><ele>654.0</ele><time>2026-05-03T09:09:07.047Z</time></trkpt><trkpt lat="42.1231956" lon="13.6995462"><ele>654.0</ele><time>2026-05-03T09:09:08.026Z</time></trkpt><trkpt lat="42.1232683" lon="13.6995141"><ele>654.0</ele><time>2026-05-03T09:09:09.037Z</time></trkpt><trkpt lat="42.1233348" lon="13.6994794"><ele>654.0</ele><time>2026-05-03T09:09:10.031Z</time></trkpt><trkpt lat="42.1234021" lon="13.6994453"><ele>654.0</ele><time>2026-05-03T09:09:11.023Z</time></trkpt><trkpt lat="42.1234689" lon="13.6994088"><ele>654.0</ele><time>2026-05-03T09:09:12.057Z</time></trkpt><trkpt lat="42.1235316" lon="13.6993696"><ele>655.1428571428571</ele><time>2026-05-03T09:09:13.026Z</time></trkpt><trkpt lat="42.1235986" lon="13.6993411"><ele>656.2857142857143</ele><time>2026-05-03T09:09:14.031Z</time></trkpt><trkpt lat="42.1236669" lon="13.6993219"><ele>657.4285714285714</ele><time>2026-05-03T09:09:15.029Z</time></trkpt><trkpt lat="42.1237323" lon="13.6993038"><ele>658.5714285714286</ele><time>2026-05-03T09:09:16.034Z</time></trkpt><trkpt lat="42.1238008" lon="13.6992898"><ele>659.7142857142857</ele><time>2026-05-03T09:09:17.018Z</time></trkpt><trkpt lat="42.1238704" lon="13.6992796"><ele>660.8571428571429</ele><time>2026-05-03T09:09:18.043Z</time></trkpt><trkpt lat="42.1239386" lon="13.6992744"><ele>662.0</ele><time>2026-05-03T09:09:19.034Z</time></trkpt><trkpt lat="42.1240096" lon="13.6992666"><ele>661.8333333333333</ele><time>2026-05-03T09:09:20.034Z</time></trkpt><trkpt lat="42.1240781" lon="13.6992557"><ele>661.6666666666666</ele><time>2026-05-03T09:09:21.028Z</time></trkpt><trkpt lat="42.1241498" lon="13.699244"><ele>661.5</ele><time>2026-05-03T09:09:22.039Z</time></trkpt><trkpt lat="42.1242172" lon="13.6992339"><ele>661.3333333333334</ele><time>2026-05-03T09:09:23.041Z</time></trkpt><trkpt lat="42.1242875" lon="13.6992277"><ele>661.1666666666667</ele><time>2026-05-03T09:09:24.045Z</time></trkpt><trkpt lat="42.1243572" lon="13.6992226"><ele>661.0</ele><time>2026-05-03T09:09:25.032Z</time></trkpt><trkpt lat="42.1244779" lon="13.6992397"><ele>661.0</ele><time>2026-05-03T09:09:27.027Z</time></trkpt><trkpt lat="42.1245421" lon="13.6992482"><ele>661.0</ele><time>2026-05-03T09:09:28.06Z</time></trkpt><trkpt lat="42.1246058" lon="13.699249"><ele>661.0</ele><time>2026-05-03T09:09:29.029Z</time></trkpt><trkpt lat="42.1247297" lon="13.6992764"><ele>661.0</ele><time>2026-05-03T09:09:31.025Z</time></trkpt><trkpt lat="42.1247947" lon="13.6992875"><ele>661.0</ele><time>2026-05-03T09:09:32.036Z</time></trkpt><trkpt lat="42.1248616" lon="13.6993062"><ele>661.0</ele><time>2026-05-03T09:09:33.04Z</time></trkpt><trkpt lat="42.1249299" lon="13.6993302"><ele>661.0</ele><time>2026-05-03T09:09:34.042Z</time></trkpt><trkpt lat="42.1249981" lon="13.6993566"><ele>661.0</ele><time>2026-05-03T09:09:35.025Z</time></trkpt><trkpt lat="42.125064" lon="13.6993782"><ele>661.0</ele><time>2026-05-03T09:09:36.02Z</time></trkpt><trkpt lat="42.1251825" lon="13.6994238"><ele>661.0</ele><time>2026-05-03T09:09:38.041Z</time></trkpt><trkpt lat="42.1252783" lon="13.6994429"><ele>661.0</ele><time>2026-05-03T09:09:40.042Z</time></trkpt><trkpt lat="42.1253651" lon="13.6993986"><ele>661.0</ele><time>2026-05-03T09:09:42.044Z</time></trkpt><trkpt lat="42.1254571" lon="13.6993761"><ele>661.0</ele><time>2026-05-03T09:09:44.023Z</time></trkpt><trkpt lat="42.1255639" lon="13.6993499"><ele>661.0</ele><time>2026-05-03T09:09:46.03Z</time></trkpt><trkpt lat="42.125682" lon="13.6993697"><ele>661.0</ele><time>2026-05-03T09:09:48.014Z</time></trkpt><trkpt lat="42.1258009" lon="13.6994189"><ele>661.0</ele><time>2026-05-03T09:09:50.042Z</time></trkpt><trkpt lat="42.1259177" lon="13.699447"><ele>659.5999999999999</ele><time>2026-05-03T09:09:52.03Z</time></trkpt><trkpt lat="42.1260301" lon="13.6994747"><ele>658.2</ele><time>2026-05-03T09:09:54.028Z</time></trkpt><trkpt lat="42.1261332" lon="13.6994877"><ele>656.8</ele><time>2026-05-03T09:09:56.038Z</time></trkpt><trkpt lat="42.1262218" lon="13.699507"><ele>655.4000000000001</ele><time>2026-05-03T09:09:58.038Z</time></trkpt><trkpt lat="42.126296" lon="13.6995309"><ele>654.0</ele><time>2026-05-03T09:10:00.043Z</time></trkpt><trkpt lat="42.1263551" lon="13.6996149"><ele>654.0</ele><time>2026-05-03T09:10:02.027Z</time></trkpt><trkpt lat="42.1263748" lon="13.6997657"><ele>654.0</ele><time>2026-05-03T09:10:04.029Z</time></trkpt><trkpt lat="42.1263701" lon="13.6998612"><ele>654.0</ele><time>2026-05-03T09:10:05.025Z</time></trkpt><trkpt lat="42.1263644" lon="13.6999487"><ele>654.0</ele><time>2026-05-03T09:10:06.041Z</time></trkpt><trkpt lat="42.126352" lon="13.7000353"><ele>654.0</ele><time>2026-05-03T09:10:07.019Z</time></trkpt><trkpt lat="42.1263395" lon="13.7001238"><ele>654.0</ele><time>2026-05-03T09:10:08.038Z</time></trkpt><trkpt lat="42.1263161" lon="13.7002915"><ele>652.8333333333334</ele><time>2026-05-03T09:10:10.032Z</time></trkpt><trkpt lat="42.126287" lon="13.7004591"><ele>651.6666666666666</ele><time>2026-05-03T09:10:12.032Z</time></trkpt><trkpt lat="42.126268" lon="13.7005953"><ele>650.5</ele><time>2026-05-03T09:10:14.029Z</time></trkpt><trkpt lat="42.126243" lon="13.7006798"><ele>649.3333333333333</ele><time>2026-05-03T09:10:16.025Z</time></trkpt><trkpt lat="42.1261851" lon="13.7007221"><ele>648.1666666666666</ele><time>2026-05-03T09:10:18.037Z</time></trkpt><trkpt lat="42.1261222" lon="13.7007498"><ele>647.0</ele><time>2026-05-03T09:10:20.024Z</time></trkpt><trkpt lat="42.1260699" lon="13.7008628"><ele>647.0</ele><time>2026-05-03T09:10:22.026Z</time></trkpt><trkpt lat="42.1260449" lon="13.7009433"><ele>647.0</ele><time>2026-05-03T09:10:23.027Z</time></trkpt><trkpt lat="42.1260215" lon="13.7010257"><ele>647.0</ele><time>2026-05-03T09:10:24.023Z</time></trkpt><trkpt lat="42.1260017" lon="13.701107"><ele>647.0</ele><time>2026-05-03T09:10:25.027Z</time></trkpt><trkpt lat="42.1259891" lon="13.7011932"><ele>647.0</ele><time>2026-05-03T09:10:26.037Z</time></trkpt><trkpt lat="42.1259927" lon="13.7012785"><ele>647.0</ele><time>2026-05-03T09:10:27.026Z</time></trkpt><trkpt lat="42.1260094" lon="13.701367"><ele>647.0</ele><time>2026-05-03T09:10:28.027Z</time></trkpt><trkpt lat="42.1260338" lon="13.7014529"><ele>646.0</ele><time>2026-05-03T09:10:29.026Z</time></trkpt><trkpt lat="42.1260678" lon="13.7015313"><ele>645.0</ele><time>2026-05-03T09:10:30.041Z</time></trkpt><trkpt lat="42.1261136" lon="13.7015913"><ele>644.0</ele><time>2026-05-03T09:10:31.029Z</time></trkpt><trkpt lat="42.1261695" lon="13.7016392"><ele>643.0</ele><time>2026-05-03T09:10:32.022Z</time></trkpt><trkpt lat="42.1262393" lon="13.7016703"><ele>642.0</ele><time>2026-05-03T09:10:33.024Z</time></trkpt><trkpt lat="42.1263135" lon="13.7016887"><ele>641.0</ele><time>2026-05-03T09:10:34.028Z</time></trkpt><trkpt lat="42.1263818" lon="13.7017007"><ele>640.0</ele><time>2026-05-03T09:10:35.019Z</time></trkpt><trkpt lat="42.1264526" lon="13.7017205"><ele>640.0</ele><time>2026-05-03T09:10:36.028Z</time></trkpt><trkpt lat="42.1265183" lon="13.7017411"><ele>640.0</ele><time>2026-05-03T09:10:37.024Z</time></trkpt><trkpt lat="42.1265888" lon="13.7017633"><ele>640.0</ele><time>2026-05-03T09:10:38.032Z</time></trkpt><trkpt lat="42.1266567" lon="13.7017827"><ele>640.0</ele><time>2026-05-03T09:10:39.025Z</time></trkpt><trkpt lat="42.1267306" lon="13.7017944"><ele>640.0</ele><time>2026-05-03T09:10:40.029Z</time></trkpt><trkpt lat="42.1268021" lon="13.7017864"><ele>640.0</ele><time>2026-05-03T09:10:41.038Z</time></trkpt><trkpt lat="42.1268667" lon="13.7017636"><ele>640.0</ele><time>2026-05-03T09:10:42.036Z</time></trkpt><trkpt lat="42.126929" lon="13.701734"><ele>640.5</ele><time>2026-05-03T09:10:43.048Z</time></trkpt><trkpt lat="42.1269926" lon="13.7017124"><ele>641.0</ele><time>2026-05-03T09:10:44.028Z</time></trkpt><trkpt lat="42.1270577" lon="13.7016898"><ele>641.5</ele><time>2026-05-03T09:10:45.034Z</time></trkpt><trkpt lat="42.1271288" lon="13.7016666"><ele>642.0</ele><time>2026-05-03T09:10:46.032Z</time></trkpt><trkpt lat="42.1272435" lon="13.7016213"><ele>642.5</ele><time>2026-05-03T09:10:48.028Z</time></trkpt><trkpt lat="42.1273399" lon="13.7015735"><ele>643.0</ele><time>2026-05-03T09:10:50.036Z</time></trkpt><trkpt lat="42.1274509" lon="13.7015084"><ele>643.0</ele><time>2026-05-03T09:10:52.029Z</time></trkpt><trkpt lat="42.1275282" lon="13.7014792"><ele>643.0</ele><time>2026-05-03T09:10:53.026Z</time></trkpt><trkpt lat="42.1275998" lon="13.7014285"><ele>643.0</ele><time>2026-05-03T09:10:54.028Z</time></trkpt><trkpt lat="42.1276714" lon="13.7013664"><ele>643.0</ele><time>2026-05-03T09:10:55.04Z</time></trkpt><trkpt lat="42.1277442" lon="13.7012997"><ele>643.0</ele><time>2026-05-03T09:10:56.028Z</time></trkpt><trkpt lat="42.1278183" lon="13.7012323"><ele>643.0</ele><time>2026-05-03T09:10:57.037Z</time></trkpt><trkpt lat="42.1278944" lon="13.7011606"><ele>643.0</ele><time>2026-05-03T09:10:58.04Z</time></trkpt><trkpt lat="42.1279724" lon="13.7010856"><ele>643.0</ele><time>2026-05-03T09:10:59.033Z</time></trkpt><trkpt lat="42.1280516" lon="13.7010044"><ele>643.0</ele><time>2026-05-03T09:11:00.033Z</time></trkpt><trkpt lat="42.1281273" lon="13.7009205"><ele>643.0</ele><time>2026-05-03T09:11:01.028Z</time></trkpt><trkpt lat="42.1282035" lon="13.7008433"><ele>643.0</ele><time>2026-05-03T09:11:02.027Z</time></trkpt><trkpt lat="42.1282717" lon="13.7007674"><ele>645.0</ele><time>2026-05-03T09:11:03.023Z</time></trkpt><trkpt lat="42.1283433" lon="13.7006962"><ele>647.0</ele><time>2026-05-03T09:11:04.026Z</time></trkpt><trkpt lat="42.1284091" lon="13.7006146"><ele>649.0</ele><time>2026-05-03T09:11:05.027Z</time></trkpt><trkpt lat="42.1284787" lon="13.7005353"><ele>651.0</ele><time>2026-05-03T09:11:06.039Z</time></trkpt><trkpt lat="42.1285492" lon="13.700452"><ele>653.0</ele><time>2026-05-03T09:11:07.03Z</time></trkpt><trkpt lat="42.1286209" lon="13.700366"><ele>653.0</ele><time>2026-05-03T09:11:08.058Z</time></trkpt><trkpt lat="42.1286946" lon="13.7002833"><ele>653.0</ele><time>2026-05-03T09:11:09.028Z</time></trkpt><trkpt lat="42.1287689" lon="13.7001997"><ele>653.0</ele><time>2026-05-03T09:11:10.044Z</time></trkpt><trkpt lat="42.1288448" lon="13.7001176"><ele>653.0</ele><time>2026-05-03T09:11:11.03Z</time></trkpt><trkpt lat="42.1289225" lon="13.7000322"><ele>653.0</ele><time>2026-05-03T09:11:12.034Z</time></trkpt><trkpt lat="42.1289939" lon="13.6999497"><ele>653.4</ele><time>2026-05-03T09:11:13.03Z</time></trkpt><trkpt lat="42.1290702" lon="13.6998672"><ele>653.8</ele><time>2026-05-03T09:11:14.031Z</time></trkpt><trkpt lat="42.1291469" lon="13.699786"><ele>654.2</ele><time>2026-05-03T09:11:15.026Z</time></trkpt><trkpt lat="42.1292235" lon="13.6997022"><ele>654.6</ele><time>2026-05-03T09:11:16.029Z</time></trkpt><trkpt lat="42.1293003" lon="13.69962"><ele>655.0</ele><time>2026-05-03T09:11:17.029Z</time></trkpt><trkpt lat="42.1293779" lon="13.6995352"><ele>655.0</ele><time>2026-05-03T09:11:18.051Z</time></trkpt><trkpt lat="42.1294541" lon="13.6994463"><ele>655.0</ele><time>2026-05-03T09:11:19.017Z</time></trkpt><trkpt lat="42.1295274" lon="13.6993499"><ele>655.0</ele><time>2026-05-03T09:11:20.031Z</time></trkpt><trkpt lat="42.1296014" lon="13.6992515"><ele>655.0</ele><time>2026-05-03T09:11:21.026Z</time></trkpt><trkpt lat="42.1296758" lon="13.6991508"><ele>655.0</ele><time>2026-05-03T09:11:22.029Z</time></trkpt><trkpt lat="42.1297524" lon="13.6990527"><ele>653.8</ele><time>2026-05-03T09:11:23.024Z</time></trkpt><trkpt lat="42.1298287" lon="13.6989502"><ele>652.6</ele><time>2026-05-03T09:11:24.033Z</time></trkpt><trkpt lat="42.1299046" lon="13.6988447"><ele>651.4000000000001</ele><time>2026-05-03T09:11:25.037Z</time></trkpt><trkpt lat="42.1299787" lon="13.6987434"><ele>650.2</ele><time>2026-05-03T09:11:26.032Z</time></trkpt><trkpt lat="42.1300524" lon="13.6986414"><ele>649.0</ele><time>2026-05-03T09:11:27.024Z</time></trkpt><trkpt lat="42.1301302" lon="13.6985428"><ele>651.6</ele><time>2026-05-03T09:11:28.036Z</time></trkpt><trkpt lat="42.1302092" lon="13.6984463"><ele>654.2</ele><time>2026-05-03T09:11:29.028Z</time></trkpt><trkpt lat="42.1302876" lon="13.6983509"><ele>656.8000000000001</ele><time>2026-05-03T09:11:30.03Z</time></trkpt><trkpt lat="42.1303651" lon="13.6982538"><ele>659.4000000000001</ele><time>2026-05-03T09:11:31.03Z</time></trkpt><trkpt lat="42.1304408" lon="13.69816"><ele>662.0</ele><time>2026-05-03T09:11:32.023Z</time></trkpt><trkpt lat="42.1305165" lon="13.6980653"><ele>662.0</ele><time>2026-05-03T09:11:33.044Z</time></trkpt><trkpt lat="42.1305902" lon="13.6979699"><ele>662.0</ele><time>2026-05-03T09:11:34.041Z</time></trkpt><trkpt lat="42.1306564" lon="13.6978661"><ele>662.0</ele><time>2026-05-03T09:11:35.029Z</time></trkpt><trkpt lat="42.1307169" lon="13.6977585"><ele>662.0</ele><time>2026-05-03T09:11:36.019Z</time></trkpt><trkpt lat="42.1307648" lon="13.6976393"><ele>662.0</ele><time>2026-05-03T09:11:37.041Z</time></trkpt><trkpt lat="42.1308011" lon="13.6975191"><ele>662.2</ele><time>2026-05-03T09:11:38.029Z</time></trkpt><trkpt lat="42.1308215" lon="13.6973924"><ele>662.4000000000001</ele><time>2026-05-03T09:11:39.031Z</time></trkpt><trkpt lat="42.1308324" lon="13.6972668"><ele>662.5999999999999</ele><time>2026-05-03T09:11:40.033Z</time></trkpt><trkpt lat="42.1308379" lon="13.6971358"><ele>662.8</ele><time>2026-05-03T09:11:41.031Z</time></trkpt><trkpt lat="42.1308385" lon="13.6970026"><ele>663.0</ele><time>2026-05-03T09:11:42.031Z</time></trkpt><trkpt lat="42.1308407" lon="13.6968658"><ele>664.0</ele><time>2026-05-03T09:11:43.04Z</time></trkpt><trkpt lat="42.1308476" lon="13.6967296"><ele>665.0</ele><time>2026-05-03T09:11:44.022Z</time></trkpt><trkpt lat="42.1308583" lon="13.6965931"><ele>666.0</ele><time>2026-05-03T09:11:45.037Z</time></trkpt><trkpt lat="42.130877" lon="13.6964555"><ele>667.0</ele><time>2026-05-03T09:11:46.027Z</time></trkpt><trkpt lat="42.130904" lon="13.6963231"><ele>668.0</ele><time>2026-05-03T09:11:47.024Z</time></trkpt><trkpt lat="42.130935" lon="13.6961904"><ele>669.5999999999999</ele><time>2026-05-03T09:11:48.024Z</time></trkpt><trkpt lat="42.1309755" lon="13.6960639"><ele>671.1999999999999</ele><time>2026-05-03T09:11:49.029Z</time></trkpt><trkpt lat="42.1310218" lon="13.6959424"><ele>672.8</ele><time>2026-05-03T09:11:50.027Z</time></trkpt><trkpt lat="42.1310721" lon="13.6958259"><ele>674.4</ele><time>2026-05-03T09:11:51.021Z</time></trkpt><trkpt lat="42.1311299" lon="13.6957139"><ele>676.0</ele><time>2026-05-03T09:11:52.052Z</time></trkpt><trkpt lat="42.1311975" lon="13.695613"><ele>676.0</ele><time>2026-05-03T09:11:53.038Z</time></trkpt><trkpt lat="42.1312648" lon="13.6955094"><ele>676.0</ele><time>2026-05-03T09:11:54.023Z</time></trkpt><trkpt lat="42.1313285" lon="13.6954043"><ele>676.0</ele><time>2026-05-03T09:11:55.03Z</time></trkpt><trkpt lat="42.1313926" lon="13.6952996"><ele>676.0</ele><time>2026-05-03T09:11:56.027Z</time></trkpt><trkpt lat="42.1314543" lon="13.6951986"><ele>676.0</ele><time>2026-05-03T09:11:57.039Z</time></trkpt><trkpt lat="42.1315148" lon="13.6950971"><ele>674.0</ele><time>2026-05-03T09:11:58.027Z</time></trkpt><trkpt lat="42.1315613" lon="13.6949839"><ele>672.0</ele><time>2026-05-03T09:11:59.023Z</time></trkpt><trkpt lat="42.1315894" lon="13.6948584"><ele>670.0</ele><time>2026-05-03T09:12:00.038Z</time></trkpt><trkpt lat="42.131596" lon="13.694729"><ele>668.0</ele><time>2026-05-03T09:12:01.029Z</time></trkpt><trkpt lat="42.1315748" lon="13.6945969"><ele>666.0</ele><time>2026-05-03T09:12:02.043Z</time></trkpt><trkpt lat="42.1315257" lon="13.6944714"><ele>670.4</ele><time>2026-05-03T09:12:03.026Z</time></trkpt><trkpt lat="42.1314665" lon="13.6943547"><ele>674.8</ele><time>2026-05-03T09:12:04.024Z</time></trkpt><trkpt lat="42.1314022" lon="13.6942424"><ele>679.1999999999999</ele><time>2026-05-03T09:12:05.029Z</time></trkpt><trkpt lat="42.1313341" lon="13.6941334"><ele>683.5999999999999</ele><time>2026-05-03T09:12:06.029Z</time></trkpt><trkpt lat="42.1312643" lon="13.6940274"><ele>688.0</ele><time>2026-05-03T09:12:07.049Z</time></trkpt><trkpt lat="42.1311901" lon="13.6939196"><ele>688.0</ele><time>2026-05-03T09:12:08.04Z</time></trkpt><trkpt lat="42.1311216" lon="13.6938099"><ele>688.0</ele><time>2026-05-03T09:12:09.019Z</time></trkpt><trkpt lat="42.1310602" lon="13.6936936"><ele>688.0</ele><time>2026-05-03T09:12:10.038Z</time></trkpt><trkpt lat="42.1310103" lon="13.6935745"><ele>688.0</ele><time>2026-05-03T09:12:11.023Z</time></trkpt><trkpt lat="42.1309804" lon="13.6934409"><ele>688.0</ele><time>2026-05-03T09:12:12.031Z</time></trkpt><trkpt lat="42.1309729" lon="13.693305"><ele>687.8</ele><time>2026-05-03T09:12:13.02Z</time></trkpt><trkpt lat="42.1309847" lon="13.693165"><ele>687.5999999999999</ele><time>2026-05-03T09:12:14.035Z</time></trkpt><trkpt lat="42.131003" lon="13.693022"><ele>687.4000000000001</ele><time>2026-05-03T09:12:15.024Z</time></trkpt><trkpt lat="42.1310186" lon="13.692872"><ele>687.2</ele><time>2026-05-03T09:12:16.043Z</time></trkpt><trkpt lat="42.1310294" lon="13.6927229"><ele>687.0</ele><time>2026-05-03T09:12:17.022Z</time></trkpt><trkpt lat="42.1310426" lon="13.6925765"><ele>687.0</ele><time>2026-05-03T09:12:18.021Z</time></trkpt><trkpt lat="42.1310593" lon="13.692434"><ele>687.0</ele><time>2026-05-03T09:12:19.026Z</time></trkpt><trkpt lat="42.1310796" lon="13.6923046"><ele>687.0</ele><time>2026-05-03T09:12:20.028Z</time></trkpt><trkpt lat="42.1311019" lon="13.6921747"><ele>687.0</ele><time>2026-05-03T09:12:21.027Z</time></trkpt><trkpt lat="42.1311272" lon="13.6920368"><ele>687.0</ele><time>2026-05-03T09:12:22.03Z</time></trkpt><trkpt lat="42.1311632" lon="13.6919113"><ele>687.0</ele><time>2026-05-03T09:12:23.021Z</time></trkpt><trkpt lat="42.1312131" lon="13.6917983"><ele>687.0</ele><time>2026-05-03T09:12:24.034Z</time></trkpt><trkpt lat="42.131283" lon="13.6917023"><ele>687.0</ele><time>2026-05-03T09:12:25.028Z</time></trkpt><trkpt lat="42.1313705" lon="13.6916236"><ele>687.0</ele><time>2026-05-03T09:12:26.036Z</time></trkpt><trkpt lat="42.1314597" lon="13.6915714"><ele>687.0</ele><time>2026-05-03T09:12:27.028Z</time></trkpt><trkpt lat="42.1315479" lon="13.6915382"><ele>684.8</ele><time>2026-05-03T09:12:28.023Z</time></trkpt><trkpt lat="42.1316475" lon="13.6915162"><ele>682.6</ele><time>2026-05-03T09:12:29.02Z</time></trkpt><trkpt lat="42.1317476" lon="13.6915022"><ele>680.4</ele><time>2026-05-03T09:12:30.032Z</time></trkpt><trkpt lat="42.1318437" lon="13.691489"><ele>678.1999999999999</ele><time>2026-05-03T09:12:31.019Z</time></trkpt><trkpt lat="42.1319459" lon="13.6914829"><ele>676.0</ele><time>2026-05-03T09:12:32.031Z</time></trkpt><trkpt lat="42.1320444" lon="13.691475"><ele>676.0</ele><time>2026-05-03T09:12:33.025Z</time></trkpt><trkpt lat="42.1321356" lon="13.691457"><ele>676.0</ele><time>2026-05-03T09:12:34.038Z</time></trkpt><trkpt lat="42.1322195" lon="13.6914162"><ele>676.0</ele><time>2026-05-03T09:12:35.033Z</time></trkpt><trkpt lat="42.1322933" lon="13.691355"><ele>676.0</ele><time>2026-05-03T09:12:36.037Z</time></trkpt><trkpt lat="42.1323522" lon="13.6912722"><ele>676.0</ele><time>2026-05-03T09:12:37.017Z</time></trkpt><trkpt lat="42.1323902" lon="13.6911689"><ele>676.0</ele><time>2026-05-03T09:12:38.061Z</time></trkpt><trkpt lat="42.132395" lon="13.6910509"><ele>677.5999999999999</ele><time>2026-05-03T09:12:39.025Z</time></trkpt><trkpt lat="42.1323718" lon="13.6909381"><ele>679.2</ele><time>2026-05-03T09:12:40.03Z</time></trkpt><trkpt lat="42.132323" lon="13.6908111"><ele>680.8</ele><time>2026-05-03T09:12:41.035Z</time></trkpt><trkpt lat="42.1322621" lon="13.6906946"><ele>682.4000000000001</ele><time>2026-05-03T09:12:42.038Z</time></trkpt><trkpt lat="42.1321943" lon="13.6905774"><ele>684.0</ele><time>2026-05-03T09:12:43.023Z</time></trkpt><trkpt lat="42.13212" lon="13.6904579"><ele>684.0</ele><time>2026-05-03T09:12:44.024Z</time></trkpt><trkpt lat="42.1320496" lon="13.6903412"><ele>684.0</ele><time>2026-05-03T09:12:45.016Z</time></trkpt><trkpt lat="42.131981" lon="13.6902333"><ele>684.0</ele><time>2026-05-03T09:12:46.023Z</time></trkpt><trkpt lat="42.1319226" lon="13.6901261"><ele>684.0</ele><time>2026-05-03T09:12:47.025Z</time></trkpt><trkpt lat="42.1318769" lon="13.6900167"><ele>684.0</ele><time>2026-05-03T09:12:48.026Z</time></trkpt><trkpt lat="42.1318517" lon="13.6898996"><ele>683.6</ele><time>2026-05-03T09:12:49.019Z</time></trkpt><trkpt lat="42.1318561" lon="13.6897798"><ele>683.2</ele><time>2026-05-03T09:12:50.018Z</time></trkpt><trkpt lat="42.1318842" lon="13.6896492"><ele>682.8000000000001</ele><time>2026-05-03T09:12:51.02Z</time></trkpt><trkpt lat="42.1319301" lon="13.689513"><ele>682.4000000000001</ele><time>2026-05-03T09:12:52.028Z</time></trkpt><trkpt lat="42.1319931" lon="13.6893828"><ele>682.0</ele><time>2026-05-03T09:12:53.02Z</time></trkpt><trkpt lat="42.1320704" lon="13.68926"><ele>683.25</ele><time>2026-05-03T09:12:54.037Z</time></trkpt><trkpt lat="42.1321595" lon="13.689149"><ele>684.5</ele><time>2026-05-03T09:12:55.028Z</time></trkpt><trkpt lat="42.1322563" lon="13.6890584"><ele>685.75</ele><time>2026-05-03T09:12:56.032Z</time></trkpt><trkpt lat="42.1323567" lon="13.6890032"><ele>687.0</ele><time>2026-05-03T09:12:57.021Z</time></trkpt><trkpt lat="42.132467" lon="13.688977"><ele>687.0</ele><time>2026-05-03T09:12:58.027Z</time></trkpt><trkpt lat="42.1325818" lon="13.6889981"><ele>687.0</ele><time>2026-05-03T09:12:59.032Z</time></trkpt><trkpt lat="42.1326848" lon="13.6890564"><ele>687.0</ele><time>2026-05-03T09:13:00.031Z</time></trkpt><trkpt lat="42.1327748" lon="13.6891576"><ele>687.0</ele><time>2026-05-03T09:13:01.017Z</time></trkpt><trkpt lat="42.1328593" lon="13.6892738"><ele>687.0</ele><time>2026-05-03T09:13:02.025Z</time></trkpt><trkpt lat="42.1329545" lon="13.6893866"><ele>687.0</ele><time>2026-05-03T09:13:03.028Z</time></trkpt><trkpt lat="42.1330541" lon="13.6894844"><ele>687.0</ele><time>2026-05-03T09:13:04.038Z</time></trkpt><trkpt lat="42.1331571" lon="13.6895587"><ele>687.0</ele><time>2026-05-03T09:13:05.027Z</time></trkpt><trkpt lat="42.1332658" lon="13.6896079"><ele>686.0</ele><time>2026-05-03T09:13:06.026Z</time></trkpt><trkpt lat="42.1333834" lon="13.6896304"><ele>685.0</ele><time>2026-05-03T09:13:07.018Z</time></trkpt><trkpt lat="42.1334969" lon="13.6896387"><ele>684.0</ele><time>2026-05-03T09:13:08.026Z</time></trkpt><trkpt lat="42.1336188" lon="13.6896268"><ele>683.0</ele><time>2026-05-03T09:13:09.02Z</time></trkpt><trkpt lat="42.1337389" lon="13.6895971"><ele>683.0</ele><time>2026-05-03T09:13:10.035Z</time></trkpt><trkpt lat="42.1338624" lon="13.6895652"><ele>683.0</ele><time>2026-05-03T09:13:11.026Z</time></trkpt><trkpt lat="42.1339894" lon="13.6895351"><ele>683.0</ele><time>2026-05-03T09:13:12.024Z</time></trkpt><trkpt lat="42.1341177" lon="13.6895083"><ele>683.0</ele><time>2026-05-03T09:13:13.031Z</time></trkpt><trkpt lat="42.1342477" lon="13.6894797"><ele>682.25</ele><time>2026-05-03T09:13:14.029Z</time></trkpt><trkpt lat="42.1343717" lon="13.6894454"><ele>681.5</ele><time>2026-05-03T09:13:15.029Z</time></trkpt><trkpt lat="42.1344892" lon="13.6894056"><ele>680.75</ele><time>2026-05-03T09:13:16.029Z</time></trkpt><trkpt lat="42.1346086" lon="13.6893559"><ele>680.0</ele><time>2026-05-03T09:13:17.027Z</time></trkpt><trkpt lat="42.1347242" lon="13.6893062"><ele>683.4</ele><time>2026-05-03T09:13:18.033Z</time></trkpt><trkpt lat="42.1348319" lon="13.6892554"><ele>686.8</ele><time>2026-05-03T09:13:19.035Z</time></trkpt><trkpt lat="42.1349381" lon="13.6892046"><ele>690.2</ele><time>2026-05-03T09:13:20.022Z</time></trkpt><trkpt lat="42.1350414" lon="13.6891667"><ele>693.6</ele><time>2026-05-03T09:13:21.035Z</time></trkpt><trkpt lat="42.1351492" lon="13.6891418"><ele>697.0</ele><time>2026-05-03T09:13:22.034Z</time></trkpt><trkpt lat="42.1352601" lon="13.6891332"><ele>697.0</ele><time>2026-05-03T09:13:23.028Z</time></trkpt><trkpt lat="42.1353747" lon="13.6891364"><ele>697.0</ele><time>2026-05-03T09:13:24.052Z</time></trkpt><trkpt lat="42.1354978" lon="13.6891461"><ele>697.0</ele><time>2026-05-03T09:13:25.032Z</time></trkpt><trkpt lat="42.1356195" lon="13.689148"><ele>697.0</ele><time>2026-05-03T09:13:26.035Z</time></trkpt><trkpt lat="42.1357387" lon="13.6891297"><ele>697.25</ele><time>2026-05-03T09:13:27.022Z</time></trkpt><trkpt lat="42.1358624" lon="13.689093"><ele>697.5</ele><time>2026-05-03T09:13:28.031Z</time></trkpt><trkpt lat="42.1359808" lon="13.6890279"><ele>697.75</ele><time>2026-05-03T09:13:29.03Z</time></trkpt><trkpt lat="42.1360947" lon="13.6889446"><ele>698.0</ele><time>2026-05-03T09:13:30.033Z</time></trkpt><trkpt lat="42.1362044" lon="13.6888508"><ele>698.0</ele><time>2026-05-03T09:13:31.033Z</time></trkpt><trkpt lat="42.1363098" lon="13.6887534"><ele>698.0</ele><time>2026-05-03T09:13:32.038Z</time></trkpt><trkpt lat="42.1364175" lon="13.6886576"><ele>698.0</ele><time>2026-05-03T09:13:33.028Z</time></trkpt><trkpt lat="42.1365282" lon="13.6885584"><ele>698.0</ele><time>2026-05-03T09:13:34.031Z</time></trkpt><trkpt lat="42.1366389" lon="13.6884589"><ele>699.25</ele><time>2026-05-03T09:13:35.029Z</time></trkpt><trkpt lat="42.1367475" lon="13.6883638"><ele>700.5</ele><time>2026-05-03T09:13:36.024Z</time></trkpt><trkpt lat="42.1368564" lon="13.6882664"><ele>701.75</ele><time>2026-05-03T09:13:37.021Z</time></trkpt><trkpt lat="42.1369633" lon="13.68817"><ele>703.0</ele><time>2026-05-03T09:13:38.035Z</time></trkpt><trkpt lat="42.1370694" lon="13.6880666"><ele>703.0</ele><time>2026-05-03T09:13:39.032Z</time></trkpt><trkpt lat="42.1371747" lon="13.6879638"><ele>703.0</ele><time>2026-05-03T09:13:40.051Z</time></trkpt><trkpt lat="42.137281" lon="13.6878651"><ele>703.0</ele><time>2026-05-03T09:13:41.031Z</time></trkpt><trkpt lat="42.1373854" lon="13.6877661"><ele>703.0</ele><time>2026-05-03T09:13:42.04Z</time></trkpt><trkpt lat="42.1374939" lon="13.6876682"><ele>703.75</ele><time>2026-05-03T09:13:43.025Z</time></trkpt><trkpt lat="42.1376009" lon="13.68757"><ele>704.5</ele><time>2026-05-03T09:13:44.027Z</time></trkpt><trkpt lat="42.1377043" lon="13.6874679"><ele>705.25</ele><time>2026-05-03T09:13:45.031Z</time></trkpt><trkpt lat="42.1378144" lon="13.6873676"><ele>706.0</ele><time>2026-05-03T09:13:46.028Z</time></trkpt><trkpt lat="42.1379191" lon="13.6872595"><ele>706.0</ele><time>2026-05-03T09:13:47.025Z</time></trkpt><trkpt lat="42.1380235" lon="13.6871541"><ele>706.0</ele><time>2026-05-03T09:13:48.034Z</time></trkpt><trkpt lat="42.13813" lon="13.6870549"><ele>706.0</ele><time>2026-05-03T09:13:49.024Z</time></trkpt><trkpt lat="42.1382369" lon="13.6869607"><ele>706.0</ele><time>2026-05-03T09:13:50.022Z</time></trkpt><trkpt lat="42.1383456" lon="13.6868593"><ele>708.25</ele><time>2026-05-03T09:13:51.025Z</time></trkpt><trkpt lat="42.1384519" lon="13.6867579"><ele>710.5</ele><time>2026-05-03T09:13:52.039Z</time></trkpt><trkpt lat="42.138558" lon="13.6866526"><ele>712.75</ele><time>2026-05-03T09:13:53.035Z</time></trkpt><trkpt lat="42.1386644" lon="13.6865453"><ele>715.0</ele><time>2026-05-03T09:13:54.035Z</time></trkpt><trkpt lat="42.1387678" lon="13.6864402"><ele>715.0</ele><time>2026-05-03T09:13:55.027Z</time></trkpt><trkpt lat="42.1388736" lon="13.686338"><ele>715.0</ele><time>2026-05-03T09:13:56.029Z</time></trkpt><trkpt lat="42.1389824" lon="13.6862351"><ele>715.0</ele><time>2026-05-03T09:13:57.023Z</time></trkpt><trkpt lat="42.1390926" lon="13.6861338"><ele>715.0</ele><time>2026-05-03T09:13:58.035Z</time></trkpt><trkpt lat="42.1391996" lon="13.6860313"><ele>716.25</ele><time>2026-05-03T09:13:59.018Z</time></trkpt><trkpt lat="42.1393035" lon="13.685935"><ele>717.5</ele><time>2026-05-03T09:14:00.032Z</time></trkpt><trkpt lat="42.1394129" lon="13.685838"><ele>718.75</ele><time>2026-05-03T09:14:01.028Z</time></trkpt><trkpt lat="42.1395245" lon="13.6857475"><ele>720.0</ele><time>2026-05-03T09:14:02.023Z</time></trkpt><trkpt lat="42.1396411" lon="13.6856684"><ele>720.0</ele><time>2026-05-03T09:14:03.025Z</time></trkpt><trkpt lat="42.1397613" lon="13.6856012"><ele>720.0</ele><time>2026-05-03T09:14:04.043Z</time></trkpt><trkpt lat="42.1398879" lon="13.6855505"><ele>720.0</ele><time>2026-05-03T09:14:05.026Z</time></trkpt><trkpt lat="42.1400151" lon="13.6855074"><ele>720.0</ele><time>2026-05-03T09:14:06.032Z</time></trkpt><trkpt lat="42.1401424" lon="13.6854742"><ele>717.0</ele><time>2026-05-03T09:14:07.026Z</time></trkpt><trkpt lat="42.140269" lon="13.685434"><ele>714.0</ele><time>2026-05-03T09:14:08.024Z</time></trkpt><trkpt lat="42.1403932" lon="13.6853952"><ele>711.0</ele><time>2026-05-03T09:14:09.023Z</time></trkpt><trkpt lat="42.1405191" lon="13.6853523"><ele>708.0</ele><time>2026-05-03T09:14:10.032Z</time></trkpt><trkpt lat="42.1406458" lon="13.685309"><ele>708.25</ele><time>2026-05-03T09:14:11.032Z</time></trkpt><trkpt lat="42.1407716" lon="13.6852652"><ele>708.5</ele><time>2026-05-03T09:14:12.025Z</time></trkpt><trkpt lat="42.1408986" lon="13.6852168"><ele>708.75</ele><time>2026-05-03T09:14:13.05Z</time></trkpt><trkpt lat="42.1410217" lon="13.6851662"><ele>709.0</ele><time>2026-05-03T09:14:14.024Z</time></trkpt><trkpt lat="42.1411466" lon="13.6851129"><ele>711.75</ele><time>2026-05-03T09:14:15.03Z</time></trkpt><trkpt lat="42.141266" lon="13.6850449"><ele>714.5</ele><time>2026-05-03T09:14:16.032Z</time></trkpt><trkpt lat="42.1413832" lon="13.6849698"><ele>717.25</ele><time>2026-05-03T09:14:17.032Z</time></trkpt><trkpt lat="42.1414996" lon="13.6848927"><ele>720.0</ele><time>2026-05-03T09:14:18.057Z</time></trkpt><trkpt lat="42.1416111" lon="13.6848031"><ele>720.0</ele><time>2026-05-03T09:14:19.032Z</time></trkpt><trkpt lat="42.1417202" lon="13.6847055"><ele>720.0</ele><time>2026-05-03T09:14:20.031Z</time></trkpt><trkpt lat="42.1418281" lon="13.6846073"><ele>720.0</ele><time>2026-05-03T09:14:21.035Z</time></trkpt><trkpt lat="42.1419351" lon="13.6845104"><ele>720.0</ele><time>2026-05-03T09:14:22.046Z</time></trkpt><trkpt lat="42.142042" lon="13.6844152"><ele>720.25</ele><time>2026-05-03T09:14:23.034Z</time></trkpt><trkpt lat="42.1421499" lon="13.6843184"><ele>720.5</ele><time>2026-05-03T09:14:24.036Z</time></trkpt><trkpt lat="42.1422633" lon="13.6842272"><ele>720.75</ele><time>2026-05-03T09:14:25.033Z</time></trkpt><trkpt lat="42.1423782" lon="13.6841399"><ele>721.0</ele><time>2026-05-03T09:14:26.035Z</time></trkpt><trkpt lat="42.1424967" lon="13.684059"><ele>721.0</ele><time>2026-05-03T09:14:27.029Z</time></trkpt><trkpt lat="42.14262" lon="13.6840091"><ele>721.0</ele><time>2026-05-03T09:14:28.036Z</time></trkpt><trkpt lat="42.1427482" lon="13.6839803"><ele>721.0</ele><time>2026-05-03T09:14:29.035Z</time></trkpt><trkpt lat="42.1428767" lon="13.6839787"><ele>721.0</ele><time>2026-05-03T09:14:30.054Z</time></trkpt><trkpt lat="42.1430069" lon="13.6839816"><ele>721.0</ele><time>2026-05-03T09:14:31.034Z</time></trkpt><trkpt lat="42.143137" lon="13.6839913"><ele>721.0</ele><time>2026-05-03T09:14:32.029Z</time></trkpt><trkpt lat="42.1432625" lon="13.6840043"><ele>721.0</ele><time>2026-05-03T09:14:33.035Z</time></trkpt><trkpt lat="42.1433791" lon="13.6840146"><ele>721.0</ele><time>2026-05-03T09:14:34.04Z</time></trkpt><trkpt lat="42.1434803" lon="13.6840186"><ele>721.8333333333334</ele><time>2026-05-03T09:14:35.037Z</time></trkpt><trkpt lat="42.1435729" lon="13.6840216"><ele>722.6666666666667</ele><time>2026-05-03T09:14:36.037Z</time></trkpt><trkpt lat="42.1436577" lon="13.6840237"><ele>723.5</ele><time>2026-05-03T09:14:37.029Z</time></trkpt><trkpt lat="42.1437354" lon="13.6840296"><ele>724.3333333333334</ele><time>2026-05-03T09:14:38.059Z</time></trkpt><trkpt lat="42.1438259" lon="13.6840328"><ele>725.1666666666666</ele><time>2026-05-03T09:14:40.026Z</time></trkpt><trkpt lat="42.1438928" lon="13.6840222"><ele>726.0</ele><time>2026-05-03T09:16:27.026Z</time></trkpt><trkpt lat="42.1439881" lon="13.6840142"><ele>726.8</ele><time>2026-05-03T09:16:29.042Z</time></trkpt><trkpt lat="42.1440945" lon="13.6840063"><ele>727.5999999999999</ele><time>2026-05-03T09:16:31.036Z</time></trkpt><trkpt lat="42.1442036" lon="13.6839821"><ele>728.4</ele><time>2026-05-03T09:16:33.034Z</time></trkpt><trkpt lat="42.1443268" lon="13.6839582"><ele>729.2</ele><time>2026-05-03T09:16:35.042Z</time></trkpt><trkpt lat="42.14439" lon="13.683946"><ele>730.0</ele><time>2026-05-03T09:16:36.022Z</time></trkpt><trkpt lat="42.1444549" lon="13.6839312"><ele>730.0</ele><time>2026-05-03T09:16:37.035Z</time></trkpt><trkpt lat="42.1445282" lon="13.6839192"><ele>730.0</ele><time>2026-05-03T09:16:38.034Z</time></trkpt><trkpt lat="42.1446112" lon="13.6839011"><ele>730.0</ele><time>2026-05-03T09:16:39.023Z</time></trkpt><trkpt lat="42.1446922" lon="13.6838756"><ele>730.0</ele><time>2026-05-03T09:16:40.031Z</time></trkpt><trkpt lat="42.1447786" lon="13.6838472"><ele>730.0</ele><time>2026-05-03T09:16:41.035Z</time></trkpt><trkpt lat="42.1448629" lon="13.6838169"><ele>730.0</ele><time>2026-05-03T09:16:42.043Z</time></trkpt><trkpt lat="42.1449458" lon="13.6837795"><ele>729.6666666666667</ele><time>2026-05-03T09:16:43.021Z</time></trkpt><trkpt lat="42.145025" lon="13.6837375"><ele>729.3333333333334</ele><time>2026-05-03T09:16:44.033Z</time></trkpt><trkpt lat="42.1451" lon="13.6836938"><ele>729.0</ele><time>2026-05-03T09:16:45.036Z</time></trkpt><trkpt lat="42.14517" lon="13.6836514"><ele>728.6666666666666</ele><time>2026-05-03T09:16:46.031Z</time></trkpt><trkpt lat="42.1452364" lon="13.6836012"><ele>728.3333333333333</ele><time>2026-05-03T09:16:47.03Z</time></trkpt><trkpt lat="42.1452967" lon="13.6835501"><ele>728.0</ele><time>2026-05-03T09:16:48.037Z</time></trkpt><trkpt lat="42.145355" lon="13.6834967"><ele>728.4</ele><time>2026-05-03T09:16:49.028Z</time></trkpt><trkpt lat="42.1454131" lon="13.6834439"><ele>728.8</ele><time>2026-05-03T09:16:50.03Z</time></trkpt><trkpt lat="42.1454807" lon="13.6833866"><ele>729.2</ele><time>2026-05-03T09:16:51.045Z</time></trkpt><trkpt lat="42.1455605" lon="13.683311"><ele>729.6</ele><time>2026-05-03T09:16:52.033Z</time></trkpt><trkpt lat="42.145649" lon="13.6832266"><ele>730.0</ele><time>2026-05-03T09:16:53.021Z</time></trkpt><trkpt lat="42.1457387" lon="13.6831358"><ele>730.0</ele><time>2026-05-03T09:16:54.022Z</time></trkpt><trkpt lat="42.1458273" lon="13.6830388"><ele>730.0</ele><time>2026-05-03T09:16:55.043Z</time></trkpt><trkpt lat="42.1459162" lon="13.6829389"><ele>730.0</ele><time>2026-05-03T09:16:56.033Z</time></trkpt><trkpt lat="42.1460046" lon="13.6828411"><ele>730.0</ele><time>2026-05-03T09:16:57.019Z</time></trkpt><trkpt lat="42.1460945" lon="13.6827512"><ele>732.0</ele><time>2026-05-03T09:16:58.04Z</time></trkpt><trkpt lat="42.1461795" lon="13.6826676"><ele>734.0</ele><time>2026-05-03T09:16:59.029Z</time></trkpt><trkpt lat="42.1462597" lon="13.6825882"><ele>736.0</ele><time>2026-05-03T09:17:00.049Z</time></trkpt><trkpt lat="42.1463312" lon="13.6825104"><ele>738.0</ele><time>2026-05-03T09:17:01.034Z</time></trkpt><trkpt lat="42.1463953" lon="13.6824264"><ele>740.0</ele><time>2026-05-03T09:17:02.029Z</time></trkpt><trkpt lat="42.1464496" lon="13.6823256"><ele>740.0</ele><time>2026-05-03T09:17:03.027Z</time></trkpt><trkpt lat="42.1464894" lon="13.6822114"><ele>740.0</ele><time>2026-05-03T09:17:04.03Z</time></trkpt><trkpt lat="42.1465062" lon="13.6820805"><ele>740.0</ele><time>2026-05-03T09:17:05.028Z</time></trkpt><trkpt lat="42.1465097" lon="13.6819491"><ele>740.0</ele><time>2026-05-03T09:17:06.031Z</time></trkpt><trkpt lat="42.1464969" lon="13.6818162"><ele>740.0</ele><time>2026-05-03T09:17:07.045Z</time></trkpt><trkpt lat="42.1464712" lon="13.6816838"><ele>741.2</ele><time>2026-05-03T09:17:08.026Z</time></trkpt><trkpt lat="42.1464352" lon="13.6815548"><ele>742.4</ele><time>2026-05-03T09:17:09.028Z</time></trkpt><trkpt lat="42.1464003" lon="13.6814222"><ele>743.5999999999999</ele><time>2026-05-03T09:17:10.036Z</time></trkpt><trkpt lat="42.1463694" lon="13.6813009"><ele>744.8</ele><time>2026-05-03T09:17:11.032Z</time></trkpt><trkpt lat="42.1463375" lon="13.681184"><ele>746.0</ele><time>2026-05-03T09:17:12.031Z</time></trkpt><trkpt lat="42.1463092" lon="13.6810795"><ele>746.5</ele><time>2026-05-03T09:17:13.024Z</time></trkpt><trkpt lat="42.1462848" lon="13.6809712"><ele>747.0</ele><time>2026-05-03T09:17:14.024Z</time></trkpt><trkpt lat="42.1462793" lon="13.680862"><ele>747.5</ele><time>2026-05-03T09:17:15.036Z</time></trkpt><trkpt lat="42.1462968" lon="13.6807689"><ele>748.0</ele><time>2026-05-03T09:17:16.027Z</time></trkpt><trkpt lat="42.1463341" lon="13.6806855"><ele>748.5</ele><time>2026-05-03T09:17:17.027Z</time></trkpt><trkpt lat="42.1463918" lon="13.6806183"><ele>749.0</ele><time>2026-05-03T09:17:18.036Z</time></trkpt><trkpt lat="42.1464635" lon="13.6805767"><ele>749.0</ele><time>2026-05-03T09:17:19.031Z</time></trkpt><trkpt lat="42.1465418" lon="13.6805699"><ele>749.0</ele><time>2026-05-03T09:17:20.045Z</time></trkpt><trkpt lat="42.1466262" lon="13.6805889"><ele>749.0</ele><time>2026-05-03T09:17:21.026Z</time></trkpt><trkpt lat="42.1467094" lon="13.6806232"><ele>749.0</ele><time>2026-05-03T09:17:22.03Z</time></trkpt><trkpt lat="42.146795" lon="13.6806658"><ele>749.0</ele><time>2026-05-03T09:17:23.032Z</time></trkpt><trkpt lat="42.1468878" lon="13.6807132"><ele>749.0</ele><time>2026-05-03T09:17:24.029Z</time></trkpt><trkpt lat="42.146981" lon="13.6807564"><ele>747.3333333333333</ele><time>2026-05-03T09:17:25.033Z</time></trkpt><trkpt lat="42.1470682" lon="13.6807928"><ele>745.6666666666666</ele><time>2026-05-03T09:17:26.025Z</time></trkpt><trkpt lat="42.1471524" lon="13.6808234"><ele>744.0</ele><time>2026-05-03T09:17:27.039Z</time></trkpt><trkpt lat="42.1472317" lon="13.6808496"><ele>742.3333333333334</ele><time>2026-05-03T09:17:28.05Z</time></trkpt><trkpt lat="42.1473061" lon="13.6808647"><ele>740.6666666666667</ele><time>2026-05-03T09:17:29.029Z</time></trkpt><trkpt lat="42.1473886" lon="13.6808525"><ele>739.0</ele><time>2026-05-03T09:17:30.037Z</time></trkpt><trkpt lat="42.1474723" lon="13.6808119"><ele>738.6</ele><time>2026-05-03T09:17:31.023Z</time></trkpt><trkpt lat="42.1475485" lon="13.6807475"><ele>738.2</ele><time>2026-05-03T09:17:32.027Z</time></trkpt><trkpt lat="42.1476162" lon="13.6806702"><ele>737.8000000000001</ele><time>2026-05-03T09:17:33.023Z</time></trkpt><trkpt lat="42.1476795" lon="13.6805787"><ele>737.4000000000001</ele><time>2026-05-03T09:17:34.041Z</time></trkpt><trkpt lat="42.1477376" lon="13.6804764"><ele>737.0</ele><time>2026-05-03T09:17:35.015Z</time></trkpt><trkpt lat="42.1477947" lon="13.6803703"><ele>737.8</ele><time>2026-05-03T09:17:36.032Z</time></trkpt><trkpt lat="42.1478516" lon="13.6802608"><ele>738.6</ele><time>2026-05-03T09:17:37.029Z</time></trkpt><trkpt lat="42.1479104" lon="13.6801512"><ele>739.4</ele><time>2026-05-03T09:17:38.026Z</time></trkpt><trkpt lat="42.1479708" lon="13.6800504"><ele>740.1999999999999</ele><time>2026-05-03T09:17:39.038Z</time></trkpt><trkpt lat="42.1480255" lon="13.679954"><ele>741.0</ele><time>2026-05-03T09:17:40.024Z</time></trkpt><trkpt lat="42.1480768" lon="13.6798705"><ele>741.0</ele><time>2026-05-03T09:17:41.034Z</time></trkpt><trkpt lat="42.1481317" lon="13.679802"><ele>741.0</ele><time>2026-05-03T09:17:42.025Z</time></trkpt><trkpt lat="42.148188" lon="13.6797561"><ele>741.0</ele><time>2026-05-03T09:17:43.036Z</time></trkpt><trkpt lat="42.1482964" lon="13.6797114"><ele>741.0</ele><time>2026-05-03T09:17:45.019Z</time></trkpt><trkpt lat="42.1484145" lon="13.6797439"><ele>741.0</ele><time>2026-05-03T09:17:47.028Z</time></trkpt><trkpt lat="42.148481" lon="13.6797844"><ele>741.0</ele><time>2026-05-03T09:17:48.028Z</time></trkpt><trkpt lat="42.1485464" lon="13.6798282"><ele>740.3333333333334</ele><time>2026-05-03T09:17:49.035Z</time></trkpt><trkpt lat="42.148616" lon="13.6798747"><ele>739.6666666666666</ele><time>2026-05-03T09:17:50.036Z</time></trkpt><trkpt lat="42.1486884" lon="13.6799225"><ele>739.0</ele><time>2026-05-03T09:17:51.028Z</time></trkpt><trkpt lat="42.1487617" lon="13.6799772"><ele>738.3333333333333</ele><time>2026-05-03T09:17:52.055Z</time></trkpt><trkpt lat="42.1488367" lon="13.6800395"><ele>737.6666666666666</ele><time>2026-05-03T09:17:53.032Z</time></trkpt><trkpt lat="42.148908" lon="13.6801067"><ele>737.0</ele><time>2026-05-03T09:17:54.026Z</time></trkpt><trkpt lat="42.1489818" lon="13.6801747"><ele>736.6666666666666</ele><time>2026-05-03T09:17:55.03Z</time></trkpt><trkpt lat="42.1490528" lon="13.6802484"><ele>736.3333333333333</ele><time>2026-05-03T09:17:56.023Z</time></trkpt><trkpt lat="42.1491238" lon="13.6803251"><ele>736.0</ele><time>2026-05-03T09:17:57.038Z</time></trkpt><trkpt lat="42.1491934" lon="13.6803969"><ele>735.6666666666666</ele><time>2026-05-03T09:17:58.035Z</time></trkpt><trkpt lat="42.1492586" lon="13.680467"><ele>735.3333333333334</ele><time>2026-05-03T09:17:59.039Z</time></trkpt><trkpt lat="42.1493214" lon="13.6805336"><ele>735.0</ele><time>2026-05-03T09:18:00.044Z</time></trkpt><trkpt lat="42.1493818" lon="13.6805937"><ele>735.0</ele><time>2026-05-03T09:18:01.037Z</time></trkpt><trkpt lat="42.1494392" lon="13.6806528"><ele>735.0</ele><time>2026-05-03T09:18:02.034Z</time></trkpt><trkpt lat="42.149498" lon="13.6807068"><ele>735.0</ele><time>2026-05-03T09:18:03.024Z</time></trkpt><trkpt lat="42.1495529" lon="13.6807535"><ele>735.0</ele><time>2026-05-03T09:18:04.047Z</time></trkpt><trkpt lat="42.1496543" lon="13.6808361"><ele>735.0</ele><time>2026-05-03T09:18:06.032Z</time></trkpt><trkpt lat="42.1497621" lon="13.6808941"><ele>735.0</ele><time>2026-05-03T09:18:08.031Z</time></trkpt><trkpt lat="42.149864" lon="13.6809377"><ele>737.2</ele><time>2026-05-03T09:18:10.025Z</time></trkpt><trkpt lat="42.14996" lon="13.6809709"><ele>739.4</ele><time>2026-05-03T09:18:12.029Z</time></trkpt><trkpt lat="42.1500607" lon="13.6810014"><ele>741.5999999999999</ele><time>2026-05-03T09:18:14.031Z</time></trkpt><trkpt lat="42.1501655" lon="13.6810402"><ele>743.8</ele><time>2026-05-03T09:18:16.044Z</time></trkpt><trkpt lat="42.1502714" lon="13.68109"><ele>746.0</ele><time>2026-05-03T09:18:18.041Z</time></trkpt><trkpt lat="42.1503781" lon="13.6811438"><ele>744.1666666666666</ele><time>2026-05-03T09:18:20.031Z</time></trkpt><trkpt lat="42.1504891" lon="13.6812128"><ele>742.3333333333333</ele><time>2026-05-03T09:18:22.036Z</time></trkpt><trkpt lat="42.1505962" lon="13.6812953"><ele>740.5</ele><time>2026-05-03T09:18:24.037Z</time></trkpt><trkpt lat="42.1506558" lon="13.6813366"><ele>738.6666666666666</ele><time>2026-05-03T09:18:25.047Z</time></trkpt><trkpt lat="42.1507112" lon="13.6813822"><ele>736.8333333333334</ele><time>2026-05-03T09:18:26.042Z</time></trkpt><trkpt lat="42.1507756" lon="13.6814221"><ele>735.0</ele><time>2026-05-03T09:18:27.043Z</time></trkpt><trkpt lat="42.1508378" lon="13.6814655"><ele>735.0</ele><time>2026-05-03T09:18:28.044Z</time></trkpt><trkpt lat="42.150902" lon="13.6815131"><ele>735.0</ele><time>2026-05-03T09:18:29.03Z</time></trkpt><trkpt lat="42.1509648" lon="13.6815676"><ele>735.0</ele><time>2026-05-03T09:18:30.028Z</time></trkpt><trkpt lat="42.1510248" lon="13.6816281"><ele>735.0</ele><time>2026-05-03T09:18:31.028Z</time></trkpt><trkpt lat="42.1510817" lon="13.6816959"><ele>735.0</ele><time>2026-05-03T09:18:32.029Z</time></trkpt><trkpt lat="42.1511385" lon="13.6817717"><ele>735.0</ele><time>2026-05-03T09:18:33.033Z</time></trkpt><trkpt lat="42.1511912" lon="13.6818495"><ele>732.1666666666666</ele><time>2026-05-03T09:18:34.039Z</time></trkpt><trkpt lat="42.1512401" lon="13.6819356"><ele>729.3333333333334</ele><time>2026-05-03T09:18:35.03Z</time></trkpt><trkpt lat="42.1512836" lon="13.6820312"><ele>726.5</ele><time>2026-05-03T09:18:36.04Z</time></trkpt><trkpt lat="42.1513215" lon="13.6821334"><ele>723.6666666666667</ele><time>2026-05-03T09:18:37.03Z</time></trkpt><trkpt lat="42.151354" lon="13.6822379"><ele>720.8333333333334</ele><time>2026-05-03T09:18:38.038Z</time></trkpt><trkpt lat="42.1513862" lon="13.6823435"><ele>718.0</ele><time>2026-05-03T09:18:39.025Z</time></trkpt><trkpt lat="42.1514185" lon="13.6824464"><ele>718.0</ele><time>2026-05-03T09:18:40.025Z</time></trkpt><trkpt lat="42.1514539" lon="13.682548"><ele>718.0</ele><time>2026-05-03T09:18:41.03Z</time></trkpt><trkpt lat="42.1514877" lon="13.6826443"><ele>718.0</ele><time>2026-05-03T09:18:42.041Z</time></trkpt><trkpt lat="42.1515158" lon="13.6827388"><ele>718.0</ele><time>2026-05-03T09:18:43.026Z</time></trkpt><trkpt lat="42.1515438" lon="13.6828347"><ele>718.0</ele><time>2026-05-03T09:18:44.026Z</time></trkpt><trkpt lat="42.1515699" lon="13.6829248"><ele>718.0</ele><time>2026-05-03T09:18:45.035Z</time></trkpt><trkpt lat="42.1515942" lon="13.683015"><ele>718.1666666666667</ele><time>2026-05-03T09:18:46.023Z</time></trkpt><trkpt lat="42.1516124" lon="13.6831044"><ele>718.3333333333334</ele><time>2026-05-03T09:18:47.035Z</time></trkpt><trkpt lat="42.151635" lon="13.6831974"><ele>718.5</ele><time>2026-05-03T09:18:48.038Z</time></trkpt><trkpt lat="42.1516563" lon="13.6832968"><ele>718.6666666666666</ele><time>2026-05-03T09:18:49.035Z</time></trkpt><trkpt lat="42.1516755" lon="13.6834004"><ele>718.8333333333333</ele><time>2026-05-03T09:18:50.024Z</time></trkpt><trkpt lat="42.1516845" lon="13.6835033"><ele>719.0</ele><time>2026-05-03T09:18:51.036Z</time></trkpt><trkpt lat="42.1516901" lon="13.6836134"><ele>719.0</ele><time>2026-05-03T09:18:52.027Z</time></trkpt><trkpt lat="42.1516918" lon="13.6837313"><ele>719.0</ele><time>2026-05-03T09:18:53.036Z</time></trkpt><trkpt lat="42.1516903" lon="13.6838466"><ele>719.0</ele><time>2026-05-03T09:18:54.039Z</time></trkpt><trkpt lat="42.1516884" lon="13.6839653"><ele>719.0</ele><time>2026-05-03T09:18:55.033Z</time></trkpt><trkpt lat="42.1516868" lon="13.6840865"><ele>719.0</ele><time>2026-05-03T09:18:56.034Z</time></trkpt><trkpt lat="42.1516832" lon="13.6842046"><ele>719.0</ele><time>2026-05-03T09:18:57.033Z</time></trkpt><trkpt lat="42.1516804" lon="13.6843167"><ele>719.0</ele><time>2026-05-03T09:18:58.039Z</time></trkpt><trkpt lat="42.1516769" lon="13.6844212"><ele>719.0</ele><time>2026-05-03T09:18:59.022Z</time></trkpt><trkpt lat="42.1516705" lon="13.6845267"><ele>719.0</ele><time>2026-05-03T09:19:00.034Z</time></trkpt><trkpt lat="42.1516658" lon="13.6846223"><ele>719.0</ele><time>2026-05-03T09:19:01.031Z</time></trkpt><trkpt lat="42.1516628" lon="13.684726"><ele>719.0</ele><time>2026-05-03T09:19:02.027Z</time></trkpt><trkpt lat="42.1516604" lon="13.6848395"><ele>719.0</ele><time>2026-05-03T09:19:03.033Z</time></trkpt><trkpt lat="42.151654" lon="13.684958"><ele>717.8333333333333</ele><time>2026-05-03T09:19:04.03Z</time></trkpt><trkpt lat="42.1516462" lon="13.6850738"><ele>716.6666666666666</ele><time>2026-05-03T09:19:05.04Z</time></trkpt><trkpt lat="42.1516418" lon="13.6851829"><ele>715.5</ele><time>2026-05-03T09:19:06.034Z</time></trkpt><trkpt lat="42.1516365" lon="13.6852846"><ele>714.3333333333334</ele><time>2026-05-03T09:19:07.037Z</time></trkpt><trkpt lat="42.1516325" lon="13.6853823"><ele>713.1666666666667</ele><time>2026-05-03T09:19:08.026Z</time></trkpt><trkpt lat="42.1516308" lon="13.6854802"><ele>712.0</ele><time>2026-05-03T09:19:09.025Z</time></trkpt><trkpt lat="42.1516387" lon="13.6855743"><ele>710.8333333333334</ele><time>2026-05-03T09:19:10.04Z</time></trkpt><trkpt lat="42.1516576" lon="13.6856608"><ele>709.6666666666667</ele><time>2026-05-03T09:19:11.031Z</time></trkpt><trkpt lat="42.1516863" lon="13.6857376"><ele>708.5</ele><time>2026-05-03T09:19:12.043Z</time></trkpt><trkpt lat="42.1517778" lon="13.6858465"><ele>707.3333333333334</ele><time>2026-05-03T09:19:14.035Z</time></trkpt><trkpt lat="42.1518382" lon="13.6858796"><ele>706.1666666666666</ele><time>2026-05-03T09:19:15.038Z</time></trkpt><trkpt lat="42.1519109" lon="13.6858917"><ele>705.0</ele><time>2026-05-03T09:19:16.038Z</time></trkpt><trkpt lat="42.1519858" lon="13.6858825"><ele>705.0</ele><time>2026-05-03T09:19:17.029Z</time></trkpt><trkpt lat="42.1520623" lon="13.6858651"><ele>705.0</ele><time>2026-05-03T09:19:18.023Z</time></trkpt><trkpt lat="42.1521401" lon="13.6858481"><ele>705.0</ele><time>2026-05-03T09:19:19.027Z</time></trkpt><trkpt lat="42.1522202" lon="13.6858345"><ele>705.0</ele><time>2026-05-03T09:19:20.04Z</time></trkpt><trkpt lat="42.1523006" lon="13.6858209"><ele>705.0</ele><time>2026-05-03T09:19:21.04Z</time></trkpt><trkpt lat="42.1523831" lon="13.6858134"><ele>705.0</ele><time>2026-05-03T09:19:22.039Z</time></trkpt><trkpt lat="42.1524618" lon="13.6858082"><ele>705.1428571428571</ele><time>2026-05-03T09:19:23.034Z</time></trkpt><trkpt lat="42.1525342" lon="13.6858047"><ele>705.2857142857142</ele><time>2026-05-03T09:19:24.034Z</time></trkpt><trkpt lat="42.1526077" lon="13.6858081"><ele>705.4285714285713</ele><time>2026-05-03T09:19:25.034Z</time></trkpt><trkpt lat="42.152684" lon="13.6858168"><ele>705.5714285714286</ele><time>2026-05-03T09:19:26.028Z</time></trkpt><trkpt lat="42.1527547" lon="13.6858259"><ele>705.7142857142858</ele><time>2026-05-03T09:19:27.041Z</time></trkpt><trkpt lat="42.1528216" lon="13.68582"><ele>705.8571428571428</ele><time>2026-05-03T09:19:28.032Z</time></trkpt><trkpt lat="42.1528855" lon="13.6858027"><ele>706.0</ele><time>2026-05-03T09:19:29.033Z</time></trkpt><trkpt lat="42.1529519" lon="13.6857682"><ele>706.0</ele><time>2026-05-03T09:19:30.027Z</time></trkpt><trkpt lat="42.1530198" lon="13.6857157"><ele>706.0</ele><time>2026-05-03T09:19:31.028Z</time></trkpt><trkpt lat="42.1530809" lon="13.6856462"><ele>706.0</ele><time>2026-05-03T09:19:32.03Z</time></trkpt><trkpt lat="42.1531376" lon="13.6855629"><ele>706.0</ele><time>2026-05-03T09:19:33.032Z</time></trkpt><trkpt lat="42.1531843" lon="13.6854615"><ele>706.0</ele><time>2026-05-03T09:19:34.032Z</time></trkpt><trkpt lat="42.1532259" lon="13.6853602"><ele>706.0</ele><time>2026-05-03T09:19:35.027Z</time></trkpt><trkpt lat="42.1532642" lon="13.6852566"><ele>706.3333333333334</ele><time>2026-05-03T09:19:36.025Z</time></trkpt><trkpt lat="42.1533046" lon="13.6851546"><ele>706.6666666666667</ele><time>2026-05-03T09:19:37.023Z</time></trkpt><trkpt lat="42.1533465" lon="13.6850564"><ele>707.0</ele><time>2026-05-03T09:19:38.049Z</time></trkpt><trkpt lat="42.1533869" lon="13.6849582"><ele>707.3333333333334</ele><time>2026-05-03T09:19:39.016Z</time></trkpt><trkpt lat="42.1534274" lon="13.6848588"><ele>707.6666666666666</ele><time>2026-05-03T09:19:40.028Z</time></trkpt><trkpt lat="42.1534667" lon="13.6847622"><ele>708.0</ele><time>2026-05-03T09:19:41.033Z</time></trkpt><trkpt lat="42.153509" lon="13.6846721"><ele>708.0</ele><time>2026-05-03T09:19:42.037Z</time></trkpt><trkpt lat="42.1535521" lon="13.684588"><ele>708.0</ele><time>2026-05-03T09:19:43.036Z</time></trkpt><trkpt lat="42.1535956" lon="13.6845099"><ele>708.0</ele><time>2026-05-03T09:19:44.024Z</time></trkpt><trkpt lat="42.1536365" lon="13.6844342"><ele>708.0</ele><time>2026-05-03T09:19:45.007Z</time></trkpt><trkpt lat="42.1536729" lon="13.6843565"><ele>708.0</ele><time>2026-05-03T09:19:46.028Z</time></trkpt><trkpt lat="42.1537155" lon="13.68429"><ele>708.0</ele><time>2026-05-03T09:19:47.019Z</time></trkpt><trkpt lat="42.1537577" lon="13.6842222"><ele>708.0</ele><time>2026-05-03T09:19:48.043Z</time></trkpt><trkpt lat="42.1538387" lon="13.6841021"><ele>709.0</ele><time>2026-05-03T09:19:50.026Z</time></trkpt><trkpt lat="42.1539428" lon="13.6840315"><ele>710.0</ele><time>2026-05-03T09:19:52.024Z</time></trkpt><trkpt lat="42.154007" lon="13.6840321"><ele>711.0</ele><time>2026-05-03T09:19:53.021Z</time></trkpt><trkpt lat="42.1541153" lon="13.6841092"><ele>712.0</ele><time>2026-05-03T09:19:55.021Z</time></trkpt><trkpt lat="42.1541475" lon="13.6842658"><ele>713.0</ele><time>2026-05-03T09:19:57.032Z</time></trkpt><trkpt lat="42.1541264" lon="13.6843535"><ele>712.1666666666666</ele><time>2026-05-03T09:19:58.016Z</time></trkpt><trkpt lat="42.1540962" lon="13.684455"><ele>711.3333333333333</ele><time>2026-05-03T09:19:59.035Z</time></trkpt><trkpt lat="42.1540593" lon="13.6845593"><ele>710.5</ele><time>2026-05-03T09:20:00.029Z</time></trkpt><trkpt lat="42.1540281" lon="13.6846731"><ele>709.6666666666666</ele><time>2026-05-03T09:20:01.023Z</time></trkpt><trkpt lat="42.1540016" lon="13.6847845"><ele>708.8333333333334</ele><time>2026-05-03T09:20:02.026Z</time></trkpt><trkpt lat="42.1539752" lon="13.6848953"><ele>708.0</ele><time>2026-05-03T09:20:03.026Z</time></trkpt><trkpt lat="42.1539477" lon="13.6850125"><ele>708.0</ele><time>2026-05-03T09:20:04.042Z</time></trkpt><trkpt lat="42.1539178" lon="13.6851346"><ele>708.0</ele><time>2026-05-03T09:20:05.025Z</time></trkpt><trkpt lat="42.1538865" lon="13.68526"><ele>708.0</ele><time>2026-05-03T09:20:06.034Z</time></trkpt><trkpt lat="42.1538526" lon="13.6853882"><ele>708.0</ele><time>2026-05-03T09:20:07.025Z</time></trkpt><trkpt lat="42.1538199" lon="13.6855221"><ele>708.0</ele><time>2026-05-03T09:20:08.026Z</time></trkpt><trkpt lat="42.1537858" lon="13.6856595"><ele>705.0</ele><time>2026-05-03T09:20:09.032Z</time></trkpt><trkpt lat="42.1537521" lon="13.6857956"><ele>702.0</ele><time>2026-05-03T09:20:10.027Z</time></trkpt><trkpt lat="42.153717" lon="13.6859334"><ele>699.0</ele><time>2026-05-03T09:20:11.026Z</time></trkpt><trkpt lat="42.1536843" lon="13.6860748"><ele>696.0</ele><time>2026-05-03T09:20:12.027Z</time></trkpt><trkpt lat="42.1536496" lon="13.6862091"><ele>693.0</ele><time>2026-05-03T09:20:13.024Z</time></trkpt><trkpt lat="42.1536167" lon="13.6863473"><ele>690.8</ele><time>2026-05-03T09:20:14.018Z</time></trkpt><trkpt lat="42.1535862" lon="13.6864892"><ele>688.5999999999999</ele><time>2026-05-03T09:20:15.03Z</time></trkpt><trkpt lat="42.1535543" lon="13.6866328"><ele>686.4000000000001</ele><time>2026-05-03T09:20:16.024Z</time></trkpt><trkpt lat="42.1535251" lon="13.6867767"><ele>684.2</ele><time>2026-05-03T09:20:17.03Z</time></trkpt><trkpt lat="42.1534971" lon="13.6869172"><ele>682.0</ele><time>2026-05-03T09:20:18.028Z</time></trkpt><trkpt lat="42.1534673" lon="13.6870644"><ele>680.6</ele><time>2026-05-03T09:20:19.022Z</time></trkpt><trkpt lat="42.1534398" lon="13.6872077"><ele>679.2</ele><time>2026-05-03T09:20:20.024Z</time></trkpt><trkpt lat="42.1534119" lon="13.6873513"><ele>677.8</ele><time>2026-05-03T09:20:21.025Z</time></trkpt><trkpt lat="42.153389" lon="13.6874963"><ele>676.4</ele><time>2026-05-03T09:20:22.026Z</time></trkpt><trkpt lat="42.153365" lon="13.6876417"><ele>675.0</ele><time>2026-05-03T09:20:23.026Z</time></trkpt><trkpt lat="42.1533407" lon="13.6877854"><ele>674.2</ele><time>2026-05-03T09:20:24.03Z</time></trkpt><trkpt lat="42.1533178" lon="13.6879293"><ele>673.4</ele><time>2026-05-03T09:20:25.022Z</time></trkpt><trkpt lat="42.1532981" lon="13.6880698"><ele>672.5999999999999</ele><time>2026-05-03T09:20:26.028Z</time></trkpt><trkpt lat="42.1532803" lon="13.6882113"><ele>671.8</ele><time>2026-05-03T09:20:27.032Z</time></trkpt><trkpt lat="42.1532694" lon="13.688352"><ele>671.0</ele><time>2026-05-03T09:20:28.041Z</time></trkpt><trkpt lat="42.1532595" lon="13.6884956"><ele>670.0</ele><time>2026-05-03T09:20:29.028Z</time></trkpt><trkpt lat="42.1532509" lon="13.6886426"><ele>669.0</ele><time>2026-05-03T09:20:30.034Z</time></trkpt><trkpt lat="42.1532401" lon="13.688791"><ele>668.0</ele><time>2026-05-03T09:20:31.027Z</time></trkpt><trkpt lat="42.1532296" lon="13.6889407"><ele>667.0</ele><time>2026-05-03T09:20:32.04Z</time></trkpt><trkpt lat="42.1532182" lon="13.689089"><ele>666.0</ele><time>2026-05-03T09:20:33.021Z</time></trkpt><trkpt lat="42.1532055" lon="13.6892378"><ele>664.5999999999999</ele><time>2026-05-03T09:20:34.031Z</time></trkpt><trkpt lat="42.1531961" lon="13.6893866"><ele>663.2</ele><time>2026-05-03T09:20:35.032Z</time></trkpt><trkpt lat="42.1531884" lon="13.6895365"><ele>661.8</ele><time>2026-05-03T09:20:36.035Z</time></trkpt><trkpt lat="42.1531836" lon="13.6896826"><ele>660.4000000000001</ele><time>2026-05-03T09:20:37.025Z</time></trkpt><trkpt lat="42.1531795" lon="13.6898346"><ele>659.0</ele><time>2026-05-03T09:20:38.031Z</time></trkpt><trkpt lat="42.1531752" lon="13.6899855"><ele>657.5</ele><time>2026-05-03T09:20:39.032Z</time></trkpt><trkpt lat="42.1531723" lon="13.6901376"><ele>656.0</ele><time>2026-05-03T09:20:40.026Z</time></trkpt><trkpt lat="42.1531749" lon="13.6902935"><ele>654.5</ele><time>2026-05-03T09:20:41.053Z</time></trkpt><trkpt lat="42.1531674" lon="13.6904455"><ele>653.0</ele><time>2026-05-03T09:20:42.028Z</time></trkpt><trkpt lat="42.1531618" lon="13.6906001"><ele>651.75</ele><time>2026-05-03T09:20:43.051Z</time></trkpt><trkpt lat="42.1531519" lon="13.6907522"><ele>650.5</ele><time>2026-05-03T09:20:44.023Z</time></trkpt><trkpt lat="42.1531382" lon="13.6909067"><ele>649.25</ele><time>2026-05-03T09:20:45.033Z</time></trkpt><trkpt lat="42.1531253" lon="13.6910608"><ele>648.0</ele><time>2026-05-03T09:20:46.028Z</time></trkpt><trkpt lat="42.1531112" lon="13.6912161"><ele>647.25</ele><time>2026-05-03T09:20:47.031Z</time></trkpt><trkpt lat="42.1530971" lon="13.6913754"><ele>646.5</ele><time>2026-05-03T09:20:48.032Z</time></trkpt><trkpt lat="42.1530816" lon="13.6915326"><ele>645.75</ele><time>2026-05-03T09:20:49.02Z</time></trkpt><trkpt lat="42.1530684" lon="13.6916828"><ele>645.0</ele><time>2026-05-03T09:20:50.027Z</time></trkpt><trkpt lat="42.1530567" lon="13.691828"><ele>643.25</ele><time>2026-05-03T09:20:51.021Z</time></trkpt><trkpt lat="42.1530478" lon="13.6919737"><ele>641.5</ele><time>2026-05-03T09:20:52.025Z</time></trkpt><trkpt lat="42.1530354" lon="13.692121"><ele>639.75</ele><time>2026-05-03T09:20:53.021Z</time></trkpt><trkpt lat="42.1530288" lon="13.692278"><ele>638.0</ele><time>2026-05-03T09:20:54.043Z</time></trkpt><trkpt lat="42.1530255" lon="13.6924352"><ele>638.0</ele><time>2026-05-03T09:20:55.024Z</time></trkpt><trkpt lat="42.153028" lon="13.6925915"><ele>638.0</ele><time>2026-05-03T09:20:56.028Z</time></trkpt><trkpt lat="42.153031" lon="13.6927499"><ele>638.0</ele><time>2026-05-03T09:20:57.019Z</time></trkpt><trkpt lat="42.1530326" lon="13.6929078"><ele>638.0</ele><time>2026-05-03T09:20:58.03Z</time></trkpt><trkpt lat="42.1530309" lon="13.693072"><ele>637.0</ele><time>2026-05-03T09:20:59.023Z</time></trkpt><trkpt lat="42.153016" lon="13.6932322"><ele>636.0</ele><time>2026-05-03T09:21:00.032Z</time></trkpt><trkpt lat="42.1529925" lon="13.693389"><ele>635.0</ele><time>2026-05-03T09:21:01.023Z</time></trkpt><trkpt lat="42.1529603" lon="13.6935461"><ele>634.0</ele><time>2026-05-03T09:21:02.031Z</time></trkpt><trkpt lat="42.1529197" lon="13.6936978"><ele>633.25</ele><time>2026-05-03T09:21:03.038Z</time></trkpt><trkpt lat="42.1528779" lon="13.6938544"><ele>632.5</ele><time>2026-05-03T09:21:04.041Z</time></trkpt><trkpt lat="42.1528326" lon="13.6940065"><ele>631.75</ele><time>2026-05-03T09:21:05.024Z</time></trkpt><trkpt lat="42.152782" lon="13.694158"><ele>631.0</ele><time>2026-05-03T09:21:06.036Z</time></trkpt><trkpt lat="42.1527286" lon="13.6943075"><ele>630.0</ele><time>2026-05-03T09:21:07.025Z</time></trkpt><trkpt lat="42.1526732" lon="13.6944557"><ele>629.0</ele><time>2026-05-03T09:21:08.027Z</time></trkpt><trkpt lat="42.1526258" lon="13.6946089"><ele>628.0</ele><time>2026-05-03T09:21:09.028Z</time></trkpt><trkpt lat="42.1525787" lon="13.6947572"><ele>627.0</ele><time>2026-05-03T09:21:10.028Z</time></trkpt><trkpt lat="42.1525295" lon="13.6949074"><ele>627.0</ele><time>2026-05-03T09:21:11.039Z</time></trkpt><trkpt lat="42.1524837" lon="13.6950572"><ele>627.0</ele><time>2026-05-03T09:21:12.028Z</time></trkpt><trkpt lat="42.1524361" lon="13.6952105"><ele>627.0</ele><time>2026-05-03T09:21:13.024Z</time></trkpt><trkpt lat="42.1523874" lon="13.6953658"><ele>627.0</ele><time>2026-05-03T09:21:14.029Z</time></trkpt><trkpt lat="42.1523345" lon="13.695521"><ele>625.5</ele><time>2026-05-03T09:21:15.028Z</time></trkpt><trkpt lat="42.1522809" lon="13.6956744"><ele>624.0</ele><time>2026-05-03T09:21:16.026Z</time></trkpt><trkpt lat="42.1522258" lon="13.6958319"><ele>622.5</ele><time>2026-05-03T09:21:17.023Z</time></trkpt><trkpt lat="42.1521691" lon="13.6959849"><ele>621.0</ele><time>2026-05-03T09:21:18.022Z</time></trkpt><trkpt lat="42.1521171" lon="13.6961426"><ele>620.25</ele><time>2026-05-03T09:21:19.018Z</time></trkpt><trkpt lat="42.1520639" lon="13.6962996"><ele>619.5</ele><time>2026-05-03T09:21:20.032Z</time></trkpt><trkpt lat="42.1520126" lon="13.6964498"><ele>618.75</ele><time>2026-05-03T09:21:21.019Z</time></trkpt><trkpt lat="42.1519641" lon="13.6966035"><ele>618.0</ele><time>2026-05-03T09:21:22.027Z</time></trkpt><trkpt lat="42.1519157" lon="13.6967547"><ele>618.0</ele><time>2026-05-03T09:21:23.026Z</time></trkpt><trkpt lat="42.151867" lon="13.6969033"><ele>618.0</ele><time>2026-05-03T09:21:24.027Z</time></trkpt><trkpt lat="42.1518201" lon="13.6970569"><ele>618.0</ele><time>2026-05-03T09:21:25.026Z</time></trkpt><trkpt lat="42.1517744" lon="13.6972083"><ele>618.0</ele><time>2026-05-03T09:21:26.032Z</time></trkpt><trkpt lat="42.1517287" lon="13.6973527"><ele>617.25</ele><time>2026-05-03T09:21:27.022Z</time></trkpt><trkpt lat="42.1516899" lon="13.6975029"><ele>616.5</ele><time>2026-05-03T09:21:28.019Z</time></trkpt><trkpt lat="42.151656" lon="13.697656"><ele>615.75</ele><time>2026-05-03T09:21:29.041Z</time></trkpt><trkpt lat="42.1516302" lon="13.6978145"><ele>615.0</ele><time>2026-05-03T09:21:30.052Z</time></trkpt><trkpt lat="42.1516134" lon="13.6979726"><ele>614.5</ele><time>2026-05-03T09:21:31.019Z</time></trkpt><trkpt lat="42.1516066" lon="13.6981321"><ele>614.0</ele><time>2026-05-03T09:21:32.037Z</time></trkpt><trkpt lat="42.1516044" lon="13.6982996"><ele>613.5</ele><time>2026-05-03T09:21:33.025Z</time></trkpt><trkpt lat="42.1516051" lon="13.6984599"><ele>613.0</ele><time>2026-05-03T09:21:34.03Z</time></trkpt><trkpt lat="42.1516079" lon="13.6986226"><ele>612.25</ele><time>2026-05-03T09:21:35.022Z</time></trkpt><trkpt lat="42.1516118" lon="13.6987874"><ele>611.5</ele><time>2026-05-03T09:21:36.025Z</time></trkpt><trkpt lat="42.1516185" lon="13.6989469"><ele>610.75</ele><time>2026-05-03T09:21:37.03Z</time></trkpt><trkpt lat="42.1516286" lon="13.6991112"><ele>610.0</ele><time>2026-05-03T09:21:38.021Z</time></trkpt><trkpt lat="42.1516454" lon="13.699272"><ele>608.8</ele><time>2026-05-03T09:21:39.024Z</time></trkpt><trkpt lat="42.1516684" lon="13.6994258"><ele>607.6</ele><time>2026-05-03T09:21:40.028Z</time></trkpt><trkpt lat="42.1516907" lon="13.6995771"><ele>606.4</ele><time>2026-05-03T09:21:41.035Z</time></trkpt><trkpt lat="42.1517126" lon="13.6997229"><ele>605.2</ele><time>2026-05-03T09:21:42.033Z</time></trkpt><trkpt lat="42.1517371" lon="13.6998655"><ele>604.0</ele><time>2026-05-03T09:21:43.024Z</time></trkpt><trkpt lat="42.1517581" lon="13.7000054"><ele>604.0</ele><time>2026-05-03T09:21:44.024Z</time></trkpt><trkpt lat="42.1517737" lon="13.7001492"><ele>604.0</ele><time>2026-05-03T09:21:45.022Z</time></trkpt><trkpt lat="42.1517918" lon="13.700289"><ele>604.0</ele><time>2026-05-03T09:21:46.022Z</time></trkpt><trkpt lat="42.1518129" lon="13.700426"><ele>604.0</ele><time>2026-05-03T09:21:47.031Z</time></trkpt><trkpt lat="42.1518247" lon="13.7005604"><ele>604.0</ele><time>2026-05-03T09:21:48.015Z</time></trkpt><trkpt lat="42.15182" lon="13.7006935"><ele>603.6</ele><time>2026-05-03T09:21:49.021Z</time></trkpt><trkpt lat="42.1517995" lon="13.7008286"><ele>603.2</ele><time>2026-05-03T09:21:50.028Z</time></trkpt><trkpt lat="42.1517656" lon="13.7009637"><ele>602.8000000000001</ele><time>2026-05-03T09:21:51.03Z</time></trkpt><trkpt lat="42.1517219" lon="13.7010994"><ele>602.4</ele><time>2026-05-03T09:21:52.028Z</time></trkpt><trkpt lat="42.1516754" lon="13.7012415"><ele>602.0</ele><time>2026-05-03T09:21:53.021Z</time></trkpt><trkpt lat="42.151628" lon="13.701381"><ele>601.5</ele><time>2026-05-03T09:21:54.028Z</time></trkpt><trkpt lat="42.1515816" lon="13.7015255"><ele>601.0</ele><time>2026-05-03T09:21:55.023Z</time></trkpt><trkpt lat="42.1515346" lon="13.7016637"><ele>600.5</ele><time>2026-05-03T09:21:56.023Z</time></trkpt><trkpt lat="42.1514906" lon="13.7018057"><ele>600.0</ele><time>2026-05-03T09:21:57.035Z</time></trkpt><trkpt lat="42.1514486" lon="13.7019421"><ele>599.4</ele><time>2026-05-03T09:21:58.026Z</time></trkpt><trkpt lat="42.1514067" lon="13.7020747"><ele>598.8</ele><time>2026-05-03T09:21:59.018Z</time></trkpt><trkpt lat="42.1513616" lon="13.7022093"><ele>598.2</ele><time>2026-05-03T09:22:00.038Z</time></trkpt><trkpt lat="42.1513132" lon="13.702342"><ele>597.6</ele><time>2026-05-03T09:22:01.02Z</time></trkpt><trkpt lat="42.1512642" lon="13.7024793"><ele>597.0</ele><time>2026-05-03T09:22:02.027Z</time></trkpt><trkpt lat="42.1512166" lon="13.7026215"><ele>596.5</ele><time>2026-05-03T09:22:03.03Z</time></trkpt><trkpt lat="42.151173" lon="13.7027641"><ele>596.0</ele><time>2026-05-03T09:22:04.03Z</time></trkpt><trkpt lat="42.1511347" lon="13.7029121"><ele>595.5</ele><time>2026-05-03T09:22:05.024Z</time></trkpt><trkpt lat="42.1511027" lon="13.7030667"><ele>595.0</ele><time>2026-05-03T09:22:06.025Z</time></trkpt><trkpt lat="42.1510754" lon="13.703223"><ele>595.0</ele><time>2026-05-03T09:22:07.026Z</time></trkpt><trkpt lat="42.1510483" lon="13.7033819"><ele>595.0</ele><time>2026-05-03T09:22:08.023Z</time></trkpt><trkpt lat="42.151022" lon="13.7035387"><ele>595.0</ele><time>2026-05-03T09:22:09.019Z</time></trkpt><trkpt lat="42.1509936" lon="13.7036994"><ele>595.0</ele><time>2026-05-03T09:22:10.024Z</time></trkpt><trkpt lat="42.1509679" lon="13.7038561"><ele>595.0</ele><time>2026-05-03T09:22:11.025Z</time></trkpt><trkpt lat="42.1509409" lon="13.7040097"><ele>595.0</ele><time>2026-05-03T09:22:12.03Z</time></trkpt><trkpt lat="42.1509118" lon="13.7041653"><ele>595.0</ele><time>2026-05-03T09:22:13.018Z</time></trkpt><trkpt lat="42.1508873" lon="13.7043202"><ele>595.0</ele><time>2026-05-03T09:22:14.034Z</time></trkpt><trkpt lat="42.1508655" lon="13.7044716"><ele>594.4</ele><time>2026-05-03T09:22:15.03Z</time></trkpt><trkpt lat="42.1508442" lon="13.7046214"><ele>593.8</ele><time>2026-05-03T09:22:16.041Z</time></trkpt><trkpt lat="42.150825" lon="13.7047694"><ele>593.2</ele><time>2026-05-03T09:22:17.016Z</time></trkpt><trkpt lat="42.1508016" lon="13.7049164"><ele>592.6</ele><time>2026-05-03T09:22:18.029Z</time></trkpt><trkpt lat="42.1507791" lon="13.7050646"><ele>592.0</ele><time>2026-05-03T09:22:19.038Z</time></trkpt><trkpt lat="42.1507545" lon="13.7052109"><ele>592.0</ele><time>2026-05-03T09:22:20.039Z</time></trkpt><trkpt lat="42.1507321" lon="13.7053573"><ele>592.0</ele><time>2026-05-03T09:22:21.02Z</time></trkpt><trkpt lat="42.1507184" lon="13.705508"><ele>592.0</ele><time>2026-05-03T09:22:22.024Z</time></trkpt><trkpt lat="42.1507121" lon="13.7056599"><ele>592.0</ele><time>2026-05-03T09:22:23.025Z</time></trkpt><trkpt lat="42.1507083" lon="13.7058136"><ele>589.5</ele><time>2026-05-03T09:22:24.005Z</time></trkpt><trkpt lat="42.1507046" lon="13.7059666"><ele>587.0</ele><time>2026-05-03T09:22:25.023Z</time></trkpt><trkpt lat="42.150699" lon="13.7061176"><ele>584.5</ele><time>2026-05-03T09:22:26.033Z</time></trkpt><trkpt lat="42.1506903" lon="13.706271"><ele>582.0</ele><time>2026-05-03T09:22:27.033Z</time></trkpt><trkpt lat="42.1506822" lon="13.7064216"><ele>581.8000000000001</ele><time>2026-05-03T09:22:28.026Z</time></trkpt><trkpt lat="42.1506754" lon="13.7065675"><ele>581.6</ele><time>2026-05-03T09:22:29.033Z</time></trkpt><trkpt lat="42.150664" lon="13.7067163"><ele>581.4000000000001</ele><time>2026-05-03T09:22:30.027Z</time></trkpt><trkpt lat="42.1506475" lon="13.706861"><ele>581.2</ele><time>2026-05-03T09:22:31.025Z</time></trkpt><trkpt lat="42.1506235" lon="13.7070055"><ele>581.0</ele><time>2026-05-03T09:22:32.035Z</time></trkpt><trkpt lat="42.1505965" lon="13.7071458"><ele>580.8</ele><time>2026-05-03T09:22:33.029Z</time></trkpt><trkpt lat="42.15056" lon="13.7072854"><ele>580.6</ele><time>2026-05-03T09:22:34.023Z</time></trkpt><trkpt lat="42.1505164" lon="13.7074224"><ele>580.4</ele><time>2026-05-03T09:22:35.017Z</time></trkpt><trkpt lat="42.1504669" lon="13.7075572"><ele>580.2</ele><time>2026-05-03T09:22:36.023Z</time></trkpt><trkpt lat="42.1504148" lon="13.7076944"><ele>580.0</ele><time>2026-05-03T09:22:37.02Z</time></trkpt><trkpt lat="42.1503644" lon="13.707832"><ele>579.25</ele><time>2026-05-03T09:22:38.034Z</time></trkpt><trkpt lat="42.1503127" lon="13.7079711"><ele>578.5</ele><time>2026-05-03T09:22:39.026Z</time></trkpt><trkpt lat="42.1502633" lon="13.7081163"><ele>577.75</ele><time>2026-05-03T09:22:40.022Z</time></trkpt><trkpt lat="42.1502121" lon="13.7082601"><ele>577.0</ele><time>2026-05-03T09:22:41.03Z</time></trkpt><trkpt lat="42.1501547" lon="13.7084043"><ele>577.0</ele><time>2026-05-03T09:22:42.027Z</time></trkpt><trkpt lat="42.1501" lon="13.7085503"><ele>577.0</ele><time>2026-05-03T09:22:43.026Z</time></trkpt><trkpt lat="42.1500443" lon="13.7086968"><ele>577.0</ele><time>2026-05-03T09:22:44.025Z</time></trkpt><trkpt lat="42.1499865" lon="13.7088446"><ele>577.0</ele><time>2026-05-03T09:22:45.028Z</time></trkpt><trkpt lat="42.1499305" lon="13.7089951"><ele>575.75</ele><time>2026-05-03T09:22:46.03Z</time></trkpt><trkpt lat="42.1498728" lon="13.7091471"><ele>574.5</ele><time>2026-05-03T09:22:47.024Z</time></trkpt><trkpt lat="42.1498163" lon="13.7093019"><ele>573.25</ele><time>2026-05-03T09:22:48.024Z</time></trkpt><trkpt lat="42.1497581" lon="13.7094551"><ele>572.0</ele><time>2026-05-03T09:22:49.021Z</time></trkpt><trkpt lat="42.1496957" lon="13.7096076"><ele>571.5</ele><time>2026-05-03T09:22:50.024Z</time></trkpt><trkpt lat="42.1496376" lon="13.709765"><ele>571.0</ele><time>2026-05-03T09:22:51.027Z</time></trkpt><trkpt lat="42.14958" lon="13.7099234"><ele>570.5</ele><time>2026-05-03T09:22:52.022Z</time></trkpt><trkpt lat="42.1495224" lon="13.7100844"><ele>570.0</ele><time>2026-05-03T09:22:53.035Z</time></trkpt><trkpt lat="42.1494667" lon="13.7102478"><ele>569.5</ele><time>2026-05-03T09:22:54.031Z</time></trkpt><trkpt lat="42.1494053" lon="13.7104015"><ele>569.0</ele><time>2026-05-03T09:22:55.015Z</time></trkpt><trkpt lat="42.1493408" lon="13.7105567"><ele>568.5</ele><time>2026-05-03T09:22:56.024Z</time></trkpt><trkpt lat="42.149269" lon="13.7107083"><ele>568.0</ele><time>2026-05-03T09:22:57.018Z</time></trkpt><trkpt lat="42.1491885" lon="13.7108471"><ele>568.0</ele><time>2026-05-03T09:22:58.057Z</time></trkpt><trkpt lat="42.1491022" lon="13.7109844"><ele>568.0</ele><time>2026-05-03T09:22:59.022Z</time></trkpt><trkpt lat="42.1490083" lon="13.7111216"><ele>568.0</ele><time>2026-05-03T09:23:00.031Z</time></trkpt><trkpt lat="42.148917" lon="13.7112573"><ele>568.0</ele><time>2026-05-03T09:23:01.022Z</time></trkpt><trkpt lat="42.1488289" lon="13.711382"><ele>567.0</ele><time>2026-05-03T09:23:02.022Z</time></trkpt><trkpt lat="42.1487459" lon="13.7114996"><ele>566.0</ele><time>2026-05-03T09:23:03.023Z</time></trkpt><trkpt lat="42.1486695" lon="13.7116122"><ele>565.0</ele><time>2026-05-03T09:23:04.028Z</time></trkpt><trkpt lat="42.1485972" lon="13.711722"><ele>564.0</ele><time>2026-05-03T09:23:05.026Z</time></trkpt><trkpt lat="42.1485287" lon="13.7118282"><ele>563.0</ele><time>2026-05-03T09:23:06.02Z</time></trkpt><trkpt lat="42.1484656" lon="13.7119194"><ele>562.8333333333333</ele><time>2026-05-03T09:23:07.035Z</time></trkpt><trkpt lat="42.1484051" lon="13.7119998"><ele>562.6666666666666</ele><time>2026-05-03T09:23:08.027Z</time></trkpt><trkpt lat="42.1483558" lon="13.7120712"><ele>562.5</ele><time>2026-05-03T09:23:09.041Z</time></trkpt><trkpt lat="42.1482898" lon="13.7121904"><ele>562.3333333333334</ele><time>2026-05-03T09:23:11.029Z</time></trkpt><trkpt lat="42.1482638" lon="13.7123212"><ele>562.1666666666667</ele><time>2026-05-03T09:23:13.027Z</time></trkpt><trkpt lat="42.1482861" lon="13.7124017"><ele>562.0</ele><time>2026-05-03T09:23:14.038Z</time></trkpt><trkpt lat="42.148332" lon="13.7124669"><ele>562.0</ele><time>2026-05-03T09:23:15.021Z</time></trkpt><trkpt lat="42.148388" lon="13.7125196"><ele>562.0</ele><time>2026-05-03T09:23:16.033Z</time></trkpt><trkpt lat="42.1484604" lon="13.7125647"><ele>562.0</ele><time>2026-05-03T09:23:17.023Z</time></trkpt><trkpt lat="42.1485379" lon="13.7126095"><ele>562.0</ele><time>2026-05-03T09:23:18.031Z</time></trkpt><trkpt lat="42.1486198" lon="13.7126637"><ele>562.0</ele><time>2026-05-03T09:23:19.027Z</time></trkpt><trkpt lat="42.1487072" lon="13.7127295"><ele>562.0</ele><time>2026-05-03T09:23:20.046Z</time></trkpt><trkpt lat="42.1487973" lon="13.7127946"><ele>561.5</ele><time>2026-05-03T09:23:21.023Z</time></trkpt><trkpt lat="42.1488954" lon="13.7128617"><ele>561.0</ele><time>2026-05-03T09:23:22.042Z</time></trkpt><trkpt lat="42.1489937" lon="13.7129342"><ele>560.5</ele><time>2026-05-03T09:23:23.036Z</time></trkpt><trkpt lat="42.1490929" lon="13.7130096"><ele>560.0</ele><time>2026-05-03T09:23:24.033Z</time></trkpt><trkpt lat="42.1491974" lon="13.7130849"><ele>561.2</ele><time>2026-05-03T09:23:25.024Z</time></trkpt><trkpt lat="42.149287" lon="13.7131571"><ele>562.4</ele><time>2026-05-03T09:23:26.021Z</time></trkpt><trkpt lat="42.1493778" lon="13.7132227"><ele>563.6</ele><time>2026-05-03T09:23:27.032Z</time></trkpt><trkpt lat="42.1494689" lon="13.7132851"><ele>564.8</ele><time>2026-05-03T09:23:28.032Z</time></trkpt><trkpt lat="42.1495583" lon="13.7133543"><ele>566.0</ele><time>2026-05-03T09:23:29.044Z</time></trkpt><trkpt lat="42.1496541" lon="13.7134254"><ele>566.0</ele><time>2026-05-03T09:23:30.049Z</time></trkpt><trkpt lat="42.1497433" lon="13.7134921"><ele>566.0</ele><time>2026-05-03T09:23:31.036Z</time></trkpt><trkpt lat="42.1498265" lon="13.7135558"><ele>566.0</ele><time>2026-05-03T09:23:32.041Z</time></trkpt><trkpt lat="42.1499055" lon="13.713614"><ele>566.0</ele><time>2026-05-03T09:23:33.03Z</time></trkpt><trkpt lat="42.1499891" lon="13.7136669"><ele>566.0</ele><time>2026-05-03T09:23:34.03Z</time></trkpt><trkpt lat="42.1500808" lon="13.7137013"><ele>566.0</ele><time>2026-05-03T09:23:35.029Z</time></trkpt><trkpt lat="42.1501797" lon="13.7137175"><ele>566.0</ele><time>2026-05-03T09:23:36.025Z</time></trkpt><trkpt lat="42.1502872" lon="13.7137145"><ele>566.0</ele><time>2026-05-03T09:23:37.024Z</time></trkpt><trkpt lat="42.150391" lon="13.7136686"><ele>566.0</ele><time>2026-05-03T09:23:38.025Z</time></trkpt><trkpt lat="42.1504891" lon="13.7135966"><ele>566.0</ele><time>2026-05-03T09:23:39.026Z</time></trkpt><trkpt lat="42.1505736" lon="13.713498"><ele>566.0</ele><time>2026-05-03T09:23:40.022Z</time></trkpt><trkpt lat="42.150647" lon="13.7133866"><ele>566.0</ele><time>2026-05-03T09:23:41.028Z</time></trkpt><trkpt lat="42.1507132" lon="13.7132531"><ele>566.0</ele><time>2026-05-03T09:23:42.038Z</time></trkpt><trkpt lat="42.1507702" lon="13.7131183"><ele>566.0</ele><time>2026-05-03T09:23:43.037Z</time></trkpt><trkpt lat="42.1508265" lon="13.7129779"><ele>563.75</ele><time>2026-05-03T09:23:44.027Z</time></trkpt><trkpt lat="42.1508828" lon="13.7128389"><ele>561.5</ele><time>2026-05-03T09:23:45.03Z</time></trkpt><trkpt lat="42.1509394" lon="13.7127002"><ele>559.25</ele><time>2026-05-03T09:23:46.026Z</time></trkpt><trkpt lat="42.1509964" lon="13.7125661"><ele>557.0</ele><time>2026-05-03T09:23:47.022Z</time></trkpt><trkpt lat="42.1510535" lon="13.7124335"><ele>557.0</ele><time>2026-05-03T09:23:48.029Z</time></trkpt><trkpt lat="42.1511047" lon="13.712303"><ele>557.0</ele><time>2026-05-03T09:23:49.022Z</time></trkpt><trkpt lat="42.1511578" lon="13.7121826"><ele>557.0</ele><time>2026-05-03T09:23:50.037Z</time></trkpt><trkpt lat="42.1512096" lon="13.7120608"><ele>557.0</ele><time>2026-05-03T09:23:51.017Z</time></trkpt><trkpt lat="42.1512651" lon="13.711947"><ele>557.0</ele><time>2026-05-03T09:23:52.041Z</time></trkpt><trkpt lat="42.1513187" lon="13.7118359"><ele>557.2</ele><time>2026-05-03T09:23:53.027Z</time></trkpt><trkpt lat="42.151383" lon="13.7117398"><ele>557.4000000000001</ele><time>2026-05-03T09:23:54.028Z</time></trkpt><trkpt lat="42.1514592" lon="13.711664"><ele>557.5999999999999</ele><time>2026-05-03T09:23:55.034Z</time></trkpt><trkpt lat="42.1515437" lon="13.7116168"><ele>557.8</ele><time>2026-05-03T09:23:56.032Z</time></trkpt><trkpt lat="42.1516392" lon="13.7115994"><ele>558.0</ele><time>2026-05-03T09:23:57.027Z</time></trkpt><trkpt lat="42.151742" lon="13.7116126"><ele>556.8</ele><time>2026-05-03T09:23:58.038Z</time></trkpt><trkpt lat="42.1518451" lon="13.7116368"><ele>555.5999999999999</ele><time>2026-05-03T09:23:59.015Z</time></trkpt><trkpt lat="42.1519477" lon="13.7116651"><ele>554.4000000000001</ele><time>2026-05-03T09:24:00.037Z</time></trkpt><trkpt lat="42.1520491" lon="13.7117044"><ele>553.2</ele><time>2026-05-03T09:24:01.037Z</time></trkpt><trkpt lat="42.1521443" lon="13.7117597"><ele>552.0</ele><time>2026-05-03T09:24:02.039Z</time></trkpt><trkpt lat="42.1522326" lon="13.7118312"><ele>551.4</ele><time>2026-05-03T09:24:03.012Z</time></trkpt><trkpt lat="42.1522947" lon="13.7119273"><ele>550.8000000000001</ele><time>2026-05-03T09:24:04.04Z</time></trkpt><trkpt lat="42.1523346" lon="13.7120361"><ele>550.2</ele><time>2026-05-03T09:24:05.03Z</time></trkpt><trkpt lat="42.1523652" lon="13.7121509"><ele>549.6</ele><time>2026-05-03T09:24:06.037Z</time></trkpt><trkpt lat="42.1523989" lon="13.7122779"><ele>549.0</ele><time>2026-05-03T09:24:07.039Z</time></trkpt><trkpt lat="42.1524279" lon="13.7124078"><ele>549.0</ele><time>2026-05-03T09:24:08.05Z</time></trkpt><trkpt lat="42.1524572" lon="13.7125421"><ele>549.0</ele><time>2026-05-03T09:24:09.028Z</time></trkpt><trkpt lat="42.1524836" lon="13.7126745"><ele>549.0</ele><time>2026-05-03T09:24:10.034Z</time></trkpt><trkpt lat="42.1525205" lon="13.7128067"><ele>549.0</ele><time>2026-05-03T09:24:11.047Z</time></trkpt><trkpt lat="42.1525603" lon="13.7129289"><ele>549.0</ele><time>2026-05-03T09:24:12.044Z</time></trkpt><trkpt lat="42.15261" lon="13.7130523"><ele>545.8</ele><time>2026-05-03T09:24:13.035Z</time></trkpt><trkpt lat="42.1526587" lon="13.7131825"><ele>542.5999999999999</ele><time>2026-05-03T09:24:14.036Z</time></trkpt><trkpt lat="42.1527048" lon="13.7133111"><ele>539.4</ele><time>2026-05-03T09:24:15.04Z</time></trkpt><trkpt lat="42.1527578" lon="13.7134309"><ele>536.1999999999999</ele><time>2026-05-03T09:24:16.037Z</time></trkpt><trkpt lat="42.1528077" lon="13.7135484"><ele>533.0</ele><time>2026-05-03T09:24:17.024Z</time></trkpt><trkpt lat="42.1528585" lon="13.7136609"><ele>531.1999999999999</ele><time>2026-05-03T09:24:18.037Z</time></trkpt><trkpt lat="42.1529108" lon="13.7137723"><ele>529.4</ele><time>2026-05-03T09:24:19.043Z</time></trkpt><trkpt lat="42.1529705" lon="13.7138652"><ele>527.5999999999999</ele><time>2026-05-03T09:24:20.022Z</time></trkpt><trkpt lat="42.1530404" lon="13.7139411"><ele>525.8</ele><time>2026-05-03T09:24:21.06Z</time></trkpt><trkpt lat="42.1531225" lon="13.7139992"><ele>524.0</ele><time>2026-05-03T09:24:22.042Z</time></trkpt><trkpt lat="42.153216" lon="13.7140407"><ele>524.0</ele><time>2026-05-03T09:24:23.015Z</time></trkpt><trkpt lat="42.1533242" lon="13.714062"><ele>524.0</ele><time>2026-05-03T09:24:24.03Z</time></trkpt><trkpt lat="42.1534295" lon="13.7140536"><ele>524.0</ele><time>2026-05-03T09:24:25.03Z</time></trkpt><trkpt lat="42.1535382" lon="13.714013"><ele>524.0</ele><time>2026-05-03T09:24:26.033Z</time></trkpt><trkpt lat="42.1536365" lon="13.7139577"><ele>524.0</ele><time>2026-05-03T09:24:27.029Z</time></trkpt><trkpt lat="42.1537336" lon="13.7138995"><ele>524.0</ele><time>2026-05-03T09:24:28.044Z</time></trkpt><trkpt lat="42.1538334" lon="13.7138432"><ele>524.0</ele><time>2026-05-03T09:24:29.038Z</time></trkpt><trkpt lat="42.1539303" lon="13.7137899"><ele>524.0</ele><time>2026-05-03T09:24:30.048Z</time></trkpt><trkpt lat="42.1540257" lon="13.7137435"><ele>524.0</ele><time>2026-05-03T09:24:31.038Z</time></trkpt><trkpt lat="42.1541187" lon="13.713703"><ele>524.0</ele><time>2026-05-03T09:24:32.031Z</time></trkpt><trkpt lat="42.1542074" lon="13.7136629"><ele>523.0</ele><time>2026-05-03T09:24:33.022Z</time></trkpt><trkpt lat="42.1542976" lon="13.7136362"><ele>522.0</ele><time>2026-05-03T09:24:34.027Z</time></trkpt><trkpt lat="42.1543854" lon="13.7136289"><ele>521.0</ele><time>2026-05-03T09:24:35.048Z</time></trkpt><trkpt lat="42.1544713" lon="13.7136379"><ele>520.0</ele><time>2026-05-03T09:24:36.035Z</time></trkpt><trkpt lat="42.1545645" lon="13.7136574"><ele>519.0</ele><time>2026-05-03T09:24:37.021Z</time></trkpt><trkpt lat="42.1546562" lon="13.7136923"><ele>519.0</ele><time>2026-05-03T09:24:38.024Z</time></trkpt><trkpt lat="42.1547481" lon="13.713739"><ele>519.0</ele><time>2026-05-03T09:24:39.038Z</time></trkpt><trkpt lat="42.1548433" lon="13.7137874"><ele>519.0</ele><time>2026-05-03T09:24:40.023Z</time></trkpt><trkpt lat="42.1549365" lon="13.7138381"><ele>519.0</ele><time>2026-05-03T09:24:41.038Z</time></trkpt><trkpt lat="42.1550319" lon="13.7138912"><ele>519.0</ele><time>2026-05-03T09:24:42.033Z</time></trkpt><trkpt lat="42.1551289" lon="13.7139488"><ele>518.4</ele><time>2026-05-03T09:24:43.031Z</time></trkpt><trkpt lat="42.1552221" lon="13.7140115"><ele>517.8</ele><time>2026-05-03T09:24:44.023Z</time></trkpt><trkpt lat="42.1553152" lon="13.7140892"><ele>517.2</ele><time>2026-05-03T09:24:45.021Z</time></trkpt><trkpt lat="42.1553983" lon="13.7141812"><ele>516.6</ele><time>2026-05-03T09:24:46.048Z</time></trkpt><trkpt lat="42.1554712" lon="13.7142851"><ele>516.0</ele><time>2026-05-03T09:24:47.027Z</time></trkpt><trkpt lat="42.1555393" lon="13.7143993"><ele>514.75</ele><time>2026-05-03T09:24:48.028Z</time></trkpt><trkpt lat="42.1556074" lon="13.7145196"><ele>513.5</ele><time>2026-05-03T09:24:49.022Z</time></trkpt><trkpt lat="42.1556734" lon="13.7146508"><ele>512.25</ele><time>2026-05-03T09:24:50.032Z</time></trkpt><trkpt lat="42.1557436" lon="13.714785"><ele>511.0</ele><time>2026-05-03T09:24:51.027Z</time></trkpt><trkpt lat="42.1558125" lon="13.7149223"><ele>511.0</ele><time>2026-05-03T09:24:52.033Z</time></trkpt><trkpt lat="42.1558789" lon="13.7150608"><ele>511.0</ele><time>2026-05-03T09:24:53.034Z</time></trkpt><trkpt lat="42.1559472" lon="13.7151999"><ele>511.0</ele><time>2026-05-03T09:24:54.033Z</time></trkpt><trkpt lat="42.156017" lon="13.7153406"><ele>511.0</ele><time>2026-05-03T09:24:55.021Z</time></trkpt><trkpt lat="42.1560845" lon="13.7154798"><ele>509.25</ele><time>2026-05-03T09:24:56.029Z</time></trkpt><trkpt lat="42.1561524" lon="13.7156164"><ele>507.5</ele><time>2026-05-03T09:24:57.043Z</time></trkpt><trkpt lat="42.1562194" lon="13.7157534"><ele>505.75</ele><time>2026-05-03T09:24:58.037Z</time></trkpt><trkpt lat="42.156286" lon="13.7158919"><ele>504.0</ele><time>2026-05-03T09:24:59.026Z</time></trkpt><trkpt lat="42.1563537" lon="13.7160282"><ele>503.0</ele><time>2026-05-03T09:25:00.039Z</time></trkpt><trkpt lat="42.1564171" lon="13.7161599"><ele>502.0</ele><time>2026-05-03T09:25:01.039Z</time></trkpt><trkpt lat="42.1564792" lon="13.7162878"><ele>501.0</ele><time>2026-05-03T09:25:02.031Z</time></trkpt><trkpt lat="42.1565441" lon="13.7164148"><ele>500.0</ele><time>2026-05-03T09:25:03.025Z</time></trkpt><trkpt lat="42.156611" lon="13.7165406"><ele>500.0</ele><time>2026-05-03T09:25:04.036Z</time></trkpt><trkpt lat="42.1566734" lon="13.7166677"><ele>500.0</ele><time>2026-05-03T09:25:05.025Z</time></trkpt><trkpt lat="42.1567382" lon="13.7167986"><ele>500.0</ele><time>2026-05-03T09:25:06.035Z</time></trkpt><trkpt lat="42.156804" lon="13.7169246"><ele>500.0</ele><time>2026-05-03T09:25:07.039Z</time></trkpt><trkpt lat="42.1568717" lon="13.717045"><ele>497.25</ele><time>2026-05-03T09:25:08.025Z</time></trkpt><trkpt lat="42.156943" lon="13.7171607"><ele>494.5</ele><time>2026-05-03T09:25:09.027Z</time></trkpt><trkpt lat="42.1570225" lon="13.7172669"><ele>491.75</ele><time>2026-05-03T09:25:10.029Z</time></trkpt><trkpt lat="42.1571037" lon="13.7173714"><ele>489.0</ele><time>2026-05-03T09:25:11.033Z</time></trkpt><trkpt lat="42.1571917" lon="13.7174703"><ele>489.0</ele><time>2026-05-03T09:25:12.018Z</time></trkpt><trkpt lat="42.1572836" lon="13.7175653"><ele>489.0</ele><time>2026-05-03T09:25:13.029Z</time></trkpt><trkpt lat="42.1573788" lon="13.7176596"><ele>489.0</ele><time>2026-05-03T09:25:14.044Z</time></trkpt><trkpt lat="42.1574759" lon="13.7177494"><ele>489.0</ele><time>2026-05-03T09:25:15.024Z</time></trkpt><trkpt lat="42.1575751" lon="13.7178426"><ele>488.25</ele><time>2026-05-03T09:25:16.037Z</time></trkpt><trkpt lat="42.1576748" lon="13.7179342"><ele>487.5</ele><time>2026-05-03T09:25:17.032Z</time></trkpt><trkpt lat="42.1577727" lon="13.7180215"><ele>486.75</ele><time>2026-05-03T09:25:18.029Z</time></trkpt><trkpt lat="42.1578645" lon="13.7181097"><ele>486.0</ele><time>2026-05-03T09:25:19.038Z</time></trkpt><trkpt lat="42.1579473" lon="13.7182016"><ele>486.0</ele><time>2026-05-03T09:25:20.027Z</time></trkpt><trkpt lat="42.1580223" lon="13.7182993"><ele>486.0</ele><time>2026-05-03T09:25:21.029Z</time></trkpt><trkpt lat="42.1580831" lon="13.7184143"><ele>486.0</ele><time>2026-05-03T09:25:22.034Z</time></trkpt><trkpt lat="42.1581369" lon="13.718544"><ele>486.0</ele><time>2026-05-03T09:25:23.02Z</time></trkpt><trkpt lat="42.1581814" lon="13.7186846"><ele>486.0</ele><time>2026-05-03T09:25:24.037Z</time></trkpt><trkpt lat="42.1582168" lon="13.7188312"><ele>486.20000000000005</ele><time>2026-05-03T09:25:25.035Z</time></trkpt><trkpt lat="42.1582495" lon="13.7189709"><ele>486.40000000000003</ele><time>2026-05-03T09:25:26.033Z</time></trkpt><trkpt lat="42.1582819" lon="13.7191026"><ele>486.6</ele><time>2026-05-03T09:25:27.022Z</time></trkpt><trkpt lat="42.1583132" lon="13.7192289"><ele>486.8</ele><time>2026-05-03T09:25:28.021Z</time></trkpt><trkpt lat="42.1583406" lon="13.7193536"><ele>487.0</ele><time>2026-05-03T09:25:29.035Z</time></trkpt><trkpt lat="42.1583625" lon="13.7194811"><ele>486.40000000000003</ele><time>2026-05-03T09:25:30.036Z</time></trkpt><trkpt lat="42.1583744" lon="13.7196108"><ele>485.80000000000007</ele><time>2026-05-03T09:25:31.017Z</time></trkpt><trkpt lat="42.1583777" lon="13.719742"><ele>485.2</ele><time>2026-05-03T09:25:32.027Z</time></trkpt><trkpt lat="42.1583676" lon="13.7198779"><ele>484.6</ele><time>2026-05-03T09:25:33.027Z</time></trkpt><trkpt lat="42.1583483" lon="13.7200145"><ele>484.0</ele><time>2026-05-03T09:25:34.031Z</time></trkpt><trkpt lat="42.1583122" lon="13.7201449"><ele>483.6</ele><time>2026-05-03T09:25:35.041Z</time></trkpt><trkpt lat="42.1582555" lon="13.7202709"><ele>483.2</ele><time>2026-05-03T09:25:36.033Z</time></trkpt><trkpt lat="42.1581923" lon="13.7203858"><ele>482.80000000000007</ele><time>2026-05-03T09:25:37.026Z</time></trkpt><trkpt lat="42.1581274" lon="13.7205047"><ele>482.40000000000003</ele><time>2026-05-03T09:25:38.032Z</time></trkpt><trkpt lat="42.1580605" lon="13.7206229"><ele>482.0</ele><time>2026-05-03T09:25:39.034Z</time></trkpt><trkpt lat="42.157998" lon="13.7207304"><ele>480.66666666666663</ele><time>2026-05-03T09:25:40.031Z</time></trkpt><trkpt lat="42.1579369" lon="13.7208351"><ele>479.3333333333333</ele><time>2026-05-03T09:25:41.025Z</time></trkpt><trkpt lat="42.1578859" lon="13.7209242"><ele>478.0</ele><time>2026-05-03T09:25:42.032Z</time></trkpt><trkpt lat="42.1578427" lon="13.7209995"><ele>476.66666666666663</ele><time>2026-05-03T09:25:43.029Z</time></trkpt><trkpt lat="42.1578097" lon="13.7210727"><ele>475.3333333333333</ele><time>2026-05-03T09:25:44.026Z</time></trkpt><trkpt lat="42.1578098" lon="13.7212093"><ele>474.0</ele><time>2026-05-03T09:25:46.029Z</time></trkpt><trkpt lat="42.1578988" lon="13.7213317"><ele>473.6666666666667</ele><time>2026-05-03T09:25:48.032Z</time></trkpt><trkpt lat="42.1579705" lon="13.7213795"><ele>473.33333333333337</ele><time>2026-05-03T09:25:49.032Z</time></trkpt><trkpt lat="42.158048" lon="13.7214197"><ele>473.0</ele><time>2026-05-03T09:25:50.036Z</time></trkpt><trkpt lat="42.1581315" lon="13.7214593"><ele>472.6666666666667</ele><time>2026-05-03T09:25:51.015Z</time></trkpt><trkpt lat="42.1582243" lon="13.7214995"><ele>472.33333333333337</ele><time>2026-05-03T09:25:52.034Z</time></trkpt><trkpt lat="42.1583149" lon="13.7215432"><ele>472.0</ele><time>2026-05-03T09:25:53.029Z</time></trkpt><trkpt lat="42.1584086" lon="13.7215875"><ele>473.0</ele><time>2026-05-03T09:25:54.032Z</time></trkpt><trkpt lat="42.1584963" lon="13.721631"><ele>474.00000000000006</ele><time>2026-05-03T09:25:55.037Z</time></trkpt><trkpt lat="42.1585836" lon="13.7216721"><ele>475.00000000000006</ele><time>2026-05-03T09:25:56.034Z</time></trkpt><trkpt lat="42.1586674" lon="13.7217082"><ele>476.0</ele><time>2026-05-03T09:25:57.035Z</time></trkpt><trkpt lat="42.1587536" lon="13.721745"><ele>477.0</ele><time>2026-05-03T09:25:58.026Z</time></trkpt><trkpt lat="42.1588375" lon="13.7217813"><ele>477.0</ele><time>2026-05-03T09:25:59.032Z</time></trkpt><trkpt lat="42.1589276" lon="13.7218224"><ele>477.00000000000006</ele><time>2026-05-03T09:26:00.037Z</time></trkpt><trkpt lat="42.1590212" lon="13.7218668"><ele>477.00000000000006</ele><time>2026-05-03T09:26:01.025Z</time></trkpt><trkpt lat="42.1591159" lon="13.7219139"><ele>477.0</ele><time>2026-05-03T09:26:02.031Z</time></trkpt><trkpt lat="42.159206" lon="13.7219572"><ele>477.0</ele><time>2026-05-03T09:26:03.035Z</time></trkpt><trkpt lat="42.1593006" lon="13.7219925"><ele>477.5</ele><time>2026-05-03T09:26:04.034Z</time></trkpt><trkpt lat="42.1593903" lon="13.7220335"><ele>478.0</ele><time>2026-05-03T09:26:05.038Z</time></trkpt><trkpt lat="42.1594788" lon="13.7220817"><ele>478.5</ele><time>2026-05-03T09:26:06.03Z</time></trkpt><trkpt lat="42.1595586" lon="13.722119"><ele>479.0</ele><time>2026-05-03T09:26:07.028Z</time></trkpt><trkpt lat="42.1596304" lon="13.7221548"><ele>479.5</ele><time>2026-05-03T09:26:08.024Z</time></trkpt><trkpt lat="42.1597071" lon="13.7221776"><ele>480.0</ele><time>2026-05-03T09:26:09.035Z</time></trkpt><trkpt lat="42.1597734" lon="13.722187"><ele>480.0</ele><time>2026-05-03T09:26:10.034Z</time></trkpt><trkpt lat="42.159849" lon="13.7221838"><ele>480.0</ele><time>2026-05-03T09:26:11.041Z</time></trkpt><trkpt lat="42.1599209" lon="13.7221505"><ele>480.0</ele><time>2026-05-03T09:26:12.036Z</time></trkpt><trkpt lat="42.1599957" lon="13.7221006"><ele>480.0</ele><time>2026-05-03T09:26:13.012Z</time></trkpt><trkpt lat="42.160069" lon="13.7220362"><ele>480.0</ele><time>2026-05-03T09:26:14.024Z</time></trkpt><trkpt lat="42.1601478" lon="13.7219682"><ele>480.0</ele><time>2026-05-03T09:26:15.022Z</time></trkpt><trkpt lat="42.1602357" lon="13.721905"><ele>480.2</ele><time>2026-05-03T09:26:16.022Z</time></trkpt><trkpt lat="42.1603315" lon="13.7218485"><ele>480.4</ele><time>2026-05-03T09:26:17.051Z</time></trkpt><trkpt lat="42.1604315" lon="13.7218"><ele>480.6</ele><time>2026-05-03T09:26:18.027Z</time></trkpt><trkpt lat="42.1605351" lon="13.7217559"><ele>480.8</ele><time>2026-05-03T09:26:19.026Z</time></trkpt><trkpt lat="42.1606361" lon="13.7217142"><ele>481.0</ele><time>2026-05-03T09:26:20.027Z</time></trkpt><trkpt lat="42.1607346" lon="13.7216839"><ele>481.00000000000006</ele><time>2026-05-03T09:26:21.026Z</time></trkpt><trkpt lat="42.1608271" lon="13.7216606"><ele>481.0</ele><time>2026-05-03T09:26:22.039Z</time></trkpt><trkpt lat="42.1609176" lon="13.7216417"><ele>481.0</ele><time>2026-05-03T09:26:23.021Z</time></trkpt><trkpt lat="42.1610046" lon="13.7216189"><ele>481.0</ele><time>2026-05-03T09:26:24.035Z</time></trkpt><trkpt lat="42.1610854" lon="13.721589"><ele>481.00000000000006</ele><time>2026-05-03T09:26:25.019Z</time></trkpt><trkpt lat="42.1611591" lon="13.7215369"><ele>481.0</ele><time>2026-05-03T09:26:26.027Z</time></trkpt><trkpt lat="42.1612333" lon="13.7214703"><ele>481.0</ele><time>2026-05-03T09:26:27.023Z</time></trkpt><trkpt lat="42.1613068" lon="13.7213912"><ele>481.0</ele><time>2026-05-03T09:26:28.039Z</time></trkpt><trkpt lat="42.1613799" lon="13.7213075"><ele>481.0</ele><time>2026-05-03T09:26:29.019Z</time></trkpt><trkpt lat="42.1614621" lon="13.7212323"><ele>481.0</ele><time>2026-05-03T09:26:30.026Z</time></trkpt><trkpt lat="42.1615509" lon="13.7211662"><ele>481.0</ele><time>2026-05-03T09:26:31.026Z</time></trkpt><trkpt lat="42.1616466" lon="13.7211104"><ele>483.20000000000005</ele><time>2026-05-03T09:26:32.027Z</time></trkpt><trkpt lat="42.161745" lon="13.7210649"><ele>485.40000000000003</ele><time>2026-05-03T09:26:33.025Z</time></trkpt><trkpt lat="42.1618409" lon="13.7210259"><ele>487.6</ele><time>2026-05-03T09:26:34.021Z</time></trkpt><trkpt lat="42.1619368" lon="13.7210025"><ele>489.8</ele><time>2026-05-03T09:26:35.023Z</time></trkpt><trkpt lat="42.1620326" lon="13.7209827"><ele>492.0</ele><time>2026-05-03T09:26:36.018Z</time></trkpt><trkpt lat="42.1621298" lon="13.7209683"><ele>492.0</ele><time>2026-05-03T09:26:37.012Z</time></trkpt><trkpt lat="42.1622267" lon="13.720955"><ele>492.00000000000006</ele><time>2026-05-03T09:26:38.018Z</time></trkpt><trkpt lat="42.1623198" lon="13.7209365"><ele>492.00000000000006</ele><time>2026-05-03T09:26:39.025Z</time></trkpt><trkpt lat="42.1624152" lon="13.7209123"><ele>492.0</ele><time>2026-05-03T09:26:40.03Z</time></trkpt><trkpt lat="42.1625117" lon="13.7208795"><ele>492.0</ele><time>2026-05-03T09:26:41.018Z</time></trkpt><trkpt lat="42.1626028" lon="13.7208356"><ele>489.20000000000005</ele><time>2026-05-03T09:26:42.023Z</time></trkpt><trkpt lat="42.1626915" lon="13.720796"><ele>486.40000000000003</ele><time>2026-05-03T09:26:43.025Z</time></trkpt><trkpt lat="42.162772" lon="13.7207571"><ele>483.59999999999997</ele><time>2026-05-03T09:26:44.021Z</time></trkpt><trkpt lat="42.1628548" lon="13.720709"><ele>480.79999999999995</ele><time>2026-05-03T09:26:45.029Z</time></trkpt><trkpt lat="42.1629362" lon="13.7206517"><ele>478.0</ele><time>2026-05-03T09:26:46.051Z</time></trkpt><trkpt lat="42.1630142" lon="13.7205866"><ele>478.00000000000006</ele><time>2026-05-03T09:26:47.015Z</time></trkpt><trkpt lat="42.1630853" lon="13.7205173"><ele>478.0</ele><time>2026-05-03T09:26:48.029Z</time></trkpt><trkpt lat="42.1631475" lon="13.7204378"><ele>478.0</ele><time>2026-05-03T09:26:49.03Z</time></trkpt><trkpt lat="42.1632017" lon="13.720344"><ele>478.0</ele><time>2026-05-03T09:26:50.025Z</time></trkpt><trkpt lat="42.1632496" lon="13.7202375"><ele>478.00000000000006</ele><time>2026-05-03T09:26:51.025Z</time></trkpt><trkpt lat="42.1632946" lon="13.7201295"><ele>478.0</ele><time>2026-05-03T09:26:52.038Z</time></trkpt><trkpt lat="42.1633366" lon="13.7200139"><ele>477.59999999999997</ele><time>2026-05-03T09:26:53.016Z</time></trkpt><trkpt lat="42.1633745" lon="13.7198939"><ele>477.19999999999993</ele><time>2026-05-03T09:26:54.027Z</time></trkpt><trkpt lat="42.1634118" lon="13.7197755"><ele>476.8</ele><time>2026-05-03T09:26:55.02Z</time></trkpt><trkpt lat="42.1634514" lon="13.7196579"><ele>476.4</ele><time>2026-05-03T09:26:56.02Z</time></trkpt><trkpt lat="42.1634939" lon="13.7195407"><ele>476.0</ele><time>2026-05-03T09:26:57.02Z</time></trkpt><trkpt lat="42.163541" lon="13.719427"><ele>479.0</ele><time>2026-05-03T09:26:58.027Z</time></trkpt><trkpt lat="42.1635891" lon="13.7193225"><ele>482.0</ele><time>2026-05-03T09:26:59.028Z</time></trkpt><trkpt lat="42.1636427" lon="13.7192237"><ele>485.0</ele><time>2026-05-03T09:27:00.017Z</time></trkpt><trkpt lat="42.1636985" lon="13.7191256"><ele>488.0</ele><time>2026-05-03T09:27:01.019Z</time></trkpt><trkpt lat="42.1637602" lon="13.7190348"><ele>491.0</ele><time>2026-05-03T09:27:02.021Z</time></trkpt><trkpt lat="42.1638374" lon="13.7189547"><ele>491.0</ele><time>2026-05-03T09:27:03.026Z</time></trkpt><trkpt lat="42.1639132" lon="13.7188799"><ele>491.0</ele><time>2026-05-03T09:27:04.023Z</time></trkpt><trkpt lat="42.1639929" lon="13.7188067"><ele>491.0</ele><time>2026-05-03T09:27:05.012Z</time></trkpt><trkpt lat="42.1640767" lon="13.7187372"><ele>491.0</ele><time>2026-05-03T09:27:06.038Z</time></trkpt><trkpt lat="42.1641645" lon="13.7186683"><ele>491.0</ele><time>2026-05-03T09:27:07.02Z</time></trkpt><trkpt lat="42.1642552" lon="13.718607"><ele>488.4</ele><time>2026-05-03T09:27:08.02Z</time></trkpt><trkpt lat="42.1643426" lon="13.7185512"><ele>485.8</ele><time>2026-05-03T09:27:09.013Z</time></trkpt><trkpt lat="42.1644266" lon="13.7185163"><ele>483.19999999999993</ele><time>2026-05-03T09:27:10.035Z</time></trkpt><trkpt lat="42.1645237" lon="13.7184917"><ele>480.59999999999997</ele><time>2026-05-03T09:27:11.018Z</time></trkpt><trkpt lat="42.1646198" lon="13.7184784"><ele>478.0</ele><time>2026-05-03T09:27:12.018Z</time></trkpt><trkpt lat="42.1647148" lon="13.7184821"><ele>478.0</ele><time>2026-05-03T09:27:13.022Z</time></trkpt><trkpt lat="42.1648064" lon="13.7185061"><ele>477.99999999999994</ele><time>2026-05-03T09:27:14.021Z</time></trkpt><trkpt lat="42.1648984" lon="13.718545"><ele>477.99999999999994</ele><time>2026-05-03T09:27:15.018Z</time></trkpt><trkpt lat="42.1649912" lon="13.7185975"><ele>478.0</ele><time>2026-05-03T09:27:16.026Z</time></trkpt><trkpt lat="42.1650845" lon="13.7186589"><ele>478.0</ele><time>2026-05-03T09:27:17.023Z</time></trkpt><trkpt lat="42.1651805" lon="13.7187188"><ele>474.59999999999997</ele><time>2026-05-03T09:27:18.03Z</time></trkpt><trkpt lat="42.1652784" lon="13.7187711"><ele>471.19999999999993</ele><time>2026-05-03T09:27:19.023Z</time></trkpt><trkpt lat="42.1653806" lon="13.7188157"><ele>467.8</ele><time>2026-05-03T09:27:20.03Z</time></trkpt><trkpt lat="42.1654817" lon="13.7188534"><ele>464.4</ele><time>2026-05-03T09:27:21.021Z</time></trkpt><trkpt lat="42.1655826" lon="13.7188837"><ele>461.0</ele><time>2026-05-03T09:27:22.018Z</time></trkpt><trkpt lat="42.1656812" lon="13.7189116"><ele>461.4</ele><time>2026-05-03T09:27:23.013Z</time></trkpt><trkpt lat="42.1657814" lon="13.7189348"><ele>461.8</ele><time>2026-05-03T09:27:24.024Z</time></trkpt><trkpt lat="42.1658819" lon="13.7189538"><ele>462.19999999999993</ele><time>2026-05-03T09:27:25.021Z</time></trkpt><trkpt lat="42.1659829" lon="13.7189638"><ele>462.59999999999997</ele><time>2026-05-03T09:27:26.017Z</time></trkpt><trkpt lat="42.1660826" lon="13.71897"><ele>463.0</ele><time>2026-05-03T09:27:27.02Z</time></trkpt><trkpt lat="42.1661785" lon="13.718975"><ele>463.0</ele><time>2026-05-03T09:27:28.022Z</time></trkpt><trkpt lat="42.1662745" lon="13.7189706"><ele>462.99999999999994</ele><time>2026-05-03T09:27:29.027Z</time></trkpt><trkpt lat="42.1663728" lon="13.7189661"><ele>462.99999999999994</ele><time>2026-05-03T09:27:30.029Z</time></trkpt><trkpt lat="42.1664738" lon="13.718954"><ele>463.0</ele><time>2026-05-03T09:27:31.03Z</time></trkpt><trkpt lat="42.1665746" lon="13.7189428"><ele>463.0</ele><time>2026-05-03T09:27:32.013Z</time></trkpt><trkpt lat="42.1666662" lon="13.7189327"><ele>462.59999999999997</ele><time>2026-05-03T09:27:33.02Z</time></trkpt><trkpt lat="42.1667594" lon="13.7189226"><ele>462.19999999999993</ele><time>2026-05-03T09:27:34.027Z</time></trkpt><trkpt lat="42.1668534" lon="13.7189116"><ele>461.8</ele><time>2026-05-03T09:27:35.016Z</time></trkpt><trkpt lat="42.1669506" lon="13.718896"><ele>461.4</ele><time>2026-05-03T09:27:36.013Z</time></trkpt><trkpt lat="42.1670421" lon="13.7188778"><ele>461.0</ele><time>2026-05-03T09:27:37.015Z</time></trkpt><trkpt lat="42.1671386" lon="13.7188528"><ele>461.0</ele><time>2026-05-03T09:27:38.016Z</time></trkpt><trkpt lat="42.1672372" lon="13.7188257"><ele>461.0</ele><time>2026-05-03T09:27:39.017Z</time></trkpt><trkpt lat="42.1673349" lon="13.718796"><ele>461.0</ele><time>2026-05-03T09:27:40.019Z</time></trkpt><trkpt lat="42.1674338" lon="13.7187654"><ele>461.0</ele><time>2026-05-03T09:27:41.018Z</time></trkpt><trkpt lat="42.1675333" lon="13.7187281"><ele>461.0</ele><time>2026-05-03T09:27:42.015Z</time></trkpt><trkpt lat="42.1676324" lon="13.7186893"><ele>461.20000000000005</ele><time>2026-05-03T09:27:43.02Z</time></trkpt><trkpt lat="42.1677291" lon="13.7186429"><ele>461.40000000000003</ele><time>2026-05-03T09:27:44.007Z</time></trkpt><trkpt lat="42.1678254" lon="13.7185938"><ele>461.6</ele><time>2026-05-03T09:27:45.012Z</time></trkpt><trkpt lat="42.1679177" lon="13.7185421"><ele>461.8</ele><time>2026-05-03T09:27:46.019Z</time></trkpt><trkpt lat="42.168006" lon="13.7184836"><ele>462.0</ele><time>2026-05-03T09:27:47.008Z</time></trkpt><trkpt lat="42.1680898" lon="13.7184155"><ele>462.6</ele><time>2026-05-03T09:27:48.014Z</time></trkpt><trkpt lat="42.1681654" lon="13.7183325"><ele>463.20000000000005</ele><time>2026-05-03T09:27:49.02Z</time></trkpt><trkpt lat="42.1682362" lon="13.7182405"><ele>463.8</ele><time>2026-05-03T09:27:50.019Z</time></trkpt><trkpt lat="42.1683085" lon="13.718147"><ele>464.4</ele><time>2026-05-03T09:27:51.02Z</time></trkpt><trkpt lat="42.168383" lon="13.7180512"><ele>465.0</ele><time>2026-05-03T09:27:52.021Z</time></trkpt><trkpt lat="42.1684613" lon="13.7179591"><ele>465.0</ele><time>2026-05-03T09:27:53.016Z</time></trkpt><trkpt lat="42.1685416" lon="13.7178777"><ele>465.0</ele><time>2026-05-03T09:27:54.023Z</time></trkpt><trkpt lat="42.1686251" lon="13.7177967"><ele>465.0</ele><time>2026-05-03T09:27:55.027Z</time></trkpt><trkpt lat="42.1687105" lon="13.7177331"><ele>465.0</ele><time>2026-05-03T09:27:55.998Z</time></trkpt><trkpt lat="42.168808" lon="13.7176746"><ele>465.0</ele><time>2026-05-03T09:27:57.012Z</time></trkpt><trkpt lat="42.1689068" lon="13.717618"><ele>466.6</ele><time>2026-05-03T09:27:58.022Z</time></trkpt><trkpt lat="42.1690086" lon="13.717566"><ele>468.2</ele><time>2026-05-03T09:27:59.029Z</time></trkpt><trkpt lat="42.1691141" lon="13.7175181"><ele>469.79999999999995</ele><time>2026-05-03T09:28:00.026Z</time></trkpt><trkpt lat="42.1692208" lon="13.7174718"><ele>471.4</ele><time>2026-05-03T09:28:01.035Z</time></trkpt><trkpt lat="42.1693316" lon="13.7174268"><ele>473.0</ele><time>2026-05-03T09:28:02.012Z</time></trkpt><trkpt lat="42.1694441" lon="13.7173813"><ele>473.0</ele><time>2026-05-03T09:28:03.01Z</time></trkpt><trkpt lat="42.1695559" lon="13.7173357"><ele>473.0</ele><time>2026-05-03T09:28:04.02Z</time></trkpt><trkpt lat="42.1696685" lon="13.7172913"><ele>473.0</ele><time>2026-05-03T09:28:05.01Z</time></trkpt><trkpt lat="42.169784" lon="13.7172444"><ele>473.0</ele><time>2026-05-03T09:28:06.015Z</time></trkpt><trkpt lat="42.1699002" lon="13.7171988"><ele>470.75</ele><time>2026-05-03T09:28:07.014Z</time></trkpt><trkpt lat="42.1700156" lon="13.7171548"><ele>468.5</ele><time>2026-05-03T09:28:08.019Z</time></trkpt><trkpt lat="42.1701262" lon="13.7171103"><ele>466.25</ele><time>2026-05-03T09:28:09.021Z</time></trkpt><trkpt lat="42.1702299" lon="13.7170672"><ele>464.0</ele><time>2026-05-03T09:28:10.022Z</time></trkpt><trkpt lat="42.1703338" lon="13.7170287"><ele>464.0</ele><time>2026-05-03T09:28:11.024Z</time></trkpt><trkpt lat="42.170439" lon="13.7169951"><ele>464.0</ele><time>2026-05-03T09:28:12.025Z</time></trkpt><trkpt lat="42.1705442" lon="13.7169653"><ele>464.0</ele><time>2026-05-03T09:28:13.02Z</time></trkpt><trkpt lat="42.1706505" lon="13.7169373"><ele>464.0</ele><time>2026-05-03T09:28:14.016Z</time></trkpt><trkpt lat="42.1707529" lon="13.716899"><ele>464.0</ele><time>2026-05-03T09:28:15.019Z</time></trkpt><trkpt lat="42.1708498" lon="13.7168528"><ele>464.6</ele><time>2026-05-03T09:28:16.021Z</time></trkpt><trkpt lat="42.1709429" lon="13.716795"><ele>465.2</ele><time>2026-05-03T09:28:17.02Z</time></trkpt><trkpt lat="42.171036" lon="13.7167267"><ele>465.80000000000007</ele><time>2026-05-03T09:28:18.018Z</time></trkpt><trkpt lat="42.171125" lon="13.7166581"><ele>466.40000000000003</ele><time>2026-05-03T09:28:19.024Z</time></trkpt><trkpt lat="42.1712053" lon="13.7165838"><ele>467.0</ele><time>2026-05-03T09:28:20.021Z</time></trkpt><trkpt lat="42.1712715" lon="13.7165007"><ele>467.0</ele><time>2026-05-03T09:28:21.018Z</time></trkpt><trkpt lat="42.1713156" lon="13.7163898"><ele>467.00000000000006</ele><time>2026-05-03T09:28:22.022Z</time></trkpt><trkpt lat="42.1713412" lon="13.716267"><ele>467.00000000000006</ele><time>2026-05-03T09:28:23.027Z</time></trkpt><trkpt lat="42.1713663" lon="13.7161407"><ele>467.0</ele><time>2026-05-03T09:28:24.03Z</time></trkpt><trkpt lat="42.1713883" lon="13.7160115"><ele>467.0</ele><time>2026-05-03T09:28:25.025Z</time></trkpt><trkpt lat="42.1714151" lon="13.7158828"><ele>466.6</ele><time>2026-05-03T09:28:26.024Z</time></trkpt><trkpt lat="42.1714435" lon="13.715762"><ele>466.20000000000005</ele><time>2026-05-03T09:28:27.025Z</time></trkpt><trkpt lat="42.1714736" lon="13.7156442"><ele>465.8</ele><time>2026-05-03T09:28:28.029Z</time></trkpt><trkpt lat="42.1715107" lon="13.7155234"><ele>465.4</ele><time>2026-05-03T09:28:29.041Z</time></trkpt><trkpt lat="42.1715502" lon="13.7154094"><ele>465.0</ele><time>2026-05-03T09:28:30.032Z</time></trkpt><trkpt lat="42.1715901" lon="13.7152919"><ele>466.2</ele><time>2026-05-03T09:28:31.027Z</time></trkpt><trkpt lat="42.171631" lon="13.7151755"><ele>467.4</ele><time>2026-05-03T09:28:32.025Z</time></trkpt><trkpt lat="42.1716787" lon="13.7150627"><ele>468.6</ele><time>2026-05-03T09:28:33.026Z</time></trkpt><trkpt lat="42.1717337" lon="13.7149534"><ele>469.8</ele><time>2026-05-03T09:28:34.042Z</time></trkpt><trkpt lat="42.1717842" lon="13.7148452"><ele>471.0</ele><time>2026-05-03T09:28:35.018Z</time></trkpt><trkpt lat="42.1718333" lon="13.7147352"><ele>471.0</ele><time>2026-05-03T09:28:36.02Z</time></trkpt><trkpt lat="42.1718838" lon="13.7146247"><ele>471.0</ele><time>2026-05-03T09:28:37.022Z</time></trkpt><trkpt lat="42.1719385" lon="13.7145175"><ele>471.0</ele><time>2026-05-03T09:28:38.015Z</time></trkpt><trkpt lat="42.1719846" lon="13.7144091"><ele>471.0</ele><time>2026-05-03T09:28:39.021Z</time></trkpt><trkpt lat="42.1720299" lon="13.7143071"><ele>471.0</ele><time>2026-05-03T09:28:40.019Z</time></trkpt><trkpt lat="42.1720696" lon="13.7142036"><ele>470.1666666666667</ele><time>2026-05-03T09:28:41.025Z</time></trkpt><trkpt lat="42.1721016" lon="13.7141007"><ele>469.33333333333337</ele><time>2026-05-03T09:28:42.033Z</time></trkpt><trkpt lat="42.1721319" lon="13.7140046"><ele>468.5</ele><time>2026-05-03T09:28:43.018Z</time></trkpt><trkpt lat="42.1721566" lon="13.7139124"><ele>467.6666666666667</ele><time>2026-05-03T09:28:44.025Z</time></trkpt><trkpt lat="42.1722172" lon="13.7137764"><ele>466.83333333333337</ele><time>2026-05-03T09:28:46.026Z</time></trkpt><trkpt lat="42.1723004" lon="13.7137184"><ele>466.0</ele><time>2026-05-03T09:28:48.023Z</time></trkpt><trkpt lat="42.1723679" lon="13.7137382"><ele>466.00000000000006</ele><time>2026-05-03T09:28:50.022Z</time></trkpt><trkpt lat="42.1724369" lon="13.7137736"><ele>466.0</ele><time>2026-05-03T09:28:53.03Z</time></trkpt><trkpt lat="42.1725021" lon="13.7137904"><ele>466.0</ele><time>2026-05-03T09:30:07.025Z</time></trkpt><trkpt lat="42.1726133" lon="13.7138398"><ele>466.0</ele><time>2026-05-03T09:30:09.024Z</time></trkpt><trkpt lat="42.1726802" lon="13.7138875"><ele>466.00000000000006</ele><time>2026-05-03T09:30:10.04Z</time></trkpt><trkpt lat="42.1727521" lon="13.713936"><ele>466.0</ele><time>2026-05-03T09:30:11.019Z</time></trkpt><trkpt lat="42.1728222" lon="13.7139908"><ele>466.00000000000006</ele><time>2026-05-03T09:30:12.056Z</time></trkpt><trkpt lat="42.1728954" lon="13.714047"><ele>466.0</ele><time>2026-05-03T09:30:13.028Z</time></trkpt><trkpt lat="42.1729622" lon="13.7141036"><ele>466.0</ele><time>2026-05-03T09:30:14.027Z</time></trkpt><trkpt lat="42.1730261" lon="13.7141566"><ele>466.0</ele><time>2026-05-03T09:30:15.024Z</time></trkpt><trkpt lat="42.1730859" lon="13.7142013"><ele>466.00000000000006</ele><time>2026-05-03T09:30:16.019Z</time></trkpt><trkpt lat="42.1731513" lon="13.714239"><ele>466.0</ele><time>2026-05-03T09:30:17.024Z</time></trkpt><trkpt lat="42.1732233" lon="13.7142587"><ele>467.33333333333337</ele><time>2026-05-03T09:30:18.03Z</time></trkpt><trkpt lat="42.1732996" lon="13.7142518"><ele>468.6666666666667</ele><time>2026-05-03T09:30:19.02Z</time></trkpt><trkpt lat="42.1733709" lon="13.7142161"><ele>470.0</ele><time>2026-05-03T09:30:20.033Z</time></trkpt><trkpt lat="42.1734385" lon="13.7141437"><ele>471.33333333333337</ele><time>2026-05-03T09:30:21.028Z</time></trkpt><trkpt lat="42.1734996" lon="13.7140495"><ele>472.6666666666667</ele><time>2026-05-03T09:30:22.02Z</time></trkpt><trkpt lat="42.1735509" lon="13.7139436"><ele>474.0</ele><time>2026-05-03T09:30:23.027Z</time></trkpt><trkpt lat="42.1736056" lon="13.7138348"><ele>474.0</ele><time>2026-05-03T09:30:24.021Z</time></trkpt><trkpt lat="42.1736618" lon="13.7137266"><ele>474.0</ele><time>2026-05-03T09:30:25.015Z</time></trkpt><trkpt lat="42.173719" lon="13.7136202"><ele>474.0</ele><time>2026-05-03T09:30:26.039Z</time></trkpt><trkpt lat="42.1737796" lon="13.7135185"><ele>474.0</ele><time>2026-05-03T09:30:27.026Z</time></trkpt><trkpt lat="42.1738422" lon="13.7134202"><ele>474.0</ele><time>2026-05-03T09:30:28.03Z</time></trkpt><trkpt lat="42.1739211" lon="13.7133323"><ele>474.79999999999995</ele><time>2026-05-03T09:30:29.026Z</time></trkpt><trkpt lat="42.1740108" lon="13.713264"><ele>475.59999999999997</ele><time>2026-05-03T09:30:30.026Z</time></trkpt><trkpt lat="42.1741039" lon="13.7132329"><ele>476.4</ele><time>2026-05-03T09:30:31.035Z</time></trkpt><trkpt lat="42.1741993" lon="13.7132309"><ele>477.2</ele><time>2026-05-03T09:30:32.021Z</time></trkpt><trkpt lat="42.1742945" lon="13.7132548"><ele>478.0</ele><time>2026-05-03T09:30:33.023Z</time></trkpt><trkpt lat="42.1743914" lon="13.7132892"><ele>478.00000000000006</ele><time>2026-05-03T09:30:34.015Z</time></trkpt><trkpt lat="42.174472" lon="13.713315"><ele>478.0</ele><time>2026-05-03T09:30:35.015Z</time></trkpt><trkpt lat="42.1745487" lon="13.7133163"><ele>478.0</ele><time>2026-05-03T09:30:36.029Z</time></trkpt><trkpt lat="42.1746263" lon="13.7132896"><ele>478.0</ele><time>2026-05-03T09:30:37.017Z</time></trkpt><trkpt lat="42.1747109" lon="13.7132323"><ele>478.00000000000006</ele><time>2026-05-03T09:30:38.021Z</time></trkpt><trkpt lat="42.1747984" lon="13.7131481"><ele>478.0</ele><time>2026-05-03T09:30:39.021Z</time></trkpt><trkpt lat="42.174896" lon="13.713052"><ele>475.75</ele><time>2026-05-03T09:30:40.034Z</time></trkpt><trkpt lat="42.175004" lon="13.7129628"><ele>473.5</ele><time>2026-05-03T09:30:41.029Z</time></trkpt><trkpt lat="42.1751203" lon="13.7128796"><ele>471.25</ele><time>2026-05-03T09:30:42.024Z</time></trkpt><trkpt lat="42.1752389" lon="13.7127924"><ele>469.0</ele><time>2026-05-03T09:30:43.022Z</time></trkpt><trkpt lat="42.1753493" lon="13.7126892"><ele>469.0</ele><time>2026-05-03T09:30:44.026Z</time></trkpt><trkpt lat="42.1754519" lon="13.712574"><ele>469.0</ele><time>2026-05-03T09:30:45.021Z</time></trkpt><trkpt lat="42.1755481" lon="13.7124589"><ele>469.0</ele><time>2026-05-03T09:30:46.031Z</time></trkpt><trkpt lat="42.1756416" lon="13.7123641"><ele>469.0</ele><time>2026-05-03T09:30:47.03Z</time></trkpt><trkpt lat="42.1757306" lon="13.7122788"><ele>470.0</ele><time>2026-05-03T09:30:48.029Z</time></trkpt><trkpt lat="42.1758234" lon="13.7122085"><ele>471.0</ele><time>2026-05-03T09:30:49.044Z</time></trkpt><trkpt lat="42.1759123" lon="13.7121501"><ele>472.0</ele><time>2026-05-03T09:30:50.026Z</time></trkpt><trkpt lat="42.1759995" lon="13.7121095"><ele>473.0</ele><time>2026-05-03T09:30:51.038Z</time></trkpt><trkpt lat="42.1760838" lon="13.7120814"><ele>474.0</ele><time>2026-05-03T09:30:52.029Z</time></trkpt><trkpt lat="42.1761754" lon="13.7120858"><ele>474.0</ele><time>2026-05-03T09:30:53.022Z</time></trkpt><trkpt lat="42.1762653" lon="13.7121142"><ele>474.0</ele><time>2026-05-03T09:30:54.03Z</time></trkpt><trkpt lat="42.1763558" lon="13.7121359"><ele>474.0</ele><time>2026-05-03T09:30:55.02Z</time></trkpt><trkpt lat="42.1764411" lon="13.712133"><ele>474.0</ele><time>2026-05-03T09:30:56.027Z</time></trkpt><trkpt lat="42.1765264" lon="13.7120967"><ele>474.0</ele><time>2026-05-03T09:30:57.027Z</time></trkpt><trkpt lat="42.1766043" lon="13.7120222"><ele>474.2</ele><time>2026-05-03T09:30:58.02Z</time></trkpt><trkpt lat="42.1766703" lon="13.7119258"><ele>474.4</ele><time>2026-05-03T09:30:59.013Z</time></trkpt><trkpt lat="42.1767378" lon="13.7118207"><ele>474.6</ele><time>2026-05-03T09:31:00.035Z</time></trkpt><trkpt lat="42.1768061" lon="13.7117229"><ele>474.8</ele><time>2026-05-03T09:31:01.03Z</time></trkpt><trkpt lat="42.1768736" lon="13.7116363"><ele>475.0</ele><time>2026-05-03T09:31:02.037Z</time></trkpt><trkpt lat="42.1769418" lon="13.7115564"><ele>475.00000000000006</ele><time>2026-05-03T09:31:03.04Z</time></trkpt><trkpt lat="42.1770072" lon="13.7114816"><ele>475.0</ele><time>2026-05-03T09:31:04.026Z</time></trkpt><trkpt lat="42.1770688" lon="13.711422"><ele>475.0</ele><time>2026-05-03T09:31:05.017Z</time></trkpt><trkpt lat="42.1771186" lon="13.7113677"><ele>475.0</ele><time>2026-05-03T09:31:06.033Z</time></trkpt><trkpt lat="42.1772244" lon="13.7112959"><ele>475.00000000000006</ele><time>2026-05-03T09:31:08.034Z</time></trkpt><trkpt lat="42.1772908" lon="13.711271"><ele>475.0</ele><time>2026-05-03T09:31:09.018Z</time></trkpt><trkpt lat="42.177364" lon="13.7112589"><ele>477.8</ele><time>2026-05-03T09:31:10.043Z</time></trkpt><trkpt lat="42.1774507" lon="13.7112504"><ele>480.6</ele><time>2026-05-03T09:31:11.023Z</time></trkpt><trkpt lat="42.1775415" lon="13.7112472"><ele>483.4</ele><time>2026-05-03T09:31:12.015Z</time></trkpt><trkpt lat="42.1776292" lon="13.7112562"><ele>486.2</ele><time>2026-05-03T09:31:13.008Z</time></trkpt><trkpt lat="42.1777179" lon="13.7112809"><ele>489.0</ele><time>2026-05-03T09:31:14.019Z</time></trkpt><trkpt lat="42.1778129" lon="13.7113147"><ele>489.0</ele><time>2026-05-03T09:31:15.022Z</time></trkpt><trkpt lat="42.1779087" lon="13.7113523"><ele>489.0</ele><time>2026-05-03T09:31:16.013Z</time></trkpt><trkpt lat="42.1780093" lon="13.7113887"><ele>489.0</ele><time>2026-05-03T09:31:17.031Z</time></trkpt><trkpt lat="42.1781098" lon="13.711422"><ele>489.0</ele><time>2026-05-03T09:31:18.017Z</time></trkpt><trkpt lat="42.1782066" lon="13.7114418"><ele>489.0</ele><time>2026-05-03T09:31:19.03Z</time></trkpt><trkpt lat="42.1783043" lon="13.7114411"><ele>490.6</ele><time>2026-05-03T09:31:20.03Z</time></trkpt><trkpt lat="42.178405" lon="13.7114185"><ele>492.2</ele><time>2026-05-03T09:31:21.015Z</time></trkpt><trkpt lat="42.1785084" lon="13.7113732"><ele>493.80000000000007</ele><time>2026-05-03T09:31:22.038Z</time></trkpt><trkpt lat="42.1786078" lon="13.7113123"><ele>495.40000000000003</ele><time>2026-05-03T09:31:23.021Z</time></trkpt><trkpt lat="42.1787" lon="13.7112503"><ele>497.0</ele><time>2026-05-03T09:31:24.016Z</time></trkpt><trkpt lat="42.1787886" lon="13.711189"><ele>496.99999999999994</ele><time>2026-05-03T09:31:25.025Z</time></trkpt><trkpt lat="42.1788714" lon="13.711133"><ele>497.0</ele><time>2026-05-03T09:31:26.044Z</time></trkpt><trkpt lat="42.178944" lon="13.7110726"><ele>497.0</ele><time>2026-05-03T09:31:27.03Z</time></trkpt><trkpt lat="42.1790099" lon="13.7110095"><ele>497.0</ele><time>2026-05-03T09:31:28.028Z</time></trkpt><trkpt lat="42.1790742" lon="13.7109476"><ele>496.99999999999994</ele><time>2026-05-03T09:31:29.025Z</time></trkpt><trkpt lat="42.1791348" lon="13.7108949"><ele>497.0</ele><time>2026-05-03T09:31:30.019Z</time></trkpt><trkpt lat="42.1792428" lon="13.7108815"><ele>496.99999999999994</ele><time>2026-05-03T09:31:32.027Z</time></trkpt><trkpt lat="42.1793002" lon="13.7109829"><ele>497.0</ele><time>2026-05-03T09:31:34.013Z</time></trkpt><trkpt lat="42.1792557" lon="13.7111015"><ele>497.0</ele><time>2026-05-03T09:31:36.017Z</time></trkpt><trkpt lat="42.179151" lon="13.7111732"><ele>497.0</ele><time>2026-05-03T09:31:38.016Z</time></trkpt><trkpt lat="42.1790935" lon="13.7112078"><ele>496.99999999999994</ele><time>2026-05-03T09:31:39.022Z</time></trkpt><trkpt lat="42.1790369" lon="13.7112468"><ele>497.0</ele><time>2026-05-03T09:31:40.029Z</time></trkpt><trkpt lat="42.1789779" lon="13.7112934"><ele>497.0</ele><time>2026-05-03T09:31:41.016Z</time></trkpt><trkpt lat="42.1789148" lon="13.7113421"><ele>497.0</ele><time>2026-05-03T09:31:42.027Z</time></trkpt><trkpt lat="42.1788511" lon="13.7113864"><ele>497.0</ele><time>2026-05-03T09:31:43.009Z</time></trkpt><trkpt lat="42.1787819" lon="13.7114375"><ele>497.0</ele><time>2026-05-03T09:31:44.022Z</time></trkpt><trkpt lat="42.1787143" lon="13.7114873"><ele>497.0</ele><time>2026-05-03T09:31:45.017Z</time></trkpt><trkpt lat="42.178652" lon="13.7115421"><ele>497.0</ele><time>2026-05-03T09:31:46.025Z</time></trkpt><trkpt lat="42.1786031" lon="13.7116111"><ele>497.0</ele><time>2026-05-03T09:31:47.012Z</time></trkpt><trkpt lat="42.1785716" lon="13.7116941"><ele>496.99999999999994</ele><time>2026-05-03T09:31:48.016Z</time></trkpt><trkpt lat="42.1785402" lon="13.7117815"><ele>497.0</ele><time>2026-05-03T09:31:49.02Z</time></trkpt><trkpt lat="42.1784574" lon="13.7119003"><ele>497.0</ele><time>2026-05-03T09:31:51.03Z</time></trkpt><trkpt lat="42.1783939" lon="13.7119215"><ele>497.0</ele><time>2026-05-03T09:31:52.014Z</time></trkpt><trkpt lat="42.1783185" lon="13.7119033"><ele>496.99999999999994</ele><time>2026-05-03T09:31:53.023Z</time></trkpt><trkpt lat="42.178239" lon="13.7118527"><ele>497.0</ele><time>2026-05-03T09:31:54.016Z</time></trkpt><trkpt lat="42.1781591" lon="13.7117977"><ele>495.66666666666663</ele><time>2026-05-03T09:31:55.023Z</time></trkpt><trkpt lat="42.1780794" lon="13.711764"><ele>494.3333333333333</ele><time>2026-05-03T09:31:56.023Z</time></trkpt><trkpt lat="42.1779884" lon="13.7117497"><ele>493.0</ele><time>2026-05-03T09:31:57.021Z</time></trkpt><trkpt lat="42.177898" lon="13.7117434"><ele>491.66666666666663</ele><time>2026-05-03T09:31:58.021Z</time></trkpt><trkpt lat="42.1778148" lon="13.7117399"><ele>490.3333333333333</ele><time>2026-05-03T09:31:59.027Z</time></trkpt><trkpt lat="42.1777371" lon="13.7117255"><ele>489.0</ele><time>2026-05-03T09:32:00.02Z</time></trkpt><trkpt lat="42.1776587" lon="13.7117137"><ele>489.0</ele><time>2026-05-03T09:32:01.024Z</time></trkpt><trkpt lat="42.1775861" lon="13.7117112"><ele>489.0</ele><time>2026-05-03T09:32:02.022Z</time></trkpt><trkpt lat="42.1775078" lon="13.7117343"><ele>489.0</ele><time>2026-05-03T09:32:03.015Z</time></trkpt><trkpt lat="42.177434" lon="13.7117786"><ele>489.0</ele><time>2026-05-03T09:32:04.026Z</time></trkpt><trkpt lat="42.1773653" lon="13.7118472"><ele>489.0</ele><time>2026-05-03T09:32:05.014Z</time></trkpt><trkpt lat="42.177302" lon="13.7119234"><ele>489.0</ele><time>2026-05-03T09:32:06.029Z</time></trkpt><trkpt lat="42.1772417" lon="13.7120003"><ele>489.1666666666667</ele><time>2026-05-03T09:32:07.02Z</time></trkpt><trkpt lat="42.1771879" lon="13.7120899"><ele>489.33333333333337</ele><time>2026-05-03T09:32:08.019Z</time></trkpt><trkpt lat="42.1771382" lon="13.7121815"><ele>489.5</ele><time>2026-05-03T09:32:09.009Z</time></trkpt><trkpt lat="42.1770947" lon="13.7122765"><ele>489.6666666666667</ele><time>2026-05-03T09:32:10.015Z</time></trkpt><trkpt lat="42.1770594" lon="13.7123711"><ele>489.83333333333337</ele><time>2026-05-03T09:32:11.023Z</time></trkpt><trkpt lat="42.1770323" lon="13.7124744"><ele>490.0</ele><time>2026-05-03T09:32:12.015Z</time></trkpt><trkpt lat="42.1770147" lon="13.7125869"><ele>490.00000000000006</ele><time>2026-05-03T09:32:13.015Z</time></trkpt><trkpt lat="42.1770083" lon="13.7126918"><ele>490.0</ele><time>2026-05-03T09:32:14.015Z</time></trkpt><trkpt lat="42.177007" lon="13.7128045"><ele>490.0</ele><time>2026-05-03T09:32:15.013Z</time></trkpt><trkpt lat="42.1770033" lon="13.7129223"><ele>490.0</ele><time>2026-05-03T09:32:16.019Z</time></trkpt><trkpt lat="42.176994" lon="13.7130393"><ele>490.00000000000006</ele><time>2026-05-03T09:32:17.023Z</time></trkpt><trkpt lat="42.1769823" lon="13.7131604"><ele>490.0</ele><time>2026-05-03T09:32:18.015Z</time></trkpt><trkpt lat="42.1769735" lon="13.7132831"><ele>492.1666666666667</ele><time>2026-05-03T09:32:19.04Z</time></trkpt><trkpt lat="42.1769697" lon="13.7134049"><ele>494.33333333333337</ele><time>2026-05-03T09:32:20.032Z</time></trkpt><trkpt lat="42.1769669" lon="13.7135194"><ele>496.5</ele><time>2026-05-03T09:32:21.022Z</time></trkpt><trkpt lat="42.1769583" lon="13.7136311"><ele>498.66666666666663</ele><time>2026-05-03T09:32:22.043Z</time></trkpt><trkpt lat="42.1769436" lon="13.7137423"><ele>500.8333333333333</ele><time>2026-05-03T09:32:23.013Z</time></trkpt><trkpt lat="42.1769191" lon="13.7138531"><ele>503.0</ele><time>2026-05-03T09:32:24.028Z</time></trkpt><trkpt lat="42.1768896" lon="13.7139655"><ele>505.79999999999995</ele><time>2026-05-03T09:32:25.024Z</time></trkpt><trkpt lat="42.1768542" lon="13.7140776"><ele>508.59999999999997</ele><time>2026-05-03T09:32:26.033Z</time></trkpt><trkpt lat="42.1768154" lon="13.7141974"><ele>511.40000000000003</ele><time>2026-05-03T09:32:27.021Z</time></trkpt><trkpt lat="42.1767711" lon="13.7143209"><ele>514.2</ele><time>2026-05-03T09:32:28.024Z</time></trkpt><trkpt lat="42.1767281" lon="13.7144387"><ele>517.0</ele><time>2026-05-03T09:32:29.016Z</time></trkpt><trkpt lat="42.1766865" lon="13.7145357"><ele>521.1666666666667</ele><time>2026-05-03T09:32:30.02Z</time></trkpt><trkpt lat="42.1766485" lon="13.7146203"><ele>525.3333333333334</ele><time>2026-05-03T09:32:31.03Z</time></trkpt><trkpt lat="42.1766096" lon="13.7146926"><ele>529.5</ele><time>2026-05-03T09:32:32.012Z</time></trkpt><trkpt lat="42.1765327" lon="13.7147905"><ele>533.6666666666666</ele><time>2026-05-03T09:32:34.022Z</time></trkpt><trkpt lat="42.1764389" lon="13.7147824"><ele>537.8333333333333</ele><time>2026-05-03T09:32:36.032Z</time></trkpt><trkpt lat="42.1763563" lon="13.7147071"><ele>542.0</ele><time>2026-05-03T09:32:38.024Z</time></trkpt><trkpt lat="42.1762679" lon="13.7146286"><ele>544.75</ele><time>2026-05-03T09:32:40.02Z</time></trkpt><trkpt lat="42.1761768" lon="13.7145484"><ele>547.5</ele><time>2026-05-03T09:32:42.019Z</time></trkpt><trkpt lat="42.1760837" lon="13.7144584"><ele>550.25</ele><time>2026-05-03T09:32:44.014Z</time></trkpt><trkpt lat="42.1759921" lon="13.7143592"><ele>553.0</ele><time>2026-05-03T09:32:46.028Z</time></trkpt><trkpt lat="42.1759025" lon="13.7142576"><ele>548.8571428571429</ele><time>2026-05-03T09:32:48.024Z</time></trkpt><trkpt lat="42.175851" lon="13.7142074"><ele>544.7142857142858</ele><time>2026-05-03T09:32:49.023Z</time></trkpt><trkpt lat="42.1757992" lon="13.714158"><ele>540.5714285714286</ele><time>2026-05-03T09:32:50.023Z</time></trkpt><trkpt lat="42.1757473" lon="13.714103"><ele>536.4285714285714</ele><time>2026-05-03T09:32:51.023Z</time></trkpt><trkpt lat="42.1756936" lon="13.7140465"><ele>532.2857142857143</ele><time>2026-05-03T09:32:52.028Z</time></trkpt><trkpt lat="42.1756414" lon="13.7139945"><ele>528.1428571428571</ele><time>2026-05-03T09:32:53.027Z</time></trkpt><trkpt lat="42.1755852" lon="13.7139512"><ele>524.0</ele><time>2026-05-03T09:32:54.019Z</time></trkpt><trkpt lat="42.1754648" lon="13.713908"><ele>524.0</ele><time>2026-05-03T09:32:56.023Z</time></trkpt><trkpt lat="42.175337" lon="13.7139403"><ele>524.0</ele><time>2026-05-03T09:32:58.025Z</time></trkpt><trkpt lat="42.1752327" lon="13.7140212"><ele>524.0</ele><time>2026-05-03T09:33:00.036Z</time></trkpt><trkpt lat="42.1751271" lon="13.7141084"><ele>524.0</ele><time>2026-05-03T09:33:02.012Z</time></trkpt><trkpt lat="42.1750771" lon="13.7141633"><ele>524.0</ele><time>2026-05-03T09:33:03.026Z</time></trkpt><trkpt lat="42.1749846" lon="13.7142727"><ele>524.0</ele><time>2026-05-03T09:33:05.044Z</time></trkpt><trkpt lat="42.1749369" lon="13.7143312"><ele>524.0</ele><time>2026-05-03T09:33:06.028Z</time></trkpt><trkpt lat="42.1748898" lon="13.7143932"><ele>524.0</ele><time>2026-05-03T09:33:07.025Z</time></trkpt><trkpt lat="42.1748423" lon="13.7144636"><ele>524.0</ele><time>2026-05-03T09:33:08.024Z</time></trkpt><trkpt lat="42.1747956" lon="13.7145359"><ele>524.0</ele><time>2026-05-03T09:33:09.034Z</time></trkpt><trkpt lat="42.1747507" lon="13.7146032"><ele>524.0</ele><time>2026-05-03T09:33:10.025Z</time></trkpt><trkpt lat="42.1746901" lon="13.7147477"><ele>525.4285714285714</ele><time>2026-05-03T09:33:12.024Z</time></trkpt><trkpt lat="42.1746895" lon="13.7148367"><ele>526.8571428571429</ele><time>2026-05-03T09:33:13.025Z</time></trkpt><trkpt lat="42.174716" lon="13.7149207"><ele>528.2857142857143</ele><time>2026-05-03T09:33:14.024Z</time></trkpt><trkpt lat="42.1747555" lon="13.714991"><ele>529.7142857142858</ele><time>2026-05-03T09:33:15.017Z</time></trkpt><trkpt lat="42.1748017" lon="13.7150574"><ele>531.1428571428571</ele><time>2026-05-03T09:33:16.029Z</time></trkpt><trkpt lat="42.1748431" lon="13.7151264"><ele>532.5714285714287</ele><time>2026-05-03T09:33:17.03Z</time></trkpt><trkpt lat="42.1748867" lon="13.7151943"><ele>534.0</ele><time>2026-05-03T09:33:18.024Z</time></trkpt><trkpt lat="42.1749308" lon="13.7152566"><ele>534.0</ele><time>2026-05-03T09:33:19.041Z</time></trkpt><trkpt lat="42.1749761" lon="13.7153248"><ele>534.0</ele><time>2026-05-03T09:33:20.027Z</time></trkpt><trkpt lat="42.1750167" lon="13.7153921"><ele>534.0</ele><time>2026-05-03T09:33:21.031Z</time></trkpt><trkpt lat="42.1750578" lon="13.7154592"><ele>534.0</ele><time>2026-05-03T09:33:22.032Z</time></trkpt><trkpt lat="42.1751299" lon="13.7155919"><ele>534.0</ele><time>2026-05-03T09:33:24.025Z</time></trkpt><trkpt lat="42.1751779" lon="13.715747"><ele>534.0</ele><time>2026-05-03T09:33:26.034Z</time></trkpt><trkpt lat="42.1752011" lon="13.7158335"><ele>534.0000000000001</ele><time>2026-05-03T09:33:27.024Z</time></trkpt><trkpt lat="42.17522" lon="13.7159239"><ele>534.0</ele><time>2026-05-03T09:33:28.029Z</time></trkpt><trkpt lat="42.1752372" lon="13.7160163"><ele>534.0</ele><time>2026-05-03T09:33:29.029Z</time></trkpt><trkpt lat="42.1752507" lon="13.7161075"><ele>534.0</ele><time>2026-05-03T09:33:30.028Z</time></trkpt><trkpt lat="42.1752707" lon="13.7161992"><ele>534.0</ele><time>2026-05-03T09:33:31.044Z</time></trkpt><trkpt lat="42.1752935" lon="13.7162903"><ele>534.0000000000001</ele><time>2026-05-03T09:33:32.008Z</time></trkpt><trkpt lat="42.1753213" lon="13.71638"><ele>534.0</ele><time>2026-05-03T09:33:33.026Z</time></trkpt><trkpt lat="42.1753496" lon="13.716469"><ele>533.2857142857143</ele><time>2026-05-03T09:33:34.022Z</time></trkpt><trkpt lat="42.175377" lon="13.7165597"><ele>532.5714285714286</ele><time>2026-05-03T09:33:35.031Z</time></trkpt><trkpt lat="42.175398" lon="13.7166504"><ele>531.8571428571429</ele><time>2026-05-03T09:33:36.027Z</time></trkpt><trkpt lat="42.1754019" lon="13.7167467"><ele>531.1428571428571</ele><time>2026-05-03T09:33:37.022Z</time></trkpt><trkpt lat="42.1754016" lon="13.7168485"><ele>530.4285714285714</ele><time>2026-05-03T09:33:38.021Z</time></trkpt><trkpt lat="42.1753991" lon="13.7169509"><ele>529.7142857142858</ele><time>2026-05-03T09:33:39.031Z</time></trkpt><trkpt lat="42.1753931" lon="13.717056"><ele>529.0</ele><time>2026-05-03T09:33:40.019Z</time></trkpt><trkpt lat="42.1753842" lon="13.7171608"><ele>531.1666666666667</ele><time>2026-05-03T09:33:41.024Z</time></trkpt><trkpt lat="42.1753842" lon="13.7172694"><ele>533.3333333333334</ele><time>2026-05-03T09:33:42.022Z</time></trkpt><trkpt lat="42.1753786" lon="13.7173755"><ele>535.5</ele><time>2026-05-03T09:33:43.023Z</time></trkpt><trkpt lat="42.1753763" lon="13.7174847"><ele>537.6666666666666</ele><time>2026-05-03T09:33:44.031Z</time></trkpt><trkpt lat="42.1753795" lon="13.7175906"><ele>539.8333333333333</ele><time>2026-05-03T09:33:45.026Z</time></trkpt><trkpt lat="42.1753926" lon="13.7176965"><ele>542.0</ele><time>2026-05-03T09:33:46.034Z</time></trkpt><trkpt lat="42.1754082" lon="13.7178015"><ele>544.1666666666666</ele><time>2026-05-03T09:33:47.02Z</time></trkpt><trkpt lat="42.1754219" lon="13.7179059"><ele>546.3333333333333</ele><time>2026-05-03T09:33:48.023Z</time></trkpt><trkpt lat="42.1754297" lon="13.7180097"><ele>548.5</ele><time>2026-05-03T09:33:49.022Z</time></trkpt><trkpt lat="42.1754162" lon="13.7181066"><ele>550.6666666666666</ele><time>2026-05-03T09:33:50.022Z</time></trkpt><trkpt lat="42.1753886" lon="13.7182003"><ele>552.8333333333334</ele><time>2026-05-03T09:33:51.024Z</time></trkpt><trkpt lat="42.1753553" lon="13.7182862"><ele>555.0</ele><time>2026-05-03T09:33:52.018Z</time></trkpt><trkpt lat="42.1753201" lon="13.7183769"><ele>555.0</ele><time>2026-05-03T09:33:53.016Z</time></trkpt><trkpt lat="42.1752835" lon="13.718465"><ele>555.0</ele><time>2026-05-03T09:33:54.032Z</time></trkpt><trkpt lat="42.1752509" lon="13.7185473"><ele>555.0</ele><time>2026-05-03T09:33:55.027Z</time></trkpt><trkpt lat="42.1752254" lon="13.7186278"><ele>555.0</ele><time>2026-05-03T09:33:56.026Z</time></trkpt><trkpt lat="42.1752318" lon="13.718788"><ele>555.0</ele><time>2026-05-03T09:33:58.022Z</time></trkpt><trkpt lat="42.1753153" lon="13.71891"><ele>557.1428571428572</ele><time>2026-05-03T09:34:00.03Z</time></trkpt><trkpt lat="42.1753663" lon="13.7189609"><ele>559.2857142857143</ele><time>2026-05-03T09:34:01.019Z</time></trkpt><trkpt lat="42.1754197" lon="13.7190162"><ele>561.4285714285714</ele><time>2026-05-03T09:34:02.024Z</time></trkpt><trkpt lat="42.1754743" lon="13.7190704"><ele>563.5714285714287</ele><time>2026-05-03T09:34:03.025Z</time></trkpt><trkpt lat="42.1755271" lon="13.7191226"><ele>565.7142857142858</ele><time>2026-05-03T09:34:04.018Z</time></trkpt><trkpt lat="42.1755775" lon="13.7191843"><ele>567.8571428571429</ele><time>2026-05-03T09:34:05.017Z</time></trkpt><trkpt lat="42.1756224" lon="13.7192554"><ele>570.0</ele><time>2026-05-03T09:34:06.013Z</time></trkpt><trkpt lat="42.1756628" lon="13.7193251"><ele>571.5714285714286</ele><time>2026-05-03T09:34:07.001Z</time></trkpt><trkpt lat="42.1756983" lon="13.7194035"><ele>573.1428571428571</ele><time>2026-05-03T09:34:08.005Z</time></trkpt><trkpt lat="42.1757365" lon="13.7194865"><ele>574.7142857142858</ele><time>2026-05-03T09:34:09.015Z</time></trkpt><trkpt lat="42.1757722" lon="13.7195715"><ele>576.2857142857142</ele><time>2026-05-03T09:34:10.023Z</time></trkpt><trkpt lat="42.1758096" lon="13.7196603"><ele>577.8571428571429</ele><time>2026-05-03T09:34:11.024Z</time></trkpt><trkpt lat="42.1758432" lon="13.7197502"><ele>579.4285714285714</ele><time>2026-05-03T09:34:12.008Z</time></trkpt><trkpt lat="42.175868" lon="13.7198465"><ele>581.0</ele><time>2026-05-03T09:34:13.022Z</time></trkpt><trkpt lat="42.1758857" lon="13.7199425"><ele>581.0</ele><time>2026-05-03T09:34:14.026Z</time></trkpt><trkpt lat="42.1759017" lon="13.7200386"><ele>581.0</ele><time>2026-05-03T09:34:15.024Z</time></trkpt><trkpt lat="42.1759172" lon="13.7201361"><ele>581.0</ele><time>2026-05-03T09:34:16.028Z</time></trkpt><trkpt lat="42.1759249" lon="13.7202353"><ele>581.0</ele><time>2026-05-03T09:34:17.023Z</time></trkpt><trkpt lat="42.1759255" lon="13.7203411"><ele>581.0</ele><time>2026-05-03T09:34:18.023Z</time></trkpt><trkpt lat="42.1759156" lon="13.7204463"><ele>581.0</ele><time>2026-05-03T09:34:19.021Z</time></trkpt><trkpt lat="42.1758986" lon="13.7205457"><ele>581.8333333333333</ele><time>2026-05-03T09:34:20.022Z</time></trkpt><trkpt lat="42.1758798" lon="13.7206396"><ele>582.6666666666666</ele><time>2026-05-03T09:34:21.025Z</time></trkpt><trkpt lat="42.1758696" lon="13.720738"><ele>583.5</ele><time>2026-05-03T09:34:22.026Z</time></trkpt><trkpt lat="42.1758626" lon="13.7208262"><ele>584.3333333333334</ele><time>2026-05-03T09:34:23.023Z</time></trkpt><trkpt lat="42.1758885" lon="13.7209763"><ele>585.1666666666667</ele><time>2026-05-03T09:34:25.029Z</time></trkpt><trkpt lat="42.1759983" lon="13.7210243"><ele>586.0</ele><time>2026-05-03T09:34:27.024Z</time></trkpt><trkpt lat="42.1760992" lon="13.7209228"><ele>586.0</ele><time>2026-05-03T09:34:29.02Z</time></trkpt><trkpt lat="42.1761212" lon="13.720827"><ele>586.0</ele><time>2026-05-03T09:34:30.012Z</time></trkpt><trkpt lat="42.1761395" lon="13.7207188"><ele>586.0</ele><time>2026-05-03T09:34:31.025Z</time></trkpt><trkpt lat="42.1761543" lon="13.7206105"><ele>586.0</ele><time>2026-05-03T09:34:32.023Z</time></trkpt><trkpt lat="42.1761763" lon="13.7205053"><ele>586.0</ele><time>2026-05-03T09:34:33.022Z</time></trkpt><trkpt lat="42.1762" lon="13.7203982"><ele>586.0</ele><time>2026-05-03T09:34:34.019Z</time></trkpt><trkpt lat="42.176223" lon="13.7202915"><ele>585.1666666666667</ele><time>2026-05-03T09:34:35.03Z</time></trkpt><trkpt lat="42.1762419" lon="13.7201868"><ele>584.3333333333334</ele><time>2026-05-03T09:34:36.024Z</time></trkpt><trkpt lat="42.1762516" lon="13.720085"><ele>583.5</ele><time>2026-05-03T09:34:37.022Z</time></trkpt><trkpt lat="42.1762506" lon="13.7199787"><ele>582.6666666666666</ele><time>2026-05-03T09:34:38.021Z</time></trkpt><trkpt lat="42.1762454" lon="13.7198705"><ele>581.8333333333333</ele><time>2026-05-03T09:34:39.027Z</time></trkpt><trkpt lat="42.1762298" lon="13.7197575"><ele>581.0</ele><time>2026-05-03T09:34:40.018Z</time></trkpt><trkpt lat="42.1762112" lon="13.719648"><ele>581.0</ele><time>2026-05-03T09:34:41.016Z</time></trkpt><trkpt lat="42.1761939" lon="13.7195375"><ele>581.0</ele><time>2026-05-03T09:34:42.027Z</time></trkpt><trkpt lat="42.176176" lon="13.7194257"><ele>581.0</ele><time>2026-05-03T09:34:43.02Z</time></trkpt><trkpt lat="42.1761557" lon="13.7193287"><ele>581.0</ele><time>2026-05-03T09:34:44.026Z</time></trkpt><trkpt lat="42.1761337" lon="13.7192356"><ele>581.0</ele><time>2026-05-03T09:34:45.033Z</time></trkpt><trkpt lat="42.1761077" lon="13.7191509"><ele>581.0</ele><time>2026-05-03T09:34:46.012Z</time></trkpt><trkpt lat="42.1760722" lon="13.7190187"><ele>580.8</ele><time>2026-05-03T09:34:48.031Z</time></trkpt><trkpt lat="42.1760507" lon="13.718883"><ele>580.6</ele><time>2026-05-03T09:34:50.031Z</time></trkpt><trkpt lat="42.1760569" lon="13.7187308"><ele>580.4</ele><time>2026-05-03T09:34:52.037Z</time></trkpt><trkpt lat="42.1760604" lon="13.718645"><ele>580.2</ele><time>2026-05-03T09:34:53.036Z</time></trkpt><trkpt lat="42.1760597" lon="13.7185598"><ele>580.0</ele><time>2026-05-03T09:34:54.025Z</time></trkpt><trkpt lat="42.1760642" lon="13.7183979"><ele>580.8333333333334</ele><time>2026-05-03T09:34:56.025Z</time></trkpt><trkpt lat="42.176091" lon="13.7182344"><ele>581.6666666666667</ele><time>2026-05-03T09:34:58.032Z</time></trkpt><trkpt lat="42.1761052" lon="13.7181495"><ele>582.5</ele><time>2026-05-03T09:34:59.027Z</time></trkpt><trkpt lat="42.1761157" lon="13.7180654"><ele>583.3333333333334</ele><time>2026-05-03T09:35:00.032Z</time></trkpt><trkpt lat="42.1761247" lon="13.7179811"><ele>584.1666666666666</ele><time>2026-05-03T09:35:01.023Z</time></trkpt><trkpt lat="42.1761338" lon="13.7178968"><ele>585.0</ele><time>2026-05-03T09:35:02.038Z</time></trkpt><trkpt lat="42.1761574" lon="13.717757"><ele>584.2</ele><time>2026-05-03T09:35:04.024Z</time></trkpt><trkpt lat="42.176192" lon="13.7176636"><ele>583.4</ele><time>2026-05-03T09:35:06.043Z</time></trkpt><trkpt lat="42.176278" lon="13.7176226"><ele>582.6</ele><time>2026-05-03T09:35:08.015Z</time></trkpt><trkpt lat="42.1763743" lon="13.7176559"><ele>581.8</ele><time>2026-05-03T09:35:10.029Z</time></trkpt><trkpt lat="42.1764618" lon="13.7176968"><ele>581.0</ele><time>2026-05-03T09:35:12.028Z</time></trkpt><trkpt lat="42.1765424" lon="13.7177869"><ele>584.3333333333333</ele><time>2026-05-03T09:35:14.025Z</time></trkpt><trkpt lat="42.1765993" lon="13.7178497"><ele>587.6666666666666</ele><time>2026-05-03T09:35:16.022Z</time></trkpt><trkpt lat="42.1766579" lon="13.7178869"><ele>591.0</ele><time>2026-05-03T09:35:28.036Z</time></trkpt><trkpt lat="42.17673" lon="13.7179216"><ele>594.3333333333334</ele><time>2026-05-03T09:35:30.027Z</time></trkpt><trkpt lat="42.1768454" lon="13.7179842"><ele>597.6666666666667</ele><time>2026-05-03T09:35:32.029Z</time></trkpt><trkpt lat="42.1769083" lon="13.7180126"><ele>601.0</ele><time>2026-05-03T09:35:33.028Z</time></trkpt><trkpt lat="42.1769714" lon="13.7180465"><ele>601.0</ele><time>2026-05-03T09:35:34.04Z</time></trkpt><trkpt lat="42.1770325" lon="13.7180958"><ele>601.0</ele><time>2026-05-03T09:35:35.022Z</time></trkpt><trkpt lat="42.1770946" lon="13.7181525"><ele>601.0</ele><time>2026-05-03T09:35:36.027Z</time></trkpt><trkpt lat="42.1771574" lon="13.7182208"><ele>601.0</ele><time>2026-05-03T09:35:37.026Z</time></trkpt><trkpt lat="42.1772213" lon="13.7182951"><ele>601.0</ele><time>2026-05-03T09:35:38.02Z</time></trkpt><trkpt lat="42.177278" lon="13.7183777"><ele>601.0</ele><time>2026-05-03T09:35:39.036Z</time></trkpt><trkpt lat="42.177332" lon="13.718463"><ele>600.6666666666667</ele><time>2026-05-03T09:35:40.027Z</time></trkpt><trkpt lat="42.1773838" lon="13.7185471"><ele>600.3333333333334</ele><time>2026-05-03T09:35:41.03Z</time></trkpt><trkpt lat="42.1774347" lon="13.7186378"><ele>600.0</ele><time>2026-05-03T09:35:42.037Z</time></trkpt><trkpt lat="42.1774846" lon="13.718726"><ele>599.6666666666666</ele><time>2026-05-03T09:35:43.038Z</time></trkpt><trkpt lat="42.1775325" lon="13.7188188"><ele>599.3333333333333</ele><time>2026-05-03T09:35:44.025Z</time></trkpt><trkpt lat="42.1775744" lon="13.7189218"><ele>599.0</ele><time>2026-05-03T09:35:45.027Z</time></trkpt><trkpt lat="42.1776089" lon="13.719027"><ele>600.3333333333333</ele><time>2026-05-03T09:35:46.03Z</time></trkpt><trkpt lat="42.17764" lon="13.7191366"><ele>601.6666666666666</ele><time>2026-05-03T09:35:47.032Z</time></trkpt><trkpt lat="42.1776699" lon="13.7192456"><ele>603.0</ele><time>2026-05-03T09:35:48.036Z</time></trkpt><trkpt lat="42.1777019" lon="13.7193569"><ele>604.3333333333334</ele><time>2026-05-03T09:35:49.032Z</time></trkpt><trkpt lat="42.1777327" lon="13.7194735"><ele>605.6666666666667</ele><time>2026-05-03T09:35:50.026Z</time></trkpt><trkpt lat="42.1777642" lon="13.7195932"><ele>607.0</ele><time>2026-05-03T09:35:51.035Z</time></trkpt><trkpt lat="42.1777911" lon="13.7197138"><ele>608.2</ele><time>2026-05-03T09:35:52.034Z</time></trkpt><trkpt lat="42.177817" lon="13.7198372"><ele>609.4000000000001</ele><time>2026-05-03T09:35:53.026Z</time></trkpt><trkpt lat="42.1778469" lon="13.7199601"><ele>610.5999999999999</ele><time>2026-05-03T09:35:54.027Z</time></trkpt><trkpt lat="42.1778855" lon="13.7200729"><ele>611.8</ele><time>2026-05-03T09:35:55.019Z</time></trkpt><trkpt lat="42.177934" lon="13.7201837"><ele>613.0</ele><time>2026-05-03T09:35:56.016Z</time></trkpt><trkpt lat="42.1779918" lon="13.7202816"><ele>612.8</ele><time>2026-05-03T09:35:57.019Z</time></trkpt><trkpt lat="42.1780619" lon="13.7203637"><ele>612.5999999999999</ele><time>2026-05-03T09:35:58.027Z</time></trkpt><trkpt lat="42.1781465" lon="13.7204241"><ele>612.4000000000001</ele><time>2026-05-03T09:35:59.021Z</time></trkpt><trkpt lat="42.1782428" lon="13.7204592"><ele>612.2</ele><time>2026-05-03T09:36:00.035Z</time></trkpt><trkpt lat="42.1783328" lon="13.7204711"><ele>612.0</ele><time>2026-05-03T09:36:01.023Z</time></trkpt><trkpt lat="42.178416" lon="13.7204432"><ele>612.0</ele><time>2026-05-03T09:36:02.026Z</time></trkpt><trkpt lat="42.1784793" lon="13.720383"><ele>612.0</ele><time>2026-05-03T09:36:03.026Z</time></trkpt><trkpt lat="42.1785302" lon="13.7202875"><ele>612.0</ele><time>2026-05-03T09:36:04.041Z</time></trkpt><trkpt lat="42.1785703" lon="13.7201694"><ele>612.0</ele><time>2026-05-03T09:36:05.033Z</time></trkpt><trkpt lat="42.1786106" lon="13.7200511"><ele>612.0</ele><time>2026-05-03T09:36:06.038Z</time></trkpt><trkpt lat="42.1786552" lon="13.7199281"><ele>611.4</ele><time>2026-05-03T09:36:07.028Z</time></trkpt><trkpt lat="42.178697" lon="13.7197968"><ele>610.8000000000001</ele><time>2026-05-03T09:36:08.023Z</time></trkpt><trkpt lat="42.1787422" lon="13.7196582"><ele>610.2</ele><time>2026-05-03T09:36:09.027Z</time></trkpt><trkpt lat="42.1787928" lon="13.7195271"><ele>609.6</ele><time>2026-05-03T09:36:10.023Z</time></trkpt><trkpt lat="42.178849" lon="13.719401"><ele>609.0</ele><time>2026-05-03T09:36:11.03Z</time></trkpt><trkpt lat="42.1789135" lon="13.7192849"><ele>607.8</ele><time>2026-05-03T09:36:12.03Z</time></trkpt><trkpt lat="42.1789894" lon="13.7191837"><ele>606.5999999999999</ele><time>2026-05-03T09:36:13.023Z</time></trkpt><trkpt lat="42.1790652" lon="13.7190876"><ele>605.4</ele><time>2026-05-03T09:36:14.034Z</time></trkpt><trkpt lat="42.1791479" lon="13.7190047"><ele>604.1999999999999</ele><time>2026-05-03T09:36:15.013Z</time></trkpt><trkpt lat="42.179237" lon="13.7189328"><ele>603.0</ele><time>2026-05-03T09:36:16.049Z</time></trkpt><trkpt lat="42.1793306" lon="13.7188716"><ele>605.6</ele><time>2026-05-03T09:36:17.03Z</time></trkpt><trkpt lat="42.1794255" lon="13.7188208"><ele>608.1999999999999</ele><time>2026-05-03T09:36:18.035Z</time></trkpt><trkpt lat="42.1795214" lon="13.7187789"><ele>610.8</ele><time>2026-05-03T09:36:19.032Z</time></trkpt><trkpt lat="42.1796149" lon="13.7187338"><ele>613.4</ele><time>2026-05-03T09:36:20.022Z</time></trkpt><trkpt lat="42.179709" lon="13.7186943"><ele>616.0</ele><time>2026-05-03T09:36:21.029Z</time></trkpt><trkpt lat="42.1798026" lon="13.7186614"><ele>616.4</ele><time>2026-05-03T09:36:22.039Z</time></trkpt><trkpt lat="42.1798953" lon="13.7186244"><ele>616.8</ele><time>2026-05-03T09:36:23.023Z</time></trkpt><trkpt lat="42.1799881" lon="13.7185858"><ele>617.1999999999999</ele><time>2026-05-03T09:36:24.023Z</time></trkpt><trkpt lat="42.18008" lon="13.7185481"><ele>617.6</ele><time>2026-05-03T09:36:25.03Z</time></trkpt><trkpt lat="42.1801764" lon="13.718509"><ele>618.0</ele><time>2026-05-03T09:36:26.036Z</time></trkpt><trkpt lat="42.1802708" lon="13.7184649"><ele>618.0</ele><time>2026-05-03T09:36:27.02Z</time></trkpt><trkpt lat="42.1803634" lon="13.7184209"><ele>618.0</ele><time>2026-05-03T09:36:28.026Z</time></trkpt><trkpt lat="42.1804564" lon="13.7183773"><ele>618.0</ele><time>2026-05-03T09:36:29.018Z</time></trkpt><trkpt lat="42.1805457" lon="13.7183267"><ele>618.0</ele><time>2026-05-03T09:36:30.042Z</time></trkpt><trkpt lat="42.1806251" lon="13.7182508"><ele>618.0</ele><time>2026-05-03T09:36:31.031Z</time></trkpt><trkpt lat="42.1806827" lon="13.7181496"><ele>618.1999999999999</ele><time>2026-05-03T09:36:32.026Z</time></trkpt><trkpt lat="42.1807192" lon="13.7180287"><ele>618.4</ele><time>2026-05-03T09:36:33.029Z</time></trkpt><trkpt lat="42.1807242" lon="13.7178889"><ele>618.5999999999999</ele><time>2026-05-03T09:36:34.027Z</time></trkpt><trkpt lat="42.1806947" lon="13.7177522"><ele>618.8</ele><time>2026-05-03T09:36:35.03Z</time></trkpt><trkpt lat="42.1806333" lon="13.7176244"><ele>619.0</ele><time>2026-05-03T09:36:36.033Z</time></trkpt><trkpt lat="42.1805491" lon="13.7175276"><ele>619.0</ele><time>2026-05-03T09:36:37.027Z</time></trkpt><trkpt lat="42.1804578" lon="13.7174433"><ele>619.0</ele><time>2026-05-03T09:36:38.021Z</time></trkpt><trkpt lat="42.1803652" lon="13.7173533"><ele>619.0</ele><time>2026-05-03T09:36:39.036Z</time></trkpt><trkpt lat="42.1802819" lon="13.7172655"><ele>619.0</ele><time>2026-05-03T09:36:40.029Z</time></trkpt><trkpt lat="42.1802002" lon="13.7171731"><ele>619.0</ele><time>2026-05-03T09:36:41.017Z</time></trkpt><trkpt lat="42.1801305" lon="13.717072"><ele>619.0</ele><time>2026-05-03T09:36:42.027Z</time></trkpt><trkpt lat="42.1800767" lon="13.7169663"><ele>619.0</ele><time>2026-05-03T09:36:43.022Z</time></trkpt><trkpt lat="42.1800456" lon="13.7168499"><ele>619.0</ele><time>2026-05-03T09:36:44.034Z</time></trkpt><trkpt lat="42.1800443" lon="13.7167251"><ele>619.0</ele><time>2026-05-03T09:36:45.023Z</time></trkpt><trkpt lat="42.180072" lon="13.7166028"><ele>619.0</ele><time>2026-05-03T09:36:46.03Z</time></trkpt><trkpt lat="42.1801324" lon="13.7165025"><ele>621.0</ele><time>2026-05-03T09:36:47.03Z</time></trkpt><trkpt lat="42.1802115" lon="13.7164115"><ele>623.0</ele><time>2026-05-03T09:36:48.027Z</time></trkpt><trkpt lat="42.1802983" lon="13.716324"><ele>625.0</ele><time>2026-05-03T09:36:49.031Z</time></trkpt><trkpt lat="42.1803943" lon="13.7162215"><ele>627.0</ele><time>2026-05-03T09:36:50.038Z</time></trkpt><trkpt lat="42.1804882" lon="13.7161118"><ele>627.0</ele><time>2026-05-03T09:36:51.032Z</time></trkpt><trkpt lat="42.180583" lon="13.7159964"><ele>627.0</ele><time>2026-05-03T09:36:52.032Z</time></trkpt><trkpt lat="42.1806792" lon="13.7158832"><ele>627.0</ele><time>2026-05-03T09:36:53.023Z</time></trkpt><trkpt lat="42.1807756" lon="13.7157675"><ele>627.0</ele><time>2026-05-03T09:36:54.044Z</time></trkpt><trkpt lat="42.1808719" lon="13.7156602"><ele>627.25</ele><time>2026-05-03T09:36:55.025Z</time></trkpt><trkpt lat="42.1809661" lon="13.7155569"><ele>627.5</ele><time>2026-05-03T09:36:56.03Z</time></trkpt><trkpt lat="42.181055" lon="13.7154548"><ele>627.75</ele><time>2026-05-03T09:36:57.038Z</time></trkpt><trkpt lat="42.1811385" lon="13.7153486"><ele>628.0</ele><time>2026-05-03T09:36:58.03Z</time></trkpt><trkpt lat="42.1812211" lon="13.7152507"><ele>628.6</ele><time>2026-05-03T09:36:59.029Z</time></trkpt><trkpt lat="42.1812985" lon="13.7151506"><ele>629.1999999999999</ele><time>2026-05-03T09:37:00.03Z</time></trkpt><trkpt lat="42.1813797" lon="13.7150629"><ele>629.8</ele><time>2026-05-03T09:37:01.028Z</time></trkpt><trkpt lat="42.1814634" lon="13.714987"><ele>630.4</ele><time>2026-05-03T09:37:02.02Z</time></trkpt><trkpt lat="42.1815581" lon="13.7149409"><ele>631.0</ele><time>2026-05-03T09:37:03.039Z</time></trkpt><trkpt lat="42.1816551" lon="13.7149332"><ele>631.0</ele><time>2026-05-03T09:37:04.032Z</time></trkpt><trkpt lat="42.1817596" lon="13.7149641"><ele>631.0</ele><time>2026-05-03T09:37:05.028Z</time></trkpt><trkpt lat="42.1818667" lon="13.7150193"><ele>631.0</ele><time>2026-05-03T09:37:06.029Z</time></trkpt><trkpt lat="42.181974" lon="13.715096"><ele>631.0</ele><time>2026-05-03T09:37:07.023Z</time></trkpt><trkpt lat="42.1820838" lon="13.7151886"><ele>634.0</ele><time>2026-05-03T09:37:08.017Z</time></trkpt><trkpt lat="42.1821961" lon="13.715276"><ele>637.0</ele><time>2026-05-03T09:37:09.015Z</time></trkpt><trkpt lat="42.1823106" lon="13.7153691"><ele>640.0</ele><time>2026-05-03T09:37:10.027Z</time></trkpt><trkpt lat="42.1824214" lon="13.7154657"><ele>643.0</ele><time>2026-05-03T09:37:11.016Z</time></trkpt><trkpt lat="42.1825297" lon="13.7155635"><ele>643.25</ele><time>2026-05-03T09:37:12.027Z</time></trkpt><trkpt lat="42.1826384" lon="13.7156625"><ele>643.5</ele><time>2026-05-03T09:37:13.015Z</time></trkpt><trkpt lat="42.1827498" lon="13.7157613"><ele>643.75</ele><time>2026-05-03T09:37:14.023Z</time></trkpt><trkpt lat="42.1828626" lon="13.7158489"><ele>644.0</ele><time>2026-05-03T09:37:15.017Z</time></trkpt><trkpt lat="42.1829775" lon="13.7159253"><ele>644.0</ele><time>2026-05-03T09:37:16.027Z</time></trkpt><trkpt lat="42.1830976" lon="13.7159855"><ele>644.0</ele><time>2026-05-03T09:37:17.017Z</time></trkpt><trkpt lat="42.1832189" lon="13.716042"><ele>644.0</ele><time>2026-05-03T09:37:18.021Z</time></trkpt><trkpt lat="42.183342" lon="13.7160924"><ele>644.0</ele><time>2026-05-03T09:37:19.031Z</time></trkpt><trkpt lat="42.1834605" lon="13.7161429"><ele>646.8000000000001</ele><time>2026-05-03T09:37:20.013Z</time></trkpt><trkpt lat="42.1835736" lon="13.7161925"><ele>649.6</ele><time>2026-05-03T09:37:21.027Z</time></trkpt><trkpt lat="42.183679" lon="13.7162386"><ele>652.4</ele><time>2026-05-03T09:37:22.033Z</time></trkpt><trkpt lat="42.1837802" lon="13.7162736"><ele>655.2</ele><time>2026-05-03T09:37:23.02Z</time></trkpt><trkpt lat="42.1838809" lon="13.7162917"><ele>658.0</ele><time>2026-05-03T09:37:24.025Z</time></trkpt><trkpt lat="42.1839857" lon="13.7162991"><ele>657.25</ele><time>2026-05-03T09:37:25.011Z</time></trkpt><trkpt lat="42.1840991" lon="13.7162883"><ele>656.5</ele><time>2026-05-03T09:37:26.031Z</time></trkpt><trkpt lat="42.1842189" lon="13.7162665"><ele>655.75</ele><time>2026-05-03T09:37:27.018Z</time></trkpt><trkpt lat="42.1843405" lon="13.7162375"><ele>655.0</ele><time>2026-05-03T09:37:28.025Z</time></trkpt><trkpt lat="42.1844577" lon="13.7162007"><ele>655.0</ele><time>2026-05-03T09:37:29.025Z</time></trkpt><trkpt lat="42.1845709" lon="13.7161515"><ele>655.0</ele><time>2026-05-03T09:37:30.023Z</time></trkpt><trkpt lat="42.1846769" lon="13.7160859"><ele>655.0</ele><time>2026-05-03T09:37:31.017Z</time></trkpt><trkpt lat="42.1847719" lon="13.7159943"><ele>655.0</ele><time>2026-05-03T09:37:32.02Z</time></trkpt><trkpt lat="42.1848602" lon="13.7158836"><ele>655.25</ele><time>2026-05-03T09:37:33.018Z</time></trkpt><trkpt lat="42.1849378" lon="13.715758"><ele>655.5</ele><time>2026-05-03T09:37:34.042Z</time></trkpt><trkpt lat="42.1850107" lon="13.7156216"><ele>655.75</ele><time>2026-05-03T09:37:35.019Z</time></trkpt><trkpt lat="42.1850817" lon="13.7154819"><ele>656.0</ele><time>2026-05-03T09:37:36.033Z</time></trkpt><trkpt lat="42.1851431" lon="13.7153344"><ele>652.5</ele><time>2026-05-03T09:37:37.021Z</time></trkpt><trkpt lat="42.1851975" lon="13.7151848"><ele>649.0</ele><time>2026-05-03T09:37:38.023Z</time></trkpt><trkpt lat="42.1852568" lon="13.7150371"><ele>645.5</ele><time>2026-05-03T09:37:39.02Z</time></trkpt><trkpt lat="42.1853186" lon="13.7148966"><ele>642.0</ele><time>2026-05-03T09:37:40.029Z</time></trkpt><trkpt lat="42.1853813" lon="13.7147675"><ele>642.0</ele><time>2026-05-03T09:37:41.026Z</time></trkpt><trkpt lat="42.1854449" lon="13.7146429"><ele>642.0</ele><time>2026-05-03T09:37:42.024Z</time></trkpt><trkpt lat="42.1855134" lon="13.7145197"><ele>642.0</ele><time>2026-05-03T09:37:43.026Z</time></trkpt><trkpt lat="42.1855929" lon="13.7144047"><ele>642.0</ele><time>2026-05-03T09:37:44.027Z</time></trkpt><trkpt lat="42.1856811" lon="13.7142962"><ele>644.25</ele><time>2026-05-03T09:37:45.023Z</time></trkpt><trkpt lat="42.1857728" lon="13.7141937"><ele>646.5</ele><time>2026-05-03T09:37:46.027Z</time></trkpt><trkpt lat="42.1858729" lon="13.7141007"><ele>648.75</ele><time>2026-05-03T09:37:47.036Z</time></trkpt><trkpt lat="42.18598" lon="13.7140204"><ele>651.0</ele><time>2026-05-03T09:37:48.024Z</time></trkpt><trkpt lat="42.1860904" lon="13.7139557"><ele>651.0</ele><time>2026-05-03T09:37:49.018Z</time></trkpt><trkpt lat="42.1862024" lon="13.7139067"><ele>651.0</ele><time>2026-05-03T09:37:50.025Z</time></trkpt><trkpt lat="42.1863169" lon="13.7138701"><ele>651.0</ele><time>2026-05-03T09:37:51.027Z</time></trkpt><trkpt lat="42.1864321" lon="13.7138167"><ele>651.0</ele><time>2026-05-03T09:37:52.022Z</time></trkpt><trkpt lat="42.1865373" lon="13.713735"><ele>651.5</ele><time>2026-05-03T09:37:53.021Z</time></trkpt><trkpt lat="42.1866301" lon="13.7136324"><ele>652.0</ele><time>2026-05-03T09:37:54.036Z</time></trkpt><trkpt lat="42.1867214" lon="13.7135181"><ele>652.5</ele><time>2026-05-03T09:37:55.022Z</time></trkpt><trkpt lat="42.1867999" lon="13.7133949"><ele>653.0</ele><time>2026-05-03T09:37:56.032Z</time></trkpt><trkpt lat="42.1868701" lon="13.7132573"><ele>653.0</ele><time>2026-05-03T09:37:57.009Z</time></trkpt><trkpt lat="42.1869424" lon="13.7131249"><ele>653.0</ele><time>2026-05-03T09:37:58.018Z</time></trkpt><trkpt lat="42.1870157" lon="13.7129861"><ele>653.0</ele><time>2026-05-03T09:37:59.025Z</time></trkpt><trkpt lat="42.1870946" lon="13.7128501"><ele>653.0</ele><time>2026-05-03T09:38:00.031Z</time></trkpt><trkpt lat="42.1871739" lon="13.7127062"><ele>650.75</ele><time>2026-05-03T09:38:01.023Z</time></trkpt><trkpt lat="42.1872509" lon="13.7125589"><ele>648.5</ele><time>2026-05-03T09:38:02.036Z</time></trkpt><trkpt lat="42.1873191" lon="13.7123982"><ele>646.25</ele><time>2026-05-03T09:38:03.016Z</time></trkpt><trkpt lat="42.1873746" lon="13.7122307"><ele>644.0</ele><time>2026-05-03T09:38:04.029Z</time></trkpt><trkpt lat="42.187418" lon="13.712054"><ele>649.25</ele><time>2026-05-03T09:38:05.026Z</time></trkpt><trkpt lat="42.1874542" lon="13.7118725"><ele>654.5</ele><time>2026-05-03T09:38:06.027Z</time></trkpt><trkpt lat="42.1874903" lon="13.7116936"><ele>659.75</ele><time>2026-05-03T09:38:07.032Z</time></trkpt><trkpt lat="42.187529" lon="13.7115174"><ele>665.0</ele><time>2026-05-03T09:38:08.026Z</time></trkpt><trkpt lat="42.1875647" lon="13.711334"><ele>665.0</ele><time>2026-05-03T09:38:09.023Z</time></trkpt><trkpt lat="42.1876014" lon="13.7111577"><ele>665.0</ele><time>2026-05-03T09:38:10.023Z</time></trkpt><trkpt lat="42.1876351" lon="13.7109849"><ele>665.0</ele><time>2026-05-03T09:38:11.029Z</time></trkpt><trkpt lat="42.1876637" lon="13.710808"><ele>665.0</ele><time>2026-05-03T09:38:12.017Z</time></trkpt><trkpt lat="42.1876829" lon="13.7106308"><ele>665.0</ele><time>2026-05-03T09:38:13.02Z</time></trkpt><trkpt lat="42.1877002" lon="13.7104528"><ele>665.0</ele><time>2026-05-03T09:38:14.024Z</time></trkpt><trkpt lat="42.1877113" lon="13.7102771"><ele>665.0</ele><time>2026-05-03T09:38:15.026Z</time></trkpt><trkpt lat="42.1877194" lon="13.7101146"><ele>665.0</ele><time>2026-05-03T09:38:16.022Z</time></trkpt><trkpt lat="42.1877228" lon="13.7099655"><ele>665.0</ele><time>2026-05-03T09:38:17.032Z</time></trkpt><trkpt lat="42.1877177" lon="13.7098208"><ele>665.0</ele><time>2026-05-03T09:38:18.023Z</time></trkpt><trkpt lat="42.1877153" lon="13.7096752"><ele>665.0</ele><time>2026-05-03T09:38:19.022Z</time></trkpt><trkpt lat="42.1877261" lon="13.7095308"><ele>665.0</ele><time>2026-05-03T09:38:20.015Z</time></trkpt><trkpt lat="42.1877485" lon="13.7093772"><ele>665.0</ele><time>2026-05-03T09:38:21.02Z</time></trkpt><trkpt lat="42.1877947" lon="13.7092263"><ele>664.75</ele><time>2026-05-03T09:38:22.03Z</time></trkpt><trkpt lat="42.1878482" lon="13.7090737"><ele>664.5</ele><time>2026-05-03T09:38:23.022Z</time></trkpt><trkpt lat="42.1879029" lon="13.7089173"><ele>664.25</ele><time>2026-05-03T09:38:24.025Z</time></trkpt><trkpt lat="42.1879525" lon="13.7087589"><ele>664.0</ele><time>2026-05-03T09:38:25.022Z</time></trkpt><trkpt lat="42.1879824" lon="13.7086015"><ele>663.75</ele><time>2026-05-03T09:38:26.031Z</time></trkpt><trkpt lat="42.1879908" lon="13.7084384"><ele>663.5</ele><time>2026-05-03T09:38:27.033Z</time></trkpt><trkpt lat="42.1879827" lon="13.7082718"><ele>663.25</ele><time>2026-05-03T09:38:28.021Z</time></trkpt><trkpt lat="42.1879514" lon="13.7081045"><ele>663.0</ele><time>2026-05-03T09:38:29.027Z</time></trkpt><trkpt lat="42.1879013" lon="13.7079418"><ele>663.0</ele><time>2026-05-03T09:38:30.024Z</time></trkpt><trkpt lat="42.1878336" lon="13.70779"><ele>663.0</ele><time>2026-05-03T09:38:31.024Z</time></trkpt><trkpt lat="42.187748" lon="13.7076502"><ele>663.0</ele><time>2026-05-03T09:38:32.027Z</time></trkpt><trkpt lat="42.1876489" lon="13.7075186"><ele>663.0</ele><time>2026-05-03T09:38:33.013Z</time></trkpt><trkpt lat="42.1875456" lon="13.7074049"><ele>662.4</ele><time>2026-05-03T09:38:34.001Z</time></trkpt><trkpt lat="42.1874463" lon="13.7073115"><ele>661.8</ele><time>2026-05-03T09:38:35.019Z</time></trkpt><trkpt lat="42.1873482" lon="13.7072309"><ele>661.2</ele><time>2026-05-03T09:38:36.03Z</time></trkpt><trkpt lat="42.1872537" lon="13.7071574"><ele>660.6</ele><time>2026-05-03T09:38:37.037Z</time></trkpt><trkpt lat="42.1871677" lon="13.7070932"><ele>660.0</ele><time>2026-05-03T09:38:38.036Z</time></trkpt><trkpt lat="42.1870896" lon="13.7070202"><ele>660.0</ele><time>2026-05-03T09:38:39.019Z</time></trkpt><trkpt lat="42.1870212" lon="13.7069253"><ele>660.0</ele><time>2026-05-03T09:38:40.028Z</time></trkpt><trkpt lat="42.1869649" lon="13.7068096"><ele>660.0</ele><time>2026-05-03T09:38:41.027Z</time></trkpt><trkpt lat="42.1869327" lon="13.7066738"><ele>660.0</ele><time>2026-05-03T09:38:42.03Z</time></trkpt><trkpt lat="42.1869303" lon="13.7065368"><ele>660.0</ele><time>2026-05-03T09:38:43.032Z</time></trkpt><trkpt lat="42.1869581" lon="13.7063966"><ele>661.75</ele><time>2026-05-03T09:38:44.025Z</time></trkpt><trkpt lat="42.1870082" lon="13.7062616"><ele>663.5</ele><time>2026-05-03T09:38:45.021Z</time></trkpt><trkpt lat="42.1870787" lon="13.7061408"><ele>665.25</ele><time>2026-05-03T09:38:46.031Z</time></trkpt><trkpt lat="42.1871654" lon="13.7060308"><ele>667.0</ele><time>2026-05-03T09:38:47.036Z</time></trkpt><trkpt lat="42.1872629" lon="13.7059314"><ele>668.5</ele><time>2026-05-03T09:38:48.028Z</time></trkpt><trkpt lat="42.1873705" lon="13.705839"><ele>670.0</ele><time>2026-05-03T09:38:49.043Z</time></trkpt><trkpt lat="42.187486" lon="13.7057575"><ele>671.5</ele><time>2026-05-03T09:38:50.032Z</time></trkpt><trkpt lat="42.1876067" lon="13.7056898"><ele>673.0</ele><time>2026-05-03T09:38:51.032Z</time></trkpt><trkpt lat="42.1877323" lon="13.7056468"><ele>673.0</ele><time>2026-05-03T09:38:52.039Z</time></trkpt><trkpt lat="42.1878556" lon="13.7056159"><ele>673.0</ele><time>2026-05-03T09:38:53.031Z</time></trkpt><trkpt lat="42.1879855" lon="13.7055853"><ele>673.0</ele><time>2026-05-03T09:38:54.025Z</time></trkpt><trkpt lat="42.1881154" lon="13.7055536"><ele>673.0</ele><time>2026-05-03T09:38:55.018Z</time></trkpt><trkpt lat="42.1882438" lon="13.7055222"><ele>674.25</ele><time>2026-05-03T09:38:56.005Z</time></trkpt><trkpt lat="42.1883664" lon="13.7054895"><ele>675.5</ele><time>2026-05-03T09:38:57.036Z</time></trkpt><trkpt lat="42.1884783" lon="13.7054534"><ele>676.75</ele><time>2026-05-03T09:38:58.031Z</time></trkpt><trkpt lat="42.1885795" lon="13.7053989"><ele>678.0</ele><time>2026-05-03T09:38:59.028Z</time></trkpt><trkpt lat="42.1886737" lon="13.7053235"><ele>675.0</ele><time>2026-05-03T09:39:00.046Z</time></trkpt><trkpt lat="42.1887538" lon="13.7052217"><ele>672.0</ele><time>2026-05-03T09:39:01.032Z</time></trkpt><trkpt lat="42.1888135" lon="13.7050955"><ele>669.0</ele><time>2026-05-03T09:39:02.026Z</time></trkpt><trkpt lat="42.1888531" lon="13.7049448"><ele>666.0</ele><time>2026-05-03T09:39:03.038Z</time></trkpt><trkpt lat="42.1888714" lon="13.7047742"><ele>666.0</ele><time>2026-05-03T09:39:04.032Z</time></trkpt><trkpt lat="42.1888767" lon="13.7045973"><ele>666.0</ele><time>2026-05-03T09:39:05.027Z</time></trkpt><trkpt lat="42.1888712" lon="13.7044115"><ele>666.0</ele><time>2026-05-03T09:39:06.033Z</time></trkpt><trkpt lat="42.1888694" lon="13.7042326"><ele>666.0</ele><time>2026-05-03T09:39:07.039Z</time></trkpt><trkpt lat="42.1888723" lon="13.70406"><ele>664.25</ele><time>2026-05-03T09:39:08.027Z</time></trkpt><trkpt lat="42.1888846" lon="13.7038917"><ele>662.5</ele><time>2026-05-03T09:39:09.029Z</time></trkpt><trkpt lat="42.1889094" lon="13.7037279"><ele>660.75</ele><time>2026-05-03T09:39:10.015Z</time></trkpt><trkpt lat="42.1889507" lon="13.7035674"><ele>659.0</ele><time>2026-05-03T09:39:11.027Z</time></trkpt><trkpt lat="42.1890074" lon="13.7034071"><ele>662.25</ele><time>2026-05-03T09:39:12.028Z</time></trkpt><trkpt lat="42.1890738" lon="13.7032503"><ele>665.5</ele><time>2026-05-03T09:39:13.028Z</time></trkpt><trkpt lat="42.1891462" lon="13.7030955"><ele>668.75</ele><time>2026-05-03T09:39:14.042Z</time></trkpt><trkpt lat="42.1892122" lon="13.7029375"><ele>672.0</ele><time>2026-05-03T09:39:15.013Z</time></trkpt><trkpt lat="42.1892709" lon="13.7027852"><ele>670.25</ele><time>2026-05-03T09:39:16.03Z</time></trkpt><trkpt lat="42.1893235" lon="13.7026327"><ele>668.5</ele><time>2026-05-03T09:39:17.03Z</time></trkpt><trkpt lat="42.1893697" lon="13.7024846"><ele>666.75</ele><time>2026-05-03T09:39:18.039Z</time></trkpt><trkpt lat="42.1894179" lon="13.702347"><ele>665.0</ele><time>2026-05-03T09:39:19.025Z</time></trkpt><trkpt lat="42.189472" lon="13.7022266"><ele>665.0</ele><time>2026-05-03T09:39:20.027Z</time></trkpt><trkpt lat="42.1895366" lon="13.7021231"><ele>665.0</ele><time>2026-05-03T09:39:21.031Z</time></trkpt><trkpt lat="42.1896126" lon="13.7020429"><ele>665.0</ele><time>2026-05-03T09:39:22.031Z</time></trkpt><trkpt lat="42.1896997" lon="13.7019877"><ele>665.0</ele><time>2026-05-03T09:39:23.031Z</time></trkpt><trkpt lat="42.1897997" lon="13.7019714"><ele>665.0</ele><time>2026-05-03T09:39:24.036Z</time></trkpt><trkpt lat="42.1899073" lon="13.7019853"><ele>665.0</ele><time>2026-05-03T09:39:25.029Z</time></trkpt><trkpt lat="42.1900179" lon="13.7020088"><ele>665.0</ele><time>2026-05-03T09:39:26.028Z</time></trkpt><trkpt lat="42.1901347" lon="13.7020025"><ele>665.0</ele><time>2026-05-03T09:39:27.016Z</time></trkpt><trkpt lat="42.1902493" lon="13.701954"><ele>665.0</ele><time>2026-05-03T09:39:28.027Z</time></trkpt><trkpt lat="42.1903564" lon="13.7018661"><ele>665.0</ele><time>2026-05-03T09:39:29.03Z</time></trkpt><trkpt lat="42.1904511" lon="13.7017419"><ele>665.0</ele><time>2026-05-03T09:39:30.03Z</time></trkpt><trkpt lat="42.1905363" lon="13.7016043"><ele>665.0</ele><time>2026-05-03T09:39:31.026Z</time></trkpt><trkpt lat="42.1906184" lon="13.7014647"><ele>665.0</ele><time>2026-05-03T09:39:32.033Z</time></trkpt><trkpt lat="42.1906972" lon="13.7013326"><ele>666.5</ele><time>2026-05-03T09:39:33.019Z</time></trkpt><trkpt lat="42.1907858" lon="13.7012277"><ele>668.0</ele><time>2026-05-03T09:39:34.03Z</time></trkpt><trkpt lat="42.1908796" lon="13.7011457"><ele>669.5</ele><time>2026-05-03T09:39:35.024Z</time></trkpt><trkpt lat="42.1909784" lon="13.7010795"><ele>671.0</ele><time>2026-05-03T09:39:36.031Z</time></trkpt><trkpt lat="42.191092" lon="13.7010294"><ele>668.75</ele><time>2026-05-03T09:39:37.02Z</time></trkpt><trkpt lat="42.1912134" lon="13.700995"><ele>666.5</ele><time>2026-05-03T09:39:38.022Z</time></trkpt><trkpt lat="42.1913387" lon="13.7009658"><ele>664.25</ele><time>2026-05-03T09:39:39.028Z</time></trkpt><trkpt lat="42.1914669" lon="13.7009331"><ele>662.0</ele><time>2026-05-03T09:39:40.023Z</time></trkpt><trkpt lat="42.1915956" lon="13.7009014"><ele>662.0</ele><time>2026-05-03T09:39:41.023Z</time></trkpt><trkpt lat="42.1917267" lon="13.7008766"><ele>662.0</ele><time>2026-05-03T09:39:42.029Z</time></trkpt><trkpt lat="42.1918549" lon="13.7008664"><ele>662.0</ele><time>2026-05-03T09:39:43.012Z</time></trkpt><trkpt lat="42.1919761" lon="13.700867"><ele>662.0</ele><time>2026-05-03T09:39:44.03Z</time></trkpt><trkpt lat="42.1920918" lon="13.7008783"><ele>662.0</ele><time>2026-05-03T09:39:45.023Z</time></trkpt><trkpt lat="42.1921949" lon="13.7008851"><ele>662.0</ele><time>2026-05-03T09:39:46.023Z</time></trkpt><trkpt lat="42.1922897" lon="13.7008759"><ele>662.0</ele><time>2026-05-03T09:39:47.021Z</time></trkpt><trkpt lat="42.1923763" lon="13.700834"><ele>662.0</ele><time>2026-05-03T09:39:48.036Z</time></trkpt><trkpt lat="42.1924457" lon="13.7007536"><ele>662.0</ele><time>2026-05-03T09:39:49.028Z</time></trkpt><trkpt lat="42.192494" lon="13.7006361"><ele>661.4000000000001</ele><time>2026-05-03T09:39:50.024Z</time></trkpt><trkpt lat="42.1925275" lon="13.7004994"><ele>660.8000000000001</ele><time>2026-05-03T09:39:51.028Z</time></trkpt><trkpt lat="42.1925643" lon="13.7003598"><ele>660.2</ele><time>2026-05-03T09:39:52.031Z</time></trkpt><trkpt lat="42.1926002" lon="13.700212"><ele>659.6</ele><time>2026-05-03T09:39:53.024Z</time></trkpt><trkpt lat="42.1926438" lon="13.7000777"><ele>659.0</ele><time>2026-05-03T09:39:54.024Z</time></trkpt><trkpt lat="42.1927026" lon="13.6999583"><ele>659.0</ele><time>2026-05-03T09:39:55.026Z</time></trkpt><trkpt lat="42.1927796" lon="13.6998548"><ele>659.0</ele><time>2026-05-03T09:39:56.021Z</time></trkpt><trkpt lat="42.1928721" lon="13.6997731"><ele>659.0</ele><time>2026-05-03T09:39:57.022Z</time></trkpt><trkpt lat="42.1929734" lon="13.699698"><ele>659.0</ele><time>2026-05-03T09:39:58.029Z</time></trkpt><trkpt lat="42.1930785" lon="13.6996193"><ele>659.8000000000001</ele><time>2026-05-03T09:39:59.023Z</time></trkpt><trkpt lat="42.1931822" lon="13.6995401"><ele>660.6</ele><time>2026-05-03T09:40:00.051Z</time></trkpt><trkpt lat="42.1932823" lon="13.6994577"><ele>661.4</ele><time>2026-05-03T09:40:01.02Z</time></trkpt><trkpt lat="42.1933743" lon="13.6993785"><ele>662.2</ele><time>2026-05-03T09:40:02.028Z</time></trkpt><trkpt lat="42.1934559" lon="13.6993013"><ele>663.0</ele><time>2026-05-03T09:40:03.025Z</time></trkpt><trkpt lat="42.1935329" lon="13.6992172"><ele>663.0</ele><time>2026-05-03T09:40:04.032Z</time></trkpt><trkpt lat="42.1936128" lon="13.699122"><ele>663.0</ele><time>2026-05-03T09:40:05.022Z</time></trkpt><trkpt lat="42.1936834" lon="13.6990101"><ele>663.0</ele><time>2026-05-03T09:40:06.025Z</time></trkpt><trkpt lat="42.1937263" lon="13.6988874"><ele>663.0</ele><time>2026-05-03T09:40:07.024Z</time></trkpt><trkpt lat="42.1937421" lon="13.6987572"><ele>663.0</ele><time>2026-05-03T09:40:08.015Z</time></trkpt><trkpt lat="42.1937397" lon="13.6986319"><ele>663.8333333333334</ele><time>2026-05-03T09:40:09.017Z</time></trkpt><trkpt lat="42.1937329" lon="13.6985236"><ele>664.6666666666666</ele><time>2026-05-03T09:40:10.025Z</time></trkpt><trkpt lat="42.193695" lon="13.6984237"><ele>665.5</ele><time>2026-05-03T09:40:11.034Z</time></trkpt><trkpt lat="42.1936359" lon="13.6983579"><ele>666.3333333333333</ele><time>2026-05-03T09:40:12.016Z</time></trkpt><trkpt lat="42.1935527" lon="13.6983263"><ele>667.1666666666666</ele><time>2026-05-03T09:40:13.016Z</time></trkpt><trkpt lat="42.1934594" lon="13.6983133"><ele>668.0</ele><time>2026-05-03T09:40:14.017Z</time></trkpt><trkpt lat="42.1933584" lon="13.6982947"><ele>668.0</ele><time>2026-05-03T09:40:15.013Z</time></trkpt><trkpt lat="42.1932501" lon="13.698261"><ele>668.0</ele><time>2026-05-03T09:40:16.023Z</time></trkpt><trkpt lat="42.1931337" lon="13.6982236"><ele>668.0</ele><time>2026-05-03T09:40:17.014Z</time></trkpt><trkpt lat="42.1930166" lon="13.698181"><ele>668.0</ele><time>2026-05-03T09:40:18.02Z</time></trkpt><trkpt lat="42.192905" lon="13.6981333"><ele>667.0</ele><time>2026-05-03T09:40:19.021Z</time></trkpt><trkpt lat="42.1928029" lon="13.698064"><ele>666.0</ele><time>2026-05-03T09:40:20.022Z</time></trkpt><trkpt lat="42.1927083" lon="13.6979709"><ele>665.0</ele><time>2026-05-03T09:40:21.017Z</time></trkpt><trkpt lat="42.1926194" lon="13.697857"><ele>664.0</ele><time>2026-05-03T09:40:22.016Z</time></trkpt><trkpt lat="42.1925314" lon="13.6977335"><ele>664.0</ele><time>2026-05-03T09:40:23.013Z</time></trkpt><trkpt lat="42.1924408" lon="13.697613"><ele>664.0</ele><time>2026-05-03T09:40:24.018Z</time></trkpt><trkpt lat="42.1923566" lon="13.6975011"><ele>664.0</ele><time>2026-05-03T09:40:25.017Z</time></trkpt><trkpt lat="42.1922792" lon="13.6973951"><ele>664.0</ele><time>2026-05-03T09:40:26.014Z</time></trkpt><trkpt lat="42.1922098" lon="13.6972915"><ele>661.4000000000001</ele><time>2026-05-03T09:40:27.014Z</time></trkpt><trkpt lat="42.1921532" lon="13.6971781"><ele>658.8</ele><time>2026-05-03T09:40:28.027Z</time></trkpt><trkpt lat="42.1921059" lon="13.6970566"><ele>656.2</ele><time>2026-05-03T09:40:29.023Z</time></trkpt><trkpt lat="42.1920698" lon="13.6969209"><ele>653.5999999999999</ele><time>2026-05-03T09:40:30.027Z</time></trkpt><trkpt lat="42.1920502" lon="13.6967749"><ele>651.0</ele><time>2026-05-03T09:40:31.027Z</time></trkpt><trkpt lat="42.1920509" lon="13.6966236"><ele>651.0</ele><time>2026-05-03T09:40:32.033Z</time></trkpt><trkpt lat="42.1920699" lon="13.6964697"><ele>651.0</ele><time>2026-05-03T09:40:33.014Z</time></trkpt><trkpt lat="42.1920982" lon="13.6963287"><ele>651.0</ele><time>2026-05-03T09:40:34.017Z</time></trkpt><trkpt lat="42.192124" lon="13.6961917"><ele>651.0</ele><time>2026-05-03T09:40:35.023Z</time></trkpt><trkpt lat="42.1921517" lon="13.6960562"><ele>651.0</ele><time>2026-05-03T09:40:36.026Z</time></trkpt><trkpt lat="42.1921799" lon="13.6959232"><ele>650.5999999999999</ele><time>2026-05-03T09:40:37.03Z</time></trkpt><trkpt lat="42.1922093" lon="13.6957933"><ele>650.2</ele><time>2026-05-03T09:40:38.024Z</time></trkpt><trkpt lat="42.192247" lon="13.6956681"><ele>649.8</ele><time>2026-05-03T09:40:39.011Z</time></trkpt><trkpt lat="42.1922834" lon="13.6955468"><ele>649.4000000000001</ele><time>2026-05-03T09:40:40.026Z</time></trkpt><trkpt lat="42.1923307" lon="13.695427"><ele>649.0</ele><time>2026-05-03T09:40:41.035Z</time></trkpt><trkpt lat="42.1923909" lon="13.6953146"><ele>650.8000000000001</ele><time>2026-05-03T09:40:42.023Z</time></trkpt><trkpt lat="42.1924718" lon="13.6952213"><ele>652.6</ele><time>2026-05-03T09:40:43.028Z</time></trkpt><trkpt lat="42.1925664" lon="13.6951451"><ele>654.4</ele><time>2026-05-03T09:40:44.029Z</time></trkpt><trkpt lat="42.1926696" lon="13.6950861"><ele>656.2</ele><time>2026-05-03T09:40:45.024Z</time></trkpt><trkpt lat="42.1927738" lon="13.6950364"><ele>658.0</ele><time>2026-05-03T09:40:46.027Z</time></trkpt><trkpt lat="42.1928739" lon="13.6949693"><ele>658.0</ele><time>2026-05-03T09:40:47.029Z</time></trkpt><trkpt lat="42.1929533" lon="13.6948952"><ele>658.0</ele><time>2026-05-03T09:40:48.025Z</time></trkpt><trkpt lat="42.1930221" lon="13.694793"><ele>658.0</ele><time>2026-05-03T09:40:49.023Z</time></trkpt><trkpt lat="42.1930761" lon="13.6946636"><ele>658.0</ele><time>2026-05-03T09:40:50.023Z</time></trkpt><trkpt lat="42.1931071" lon="13.6945126"><ele>658.0</ele><time>2026-05-03T09:40:51.032Z</time></trkpt><trkpt lat="42.1931116" lon="13.6943507"><ele>656.5</ele><time>2026-05-03T09:40:52.026Z</time></trkpt><trkpt lat="42.1930884" lon="13.6941889"><ele>655.0</ele><time>2026-05-03T09:40:53.019Z</time></trkpt><trkpt lat="42.1930488" lon="13.6940227"><ele>653.5</ele><time>2026-05-03T09:40:54.037Z</time></trkpt><trkpt lat="42.1929916" lon="13.693862"><ele>652.0</ele><time>2026-05-03T09:40:55.024Z</time></trkpt><trkpt lat="42.1929209" lon="13.6936978"><ele>653.25</ele><time>2026-05-03T09:40:56.028Z</time></trkpt><trkpt lat="42.1928415" lon="13.6935423"><ele>654.5</ele><time>2026-05-03T09:40:57.017Z</time></trkpt><trkpt lat="42.1927573" lon="13.6933959"><ele>655.75</ele><time>2026-05-03T09:40:58.017Z</time></trkpt><trkpt lat="42.1926695" lon="13.6932461"><ele>657.0</ele><time>2026-05-03T09:40:59.017Z</time></trkpt><trkpt lat="42.1925887" lon="13.693102"><ele>657.0</ele><time>2026-05-03T09:41:00.029Z</time></trkpt><trkpt lat="42.1925123" lon="13.6929671"><ele>657.0</ele><time>2026-05-03T09:41:01.016Z</time></trkpt><trkpt lat="42.1924441" lon="13.6928444"><ele>657.0</ele><time>2026-05-03T09:41:02.018Z</time></trkpt><trkpt lat="42.1923804" lon="13.6927242"><ele>657.0</ele><time>2026-05-03T09:41:03.031Z</time></trkpt><trkpt lat="42.1923133" lon="13.692602"><ele>655.75</ele><time>2026-05-03T09:41:04.024Z</time></trkpt><trkpt lat="42.1922514" lon="13.6924748"><ele>654.5</ele><time>2026-05-03T09:41:05.015Z</time></trkpt><trkpt lat="42.1922039" lon="13.6923361"><ele>653.25</ele><time>2026-05-03T09:41:06.021Z</time></trkpt><trkpt lat="42.1921729" lon="13.6921888"><ele>652.0</ele><time>2026-05-03T09:41:07.011Z</time></trkpt><trkpt lat="42.1921586" lon="13.6920355"><ele>652.25</ele><time>2026-05-03T09:41:08.028Z</time></trkpt><trkpt lat="42.1921627" lon="13.6918828"><ele>652.5</ele><time>2026-05-03T09:41:09.017Z</time></trkpt><trkpt lat="42.1921879" lon="13.6917259"><ele>652.75</ele><time>2026-05-03T09:41:10.025Z</time></trkpt><trkpt lat="42.1922261" lon="13.6915634"><ele>653.0</ele><time>2026-05-03T09:41:11.025Z</time></trkpt><trkpt lat="42.1922867" lon="13.6914167"><ele>653.5</ele><time>2026-05-03T09:41:12.029Z</time></trkpt><trkpt lat="42.1923597" lon="13.6912883"><ele>654.0</ele><time>2026-05-03T09:41:13.027Z</time></trkpt><trkpt lat="42.1924466" lon="13.6911786"><ele>654.5</ele><time>2026-05-03T09:41:14.02Z</time></trkpt><trkpt lat="42.1925561" lon="13.691093"><ele>655.0</ele><time>2026-05-03T09:41:15.028Z</time></trkpt><trkpt lat="42.1926722" lon="13.6910184"><ele>655.0</ele><time>2026-05-03T09:41:16.029Z</time></trkpt><trkpt lat="42.1927868" lon="13.6909504"><ele>655.0</ele><time>2026-05-03T09:41:17.02Z</time></trkpt><trkpt lat="42.1928905" lon="13.6908782"><ele>655.0</ele><time>2026-05-03T09:41:18.02Z</time></trkpt><trkpt lat="42.1929841" lon="13.6907921"><ele>655.0</ele><time>2026-05-03T09:41:19.027Z</time></trkpt><trkpt lat="42.1930577" lon="13.6906944"><ele>655.0</ele><time>2026-05-03T09:41:20.016Z</time></trkpt><trkpt lat="42.1931146" lon="13.6905937"><ele>655.0</ele><time>2026-05-03T09:41:21.019Z</time></trkpt><trkpt lat="42.1931444" lon="13.6904795"><ele>655.0</ele><time>2026-05-03T09:41:22.028Z</time></trkpt><trkpt lat="42.1931414" lon="13.6903603"><ele>655.0</ele><time>2026-05-03T09:41:23.013Z</time></trkpt><trkpt lat="42.193109" lon="13.6902448"><ele>655.0</ele><time>2026-05-03T09:41:24.032Z</time></trkpt><trkpt lat="42.1930425" lon="13.6901561"><ele>655.2</ele><time>2026-05-03T09:41:25.01Z</time></trkpt><trkpt lat="42.1929551" lon="13.6901052"><ele>655.4</ele><time>2026-05-03T09:41:26.018Z</time></trkpt><trkpt lat="42.1928546" lon="13.6900757"><ele>655.5999999999999</ele><time>2026-05-03T09:41:27.012Z</time></trkpt><trkpt lat="42.1927457" lon="13.6900365"><ele>655.8</ele><time>2026-05-03T09:41:28.021Z</time></trkpt><trkpt lat="42.1926407" lon="13.6899718"><ele>656.0</ele><time>2026-05-03T09:41:29.023Z</time></trkpt><trkpt lat="42.192539" lon="13.6898852"><ele>656.0</ele><time>2026-05-03T09:41:30.027Z</time></trkpt><trkpt lat="42.1924393" lon="13.689793"><ele>656.0</ele><time>2026-05-03T09:41:31.029Z</time></trkpt><trkpt lat="42.1923358" lon="13.6896951"><ele>656.0</ele><time>2026-05-03T09:41:32.017Z</time></trkpt><trkpt lat="42.1922346" lon="13.6895986"><ele>656.0</ele><time>2026-05-03T09:41:33.023Z</time></trkpt><trkpt lat="42.1921312" lon="13.6895062"><ele>654.5999999999999</ele><time>2026-05-03T09:41:34.015Z</time></trkpt><trkpt lat="42.1920324" lon="13.6894153"><ele>653.2</ele><time>2026-05-03T09:41:35.02Z</time></trkpt><trkpt lat="42.191942" lon="13.6893238"><ele>651.8</ele><time>2026-05-03T09:41:36.023Z</time></trkpt><trkpt lat="42.1918549" lon="13.6892323"><ele>650.4000000000001</ele><time>2026-05-03T09:41:37.007Z</time></trkpt><trkpt lat="42.1917812" lon="13.6891351"><ele>649.0</ele><time>2026-05-03T09:41:38.032Z</time></trkpt><trkpt lat="42.1917233" lon="13.6890238"><ele>649.0</ele><time>2026-05-03T09:41:39.015Z</time></trkpt><trkpt lat="42.1916778" lon="13.688892"><ele>649.0</ele><time>2026-05-03T09:41:40.021Z</time></trkpt><trkpt lat="42.1916451" lon="13.6887533"><ele>649.0</ele><time>2026-05-03T09:41:41.019Z</time></trkpt><trkpt lat="42.1916153" lon="13.6886039"><ele>649.0</ele><time>2026-05-03T09:41:42.012Z</time></trkpt><trkpt lat="42.1915832" lon="13.6884436"><ele>651.5</ele><time>2026-05-03T09:41:43.023Z</time></trkpt><trkpt lat="42.1915457" lon="13.6882869"><ele>654.0</ele><time>2026-05-03T09:41:44.02Z</time></trkpt><trkpt lat="42.191501" lon="13.6881404"><ele>656.5</ele><time>2026-05-03T09:41:45.019Z</time></trkpt><trkpt lat="42.1914489" lon="13.6880074"><ele>659.0</ele><time>2026-05-03T09:41:46.033Z</time></trkpt><trkpt lat="42.191398" lon="13.6878867"><ele>652.4000000000001</ele><time>2026-05-03T09:41:47.013Z</time></trkpt><trkpt lat="42.1913581" lon="13.6877641"><ele>645.8000000000001</ele><time>2026-05-03T09:41:48.025Z</time></trkpt><trkpt lat="42.1913334" lon="13.6876385"><ele>639.2</ele><time>2026-05-03T09:41:49.02Z</time></trkpt><trkpt lat="42.1913254" lon="13.6875009"><ele>632.6</ele><time>2026-05-03T09:41:50.024Z</time></trkpt><trkpt lat="42.191329" lon="13.6873554"><ele>626.0</ele><time>2026-05-03T09:41:51.015Z</time></trkpt><trkpt lat="42.1913451" lon="13.6872082"><ele>626.0</ele><time>2026-05-03T09:41:52.017Z</time></trkpt><trkpt lat="42.1913615" lon="13.6870535"><ele>626.0</ele><time>2026-05-03T09:41:53.013Z</time></trkpt><trkpt lat="42.1913808" lon="13.6868943"><ele>626.0</ele><time>2026-05-03T09:41:54.027Z</time></trkpt><trkpt lat="42.191399" lon="13.686731"><ele>626.0</ele><time>2026-05-03T09:41:55.026Z</time></trkpt><trkpt lat="42.1914168" lon="13.6865685"><ele>624.75</ele><time>2026-05-03T09:41:56.018Z</time></trkpt><trkpt lat="42.1914316" lon="13.6864046"><ele>623.5</ele><time>2026-05-03T09:41:57.026Z</time></trkpt><trkpt lat="42.1914494" lon="13.6862465"><ele>622.25</ele><time>2026-05-03T09:41:58.017Z</time></trkpt><trkpt lat="42.1914648" lon="13.6860926"><ele>621.0</ele><time>2026-05-03T09:41:59.017Z</time></trkpt><trkpt lat="42.1914773" lon="13.6859419"><ele>619.2</ele><time>2026-05-03T09:42:00.029Z</time></trkpt><trkpt lat="42.191498" lon="13.6857998"><ele>617.4000000000001</ele><time>2026-05-03T09:42:01.018Z</time></trkpt><trkpt lat="42.1915249" lon="13.6856646"><ele>615.6</ele><time>2026-05-03T09:42:02.034Z</time></trkpt><trkpt lat="42.1915704" lon="13.685551"><ele>613.8000000000001</ele><time>2026-05-03T09:42:03.019Z</time></trkpt><trkpt lat="42.1916348" lon="13.6854553"><ele>612.0</ele><time>2026-05-03T09:42:04.023Z</time></trkpt><trkpt lat="42.1917159" lon="13.6853833"><ele>618.8</ele><time>2026-05-03T09:42:05.023Z</time></trkpt><trkpt lat="42.1918095" lon="13.6853363"><ele>625.6</ele><time>2026-05-03T09:42:06.026Z</time></trkpt><trkpt lat="42.1919097" lon="13.6853134"><ele>632.4</ele><time>2026-05-03T09:42:07.026Z</time></trkpt><trkpt lat="42.1920033" lon="13.6852896"><ele>639.1999999999999</ele><time>2026-05-03T09:42:08.022Z</time></trkpt><trkpt lat="42.1920836" lon="13.6852533"><ele>646.0</ele><time>2026-05-03T09:42:09.023Z</time></trkpt><trkpt lat="42.1921592" lon="13.6851951"><ele>646.0</ele><time>2026-05-03T09:42:10.043Z</time></trkpt><trkpt lat="42.1922232" lon="13.6851141"><ele>646.0</ele><time>2026-05-03T09:42:11.021Z</time></trkpt><trkpt lat="42.1922764" lon="13.6850121"><ele>646.0</ele><time>2026-05-03T09:42:12.032Z</time></trkpt><trkpt lat="42.1923028" lon="13.684887"><ele>646.0</ele><time>2026-05-03T09:42:13.022Z</time></trkpt><trkpt lat="42.1923108" lon="13.6847488"><ele>646.0</ele><time>2026-05-03T09:42:14.02Z</time></trkpt><trkpt lat="42.1923084" lon="13.6846016"><ele>646.0</ele><time>2026-05-03T09:42:15.019Z</time></trkpt><trkpt lat="42.1922999" lon="13.6844422"><ele>646.0</ele><time>2026-05-03T09:42:16.032Z</time></trkpt><trkpt lat="42.1922894" lon="13.6842739"><ele>646.0</ele><time>2026-05-03T09:42:17.023Z</time></trkpt><trkpt lat="42.1922761" lon="13.6841106"><ele>646.0</ele><time>2026-05-03T09:42:18.034Z</time></trkpt><trkpt lat="42.1922502" lon="13.6839478"><ele>645.5</ele><time>2026-05-03T09:42:19.023Z</time></trkpt><trkpt lat="42.1922191" lon="13.6837962"><ele>645.0</ele><time>2026-05-03T09:42:20.028Z</time></trkpt><trkpt lat="42.1921801" lon="13.6836483"><ele>644.5</ele><time>2026-05-03T09:42:21.025Z</time></trkpt><trkpt lat="42.1921391" lon="13.6835066"><ele>644.0</ele><time>2026-05-03T09:42:22.031Z</time></trkpt><trkpt lat="42.1920935" lon="13.6833695"><ele>645.4000000000001</ele><time>2026-05-03T09:42:23.014Z</time></trkpt><trkpt lat="42.1920466" lon="13.6832414"><ele>646.8</ele><time>2026-05-03T09:42:24.026Z</time></trkpt><trkpt lat="42.1919891" lon="13.6831164"><ele>648.2</ele><time>2026-05-03T09:42:25.029Z</time></trkpt><trkpt lat="42.1919163" lon="13.6829904"><ele>649.5999999999999</ele><time>2026-05-03T09:42:26.027Z</time></trkpt><trkpt lat="42.1918357" lon="13.6828831"><ele>651.0</ele><time>2026-05-03T09:42:27.034Z</time></trkpt><trkpt lat="42.1917397" lon="13.6827932"><ele>649.4</ele><time>2026-05-03T09:42:28.029Z</time></trkpt><trkpt lat="42.191632" lon="13.6827286"><ele>647.8</ele><time>2026-05-03T09:42:29.026Z</time></trkpt><trkpt lat="42.1915276" lon="13.682686"><ele>646.1999999999999</ele><time>2026-05-03T09:42:30.02Z</time></trkpt><trkpt lat="42.1914297" lon="13.682658"><ele>644.5999999999999</ele><time>2026-05-03T09:42:31.016Z</time></trkpt><trkpt lat="42.1913403" lon="13.6826255"><ele>643.0</ele><time>2026-05-03T09:42:32.027Z</time></trkpt><trkpt lat="42.1912618" lon="13.6825808"><ele>643.0</ele><time>2026-05-03T09:42:33.03Z</time></trkpt><trkpt lat="42.1911929" lon="13.6825099"><ele>643.0</ele><time>2026-05-03T09:42:34.025Z</time></trkpt><trkpt lat="42.1911433" lon="13.6824149"><ele>643.0</ele><time>2026-05-03T09:42:35.028Z</time></trkpt><trkpt lat="42.1911233" lon="13.6823036"><ele>643.0</ele><time>2026-05-03T09:42:36.016Z</time></trkpt><trkpt lat="42.1911243" lon="13.6821685"><ele>643.0</ele><time>2026-05-03T09:42:37.02Z</time></trkpt><trkpt lat="42.1911453" lon="13.682024"><ele>642.1999999999999</ele><time>2026-05-03T09:42:38.007Z</time></trkpt><trkpt lat="42.1911678" lon="13.6818816"><ele>641.4</ele><time>2026-05-03T09:42:39.029Z</time></trkpt><trkpt lat="42.1911932" lon="13.6817577"><ele>640.5999999999999</ele><time>2026-05-03T09:42:40.034Z</time></trkpt><trkpt lat="42.1912311" lon="13.681649"><ele>639.8</ele><time>2026-05-03T09:42:41.016Z</time></trkpt><trkpt lat="42.1912877" lon="13.6815577"><ele>639.0</ele><time>2026-05-03T09:42:42.04Z</time></trkpt><trkpt lat="42.191359" lon="13.6814802"><ele>639.0</ele><time>2026-05-03T09:42:43.028Z</time></trkpt><trkpt lat="42.1914421" lon="13.6814226"><ele>639.0</ele><time>2026-05-03T09:42:44.025Z</time></trkpt><trkpt lat="42.1915308" lon="13.6813787"><ele>639.0</ele><time>2026-05-03T09:42:45.019Z</time></trkpt><trkpt lat="42.1916203" lon="13.6813254"><ele>639.0</ele><time>2026-05-03T09:42:46.03Z</time></trkpt><trkpt lat="42.191707" lon="13.6812548"><ele>639.0</ele><time>2026-05-03T09:42:47.013Z</time></trkpt><trkpt lat="42.1917891" lon="13.6811676"><ele>638.0</ele><time>2026-05-03T09:42:48.016Z</time></trkpt><trkpt lat="42.1918653" lon="13.68107"><ele>637.0</ele><time>2026-05-03T09:42:49.026Z</time></trkpt><trkpt lat="42.1919381" lon="13.6809667"><ele>636.0</ele><time>2026-05-03T09:42:50.02Z</time></trkpt><trkpt lat="42.1920103" lon="13.6808588"><ele>635.0</ele><time>2026-05-03T09:42:51.03Z</time></trkpt><trkpt lat="42.1920841" lon="13.6807544"><ele>634.0</ele><time>2026-05-03T09:42:52.014Z</time></trkpt><trkpt lat="42.1921619" lon="13.680647"><ele>634.0</ele><time>2026-05-03T09:42:53.025Z</time></trkpt><trkpt lat="42.192245" lon="13.68055"><ele>634.0</ele><time>2026-05-03T09:42:54.023Z</time></trkpt><trkpt lat="42.1923323" lon="13.6804595"><ele>634.0</ele><time>2026-05-03T09:42:55.018Z</time></trkpt><trkpt lat="42.1924307" lon="13.6803895"><ele>634.0</ele><time>2026-05-03T09:42:56.033Z</time></trkpt><trkpt lat="42.1925256" lon="13.6803356"><ele>634.0</ele><time>2026-05-03T09:42:57.021Z</time></trkpt><trkpt lat="42.1926155" lon="13.6802812"><ele>634.8</ele><time>2026-05-03T09:42:58.013Z</time></trkpt><trkpt lat="42.1926964" lon="13.6802244"><ele>635.5999999999999</ele><time>2026-05-03T09:42:59.022Z</time></trkpt><trkpt lat="42.1927785" lon="13.6801679"><ele>636.4</ele><time>2026-05-03T09:43:00.023Z</time></trkpt><trkpt lat="42.1928556" lon="13.6800864"><ele>637.1999999999999</ele><time>2026-05-03T09:43:01.019Z</time></trkpt><trkpt lat="42.1929212" lon="13.6799904"><ele>638.0</ele><time>2026-05-03T09:43:02.021Z</time></trkpt><trkpt lat="42.1929668" lon="13.6798731"><ele>638.0</ele><time>2026-05-03T09:43:03.027Z</time></trkpt><trkpt lat="42.1929946" lon="13.6797496"><ele>638.0</ele><time>2026-05-03T09:43:04.045Z</time></trkpt><trkpt lat="42.1930281" lon="13.6796287"><ele>638.0</ele><time>2026-05-03T09:43:05.02Z</time></trkpt><trkpt lat="42.1930684" lon="13.6795173"><ele>638.0</ele><time>2026-05-03T09:43:06.021Z</time></trkpt><trkpt lat="42.1931202" lon="13.6794168"><ele>638.0</ele><time>2026-05-03T09:43:07.031Z</time></trkpt><trkpt lat="42.1931731" lon="13.6793099"><ele>640.0</ele><time>2026-05-03T09:43:08.021Z</time></trkpt><trkpt lat="42.1932346" lon="13.6792063"><ele>642.0</ele><time>2026-05-03T09:43:09.034Z</time></trkpt><trkpt lat="42.1932995" lon="13.6790942"><ele>644.0</ele><time>2026-05-03T09:43:10.028Z</time></trkpt><trkpt lat="42.1933749" lon="13.6789853"><ele>646.0</ele><time>2026-05-03T09:43:11.022Z</time></trkpt><trkpt lat="42.1934499" lon="13.6788706"><ele>648.0</ele><time>2026-05-03T09:43:12.021Z</time></trkpt><trkpt lat="42.1935304" lon="13.6787523"><ele>648.0</ele><time>2026-05-03T09:43:13.01Z</time></trkpt><trkpt lat="42.1936117" lon="13.6786295"><ele>648.0</ele><time>2026-05-03T09:43:14.026Z</time></trkpt><trkpt lat="42.1936973" lon="13.678502"><ele>648.0</ele><time>2026-05-03T09:43:15.02Z</time></trkpt><trkpt lat="42.1937848" lon="13.6783695"><ele>648.0</ele><time>2026-05-03T09:43:16.026Z</time></trkpt><trkpt lat="42.1938736" lon="13.6782369"><ele>649.0</ele><time>2026-05-03T09:43:17.02Z</time></trkpt><trkpt lat="42.1939708" lon="13.6781078"><ele>650.0</ele><time>2026-05-03T09:43:18.035Z</time></trkpt><trkpt lat="42.1940582" lon="13.677969"><ele>651.0</ele><time>2026-05-03T09:43:19.029Z</time></trkpt><trkpt lat="42.1941408" lon="13.6778375"><ele>652.0</ele><time>2026-05-03T09:43:20.034Z</time></trkpt><trkpt lat="42.1942207" lon="13.6777239"><ele>649.75</ele><time>2026-05-03T09:43:21.028Z</time></trkpt><trkpt lat="42.194294" lon="13.6776086"><ele>647.5</ele><time>2026-05-03T09:43:22.034Z</time></trkpt><trkpt lat="42.1943669" lon="13.6774981"><ele>645.25</ele><time>2026-05-03T09:43:23.022Z</time></trkpt><trkpt lat="42.1944424" lon="13.6773803"><ele>643.0</ele><time>2026-05-03T09:43:24.036Z</time></trkpt><trkpt lat="42.1945156" lon="13.6772567"><ele>643.0</ele><time>2026-05-03T09:43:25.027Z</time></trkpt><trkpt lat="42.1945911" lon="13.6771314"><ele>643.0</ele><time>2026-05-03T09:43:26.027Z</time></trkpt><trkpt lat="42.1946598" lon="13.6769998"><ele>643.0</ele><time>2026-05-03T09:43:27.026Z</time></trkpt><trkpt lat="42.1947244" lon="13.6768677"><ele>643.0</ele><time>2026-05-03T09:43:28.027Z</time></trkpt><trkpt lat="42.1947859" lon="13.6767356"><ele>644.25</ele><time>2026-05-03T09:43:29.023Z</time></trkpt><trkpt lat="42.1948459" lon="13.6766018"><ele>645.5</ele><time>2026-05-03T09:43:30.039Z</time></trkpt><trkpt lat="42.1949052" lon="13.6764682"><ele>646.75</ele><time>2026-05-03T09:43:31.034Z</time></trkpt><trkpt lat="42.1949683" lon="13.6763357"><ele>648.0</ele><time>2026-05-03T09:43:32.028Z</time></trkpt><trkpt lat="42.1950288" lon="13.6762031"><ele>646.0</ele><time>2026-05-03T09:43:33.023Z</time></trkpt><trkpt lat="42.1950895" lon="13.67607"><ele>644.0</ele><time>2026-05-03T09:43:34.028Z</time></trkpt><trkpt lat="42.1951536" lon="13.6759367"><ele>642.0</ele><time>2026-05-03T09:43:35.02Z</time></trkpt><trkpt lat="42.1952233" lon="13.6758113"><ele>640.0</ele><time>2026-05-03T09:43:36.035Z</time></trkpt><trkpt lat="42.1953036" lon="13.6756975"><ele>640.0</ele><time>2026-05-03T09:43:37.024Z</time></trkpt><trkpt lat="42.1953927" lon="13.6755975"><ele>640.0</ele><time>2026-05-03T09:43:38.025Z</time></trkpt><trkpt lat="42.195488" lon="13.675514"><ele>640.0</ele><time>2026-05-03T09:43:39.028Z</time></trkpt><trkpt lat="42.1955891" lon="13.6754352"><ele>640.0</ele><time>2026-05-03T09:43:40.019Z</time></trkpt><trkpt lat="42.1956918" lon="13.6753583"><ele>639.75</ele><time>2026-05-03T09:43:41.033Z</time></trkpt><trkpt lat="42.195791" lon="13.6752761"><ele>639.5</ele><time>2026-05-03T09:43:42.024Z</time></trkpt><trkpt lat="42.1958881" lon="13.675187"><ele>639.25</ele><time>2026-05-03T09:43:43.019Z</time></trkpt><trkpt lat="42.1959812" lon="13.6750917"><ele>639.0</ele><time>2026-05-03T09:43:44.025Z</time></trkpt><trkpt lat="42.1960683" lon="13.6749863"><ele>639.0</ele><time>2026-05-03T09:43:45.019Z</time></trkpt><trkpt lat="42.1961532" lon="13.6748826"><ele>639.0</ele><time>2026-05-03T09:43:46.026Z</time></trkpt><trkpt lat="42.1962336" lon="13.674766"><ele>639.0</ele><time>2026-05-03T09:43:47.022Z</time></trkpt><trkpt lat="42.196308" lon="13.6746452"><ele>639.0</ele><time>2026-05-03T09:43:48.033Z</time></trkpt><trkpt lat="42.1963783" lon="13.6745191"><ele>638.25</ele><time>2026-05-03T09:43:49.023Z</time></trkpt><trkpt lat="42.1964494" lon="13.6743924"><ele>637.5</ele><time>2026-05-03T09:43:50.02Z</time></trkpt><trkpt lat="42.1965233" lon="13.6742698"><ele>636.75</ele><time>2026-05-03T09:43:51.024Z</time></trkpt><trkpt lat="42.1965973" lon="13.6741493"><ele>636.0</ele><time>2026-05-03T09:43:52.038Z</time></trkpt><trkpt lat="42.1966747" lon="13.6740323"><ele>636.0</ele><time>2026-05-03T09:43:53.027Z</time></trkpt><trkpt lat="42.1967476" lon="13.67391"><ele>636.0</ele><time>2026-05-03T09:43:54.021Z</time></trkpt><trkpt lat="42.1968198" lon="13.6737846"><ele>636.0</ele><time>2026-05-03T09:43:55.041Z</time></trkpt><trkpt lat="42.1968926" lon="13.6736589"><ele>636.0</ele><time>2026-05-03T09:43:56.029Z</time></trkpt><trkpt lat="42.1969628" lon="13.6735349"><ele>633.75</ele><time>2026-05-03T09:43:57.022Z</time></trkpt><trkpt lat="42.1970307" lon="13.6734044"><ele>631.5</ele><time>2026-05-03T09:43:58.025Z</time></trkpt><trkpt lat="42.1970906" lon="13.67327"><ele>629.25</ele><time>2026-05-03T09:43:59.031Z</time></trkpt><trkpt lat="42.1971433" lon="13.6731266"><ele>627.0</ele><time>2026-05-03T09:44:00.024Z</time></trkpt><trkpt lat="42.1971871" lon="13.6729806"><ele>627.0</ele><time>2026-05-03T09:44:01.034Z</time></trkpt><trkpt lat="42.19723" lon="13.6728356"><ele>627.0</ele><time>2026-05-03T09:44:02.025Z</time></trkpt><trkpt lat="42.1972774" lon="13.6727059"><ele>627.0</ele><time>2026-05-03T09:44:03.019Z</time></trkpt><trkpt lat="42.1973361" lon="13.6725934"><ele>627.0</ele><time>2026-05-03T09:44:04.027Z</time></trkpt><trkpt lat="42.1974109" lon="13.6724943"><ele>627.0</ele><time>2026-05-03T09:44:05.033Z</time></trkpt><trkpt lat="42.1975005" lon="13.6724097"><ele>627.8000000000001</ele><time>2026-05-03T09:44:06.025Z</time></trkpt><trkpt lat="42.1976043" lon="13.672352"><ele>628.6</ele><time>2026-05-03T09:44:07.021Z</time></trkpt><trkpt lat="42.1977142" lon="13.6723152"><ele>629.4000000000001</ele><time>2026-05-03T09:44:08.023Z</time></trkpt><trkpt lat="42.1978271" lon="13.6723131"><ele>630.2</ele><time>2026-05-03T09:44:09.027Z</time></trkpt><trkpt lat="42.1979318" lon="13.6723528"><ele>631.0</ele><time>2026-05-03T09:44:10.03Z</time></trkpt><trkpt lat="42.1980302" lon="13.6724073"><ele>631.0</ele><time>2026-05-03T09:44:11.033Z</time></trkpt><trkpt lat="42.1981262" lon="13.6724589"><ele>631.0</ele><time>2026-05-03T09:44:12.021Z</time></trkpt><trkpt lat="42.1982253" lon="13.6724868"><ele>631.0</ele><time>2026-05-03T09:44:13.015Z</time></trkpt><trkpt lat="42.1983264" lon="13.6724988"><ele>631.0</ele><time>2026-05-03T09:44:14.022Z</time></trkpt><trkpt lat="42.1984207" lon="13.6725003"><ele>631.0</ele><time>2026-05-03T09:44:15.021Z</time></trkpt><trkpt lat="42.1985092" lon="13.6724869"><ele>632.2</ele><time>2026-05-03T09:44:16.016Z</time></trkpt><trkpt lat="42.1985927" lon="13.6724465"><ele>633.4000000000001</ele><time>2026-05-03T09:44:17.023Z</time></trkpt><trkpt lat="42.1986654" lon="13.6723742"><ele>634.6</ele><time>2026-05-03T09:44:18.025Z</time></trkpt><trkpt lat="42.1987188" lon="13.6722851"><ele>635.8000000000001</ele><time>2026-05-03T09:44:19.026Z</time></trkpt><trkpt lat="42.1987402" lon="13.6721658"><ele>637.0</ele><time>2026-05-03T09:44:20.016Z</time></trkpt><trkpt lat="42.198733" lon="13.6720351"><ele>633.8000000000001</ele><time>2026-05-03T09:44:21.024Z</time></trkpt><trkpt lat="42.1987155" lon="13.6719014"><ele>630.6</ele><time>2026-05-03T09:44:22.021Z</time></trkpt><trkpt lat="42.1987077" lon="13.6717587"><ele>627.4000000000001</ele><time>2026-05-03T09:44:23.019Z</time></trkpt><trkpt lat="42.1987282" lon="13.6716198"><ele>624.2</ele><time>2026-05-03T09:44:24.032Z</time></trkpt><trkpt lat="42.1987615" lon="13.6714828"><ele>621.0</ele><time>2026-05-03T09:44:25.02Z</time></trkpt><trkpt lat="42.1988089" lon="13.671352"><ele>621.0</ele><time>2026-05-03T09:44:26.026Z</time></trkpt><trkpt lat="42.1988715" lon="13.671231"><ele>621.0</ele><time>2026-05-03T09:44:27.021Z</time></trkpt><trkpt lat="42.1989514" lon="13.6711229"><ele>621.0</ele><time>2026-05-03T09:44:28.025Z</time></trkpt><trkpt lat="42.1990416" lon="13.6710276"><ele>621.0</ele><time>2026-05-03T09:44:29.033Z</time></trkpt><trkpt lat="42.1991299" lon="13.6709355"><ele>621.0</ele><time>2026-05-03T09:44:30.021Z</time></trkpt><trkpt lat="42.1992081" lon="13.6708219"><ele>620.8</ele><time>2026-05-03T09:44:31.016Z</time></trkpt><trkpt lat="42.199269" lon="13.6706879"><ele>620.6</ele><time>2026-05-03T09:44:32.027Z</time></trkpt><trkpt lat="42.1993142" lon="13.6705532"><ele>620.4</ele><time>2026-05-03T09:44:33.02Z</time></trkpt><trkpt lat="42.1993573" lon="13.6704182"><ele>620.2</ele><time>2026-05-03T09:44:34.021Z</time></trkpt><trkpt lat="42.1994032" lon="13.6702845"><ele>620.0</ele><time>2026-05-03T09:44:35.014Z</time></trkpt><trkpt lat="42.1994548" lon="13.6701545"><ele>620.0</ele><time>2026-05-03T09:44:36.025Z</time></trkpt><trkpt lat="42.1995148" lon="13.6700332"><ele>620.0</ele><time>2026-05-03T09:44:37.021Z</time></trkpt><trkpt lat="42.1995848" lon="13.6699192"><ele>620.0</ele><time>2026-05-03T09:44:38.029Z</time></trkpt><trkpt lat="42.1996621" lon="13.6698177"><ele>620.0</ele><time>2026-05-03T09:44:39.008Z</time></trkpt><trkpt lat="42.1997415" lon="13.6697197"><ele>620.0</ele><time>2026-05-03T09:44:40.034Z</time></trkpt><trkpt lat="42.1998207" lon="13.6696209"><ele>622.0</ele><time>2026-05-03T09:44:41.021Z</time></trkpt><trkpt lat="42.1999014" lon="13.6695294"><ele>624.0</ele><time>2026-05-03T09:44:42.027Z</time></trkpt><trkpt lat="42.1999828" lon="13.6694437"><ele>626.0</ele><time>2026-05-03T09:44:43.018Z</time></trkpt><trkpt lat="42.2000603" lon="13.6693556"><ele>628.0</ele><time>2026-05-03T09:44:44.02Z</time></trkpt><trkpt lat="42.2001361" lon="13.6692661"><ele>630.0</ele><time>2026-05-03T09:44:45.015Z</time></trkpt><trkpt lat="42.2002089" lon="13.6691707"><ele>630.0</ele><time>2026-05-03T09:44:46.015Z</time></trkpt><trkpt lat="42.2002696" lon="13.6690629"><ele>630.0</ele><time>2026-05-03T09:44:47.02Z</time></trkpt><trkpt lat="42.2003215" lon="13.6689463"><ele>630.0</ele><time>2026-05-03T09:44:48.027Z</time></trkpt><trkpt lat="42.2003633" lon="13.6688272"><ele>630.0</ele><time>2026-05-03T09:44:49.024Z</time></trkpt><trkpt lat="42.200403" lon="13.6687079"><ele>630.0</ele><time>2026-05-03T09:44:50.022Z</time></trkpt><trkpt lat="42.200441" lon="13.6685858"><ele>630.6666666666666</ele><time>2026-05-03T09:44:51.028Z</time></trkpt><trkpt lat="42.2004796" lon="13.6684827"><ele>631.3333333333334</ele><time>2026-05-03T09:44:52.031Z</time></trkpt><trkpt lat="42.2005202" lon="13.6683837"><ele>632.0</ele><time>2026-05-03T09:44:53.014Z</time></trkpt><trkpt lat="42.2005598" lon="13.6682857"><ele>632.6666666666667</ele><time>2026-05-03T09:44:54.032Z</time></trkpt><trkpt lat="42.2006057" lon="13.6681882"><ele>633.3333333333334</ele><time>2026-05-03T09:44:55.021Z</time></trkpt><trkpt lat="42.2006598" lon="13.6681061"><ele>634.0</ele><time>2026-05-03T09:44:56.031Z</time></trkpt><trkpt lat="42.2007243" lon="13.6680293"><ele>634.0</ele><time>2026-05-03T09:44:57.019Z</time></trkpt><trkpt lat="42.2007902" lon="13.6679683"><ele>634.0</ele><time>2026-05-03T09:44:58.035Z</time></trkpt><trkpt lat="42.2008633" lon="13.6679203"><ele>634.0</ele><time>2026-05-03T09:44:59.026Z</time></trkpt><trkpt lat="42.2009384" lon="13.6678848"><ele>634.0</ele><time>2026-05-03T09:45:00.028Z</time></trkpt><trkpt lat="42.20102" lon="13.6678558"><ele>634.0</ele><time>2026-05-03T09:45:01.02Z</time></trkpt><trkpt lat="42.2011024" lon="13.6678341"><ele>634.0</ele><time>2026-05-03T09:45:02.026Z</time></trkpt><trkpt lat="42.2011884" lon="13.6678162"><ele>634.0</ele><time>2026-05-03T09:45:03.029Z</time></trkpt><trkpt lat="42.2012778" lon="13.6677923"><ele>634.0</ele><time>2026-05-03T09:45:04.018Z</time></trkpt><trkpt lat="42.2013668" lon="13.6677626"><ele>634.0</ele><time>2026-05-03T09:45:05.01Z</time></trkpt><trkpt lat="42.2014545" lon="13.6677334"><ele>634.0</ele><time>2026-05-03T09:45:06.027Z</time></trkpt><trkpt lat="42.2015394" lon="13.6677038"><ele>634.0</ele><time>2026-05-03T09:45:07.025Z</time></trkpt><trkpt lat="42.2016241" lon="13.6676818"><ele>634.0</ele><time>2026-05-03T09:45:08.027Z</time></trkpt><trkpt lat="42.2017046" lon="13.6676557"><ele>632.6666666666667</ele><time>2026-05-03T09:45:09.024Z</time></trkpt><trkpt lat="42.2017823" lon="13.6676192"><ele>631.3333333333334</ele><time>2026-05-03T09:45:10.024Z</time></trkpt><trkpt lat="42.2018624" lon="13.66758"><ele>630.0</ele><time>2026-05-03T09:45:11.03Z</time></trkpt><trkpt lat="42.2019457" lon="13.6675391"><ele>628.6666666666666</ele><time>2026-05-03T09:45:12.02Z</time></trkpt><trkpt lat="42.202028" lon="13.6674962"><ele>627.3333333333333</ele><time>2026-05-03T09:45:13.019Z</time></trkpt><trkpt lat="42.2021115" lon="13.6674526"><ele>626.0</ele><time>2026-05-03T09:45:14.027Z</time></trkpt><trkpt lat="42.2021901" lon="13.6674068"><ele>626.0</ele><time>2026-05-03T09:45:15.018Z</time></trkpt><trkpt lat="42.2022664" lon="13.6673555"><ele>626.0</ele><time>2026-05-03T09:45:16.028Z</time></trkpt><trkpt lat="42.202341" lon="13.6672942"><ele>626.0</ele><time>2026-05-03T09:45:17.017Z</time></trkpt><trkpt lat="42.2024114" lon="13.6672151"><ele>626.0</ele><time>2026-05-03T09:45:18.037Z</time></trkpt><trkpt lat="42.2024732" lon="13.6671208"><ele>626.0</ele><time>2026-05-03T09:45:19.023Z</time></trkpt><trkpt lat="42.2025334" lon="13.6670208"><ele>625.0</ele><time>2026-05-03T09:45:20.023Z</time></trkpt><trkpt lat="42.2025878" lon="13.6669188"><ele>624.0</ele><time>2026-05-03T09:45:21.024Z</time></trkpt><trkpt lat="42.2026342" lon="13.6668188"><ele>623.0</ele><time>2026-05-03T09:45:22.031Z</time></trkpt><trkpt lat="42.2026818" lon="13.6667277"><ele>622.0</ele><time>2026-05-03T09:45:23.019Z</time></trkpt><trkpt lat="42.2027388" lon="13.6666485"><ele>621.0</ele><time>2026-05-03T09:45:24.03Z</time></trkpt><trkpt lat="42.2028036" lon="13.6665855"><ele>620.0</ele><time>2026-05-03T09:45:25.029Z</time></trkpt><trkpt lat="42.2028723" lon="13.6665207"><ele>620.0</ele><time>2026-05-03T09:45:26.024Z</time></trkpt><trkpt lat="42.2029402" lon="13.6664491"><ele>620.0</ele><time>2026-05-03T09:45:27.029Z</time></trkpt><trkpt lat="42.2029978" lon="13.6663648"><ele>620.0</ele><time>2026-05-03T09:45:28.027Z</time></trkpt><trkpt lat="42.203052" lon="13.6662742"><ele>620.0</ele><time>2026-05-03T09:45:29.025Z</time></trkpt><trkpt lat="42.2031083" lon="13.6661813"><ele>620.0</ele><time>2026-05-03T09:45:30.035Z</time></trkpt><trkpt lat="42.2031659" lon="13.6660928"><ele>620.0</ele><time>2026-05-03T09:45:31.024Z</time></trkpt><trkpt lat="42.2032268" lon="13.6660055"><ele>620.6</ele><time>2026-05-03T09:45:32.014Z</time></trkpt><trkpt lat="42.2032908" lon="13.6659211"><ele>621.2</ele><time>2026-05-03T09:45:33Z</time></trkpt><trkpt lat="42.2033583" lon="13.6658455"><ele>621.8</ele><time>2026-05-03T09:45:34.02Z</time></trkpt><trkpt lat="42.2034273" lon="13.6657645"><ele>622.4</ele><time>2026-05-03T09:45:35.012Z</time></trkpt><trkpt lat="42.203498" lon="13.6656855"><ele>623.0</ele><time>2026-05-03T09:45:36.018Z</time></trkpt><trkpt lat="42.2035661" lon="13.665601"><ele>623.0</ele><time>2026-05-03T09:45:37.016Z</time></trkpt><trkpt lat="42.2036392" lon="13.6655115"><ele>623.0</ele><time>2026-05-03T09:45:38.02Z</time></trkpt><trkpt lat="42.2037128" lon="13.6654233"><ele>623.0</ele><time>2026-05-03T09:45:39.019Z</time></trkpt><trkpt lat="42.2037838" lon="13.6653318"><ele>623.0</ele><time>2026-05-03T09:45:40.015Z</time></trkpt><trkpt lat="42.2038586" lon="13.6652454"><ele>623.0</ele><time>2026-05-03T09:45:41.024Z</time></trkpt><trkpt lat="42.2039302" lon="13.6651585"><ele>623.6</ele><time>2026-05-03T09:45:42.014Z</time></trkpt><trkpt lat="42.2040009" lon="13.6650706"><ele>624.1999999999999</ele><time>2026-05-03T09:45:43.019Z</time></trkpt><trkpt lat="42.2040743" lon="13.6649842"><ele>624.8</ele><time>2026-05-03T09:45:44.018Z</time></trkpt><trkpt lat="42.2041474" lon="13.6648919"><ele>625.4</ele><time>2026-05-03T09:45:45.022Z</time></trkpt><trkpt lat="42.2042212" lon="13.6647983"><ele>626.0</ele><time>2026-05-03T09:45:46.024Z</time></trkpt><trkpt lat="42.2042965" lon="13.6647021"><ele>626.0</ele><time>2026-05-03T09:45:47.011Z</time></trkpt><trkpt lat="42.2043711" lon="13.6646018"><ele>626.0</ele><time>2026-05-03T09:45:48.014Z</time></trkpt><trkpt lat="42.204447" lon="13.6644991"><ele>626.0</ele><time>2026-05-03T09:45:49.019Z</time></trkpt><trkpt lat="42.2045241" lon="13.6644001"><ele>626.0</ele><time>2026-05-03T09:45:50.016Z</time></trkpt><trkpt lat="42.2046018" lon="13.6642926"><ele>626.0</ele><time>2026-05-03T09:45:51.02Z</time></trkpt><trkpt lat="42.2046809" lon="13.6641958"><ele>625.6</ele><time>2026-05-03T09:45:52.022Z</time></trkpt><trkpt lat="42.204756" lon="13.6640953"><ele>625.2</ele><time>2026-05-03T09:45:53.021Z</time></trkpt><trkpt lat="42.204836" lon="13.6640019"><ele>624.8</ele><time>2026-05-03T09:45:54.019Z</time></trkpt><trkpt lat="42.2049152" lon="13.6639071"><ele>624.4</ele><time>2026-05-03T09:45:55.023Z</time></trkpt><trkpt lat="42.2049851" lon="13.663805"><ele>624.0</ele><time>2026-05-03T09:45:56.024Z</time></trkpt><trkpt lat="42.2050582" lon="13.6637004"><ele>621.4</ele><time>2026-05-03T09:45:57.01Z</time></trkpt><trkpt lat="42.2051198" lon="13.6635857"><ele>618.8</ele><time>2026-05-03T09:45:58.026Z</time></trkpt><trkpt lat="42.2051727" lon="13.6634676"><ele>616.2</ele><time>2026-05-03T09:45:59.021Z</time></trkpt><trkpt lat="42.205224" lon="13.6633443"><ele>613.6</ele><time>2026-05-03T09:46:00.022Z</time></trkpt><trkpt lat="42.2052734" lon="13.6632225"><ele>611.0</ele><time>2026-05-03T09:46:01.021Z</time></trkpt><trkpt lat="42.2053341" lon="13.663106"><ele>611.0</ele><time>2026-05-03T09:46:02.015Z</time></trkpt><trkpt lat="42.2054047" lon="13.6629996"><ele>611.0</ele><time>2026-05-03T09:46:03.009Z</time></trkpt><trkpt lat="42.2054865" lon="13.662905"><ele>611.0</ele><time>2026-05-03T09:46:04.018Z</time></trkpt><trkpt lat="42.2055718" lon="13.6628204"><ele>611.0</ele><time>2026-05-03T09:46:05.014Z</time></trkpt><trkpt lat="42.2056617" lon="13.662741"><ele>611.0</ele><time>2026-05-03T09:46:06.016Z</time></trkpt><trkpt lat="42.2057594" lon="13.6626725"><ele>610.6</ele><time>2026-05-03T09:46:07.017Z</time></trkpt><trkpt lat="42.2058561" lon="13.6626049"><ele>610.2</ele><time>2026-05-03T09:46:08.022Z</time></trkpt><trkpt lat="42.2059544" lon="13.6625414"><ele>609.8</ele><time>2026-05-03T09:46:09.015Z</time></trkpt><trkpt lat="42.2060541" lon="13.6624925"><ele>609.4</ele><time>2026-05-03T09:46:10.01Z</time></trkpt><trkpt lat="42.2061525" lon="13.6624545"><ele>609.0</ele><time>2026-05-03T09:46:11.018Z</time></trkpt><trkpt lat="42.2062445" lon="13.662437"><ele>609.0</ele><time>2026-05-03T09:46:12.025Z</time></trkpt><trkpt lat="42.2063363" lon="13.6624265"><ele>609.0</ele><time>2026-05-03T09:46:13.012Z</time></trkpt><trkpt lat="42.2064222" lon="13.6624292"><ele>609.0</ele><time>2026-05-03T09:46:14.029Z</time></trkpt><trkpt lat="42.2065059" lon="13.6624365"><ele>609.0</ele><time>2026-05-03T09:46:15.014Z</time></trkpt><trkpt lat="42.2065884" lon="13.6624295"><ele>609.0</ele><time>2026-05-03T09:46:16.024Z</time></trkpt><trkpt lat="42.2066634" lon="13.6624028"><ele>609.0</ele><time>2026-05-03T09:46:17.014Z</time></trkpt><trkpt lat="42.2067204" lon="13.6623374"><ele>609.4</ele><time>2026-05-03T09:46:18.015Z</time></trkpt><trkpt lat="42.206751" lon="13.6622424"><ele>609.8</ele><time>2026-05-03T09:46:19.019Z</time></trkpt><trkpt lat="42.2067576" lon="13.6621275"><ele>610.2</ele><time>2026-05-03T09:46:20.013Z</time></trkpt><trkpt lat="42.2067465" lon="13.6619965"><ele>610.6</ele><time>2026-05-03T09:46:21Z</time></trkpt><trkpt lat="42.2067228" lon="13.6618598"><ele>611.0</ele><time>2026-05-03T09:46:22.019Z</time></trkpt><trkpt lat="42.2067061" lon="13.6617306"><ele>611.0</ele><time>2026-05-03T09:46:23.013Z</time></trkpt><trkpt lat="42.2066929" lon="13.6616024"><ele>611.0</ele><time>2026-05-03T09:46:24.021Z</time></trkpt><trkpt lat="42.206684" lon="13.6614678"><ele>611.0</ele><time>2026-05-03T09:46:25.014Z</time></trkpt><trkpt lat="42.2066816" lon="13.6613321"><ele>611.0</ele><time>2026-05-03T09:46:26.022Z</time></trkpt><trkpt lat="42.2066884" lon="13.6611951"><ele>611.0</ele><time>2026-05-03T09:46:27.026Z</time></trkpt><trkpt lat="42.2067019" lon="13.6610599"><ele>609.8</ele><time>2026-05-03T09:46:28.025Z</time></trkpt><trkpt lat="42.2067305" lon="13.6609321"><ele>608.6</ele><time>2026-05-03T09:46:29.017Z</time></trkpt><trkpt lat="42.2067798" lon="13.6608151"><ele>607.4</ele><time>2026-05-03T09:46:30.025Z</time></trkpt><trkpt lat="42.2068452" lon="13.6607118"><ele>606.2</ele><time>2026-05-03T09:46:31.023Z</time></trkpt><trkpt lat="42.2069174" lon="13.660611"><ele>605.0</ele><time>2026-05-03T09:46:32.021Z</time></trkpt><trkpt lat="42.2069883" lon="13.6605076"><ele>605.0</ele><time>2026-05-03T09:46:33.025Z</time></trkpt><trkpt lat="42.2070527" lon="13.6603872"><ele>605.0</ele><time>2026-05-03T09:46:34.029Z</time></trkpt><trkpt lat="42.2071154" lon="13.6602688"><ele>605.0</ele><time>2026-05-03T09:46:35.024Z</time></trkpt><trkpt lat="42.2071771" lon="13.6601487"><ele>605.0</ele><time>2026-05-03T09:46:36.037Z</time></trkpt><trkpt lat="42.2072313" lon="13.6600259"><ele>605.0</ele><time>2026-05-03T09:46:37.019Z</time></trkpt><trkpt lat="42.2072784" lon="13.6599094"><ele>605.6</ele><time>2026-05-03T09:46:38.024Z</time></trkpt><trkpt lat="42.2073132" lon="13.6597924"><ele>606.2</ele><time>2026-05-03T09:46:39.026Z</time></trkpt><trkpt lat="42.2073519" lon="13.6596675"><ele>606.8</ele><time>2026-05-03T09:46:40.022Z</time></trkpt><trkpt lat="42.2073946" lon="13.6595482"><ele>607.4</ele><time>2026-05-03T09:46:41.019Z</time></trkpt><trkpt lat="42.2074515" lon="13.659433"><ele>608.0</ele><time>2026-05-03T09:46:42.023Z</time></trkpt><trkpt lat="42.2075143" lon="13.6593199"><ele>608.0</ele><time>2026-05-03T09:46:43.028Z</time></trkpt><trkpt lat="42.2075772" lon="13.6591985"><ele>608.0</ele><time>2026-05-03T09:46:44.018Z</time></trkpt><trkpt lat="42.2076393" lon="13.659081"><ele>608.0</ele><time>2026-05-03T09:46:45.014Z</time></trkpt><trkpt lat="42.2076991" lon="13.6589627"><ele>608.0</ele><time>2026-05-03T09:46:46.026Z</time></trkpt><trkpt lat="42.2077512" lon="13.6588506"><ele>608.0</ele><time>2026-05-03T09:46:47.006Z</time></trkpt><trkpt lat="42.2078094" lon="13.6587482"><ele>608.0</ele><time>2026-05-03T09:46:48.022Z</time></trkpt><trkpt lat="42.2078606" lon="13.6586421"><ele>608.0</ele><time>2026-05-03T09:46:49.02Z</time></trkpt><trkpt lat="42.2079084" lon="13.6585336"><ele>608.0</ele><time>2026-05-03T09:46:50.026Z</time></trkpt><trkpt lat="42.2079559" lon="13.6584211"><ele>608.0</ele><time>2026-05-03T09:46:51.018Z</time></trkpt><trkpt lat="42.2079958" lon="13.6582994"><ele>608.0</ele><time>2026-05-03T09:46:52.026Z</time></trkpt><trkpt lat="42.2080361" lon="13.658181"><ele>609.1666666666666</ele><time>2026-05-03T09:46:53.025Z</time></trkpt><trkpt lat="42.2080823" lon="13.6580722"><ele>610.3333333333333</ele><time>2026-05-03T09:46:54.015Z</time></trkpt><trkpt lat="42.2081339" lon="13.6579771"><ele>611.5</ele><time>2026-05-03T09:46:55.025Z</time></trkpt><trkpt lat="42.2081748" lon="13.6578957"><ele>612.6666666666666</ele><time>2026-05-03T09:46:56.027Z</time></trkpt><trkpt lat="42.208228" lon="13.6577769"><ele>613.8333333333334</ele><time>2026-05-03T09:46:58.025Z</time></trkpt><trkpt lat="42.2082288" lon="13.657677"><ele>615.0</ele><time>2026-05-03T09:47:00.027Z</time></trkpt><trkpt lat="42.2081713" lon="13.657627"><ele>610.6</ele><time>2026-05-03T09:47:02.027Z</time></trkpt><trkpt lat="42.2080855" lon="13.657694"><ele>606.2</ele><time>2026-05-03T09:47:04.025Z</time></trkpt><trkpt lat="42.2080403" lon="13.6577724"><ele>601.8</ele><time>2026-05-03T09:47:05.018Z</time></trkpt><trkpt lat="42.2079878" lon="13.6578648"><ele>597.4</ele><time>2026-05-03T09:47:06.011Z</time></trkpt><trkpt lat="42.2079286" lon="13.6579725"><ele>593.0</ele><time>2026-05-03T09:47:07.019Z</time></trkpt><trkpt lat="42.2078682" lon="13.6580844"><ele>593.0</ele><time>2026-05-03T09:47:08.022Z</time></trkpt><trkpt lat="42.2078014" lon="13.6581885"><ele>593.0</ele><time>2026-05-03T09:47:09.014Z</time></trkpt><trkpt lat="42.2077302" lon="13.6582862"><ele>593.0</ele><time>2026-05-03T09:47:10.018Z</time></trkpt><trkpt lat="42.2076516" lon="13.6583732"><ele>593.0</ele><time>2026-05-03T09:47:11.019Z</time></trkpt><trkpt lat="42.2075601" lon="13.6584492"><ele>593.0</ele><time>2026-05-03T09:47:12.017Z</time></trkpt><trkpt lat="42.2074641" lon="13.658522"><ele>593.0</ele><time>2026-05-03T09:47:13.012Z</time></trkpt><trkpt lat="42.207372" lon="13.6585936"><ele>593.0</ele><time>2026-05-03T09:47:14.017Z</time></trkpt><trkpt lat="42.207279" lon="13.65867"><ele>593.0</ele><time>2026-05-03T09:47:15.016Z</time></trkpt><trkpt lat="42.2071823" lon="13.6587509"><ele>593.0</ele><time>2026-05-03T09:47:16.031Z</time></trkpt><trkpt lat="42.2070816" lon="13.658836"><ele>593.0</ele><time>2026-05-03T09:47:17.021Z</time></trkpt><trkpt lat="42.2069792" lon="13.6589197"><ele>591.5</ele><time>2026-05-03T09:47:18.018Z</time></trkpt><trkpt lat="42.2068773" lon="13.6589996"><ele>590.0</ele><time>2026-05-03T09:47:19.009Z</time></trkpt><trkpt lat="42.2067795" lon="13.6590782"><ele>588.5</ele><time>2026-05-03T09:47:20.016Z</time></trkpt><trkpt lat="42.2066821" lon="13.659152"><ele>587.0</ele><time>2026-05-03T09:47:21.028Z</time></trkpt><trkpt lat="42.2065864" lon="13.6592198"><ele>585.8000000000001</ele><time>2026-05-03T09:47:22.016Z</time></trkpt><trkpt lat="42.2064921" lon="13.6592897"><ele>584.6</ele><time>2026-05-03T09:47:23.016Z</time></trkpt><trkpt lat="42.206398" lon="13.6593676"><ele>583.4000000000001</ele><time>2026-05-03T09:47:24.018Z</time></trkpt><trkpt lat="42.2063007" lon="13.6594467"><ele>582.2</ele><time>2026-05-03T09:47:25.011Z</time></trkpt><trkpt lat="42.2062026" lon="13.659526"><ele>581.0</ele><time>2026-05-03T09:47:26.024Z</time></trkpt><trkpt lat="42.2061048" lon="13.6595999"><ele>581.0</ele><time>2026-05-03T09:47:27.016Z</time></trkpt><trkpt lat="42.2060205" lon="13.6596698"><ele>581.0</ele><time>2026-05-03T09:47:28.019Z</time></trkpt><trkpt lat="42.2059426" lon="13.6597475"><ele>581.0</ele><time>2026-05-03T09:47:29.014Z</time></trkpt><trkpt lat="42.2058824" lon="13.6598354"><ele>581.0</ele><time>2026-05-03T09:47:30.014Z</time></trkpt><trkpt lat="42.2058359" lon="13.659945"><ele>581.0</ele><time>2026-05-03T09:47:31.023Z</time></trkpt><trkpt lat="42.2057966" lon="13.6600662"><ele>581.0</ele><time>2026-05-03T09:47:32.021Z</time></trkpt><trkpt lat="42.20577" lon="13.6601834"><ele>581.0</ele><time>2026-05-03T09:47:33.004Z</time></trkpt><trkpt lat="42.2057464" lon="13.6602837"><ele>581.0</ele><time>2026-05-03T09:47:34.021Z</time></trkpt><trkpt lat="42.2056839" lon="13.6603937"><ele>581.0</ele><time>2026-05-03T09:47:36.021Z</time></trkpt><trkpt lat="42.2055892" lon="13.6603796"><ele>581.0</ele><time>2026-05-03T09:47:38.019Z</time></trkpt><trkpt lat="42.2055501" lon="13.6603121"><ele>581.0</ele><time>2026-05-03T09:47:39.016Z</time></trkpt><trkpt lat="42.2055366" lon="13.6602142"><ele>577.8</ele><time>2026-05-03T09:47:40.021Z</time></trkpt><trkpt lat="42.2055318" lon="13.6600925"><ele>574.6</ele><time>2026-05-03T09:47:41.02Z</time></trkpt><trkpt lat="42.205534" lon="13.6599619"><ele>571.4</ele><time>2026-05-03T09:47:42.024Z</time></trkpt><trkpt lat="42.2055342" lon="13.6598289"><ele>568.2</ele><time>2026-05-03T09:47:43.014Z</time></trkpt><trkpt lat="42.205549" lon="13.6596973"><ele>565.0</ele><time>2026-05-03T09:47:44.018Z</time></trkpt><trkpt lat="42.2055842" lon="13.659566"><ele>567.0</ele><time>2026-05-03T09:47:45.011Z</time></trkpt><trkpt lat="42.2056444" lon="13.6594456"><ele>569.0</ele><time>2026-05-03T09:47:46.02Z</time></trkpt><trkpt lat="42.2057187" lon="13.6593282"><ele>571.0</ele><time>2026-05-03T09:47:47.014Z</time></trkpt><trkpt lat="42.2057964" lon="13.6592063"><ele>573.0</ele><time>2026-05-03T09:47:48.016Z</time></trkpt><trkpt lat="42.205873" lon="13.6590781"><ele>573.0</ele><time>2026-05-03T09:47:49.03Z</time></trkpt><trkpt lat="42.2059463" lon="13.6589455"><ele>573.0</ele><time>2026-05-03T09:47:50.015Z</time></trkpt><trkpt lat="42.2060188" lon="13.6588132"><ele>573.0</ele><time>2026-05-03T09:47:51.017Z</time></trkpt><trkpt lat="42.2060936" lon="13.6586863"><ele>573.0</ele><time>2026-05-03T09:47:52.019Z</time></trkpt><trkpt lat="42.2061645" lon="13.6585592"><ele>570.6</ele><time>2026-05-03T09:47:53.022Z</time></trkpt><trkpt lat="42.2062312" lon="13.6584396"><ele>568.1999999999999</ele><time>2026-05-03T09:47:54.033Z</time></trkpt><trkpt lat="42.2062958" lon="13.6583221"><ele>565.8</ele><time>2026-05-03T09:47:55.014Z</time></trkpt><trkpt lat="42.2063557" lon="13.6582062"><ele>563.4</ele><time>2026-05-03T09:47:56.023Z</time></trkpt><trkpt lat="42.2064137" lon="13.658097"><ele>561.0</ele><time>2026-05-03T09:47:57.011Z</time></trkpt><trkpt lat="42.2064662" lon="13.6579836"><ele>562.6</ele><time>2026-05-03T09:47:58.021Z</time></trkpt><trkpt lat="42.2065141" lon="13.6578611"><ele>564.2</ele><time>2026-05-03T09:47:59.027Z</time></trkpt><trkpt lat="42.2065532" lon="13.6577366"><ele>565.8</ele><time>2026-05-03T09:48:00.021Z</time></trkpt><trkpt lat="42.2065786" lon="13.6576019"><ele>567.4</ele><time>2026-05-03T09:48:01.019Z</time></trkpt><trkpt lat="42.2065862" lon="13.6574633"><ele>569.0</ele><time>2026-05-03T09:48:02.025Z</time></trkpt><trkpt lat="42.2065819" lon="13.6573244"><ele>569.0</ele><time>2026-05-03T09:48:03.023Z</time></trkpt><trkpt lat="42.2065714" lon="13.6571992"><ele>569.0</ele><time>2026-05-03T09:48:04.025Z</time></trkpt><trkpt lat="42.2065636" lon="13.6570829"><ele>569.0</ele><time>2026-05-03T09:48:05.016Z</time></trkpt><trkpt lat="42.2065662" lon="13.6569667"><ele>569.0</ele><time>2026-05-03T09:48:06.027Z</time></trkpt><trkpt lat="42.2065837" lon="13.65685"><ele>569.0</ele><time>2026-05-03T09:48:07.015Z</time></trkpt><trkpt lat="42.206615" lon="13.6567431"><ele>569.0</ele><time>2026-05-03T09:48:08.024Z</time></trkpt><trkpt lat="42.20666" lon="13.6566466"><ele>567.6</ele><time>2026-05-03T09:48:09.015Z</time></trkpt><trkpt lat="42.2067133" lon="13.6565566"><ele>566.2</ele><time>2026-05-03T09:48:10.024Z</time></trkpt><trkpt lat="42.2067774" lon="13.6564553"><ele>564.8000000000001</ele><time>2026-05-03T09:48:11.018Z</time></trkpt><trkpt lat="42.2068412" lon="13.6563504"><ele>563.4</ele><time>2026-05-03T09:48:12.027Z</time></trkpt><trkpt lat="42.2069034" lon="13.6562511"><ele>562.0</ele><time>2026-05-03T09:48:13.029Z</time></trkpt><trkpt lat="42.2069644" lon="13.6561569"><ele>561.4</ele><time>2026-05-03T09:48:14.029Z</time></trkpt><trkpt lat="42.2070309" lon="13.6560675"><ele>560.8000000000001</ele><time>2026-05-03T09:48:15.024Z</time></trkpt><trkpt lat="42.207109" lon="13.6559936"><ele>560.2</ele><time>2026-05-03T09:48:16.031Z</time></trkpt><trkpt lat="42.2072014" lon="13.655931"><ele>559.6</ele><time>2026-05-03T09:48:17.022Z</time></trkpt><trkpt lat="42.2072982" lon="13.6558732"><ele>559.0</ele><time>2026-05-03T09:48:18.021Z</time></trkpt><trkpt lat="42.207395" lon="13.6558203"><ele>559.0</ele><time>2026-05-03T09:48:19.025Z</time></trkpt><trkpt lat="42.2074805" lon="13.6557774"><ele>559.0</ele><time>2026-05-03T09:48:20.028Z</time></trkpt><trkpt lat="42.2075588" lon="13.6557252"><ele>559.0</ele><time>2026-05-03T09:48:21.021Z</time></trkpt><trkpt lat="42.2076217" lon="13.6556506"><ele>559.0</ele><time>2026-05-03T09:48:22.023Z</time></trkpt><trkpt lat="42.207662" lon="13.6555559"><ele>559.0</ele><time>2026-05-03T09:48:23.03Z</time></trkpt><trkpt lat="42.2076798" lon="13.6554466"><ele>559.0</ele><time>2026-05-03T09:48:24.012Z</time></trkpt><trkpt lat="42.2076746" lon="13.6553321"><ele>556.4</ele><time>2026-05-03T09:48:25.019Z</time></trkpt><trkpt lat="42.2076383" lon="13.6552274"><ele>553.8</ele><time>2026-05-03T09:48:26.02Z</time></trkpt><trkpt lat="42.2075771" lon="13.6551372"><ele>551.2</ele><time>2026-05-03T09:48:27.03Z</time></trkpt><trkpt lat="42.2074952" lon="13.6550794"><ele>548.6</ele><time>2026-05-03T09:48:28.02Z</time></trkpt><trkpt lat="42.2073965" lon="13.6550569"><ele>546.0</ele><time>2026-05-03T09:48:29.024Z</time></trkpt><trkpt lat="42.207292" lon="13.6550541"><ele>544.75</ele><time>2026-05-03T09:48:30.03Z</time></trkpt><trkpt lat="42.207182" lon="13.6550624"><ele>543.5</ele><time>2026-05-03T09:48:31.019Z</time></trkpt><trkpt lat="42.2070756" lon="13.6550663"><ele>542.25</ele><time>2026-05-03T09:48:32.016Z</time></trkpt><trkpt lat="42.2069596" lon="13.6550744"><ele>541.0</ele><time>2026-05-03T09:48:33.021Z</time></trkpt><trkpt lat="42.2068427" lon="13.6550895"><ele>541.0</ele><time>2026-05-03T09:48:34.025Z</time></trkpt><trkpt lat="42.2067246" lon="13.6551091"><ele>541.0</ele><time>2026-05-03T09:48:35.034Z</time></trkpt><trkpt lat="42.2066073" lon="13.6551312"><ele>541.0</ele><time>2026-05-03T09:48:36.032Z</time></trkpt><trkpt lat="42.2064931" lon="13.6551533"><ele>541.0</ele><time>2026-05-03T09:48:37.016Z</time></trkpt><trkpt lat="42.2063818" lon="13.655179"><ele>541.8</ele><time>2026-05-03T09:48:38.023Z</time></trkpt><trkpt lat="42.2062728" lon="13.655203"><ele>542.6</ele><time>2026-05-03T09:48:39.025Z</time></trkpt><trkpt lat="42.2061719" lon="13.6552453"><ele>543.4</ele><time>2026-05-03T09:48:40.03Z</time></trkpt><trkpt lat="42.2060786" lon="13.6553118"><ele>544.2</ele><time>2026-05-03T09:48:41.023Z</time></trkpt><trkpt lat="42.2059911" lon="13.6553922"><ele>545.0</ele><time>2026-05-03T09:48:42.019Z</time></trkpt><trkpt lat="42.2059073" lon="13.6554937"><ele>545.0</ele><time>2026-05-03T09:48:43.025Z</time></trkpt><trkpt lat="42.2058264" lon="13.6555971"><ele>545.0</ele><time>2026-05-03T09:48:44.024Z</time></trkpt><trkpt lat="42.2057477" lon="13.6556907"><ele>545.0</ele><time>2026-05-03T09:48:45.014Z</time></trkpt><trkpt lat="42.2056824" lon="13.6557675"><ele>545.0</ele><time>2026-05-03T09:48:46.025Z</time></trkpt><trkpt lat="42.2056285" lon="13.6558418"><ele>545.0</ele><time>2026-05-03T09:48:47.008Z</time></trkpt><trkpt lat="42.2055915" lon="13.6559201"><ele>545.0</ele><time>2026-05-03T09:48:48.025Z</time></trkpt><trkpt lat="42.2055766" lon="13.6560096"><ele>543.1666666666666</ele><time>2026-05-03T09:48:49.019Z</time></trkpt><trkpt lat="42.2055761" lon="13.6561036"><ele>541.3333333333333</ele><time>2026-05-03T09:48:50.018Z</time></trkpt><trkpt lat="42.2055803" lon="13.6562038"><ele>539.5</ele><time>2026-05-03T09:48:51.017Z</time></trkpt><trkpt lat="42.2055858" lon="13.6563167"><ele>537.6666666666666</ele><time>2026-05-03T09:48:52.026Z</time></trkpt><trkpt lat="42.2055958" lon="13.6564402"><ele>535.8333333333334</ele><time>2026-05-03T09:48:53.013Z</time></trkpt><trkpt lat="42.205606" lon="13.6565726"><ele>534.0</ele><time>2026-05-03T09:48:54.017Z</time></trkpt><trkpt lat="42.2056128" lon="13.6567099"><ele>534.0</ele><time>2026-05-03T09:48:55.019Z</time></trkpt><trkpt lat="42.2056146" lon="13.656852"><ele>534.0</ele><time>2026-05-03T09:48:56.022Z</time></trkpt><trkpt lat="42.2056215" lon="13.6570062"><ele>534.0</ele><time>2026-05-03T09:48:57.014Z</time></trkpt><trkpt lat="42.2056333" lon="13.6571612"><ele>534.0</ele><time>2026-05-03T09:48:58.024Z</time></trkpt><trkpt lat="42.20564" lon="13.6573198"><ele>534.2</ele><time>2026-05-03T09:48:59.018Z</time></trkpt><trkpt lat="42.2056531" lon="13.6574755"><ele>534.4</ele><time>2026-05-03T09:49:00.036Z</time></trkpt><trkpt lat="42.2056515" lon="13.6576261"><ele>534.6</ele><time>2026-05-03T09:49:01.016Z</time></trkpt><trkpt lat="42.2056222" lon="13.6577598"><ele>534.8</ele><time>2026-05-03T09:49:02.016Z</time></trkpt><trkpt lat="42.2055638" lon="13.6578798"><ele>535.0</ele><time>2026-05-03T09:49:03.031Z</time></trkpt><trkpt lat="42.2054884" lon="13.6579852"><ele>537.25</ele><time>2026-05-03T09:49:04.025Z</time></trkpt><trkpt lat="42.2054016" lon="13.6580748"><ele>539.5</ele><time>2026-05-03T09:49:05.017Z</time></trkpt><trkpt lat="42.2053065" lon="13.6581698"><ele>541.75</ele><time>2026-05-03T09:49:06.036Z</time></trkpt><trkpt lat="42.2052127" lon="13.6582676"><ele>544.0</ele><time>2026-05-03T09:49:07.018Z</time></trkpt><trkpt lat="42.2051248" lon="13.6583656"><ele>544.0</ele><time>2026-05-03T09:49:08.018Z</time></trkpt><trkpt lat="42.2050396" lon="13.6584523"><ele>544.0</ele><time>2026-05-03T09:49:09.019Z</time></trkpt><trkpt lat="42.2049477" lon="13.658524"><ele>544.0</ele><time>2026-05-03T09:49:10.021Z</time></trkpt><trkpt lat="42.204845" lon="13.6585835"><ele>544.0</ele><time>2026-05-03T09:49:11.022Z</time></trkpt><trkpt lat="42.2047311" lon="13.6586268"><ele>544.0</ele><time>2026-05-03T09:49:12.022Z</time></trkpt><trkpt lat="42.2046142" lon="13.6586643"><ele>544.0</ele><time>2026-05-03T09:49:13.022Z</time></trkpt><trkpt lat="42.2044988" lon="13.6586909"><ele>544.0</ele><time>2026-05-03T09:49:14.019Z</time></trkpt><trkpt lat="42.2043939" lon="13.6587183"><ele>544.0</ele><time>2026-05-03T09:49:15.014Z</time></trkpt><trkpt lat="42.2042919" lon="13.6587455"><ele>544.0</ele><time>2026-05-03T09:49:16.028Z</time></trkpt><trkpt lat="42.2041974" lon="13.6587584"><ele>544.0</ele><time>2026-05-03T09:49:17.023Z</time></trkpt><trkpt lat="42.2040985" lon="13.6587484"><ele>544.0</ele><time>2026-05-03T09:49:18.024Z</time></trkpt><trkpt lat="42.2039935" lon="13.658715"><ele>544.0</ele><time>2026-05-03T09:49:19.014Z</time></trkpt><trkpt lat="42.2038843" lon="13.6586689"><ele>544.0</ele><time>2026-05-03T09:49:20.029Z</time></trkpt><trkpt lat="42.2037691" lon="13.6586249"><ele>544.0</ele><time>2026-05-03T09:49:21.017Z</time></trkpt><trkpt lat="42.203648" lon="13.6585748"><ele>541.0</ele><time>2026-05-03T09:49:22.02Z</time></trkpt><trkpt lat="42.2035243" lon="13.6585271"><ele>538.0</ele><time>2026-05-03T09:49:23.016Z</time></trkpt><trkpt lat="42.2034008" lon="13.6584839"><ele>535.0</ele><time>2026-05-03T09:49:24.016Z</time></trkpt><trkpt lat="42.2032874" lon="13.6584452"><ele>532.0</ele><time>2026-05-03T09:49:25.013Z</time></trkpt><trkpt lat="42.2031735" lon="13.658399"><ele>531.75</ele><time>2026-05-03T09:49:26.018Z</time></trkpt><trkpt lat="42.2030635" lon="13.6583538"><ele>531.5</ele><time>2026-05-03T09:49:27.012Z</time></trkpt><trkpt lat="42.2029544" lon="13.6583017"><ele>531.25</ele><time>2026-05-03T09:49:28.028Z</time></trkpt><trkpt lat="42.202848" lon="13.6582314"><ele>531.0</ele><time>2026-05-03T09:49:29.014Z</time></trkpt><trkpt lat="42.2027497" lon="13.6581443"><ele>531.0</ele><time>2026-05-03T09:49:30.016Z</time></trkpt><trkpt lat="42.202651" lon="13.6580426"><ele>531.0</ele><time>2026-05-03T09:49:31.018Z</time></trkpt><trkpt lat="42.202551" lon="13.6579327"><ele>531.0</ele><time>2026-05-03T09:49:32.016Z</time></trkpt><trkpt lat="42.2024508" lon="13.6578284"><ele>531.0</ele><time>2026-05-03T09:49:33.013Z</time></trkpt><trkpt lat="42.2023541" lon="13.6577277"><ele>527.5</ele><time>2026-05-03T09:49:34.024Z</time></trkpt><trkpt lat="42.2022584" lon="13.6576264"><ele>524.0</ele><time>2026-05-03T09:49:35.014Z</time></trkpt><trkpt lat="42.2021635" lon="13.6575437"><ele>520.5</ele><time>2026-05-03T09:49:36.027Z</time></trkpt><trkpt lat="42.2020641" lon="13.6574898"><ele>517.0</ele><time>2026-05-03T09:49:37.017Z</time></trkpt><trkpt lat="42.2019572" lon="13.6574591"><ele>517.0</ele><time>2026-05-03T09:49:38.018Z</time></trkpt><trkpt lat="42.2018442" lon="13.6574508"><ele>517.0</ele><time>2026-05-03T09:49:39.019Z</time></trkpt><trkpt lat="42.2017308" lon="13.6574574"><ele>517.0</ele><time>2026-05-03T09:49:40.02Z</time></trkpt><trkpt lat="42.2016192" lon="13.6574828"><ele>517.0</ele><time>2026-05-03T09:49:41.025Z</time></trkpt><trkpt lat="42.2015052" lon="13.6575068"><ele>514.6</ele><time>2026-05-03T09:49:42.016Z</time></trkpt><trkpt lat="42.2013963" lon="13.6575311"><ele>512.2</ele><time>2026-05-03T09:49:43.023Z</time></trkpt><trkpt lat="42.2012931" lon="13.6575605"><ele>509.8</ele><time>2026-05-03T09:49:44.021Z</time></trkpt><trkpt lat="42.2011956" lon="13.6576035"><ele>507.4</ele><time>2026-05-03T09:49:45.017Z</time></trkpt><trkpt lat="42.2011078" lon="13.6576704"><ele>505.0</ele><time>2026-05-03T09:49:46.019Z</time></trkpt><trkpt lat="42.2010256" lon="13.657762"><ele>508.75</ele><time>2026-05-03T09:49:47.008Z</time></trkpt><trkpt lat="42.2009447" lon="13.6578641"><ele>512.5</ele><time>2026-05-03T09:49:48.029Z</time></trkpt><trkpt lat="42.200867" lon="13.6579689"><ele>516.25</ele><time>2026-05-03T09:49:49.019Z</time></trkpt><trkpt lat="42.2007798" lon="13.6580712"><ele>520.0</ele><time>2026-05-03T09:49:50.017Z</time></trkpt><trkpt lat="42.2006846" lon="13.6581556"><ele>517.0</ele><time>2026-05-03T09:49:51.016Z</time></trkpt><trkpt lat="42.200579" lon="13.6582169"><ele>514.0</ele><time>2026-05-03T09:49:52.023Z</time></trkpt><trkpt lat="42.2004622" lon="13.6582551"><ele>511.0</ele><time>2026-05-03T09:49:53.019Z</time></trkpt><trkpt lat="42.2003443" lon="13.6582797"><ele>508.0</ele><time>2026-05-03T09:49:54.018Z</time></trkpt><trkpt lat="42.2002257" lon="13.6582978"><ele>508.0</ele><time>2026-05-03T09:49:55.013Z</time></trkpt><trkpt lat="42.2001042" lon="13.6583226"><ele>508.0</ele><time>2026-05-03T09:49:56.018Z</time></trkpt><trkpt lat="42.1999838" lon="13.6583508"><ele>508.0</ele><time>2026-05-03T09:49:57.021Z</time></trkpt><trkpt lat="42.1998652" lon="13.6583851"><ele>508.0</ele><time>2026-05-03T09:49:58.02Z</time></trkpt><trkpt lat="42.1997456" lon="13.6584275"><ele>508.0</ele><time>2026-05-03T09:49:59.014Z</time></trkpt><trkpt lat="42.1996304" lon="13.6584861"><ele>508.0</ele><time>2026-05-03T09:50:00.018Z</time></trkpt><trkpt lat="42.1995274" lon="13.6585712"><ele>508.0</ele><time>2026-05-03T09:50:01.008Z</time></trkpt><trkpt lat="42.1994283" lon="13.6586647"><ele>508.0</ele><time>2026-05-03T09:50:02.016Z</time></trkpt><trkpt lat="42.1993356" lon="13.658759"><ele>508.0</ele><time>2026-05-03T09:50:03.017Z</time></trkpt><trkpt lat="42.1992493" lon="13.6588529"><ele>507.99999999999994</ele><time>2026-05-03T09:50:04.019Z</time></trkpt><trkpt lat="42.199171" lon="13.6589464"><ele>507.99999999999994</ele><time>2026-05-03T09:50:05.022Z</time></trkpt><trkpt lat="42.1990902" lon="13.6590348"><ele>508.0</ele><time>2026-05-03T09:50:06.019Z</time></trkpt><trkpt lat="42.1990134" lon="13.65911"><ele>508.0</ele><time>2026-05-03T09:50:07.011Z</time></trkpt><trkpt lat="42.1989356" lon="13.6591871"><ele>505.79999999999995</ele><time>2026-05-03T09:50:08.016Z</time></trkpt><trkpt lat="42.1988545" lon="13.6592473"><ele>503.59999999999997</ele><time>2026-05-03T09:50:09.011Z</time></trkpt><trkpt lat="42.1987671" lon="13.6592807"><ele>501.40000000000003</ele><time>2026-05-03T09:50:10.013Z</time></trkpt><trkpt lat="42.1986742" lon="13.6592928"><ele>499.20000000000005</ele><time>2026-05-03T09:50:11.014Z</time></trkpt><trkpt lat="42.1985758" lon="13.6592845"><ele>497.0</ele><time>2026-05-03T09:50:12.019Z</time></trkpt><trkpt lat="42.1984804" lon="13.6592583"><ele>496.99999999999994</ele><time>2026-05-03T09:50:13.016Z</time></trkpt><trkpt lat="42.1983844" lon="13.6592258"><ele>497.0</ele><time>2026-05-03T09:50:14.025Z</time></trkpt><trkpt lat="42.1982928" lon="13.659186"><ele>497.0</ele><time>2026-05-03T09:50:15.014Z</time></trkpt><trkpt lat="42.1982184" lon="13.6591235"><ele>497.0</ele><time>2026-05-03T09:50:16.02Z</time></trkpt><trkpt lat="42.1981661" lon="13.6590287"><ele>496.99999999999994</ele><time>2026-05-03T09:50:17.012Z</time></trkpt><trkpt lat="42.198135" lon="13.6589314"><ele>497.0</ele><time>2026-05-03T09:50:18.018Z</time></trkpt><trkpt lat="42.1981079" lon="13.6588262"><ele>496.66666666666663</ele><time>2026-05-03T09:50:19.02Z</time></trkpt><trkpt lat="42.1980762" lon="13.6587167"><ele>496.3333333333333</ele><time>2026-05-03T09:50:20.021Z</time></trkpt><trkpt lat="42.1980393" lon="13.6586149"><ele>496.0</ele><time>2026-05-03T09:50:21.02Z</time></trkpt><trkpt lat="42.1979991" lon="13.6585113"><ele>495.66666666666663</ele><time>2026-05-03T09:50:22.017Z</time></trkpt><trkpt lat="42.1979562" lon="13.6584132"><ele>495.3333333333333</ele><time>2026-05-03T09:50:23.015Z</time></trkpt><trkpt lat="42.1979062" lon="13.6583151"><ele>495.0</ele><time>2026-05-03T09:50:24.02Z</time></trkpt><trkpt lat="42.1978521" lon="13.6582281"><ele>494.6</ele><time>2026-05-03T09:50:25.011Z</time></trkpt><trkpt lat="42.1977947" lon="13.6581396"><ele>494.2</ele><time>2026-05-03T09:50:26.025Z</time></trkpt><trkpt lat="42.1977374" lon="13.6580504"><ele>493.79999999999995</ele><time>2026-05-03T09:50:27.01Z</time></trkpt><trkpt lat="42.1976792" lon="13.6579588"><ele>493.4</ele><time>2026-05-03T09:50:28.02Z</time></trkpt><trkpt lat="42.197619" lon="13.6578607"><ele>493.0</ele><time>2026-05-03T09:50:29.015Z</time></trkpt><trkpt lat="42.1975589" lon="13.6577635"><ele>493.0</ele><time>2026-05-03T09:50:30.02Z</time></trkpt><trkpt lat="42.1974999" lon="13.6576702"><ele>492.99999999999994</ele><time>2026-05-03T09:50:31.019Z</time></trkpt><trkpt lat="42.1974384" lon="13.6575737"><ele>492.99999999999994</ele><time>2026-05-03T09:50:32.016Z</time></trkpt><trkpt lat="42.1973768" lon="13.6574726"><ele>493.0</ele><time>2026-05-03T09:50:33.018Z</time></trkpt><trkpt lat="42.1973167" lon="13.657384"><ele>493.0</ele><time>2026-05-03T09:50:34.011Z</time></trkpt><trkpt lat="42.1972578" lon="13.6572952"><ele>493.00000000000006</ele><time>2026-05-03T09:50:35.015Z</time></trkpt><trkpt lat="42.1972052" lon="13.6572115"><ele>493.0</ele><time>2026-05-03T09:50:36.012Z</time></trkpt><trkpt lat="42.1971523" lon="13.6571324"><ele>493.0</ele><time>2026-05-03T09:50:37.025Z</time></trkpt><trkpt lat="42.1971027" lon="13.657059"><ele>493.0</ele><time>2026-05-03T09:50:38.01Z</time></trkpt><trkpt lat="42.197058" lon="13.6569909"><ele>493.00000000000006</ele><time>2026-05-03T09:50:39.017Z</time></trkpt><trkpt lat="42.196985" lon="13.6568719"><ele>493.0</ele><time>2026-05-03T09:50:41.006Z</time></trkpt><trkpt lat="42.1969436" lon="13.6567994"><ele>493.00000000000006</ele><time>2026-05-03T09:50:43.013Z</time></trkpt><trkpt lat="42.1968813" lon="13.656711"><ele>493.0</ele><time>2026-05-03T09:51:05.014Z</time></trkpt><trkpt lat="42.1968087" lon="13.6566051"><ele>493.0</ele><time>2026-05-03T09:51:07.016Z</time></trkpt><trkpt lat="42.196768" lon="13.6565319"><ele>493.0</ele><time>2026-05-03T09:51:08.04Z</time></trkpt><trkpt lat="42.1967186" lon="13.6564637"><ele>493.00000000000006</ele><time>2026-05-03T09:51:09.012Z</time></trkpt><trkpt lat="42.1966636" lon="13.6563882"><ele>493.0</ele><time>2026-05-03T09:51:10.002Z</time></trkpt><trkpt lat="42.1966055" lon="13.6563"><ele>493.0</ele><time>2026-05-03T09:51:11.018Z</time></trkpt><trkpt lat="42.1965441" lon="13.6562005"><ele>492.99999999999994</ele><time>2026-05-03T09:51:12.016Z</time></trkpt><trkpt lat="42.1964836" lon="13.656102"><ele>492.99999999999994</ele><time>2026-05-03T09:51:13.011Z</time></trkpt><trkpt lat="42.1964239" lon="13.6560054"><ele>493.0</ele><time>2026-05-03T09:51:14.017Z</time></trkpt><trkpt lat="42.1963636" lon="13.6559102"><ele>493.0</ele><time>2026-05-03T09:51:15.014Z</time></trkpt><trkpt lat="42.1962988" lon="13.6558092"><ele>494.59999999999997</ele><time>2026-05-03T09:51:16.022Z</time></trkpt><trkpt lat="42.1962282" lon="13.6557034"><ele>496.19999999999993</ele><time>2026-05-03T09:51:17.01Z</time></trkpt><trkpt lat="42.1961576" lon="13.6555915"><ele>497.8</ele><time>2026-05-03T09:51:18.015Z</time></trkpt><trkpt lat="42.1960847" lon="13.6554757"><ele>499.4</ele><time>2026-05-03T09:51:19.016Z</time></trkpt><trkpt lat="42.1960106" lon="13.6553651"><ele>501.0</ele><time>2026-05-03T09:51:20.01Z</time></trkpt><trkpt lat="42.1959302" lon="13.6552481"><ele>502.0</ele><time>2026-05-03T09:51:21.017Z</time></trkpt><trkpt lat="42.1958547" lon="13.6551289"><ele>503.0</ele><time>2026-05-03T09:51:22.03Z</time></trkpt><trkpt lat="42.1957819" lon="13.6550025"><ele>504.0</ele><time>2026-05-03T09:51:23.021Z</time></trkpt><trkpt lat="42.1957215" lon="13.6548665"><ele>505.0</ele><time>2026-05-03T09:51:24.028Z</time></trkpt><trkpt lat="42.1956733" lon="13.6547225"><ele>508.25</ele><time>2026-05-03T09:51:25.012Z</time></trkpt><trkpt lat="42.1956373" lon="13.6545669"><ele>511.5</ele><time>2026-05-03T09:51:26.031Z</time></trkpt><trkpt lat="42.1956157" lon="13.6544009"><ele>514.75</ele><time>2026-05-03T09:51:27.035Z</time></trkpt><trkpt lat="42.1956129" lon="13.6542345"><ele>518.0</ele><time>2026-05-03T09:51:28.027Z</time></trkpt><trkpt lat="42.1956275" lon="13.6540675"><ele>519.0</ele><time>2026-05-03T09:51:29.009Z</time></trkpt><trkpt lat="42.1956576" lon="13.6538866"><ele>520.0</ele><time>2026-05-03T09:51:30.014Z</time></trkpt><trkpt lat="42.1956877" lon="13.6536759"><ele>521.0</ele><time>2026-05-03T09:51:31.021Z</time></trkpt><trkpt lat="42.1957199" lon="13.6534604"><ele>521.0</ele><time>2026-05-03T09:51:32.019Z</time></trkpt><trkpt lat="42.1957561" lon="13.6532426"><ele>521.0</ele><time>2026-05-03T09:51:33.044Z</time></trkpt><trkpt lat="42.195795" lon="13.6530323"><ele>521.0</ele><time>2026-05-03T09:51:34.03Z</time></trkpt><trkpt lat="42.1958334" lon="13.6528285"><ele>522.6666666666666</ele><time>2026-05-03T09:51:35.025Z</time></trkpt><trkpt lat="42.1958666" lon="13.6526129"><ele>524.3333333333334</ele><time>2026-05-03T09:51:36.031Z</time></trkpt><trkpt lat="42.1959006" lon="13.6523992"><ele>526.0</ele><time>2026-05-03T09:51:37.021Z</time></trkpt><trkpt lat="42.1959368" lon="13.6521838"><ele>526.0</ele><time>2026-05-03T09:51:38.027Z</time></trkpt><trkpt lat="42.1959731" lon="13.6519652"><ele>526.0</ele><time>2026-05-03T09:51:39.026Z</time></trkpt><trkpt lat="42.1960096" lon="13.6517417"><ele>526.0</ele><time>2026-05-03T09:51:40.022Z</time></trkpt><trkpt lat="42.1960462" lon="13.6515125"><ele>527.6666666666667</ele><time>2026-05-03T09:51:41.023Z</time></trkpt><trkpt lat="42.1960842" lon="13.651277"><ele>529.3333333333334</ele><time>2026-05-03T09:51:42.033Z</time></trkpt><trkpt lat="42.1961231" lon="13.6510387"><ele>531.0</ele><time>2026-05-03T09:51:43.027Z</time></trkpt><trkpt lat="42.1961617" lon="13.6507968"><ele>532.3333333333334</ele><time>2026-05-03T09:51:44.031Z</time></trkpt><trkpt lat="42.196201" lon="13.6505544"><ele>533.6666666666667</ele><time>2026-05-03T09:51:45.017Z</time></trkpt><trkpt lat="42.1962373" lon="13.6503112"><ele>535.0</ele><time>2026-05-03T09:51:46.018Z</time></trkpt><trkpt lat="42.1962742" lon="13.6500762"><ele>537.3333333333334</ele><time>2026-05-03T09:51:47.01Z</time></trkpt><trkpt lat="42.1963116" lon="13.649838"><ele>539.6666666666666</ele><time>2026-05-03T09:51:48.026Z</time></trkpt><trkpt lat="42.19635" lon="13.6496083"><ele>542.0</ele><time>2026-05-03T09:51:49.022Z</time></trkpt><trkpt lat="42.196388" lon="13.6493796"><ele>543.6666666666666</ele><time>2026-05-03T09:51:50.028Z</time></trkpt><trkpt lat="42.1964272" lon="13.6491545"><ele>545.3333333333334</ele><time>2026-05-03T09:51:51.022Z</time></trkpt><trkpt lat="42.196464" lon="13.6489466"><ele>547.0</ele><time>2026-05-03T09:51:52.016Z</time></trkpt><trkpt lat="42.1965004" lon="13.6487582"><ele>547.0</ele><time>2026-05-03T09:51:53.017Z</time></trkpt><trkpt lat="42.1965338" lon="13.6485832"><ele>547.0</ele><time>2026-05-03T09:51:54.043Z</time></trkpt><trkpt lat="42.1965714" lon="13.6484215"><ele>547.0</ele><time>2026-05-03T09:51:55.02Z</time></trkpt><trkpt lat="42.196602" lon="13.6482591"><ele>547.0</ele><time>2026-05-03T09:51:56.014Z</time></trkpt><trkpt lat="42.1966324" lon="13.6481042"><ele>547.0</ele><time>2026-05-03T09:51:57.017Z</time></trkpt><trkpt lat="42.1966555" lon="13.6479649"><ele>547.0</ele><time>2026-05-03T09:51:58.021Z</time></trkpt><trkpt lat="42.1966861" lon="13.6478356"><ele>547.0</ele><time>2026-05-03T09:51:59.021Z</time></trkpt><trkpt lat="42.1967275" lon="13.6477114"><ele>547.0</ele><time>2026-05-03T09:52:00.026Z</time></trkpt><trkpt lat="42.1967926" lon="13.6476068"><ele>547.0</ele><time>2026-05-03T09:52:01.032Z</time></trkpt><trkpt lat="42.1968763" lon="13.6475178"><ele>548.0</ele><time>2026-05-03T09:52:02.03Z</time></trkpt><trkpt lat="42.1969789" lon="13.6474518"><ele>549.0</ele><time>2026-05-03T09:52:03.015Z</time></trkpt><trkpt lat="42.1970954" lon="13.6474143"><ele>550.0</ele><time>2026-05-03T09:52:04.022Z</time></trkpt><trkpt lat="42.1972213" lon="13.6473799"><ele>551.0</ele><time>2026-05-03T09:52:05.015Z</time></trkpt><trkpt lat="42.1973493" lon="13.6473312"><ele>551.0</ele><time>2026-05-03T09:52:06.025Z</time></trkpt><trkpt lat="42.1974863" lon="13.6472795"><ele>551.0</ele><time>2026-05-03T09:52:07.035Z</time></trkpt><trkpt lat="42.1976314" lon="13.6472357"><ele>551.0</ele><time>2026-05-03T09:52:08.027Z</time></trkpt><trkpt lat="42.1977743" lon="13.647175"><ele>551.0</ele><time>2026-05-03T09:52:09.065Z</time></trkpt><trkpt lat="42.1979179" lon="13.6471055"><ele>551.0</ele><time>2026-05-03T09:52:10.038Z</time></trkpt><trkpt lat="42.1980607" lon="13.6470286"><ele>551.0</ele><time>2026-05-03T09:52:11.032Z</time></trkpt><trkpt lat="42.198199" lon="13.6469495"><ele>551.0</ele><time>2026-05-03T09:52:12.026Z</time></trkpt><trkpt lat="42.1983304" lon="13.6468748"><ele>551.0</ele><time>2026-05-03T09:52:13.021Z</time></trkpt><trkpt lat="42.1984523" lon="13.6468041"><ele>552.0</ele><time>2026-05-03T09:52:14.031Z</time></trkpt><trkpt lat="42.1985762" lon="13.6467345"><ele>553.0</ele><time>2026-05-03T09:52:15.028Z</time></trkpt><trkpt lat="42.198698" lon="13.6466661"><ele>554.0</ele><time>2026-05-03T09:52:16.033Z</time></trkpt><trkpt lat="42.1988159" lon="13.6465973"><ele>555.0</ele><time>2026-05-03T09:52:17.018Z</time></trkpt><trkpt lat="42.198932" lon="13.6465304"><ele>553.25</ele><time>2026-05-03T09:52:18.026Z</time></trkpt><trkpt lat="42.1990508" lon="13.6464602"><ele>551.5</ele><time>2026-05-03T09:52:19.015Z</time></trkpt><trkpt lat="42.199171" lon="13.6463975"><ele>549.75</ele><time>2026-05-03T09:52:20.042Z</time></trkpt><trkpt lat="42.1992858" lon="13.6463305"><ele>548.0</ele><time>2026-05-03T09:52:21.018Z</time></trkpt><trkpt lat="42.1993987" lon="13.6462587"><ele>548.0</ele><time>2026-05-03T09:52:22.039Z</time></trkpt><trkpt lat="42.1995083" lon="13.6461838"><ele>548.0</ele><time>2026-05-03T09:52:23.02Z</time></trkpt><trkpt lat="42.199609" lon="13.6460961"><ele>548.0</ele><time>2026-05-03T09:52:24.026Z</time></trkpt><trkpt lat="42.1997101" lon="13.6459995"><ele>548.0</ele><time>2026-05-03T09:52:25.035Z</time></trkpt><trkpt lat="42.1998037" lon="13.645895"><ele>549.0</ele><time>2026-05-03T09:52:26.02Z</time></trkpt><trkpt lat="42.1998996" lon="13.6457863"><ele>550.0</ele><time>2026-05-03T09:52:27.033Z</time></trkpt><trkpt lat="42.1999952" lon="13.6456732"><ele>551.0</ele><time>2026-05-03T09:52:28.024Z</time></trkpt><trkpt lat="42.2000915" lon="13.6455606"><ele>552.0</ele><time>2026-05-03T09:52:29.02Z</time></trkpt><trkpt lat="42.2001891" lon="13.6454457"><ele>552.0</ele><time>2026-05-03T09:52:30.024Z</time></trkpt><trkpt lat="42.200284" lon="13.6453272"><ele>552.0</ele><time>2026-05-03T09:52:31.04Z</time></trkpt><trkpt lat="42.2003799" lon="13.6452057"><ele>552.0</ele><time>2026-05-03T09:52:32.032Z</time></trkpt><trkpt lat="42.2004675" lon="13.6450763"><ele>552.0</ele><time>2026-05-03T09:52:33.019Z</time></trkpt><trkpt lat="42.2005494" lon="13.6449391"><ele>551.75</ele><time>2026-05-03T09:52:34.014Z</time></trkpt><trkpt lat="42.200628" lon="13.6447967"><ele>551.5</ele><time>2026-05-03T09:52:35.034Z</time></trkpt><trkpt lat="42.2007" lon="13.6446469"><ele>551.25</ele><time>2026-05-03T09:52:36.043Z</time></trkpt><trkpt lat="42.2007685" lon="13.6444978"><ele>551.0</ele><time>2026-05-03T09:52:37.027Z</time></trkpt><trkpt lat="42.2008257" lon="13.6443405"><ele>551.0</ele><time>2026-05-03T09:52:38.046Z</time></trkpt><trkpt lat="42.2008811" lon="13.6441776"><ele>551.0</ele><time>2026-05-03T09:52:39.026Z</time></trkpt><trkpt lat="42.2009388" lon="13.6440231"><ele>551.0</ele><time>2026-05-03T09:52:40.024Z</time></trkpt><trkpt lat="42.2009939" lon="13.6438622"><ele>551.0</ele><time>2026-05-03T09:52:41.025Z</time></trkpt><trkpt lat="42.2010545" lon="13.6437055"><ele>553.0</ele><time>2026-05-03T09:52:42.023Z</time></trkpt><trkpt lat="42.2011174" lon="13.6435535"><ele>555.0</ele><time>2026-05-03T09:52:43.033Z</time></trkpt><trkpt lat="42.2011844" lon="13.6434066"><ele>557.0</ele><time>2026-05-03T09:52:44.025Z</time></trkpt><trkpt lat="42.2012568" lon="13.6432675"><ele>559.0</ele><time>2026-05-03T09:52:45.042Z</time></trkpt><trkpt lat="42.2013341" lon="13.6431306"><ele>559.0</ele><time>2026-05-03T09:52:46.035Z</time></trkpt><trkpt lat="42.2014108" lon="13.6430062"><ele>559.0</ele><time>2026-05-03T09:52:47.018Z</time></trkpt><trkpt lat="42.2014847" lon="13.6428779"><ele>559.0</ele><time>2026-05-03T09:52:48.044Z</time></trkpt><trkpt lat="42.201558" lon="13.6427511"><ele>559.0</ele><time>2026-05-03T09:52:49.017Z</time></trkpt><trkpt lat="42.2016287" lon="13.6426228"><ele>558.25</ele><time>2026-05-03T09:52:50.03Z</time></trkpt><trkpt lat="42.2016994" lon="13.6424918"><ele>557.5</ele><time>2026-05-03T09:52:51.015Z</time></trkpt><trkpt lat="42.2017707" lon="13.6423641"><ele>556.75</ele><time>2026-05-03T09:52:52.011Z</time></trkpt><trkpt lat="42.2018432" lon="13.6422381"><ele>556.0</ele><time>2026-05-03T09:52:53.037Z</time></trkpt><trkpt lat="42.2019163" lon="13.6421139"><ele>556.0</ele><time>2026-05-03T09:52:54.019Z</time></trkpt><trkpt lat="42.2019898" lon="13.6419838"><ele>556.0</ele><time>2026-05-03T09:52:55.026Z</time></trkpt><trkpt lat="42.202067" lon="13.6418493"><ele>556.0</ele><time>2026-05-03T09:52:56.022Z</time></trkpt><trkpt lat="42.2021468" lon="13.6417063"><ele>556.0</ele><time>2026-05-03T09:52:57.027Z</time></trkpt><trkpt lat="42.2022283" lon="13.6415506"><ele>557.0</ele><time>2026-05-03T09:52:58.02Z</time></trkpt><trkpt lat="42.2023156" lon="13.6413917"><ele>558.0</ele><time>2026-05-03T09:52:59.023Z</time></trkpt><trkpt lat="42.2023974" lon="13.6412188"><ele>559.0</ele><time>2026-05-03T09:53:00.029Z</time></trkpt><trkpt lat="42.2024701" lon="13.6410318"><ele>561.3333333333334</ele><time>2026-05-03T09:53:01.014Z</time></trkpt><trkpt lat="42.2025267" lon="13.6408318"><ele>563.6666666666666</ele><time>2026-05-03T09:53:02.033Z</time></trkpt><trkpt lat="42.2025713" lon="13.640622"><ele>566.0</ele><time>2026-05-03T09:53:03.018Z</time></trkpt><trkpt lat="42.2026148" lon="13.6404107"><ele>567.0</ele><time>2026-05-03T09:53:04.016Z</time></trkpt><trkpt lat="42.2026535" lon="13.6401999"><ele>568.0</ele><time>2026-05-03T09:53:05.022Z</time></trkpt><trkpt lat="42.2026939" lon="13.6399992"><ele>569.0</ele><time>2026-05-03T09:53:06.024Z</time></trkpt><trkpt lat="42.2027396" lon="13.6398055"><ele>569.0</ele><time>2026-05-03T09:53:07.019Z</time></trkpt><trkpt lat="42.2027896" lon="13.6396141"><ele>569.0</ele><time>2026-05-03T09:53:08.023Z</time></trkpt><trkpt lat="42.202836" lon="13.6394271"><ele>569.0</ele><time>2026-05-03T09:53:09.03Z</time></trkpt><trkpt lat="42.20288" lon="13.6392484"><ele>569.0</ele><time>2026-05-03T09:53:10.023Z</time></trkpt><trkpt lat="42.2029168" lon="13.6390819"><ele>570.5</ele><time>2026-05-03T09:53:11.02Z</time></trkpt><trkpt lat="42.202953" lon="13.6389178"><ele>572.0</ele><time>2026-05-03T09:53:12.024Z</time></trkpt><trkpt lat="42.2029933" lon="13.6387708"><ele>573.5</ele><time>2026-05-03T09:53:13.02Z</time></trkpt><trkpt lat="42.2030292" lon="13.6386304"><ele>575.0</ele><time>2026-05-03T09:53:14.028Z</time></trkpt><trkpt lat="42.2030676" lon="13.6384846"><ele>576.0</ele><time>2026-05-03T09:53:15.018Z</time></trkpt><trkpt lat="42.2031069" lon="13.6383328"><ele>577.0</ele><time>2026-05-03T09:53:16.021Z</time></trkpt><trkpt lat="42.2031449" lon="13.6381751"><ele>578.0</ele><time>2026-05-03T09:53:17.021Z</time></trkpt><trkpt lat="42.2031867" lon="13.6380165"><ele>579.0</ele><time>2026-05-03T09:53:18.016Z</time></trkpt><trkpt lat="42.203236" lon="13.6378664"><ele>578.5</ele><time>2026-05-03T09:53:19.026Z</time></trkpt><trkpt lat="42.2032927" lon="13.6377233"><ele>578.0</ele><time>2026-05-03T09:53:20.025Z</time></trkpt><trkpt lat="42.2033581" lon="13.6375922"><ele>577.5</ele><time>2026-05-03T09:53:21.015Z</time></trkpt><trkpt lat="42.2034331" lon="13.6374695"><ele>577.0</ele><time>2026-05-03T09:53:22.017Z</time></trkpt><trkpt lat="42.2034998" lon="13.6373575"><ele>577.0</ele><time>2026-05-03T09:53:23.029Z</time></trkpt><trkpt lat="42.203572" lon="13.637261"><ele>577.0</ele><time>2026-05-03T09:53:24.023Z</time></trkpt><trkpt lat="42.2036518" lon="13.6371732"><ele>577.0</ele><time>2026-05-03T09:53:25.031Z</time></trkpt><trkpt lat="42.2037364" lon="13.6371042"><ele>577.0</ele><time>2026-05-03T09:53:26.023Z</time></trkpt><trkpt lat="42.2038168" lon="13.6370525"><ele>577.0</ele><time>2026-05-03T09:53:27.012Z</time></trkpt><trkpt lat="42.2038892" lon="13.6370068"><ele>577.4285714285714</ele><time>2026-05-03T09:53:28.031Z</time></trkpt><trkpt lat="42.2039572" lon="13.6369592"><ele>577.8571428571429</ele><time>2026-05-03T09:53:29.012Z</time></trkpt><trkpt lat="42.2040177" lon="13.6369024"><ele>578.2857142857143</ele><time>2026-05-03T09:53:30.02Z</time></trkpt><trkpt lat="42.2040681" lon="13.6368386"><ele>578.7142857142858</ele><time>2026-05-03T09:53:31.025Z</time></trkpt><trkpt lat="42.2041193" lon="13.6367687"><ele>579.1428571428572</ele><time>2026-05-03T09:53:32.026Z</time></trkpt><trkpt lat="42.2041561" lon="13.6366911"><ele>579.5714285714286</ele><time>2026-05-03T09:53:33.028Z</time></trkpt><trkpt lat="42.2041916" lon="13.636605"><ele>580.0</ele><time>2026-05-03T09:53:34.014Z</time></trkpt><trkpt lat="42.2042222" lon="13.6365108"><ele>580.0</ele><time>2026-05-03T09:53:35.024Z</time></trkpt><trkpt lat="42.204245" lon="13.6364156"><ele>580.0</ele><time>2026-05-03T09:53:36.026Z</time></trkpt><trkpt lat="42.2042612" lon="13.6363143"><ele>580.0</ele><time>2026-05-03T09:53:37.01Z</time></trkpt><trkpt lat="42.2042742" lon="13.6362219"><ele>580.0</ele><time>2026-05-03T09:53:38.019Z</time></trkpt><trkpt lat="42.2042895" lon="13.6361382"><ele>580.0</ele><time>2026-05-03T09:53:39.024Z</time></trkpt><trkpt lat="42.2043048" lon="13.6360509"><ele>580.0</ele><time>2026-05-03T09:53:40.03Z</time></trkpt><trkpt lat="42.2043306" lon="13.6359052"><ele>581.6</ele><time>2026-05-03T09:53:42.039Z</time></trkpt><trkpt lat="42.2043607" lon="13.6357583"><ele>583.2</ele><time>2026-05-03T09:53:44.017Z</time></trkpt><trkpt lat="42.2044076" lon="13.6356038"><ele>584.8</ele><time>2026-05-03T09:53:46.028Z</time></trkpt><trkpt lat="42.2044465" lon="13.6355269"><ele>586.4</ele><time>2026-05-03T09:53:47.032Z</time></trkpt><trkpt lat="42.2045014" lon="13.6354432"><ele>588.0</ele><time>2026-05-03T09:53:48.027Z</time></trkpt><trkpt lat="42.2045646" lon="13.6353493"><ele>589.1999999999999</ele><time>2026-05-03T09:53:49.02Z</time></trkpt><trkpt lat="42.2046391" lon="13.6352453"><ele>590.4</ele><time>2026-05-03T09:53:50.026Z</time></trkpt><trkpt lat="42.204717" lon="13.6351416"><ele>591.5999999999999</ele><time>2026-05-03T09:53:51.018Z</time></trkpt><trkpt lat="42.204794" lon="13.6350419"><ele>592.8</ele><time>2026-05-03T09:53:52.019Z</time></trkpt><trkpt lat="42.2048676" lon="13.6349415"><ele>594.0</ele><time>2026-05-03T09:53:53.021Z</time></trkpt><trkpt lat="42.2049378" lon="13.6348401"><ele>592.0</ele><time>2026-05-03T09:53:54.018Z</time></trkpt><trkpt lat="42.2050043" lon="13.6347431"><ele>590.0</ele><time>2026-05-03T09:53:55.036Z</time></trkpt><trkpt lat="42.2050675" lon="13.6346458"><ele>588.0</ele><time>2026-05-03T09:53:56.027Z</time></trkpt><trkpt lat="42.2051264" lon="13.6345421"><ele>586.0</ele><time>2026-05-03T09:53:57.018Z</time></trkpt><trkpt lat="42.2051664" lon="13.6344306"><ele>584.0</ele><time>2026-05-03T09:53:58.02Z</time></trkpt><trkpt lat="42.2051959" lon="13.6343241"><ele>584.0</ele><time>2026-05-03T09:53:59.018Z</time></trkpt><trkpt lat="42.2052262" lon="13.6342231"><ele>584.0</ele><time>2026-05-03T09:54:00.038Z</time></trkpt><trkpt lat="42.2052713" lon="13.634135"><ele>584.0</ele><time>2026-05-03T09:54:01.022Z</time></trkpt><trkpt lat="42.2053484" lon="13.6340666"><ele>584.0</ele><time>2026-05-03T09:54:02.031Z</time></trkpt><trkpt lat="42.2054408" lon="13.6340012"><ele>584.0</ele><time>2026-05-03T09:54:03.019Z</time></trkpt><trkpt lat="42.2055363" lon="13.633939"><ele>584.0</ele><time>2026-05-03T09:54:04.015Z</time></trkpt><trkpt lat="42.2056398" lon="13.6338818"><ele>584.0</ele><time>2026-05-03T09:54:05.02Z</time></trkpt><trkpt lat="42.2057484" lon="13.6338223"><ele>584.0</ele><time>2026-05-03T09:54:06.025Z</time></trkpt><trkpt lat="42.2058663" lon="13.6337698"><ele>584.0</ele><time>2026-05-03T09:54:07.029Z</time></trkpt><trkpt lat="42.2059859" lon="13.6337156"><ele>581.5</ele><time>2026-05-03T09:54:08.024Z</time></trkpt><trkpt lat="42.2060988" lon="13.6336531"><ele>579.0</ele><time>2026-05-03T09:54:09.02Z</time></trkpt><trkpt lat="42.2062136" lon="13.6335793"><ele>576.5</ele><time>2026-05-03T09:54:10.033Z</time></trkpt><trkpt lat="42.2063251" lon="13.6334989"><ele>574.0</ele><time>2026-05-03T09:54:11.024Z</time></trkpt><trkpt lat="42.2064346" lon="13.6334133"><ele>571.0</ele><time>2026-05-03T09:54:12.02Z</time></trkpt><trkpt lat="42.2065429" lon="13.6333243"><ele>568.0</ele><time>2026-05-03T09:54:13.019Z</time></trkpt><trkpt lat="42.2066551" lon="13.6332315"><ele>565.0</ele><time>2026-05-03T09:54:14.034Z</time></trkpt><trkpt lat="42.2067634" lon="13.6331269"><ele>562.0</ele><time>2026-05-03T09:54:15.016Z</time></trkpt><trkpt lat="42.2068741" lon="13.633015"><ele>562.0</ele><time>2026-05-03T09:54:16.033Z</time></trkpt><trkpt lat="42.2069855" lon="13.6328983"><ele>562.0</ele><time>2026-05-03T09:54:17.028Z</time></trkpt><trkpt lat="42.207095" lon="13.6327799"><ele>562.0</ele><time>2026-05-03T09:54:18.019Z</time></trkpt><trkpt lat="42.2071978" lon="13.6326629"><ele>562.0</ele><time>2026-05-03T09:54:19.03Z</time></trkpt><trkpt lat="42.2073005" lon="13.6325421"><ele>561.25</ele><time>2026-05-03T09:54:20.024Z</time></trkpt><trkpt lat="42.2074041" lon="13.6324251"><ele>560.5</ele><time>2026-05-03T09:54:21.018Z</time></trkpt><trkpt lat="42.20751" lon="13.632308"><ele>559.75</ele><time>2026-05-03T09:54:22.029Z</time></trkpt><trkpt lat="42.2076115" lon="13.6321863"><ele>559.0</ele><time>2026-05-03T09:54:23.015Z</time></trkpt><trkpt lat="42.2077108" lon="13.6320685"><ele>560.75</ele><time>2026-05-03T09:54:24.029Z</time></trkpt><trkpt lat="42.2078061" lon="13.6319549"><ele>562.5</ele><time>2026-05-03T09:54:25.016Z</time></trkpt><trkpt lat="42.2078895" lon="13.6318406"><ele>564.25</ele><time>2026-05-03T09:54:26.024Z</time></trkpt><trkpt lat="42.2079656" lon="13.6317118"><ele>566.0</ele><time>2026-05-03T09:54:27.013Z</time></trkpt><trkpt lat="42.2080368" lon="13.6315635"><ele>566.0</ele><time>2026-05-03T09:54:28.035Z</time></trkpt><trkpt lat="42.2081072" lon="13.6314051"><ele>566.0</ele><time>2026-05-03T09:54:29.03Z</time></trkpt><trkpt lat="42.2081779" lon="13.6312388"><ele>566.0</ele><time>2026-05-03T09:54:30.052Z</time></trkpt><trkpt lat="42.2082549" lon="13.6310638"><ele>566.0</ele><time>2026-05-03T09:54:31.024Z</time></trkpt><trkpt lat="42.2083307" lon="13.6308865"><ele>566.25</ele><time>2026-05-03T09:54:32.03Z</time></trkpt><trkpt lat="42.2084045" lon="13.6307101"><ele>566.5</ele><time>2026-05-03T09:54:33.017Z</time></trkpt><trkpt lat="42.2084752" lon="13.6305421"><ele>566.75</ele><time>2026-05-03T09:54:34.026Z</time></trkpt><trkpt lat="42.2085485" lon="13.6303853"><ele>567.0</ele><time>2026-05-03T09:54:35.019Z</time></trkpt><trkpt lat="42.2086285" lon="13.630242"><ele>567.0</ele><time>2026-05-03T09:54:36.023Z</time></trkpt><trkpt lat="42.2087173" lon="13.6301109"><ele>567.0</ele><time>2026-05-03T09:54:37.033Z</time></trkpt><trkpt lat="42.2088128" lon="13.6299738"><ele>567.0</ele><time>2026-05-03T09:54:38.021Z</time></trkpt><trkpt lat="42.2089103" lon="13.6298356"><ele>567.0</ele><time>2026-05-03T09:54:39.024Z</time></trkpt><trkpt lat="42.2090011" lon="13.6297006"><ele>565.5</ele><time>2026-05-03T09:54:40.025Z</time></trkpt><trkpt lat="42.2090935" lon="13.6295638"><ele>564.0</ele><time>2026-05-03T09:54:41.017Z</time></trkpt><trkpt lat="42.2091845" lon="13.6294173"><ele>562.5</ele><time>2026-05-03T09:54:42.023Z</time></trkpt><trkpt lat="42.2092659" lon="13.6292616"><ele>561.0</ele><time>2026-05-03T09:54:43.019Z</time></trkpt><trkpt lat="42.2093383" lon="13.6290927"><ele>561.0</ele><time>2026-05-03T09:54:44.02Z</time></trkpt><trkpt lat="42.2094047" lon="13.628925"><ele>561.0</ele><time>2026-05-03T09:54:45.032Z</time></trkpt><trkpt lat="42.2094665" lon="13.6287664"><ele>561.0</ele><time>2026-05-03T09:54:46.021Z</time></trkpt><trkpt lat="42.2095261" lon="13.6286165"><ele>561.0</ele><time>2026-05-03T09:54:47.035Z</time></trkpt><trkpt lat="42.2095831" lon="13.6284629"><ele>562.75</ele><time>2026-05-03T09:54:48.03Z</time></trkpt><trkpt lat="42.2096334" lon="13.6283075"><ele>564.5</ele><time>2026-05-03T09:54:49.028Z</time></trkpt><trkpt lat="42.2096757" lon="13.6281404"><ele>566.25</ele><time>2026-05-03T09:54:50.03Z</time></trkpt><trkpt lat="42.2097113" lon="13.6279625"><ele>568.0</ele><time>2026-05-03T09:54:51.015Z</time></trkpt><trkpt lat="42.2097375" lon="13.6277742"><ele>568.0</ele><time>2026-05-03T09:54:52.029Z</time></trkpt><trkpt lat="42.2097634" lon="13.6275863"><ele>568.0</ele><time>2026-05-03T09:54:53.029Z</time></trkpt><trkpt lat="42.2098026" lon="13.6274103"><ele>568.0</ele><time>2026-05-03T09:54:54.016Z</time></trkpt><trkpt lat="42.2098511" lon="13.6272279"><ele>568.0</ele><time>2026-05-03T09:54:55.021Z</time></trkpt><trkpt lat="42.2099158" lon="13.6270577"><ele>565.5</ele><time>2026-05-03T09:54:56.022Z</time></trkpt><trkpt lat="42.2099949" lon="13.6268925"><ele>563.0</ele><time>2026-05-03T09:54:57.03Z</time></trkpt><trkpt lat="42.2100833" lon="13.626735"><ele>560.5</ele><time>2026-05-03T09:54:58.022Z</time></trkpt><trkpt lat="42.2101762" lon="13.6265806"><ele>558.0</ele><time>2026-05-03T09:54:59.017Z</time></trkpt><trkpt lat="42.2102728" lon="13.6264327"><ele>558.0</ele><time>2026-05-03T09:55:00.02Z</time></trkpt><trkpt lat="42.2103662" lon="13.6262891"><ele>558.0</ele><time>2026-05-03T09:55:01.033Z</time></trkpt><trkpt lat="42.2104581" lon="13.6261517"><ele>558.0</ele><time>2026-05-03T09:55:02.024Z</time></trkpt><trkpt lat="42.2105467" lon="13.6260125"><ele>558.0</ele><time>2026-05-03T09:55:03.021Z</time></trkpt><trkpt lat="42.2106393" lon="13.6258693"><ele>558.25</ele><time>2026-05-03T09:55:04.024Z</time></trkpt><trkpt lat="42.2107317" lon="13.62572"><ele>558.5</ele><time>2026-05-03T09:55:05.034Z</time></trkpt><trkpt lat="42.2108193" lon="13.6255552"><ele>558.75</ele><time>2026-05-03T09:55:06.033Z</time></trkpt><trkpt lat="42.2109061" lon="13.6253863"><ele>559.0</ele><time>2026-05-03T09:55:07.036Z</time></trkpt><trkpt lat="42.2109879" lon="13.625217"><ele>561.0</ele><time>2026-05-03T09:55:08.041Z</time></trkpt><trkpt lat="42.2110715" lon="13.6250544"><ele>563.0</ele><time>2026-05-03T09:55:09.015Z</time></trkpt><trkpt lat="42.211155" lon="13.6248984"><ele>565.0</ele><time>2026-05-03T09:55:10.03Z</time></trkpt><trkpt lat="42.2112394" lon="13.6247338"><ele>567.0</ele><time>2026-05-03T09:55:11.017Z</time></trkpt><trkpt lat="42.2113219" lon="13.624565"><ele>568.0</ele><time>2026-05-03T09:55:12.042Z</time></trkpt><trkpt lat="42.2114003" lon="13.6243896"><ele>569.0</ele><time>2026-05-03T09:55:13.024Z</time></trkpt><trkpt lat="42.2114786" lon="13.6242131"><ele>570.0</ele><time>2026-05-03T09:55:14.028Z</time></trkpt><trkpt lat="42.211556" lon="13.6240368"><ele>568.0</ele><time>2026-05-03T09:55:15.033Z</time></trkpt><trkpt lat="42.2116327" lon="13.6238638"><ele>566.0</ele><time>2026-05-03T09:55:16.024Z</time></trkpt><trkpt lat="42.2117054" lon="13.6236961"><ele>564.0</ele><time>2026-05-03T09:55:17.021Z</time></trkpt><trkpt lat="42.21178" lon="13.6235346"><ele>562.0</ele><time>2026-05-03T09:55:18.023Z</time></trkpt><trkpt lat="42.211852" lon="13.6233658"><ele>562.0</ele><time>2026-05-03T09:55:19.025Z</time></trkpt><trkpt lat="42.2119322" lon="13.6231972"><ele>562.0</ele><time>2026-05-03T09:55:20.022Z</time></trkpt><trkpt lat="42.212012" lon="13.6230222"><ele>562.0</ele><time>2026-05-03T09:55:21.02Z</time></trkpt><trkpt lat="42.2120939" lon="13.6228458"><ele>563.3333333333334</ele><time>2026-05-03T09:55:22.017Z</time></trkpt><trkpt lat="42.2121758" lon="13.6226762"><ele>564.6666666666666</ele><time>2026-05-03T09:55:23.023Z</time></trkpt><trkpt lat="42.2122579" lon="13.6225046"><ele>566.0</ele><time>2026-05-03T09:55:24.026Z</time></trkpt><trkpt lat="42.2123381" lon="13.6223322"><ele>564.3333333333333</ele><time>2026-05-03T09:55:25.012Z</time></trkpt><trkpt lat="42.2124158" lon="13.6221638"><ele>562.6666666666666</ele><time>2026-05-03T09:55:26.031Z</time></trkpt><trkpt lat="42.2124974" lon="13.6219859"><ele>561.0</ele><time>2026-05-03T09:55:27.021Z</time></trkpt><trkpt lat="42.2125761" lon="13.6218127"><ele>561.0</ele><time>2026-05-03T09:55:28.023Z</time></trkpt><trkpt lat="42.2126491" lon="13.6216463"><ele>561.0</ele><time>2026-05-03T09:55:29.016Z</time></trkpt><trkpt lat="42.2127233" lon="13.6214764"><ele>561.0</ele><time>2026-05-03T09:55:30.019Z</time></trkpt><trkpt lat="42.2127952" lon="13.6213025"><ele>561.0</ele><time>2026-05-03T09:55:31.019Z</time></trkpt><trkpt lat="42.2128595" lon="13.6211268"><ele>562.5</ele><time>2026-05-03T09:55:32.024Z</time></trkpt><trkpt lat="42.2129168" lon="13.620958"><ele>564.0</ele><time>2026-05-03T09:55:33.011Z</time></trkpt><trkpt lat="42.2129663" lon="13.6207952"><ele>565.5</ele><time>2026-05-03T09:55:34.032Z</time></trkpt><trkpt lat="42.2130264" lon="13.6206387"><ele>567.0</ele><time>2026-05-03T09:55:35.022Z</time></trkpt><trkpt lat="42.2131005" lon="13.620485"><ele>565.5</ele><time>2026-05-03T09:55:36.022Z</time></trkpt><trkpt lat="42.2131878" lon="13.6203344"><ele>564.0</ele><time>2026-05-03T09:55:37.02Z</time></trkpt><trkpt lat="42.2132867" lon="13.6202042"><ele>562.5</ele><time>2026-05-03T09:55:38.028Z</time></trkpt><trkpt lat="42.2133831" lon="13.6200761"><ele>561.0</ele><time>2026-05-03T09:55:39.024Z</time></trkpt><trkpt lat="42.2134741" lon="13.6199395"><ele>561.0</ele><time>2026-05-03T09:55:40.021Z</time></trkpt><trkpt lat="42.2135504" lon="13.6197944"><ele>561.0</ele><time>2026-05-03T09:55:41.029Z</time></trkpt><trkpt lat="42.2136217" lon="13.6196446"><ele>561.0</ele><time>2026-05-03T09:55:42.022Z</time></trkpt><trkpt lat="42.213695" lon="13.6194936"><ele>561.0</ele><time>2026-05-03T09:55:43.022Z</time></trkpt><trkpt lat="42.2137673" lon="13.6193432"><ele>560.25</ele><time>2026-05-03T09:55:44.028Z</time></trkpt><trkpt lat="42.2138438" lon="13.6191904"><ele>559.5</ele><time>2026-05-03T09:55:45.022Z</time></trkpt><trkpt lat="42.2139273" lon="13.6190298"><ele>558.75</ele><time>2026-05-03T09:55:46.018Z</time></trkpt><trkpt lat="42.2140149" lon="13.6188648"><ele>558.0</ele><time>2026-05-03T09:55:47.023Z</time></trkpt><trkpt lat="42.2141086" lon="13.6186999"><ele>559.0</ele><time>2026-05-03T09:55:48.019Z</time></trkpt><trkpt lat="42.2142015" lon="13.618524"><ele>560.0</ele><time>2026-05-03T09:55:49.018Z</time></trkpt><trkpt lat="42.2142943" lon="13.6183409"><ele>561.0</ele><time>2026-05-03T09:55:50.025Z</time></trkpt><trkpt lat="42.2143842" lon="13.6181536"><ele>561.0</ele><time>2026-05-03T09:55:51.017Z</time></trkpt><trkpt lat="42.2144749" lon="13.6179643"><ele>561.0</ele><time>2026-05-03T09:55:52.036Z</time></trkpt><trkpt lat="42.2145611" lon="13.6177837"><ele>561.0</ele><time>2026-05-03T09:55:53.021Z</time></trkpt><trkpt lat="42.2146451" lon="13.6176038"><ele>559.75</ele><time>2026-05-03T09:55:54.027Z</time></trkpt><trkpt lat="42.2147259" lon="13.6174313"><ele>558.5</ele><time>2026-05-03T09:55:55.021Z</time></trkpt><trkpt lat="42.2147978" lon="13.6172536"><ele>557.25</ele><time>2026-05-03T09:55:56.026Z</time></trkpt><trkpt lat="42.2148586" lon="13.6170724"><ele>556.0</ele><time>2026-05-03T09:55:57.029Z</time></trkpt><trkpt lat="42.2149101" lon="13.6168829"><ele>556.0</ele><time>2026-05-03T09:55:58.025Z</time></trkpt><trkpt lat="42.2149521" lon="13.6166862"><ele>556.0</ele><time>2026-05-03T09:55:59.02Z</time></trkpt><trkpt lat="42.2149818" lon="13.6164792"><ele>556.0</ele><time>2026-05-03T09:56:00.022Z</time></trkpt><trkpt lat="42.2150097" lon="13.616269"><ele>557.3333333333334</ele><time>2026-05-03T09:56:01.019Z</time></trkpt><trkpt lat="42.2150392" lon="13.6160668"><ele>558.6666666666666</ele><time>2026-05-03T09:56:02.028Z</time></trkpt><trkpt lat="42.2150817" lon="13.6158741"><ele>560.0</ele><time>2026-05-03T09:56:03.013Z</time></trkpt><trkpt lat="42.2151317" lon="13.6156843"><ele>560.0</ele><time>2026-05-03T09:56:04.031Z</time></trkpt><trkpt lat="42.2151827" lon="13.6154913"><ele>560.0</ele><time>2026-05-03T09:56:05.021Z</time></trkpt><trkpt lat="42.2152394" lon="13.6153042"><ele>560.0</ele><time>2026-05-03T09:56:06.035Z</time></trkpt><trkpt lat="42.2152995" lon="13.6151102"><ele>562.6666666666666</ele><time>2026-05-03T09:56:07.016Z</time></trkpt><trkpt lat="42.2153538" lon="13.6149087"><ele>565.3333333333334</ele><time>2026-05-03T09:56:08.028Z</time></trkpt><trkpt lat="42.2153956" lon="13.6147047"><ele>568.0</ele><time>2026-05-03T09:56:09.02Z</time></trkpt><trkpt lat="42.215428" lon="13.6144962"><ele>569.5</ele><time>2026-05-03T09:56:10.018Z</time></trkpt><trkpt lat="42.2154613" lon="13.6142957"><ele>571.0</ele><time>2026-05-03T09:56:11.02Z</time></trkpt><trkpt lat="42.2154966" lon="13.6140977"><ele>572.5</ele><time>2026-05-03T09:56:12.022Z</time></trkpt><trkpt lat="42.2155378" lon="13.6139137"><ele>574.0</ele><time>2026-05-03T09:56:13.019Z</time></trkpt><trkpt lat="42.2155881" lon="13.6137407"><ele>571.0</ele><time>2026-05-03T09:56:14.023Z</time></trkpt><trkpt lat="42.2156551" lon="13.6135853"><ele>568.0</ele><time>2026-05-03T09:56:15.02Z</time></trkpt><trkpt lat="42.2157313" lon="13.6134397"><ele>565.0</ele><time>2026-05-03T09:56:16.028Z</time></trkpt><trkpt lat="42.215817" lon="13.6133061"><ele>562.0</ele><time>2026-05-03T09:56:17.016Z</time></trkpt><trkpt lat="42.2159031" lon="13.6131722"><ele>562.0</ele><time>2026-05-03T09:56:18.02Z</time></trkpt><trkpt lat="42.2159937" lon="13.6130395"><ele>562.0</ele><time>2026-05-03T09:56:19.04Z</time></trkpt><trkpt lat="42.2160828" lon="13.612906"><ele>562.0</ele><time>2026-05-03T09:56:20.016Z</time></trkpt><trkpt lat="42.2161727" lon="13.6127684"><ele>562.0</ele><time>2026-05-03T09:56:21.019Z</time></trkpt><trkpt lat="42.216255" lon="13.6126316"><ele>566.0</ele><time>2026-05-03T09:56:22.02Z</time></trkpt><trkpt lat="42.2163176" lon="13.6124872"><ele>570.0</ele><time>2026-05-03T09:56:23.02Z</time></trkpt><trkpt lat="42.2163614" lon="13.6123286"><ele>574.0</ele><time>2026-05-03T09:56:24.032Z</time></trkpt><trkpt lat="42.2163873" lon="13.6121556"><ele>578.0</ele><time>2026-05-03T09:56:25.02Z</time></trkpt><trkpt lat="42.2164045" lon="13.6119787"><ele>581.0</ele><time>2026-05-03T09:56:26.024Z</time></trkpt><trkpt lat="42.2164158" lon="13.611799"><ele>584.0</ele><time>2026-05-03T09:56:27.014Z</time></trkpt><trkpt lat="42.2164351" lon="13.6116263"><ele>587.0</ele><time>2026-05-03T09:56:28.015Z</time></trkpt><trkpt lat="42.2164656" lon="13.6114577"><ele>590.0</ele><time>2026-05-03T09:56:29.021Z</time></trkpt><trkpt lat="42.2165035" lon="13.6112903"><ele>585.0</ele><time>2026-05-03T09:56:30.02Z</time></trkpt><trkpt lat="42.2165534" lon="13.6111326"><ele>580.0</ele><time>2026-05-03T09:56:31.026Z</time></trkpt><trkpt lat="42.2166057" lon="13.6109856"><ele>575.0</ele><time>2026-05-03T09:56:32.018Z</time></trkpt><trkpt lat="42.2166592" lon="13.6108368"><ele>570.0</ele><time>2026-05-03T09:56:33.014Z</time></trkpt><trkpt lat="42.2167276" lon="13.6106945"><ele>570.0</ele><time>2026-05-03T09:56:34.021Z</time></trkpt><trkpt lat="42.2168002" lon="13.6105547"><ele>570.0</ele><time>2026-05-03T09:56:35.025Z</time></trkpt><trkpt lat="42.2168697" lon="13.6104147"><ele>570.0</ele><time>2026-05-03T09:56:36.021Z</time></trkpt><trkpt lat="42.216938" lon="13.6102708"><ele>570.0</ele><time>2026-05-03T09:56:37.019Z</time></trkpt><trkpt lat="42.2170017" lon="13.6101294"><ele>573.75</ele><time>2026-05-03T09:56:38.022Z</time></trkpt><trkpt lat="42.2170758" lon="13.6099748"><ele>577.5</ele><time>2026-05-03T09:56:39.017Z</time></trkpt><trkpt lat="42.2171507" lon="13.6098186"><ele>581.25</ele><time>2026-05-03T09:56:40.019Z</time></trkpt><trkpt lat="42.2172189" lon="13.6096727"><ele>585.0</ele><time>2026-05-03T09:56:41.019Z</time></trkpt><trkpt lat="42.217281" lon="13.6095335"><ele>580.75</ele><time>2026-05-03T09:56:42.018Z</time></trkpt><trkpt lat="42.217348" lon="13.609404"><ele>576.5</ele><time>2026-05-03T09:56:43.015Z</time></trkpt><trkpt lat="42.2174284" lon="13.6092866"><ele>572.25</ele><time>2026-05-03T09:56:44.019Z</time></trkpt><trkpt lat="42.2175309" lon="13.6091851"><ele>568.0</ele><time>2026-05-03T09:56:45.026Z</time></trkpt><trkpt lat="42.2176391" lon="13.6090966"><ele>568.0</ele><time>2026-05-03T09:56:46.017Z</time></trkpt><trkpt lat="42.2177508" lon="13.6090248"><ele>568.0</ele><time>2026-05-03T09:56:47.022Z</time></trkpt><trkpt lat="42.2178549" lon="13.6089454"><ele>568.0</ele><time>2026-05-03T09:56:48.015Z</time></trkpt><trkpt lat="42.2179528" lon="13.6088582"><ele>568.0</ele><time>2026-05-03T09:56:49.024Z</time></trkpt><trkpt lat="42.2180461" lon="13.6087623"><ele>568.0</ele><time>2026-05-03T09:56:50.019Z</time></trkpt><trkpt lat="42.2181478" lon="13.6086778"><ele>568.0</ele><time>2026-05-03T09:56:51.016Z</time></trkpt><trkpt lat="42.2182605" lon="13.6086129"><ele>568.0</ele><time>2026-05-03T09:56:52.02Z</time></trkpt><trkpt lat="42.2183862" lon="13.6085593"><ele>568.0</ele><time>2026-05-03T09:56:53.032Z</time></trkpt><trkpt lat="42.2185148" lon="13.6085126"><ele>566.0</ele><time>2026-05-03T09:56:54.011Z</time></trkpt><trkpt lat="42.2186397" lon="13.6084545"><ele>564.0</ele><time>2026-05-03T09:56:55.034Z</time></trkpt><trkpt lat="42.2187614" lon="13.608391"><ele>562.0</ele><time>2026-05-03T09:56:56.024Z</time></trkpt><trkpt lat="42.2188774" lon="13.6083178"><ele>560.0</ele><time>2026-05-03T09:56:57.023Z</time></trkpt><trkpt lat="42.2189868" lon="13.6082371"><ele>555.5</ele><time>2026-05-03T09:56:58.022Z</time></trkpt><trkpt lat="42.2190946" lon="13.6081561"><ele>551.0</ele><time>2026-05-03T09:56:59.026Z</time></trkpt><trkpt lat="42.2191969" lon="13.6080723"><ele>546.5</ele><time>2026-05-03T09:57:00.013Z</time></trkpt><trkpt lat="42.219288" lon="13.6079984"><ele>542.0</ele><time>2026-05-03T09:57:01.023Z</time></trkpt><trkpt lat="42.2193819" lon="13.6079392"><ele>542.0</ele><time>2026-05-03T09:57:02.04Z</time></trkpt><trkpt lat="42.2194826" lon="13.607897"><ele>542.0</ele><time>2026-05-03T09:57:03.034Z</time></trkpt><trkpt lat="42.2195897" lon="13.6078688"><ele>542.0</ele><time>2026-05-03T09:57:04.029Z</time></trkpt><trkpt lat="42.2197013" lon="13.6078401"><ele>542.0</ele><time>2026-05-03T09:57:05.024Z</time></trkpt><trkpt lat="42.2198165" lon="13.6078096"><ele>542.0</ele><time>2026-05-03T09:57:06.026Z</time></trkpt><trkpt lat="42.2199381" lon="13.6077765"><ele>540.5</ele><time>2026-05-03T09:57:07.027Z</time></trkpt><trkpt lat="42.2200604" lon="13.6077229"><ele>539.0</ele><time>2026-05-03T09:57:08.039Z</time></trkpt><trkpt lat="42.2201807" lon="13.6076474"><ele>537.5</ele><time>2026-05-03T09:57:09.032Z</time></trkpt><trkpt lat="42.2202943" lon="13.6075514"><ele>536.0</ele><time>2026-05-03T09:57:10.023Z</time></trkpt><trkpt lat="42.2204001" lon="13.6074424"><ele>536.0</ele><time>2026-05-03T09:57:11.016Z</time></trkpt><trkpt lat="42.2205008" lon="13.6073298"><ele>536.0</ele><time>2026-05-03T09:57:12.028Z</time></trkpt><trkpt lat="42.2205991" lon="13.6072228"><ele>536.0</ele><time>2026-05-03T09:57:13.017Z</time></trkpt><trkpt lat="42.2206941" lon="13.6071284"><ele>536.0</ele><time>2026-05-03T09:57:14.024Z</time></trkpt><trkpt lat="42.2207779" lon="13.6070434"><ele>535.8333333333333</ele><time>2026-05-03T09:57:15.022Z</time></trkpt><trkpt lat="42.2208611" lon="13.6069778"><ele>535.6666666666666</ele><time>2026-05-03T09:57:16.029Z</time></trkpt><trkpt lat="42.2209445" lon="13.6069422"><ele>535.5</ele><time>2026-05-03T09:57:17.013Z</time></trkpt><trkpt lat="42.2210179" lon="13.6069483"><ele>535.3333333333334</ele><time>2026-05-03T09:57:18.03Z</time></trkpt><trkpt lat="42.2210779" lon="13.606983"><ele>535.1666666666667</ele><time>2026-05-03T09:57:19.034Z</time></trkpt><trkpt lat="42.2211294" lon="13.6070417"><ele>535.0</ele><time>2026-05-03T09:57:20.026Z</time></trkpt><trkpt lat="42.2211866" lon="13.6071146"><ele>533.4</ele><time>2026-05-03T09:57:21.005Z</time></trkpt><trkpt lat="42.2212506" lon="13.6071927"><ele>531.8</ele><time>2026-05-03T09:57:22.017Z</time></trkpt><trkpt lat="42.2213272" lon="13.607287"><ele>530.2</ele><time>2026-05-03T09:57:23.018Z</time></trkpt><trkpt lat="42.2214107" lon="13.6073874"><ele>528.6</ele><time>2026-05-03T09:57:24.019Z</time></trkpt><trkpt lat="42.2214973" lon="13.6074975"><ele>527.0</ele><time>2026-05-03T09:57:25.016Z</time></trkpt><trkpt lat="42.2215907" lon="13.6076119"><ele>526.4</ele><time>2026-05-03T09:57:26.034Z</time></trkpt><trkpt lat="42.2216793" lon="13.6077213"><ele>525.8000000000001</ele><time>2026-05-03T09:57:27.015Z</time></trkpt><trkpt lat="42.2217599" lon="13.6078197"><ele>525.2</ele><time>2026-05-03T09:57:28.018Z</time></trkpt><trkpt lat="42.2218418" lon="13.6079079"><ele>524.6</ele><time>2026-05-03T09:57:29.015Z</time></trkpt><trkpt lat="42.2219301" lon="13.6079829"><ele>524.0</ele><time>2026-05-03T09:57:30.031Z</time></trkpt><trkpt lat="42.2220271" lon="13.6080447"><ele>524.0</ele><time>2026-05-03T09:57:31.008Z</time></trkpt><trkpt lat="42.2221164" lon="13.6081066"><ele>524.0</ele><time>2026-05-03T09:57:32.02Z</time></trkpt><trkpt lat="42.2222057" lon="13.6081849"><ele>524.0</ele><time>2026-05-03T09:57:33.011Z</time></trkpt><trkpt lat="42.2222865" lon="13.608278"><ele>524.0</ele><time>2026-05-03T09:57:34.039Z</time></trkpt><trkpt lat="42.2223688" lon="13.608399"><ele>524.0</ele><time>2026-05-03T09:57:35.029Z</time></trkpt><trkpt lat="42.2224719" lon="13.6085316"><ele>528.3333333333333</ele><time>2026-05-03T09:57:36.023Z</time></trkpt><trkpt lat="42.2225963" lon="13.6086699"><ele>532.6666666666666</ele><time>2026-05-03T09:57:37.028Z</time></trkpt><trkpt lat="42.2227291" lon="13.6088168"><ele>537.0</ele><time>2026-05-03T09:57:38.019Z</time></trkpt><trkpt lat="42.2228736" lon="13.6089765"><ele>537.0</ele><time>2026-05-03T09:57:39.021Z</time></trkpt><trkpt lat="42.22302" lon="13.6091462"><ele>537.0</ele><time>2026-05-03T09:57:40.026Z</time></trkpt><trkpt lat="42.2231645" lon="13.6093071"><ele>537.0</ele><time>2026-05-03T09:57:41.023Z</time></trkpt><trkpt lat="42.2232979" lon="13.6094636"><ele>542.6666666666666</ele><time>2026-05-03T09:57:42.02Z</time></trkpt><trkpt lat="42.2234234" lon="13.6096088"><ele>548.3333333333333</ele><time>2026-05-03T09:57:43.01Z</time></trkpt><trkpt lat="42.2235433" lon="13.6097356"><ele>554.0</ele><time>2026-05-03T09:57:44.022Z</time></trkpt><trkpt lat="42.2236567" lon="13.6098544"><ele>554.0</ele><time>2026-05-03T09:57:45.017Z</time></trkpt><trkpt lat="42.2237526" lon="13.6099576"><ele>554.0</ele><time>2026-05-03T09:57:46.024Z</time></trkpt><trkpt lat="42.2238329" lon="13.6100475"><ele>554.0</ele><time>2026-05-03T09:57:47.027Z</time></trkpt><trkpt lat="42.2238967" lon="13.6101337"><ele>554.0</ele><time>2026-05-03T09:57:48.015Z</time></trkpt><trkpt lat="42.2239428" lon="13.6102351"><ele>554.0</ele><time>2026-05-03T09:57:49.022Z</time></trkpt><trkpt lat="42.2239638" lon="13.6103433"><ele>555.0</ele><time>2026-05-03T09:57:50.02Z</time></trkpt><trkpt lat="42.22397" lon="13.610462"><ele>556.0</ele><time>2026-05-03T09:57:51.014Z</time></trkpt><trkpt lat="42.2239499" lon="13.6106052"><ele>557.0</ele><time>2026-05-03T09:57:52.02Z</time></trkpt><trkpt lat="42.2239135" lon="13.6107824"><ele>558.0</ele><time>2026-05-03T09:57:53.016Z</time></trkpt><trkpt lat="42.2238703" lon="13.6109625"><ele>558.0</ele><time>2026-05-03T09:57:54.023Z</time></trkpt><trkpt lat="42.2238335" lon="13.611118"><ele>558.0</ele><time>2026-05-03T09:57:55.017Z</time></trkpt><trkpt lat="42.2238072" lon="13.6112268"><ele>558.0</ele><time>2026-05-03T09:57:56.006Z</time></trkpt><trkpt lat="42.2238033" lon="13.6113161"><ele>558.0</ele><time>2026-05-03T09:57:57.02Z</time></trkpt><trkpt lat="42.2238284" lon="13.6114059"><ele>558.0</ele><time>2026-05-03T09:57:58.019Z</time></trkpt><trkpt lat="42.2238897" lon="13.6114853"><ele>558.0</ele><time>2026-05-03T09:57:59.017Z</time></trkpt><trkpt lat="42.2239614" lon="13.6115528"><ele>561.3333333333334</ele><time>2026-05-03T09:58:00.02Z</time></trkpt><trkpt lat="42.2240346" lon="13.6116165"><ele>564.6666666666666</ele><time>2026-05-03T09:58:01.022Z</time></trkpt><trkpt lat="42.2241034" lon="13.6116474"><ele>568.0</ele><time>2026-05-03T09:58:02.014Z</time></trkpt><trkpt lat="42.2241712" lon="13.6116466"><ele>571.3333333333333</ele><time>2026-05-03T09:58:03.012Z</time></trkpt><trkpt lat="42.22424" lon="13.611608"><ele>574.6666666666666</ele><time>2026-05-03T09:58:04.021Z</time></trkpt><trkpt lat="42.2243003" lon="13.6115246"><ele>578.0</ele><time>2026-05-03T09:58:05.018Z</time></trkpt><trkpt lat="42.224365" lon="13.6114098"><ele>578.0</ele><time>2026-05-03T09:58:06.023Z</time></trkpt><trkpt lat="42.2244401" lon="13.6113002"><ele>578.0</ele><time>2026-05-03T09:58:07.012Z</time></trkpt><trkpt lat="42.2245018" lon="13.6112074"><ele>578.0</ele><time>2026-05-03T09:58:08.023Z</time></trkpt><trkpt lat="42.2245579" lon="13.6111473"><ele>578.0</ele><time>2026-05-03T09:58:09.008Z</time></trkpt><trkpt lat="42.2246292" lon="13.611097"><ele>578.0</ele><time>2026-05-03T09:58:10.02Z</time></trkpt><trkpt lat="42.2247115" lon="13.6110642"><ele>578.0</ele><time>2026-05-03T09:58:11.013Z</time></trkpt><trkpt lat="42.2248177" lon="13.6110518"><ele>582.0</ele><time>2026-05-03T09:58:12.031Z</time></trkpt><trkpt lat="42.2249238" lon="13.6110382"><ele>586.0</ele><time>2026-05-03T09:58:13.014Z</time></trkpt><trkpt lat="42.2250164" lon="13.6110193"><ele>590.0</ele><time>2026-05-03T09:58:14.015Z</time></trkpt><trkpt lat="42.2250912" lon="13.61098"><ele>594.0</ele><time>2026-05-03T09:58:15.016Z</time></trkpt><trkpt lat="42.2251698" lon="13.6109056"><ele>598.0</ele><time>2026-05-03T09:58:16.021Z</time></trkpt><trkpt lat="42.2252362" lon="13.6107977"><ele>598.0</ele><time>2026-05-03T09:58:17.019Z</time></trkpt><trkpt lat="42.2253004" lon="13.6106723"><ele>598.0</ele><time>2026-05-03T09:58:18.017Z</time></trkpt><trkpt lat="42.225361" lon="13.6105414"><ele>598.0</ele><time>2026-05-03T09:58:19.024Z</time></trkpt><trkpt lat="42.2254219" lon="13.6104229"><ele>598.0</ele><time>2026-05-03T09:58:20.023Z</time></trkpt><trkpt lat="42.2254849" lon="13.6103229"><ele>598.0</ele><time>2026-05-03T09:58:21.034Z</time></trkpt><trkpt lat="42.2255437" lon="13.6102392"><ele>597.3333333333334</ele><time>2026-05-03T09:58:22.021Z</time></trkpt><trkpt lat="42.2255856" lon="13.6101491"><ele>596.6666666666667</ele><time>2026-05-03T09:58:23.023Z</time></trkpt><trkpt lat="42.2255994" lon="13.6100455"><ele>596.0</ele><time>2026-05-03T09:58:24.032Z</time></trkpt><trkpt lat="42.2255835" lon="13.6099337"><ele>595.3333333333334</ele><time>2026-05-03T09:58:25.014Z</time></trkpt><trkpt lat="42.2255622" lon="13.609813"><ele>594.6666666666666</ele><time>2026-05-03T09:58:26.021Z</time></trkpt><trkpt lat="42.2255372" lon="13.6096849"><ele>594.0</ele><time>2026-05-03T09:58:27.025Z</time></trkpt><trkpt lat="42.2255183" lon="13.6095562"><ele>594.3333333333334</ele><time>2026-05-03T09:58:28.021Z</time></trkpt><trkpt lat="42.2255108" lon="13.609434"><ele>594.6666666666666</ele><time>2026-05-03T09:58:29.017Z</time></trkpt><trkpt lat="42.225523" lon="13.6093307"><ele>595.0</ele><time>2026-05-03T09:58:30.028Z</time></trkpt><trkpt lat="42.2255572" lon="13.6092408"><ele>595.3333333333333</ele><time>2026-05-03T09:58:31.023Z</time></trkpt><trkpt lat="42.2255978" lon="13.6091695"><ele>595.6666666666666</ele><time>2026-05-03T09:58:32.025Z</time></trkpt><trkpt lat="42.2256579" lon="13.6091304"><ele>596.0</ele><time>2026-05-03T09:58:33.022Z</time></trkpt><trkpt lat="42.2257319" lon="13.6091197"><ele>601.3333333333333</ele><time>2026-05-03T09:58:34.033Z</time></trkpt><trkpt lat="42.2258075" lon="13.6091287"><ele>606.6666666666666</ele><time>2026-05-03T09:58:35.02Z</time></trkpt><trkpt lat="42.2258964" lon="13.6091392"><ele>612.0</ele><time>2026-05-03T09:58:36.017Z</time></trkpt><trkpt lat="42.2259874" lon="13.6091473"><ele>617.3333333333334</ele><time>2026-05-03T09:58:37.019Z</time></trkpt><trkpt lat="42.2260733" lon="13.6091474"><ele>622.6666666666667</ele><time>2026-05-03T09:58:38.015Z</time></trkpt><trkpt lat="42.2261473" lon="13.6091211"><ele>628.0</ele><time>2026-05-03T09:58:39.023Z</time></trkpt><trkpt lat="42.2262197" lon="13.6090711"><ele>628.0</ele><time>2026-05-03T09:58:40.017Z</time></trkpt><trkpt lat="42.2262833" lon="13.6089922"><ele>628.0</ele><time>2026-05-03T09:58:41.014Z</time></trkpt><trkpt lat="42.2263439" lon="13.6088903"><ele>628.0</ele><time>2026-05-03T09:58:42.042Z</time></trkpt><trkpt lat="42.2264131" lon="13.6087858"><ele>628.0</ele><time>2026-05-03T09:58:43.014Z</time></trkpt><trkpt lat="42.2264788" lon="13.6087075"><ele>628.0</ele><time>2026-05-03T09:58:44.019Z</time></trkpt><trkpt lat="42.2265463" lon="13.6086539"><ele>630.8333333333334</ele><time>2026-05-03T09:58:45.012Z</time></trkpt><trkpt lat="42.2266231" lon="13.6086087"><ele>633.6666666666667</ele><time>2026-05-03T09:58:46.022Z</time></trkpt><trkpt lat="42.2267072" lon="13.6085703"><ele>636.5</ele><time>2026-05-03T09:58:47.025Z</time></trkpt><trkpt lat="42.2267898" lon="13.6085335"><ele>639.3333333333334</ele><time>2026-05-03T09:58:48.02Z</time></trkpt><trkpt lat="42.2268695" lon="13.6084921"><ele>642.1666666666666</ele><time>2026-05-03T09:58:49.013Z</time></trkpt><trkpt lat="42.2269394" lon="13.6084335"><ele>645.0</ele><time>2026-05-03T09:58:50.02Z</time></trkpt><trkpt lat="42.2270058" lon="13.6083718"><ele>645.0</ele><time>2026-05-03T09:58:51.008Z</time></trkpt><trkpt lat="42.2270551" lon="13.6083069"><ele>645.0</ele><time>2026-05-03T09:58:52.024Z</time></trkpt><trkpt lat="42.2271169" lon="13.6082604"><ele>645.0</ele><time>2026-05-03T09:58:53.017Z</time></trkpt><trkpt lat="42.2271853" lon="13.608232"><ele>645.0</ele><time>2026-05-03T09:58:54.034Z</time></trkpt><trkpt lat="42.2272605" lon="13.6082261"><ele>645.0</ele><time>2026-05-03T09:58:55.022Z</time></trkpt><trkpt lat="42.227337" lon="13.6082695"><ele>645.0</ele><time>2026-05-03T09:58:56.014Z</time></trkpt><trkpt lat="42.227412" lon="13.6083412"><ele>647.0</ele><time>2026-05-03T09:58:57.03Z</time></trkpt><trkpt lat="42.2274905" lon="13.6084079"><ele>649.0</ele><time>2026-05-03T09:58:58.021Z</time></trkpt><trkpt lat="42.2275678" lon="13.6084507"><ele>651.0</ele><time>2026-05-03T09:58:59.007Z</time></trkpt><trkpt lat="42.2276313" lon="13.6084767"><ele>653.0</ele><time>2026-05-03T09:59:00.028Z</time></trkpt><trkpt lat="42.22771" lon="13.6085238"><ele>655.0</ele><time>2026-05-03T09:59:02.025Z</time></trkpt><trkpt lat="42.227782" lon="13.6085111"><ele>657.0</ele><time>2026-05-03T09:59:04.028Z</time></trkpt><trkpt lat="42.2278574" lon="13.6084298"><ele>657.0</ele><time>2026-05-03T09:59:06.021Z</time></trkpt><trkpt lat="42.2279549" lon="13.6083382"><ele>657.0</ele><time>2026-05-03T09:59:08.02Z</time></trkpt><trkpt lat="42.2280143" lon="13.608291"><ele>657.0</ele><time>2026-05-03T09:59:09.014Z</time></trkpt><trkpt lat="42.2280689" lon="13.6082459"><ele>657.0</ele><time>2026-05-03T09:59:10.021Z</time></trkpt><trkpt lat="42.2281488" lon="13.6081584"><ele>657.0</ele><time>2026-05-03T09:59:12.018Z</time></trkpt><trkpt lat="42.2282156" lon="13.6080671"><ele>657.6666666666666</ele><time>2026-05-03T09:59:14.012Z</time></trkpt><trkpt lat="42.2282648" lon="13.6079854"><ele>658.3333333333334</ele><time>2026-05-03T09:59:16.012Z</time></trkpt><trkpt lat="42.2283091" lon="13.6079121"><ele>659.0</ele><time>2026-05-03T09:59:18.026Z</time></trkpt><trkpt lat="42.2283499" lon="13.6078437"><ele>659.6666666666667</ele><time>2026-05-03T09:59:20.024Z</time></trkpt><trkpt lat="42.2284057" lon="13.607764"><ele>660.3333333333334</ele><time>2026-05-03T09:59:23.019Z</time></trkpt><trkpt lat="42.2284443" lon="13.6076949"><ele>661.0</ele><time>2026-05-03T09:59:31.022Z</time></trkpt><trkpt lat="42.2285295" lon="13.6075719"><ele>661.0</ele><time>2026-05-03T09:59:33.014Z</time></trkpt><trkpt lat="42.2285781" lon="13.6075138"><ele>661.0</ele><time>2026-05-03T09:59:34.052Z</time></trkpt><trkpt lat="42.2286565" lon="13.6074057"><ele>661.0</ele><time>2026-05-03T09:59:36.037Z</time></trkpt><trkpt lat="42.2287005" lon="13.6073441"><ele>661.0</ele><time>2026-05-03T09:59:37.015Z</time></trkpt><trkpt lat="42.2287478" lon="13.607287"><ele>661.0</ele><time>2026-05-03T09:59:38.016Z</time></trkpt><trkpt lat="42.2288005" lon="13.6072341"><ele>661.0</ele><time>2026-05-03T09:59:39.026Z</time></trkpt><trkpt lat="42.2288948" lon="13.6071317"><ele>662.0</ele><time>2026-05-03T09:59:41.032Z</time></trkpt><trkpt lat="42.2289846" lon="13.6070449"><ele>663.0</ele><time>2026-05-03T09:59:43.02Z</time></trkpt><trkpt lat="42.2290752" lon="13.6069531"><ele>664.0</ele><time>2026-05-03T09:59:45.022Z</time></trkpt><trkpt lat="42.2291275" lon="13.6069023"><ele>665.0</ele><time>2026-05-03T09:59:46.02Z</time></trkpt><trkpt lat="42.2292138" lon="13.6067988"><ele>666.0</ele><time>2026-05-03T09:59:48.023Z</time></trkpt><trkpt lat="42.2292977" lon="13.6066948"><ele>666.0</ele><time>2026-05-03T09:59:50.024Z</time></trkpt><trkpt lat="42.2293483" lon="13.6066389"><ele>666.0</ele><time>2026-05-03T09:59:51.032Z</time></trkpt><trkpt lat="42.2293926" lon="13.6065768"><ele>666.0</ele><time>2026-05-03T09:59:52.021Z</time></trkpt><trkpt lat="42.2294316" lon="13.60651"><ele>666.0</ele><time>2026-05-03T09:59:53.014Z</time></trkpt><trkpt lat="42.2295097" lon="13.6064021"><ele>666.0</ele><time>2026-05-03T09:59:55.016Z</time></trkpt><trkpt lat="42.229603" lon="13.606329"><ele>666.0</ele><time>2026-05-03T09:59:57.022Z</time></trkpt><trkpt lat="42.2297062" lon="13.6062876"><ele>668.0</ele><time>2026-05-03T09:59:59.017Z</time></trkpt><trkpt lat="42.229831" lon="13.6062968"><ele>670.0</ele><time>2026-05-03T10:00:01.019Z</time></trkpt><trkpt lat="42.2298989" lon="13.6063039"><ele>672.0</ele><time>2026-05-03T10:00:02.016Z</time></trkpt><trkpt lat="42.2299797" lon="13.6063023"><ele>674.0</ele><time>2026-05-03T10:00:03.02Z</time></trkpt><trkpt lat="42.2300592" lon="13.6062931"><ele>676.0</ele><time>2026-05-03T10:00:04.021Z</time></trkpt><trkpt lat="42.2301348" lon="13.6062915"><ele>678.0</ele><time>2026-05-03T10:00:05.031Z</time></trkpt><trkpt lat="42.2302055" lon="13.6062992"><ele>678.0</ele><time>2026-05-03T10:00:06.025Z</time></trkpt><trkpt lat="42.2302672" lon="13.6063205"><ele>678.0</ele><time>2026-05-03T10:00:07.015Z</time></trkpt><trkpt lat="42.2303287" lon="13.6063532"><ele>678.0</ele><time>2026-05-03T10:00:08.023Z</time></trkpt><trkpt lat="42.2303927" lon="13.6063852"><ele>678.0</ele><time>2026-05-03T10:00:09.018Z</time></trkpt><trkpt lat="42.2304609" lon="13.6064109"><ele>678.0</ele><time>2026-05-03T10:00:10.024Z</time></trkpt><trkpt lat="42.2305844" lon="13.6063784"><ele>678.0</ele><time>2026-05-03T10:00:12.023Z</time></trkpt><trkpt lat="42.2306339" lon="13.6063242"><ele>678.0</ele><time>2026-05-03T10:00:13.016Z</time></trkpt><trkpt lat="42.2306694" lon="13.6062532"><ele>678.0</ele><time>2026-05-03T10:00:14.037Z</time></trkpt><trkpt lat="42.2306904" lon="13.6061661"><ele>678.0</ele><time>2026-05-03T10:00:15.013Z</time></trkpt><trkpt lat="42.2307009" lon="13.6060718"><ele>678.0</ele><time>2026-05-03T10:00:16.019Z</time></trkpt><trkpt lat="42.2307022" lon="13.6059853"><ele>678.0</ele><time>2026-05-03T10:00:17.027Z</time></trkpt><trkpt lat="42.2306955" lon="13.6058375"><ele>678.0</ele><time>2026-05-03T10:00:19.019Z</time></trkpt><trkpt lat="42.2306771" lon="13.6057539"><ele>678.0</ele><time>2026-05-03T10:00:21.016Z</time></trkpt><trkpt lat="42.2306435" lon="13.6056783"><ele>677.2</ele><time>2026-05-03T10:05:09.022Z</time></trkpt><trkpt lat="42.2305711" lon="13.6055464"><ele>676.4</ele><time>2026-05-03T10:05:11.032Z</time></trkpt><trkpt lat="42.2305412" lon="13.6054559"><ele>675.6</ele><time>2026-05-03T10:05:12.025Z</time></trkpt><trkpt lat="42.2305548" lon="13.6052797"><ele>674.8000000000001</ele><time>2026-05-03T10:05:14.043Z</time></trkpt><trkpt lat="42.2306084" lon="13.6052005"><ele>674.0</ele><time>2026-05-03T10:05:15.01Z</time></trkpt><trkpt lat="42.2306822" lon="13.6051725"><ele>674.0</ele><time>2026-05-03T10:05:16.022Z</time></trkpt><trkpt lat="42.2307564" lon="13.6051829"><ele>674.0</ele><time>2026-05-03T10:05:17.029Z</time></trkpt><trkpt lat="42.2308337" lon="13.6052317"><ele>674.0</ele><time>2026-05-03T10:05:18.02Z</time></trkpt><trkpt lat="42.2309257" lon="13.6052848"><ele>674.0</ele><time>2026-05-03T10:05:19.026Z</time></trkpt><trkpt lat="42.2310228" lon="13.605335"><ele>674.0</ele><time>2026-05-03T10:05:20.015Z</time></trkpt><trkpt lat="42.2311159" lon="13.6053786"><ele>674.6</ele><time>2026-05-03T10:05:21.028Z</time></trkpt><trkpt lat="42.2312082" lon="13.6054259"><ele>675.2</ele><time>2026-05-03T10:05:22.047Z</time></trkpt><trkpt lat="42.2313011" lon="13.6054639"><ele>675.8000000000001</ele><time>2026-05-03T10:05:23.021Z</time></trkpt><trkpt lat="42.2313993" lon="13.6054755"><ele>676.4000000000001</ele><time>2026-05-03T10:05:24.033Z</time></trkpt><trkpt lat="42.2314983" lon="13.6054573"><ele>677.0</ele><time>2026-05-03T10:05:25.018Z</time></trkpt><trkpt lat="42.2315911" lon="13.6054088"><ele>678.2</ele><time>2026-05-03T10:05:26.017Z</time></trkpt><trkpt lat="42.2316637" lon="13.6053253"><ele>679.4000000000001</ele><time>2026-05-03T10:05:27.029Z</time></trkpt><trkpt lat="42.2317205" lon="13.605212"><ele>680.5999999999999</ele><time>2026-05-03T10:05:28.034Z</time></trkpt><trkpt lat="42.2317724" lon="13.6050887"><ele>681.8</ele><time>2026-05-03T10:05:29.016Z</time></trkpt><trkpt lat="42.2318138" lon="13.604966"><ele>683.0</ele><time>2026-05-03T10:05:30.036Z</time></trkpt><trkpt lat="42.231859" lon="13.6048443"><ele>683.0</ele><time>2026-05-03T10:05:31.02Z</time></trkpt><trkpt lat="42.2319061" lon="13.604712"><ele>683.0</ele><time>2026-05-03T10:05:32.036Z</time></trkpt><trkpt lat="42.2319532" lon="13.6045703"><ele>683.0</ele><time>2026-05-03T10:05:33.029Z</time></trkpt><trkpt lat="42.2320005" lon="13.6044251"><ele>683.0</ele><time>2026-05-03T10:05:34.028Z</time></trkpt><trkpt lat="42.2320529" lon="13.6042764"><ele>684.25</ele><time>2026-05-03T10:05:35.017Z</time></trkpt><trkpt lat="42.2321083" lon="13.6041274"><ele>685.5</ele><time>2026-05-03T10:05:36.037Z</time></trkpt><trkpt lat="42.2321719" lon="13.603978"><ele>686.75</ele><time>2026-05-03T10:05:37.027Z</time></trkpt><trkpt lat="42.2322279" lon="13.6038245"><ele>688.0</ele><time>2026-05-03T10:05:38.03Z</time></trkpt><trkpt lat="42.2322781" lon="13.6036727"><ele>689.0</ele><time>2026-05-03T10:05:39.029Z</time></trkpt><trkpt lat="42.2323253" lon="13.6035262"><ele>690.0</ele><time>2026-05-03T10:05:40.031Z</time></trkpt><trkpt lat="42.2323776" lon="13.6033808"><ele>691.0</ele><time>2026-05-03T10:05:41.022Z</time></trkpt><trkpt lat="42.232426" lon="13.6032362"><ele>692.0</ele><time>2026-05-03T10:05:42.032Z</time></trkpt><trkpt lat="42.2324752" lon="13.6030921"><ele>692.0</ele><time>2026-05-03T10:05:43.044Z</time></trkpt><trkpt lat="42.2325262" lon="13.6029508"><ele>692.0</ele><time>2026-05-03T10:05:44.015Z</time></trkpt><trkpt lat="42.2325764" lon="13.6028086"><ele>692.0</ele><time>2026-05-03T10:05:45.042Z</time></trkpt><trkpt lat="42.2326287" lon="13.6026643"><ele>692.0</ele><time>2026-05-03T10:05:46.024Z</time></trkpt><trkpt lat="42.23268" lon="13.602524"><ele>693.0</ele><time>2026-05-03T10:05:47.027Z</time></trkpt><trkpt lat="42.2327288" lon="13.6023743"><ele>694.0</ele><time>2026-05-03T10:05:48.028Z</time></trkpt><trkpt lat="42.2327765" lon="13.6022281"><ele>695.0</ele><time>2026-05-03T10:05:49.022Z</time></trkpt><trkpt lat="42.2328296" lon="13.6020814"><ele>696.0</ele><time>2026-05-03T10:05:50.043Z</time></trkpt><trkpt lat="42.2328818" lon="13.601937"><ele>698.0</ele><time>2026-05-03T10:05:51.013Z</time></trkpt><trkpt lat="42.2329374" lon="13.6017946"><ele>700.0</ele><time>2026-05-03T10:05:52.035Z</time></trkpt><trkpt lat="42.2329918" lon="13.6016479"><ele>702.0</ele><time>2026-05-03T10:05:53.024Z</time></trkpt><trkpt lat="42.2330535" lon="13.6015003"><ele>704.0</ele><time>2026-05-03T10:05:54.031Z</time></trkpt><trkpt lat="42.2331183" lon="13.6013552"><ele>703.25</ele><time>2026-05-03T10:05:55.014Z</time></trkpt><trkpt lat="42.233192" lon="13.601212"><ele>702.5</ele><time>2026-05-03T10:05:56.015Z</time></trkpt><trkpt lat="42.2332722" lon="13.6010706"><ele>701.75</ele><time>2026-05-03T10:05:57.022Z</time></trkpt><trkpt lat="42.2333557" lon="13.6009316"><ele>701.0</ele><time>2026-05-03T10:05:58.023Z</time></trkpt><trkpt lat="42.2334464" lon="13.6007977"><ele>701.0</ele><time>2026-05-03T10:05:59.026Z</time></trkpt><trkpt lat="42.2335394" lon="13.6006658"><ele>701.0</ele><time>2026-05-03T10:06:00.026Z</time></trkpt><trkpt lat="42.2336435" lon="13.6005369"><ele>701.0</ele><time>2026-05-03T10:06:01.02Z</time></trkpt><trkpt lat="42.233748" lon="13.6004086"><ele>701.0</ele><time>2026-05-03T10:06:02.035Z</time></trkpt><trkpt lat="42.2338508" lon="13.6002867"><ele>701.75</ele><time>2026-05-03T10:06:03.03Z</time></trkpt><trkpt lat="42.2339534" lon="13.6001594"><ele>702.5</ele><time>2026-05-03T10:06:04.041Z</time></trkpt><trkpt lat="42.2340593" lon="13.6000384"><ele>703.25</ele><time>2026-05-03T10:06:05.022Z</time></trkpt><trkpt lat="42.2341663" lon="13.59991"><ele>704.0</ele><time>2026-05-03T10:06:06.016Z</time></trkpt><trkpt lat="42.2342763" lon="13.5997803"><ele>704.25</ele><time>2026-05-03T10:06:07.017Z</time></trkpt><trkpt lat="42.2343882" lon="13.59965"><ele>704.5</ele><time>2026-05-03T10:06:08.018Z</time></trkpt><trkpt lat="42.2345019" lon="13.5995149"><ele>704.75</ele><time>2026-05-03T10:06:09.017Z</time></trkpt><trkpt lat="42.2346168" lon="13.5993851"><ele>705.0</ele><time>2026-05-03T10:06:10.018Z</time></trkpt><trkpt lat="42.2347263" lon="13.5992711"><ele>705.75</ele><time>2026-05-03T10:06:11.026Z</time></trkpt><trkpt lat="42.2348326" lon="13.599171"><ele>706.5</ele><time>2026-05-03T10:06:12.025Z</time></trkpt><trkpt lat="42.2349455" lon="13.5990815"><ele>707.25</ele><time>2026-05-03T10:06:13.014Z</time></trkpt><trkpt lat="42.2350601" lon="13.5989951"><ele>708.0</ele><time>2026-05-03T10:06:14.035Z</time></trkpt><trkpt lat="42.2351766" lon="13.5989055"><ele>708.0</ele><time>2026-05-03T10:06:15.03Z</time></trkpt><trkpt lat="42.2352904" lon="13.5988178"><ele>708.0</ele><time>2026-05-03T10:06:16.022Z</time></trkpt><trkpt lat="42.2354051" lon="13.5987276"><ele>708.0</ele><time>2026-05-03T10:06:17.018Z</time></trkpt><trkpt lat="42.2355157" lon="13.598635"><ele>708.0</ele><time>2026-05-03T10:06:18.029Z</time></trkpt><trkpt lat="42.2356269" lon="13.5985416"><ele>707.5</ele><time>2026-05-03T10:06:19.026Z</time></trkpt><trkpt lat="42.2357361" lon="13.5984422"><ele>707.0</ele><time>2026-05-03T10:06:20.032Z</time></trkpt><trkpt lat="42.2358438" lon="13.5983333"><ele>706.5</ele><time>2026-05-03T10:06:21.013Z</time></trkpt><trkpt lat="42.2359508" lon="13.5982202"><ele>706.0</ele><time>2026-05-03T10:06:22.045Z</time></trkpt><trkpt lat="42.2360617" lon="13.598102"><ele>706.0</ele><time>2026-05-03T10:06:23.016Z</time></trkpt><trkpt lat="42.2361767" lon="13.5979822"><ele>706.0</ele><time>2026-05-03T10:06:24.026Z</time></trkpt><trkpt lat="42.2362888" lon="13.5978608"><ele>706.0</ele><time>2026-05-03T10:06:25.028Z</time></trkpt><trkpt lat="42.2363995" lon="13.5977363"><ele>706.0</ele><time>2026-05-03T10:06:26.021Z</time></trkpt><trkpt lat="42.2365053" lon="13.5976039"><ele>707.25</ele><time>2026-05-03T10:06:27.019Z</time></trkpt><trkpt lat="42.236605" lon="13.5974707"><ele>708.5</ele><time>2026-05-03T10:06:28.021Z</time></trkpt><trkpt lat="42.2367038" lon="13.5973364"><ele>709.75</ele><time>2026-05-03T10:06:29.017Z</time></trkpt><trkpt lat="42.2368015" lon="13.5971981"><ele>711.0</ele><time>2026-05-03T10:06:30.026Z</time></trkpt><trkpt lat="42.2368959" lon="13.5970617"><ele>710.25</ele><time>2026-05-03T10:06:31.026Z</time></trkpt><trkpt lat="42.2369827" lon="13.5969241"><ele>709.5</ele><time>2026-05-03T10:06:32.032Z</time></trkpt><trkpt lat="42.2370645" lon="13.5967836"><ele>708.75</ele><time>2026-05-03T10:06:33.029Z</time></trkpt><trkpt lat="42.2371406" lon="13.5966515"><ele>708.0</ele><time>2026-05-03T10:06:34.032Z</time></trkpt><trkpt lat="42.2372167" lon="13.5965231"><ele>708.0</ele><time>2026-05-03T10:06:35.03Z</time></trkpt><trkpt lat="42.2373012" lon="13.596397"><ele>708.0</ele><time>2026-05-03T10:06:36.024Z</time></trkpt><trkpt lat="42.2373976" lon="13.596277"><ele>708.0</ele><time>2026-05-03T10:06:37.024Z</time></trkpt><trkpt lat="42.2375014" lon="13.5961646"><ele>708.0</ele><time>2026-05-03T10:06:38.016Z</time></trkpt><trkpt lat="42.2376083" lon="13.5960384"><ele>709.0</ele><time>2026-05-03T10:06:39.03Z</time></trkpt><trkpt lat="42.2377179" lon="13.5959183"><ele>710.0</ele><time>2026-05-03T10:06:40.02Z</time></trkpt><trkpt lat="42.2378324" lon="13.5958017"><ele>711.0</ele><time>2026-05-03T10:06:41.028Z</time></trkpt><trkpt lat="42.2379446" lon="13.5956938"><ele>712.0</ele><time>2026-05-03T10:06:42.028Z</time></trkpt><trkpt lat="42.2380538" lon="13.5955922"><ele>712.75</ele><time>2026-05-03T10:06:43.02Z</time></trkpt><trkpt lat="42.2381655" lon="13.5955001"><ele>713.5</ele><time>2026-05-03T10:06:44.027Z</time></trkpt><trkpt lat="42.2382768" lon="13.5954169"><ele>714.25</ele><time>2026-05-03T10:06:45.019Z</time></trkpt><trkpt lat="42.2383965" lon="13.5953456"><ele>715.0</ele><time>2026-05-03T10:06:46.023Z</time></trkpt><trkpt lat="42.2385179" lon="13.5952879"><ele>715.0</ele><time>2026-05-03T10:06:47.021Z</time></trkpt><trkpt lat="42.2386488" lon="13.5952407"><ele>715.0</ele><time>2026-05-03T10:06:48.023Z</time></trkpt><trkpt lat="42.2387828" lon="13.5952034"><ele>715.0</ele><time>2026-05-03T10:06:49.024Z</time></trkpt><trkpt lat="42.2389107" lon="13.5951654"><ele>715.0</ele><time>2026-05-03T10:06:50.024Z</time></trkpt><trkpt lat="42.2390319" lon="13.5951087"><ele>716.0</ele><time>2026-05-03T10:06:51.031Z</time></trkpt><trkpt lat="42.2391466" lon="13.5950278"><ele>717.0</ele><time>2026-05-03T10:06:52.025Z</time></trkpt><trkpt lat="42.2392519" lon="13.5949288"><ele>718.0</ele><time>2026-05-03T10:06:53.028Z</time></trkpt><trkpt lat="42.2393538" lon="13.5948231"><ele>719.0</ele><time>2026-05-03T10:06:54.025Z</time></trkpt><trkpt lat="42.2394534" lon="13.5947196"><ele>719.0</ele><time>2026-05-03T10:06:55.029Z</time></trkpt><trkpt lat="42.2395534" lon="13.5946159"><ele>719.0</ele><time>2026-05-03T10:06:56.025Z</time></trkpt><trkpt lat="42.2396568" lon="13.5945136"><ele>719.0</ele><time>2026-05-03T10:06:57.025Z</time></trkpt><trkpt lat="42.2397581" lon="13.5944072"><ele>719.0</ele><time>2026-05-03T10:06:58.027Z</time></trkpt><trkpt lat="42.2398576" lon="13.5943025"><ele>719.75</ele><time>2026-05-03T10:06:59.024Z</time></trkpt><trkpt lat="42.2399562" lon="13.5941963"><ele>720.5</ele><time>2026-05-03T10:07:00.035Z</time></trkpt><trkpt lat="42.2400501" lon="13.5940918"><ele>721.25</ele><time>2026-05-03T10:07:01.021Z</time></trkpt><trkpt lat="42.2401459" lon="13.5939882"><ele>722.0</ele><time>2026-05-03T10:07:02.029Z</time></trkpt><trkpt lat="42.2402426" lon="13.5938909"><ele>722.0</ele><time>2026-05-03T10:07:03.021Z</time></trkpt><trkpt lat="42.2403323" lon="13.5937874"><ele>722.0</ele><time>2026-05-03T10:07:04.029Z</time></trkpt><trkpt lat="42.2404225" lon="13.5936885"><ele>722.0</ele><time>2026-05-03T10:07:05.02Z</time></trkpt><trkpt lat="42.2405116" lon="13.5935929"><ele>722.0</ele><time>2026-05-03T10:07:06.038Z</time></trkpt><trkpt lat="42.2405942" lon="13.5935116"><ele>722.6</ele><time>2026-05-03T10:07:07.026Z</time></trkpt><trkpt lat="42.2406742" lon="13.593435"><ele>723.2</ele><time>2026-05-03T10:07:08.022Z</time></trkpt><trkpt lat="42.2407531" lon="13.5933468"><ele>723.8</ele><time>2026-05-03T10:07:09.015Z</time></trkpt><trkpt lat="42.2408373" lon="13.5932548"><ele>724.4</ele><time>2026-05-03T10:07:10.02Z</time></trkpt><trkpt lat="42.2409254" lon="13.5931654"><ele>725.0</ele><time>2026-05-03T10:07:11.031Z</time></trkpt><trkpt lat="42.2410119" lon="13.5930786"><ele>725.0</ele><time>2026-05-03T10:07:12.028Z</time></trkpt><trkpt lat="42.2410969" lon="13.5929881"><ele>725.0</ele><time>2026-05-03T10:07:13.018Z</time></trkpt><trkpt lat="42.2411793" lon="13.5929017"><ele>725.0</ele><time>2026-05-03T10:07:14.013Z</time></trkpt><trkpt lat="42.2412599" lon="13.5928147"><ele>725.0</ele><time>2026-05-03T10:07:15.019Z</time></trkpt><trkpt lat="42.241342" lon="13.5927351"><ele>725.0</ele><time>2026-05-03T10:07:16.026Z</time></trkpt><trkpt lat="42.241422" lon="13.5926529"><ele>725.2</ele><time>2026-05-03T10:07:17.023Z</time></trkpt><trkpt lat="42.2415035" lon="13.5925617"><ele>725.4</ele><time>2026-05-03T10:07:18.02Z</time></trkpt><trkpt lat="42.2415917" lon="13.592468"><ele>725.5999999999999</ele><time>2026-05-03T10:07:19.017Z</time></trkpt><trkpt lat="42.2416771" lon="13.5923717"><ele>725.8</ele><time>2026-05-03T10:07:20.02Z</time></trkpt><trkpt lat="42.2417636" lon="13.592273"><ele>726.0</ele><time>2026-05-03T10:07:21.019Z</time></trkpt><trkpt lat="42.2418503" lon="13.5921726"><ele>726.0</ele><time>2026-05-03T10:07:22.029Z</time></trkpt><trkpt lat="42.2419408" lon="13.592072"><ele>726.0</ele><time>2026-05-03T10:07:23.025Z</time></trkpt><trkpt lat="42.2420314" lon="13.5919631"><ele>726.0</ele><time>2026-05-03T10:07:24.026Z</time></trkpt><trkpt lat="42.2421223" lon="13.5918497"><ele>726.0</ele><time>2026-05-03T10:07:25.031Z</time></trkpt><trkpt lat="42.2422085" lon="13.5917345"><ele>726.25</ele><time>2026-05-03T10:07:26.027Z</time></trkpt><trkpt lat="42.2422926" lon="13.5916191"><ele>726.5</ele><time>2026-05-03T10:07:27.022Z</time></trkpt><trkpt lat="42.2423803" lon="13.5915057"><ele>726.75</ele><time>2026-05-03T10:07:28.031Z</time></trkpt><trkpt lat="42.2424721" lon="13.5913948"><ele>727.0</ele><time>2026-05-03T10:07:29.017Z</time></trkpt><trkpt lat="42.2425626" lon="13.591281"><ele>726.25</ele><time>2026-05-03T10:07:30.029Z</time></trkpt><trkpt lat="42.2426539" lon="13.5911672"><ele>725.5</ele><time>2026-05-03T10:07:31.025Z</time></trkpt><trkpt lat="42.2427421" lon="13.5910538"><ele>724.75</ele><time>2026-05-03T10:07:32.016Z</time></trkpt><trkpt lat="42.2428299" lon="13.5909362"><ele>724.0</ele><time>2026-05-03T10:07:33.016Z</time></trkpt><trkpt lat="42.2429131" lon="13.5908157"><ele>724.0</ele><time>2026-05-03T10:07:34.029Z</time></trkpt><trkpt lat="42.2429852" lon="13.5906847"><ele>724.0</ele><time>2026-05-03T10:07:35.031Z</time></trkpt><trkpt lat="42.2430485" lon="13.5905422"><ele>724.0</ele><time>2026-05-03T10:07:36.023Z</time></trkpt><trkpt lat="42.2430983" lon="13.5903927"><ele>724.0</ele><time>2026-05-03T10:07:37.023Z</time></trkpt><trkpt lat="42.243147" lon="13.5902424"><ele>721.0</ele><time>2026-05-03T10:07:38.029Z</time></trkpt><trkpt lat="42.2432" lon="13.5900907"><ele>718.0</ele><time>2026-05-03T10:07:39.029Z</time></trkpt><trkpt lat="42.2432492" lon="13.5899418"><ele>715.0</ele><time>2026-05-03T10:07:40.026Z</time></trkpt><trkpt lat="42.2433022" lon="13.5897936"><ele>712.0</ele><time>2026-05-03T10:07:41.029Z</time></trkpt><trkpt lat="42.2433554" lon="13.5896484"><ele>713.25</ele><time>2026-05-03T10:07:42.025Z</time></trkpt><trkpt lat="42.243406" lon="13.5894999"><ele>714.5</ele><time>2026-05-03T10:07:43.015Z</time></trkpt><trkpt lat="42.2434527" lon="13.5893538"><ele>715.75</ele><time>2026-05-03T10:07:44.018Z</time></trkpt><trkpt lat="42.2435072" lon="13.5892145"><ele>717.0</ele><time>2026-05-03T10:07:45.02Z</time></trkpt><trkpt lat="42.2435631" lon="13.5890879"><ele>717.0</ele><time>2026-05-03T10:07:46.009Z</time></trkpt><trkpt lat="42.243626" lon="13.5889775"><ele>717.0</ele><time>2026-05-03T10:07:47.016Z</time></trkpt><trkpt lat="42.2436958" lon="13.5888771"><ele>717.0</ele><time>2026-05-03T10:07:48.025Z</time></trkpt><trkpt lat="42.243779" lon="13.5887895"><ele>717.0</ele><time>2026-05-03T10:07:49.01Z</time></trkpt><trkpt lat="42.2438769" lon="13.5887165"><ele>717.0</ele><time>2026-05-03T10:07:50.021Z</time></trkpt><trkpt lat="42.2439838" lon="13.5886757"><ele>716.6</ele><time>2026-05-03T10:07:51.025Z</time></trkpt><trkpt lat="42.2440842" lon="13.5886622"><ele>716.2</ele><time>2026-05-03T10:07:52.031Z</time></trkpt><trkpt lat="42.2441952" lon="13.5886848"><ele>715.8</ele><time>2026-05-03T10:07:53.019Z</time></trkpt><trkpt lat="42.2443001" lon="13.5887425"><ele>715.4</ele><time>2026-05-03T10:07:54.04Z</time></trkpt><trkpt lat="42.2444021" lon="13.5888101"><ele>715.0</ele><time>2026-05-03T10:07:55.02Z</time></trkpt><trkpt lat="42.2445057" lon="13.5888807"><ele>713.5</ele><time>2026-05-03T10:07:56.018Z</time></trkpt><trkpt lat="42.2446083" lon="13.5889541"><ele>712.0</ele><time>2026-05-03T10:07:57.025Z</time></trkpt><trkpt lat="42.2447146" lon="13.5890298"><ele>710.5</ele><time>2026-05-03T10:07:58.026Z</time></trkpt><trkpt lat="42.2448191" lon="13.5891016"><ele>709.0</ele><time>2026-05-03T10:07:59.013Z</time></trkpt><trkpt lat="42.2449276" lon="13.5891635"><ele>709.0</ele><time>2026-05-03T10:08:00.032Z</time></trkpt><trkpt lat="42.2450356" lon="13.589211"><ele>709.0</ele><time>2026-05-03T10:08:01.014Z</time></trkpt><trkpt lat="42.2451475" lon="13.5892389"><ele>709.0</ele><time>2026-05-03T10:08:02.024Z</time></trkpt><trkpt lat="42.2452651" lon="13.5892454"><ele>709.0</ele><time>2026-05-03T10:08:03.028Z</time></trkpt><trkpt lat="42.2453808" lon="13.5892315"><ele>709.0</ele><time>2026-05-03T10:08:04.022Z</time></trkpt><trkpt lat="42.2454959" lon="13.5892011"><ele>709.0</ele><time>2026-05-03T10:08:05.022Z</time></trkpt><trkpt lat="42.2456073" lon="13.5891415"><ele>709.0</ele><time>2026-05-03T10:08:06.031Z</time></trkpt><trkpt lat="42.245718" lon="13.5890613"><ele>709.0</ele><time>2026-05-03T10:08:07.023Z</time></trkpt><trkpt lat="42.2458194" lon="13.5889652"><ele>708.5</ele><time>2026-05-03T10:08:08.023Z</time></trkpt><trkpt lat="42.2459169" lon="13.5888594"><ele>708.0</ele><time>2026-05-03T10:08:09.017Z</time></trkpt><trkpt lat="42.2460178" lon="13.5887479"><ele>707.5</ele><time>2026-05-03T10:08:10.031Z</time></trkpt><trkpt lat="42.246114" lon="13.5886343"><ele>707.0</ele><time>2026-05-03T10:08:11.028Z</time></trkpt><trkpt lat="42.2462123" lon="13.5885211"><ele>708.0</ele><time>2026-05-03T10:08:12.024Z</time></trkpt><trkpt lat="42.2463128" lon="13.5884028"><ele>709.0</ele><time>2026-05-03T10:08:13.015Z</time></trkpt><trkpt lat="42.2464123" lon="13.5882828"><ele>710.0</ele><time>2026-05-03T10:08:14.023Z</time></trkpt><trkpt lat="42.2465134" lon="13.5881603"><ele>711.0</ele><time>2026-05-03T10:08:15.019Z</time></trkpt><trkpt lat="42.2466122" lon="13.5880368"><ele>709.5</ele><time>2026-05-03T10:08:16.03Z</time></trkpt><trkpt lat="42.2467116" lon="13.5879163"><ele>708.0</ele><time>2026-05-03T10:08:17.021Z</time></trkpt><trkpt lat="42.2468133" lon="13.5877977"><ele>706.5</ele><time>2026-05-03T10:08:18.022Z</time></trkpt><trkpt lat="42.2469186" lon="13.5876848"><ele>705.0</ele><time>2026-05-03T10:08:19.028Z</time></trkpt><trkpt lat="42.2470149" lon="13.5875708"><ele>705.0</ele><time>2026-05-03T10:08:20.023Z</time></trkpt><trkpt lat="42.2471111" lon="13.58745"><ele>705.0</ele><time>2026-05-03T10:08:21.038Z</time></trkpt><trkpt lat="42.2472116" lon="13.5873307"><ele>705.0</ele><time>2026-05-03T10:08:22.026Z</time></trkpt><trkpt lat="42.2473108" lon="13.587209"><ele>705.0</ele><time>2026-05-03T10:08:22.999Z</time></trkpt><trkpt lat="42.2474089" lon="13.5870909"><ele>704.0</ele><time>2026-05-03T10:08:24.023Z</time></trkpt><trkpt lat="42.2475052" lon="13.5869686"><ele>703.0</ele><time>2026-05-03T10:08:25.015Z</time></trkpt><trkpt lat="42.2476053" lon="13.586846"><ele>702.0</ele><time>2026-05-03T10:08:26.017Z</time></trkpt><trkpt lat="42.2477057" lon="13.5867202"><ele>701.0</ele><time>2026-05-03T10:08:27.02Z</time></trkpt><trkpt lat="42.2478006" lon="13.5865887"><ele>701.0</ele><time>2026-05-03T10:08:28.041Z</time></trkpt><trkpt lat="42.2478935" lon="13.586455"><ele>701.0</ele><time>2026-05-03T10:08:29.016Z</time></trkpt><trkpt lat="42.2479861" lon="13.5863235"><ele>701.0</ele><time>2026-05-03T10:08:30.023Z</time></trkpt><trkpt lat="42.2480757" lon="13.5861849"><ele>701.0</ele><time>2026-05-03T10:08:31.027Z</time></trkpt><trkpt lat="42.2481647" lon="13.5860418"><ele>700.75</ele><time>2026-05-03T10:08:32.032Z</time></trkpt><trkpt lat="42.2482517" lon="13.5859008"><ele>700.5</ele><time>2026-05-03T10:08:33.022Z</time></trkpt><trkpt lat="42.2483373" lon="13.5857605"><ele>700.25</ele><time>2026-05-03T10:08:34.022Z</time></trkpt><trkpt lat="42.2484176" lon="13.5856179"><ele>700.0</ele><time>2026-05-03T10:08:35.014Z</time></trkpt><trkpt lat="42.2484933" lon="13.5854656"><ele>699.0</ele><time>2026-05-03T10:08:36.029Z</time></trkpt><trkpt lat="42.2485657" lon="13.5853132"><ele>698.0</ele><time>2026-05-03T10:08:37.023Z</time></trkpt><trkpt lat="42.2486359" lon="13.5851554"><ele>697.0</ele><time>2026-05-03T10:08:38.022Z</time></trkpt><trkpt lat="42.248702" lon="13.5849914"><ele>696.0</ele><time>2026-05-03T10:08:39.014Z</time></trkpt><trkpt lat="42.248762" lon="13.5848251"><ele>696.0</ele><time>2026-05-03T10:08:40.027Z</time></trkpt><trkpt lat="42.248822" lon="13.584655"><ele>696.0</ele><time>2026-05-03T10:08:41.026Z</time></trkpt><trkpt lat="42.2488838" lon="13.5844829"><ele>696.0</ele><time>2026-05-03T10:08:42.022Z</time></trkpt><trkpt lat="42.2489507" lon="13.5843097"><ele>696.0</ele><time>2026-05-03T10:08:43.012Z</time></trkpt><trkpt lat="42.2490148" lon="13.5841398"><ele>695.75</ele><time>2026-05-03T10:08:44.023Z</time></trkpt><trkpt lat="42.2490768" lon="13.5839646"><ele>695.5</ele><time>2026-05-03T10:08:45.02Z</time></trkpt><trkpt lat="42.2491473" lon="13.5837922"><ele>695.25</ele><time>2026-05-03T10:08:46.015Z</time></trkpt><trkpt lat="42.2492233" lon="13.5836295"><ele>695.0</ele><time>2026-05-03T10:08:47.019Z</time></trkpt><trkpt lat="42.2493017" lon="13.5834614"><ele>693.5</ele><time>2026-05-03T10:08:48.017Z</time></trkpt><trkpt lat="42.2493775" lon="13.5832994"><ele>692.0</ele><time>2026-05-03T10:08:49.025Z</time></trkpt><trkpt lat="42.2494528" lon="13.583134"><ele>690.5</ele><time>2026-05-03T10:08:50.022Z</time></trkpt><trkpt lat="42.2495319" lon="13.5829715"><ele>689.0</ele><time>2026-05-03T10:08:51.018Z</time></trkpt><trkpt lat="42.2496114" lon="13.5828149"><ele>689.0</ele><time>2026-05-03T10:08:52.017Z</time></trkpt><trkpt lat="42.2496942" lon="13.582659"><ele>689.0</ele><time>2026-05-03T10:08:53.018Z</time></trkpt><trkpt lat="42.2497741" lon="13.5825014"><ele>689.0</ele><time>2026-05-03T10:08:54.023Z</time></trkpt><trkpt lat="42.2498586" lon="13.5823449"><ele>689.0</ele><time>2026-05-03T10:08:55.022Z</time></trkpt><trkpt lat="42.2499461" lon="13.5821956"><ele>689.0</ele><time>2026-05-03T10:08:56.026Z</time></trkpt><trkpt lat="42.250037" lon="13.582046"><ele>689.0</ele><time>2026-05-03T10:08:57.021Z</time></trkpt><trkpt lat="42.2501259" lon="13.5819013"><ele>689.0</ele><time>2026-05-03T10:08:58.031Z</time></trkpt><trkpt lat="42.2502112" lon="13.5817508"><ele>689.0</ele><time>2026-05-03T10:08:59.019Z</time></trkpt><trkpt lat="42.2502891" lon="13.5815919"><ele>686.0</ele><time>2026-05-03T10:09:00.025Z</time></trkpt><trkpt lat="42.2503539" lon="13.5814255"><ele>683.0</ele><time>2026-05-03T10:09:01.017Z</time></trkpt><trkpt lat="42.250412" lon="13.5812538"><ele>680.0</ele><time>2026-05-03T10:09:02.018Z</time></trkpt><trkpt lat="42.2504693" lon="13.581082"><ele>677.0</ele><time>2026-05-03T10:09:03.035Z</time></trkpt><trkpt lat="42.2505288" lon="13.5809101"><ele>676.75</ele><time>2026-05-03T10:09:04.021Z</time></trkpt><trkpt lat="42.2505843" lon="13.5807359"><ele>676.5</ele><time>2026-05-03T10:09:05.023Z</time></trkpt><trkpt lat="42.2506371" lon="13.5805654"><ele>676.25</ele><time>2026-05-03T10:09:06.018Z</time></trkpt><trkpt lat="42.2506932" lon="13.5803976"><ele>676.0</ele><time>2026-05-03T10:09:07.011Z</time></trkpt><trkpt lat="42.2507501" lon="13.5802293"><ele>676.0</ele><time>2026-05-03T10:09:08.031Z</time></trkpt><trkpt lat="42.2508053" lon="13.5800584"><ele>676.0</ele><time>2026-05-03T10:09:09.018Z</time></trkpt><trkpt lat="42.2508606" lon="13.5798858"><ele>676.0</ele><time>2026-05-03T10:09:10.024Z</time></trkpt><trkpt lat="42.2509172" lon="13.5797183"><ele>676.0</ele><time>2026-05-03T10:09:11.022Z</time></trkpt><trkpt lat="42.2509743" lon="13.5795529"><ele>675.25</ele><time>2026-05-03T10:09:12.015Z</time></trkpt><trkpt lat="42.2510387" lon="13.5793915"><ele>674.5</ele><time>2026-05-03T10:09:13.016Z</time></trkpt><trkpt lat="42.2510951" lon="13.5792217"><ele>673.75</ele><time>2026-05-03T10:09:14.013Z</time></trkpt><trkpt lat="42.251153" lon="13.5790557"><ele>673.0</ele><time>2026-05-03T10:09:15.027Z</time></trkpt><trkpt lat="42.2512137" lon="13.5788944"><ele>673.0</ele><time>2026-05-03T10:09:16.02Z</time></trkpt><trkpt lat="42.251273" lon="13.5787289"><ele>673.0</ele><time>2026-05-03T10:09:17.004Z</time></trkpt><trkpt lat="42.2513396" lon="13.5785732"><ele>673.0</ele><time>2026-05-03T10:09:18.011Z</time></trkpt><trkpt lat="42.2514154" lon="13.5784189"><ele>673.0</ele><time>2026-05-03T10:09:19.014Z</time></trkpt><trkpt lat="42.2515062" lon="13.578276"><ele>672.75</ele><time>2026-05-03T10:09:20.014Z</time></trkpt><trkpt lat="42.2516035" lon="13.5781469"><ele>672.5</ele><time>2026-05-03T10:09:21.007Z</time></trkpt><trkpt lat="42.2517025" lon="13.5780205"><ele>672.25</ele><time>2026-05-03T10:09:22.014Z</time></trkpt><trkpt lat="42.2517985" lon="13.5779014"><ele>672.0</ele><time>2026-05-03T10:09:23.015Z</time></trkpt><trkpt lat="42.251884" lon="13.5777725"><ele>672.0</ele><time>2026-05-03T10:09:24.013Z</time></trkpt><trkpt lat="42.2519684" lon="13.5776419"><ele>672.0</ele><time>2026-05-03T10:09:25.023Z</time></trkpt><trkpt lat="42.2520412" lon="13.5775056"><ele>672.0</ele><time>2026-05-03T10:09:26.017Z</time></trkpt><trkpt lat="42.2521146" lon="13.5773627"><ele>672.0</ele><time>2026-05-03T10:09:27.012Z</time></trkpt><trkpt lat="42.2521813" lon="13.5772068"><ele>672.0</ele><time>2026-05-03T10:09:28.022Z</time></trkpt><trkpt lat="42.2522388" lon="13.5770398"><ele>672.0</ele><time>2026-05-03T10:09:29.019Z</time></trkpt><trkpt lat="42.2522916" lon="13.5768687"><ele>672.0</ele><time>2026-05-03T10:09:30.017Z</time></trkpt><trkpt lat="42.252338" lon="13.5766906"><ele>672.0</ele><time>2026-05-03T10:09:31.019Z</time></trkpt><trkpt lat="42.2523803" lon="13.5765095"><ele>671.75</ele><time>2026-05-03T10:09:32.016Z</time></trkpt><trkpt lat="42.2524236" lon="13.5763265"><ele>671.5</ele><time>2026-05-03T10:09:33.007Z</time></trkpt><trkpt lat="42.2524718" lon="13.5761446"><ele>671.25</ele><time>2026-05-03T10:09:34.026Z</time></trkpt><trkpt lat="42.2525197" lon="13.5759687"><ele>671.0</ele><time>2026-05-03T10:09:35.018Z</time></trkpt><trkpt lat="42.2525625" lon="13.5758009"><ele>669.75</ele><time>2026-05-03T10:09:36.018Z</time></trkpt><trkpt lat="42.2526066" lon="13.5756386"><ele>668.5</ele><time>2026-05-03T10:09:37.006Z</time></trkpt><trkpt lat="42.2526416" lon="13.5754746"><ele>667.25</ele><time>2026-05-03T10:09:38.018Z</time></trkpt><trkpt lat="42.2526662" lon="13.5753087"><ele>666.0</ele><time>2026-05-03T10:09:39.026Z</time></trkpt><trkpt lat="42.2526714" lon="13.5751435"><ele>664.5</ele><time>2026-05-03T10:09:40.026Z</time></trkpt><trkpt lat="42.2526569" lon="13.5749698"><ele>663.0</ele><time>2026-05-03T10:09:41.027Z</time></trkpt><trkpt lat="42.2526292" lon="13.5747872"><ele>661.5</ele><time>2026-05-03T10:09:42.008Z</time></trkpt><trkpt lat="42.2526092" lon="13.5746116"><ele>660.0</ele><time>2026-05-03T10:09:43.013Z</time></trkpt><trkpt lat="42.2525977" lon="13.5744398"><ele>659.25</ele><time>2026-05-03T10:09:44.017Z</time></trkpt><trkpt lat="42.2526005" lon="13.57428"><ele>658.5</ele><time>2026-05-03T10:09:45.019Z</time></trkpt><trkpt lat="42.2526242" lon="13.5741272"><ele>657.75</ele><time>2026-05-03T10:09:46.018Z</time></trkpt><trkpt lat="42.252671" lon="13.5739795"><ele>657.0</ele><time>2026-05-03T10:09:47.024Z</time></trkpt><trkpt lat="42.2527314" lon="13.5738296"><ele>656.0</ele><time>2026-05-03T10:09:48.023Z</time></trkpt><trkpt lat="42.2528032" lon="13.5736774"><ele>655.0</ele><time>2026-05-03T10:09:49.025Z</time></trkpt><trkpt lat="42.2528824" lon="13.5735328"><ele>654.0</ele><time>2026-05-03T10:09:50.021Z</time></trkpt><trkpt lat="42.2529705" lon="13.5734009"><ele>653.0</ele><time>2026-05-03T10:09:51.013Z</time></trkpt><trkpt lat="42.2530662" lon="13.5732839"><ele>655.0</ele><time>2026-05-03T10:09:52.027Z</time></trkpt><trkpt lat="42.2531697" lon="13.5731795"><ele>657.0</ele><time>2026-05-03T10:09:53.025Z</time></trkpt><trkpt lat="42.2532893" lon="13.573083"><ele>659.0</ele><time>2026-05-03T10:09:54.02Z</time></trkpt><trkpt lat="42.2534153" lon="13.5729946"><ele>661.0</ele><time>2026-05-03T10:09:55.018Z</time></trkpt><trkpt lat="42.2535419" lon="13.5729082"><ele>660.75</ele><time>2026-05-03T10:09:56.034Z</time></trkpt><trkpt lat="42.2536706" lon="13.5728252"><ele>660.5</ele><time>2026-05-03T10:09:57.014Z</time></trkpt><trkpt lat="42.2538004" lon="13.572744"><ele>660.25</ele><time>2026-05-03T10:09:58.033Z</time></trkpt><trkpt lat="42.2539269" lon="13.5726607"><ele>660.0</ele><time>2026-05-03T10:09:59.029Z</time></trkpt><trkpt lat="42.2540517" lon="13.5725822"><ele>660.0</ele><time>2026-05-03T10:10:00.034Z</time></trkpt><trkpt lat="42.2541766" lon="13.5725055"><ele>660.0</ele><time>2026-05-03T10:10:01.021Z</time></trkpt><trkpt lat="42.2542999" lon="13.5724301"><ele>660.0</ele><time>2026-05-03T10:10:02.02Z</time></trkpt><trkpt lat="42.2544284" lon="13.5723634"><ele>660.0</ele><time>2026-05-03T10:10:03.03Z</time></trkpt><trkpt lat="42.2545508" lon="13.5723027"><ele>660.0</ele><time>2026-05-03T10:10:04.022Z</time></trkpt><trkpt lat="42.2546808" lon="13.572249"><ele>660.0</ele><time>2026-05-03T10:10:05.028Z</time></trkpt><trkpt lat="42.2548221" lon="13.5722108"><ele>660.0</ele><time>2026-05-03T10:10:06.019Z</time></trkpt><trkpt lat="42.2549674" lon="13.5721944"><ele>660.0</ele><time>2026-05-03T10:10:07.017Z</time></trkpt><trkpt lat="42.2551102" lon="13.5721924"><ele>661.0</ele><time>2026-05-03T10:10:08.029Z</time></trkpt><trkpt lat="42.2552521" lon="13.5721928"><ele>662.0</ele><time>2026-05-03T10:10:09.026Z</time></trkpt><trkpt lat="42.2554006" lon="13.5721999"><ele>663.0</ele><time>2026-05-03T10:10:10.033Z</time></trkpt><trkpt lat="42.2555495" lon="13.5722045"><ele>664.0</ele><time>2026-05-03T10:10:11.03Z</time></trkpt><trkpt lat="42.2556998" lon="13.5722147"><ele>666.0</ele><time>2026-05-03T10:10:12.033Z</time></trkpt><trkpt lat="42.2558504" lon="13.5722255"><ele>668.0</ele><time>2026-05-03T10:10:13.019Z</time></trkpt><trkpt lat="42.2559998" lon="13.5722364"><ele>670.0</ele><time>2026-05-03T10:10:14.031Z</time></trkpt><trkpt lat="42.2561513" lon="13.5722509"><ele>670.0</ele><time>2026-05-03T10:10:15.018Z</time></trkpt><trkpt lat="42.2563035" lon="13.5722608"><ele>670.0</ele><time>2026-05-03T10:10:16.02Z</time></trkpt><trkpt lat="42.2564517" lon="13.5722732"><ele>670.0</ele><time>2026-05-03T10:10:17.02Z</time></trkpt><trkpt lat="42.2566" lon="13.5722846"><ele>670.0</ele><time>2026-05-03T10:10:18.027Z</time></trkpt><trkpt lat="42.2567494" lon="13.5722971"><ele>670.0</ele><time>2026-05-03T10:10:19.012Z</time></trkpt><trkpt lat="42.2568978" lon="13.5723095"><ele>670.0</ele><time>2026-05-03T10:10:20.036Z</time></trkpt><trkpt lat="42.2570449" lon="13.5723216"><ele>670.0</ele><time>2026-05-03T10:10:21.014Z</time></trkpt><trkpt lat="42.25719" lon="13.572333"><ele>670.0</ele><time>2026-05-03T10:10:22.024Z</time></trkpt><trkpt lat="42.2573319" lon="13.5723452"><ele>668.0</ele><time>2026-05-03T10:10:23.02Z</time></trkpt><trkpt lat="42.2574744" lon="13.5723629"><ele>666.0</ele><time>2026-05-03T10:10:24.014Z</time></trkpt><trkpt lat="42.257621" lon="13.5724003"><ele>664.0</ele><time>2026-05-03T10:10:25.015Z</time></trkpt><trkpt lat="42.2577748" lon="13.5724488"><ele>664.0</ele><time>2026-05-03T10:10:26.019Z</time></trkpt><trkpt lat="42.2579297" lon="13.5724981"><ele>664.0</ele><time>2026-05-03T10:10:27.038Z</time></trkpt><trkpt lat="42.2580822" lon="13.5725417"><ele>664.0</ele><time>2026-05-03T10:10:28.019Z</time></trkpt><trkpt lat="42.2582357" lon="13.5725845"><ele>662.3333333333334</ele><time>2026-05-03T10:10:29.009Z</time></trkpt><trkpt lat="42.2583885" lon="13.5726206"><ele>660.6666666666666</ele><time>2026-05-03T10:10:30.026Z</time></trkpt><trkpt lat="42.2585425" lon="13.5726561"><ele>659.0</ele><time>2026-05-03T10:10:31.026Z</time></trkpt><trkpt lat="42.2586949" lon="13.5726797"><ele>659.0</ele><time>2026-05-03T10:10:32.016Z</time></trkpt><trkpt lat="42.258845" lon="13.5726978"><ele>659.0</ele><time>2026-05-03T10:10:33.025Z</time></trkpt><trkpt lat="42.2589921" lon="13.5727186"><ele>659.0</ele><time>2026-05-03T10:10:34.025Z</time></trkpt><trkpt lat="42.2591305" lon="13.5727399"><ele>659.0</ele><time>2026-05-03T10:10:35.011Z</time></trkpt><trkpt lat="42.2592646" lon="13.5727707"><ele>658.5</ele><time>2026-05-03T10:10:36.015Z</time></trkpt><trkpt lat="42.2593983" lon="13.572819"><ele>658.0</ele><time>2026-05-03T10:10:37.003Z</time></trkpt><trkpt lat="42.2595325" lon="13.5728778"><ele>657.5</ele><time>2026-05-03T10:10:38.006Z</time></trkpt><trkpt lat="42.2596649" lon="13.5729593"><ele>657.0</ele><time>2026-05-03T10:10:39Z</time></trkpt><trkpt lat="42.2598023" lon="13.5730454"><ele>653.6666666666666</ele><time>2026-05-03T10:10:39.999Z</time></trkpt><trkpt lat="42.25994" lon="13.5731489"><ele>650.3333333333333</ele><time>2026-05-03T10:10:41.022Z</time></trkpt><trkpt lat="42.2600778" lon="13.5732652"><ele>647.0</ele><time>2026-05-03T10:10:42.02Z</time></trkpt><trkpt lat="42.2602198" lon="13.5733849"><ele>647.0</ele><time>2026-05-03T10:10:42.997Z</time></trkpt><trkpt lat="42.2603625" lon="13.5735111"><ele>647.0</ele><time>2026-05-03T10:10:43.999Z</time></trkpt><trkpt lat="42.2604977" lon="13.5736333"><ele>647.0</ele><time>2026-05-03T10:10:44.999Z</time></trkpt><trkpt lat="42.2606351" lon="13.5737542"><ele>648.0</ele><time>2026-05-03T10:10:46.004Z</time></trkpt><trkpt lat="42.2607697" lon="13.5738647"><ele>649.0</ele><time>2026-05-03T10:10:46.996Z</time></trkpt><trkpt lat="42.260901" lon="13.5739693"><ele>650.0</ele><time>2026-05-03T10:10:48.014Z</time></trkpt><trkpt lat="42.2610278" lon="13.5740603"><ele>650.0</ele><time>2026-05-03T10:10:48.997Z</time></trkpt><trkpt lat="42.2611531" lon="13.5741435"><ele>650.0</ele><time>2026-05-03T10:10:50.001Z</time></trkpt><trkpt lat="42.2612729" lon="13.5742199"><ele>650.0</ele><time>2026-05-03T10:10:51.007Z</time></trkpt><trkpt lat="42.2613997" lon="13.574293"><ele>650.0</ele><time>2026-05-03T10:10:52.014Z</time></trkpt><trkpt lat="42.2615221" lon="13.5743361"><ele>647.25</ele><time>2026-05-03T10:10:53.01Z</time></trkpt><trkpt lat="42.2616441" lon="13.5743692"><ele>644.5</ele><time>2026-05-03T10:10:54.018Z</time></trkpt><trkpt lat="42.2617695" lon="13.5744008"><ele>641.75</ele><time>2026-05-03T10:10:55.016Z</time></trkpt><trkpt lat="42.2618901" lon="13.5744305"><ele>639.0</ele><time>2026-05-03T10:10:56.017Z</time></trkpt><trkpt lat="42.2620071" lon="13.5744712"><ele>639.0</ele><time>2026-05-03T10:10:57.017Z</time></trkpt><trkpt lat="42.2621221" lon="13.5745313"><ele>639.0</ele><time>2026-05-03T10:10:58.03Z</time></trkpt><trkpt lat="42.2622349" lon="13.5746073"><ele>639.0</ele><time>2026-05-03T10:10:59.015Z</time></trkpt><trkpt lat="42.2623543" lon="13.5746952"><ele>639.0</ele><time>2026-05-03T10:11:00.018Z</time></trkpt><trkpt lat="42.2624707" lon="13.5747948"><ele>639.0</ele><time>2026-05-03T10:11:01.009Z</time></trkpt><trkpt lat="42.2625848" lon="13.5749034"><ele>639.0</ele><time>2026-05-03T10:11:02.031Z</time></trkpt><trkpt lat="42.2626881" lon="13.5750208"><ele>639.0</ele><time>2026-05-03T10:11:03.013Z</time></trkpt><trkpt lat="42.2627887" lon="13.5751294"><ele>639.0</ele><time>2026-05-03T10:11:04.025Z</time></trkpt><trkpt lat="42.2628842" lon="13.5752402"><ele>639.0</ele><time>2026-05-03T10:11:05.021Z</time></trkpt><trkpt lat="42.2629774" lon="13.5753374"><ele>639.0</ele><time>2026-05-03T10:11:06.014Z</time></trkpt><trkpt lat="42.2630691" lon="13.5754333"><ele>639.0</ele><time>2026-05-03T10:11:07.022Z</time></trkpt><trkpt lat="42.2631627" lon="13.5755189"><ele>639.0</ele><time>2026-05-03T10:11:08.017Z</time></trkpt><trkpt lat="42.2632667" lon="13.5755904"><ele>638.75</ele><time>2026-05-03T10:11:09.017Z</time></trkpt><trkpt lat="42.2633776" lon="13.5756363"><ele>638.5</ele><time>2026-05-03T10:11:10.012Z</time></trkpt><trkpt lat="42.2634953" lon="13.5756359"><ele>638.25</ele><time>2026-05-03T10:11:11.021Z</time></trkpt><trkpt lat="42.2636148" lon="13.5756033"><ele>638.0</ele><time>2026-05-03T10:11:12.015Z</time></trkpt><trkpt lat="42.2637327" lon="13.5755416"><ele>638.0</ele><time>2026-05-03T10:11:13.006Z</time></trkpt><trkpt lat="42.2638571" lon="13.5754713"><ele>638.0</ele><time>2026-05-03T10:11:14.023Z</time></trkpt><trkpt lat="42.2639863" lon="13.5753867"><ele>638.0</ele><time>2026-05-03T10:11:15.021Z</time></trkpt><trkpt lat="42.2641146" lon="13.5752979"><ele>638.0</ele><time>2026-05-03T10:11:16.02Z</time></trkpt><trkpt lat="42.2642414" lon="13.5752107"><ele>635.25</ele><time>2026-05-03T10:11:17.012Z</time></trkpt><trkpt lat="42.2643794" lon="13.5751215"><ele>632.5</ele><time>2026-05-03T10:11:18.015Z</time></trkpt><trkpt lat="42.2645097" lon="13.5750343"><ele>629.75</ele><time>2026-05-03T10:11:19.028Z</time></trkpt><trkpt lat="42.264627" lon="13.5749257"><ele>627.0</ele><time>2026-05-03T10:11:20.015Z</time></trkpt><trkpt lat="42.2647392" lon="13.574801"><ele>628.0</ele><time>2026-05-03T10:11:21.016Z</time></trkpt><trkpt lat="42.2648415" lon="13.5746731"><ele>629.0</ele><time>2026-05-03T10:11:22.022Z</time></trkpt><trkpt lat="42.2649391" lon="13.5745499"><ele>630.0</ele><time>2026-05-03T10:11:23.02Z</time></trkpt><trkpt lat="42.2650377" lon="13.574437"><ele>631.0</ele><time>2026-05-03T10:11:24.028Z</time></trkpt><trkpt lat="42.2651519" lon="13.5743288"><ele>629.25</ele><time>2026-05-03T10:11:25.013Z</time></trkpt><trkpt lat="42.2652785" lon="13.5742349"><ele>627.5</ele><time>2026-05-03T10:11:26.018Z</time></trkpt><trkpt lat="42.2654076" lon="13.5741486"><ele>625.75</ele><time>2026-05-03T10:11:27.015Z</time></trkpt><trkpt lat="42.2655517" lon="13.5740704"><ele>624.0</ele><time>2026-05-03T10:11:28.017Z</time></trkpt><trkpt lat="42.2656832" lon="13.5739955"><ele>624.0</ele><time>2026-05-03T10:11:29.022Z</time></trkpt><trkpt lat="42.2658241" lon="13.5739133"><ele>624.0</ele><time>2026-05-03T10:11:30.027Z</time></trkpt><trkpt lat="42.2659671" lon="13.573833"><ele>624.0</ele><time>2026-05-03T10:11:31.016Z</time></trkpt><trkpt lat="42.2661066" lon="13.573751"><ele>621.3333333333334</ele><time>2026-05-03T10:11:32.021Z</time></trkpt><trkpt lat="42.2662391" lon="13.5736726"><ele>618.6666666666667</ele><time>2026-05-03T10:11:33.014Z</time></trkpt><trkpt lat="42.2663774" lon="13.5735901"><ele>616.0</ele><time>2026-05-03T10:11:34.021Z</time></trkpt><trkpt lat="42.2665216" lon="13.5735076"><ele>616.0</ele><time>2026-05-03T10:11:35.007Z</time></trkpt><trkpt lat="42.2666602" lon="13.5734207"><ele>616.0</ele><time>2026-05-03T10:11:36.013Z</time></trkpt><trkpt lat="42.266791" lon="13.5733434"><ele>616.0</ele><time>2026-05-03T10:11:37.019Z</time></trkpt><trkpt lat="42.2669151" lon="13.5732713"><ele>616.0</ele><time>2026-05-03T10:11:38.014Z</time></trkpt><trkpt lat="42.2670386" lon="13.5732037"><ele>616.0</ele><time>2026-05-03T10:11:39.008Z</time></trkpt><trkpt lat="42.2671564" lon="13.5731351"><ele>616.0</ele><time>2026-05-03T10:11:40.018Z</time></trkpt><trkpt lat="42.267268" lon="13.5730543"><ele>616.0</ele><time>2026-05-03T10:11:41.018Z</time></trkpt><trkpt lat="42.2673771" lon="13.5729678"><ele>616.0</ele><time>2026-05-03T10:11:42.023Z</time></trkpt><trkpt lat="42.267468" lon="13.5728495"><ele>617.0</ele><time>2026-05-03T10:11:43.011Z</time></trkpt><trkpt lat="42.2675357" lon="13.5726881"><ele>618.0</ele><time>2026-05-03T10:11:44.014Z</time></trkpt><trkpt lat="42.2675842" lon="13.5725001"><ele>619.0</ele><time>2026-05-03T10:11:45.016Z</time></trkpt><trkpt lat="42.2675996" lon="13.5723031"><ele>620.0</ele><time>2026-05-03T10:11:46.008Z</time></trkpt><trkpt lat="42.2676097" lon="13.5720923"><ele>619.0</ele><time>2026-05-03T10:11:47.018Z</time></trkpt><trkpt lat="42.2676218" lon="13.5718806"><ele>618.0</ele><time>2026-05-03T10:11:48.02Z</time></trkpt><trkpt lat="42.2676452" lon="13.5716721"><ele>617.0</ele><time>2026-05-03T10:11:49.005Z</time></trkpt><trkpt lat="42.2676758" lon="13.5714728"><ele>617.0</ele><time>2026-05-03T10:11:50.011Z</time></trkpt><trkpt lat="42.267713" lon="13.5712758"><ele>617.0</ele><time>2026-05-03T10:11:51.016Z</time></trkpt><trkpt lat="42.267761" lon="13.5710771"><ele>617.0</ele><time>2026-05-03T10:11:52.004Z</time></trkpt><trkpt lat="42.2678203" lon="13.5708858"><ele>614.6666666666666</ele><time>2026-05-03T10:11:53.016Z</time></trkpt><trkpt lat="42.2678853" lon="13.5706931"><ele>612.3333333333334</ele><time>2026-05-03T10:11:54.013Z</time></trkpt><trkpt lat="42.2679542" lon="13.5705031"><ele>610.0</ele><time>2026-05-03T10:11:55.002Z</time></trkpt><trkpt lat="42.268034" lon="13.5703311"><ele>611.25</ele><time>2026-05-03T10:11:56.007Z</time></trkpt><trkpt lat="42.2681248" lon="13.5701777"><ele>612.5</ele><time>2026-05-03T10:11:57.014Z</time></trkpt><trkpt lat="42.2682283" lon="13.5700367"><ele>613.75</ele><time>2026-05-03T10:11:58.015Z</time></trkpt><trkpt lat="42.2683389" lon="13.5699069"><ele>615.0</ele><time>2026-05-03T10:11:59.007Z</time></trkpt><trkpt lat="42.2684512" lon="13.5697814"><ele>615.0</ele><time>2026-05-03T10:12:00.022Z</time></trkpt><trkpt lat="42.2685595" lon="13.5696531"><ele>615.0</ele><time>2026-05-03T10:12:01.019Z</time></trkpt><trkpt lat="42.2686602" lon="13.56952"><ele>615.0</ele><time>2026-05-03T10:12:02.005Z</time></trkpt><trkpt lat="42.2687546" lon="13.569382"><ele>615.0</ele><time>2026-05-03T10:12:03.017Z</time></trkpt><trkpt lat="42.26885" lon="13.5692434"><ele>613.5</ele><time>2026-05-03T10:12:04.018Z</time></trkpt><trkpt lat="42.2689369" lon="13.5690966"><ele>612.0</ele><time>2026-05-03T10:12:05.015Z</time></trkpt><trkpt lat="42.269019" lon="13.5689366"><ele>610.5</ele><time>2026-05-03T10:12:06.014Z</time></trkpt><trkpt lat="42.2691006" lon="13.5687769"><ele>609.0</ele><time>2026-05-03T10:12:07.013Z</time></trkpt><trkpt lat="42.2691821" lon="13.5686136"><ele>609.0</ele><time>2026-05-03T10:12:08.011Z</time></trkpt><trkpt lat="42.2692596" lon="13.5684509"><ele>609.0</ele><time>2026-05-03T10:12:09.02Z</time></trkpt><trkpt lat="42.2693375" lon="13.5682988"><ele>609.0</ele><time>2026-05-03T10:12:10.019Z</time></trkpt><trkpt lat="42.2694108" lon="13.5681669"><ele>609.0</ele><time>2026-05-03T10:12:11.015Z</time></trkpt><trkpt lat="42.2694813" lon="13.5680499"><ele>609.0</ele><time>2026-05-03T10:12:12.016Z</time></trkpt><trkpt lat="42.2695686" lon="13.5679464"><ele>609.0</ele><time>2026-05-03T10:12:13.004Z</time></trkpt><trkpt lat="42.2696816" lon="13.5678664"><ele>609.0</ele><time>2026-05-03T10:12:14.014Z</time></trkpt><trkpt lat="42.2698092" lon="13.567808"><ele>609.0</ele><time>2026-05-03T10:12:15.015Z</time></trkpt><trkpt lat="42.2699442" lon="13.5677602"><ele>608.75</ele><time>2026-05-03T10:12:16.007Z</time></trkpt><trkpt lat="42.2700815" lon="13.5677162"><ele>608.5</ele><time>2026-05-03T10:12:17.034Z</time></trkpt><trkpt lat="42.2702165" lon="13.5676675"><ele>608.25</ele><time>2026-05-03T10:12:18.013Z</time></trkpt><trkpt lat="42.2703575" lon="13.5676114"><ele>608.0</ele><time>2026-05-03T10:12:19.025Z</time></trkpt><trkpt lat="42.2704942" lon="13.5675557"><ele>609.25</ele><time>2026-05-03T10:12:20.011Z</time></trkpt><trkpt lat="42.2706317" lon="13.5675018"><ele>610.5</ele><time>2026-05-03T10:12:21.022Z</time></trkpt><trkpt lat="42.2707621" lon="13.5674516"><ele>611.75</ele><time>2026-05-03T10:12:22.023Z</time></trkpt><trkpt lat="42.270891" lon="13.5674024"><ele>613.0</ele><time>2026-05-03T10:12:23.017Z</time></trkpt><trkpt lat="42.2710135" lon="13.5673584"><ele>613.0</ele><time>2026-05-03T10:12:24.02Z</time></trkpt><trkpt lat="42.2711351" lon="13.5673159"><ele>613.0</ele><time>2026-05-03T10:12:25.031Z</time></trkpt><trkpt lat="42.2712489" lon="13.567269"><ele>613.0</ele><time>2026-05-03T10:12:26.019Z</time></trkpt><trkpt lat="42.2713587" lon="13.5672086"><ele>613.0</ele><time>2026-05-03T10:12:27.027Z</time></trkpt><trkpt lat="42.2714567" lon="13.5671188"><ele>613.5</ele><time>2026-05-03T10:12:28.019Z</time></trkpt><trkpt lat="42.2715265" lon="13.5669959"><ele>614.0</ele><time>2026-05-03T10:12:29.017Z</time></trkpt><trkpt lat="42.2715575" lon="13.566845"><ele>614.5</ele><time>2026-05-03T10:12:30.027Z</time></trkpt><trkpt lat="42.2715579" lon="13.566691"><ele>615.0</ele><time>2026-05-03T10:12:31.01Z</time></trkpt><trkpt lat="42.27153" lon="13.5665226"><ele>615.0</ele><time>2026-05-03T10:12:32.024Z</time></trkpt><trkpt lat="42.2714809" lon="13.5663476"><ele>615.0</ele><time>2026-05-03T10:12:33.022Z</time></trkpt><trkpt lat="42.271416" lon="13.5661786"><ele>615.0</ele><time>2026-05-03T10:12:34.02Z</time></trkpt><trkpt lat="42.271351" lon="13.5660056"><ele>615.0</ele><time>2026-05-03T10:12:35.018Z</time></trkpt><trkpt lat="42.2712857" lon="13.5658422"><ele>615.25</ele><time>2026-05-03T10:12:36.025Z</time></trkpt><trkpt lat="42.271212" lon="13.5656759"><ele>615.5</ele><time>2026-05-03T10:12:37.007Z</time></trkpt><trkpt lat="42.2711397" lon="13.5655116"><ele>615.75</ele><time>2026-05-03T10:12:38.025Z</time></trkpt><trkpt lat="42.2710692" lon="13.5653474"><ele>616.0</ele><time>2026-05-03T10:12:39.013Z</time></trkpt><trkpt lat="42.2710001" lon="13.5651788"><ele>616.0</ele><time>2026-05-03T10:12:40.018Z</time></trkpt><trkpt lat="42.2709337" lon="13.5650044"><ele>616.0</ele><time>2026-05-03T10:12:41.022Z</time></trkpt><trkpt lat="42.2708719" lon="13.5648264"><ele>616.0</ele><time>2026-05-03T10:12:42.032Z</time></trkpt><trkpt lat="42.2708111" lon="13.564646"><ele>616.0</ele><time>2026-05-03T10:12:43.008Z</time></trkpt><trkpt lat="42.2707505" lon="13.5644714"><ele>617.25</ele><time>2026-05-03T10:12:44.019Z</time></trkpt><trkpt lat="42.2706911" lon="13.5643062"><ele>618.5</ele><time>2026-05-03T10:12:45.021Z</time></trkpt><trkpt lat="42.2706354" lon="13.5641482"><ele>619.75</ele><time>2026-05-03T10:12:46.022Z</time></trkpt><trkpt lat="42.2705906" lon="13.5640046"><ele>621.0</ele><time>2026-05-03T10:12:47.028Z</time></trkpt><trkpt lat="42.270557" lon="13.5638514"><ele>621.0</ele><time>2026-05-03T10:12:48.021Z</time></trkpt><trkpt lat="42.2705452" lon="13.5636997"><ele>621.0</ele><time>2026-05-03T10:12:49.017Z</time></trkpt><trkpt lat="42.2705577" lon="13.5635373"><ele>621.0</ele><time>2026-05-03T10:12:50.02Z</time></trkpt><trkpt lat="42.2705929" lon="13.5633757"><ele>621.0</ele><time>2026-05-03T10:12:51.027Z</time></trkpt><trkpt lat="42.2706389" lon="13.5632219"><ele>621.0</ele><time>2026-05-03T10:12:52.003Z</time></trkpt><trkpt lat="42.2706973" lon="13.5630879"><ele>621.0</ele><time>2026-05-03T10:12:53.007Z</time></trkpt><trkpt lat="42.2707574" lon="13.5629558"><ele>621.0</ele><time>2026-05-03T10:12:54.015Z</time></trkpt><trkpt lat="42.2708271" lon="13.5628287"><ele>621.0</ele><time>2026-05-03T10:12:55.012Z</time></trkpt><trkpt lat="42.2709016" lon="13.5627085"><ele>620.4</ele><time>2026-05-03T10:12:56.022Z</time></trkpt><trkpt lat="42.2709739" lon="13.5625963"><ele>619.8</ele><time>2026-05-03T10:12:57.014Z</time></trkpt><trkpt lat="42.2710397" lon="13.5624934"><ele>619.1999999999999</ele><time>2026-05-03T10:12:58.021Z</time></trkpt><trkpt lat="42.2711018" lon="13.5623953"><ele>618.6</ele><time>2026-05-03T10:12:59.016Z</time></trkpt><trkpt lat="42.2711593" lon="13.5622969"><ele>618.0</ele><time>2026-05-03T10:13:00.031Z</time></trkpt><trkpt lat="42.2712007" lon="13.5621912"><ele>618.0</ele><time>2026-05-03T10:13:01.005Z</time></trkpt><trkpt lat="42.2712265" lon="13.562073"><ele>618.0</ele><time>2026-05-03T10:13:02.023Z</time></trkpt><trkpt lat="42.2712388" lon="13.5619452"><ele>618.0</ele><time>2026-05-03T10:13:03.02Z</time></trkpt><trkpt lat="42.2712351" lon="13.5618053"><ele>618.0</ele><time>2026-05-03T10:13:04.027Z</time></trkpt><trkpt lat="42.2712232" lon="13.5616629"><ele>618.0</ele><time>2026-05-03T10:13:05.015Z</time></trkpt><trkpt lat="42.2712044" lon="13.5615111"><ele>618.4</ele><time>2026-05-03T10:13:06.024Z</time></trkpt><trkpt lat="42.2711813" lon="13.5613634"><ele>618.8</ele><time>2026-05-03T10:13:07.018Z</time></trkpt><trkpt lat="42.2711538" lon="13.5612122"><ele>619.2</ele><time>2026-05-03T10:13:08.018Z</time></trkpt><trkpt lat="42.2711228" lon="13.5610692"><ele>619.6</ele><time>2026-05-03T10:13:09.044Z</time></trkpt><trkpt lat="42.2710914" lon="13.5609381"><ele>620.0</ele><time>2026-05-03T10:13:10.031Z</time></trkpt><trkpt lat="42.2710501" lon="13.5608076"><ele>620.0</ele><time>2026-05-03T10:13:11.025Z</time></trkpt><trkpt lat="42.2710075" lon="13.560683"><ele>620.0</ele><time>2026-05-03T10:13:12.015Z</time></trkpt><trkpt lat="42.2709693" lon="13.5605646"><ele>620.0</ele><time>2026-05-03T10:13:13.013Z</time></trkpt><trkpt lat="42.2709425" lon="13.5604514"><ele>620.0</ele><time>2026-05-03T10:13:14.023Z</time></trkpt><trkpt lat="42.2709349" lon="13.5603345"><ele>620.0</ele><time>2026-05-03T10:13:15.022Z</time></trkpt><trkpt lat="42.2709582" lon="13.5602268"><ele>620.5</ele><time>2026-05-03T10:13:16.013Z</time></trkpt><trkpt lat="42.2710041" lon="13.56013"><ele>621.0</ele><time>2026-05-03T10:13:17.024Z</time></trkpt><trkpt lat="42.2710594" lon="13.5600456"><ele>621.5</ele><time>2026-05-03T10:13:18.024Z</time></trkpt><trkpt lat="42.2711066" lon="13.5599616"><ele>622.0</ele><time>2026-05-03T10:13:19.025Z</time></trkpt><trkpt lat="42.2711335" lon="13.5598708"><ele>622.5</ele><time>2026-05-03T10:13:20.017Z</time></trkpt><trkpt lat="42.2711263" lon="13.5597737"><ele>623.0</ele><time>2026-05-03T10:13:21.009Z</time></trkpt><trkpt lat="42.2711007" lon="13.5596757"><ele>623.0</ele><time>2026-05-03T10:13:22.028Z</time></trkpt><trkpt lat="42.2710434" lon="13.559597"><ele>623.0</ele><time>2026-05-03T10:13:23.015Z</time></trkpt><trkpt lat="42.2709698" lon="13.5595583"><ele>623.0</ele><time>2026-05-03T10:13:24.014Z</time></trkpt><trkpt lat="42.2708729" lon="13.5595495"><ele>623.0</ele><time>2026-05-03T10:13:25.017Z</time></trkpt><trkpt lat="42.2707732" lon="13.5595565"><ele>623.0</ele><time>2026-05-03T10:13:26.011Z</time></trkpt><trkpt lat="42.2706667" lon="13.5595552"><ele>622.0</ele><time>2026-05-03T10:13:27.024Z</time></trkpt><trkpt lat="42.2705606" lon="13.5595586"><ele>621.0</ele><time>2026-05-03T10:13:28.03Z</time></trkpt><trkpt lat="42.2704627" lon="13.5595676"><ele>620.0</ele><time>2026-05-03T10:13:29.033Z</time></trkpt><trkpt lat="42.270375" lon="13.5595833"><ele>619.0</ele><time>2026-05-03T10:13:30.022Z</time></trkpt><trkpt lat="42.2702765" lon="13.5595886"><ele>618.0</ele><time>2026-05-03T10:13:32.025Z</time></trkpt><trkpt lat="42.2702104" lon="13.5595684"><ele>618.0</ele><time>2026-05-03T10:13:36.024Z</time></trkpt><trkpt lat="42.2701596" lon="13.5596498"><ele>618.0</ele><time>2026-05-03T10:17:27.01Z</time></trkpt><trkpt lat="42.2700978" lon="13.5596756"><ele>618.0</ele><time>2026-05-03T10:17:28.027Z</time></trkpt><trkpt lat="42.2700234" lon="13.5596996"><ele>618.0</ele><time>2026-05-03T10:17:29.015Z</time></trkpt><trkpt lat="42.2699493" lon="13.5597391"><ele>618.0</ele><time>2026-05-03T10:17:30.021Z</time></trkpt><trkpt lat="42.2698731" lon="13.5597871"><ele>618.0</ele><time>2026-05-03T10:17:31.012Z</time></trkpt><trkpt lat="42.2697974" lon="13.5598304"><ele>617.3333333333334</ele><time>2026-05-03T10:17:32.019Z</time></trkpt><trkpt lat="42.2697258" lon="13.5598638"><ele>616.6666666666666</ele><time>2026-05-03T10:17:33.011Z</time></trkpt><trkpt lat="42.2696574" lon="13.5599072"><ele>616.0</ele><time>2026-05-03T10:17:34.014Z</time></trkpt><trkpt lat="42.2695877" lon="13.5599534"><ele>615.3333333333333</ele><time>2026-05-03T10:17:35.009Z</time></trkpt><trkpt lat="42.2695085" lon="13.5600062"><ele>614.6666666666666</ele><time>2026-05-03T10:17:36.029Z</time></trkpt><trkpt lat="42.269431" lon="13.5600604"><ele>614.0</ele><time>2026-05-03T10:17:37.018Z</time></trkpt><trkpt lat="42.2693445" lon="13.560118"><ele>614.0</ele><time>2026-05-03T10:17:38.052Z</time></trkpt><trkpt lat="42.2692526" lon="13.5601703"><ele>614.0</ele><time>2026-05-03T10:17:39.032Z</time></trkpt><trkpt lat="42.2691661" lon="13.5602182"><ele>614.0</ele><time>2026-05-03T10:17:40.02Z</time></trkpt><trkpt lat="42.2690789" lon="13.5602693"><ele>614.0</ele><time>2026-05-03T10:17:41.019Z</time></trkpt><trkpt lat="42.2689883" lon="13.5603114"><ele>614.0</ele><time>2026-05-03T10:17:42.013Z</time></trkpt><trkpt lat="42.2688896" lon="13.5603371"><ele>613.0</ele><time>2026-05-03T10:17:43.026Z</time></trkpt><trkpt lat="42.2687968" lon="13.5603431"><ele>612.0</ele><time>2026-05-03T10:17:44.02Z</time></trkpt><trkpt lat="42.2687035" lon="13.560333"><ele>611.0</ele><time>2026-05-03T10:17:45.015Z</time></trkpt><trkpt lat="42.2686131" lon="13.5602913"><ele>610.0</ele><time>2026-05-03T10:17:46.022Z</time></trkpt><trkpt lat="42.2685233" lon="13.5602221"><ele>609.0</ele><time>2026-05-03T10:17:47.031Z</time></trkpt><trkpt lat="42.2684303" lon="13.5601435"><ele>609.0</ele><time>2026-05-03T10:17:48.026Z</time></trkpt><trkpt lat="42.2683419" lon="13.5600562"><ele>609.0</ele><time>2026-05-03T10:17:49.01Z</time></trkpt><trkpt lat="42.2682463" lon="13.5599616"><ele>609.0</ele><time>2026-05-03T10:17:50.022Z</time></trkpt><trkpt lat="42.2681503" lon="13.5598744"><ele>609.0</ele><time>2026-05-03T10:17:51.035Z</time></trkpt><trkpt lat="42.2680487" lon="13.5597898"><ele>608.25</ele><time>2026-05-03T10:17:52.013Z</time></trkpt><trkpt lat="42.2679478" lon="13.5597016"><ele>607.5</ele><time>2026-05-03T10:17:53.026Z</time></trkpt><trkpt lat="42.2678478" lon="13.5596086"><ele>606.75</ele><time>2026-05-03T10:17:54.007Z</time></trkpt><trkpt lat="42.2677525" lon="13.5595149"><ele>606.0</ele><time>2026-05-03T10:17:55.023Z</time></trkpt><trkpt lat="42.2676585" lon="13.5594298"><ele>606.0</ele><time>2026-05-03T10:17:56.018Z</time></trkpt><trkpt lat="42.2675657" lon="13.5593419"><ele>606.0</ele><time>2026-05-03T10:17:57.009Z</time></trkpt><trkpt lat="42.2674769" lon="13.5592405"><ele>606.0</ele><time>2026-05-03T10:17:58.026Z</time></trkpt><trkpt lat="42.2673889" lon="13.5591444"><ele>606.0</ele><time>2026-05-03T10:17:59.017Z</time></trkpt><trkpt lat="42.2673025" lon="13.5590378"><ele>603.25</ele><time>2026-05-03T10:18:00.021Z</time></trkpt><trkpt lat="42.2672181" lon="13.5589072"><ele>600.5</ele><time>2026-05-03T10:18:01.011Z</time></trkpt><trkpt lat="42.2671421" lon="13.558775"><ele>597.75</ele><time>2026-05-03T10:18:02.017Z</time></trkpt><trkpt lat="42.2670676" lon="13.5586445"><ele>595.0</ele><time>2026-05-03T10:18:03.019Z</time></trkpt><trkpt lat="42.2669917" lon="13.5585049"><ele>595.0</ele><time>2026-05-03T10:18:04.015Z</time></trkpt><trkpt lat="42.2669191" lon="13.558375"><ele>595.0</ele><time>2026-05-03T10:18:05.02Z</time></trkpt><trkpt lat="42.2668459" lon="13.5582428"><ele>595.0</ele><time>2026-05-03T10:18:06.015Z</time></trkpt><trkpt lat="42.2667736" lon="13.5581214"><ele>595.0</ele><time>2026-05-03T10:18:07.015Z</time></trkpt><trkpt lat="42.2667017" lon="13.5579975"><ele>595.0</ele><time>2026-05-03T10:18:08.016Z</time></trkpt><trkpt lat="42.2666319" lon="13.5578762"><ele>595.0</ele><time>2026-05-03T10:18:09.025Z</time></trkpt><trkpt lat="42.2665639" lon="13.5577649"><ele>595.0</ele><time>2026-05-03T10:18:10.018Z</time></trkpt><trkpt lat="42.2665063" lon="13.5576508"><ele>595.0</ele><time>2026-05-03T10:18:11.014Z</time></trkpt><trkpt lat="42.266454" lon="13.5575343"><ele>595.0</ele><time>2026-05-03T10:18:12.019Z</time></trkpt><trkpt lat="42.2664042" lon="13.5574105"><ele>593.2</ele><time>2026-05-03T10:18:13.017Z</time></trkpt><trkpt lat="42.266372" lon="13.5572786"><ele>591.4</ele><time>2026-05-03T10:18:14.018Z</time></trkpt><trkpt lat="42.2663445" lon="13.5571453"><ele>589.6</ele><time>2026-05-03T10:18:15.019Z</time></trkpt><trkpt lat="42.2663209" lon="13.5570129"><ele>587.8</ele><time>2026-05-03T10:18:16.014Z</time></trkpt><trkpt lat="42.2663072" lon="13.556879"><ele>586.0</ele><time>2026-05-03T10:18:17.011Z</time></trkpt><trkpt lat="42.266304" lon="13.5567432"><ele>586.0</ele><time>2026-05-03T10:18:18.021Z</time></trkpt><trkpt lat="42.2663239" lon="13.5566008"><ele>586.0</ele><time>2026-05-03T10:18:19.02Z</time></trkpt><trkpt lat="42.2663856" lon="13.5564809"><ele>586.0</ele><time>2026-05-03T10:18:20.028Z</time></trkpt><trkpt lat="42.2664767" lon="13.5563817"><ele>586.0</ele><time>2026-05-03T10:18:21.011Z</time></trkpt><trkpt lat="42.2665658" lon="13.5563001"><ele>586.0</ele><time>2026-05-03T10:18:22.02Z</time></trkpt><trkpt lat="42.2666598" lon="13.5562219"><ele>586.1666666666667</ele><time>2026-05-03T10:18:23.019Z</time></trkpt><trkpt lat="42.26675" lon="13.5561503"><ele>586.3333333333334</ele><time>2026-05-03T10:18:24.017Z</time></trkpt><trkpt lat="42.2668322" lon="13.5560861"><ele>586.5</ele><time>2026-05-03T10:18:25.017Z</time></trkpt><trkpt lat="42.2669001" lon="13.5560172"><ele>586.6666666666666</ele><time>2026-05-03T10:18:26.024Z</time></trkpt><trkpt lat="42.2669444" lon="13.5559422"><ele>586.8333333333333</ele><time>2026-05-03T10:18:27.015Z</time></trkpt><trkpt lat="42.2669618" lon="13.5558502"><ele>587.0</ele><time>2026-05-03T10:18:28.023Z</time></trkpt><trkpt lat="42.2669415" lon="13.5557483"><ele>587.0</ele><time>2026-05-03T10:18:29.007Z</time></trkpt><trkpt lat="42.2668786" lon="13.5556661"><ele>587.0</ele><time>2026-05-03T10:18:30.013Z</time></trkpt><trkpt lat="42.2668016" lon="13.5556075"><ele>587.0</ele><time>2026-05-03T10:18:31.022Z</time></trkpt><trkpt lat="42.266717" lon="13.5555834"><ele>587.0</ele><time>2026-05-03T10:18:32.02Z</time></trkpt><trkpt lat="42.2666205" lon="13.5555934"><ele>587.0</ele><time>2026-05-03T10:18:33.03Z</time></trkpt><trkpt lat="42.2665197" lon="13.5556194"><ele>585.8000000000001</ele><time>2026-05-03T10:18:34.016Z</time></trkpt><trkpt lat="42.2664166" lon="13.5556401"><ele>584.6</ele><time>2026-05-03T10:18:35.015Z</time></trkpt><trkpt lat="42.2663102" lon="13.5556597"><ele>583.4000000000001</ele><time>2026-05-03T10:18:36.013Z</time></trkpt><trkpt lat="42.2662038" lon="13.5556775"><ele>582.2</ele><time>2026-05-03T10:18:37.026Z</time></trkpt><trkpt lat="42.2660951" lon="13.5556949"><ele>581.0</ele><time>2026-05-03T10:18:38.022Z</time></trkpt><trkpt lat="42.2659853" lon="13.5557105"><ele>581.0</ele><time>2026-05-03T10:18:39.019Z</time></trkpt><trkpt lat="42.2658708" lon="13.5557288"><ele>581.0</ele><time>2026-05-03T10:18:40.025Z</time></trkpt><trkpt lat="42.2657595" lon="13.5557431"><ele>581.0</ele><time>2026-05-03T10:18:41.022Z</time></trkpt><trkpt lat="42.2656418" lon="13.5557606"><ele>581.0</ele><time>2026-05-03T10:18:42.017Z</time></trkpt><trkpt lat="42.2655258" lon="13.555779"><ele>578.75</ele><time>2026-05-03T10:18:43.012Z</time></trkpt><trkpt lat="42.2654099" lon="13.5557985"><ele>576.5</ele><time>2026-05-03T10:18:44.019Z</time></trkpt><trkpt lat="42.2652981" lon="13.5558163"><ele>574.25</ele><time>2026-05-03T10:18:45.017Z</time></trkpt><trkpt lat="42.265185" lon="13.5558352"><ele>572.0</ele><time>2026-05-03T10:18:46.025Z</time></trkpt><trkpt lat="42.2650653" lon="13.5558672"><ele>572.0</ele><time>2026-05-03T10:18:47.029Z</time></trkpt><trkpt lat="42.2649483" lon="13.555911"><ele>572.0</ele><time>2026-05-03T10:18:48.03Z</time></trkpt><trkpt lat="42.2648327" lon="13.555972"><ele>572.0</ele><time>2026-05-03T10:18:49.026Z</time></trkpt><trkpt lat="42.2647107" lon="13.5560732"><ele>572.0</ele><time>2026-05-03T10:18:50.03Z</time></trkpt><trkpt lat="42.2645909" lon="13.5562118"><ele>570.3333333333333</ele><time>2026-05-03T10:18:51.025Z</time></trkpt><trkpt lat="42.2644714" lon="13.5563506"><ele>568.6666666666666</ele><time>2026-05-03T10:18:52.033Z</time></trkpt><trkpt lat="42.2643566" lon="13.5564893"><ele>567.0</ele><time>2026-05-03T10:18:53.032Z</time></trkpt><trkpt lat="42.2642505" lon="13.5566138"><ele>567.0</ele><time>2026-05-03T10:18:54.037Z</time></trkpt><trkpt lat="42.2641452" lon="13.5567281"><ele>567.0</ele><time>2026-05-03T10:18:55.011Z</time></trkpt><trkpt lat="42.2640443" lon="13.5568325"><ele>567.0</ele><time>2026-05-03T10:18:56.024Z</time></trkpt><trkpt lat="42.2639466" lon="13.5569179"><ele>567.0</ele><time>2026-05-03T10:18:57.022Z</time></trkpt><trkpt lat="42.2638377" lon="13.5569763"><ele>565.75</ele><time>2026-05-03T10:18:58.032Z</time></trkpt><trkpt lat="42.2637292" lon="13.5570191"><ele>564.5</ele><time>2026-05-03T10:18:59.034Z</time></trkpt><trkpt lat="42.2636134" lon="13.5570345"><ele>563.25</ele><time>2026-05-03T10:19:00.039Z</time></trkpt><trkpt lat="42.2634847" lon="13.557009"><ele>562.0</ele><time>2026-05-03T10:19:01.026Z</time></trkpt><trkpt lat="42.2633758" lon="13.556949"><ele>562.0</ele><time>2026-05-03T10:19:02.018Z</time></trkpt><trkpt lat="42.2632821" lon="13.5568326"><ele>562.0</ele><time>2026-05-03T10:19:03.02Z</time></trkpt><trkpt lat="42.2631997" lon="13.5566822"><ele>562.0</ele><time>2026-05-03T10:19:04.016Z</time></trkpt><trkpt lat="42.263102" lon="13.5565222"><ele>562.0</ele><time>2026-05-03T10:19:05.027Z</time></trkpt><trkpt lat="42.2629979" lon="13.5563506"><ele>560.6666666666667</ele><time>2026-05-03T10:19:06.032Z</time></trkpt><trkpt lat="42.2628917" lon="13.5561756"><ele>559.3333333333334</ele><time>2026-05-03T10:19:07.028Z</time></trkpt><trkpt lat="42.2627882" lon="13.5560116"><ele>558.0</ele><time>2026-05-03T10:19:08.027Z</time></trkpt><trkpt lat="42.2626846" lon="13.5558487"><ele>558.0</ele><time>2026-05-03T10:19:09.022Z</time></trkpt><trkpt lat="42.26259" lon="13.5556897"><ele>558.0</ele><time>2026-05-03T10:19:10.012Z</time></trkpt><trkpt lat="42.262498" lon="13.5555368"><ele>558.0</ele><time>2026-05-03T10:19:11.02Z</time></trkpt><trkpt lat="42.2624133" lon="13.5553978"><ele>558.0</ele><time>2026-05-03T10:19:12.031Z</time></trkpt><trkpt lat="42.2623243" lon="13.5552533"><ele>558.0</ele><time>2026-05-03T10:19:13.032Z</time></trkpt><trkpt lat="42.2622341" lon="13.5551023"><ele>558.0</ele><time>2026-05-03T10:19:14.029Z</time></trkpt><trkpt lat="42.2621383" lon="13.5549414"><ele>558.0</ele><time>2026-05-03T10:19:15.037Z</time></trkpt><trkpt lat="42.2620416" lon="13.5547841"><ele>558.0</ele><time>2026-05-03T10:19:16.016Z</time></trkpt><trkpt lat="42.2619466" lon="13.5546305"><ele>557.25</ele><time>2026-05-03T10:19:17.017Z</time></trkpt><trkpt lat="42.2618513" lon="13.5544796"><ele>556.5</ele><time>2026-05-03T10:19:18.023Z</time></trkpt><trkpt lat="42.2617531" lon="13.5543306"><ele>555.75</ele><time>2026-05-03T10:19:19.021Z</time></trkpt><trkpt lat="42.2616529" lon="13.5541781"><ele>555.0</ele><time>2026-05-03T10:19:20.037Z</time></trkpt><trkpt lat="42.2615554" lon="13.5540376"><ele>555.0</ele><time>2026-05-03T10:19:21.017Z</time></trkpt><trkpt lat="42.2614565" lon="13.5538974"><ele>555.0</ele><time>2026-05-03T10:19:22.019Z</time></trkpt><trkpt lat="42.2613609" lon="13.5537694"><ele>555.0</ele><time>2026-05-03T10:19:23.027Z</time></trkpt><trkpt lat="42.2612677" lon="13.5536457"><ele>555.0</ele><time>2026-05-03T10:19:24.024Z</time></trkpt><trkpt lat="42.2611856" lon="13.5535192"><ele>555.75</ele><time>2026-05-03T10:19:25.019Z</time></trkpt><trkpt lat="42.2611014" lon="13.5534015"><ele>556.5</ele><time>2026-05-03T10:19:26.029Z</time></trkpt><trkpt lat="42.2610201" lon="13.5532755"><ele>557.25</ele><time>2026-05-03T10:19:27.027Z</time></trkpt><trkpt lat="42.2609394" lon="13.5531483"><ele>558.0</ele><time>2026-05-03T10:19:28.033Z</time></trkpt><trkpt lat="42.2608499" lon="13.553015"><ele>558.0</ele><time>2026-05-03T10:19:29.023Z</time></trkpt><trkpt lat="42.2607577" lon="13.5528808"><ele>558.0</ele><time>2026-05-03T10:19:30.024Z</time></trkpt><trkpt lat="42.2606581" lon="13.552743"><ele>558.0</ele><time>2026-05-03T10:19:31.026Z</time></trkpt><trkpt lat="42.2605608" lon="13.5526014"><ele>558.0</ele><time>2026-05-03T10:19:32.017Z</time></trkpt><trkpt lat="42.2604634" lon="13.5524582"><ele>558.0</ele><time>2026-05-03T10:19:33.015Z</time></trkpt><trkpt lat="42.2603703" lon="13.5523133"><ele>558.0</ele><time>2026-05-03T10:19:34.026Z</time></trkpt><trkpt lat="42.2602791" lon="13.5521697"><ele>558.0</ele><time>2026-05-03T10:19:35.019Z</time></trkpt><trkpt lat="42.2601872" lon="13.5520239"><ele>558.0</ele><time>2026-05-03T10:19:36.026Z</time></trkpt><trkpt lat="42.2600943" lon="13.5518841"><ele>558.0</ele><time>2026-05-03T10:19:37.022Z</time></trkpt><trkpt lat="42.2599935" lon="13.5517437"><ele>558.0</ele><time>2026-05-03T10:19:38.024Z</time></trkpt><trkpt lat="42.2598944" lon="13.5516098"><ele>558.0</ele><time>2026-05-03T10:19:39.018Z</time></trkpt><trkpt lat="42.259795" lon="13.5514795"><ele>558.0</ele><time>2026-05-03T10:19:40.025Z</time></trkpt><trkpt lat="42.2596946" lon="13.5513497"><ele>557.5</ele><time>2026-05-03T10:19:41.015Z</time></trkpt><trkpt lat="42.2595987" lon="13.5512311"><ele>557.0</ele><time>2026-05-03T10:19:42.026Z</time></trkpt><trkpt lat="42.2595072" lon="13.5511118"><ele>556.5</ele><time>2026-05-03T10:19:43.013Z</time></trkpt><trkpt lat="42.2594156" lon="13.5509985"><ele>556.0</ele><time>2026-05-03T10:19:44.023Z</time></trkpt><trkpt lat="42.2593129" lon="13.55089"><ele>556.0</ele><time>2026-05-03T10:19:45.026Z</time></trkpt><trkpt lat="42.2591999" lon="13.5507889"><ele>556.0</ele><time>2026-05-03T10:19:46.01Z</time></trkpt><trkpt lat="42.259075" lon="13.5507055"><ele>556.0</ele><time>2026-05-03T10:19:47.025Z</time></trkpt><trkpt lat="42.2589437" lon="13.5506396"><ele>556.0</ele><time>2026-05-03T10:19:48.021Z</time></trkpt><trkpt lat="42.2588072" lon="13.5505835"><ele>556.0</ele><time>2026-05-03T10:19:49.021Z</time></trkpt><trkpt lat="42.2586713" lon="13.5505357"><ele>556.0</ele><time>2026-05-03T10:19:50.019Z</time></trkpt><trkpt lat="42.2585372" lon="13.5504824"><ele>556.0</ele><time>2026-05-03T10:19:51.021Z</time></trkpt><trkpt lat="42.2584026" lon="13.5504212"><ele>556.0</ele><time>2026-05-03T10:19:52.039Z</time></trkpt><trkpt lat="42.2582783" lon="13.5503494"><ele>556.25</ele><time>2026-05-03T10:19:53.021Z</time></trkpt><trkpt lat="42.2581773" lon="13.5502512"><ele>556.5</ele><time>2026-05-03T10:19:54.017Z</time></trkpt><trkpt lat="42.2580947" lon="13.550126"><ele>556.75</ele><time>2026-05-03T10:19:55.024Z</time></trkpt><trkpt lat="42.2580173" lon="13.5499894"><ele>557.0</ele><time>2026-05-03T10:19:56.021Z</time></trkpt><trkpt lat="42.2579485" lon="13.5498574"><ele>557.0</ele><time>2026-05-03T10:19:57.017Z</time></trkpt><trkpt lat="42.2578756" lon="13.5497351"><ele>557.0</ele><time>2026-05-03T10:19:58.02Z</time></trkpt><trkpt lat="42.2577985" lon="13.5496176"><ele>557.0</ele><time>2026-05-03T10:19:59.012Z</time></trkpt><trkpt lat="42.2577052" lon="13.5495132"><ele>557.0</ele><time>2026-05-03T10:20:00.026Z</time></trkpt><trkpt lat="42.2576026" lon="13.5494233"><ele>557.0</ele><time>2026-05-03T10:20:01.019Z</time></trkpt><trkpt lat="42.257498" lon="13.54933"><ele>557.0</ele><time>2026-05-03T10:20:02.023Z</time></trkpt><trkpt lat="42.2574108" lon="13.5492168"><ele>557.0</ele><time>2026-05-03T10:20:03.023Z</time></trkpt><trkpt lat="42.2573389" lon="13.5490831"><ele>557.0</ele><time>2026-05-03T10:20:04.031Z</time></trkpt><trkpt lat="42.2572809" lon="13.5489338"><ele>557.0</ele><time>2026-05-03T10:20:05.017Z</time></trkpt><trkpt lat="42.2572342" lon="13.548791"><ele>557.0</ele><time>2026-05-03T10:20:06.028Z</time></trkpt><trkpt lat="42.2571756" lon="13.5486507"><ele>557.0</ele><time>2026-05-03T10:20:07.009Z</time></trkpt><trkpt lat="42.2571043" lon="13.5485252"><ele>557.0</ele><time>2026-05-03T10:20:08.021Z</time></trkpt><trkpt lat="42.2570138" lon="13.548423"><ele>557.6</ele><time>2026-05-03T10:20:09.006Z</time></trkpt><trkpt lat="42.2569154" lon="13.5483304"><ele>558.2</ele><time>2026-05-03T10:20:10.018Z</time></trkpt><trkpt lat="42.2568233" lon="13.5482443"><ele>558.8</ele><time>2026-05-03T10:20:11.016Z</time></trkpt><trkpt lat="42.256743" lon="13.5481619"><ele>559.4</ele><time>2026-05-03T10:20:12.02Z</time></trkpt><trkpt lat="42.256679" lon="13.5480834"><ele>560.0</ele><time>2026-05-03T10:20:13.01Z</time></trkpt><trkpt lat="42.256632" lon="13.5480104"><ele>560.0</ele><time>2026-05-03T10:20:14.027Z</time></trkpt><trkpt lat="42.2566088" lon="13.5479049"><ele>560.0</ele><time>2026-05-03T10:20:16.029Z</time></trkpt><trkpt lat="42.2566172" lon="13.5478192"><ele>560.0</ele><time>2026-05-03T10:20:20.006Z</time></trkpt><trkpt lat="42.2566635" lon="13.5477368"><ele>560.0</ele><time>2026-05-03T10:20:35.023Z</time></trkpt><trkpt lat="42.2567544" lon="13.5476306"><ele>560.0</ele><time>2026-05-03T10:20:37.008Z</time></trkpt><trkpt lat="42.2568117" lon="13.5475788"><ele>560.0</ele><time>2026-05-03T10:20:38.019Z</time></trkpt><trkpt lat="42.2568817" lon="13.5475251"><ele>559.8</ele><time>2026-05-03T10:20:39.029Z</time></trkpt><trkpt lat="42.2569581" lon="13.5474673"><ele>559.6</ele><time>2026-05-03T10:20:40.02Z</time></trkpt><trkpt lat="42.2570415" lon="13.5473968"><ele>559.4</ele><time>2026-05-03T10:20:41.035Z</time></trkpt><trkpt lat="42.2571331" lon="13.5473072"><ele>559.2</ele><time>2026-05-03T10:20:42.011Z</time></trkpt><trkpt lat="42.2572307" lon="13.5472112"><ele>559.0</ele><time>2026-05-03T10:20:43.013Z</time></trkpt><trkpt lat="42.2573339" lon="13.5471195"><ele>559.0</ele><time>2026-05-03T10:20:44.011Z</time></trkpt><trkpt lat="42.2574437" lon="13.5470216"><ele>559.0</ele><time>2026-05-03T10:20:45.028Z</time></trkpt><trkpt lat="42.2575496" lon="13.5469135"><ele>559.0</ele><time>2026-05-03T10:20:46.02Z</time></trkpt><trkpt lat="42.2576536" lon="13.5467973"><ele>559.0</ele><time>2026-05-03T10:20:47.02Z</time></trkpt><trkpt lat="42.2577549" lon="13.5466741"><ele>559.0</ele><time>2026-05-03T10:20:48.023Z</time></trkpt><trkpt lat="42.2578574" lon="13.5465556"><ele>559.0</ele><time>2026-05-03T10:20:49.021Z</time></trkpt><trkpt lat="42.2579591" lon="13.5464332"><ele>559.0</ele><time>2026-05-03T10:20:50.019Z</time></trkpt><trkpt lat="42.2580622" lon="13.5463121"><ele>559.0</ele><time>2026-05-03T10:20:51.02Z</time></trkpt><trkpt lat="42.2581583" lon="13.5461821"><ele>558.5</ele><time>2026-05-03T10:20:52.024Z</time></trkpt><trkpt lat="42.2582531" lon="13.5460541"><ele>558.0</ele><time>2026-05-03T10:20:53.03Z</time></trkpt><trkpt lat="42.2583418" lon="13.5459202"><ele>557.5</ele><time>2026-05-03T10:20:54.011Z</time></trkpt><trkpt lat="42.2584204" lon="13.5457812"><ele>557.0</ele><time>2026-05-03T10:20:55.016Z</time></trkpt><trkpt lat="42.2584997" lon="13.5456424"><ele>557.0</ele><time>2026-05-03T10:20:55.997Z</time></trkpt><trkpt lat="42.2585729" lon="13.5455098"><ele>557.0</ele><time>2026-05-03T10:20:57.02Z</time></trkpt><trkpt lat="42.2586439" lon="13.5453863"><ele>557.0</ele><time>2026-05-03T10:20:58.012Z</time></trkpt><trkpt lat="42.2587099" lon="13.5452707"><ele>557.0</ele><time>2026-05-03T10:20:59.011Z</time></trkpt><trkpt lat="42.2587665" lon="13.5451549"><ele>557.0</ele><time>2026-05-03T10:21:00.035Z</time></trkpt><trkpt lat="42.25884" lon="13.5450386"><ele>556.75</ele><time>2026-05-03T10:21:01.012Z</time></trkpt><trkpt lat="42.258909" lon="13.5449163"><ele>556.5</ele><time>2026-05-03T10:21:02.021Z</time></trkpt><trkpt lat="42.2589768" lon="13.5447909"><ele>556.25</ele><time>2026-05-03T10:21:03.012Z</time></trkpt><trkpt lat="42.2590456" lon="13.544663"><ele>556.0</ele><time>2026-05-03T10:21:04.022Z</time></trkpt><trkpt lat="42.2591173" lon="13.5445314"><ele>556.5</ele><time>2026-05-03T10:21:05.019Z</time></trkpt><trkpt lat="42.2591926" lon="13.5443996"><ele>557.0</ele><time>2026-05-03T10:21:06.018Z</time></trkpt><trkpt lat="42.2592633" lon="13.5442675"><ele>557.5</ele><time>2026-05-03T10:21:07.03Z</time></trkpt><trkpt lat="42.2593342" lon="13.5441351"><ele>558.0</ele><time>2026-05-03T10:21:08.017Z</time></trkpt><trkpt lat="42.2594015" lon="13.5440075"><ele>558.0</ele><time>2026-05-03T10:21:09.029Z</time></trkpt><trkpt lat="42.2594685" lon="13.5438804"><ele>558.0</ele><time>2026-05-03T10:21:10.025Z</time></trkpt><trkpt lat="42.2595341" lon="13.5437562"><ele>558.0</ele><time>2026-05-03T10:21:11.026Z</time></trkpt><trkpt lat="42.2596042" lon="13.5436314"><ele>558.0</ele><time>2026-05-03T10:21:12.027Z</time></trkpt><trkpt lat="42.2596755" lon="13.5435051"><ele>557.75</ele><time>2026-05-03T10:21:13.011Z</time></trkpt><trkpt lat="42.2597444" lon="13.5433803"><ele>557.5</ele><time>2026-05-03T10:21:14.028Z</time></trkpt><trkpt lat="42.259816" lon="13.543257"><ele>557.25</ele><time>2026-05-03T10:21:15.013Z</time></trkpt><trkpt lat="42.2598934" lon="13.5431365"><ele>557.0</ele><time>2026-05-03T10:21:16.03Z</time></trkpt><trkpt lat="42.2599758" lon="13.5430168"><ele>557.0</ele><time>2026-05-03T10:21:17.008Z</time></trkpt><trkpt lat="42.2600581" lon="13.5428967"><ele>557.0</ele><time>2026-05-03T10:21:18.016Z</time></trkpt><trkpt lat="42.2601444" lon="13.5427803"><ele>557.0</ele><time>2026-05-03T10:21:19.02Z</time></trkpt><trkpt lat="42.2602333" lon="13.542664"><ele>557.0</ele><time>2026-05-03T10:21:20.015Z</time></trkpt><trkpt lat="42.2603185" lon="13.542551"><ele>557.25</ele><time>2026-05-03T10:21:21.021Z</time></trkpt><trkpt lat="42.2604072" lon="13.5424347"><ele>557.5</ele><time>2026-05-03T10:21:22.023Z</time></trkpt><trkpt lat="42.2604959" lon="13.5423197"><ele>557.75</ele><time>2026-05-03T10:21:23.007Z</time></trkpt><trkpt lat="42.2605913" lon="13.5422026"><ele>558.0</ele><time>2026-05-03T10:21:24.024Z</time></trkpt><trkpt lat="42.2606911" lon="13.5420858"><ele>559.25</ele><time>2026-05-03T10:21:25.015Z</time></trkpt><trkpt lat="42.2607925" lon="13.5419661"><ele>560.5</ele><time>2026-05-03T10:21:26.015Z</time></trkpt><trkpt lat="42.2608939" lon="13.5418425"><ele>561.75</ele><time>2026-05-03T10:21:27.011Z</time></trkpt><trkpt lat="42.2609967" lon="13.5417136"><ele>563.0</ele><time>2026-05-03T10:21:28.022Z</time></trkpt><trkpt lat="42.2610991" lon="13.5415753"><ele>563.0</ele><time>2026-05-03T10:21:29.019Z</time></trkpt><trkpt lat="42.261204" lon="13.5414389"><ele>563.0</ele><time>2026-05-03T10:21:30.023Z</time></trkpt><trkpt lat="42.26131" lon="13.5412969"><ele>563.0</ele><time>2026-05-03T10:21:31.012Z</time></trkpt><trkpt lat="42.2614131" lon="13.5411646"><ele>563.0</ele><time>2026-05-03T10:21:32.024Z</time></trkpt><trkpt lat="42.2615172" lon="13.5410392"><ele>562.75</ele><time>2026-05-03T10:21:33.021Z</time></trkpt><trkpt lat="42.2616215" lon="13.5409144"><ele>562.5</ele><time>2026-05-03T10:21:34.022Z</time></trkpt><trkpt lat="42.2617282" lon="13.5407875"><ele>562.25</ele><time>2026-05-03T10:21:35.029Z</time></trkpt><trkpt lat="42.2618395" lon="13.5406537"><ele>562.0</ele><time>2026-05-03T10:21:36.017Z</time></trkpt><trkpt lat="42.2619491" lon="13.5405239"><ele>562.0</ele><time>2026-05-03T10:21:37.028Z</time></trkpt><trkpt lat="42.2620639" lon="13.5403949"><ele>562.0</ele><time>2026-05-03T10:21:38.018Z</time></trkpt><trkpt lat="42.2621797" lon="13.5402641"><ele>562.0</ele><time>2026-05-03T10:21:39.018Z</time></trkpt><trkpt lat="42.2622934" lon="13.540133"><ele>561.3333333333334</ele><time>2026-05-03T10:21:40.021Z</time></trkpt><trkpt lat="42.2624059" lon="13.5399985"><ele>560.6666666666666</ele><time>2026-05-03T10:21:41.021Z</time></trkpt><trkpt lat="42.2625208" lon="13.5398681"><ele>560.0</ele><time>2026-05-03T10:21:42.016Z</time></trkpt><trkpt lat="42.2626358" lon="13.5397389"><ele>560.0</ele><time>2026-05-03T10:21:43.02Z</time></trkpt><trkpt lat="42.2627469" lon="13.5396086"><ele>560.0</ele><time>2026-05-03T10:21:44.019Z</time></trkpt><trkpt lat="42.2628611" lon="13.5394749"><ele>560.0</ele><time>2026-05-03T10:21:45.014Z</time></trkpt><trkpt lat="42.2629712" lon="13.539343"><ele>560.0</ele><time>2026-05-03T10:21:46.03Z</time></trkpt><trkpt lat="42.2630841" lon="13.5392147"><ele>560.25</ele><time>2026-05-03T10:21:47.015Z</time></trkpt><trkpt lat="42.2631911" lon="13.539086"><ele>560.5</ele><time>2026-05-03T10:21:48.028Z</time></trkpt><trkpt lat="42.2633008" lon="13.5389582"><ele>560.75</ele><time>2026-05-03T10:21:49.023Z</time></trkpt><trkpt lat="42.2634103" lon="13.5388289"><ele>561.0</ele><time>2026-05-03T10:21:50.026Z</time></trkpt><trkpt lat="42.2635239" lon="13.5387034"><ele>561.5</ele><time>2026-05-03T10:21:51.019Z</time></trkpt><trkpt lat="42.2636363" lon="13.5385813"><ele>562.0</ele><time>2026-05-03T10:21:52.012Z</time></trkpt><trkpt lat="42.2637516" lon="13.5384601"><ele>562.5</ele><time>2026-05-03T10:21:53.021Z</time></trkpt><trkpt lat="42.2638645" lon="13.5383355"><ele>563.0</ele><time>2026-05-03T10:21:54.021Z</time></trkpt><trkpt lat="42.2639783" lon="13.5382128"><ele>563.25</ele><time>2026-05-03T10:21:55.017Z</time></trkpt><trkpt lat="42.2640865" lon="13.5380921"><ele>563.5</ele><time>2026-05-03T10:21:56.015Z</time></trkpt><trkpt lat="42.2641927" lon="13.5379694"><ele>563.75</ele><time>2026-05-03T10:21:57.033Z</time></trkpt><trkpt lat="42.2643073" lon="13.5378396"><ele>564.0</ele><time>2026-05-03T10:21:58.021Z</time></trkpt><trkpt lat="42.2644213" lon="13.537709"><ele>564.0</ele><time>2026-05-03T10:21:59.025Z</time></trkpt><trkpt lat="42.2645418" lon="13.53758"><ele>564.0</ele><time>2026-05-03T10:22:00.044Z</time></trkpt><trkpt lat="42.2646637" lon="13.5374509"><ele>564.0</ele><time>2026-05-03T10:22:01.017Z</time></trkpt><trkpt lat="42.2647828" lon="13.5373199"><ele>564.25</ele><time>2026-05-03T10:22:02.023Z</time></trkpt><trkpt lat="42.2648981" lon="13.5371912"><ele>564.5</ele><time>2026-05-03T10:22:03.025Z</time></trkpt><trkpt lat="42.2650101" lon="13.5370699"><ele>564.75</ele><time>2026-05-03T10:22:04.021Z</time></trkpt><trkpt lat="42.2651195" lon="13.5369548"><ele>565.0</ele><time>2026-05-03T10:22:05.012Z</time></trkpt><trkpt lat="42.2652275" lon="13.5368467"><ele>565.0</ele><time>2026-05-03T10:22:06.027Z</time></trkpt><trkpt lat="42.2653343" lon="13.5367382"><ele>565.0</ele><time>2026-05-03T10:22:07.022Z</time></trkpt><trkpt lat="42.2654499" lon="13.5366446"><ele>565.0</ele><time>2026-05-03T10:22:08.028Z</time></trkpt><trkpt lat="42.2655713" lon="13.5365538"><ele>565.0</ele><time>2026-05-03T10:22:09.014Z</time></trkpt><trkpt lat="42.2656952" lon="13.5364692"><ele>564.75</ele><time>2026-05-03T10:22:10.02Z</time></trkpt><trkpt lat="42.2658102" lon="13.5363838"><ele>564.5</ele><time>2026-05-03T10:22:11.028Z</time></trkpt><trkpt lat="42.2659219" lon="13.5363005"><ele>564.25</ele><time>2026-05-03T10:22:12.019Z</time></trkpt><trkpt lat="42.2660278" lon="13.5362218"><ele>564.0</ele><time>2026-05-03T10:22:13.001Z</time></trkpt><trkpt lat="42.2661234" lon="13.5361558"><ele>564.0</ele><time>2026-05-03T10:22:14.022Z</time></trkpt><trkpt lat="42.2662111" lon="13.5360842"><ele>564.0</ele><time>2026-05-03T10:22:15.016Z</time></trkpt><trkpt lat="42.2662976" lon="13.5359923"><ele>564.0</ele><time>2026-05-03T10:22:16.029Z</time></trkpt><trkpt lat="42.2663766" lon="13.5358767"><ele>564.0</ele><time>2026-05-03T10:22:17.026Z</time></trkpt><trkpt lat="42.2664534" lon="13.5357447"><ele>564.0</ele><time>2026-05-03T10:22:18.018Z</time></trkpt><trkpt lat="42.2665284" lon="13.5356007"><ele>564.0</ele><time>2026-05-03T10:22:19.014Z</time></trkpt><trkpt lat="42.2666025" lon="13.5354562"><ele>564.0</ele><time>2026-05-03T10:22:20.036Z</time></trkpt><trkpt lat="42.2666817" lon="13.5353059"><ele>564.0</ele><time>2026-05-03T10:22:21.021Z</time></trkpt><trkpt lat="42.2667633" lon="13.5351627"><ele>565.0</ele><time>2026-05-03T10:22:22.022Z</time></trkpt><trkpt lat="42.2668421" lon="13.5350186"><ele>566.0</ele><time>2026-05-03T10:22:23.016Z</time></trkpt><trkpt lat="42.266913" lon="13.5348701"><ele>567.0</ele><time>2026-05-03T10:22:24.025Z</time></trkpt><trkpt lat="42.2669733" lon="13.5347166"><ele>568.0</ele><time>2026-05-03T10:22:25.02Z</time></trkpt><trkpt lat="42.2670283" lon="13.5345627"><ele>568.75</ele><time>2026-05-03T10:22:26.015Z</time></trkpt><trkpt lat="42.2670814" lon="13.5343989"><ele>569.5</ele><time>2026-05-03T10:22:27.006Z</time></trkpt><trkpt lat="42.2671377" lon="13.5342372"><ele>570.25</ele><time>2026-05-03T10:22:28.017Z</time></trkpt><trkpt lat="42.2671934" lon="13.5340697"><ele>571.0</ele><time>2026-05-03T10:22:29.012Z</time></trkpt><trkpt lat="42.2672572" lon="13.5339114"><ele>572.25</ele><time>2026-05-03T10:22:30.017Z</time></trkpt><trkpt lat="42.2673299" lon="13.5337608"><ele>573.5</ele><time>2026-05-03T10:22:31.023Z</time></trkpt><trkpt lat="42.2674058" lon="13.5336172"><ele>574.75</ele><time>2026-05-03T10:22:32.018Z</time></trkpt><trkpt lat="42.2674837" lon="13.533479"><ele>576.0</ele><time>2026-05-03T10:22:33.015Z</time></trkpt><trkpt lat="42.2675672" lon="13.5333463"><ele>577.25</ele><time>2026-05-03T10:22:34.034Z</time></trkpt><trkpt lat="42.2676559" lon="13.5332214"><ele>578.5</ele><time>2026-05-03T10:22:35.023Z</time></trkpt><trkpt lat="42.2677507" lon="13.5331174"><ele>579.75</ele><time>2026-05-03T10:22:36.018Z</time></trkpt><trkpt lat="42.2678428" lon="13.533033"><ele>581.0</ele><time>2026-05-03T10:22:37.014Z</time></trkpt><trkpt lat="42.2679348" lon="13.5329465"><ele>581.5</ele><time>2026-05-03T10:22:38.021Z</time></trkpt><trkpt lat="42.2680147" lon="13.5328509"><ele>582.0</ele><time>2026-05-03T10:22:39.031Z</time></trkpt><trkpt lat="42.2680847" lon="13.5327315"><ele>582.5</ele><time>2026-05-03T10:22:40.014Z</time></trkpt><trkpt lat="42.2681495" lon="13.5325889"><ele>583.0</ele><time>2026-05-03T10:22:41.03Z</time></trkpt><trkpt lat="42.2682052" lon="13.5324368"><ele>583.0</ele><time>2026-05-03T10:22:42.023Z</time></trkpt><trkpt lat="42.2682571" lon="13.5323009"><ele>583.0</ele><time>2026-05-03T10:22:43.024Z</time></trkpt><trkpt lat="42.2683112" lon="13.5321804"><ele>583.0</ele><time>2026-05-03T10:22:44.025Z</time></trkpt><trkpt lat="42.2683614" lon="13.5320682"><ele>583.0</ele><time>2026-05-03T10:22:45.017Z</time></trkpt><trkpt lat="42.2684216" lon="13.5319626"><ele>583.0</ele><time>2026-05-03T10:22:46.019Z</time></trkpt><trkpt lat="42.2685042" lon="13.53186"><ele>584.75</ele><time>2026-05-03T10:22:47.019Z</time></trkpt><trkpt lat="42.2685929" lon="13.5317662"><ele>586.5</ele><time>2026-05-03T10:22:48.022Z</time></trkpt><trkpt lat="42.2686868" lon="13.5316683"><ele>588.25</ele><time>2026-05-03T10:22:49.017Z</time></trkpt><trkpt lat="42.2687791" lon="13.5315619"><ele>590.0</ele><time>2026-05-03T10:22:50.029Z</time></trkpt><trkpt lat="42.2688747" lon="13.531447"><ele>590.5</ele><time>2026-05-03T10:22:51.015Z</time></trkpt><trkpt lat="42.2689703" lon="13.5313302"><ele>591.0</ele><time>2026-05-03T10:22:52.024Z</time></trkpt><trkpt lat="42.2690637" lon="13.531214"><ele>591.5</ele><time>2026-05-03T10:22:53.02Z</time></trkpt><trkpt lat="42.2691565" lon="13.5310961"><ele>592.0</ele><time>2026-05-03T10:22:54.018Z</time></trkpt><trkpt lat="42.2692472" lon="13.5309802"><ele>592.0</ele><time>2026-05-03T10:22:55.023Z</time></trkpt><trkpt lat="42.269338" lon="13.5308643"><ele>592.0</ele><time>2026-05-03T10:22:56.019Z</time></trkpt><trkpt lat="42.2694307" lon="13.5307485"><ele>592.0</ele><time>2026-05-03T10:22:57.01Z</time></trkpt><trkpt lat="42.269525" lon="13.5306311"><ele>592.0</ele><time>2026-05-03T10:22:58.015Z</time></trkpt><trkpt lat="42.2696262" lon="13.5305185"><ele>592.0</ele><time>2026-05-03T10:22:59.016Z</time></trkpt><trkpt lat="42.2697201" lon="13.5304046"><ele>592.0</ele><time>2026-05-03T10:23:00.021Z</time></trkpt><trkpt lat="42.2698128" lon="13.5302936"><ele>592.0</ele><time>2026-05-03T10:23:01.01Z</time></trkpt><trkpt lat="42.269907" lon="13.5301839"><ele>592.0</ele><time>2026-05-03T10:23:02.012Z</time></trkpt><trkpt lat="42.2700016" lon="13.5300746"><ele>591.5</ele><time>2026-05-03T10:23:03.014Z</time></trkpt><trkpt lat="42.270097" lon="13.5299575"><ele>591.0</ele><time>2026-05-03T10:23:04.019Z</time></trkpt><trkpt lat="42.270202" lon="13.52986"><ele>590.5</ele><time>2026-05-03T10:23:05.041Z</time></trkpt><trkpt lat="42.2703268" lon="13.5297621"><ele>590.0</ele><time>2026-05-03T10:23:06.022Z</time></trkpt><trkpt lat="42.2704665" lon="13.5296685"><ele>591.0</ele><time>2026-05-03T10:23:07.011Z</time></trkpt><trkpt lat="42.2706202" lon="13.5295902"><ele>592.0</ele><time>2026-05-03T10:23:08.027Z</time></trkpt><trkpt lat="42.2707933" lon="13.5295215"><ele>593.0</ele><time>2026-05-03T10:23:09.017Z</time></trkpt><trkpt lat="42.2709795" lon="13.5294495"><ele>593.0</ele><time>2026-05-03T10:23:10.024Z</time></trkpt><trkpt lat="42.2711553" lon="13.5293788"><ele>593.0</ele><time>2026-05-03T10:23:11.014Z</time></trkpt><trkpt lat="42.2713183" lon="13.5293017"><ele>593.0</ele><time>2026-05-03T10:23:12.019Z</time></trkpt><trkpt lat="42.2714656" lon="13.5292266"><ele>592.0</ele><time>2026-05-03T10:23:13.021Z</time></trkpt><trkpt lat="42.2716071" lon="13.5291323"><ele>591.0</ele><time>2026-05-03T10:23:14.022Z</time></trkpt><trkpt lat="42.2717425" lon="13.5289992"><ele>590.0</ele><time>2026-05-03T10:23:15.018Z</time></trkpt><trkpt lat="42.2718675" lon="13.5288292"><ele>593.3333333333333</ele><time>2026-05-03T10:23:16.017Z</time></trkpt><trkpt lat="42.2720011" lon="13.52864"><ele>596.6666666666666</ele><time>2026-05-03T10:23:17.028Z</time></trkpt><trkpt lat="42.2721371" lon="13.5284461"><ele>600.0</ele><time>2026-05-03T10:23:18.017Z</time></trkpt><trkpt lat="42.2722814" lon="13.5282699"><ele>600.0</ele><time>2026-05-03T10:23:19.02Z</time></trkpt><trkpt lat="42.2724331" lon="13.5281052"><ele>600.0</ele><time>2026-05-03T10:23:20.02Z</time></trkpt><trkpt lat="42.2725881" lon="13.527941"><ele>600.0</ele><time>2026-05-03T10:23:21.018Z</time></trkpt><trkpt lat="42.2727417" lon="13.5277707"><ele>602.3333333333334</ele><time>2026-05-03T10:23:22.023Z</time></trkpt><trkpt lat="42.2728927" lon="13.5276062"><ele>604.6666666666667</ele><time>2026-05-03T10:23:23.013Z</time></trkpt><trkpt lat="42.2730418" lon="13.5274438"><ele>607.0</ele><time>2026-05-03T10:23:24.018Z</time></trkpt><trkpt lat="42.2731914" lon="13.5272801"><ele>607.0</ele><time>2026-05-03T10:23:25.02Z</time></trkpt><trkpt lat="42.2733384" lon="13.5271197"><ele>607.0</ele><time>2026-05-03T10:23:26.013Z</time></trkpt><trkpt lat="42.2734885" lon="13.5269704"><ele>607.0</ele><time>2026-05-03T10:23:27.025Z</time></trkpt><trkpt lat="42.2736338" lon="13.5268182"><ele>609.6666666666667</ele><time>2026-05-03T10:23:28.015Z</time></trkpt><trkpt lat="42.2737764" lon="13.5266627"><ele>612.3333333333334</ele><time>2026-05-03T10:23:29.019Z</time></trkpt><trkpt lat="42.2739162" lon="13.5265119"><ele>615.0</ele><time>2026-05-03T10:23:30.014Z</time></trkpt><trkpt lat="42.2740443" lon="13.5263776"><ele>615.0</ele><time>2026-05-03T10:23:31.013Z</time></trkpt><trkpt lat="42.2741599" lon="13.5262555"><ele>615.0</ele><time>2026-05-03T10:23:32.019Z</time></trkpt><trkpt lat="42.2742636" lon="13.5261227"><ele>615.0</ele><time>2026-05-03T10:23:33.011Z</time></trkpt><trkpt lat="42.2743595" lon="13.5259853"><ele>615.0</ele><time>2026-05-03T10:23:34.03Z</time></trkpt><trkpt lat="42.274446" lon="13.5258395"><ele>615.75</ele><time>2026-05-03T10:23:35.016Z</time></trkpt><trkpt lat="42.2745409" lon="13.5256886"><ele>616.5</ele><time>2026-05-03T10:23:36.028Z</time></trkpt><trkpt lat="42.274643" lon="13.5255526"><ele>617.25</ele><time>2026-05-03T10:23:37.013Z</time></trkpt><trkpt lat="42.2747529" lon="13.5254209"><ele>618.0</ele><time>2026-05-03T10:23:37.995Z</time></trkpt><trkpt lat="42.2748766" lon="13.525283"><ele>618.0</ele><time>2026-05-03T10:23:39.014Z</time></trkpt><trkpt lat="42.2750038" lon="13.5251386"><ele>618.0</ele><time>2026-05-03T10:23:40.011Z</time></trkpt><trkpt lat="42.2751253" lon="13.5249779"><ele>618.0</ele><time>2026-05-03T10:23:41.01Z</time></trkpt><trkpt lat="42.2752454" lon="13.5248011"><ele>618.0</ele><time>2026-05-03T10:23:42.018Z</time></trkpt><trkpt lat="42.2753681" lon="13.524623"><ele>618.0</ele><time>2026-05-03T10:23:43.009Z</time></trkpt><trkpt lat="42.2754892" lon="13.5244428"><ele>618.0</ele><time>2026-05-03T10:23:44.011Z</time></trkpt><trkpt lat="42.2756091" lon="13.5242619"><ele>613.6666666666666</ele><time>2026-05-03T10:23:45.012Z</time></trkpt><trkpt lat="42.2757283" lon="13.524083"><ele>609.3333333333333</ele><time>2026-05-03T10:23:46.018Z</time></trkpt><trkpt lat="42.2758432" lon="13.5239079"><ele>605.0</ele><time>2026-05-03T10:23:47.003Z</time></trkpt><trkpt lat="42.275959" lon="13.5237394"><ele>607.0</ele><time>2026-05-03T10:23:48.009Z</time></trkpt><trkpt lat="42.276073" lon="13.5235667"><ele>609.0</ele><time>2026-05-03T10:23:49.01Z</time></trkpt><trkpt lat="42.2761827" lon="13.5234032"><ele>611.0</ele><time>2026-05-03T10:23:50.031Z</time></trkpt><trkpt lat="42.276288" lon="13.5232444"><ele>611.0</ele><time>2026-05-03T10:23:51.006Z</time></trkpt><trkpt lat="42.2763853" lon="13.5230713"><ele>611.0</ele><time>2026-05-03T10:23:52.012Z</time></trkpt><trkpt lat="42.2764793" lon="13.5228981"><ele>611.0</ele><time>2026-05-03T10:23:53.01Z</time></trkpt><trkpt lat="42.2765527" lon="13.522729"><ele>607.25</ele><time>2026-05-03T10:23:54.019Z</time></trkpt><trkpt lat="42.2766187" lon="13.522566"><ele>603.5</ele><time>2026-05-03T10:23:55.015Z</time></trkpt><trkpt lat="42.2766814" lon="13.5224065"><ele>599.75</ele><time>2026-05-03T10:23:56.015Z</time></trkpt><trkpt lat="42.2767517" lon="13.5222551"><ele>596.0</ele><time>2026-05-03T10:23:57.017Z</time></trkpt><trkpt lat="42.2768375" lon="13.5221328"><ele>595.25</ele><time>2026-05-03T10:23:58.01Z</time></trkpt><trkpt lat="42.2769401" lon="13.5220389"><ele>594.5</ele><time>2026-05-03T10:23:59.013Z</time></trkpt><trkpt lat="42.2770562" lon="13.5219621"><ele>593.75</ele><time>2026-05-03T10:24:00.015Z</time></trkpt><trkpt lat="42.2771831" lon="13.5218969"><ele>593.0</ele><time>2026-05-03T10:24:01.027Z</time></trkpt><trkpt lat="42.2773116" lon="13.5218315"><ele>593.0</ele><time>2026-05-03T10:24:02.01Z</time></trkpt><trkpt lat="42.2774418" lon="13.5217608"><ele>593.0</ele><time>2026-05-03T10:24:03.011Z</time></trkpt><trkpt lat="42.2775681" lon="13.5216979"><ele>593.0</ele><time>2026-05-03T10:24:04.024Z</time></trkpt><trkpt lat="42.2776852" lon="13.5216283"><ele>593.0</ele><time>2026-05-03T10:24:05.005Z</time></trkpt><trkpt lat="42.2777891" lon="13.5215586"><ele>593.0</ele><time>2026-05-03T10:24:06.017Z</time></trkpt><trkpt lat="42.2778945" lon="13.521484"><ele>593.0</ele><time>2026-05-03T10:24:07.015Z</time></trkpt><trkpt lat="42.2779885" lon="13.5214129"><ele>593.0</ele><time>2026-05-03T10:24:08.011Z</time></trkpt><trkpt lat="42.2780716" lon="13.5213371"><ele>593.0</ele><time>2026-05-03T10:24:09.01Z</time></trkpt><trkpt lat="42.2781233" lon="13.5212376"><ele>593.0</ele><time>2026-05-03T10:24:10.018Z</time></trkpt><trkpt lat="42.2781599" lon="13.521112"><ele>593.0</ele><time>2026-05-03T10:24:11.014Z</time></trkpt><trkpt lat="42.2781859" lon="13.5209498"><ele>593.0</ele><time>2026-05-03T10:24:12.01Z</time></trkpt><trkpt lat="42.2782075" lon="13.5207857"><ele>593.0</ele><time>2026-05-03T10:24:13.023Z</time></trkpt><trkpt lat="42.2782284" lon="13.5206243"><ele>593.0</ele><time>2026-05-03T10:24:14.012Z</time></trkpt><trkpt lat="42.2782693" lon="13.520462"><ele>591.25</ele><time>2026-05-03T10:24:15.012Z</time></trkpt><trkpt lat="42.2783214" lon="13.5203179"><ele>589.5</ele><time>2026-05-03T10:24:16.015Z</time></trkpt><trkpt lat="42.2783871" lon="13.5201699"><ele>587.75</ele><time>2026-05-03T10:24:17.001Z</time></trkpt><trkpt lat="42.2784497" lon="13.5200102"><ele>586.0</ele><time>2026-05-03T10:24:18.029Z</time></trkpt><trkpt lat="42.2785094" lon="13.5198544"><ele>586.0</ele><time>2026-05-03T10:24:19.001Z</time></trkpt><trkpt lat="42.2785661" lon="13.5196934"><ele>586.0</ele><time>2026-05-03T10:24:20.022Z</time></trkpt><trkpt lat="42.2786177" lon="13.5195363"><ele>586.0</ele><time>2026-05-03T10:24:21.014Z</time></trkpt><trkpt lat="42.2786667" lon="13.5193774"><ele>586.0</ele><time>2026-05-03T10:24:22.013Z</time></trkpt><trkpt lat="42.2787088" lon="13.5192192"><ele>584.25</ele><time>2026-05-03T10:24:23.025Z</time></trkpt><trkpt lat="42.2787542" lon="13.519056"><ele>582.5</ele><time>2026-05-03T10:24:24.001Z</time></trkpt><trkpt lat="42.2787982" lon="13.5188985"><ele>580.75</ele><time>2026-05-03T10:24:25.022Z</time></trkpt><trkpt lat="42.27885" lon="13.5187464"><ele>579.0</ele><time>2026-05-03T10:24:26.016Z</time></trkpt><trkpt lat="42.2789132" lon="13.5185941"><ele>577.75</ele><time>2026-05-03T10:24:27.02Z</time></trkpt><trkpt lat="42.2789882" lon="13.518445"><ele>576.5</ele><time>2026-05-03T10:24:28.016Z</time></trkpt><trkpt lat="42.279081" lon="13.5183085"><ele>575.25</ele><time>2026-05-03T10:24:29.003Z</time></trkpt><trkpt lat="42.2791794" lon="13.5181705"><ele>574.0</ele><time>2026-05-03T10:24:30.016Z</time></trkpt><trkpt lat="42.2792786" lon="13.518035"><ele>572.75</ele><time>2026-05-03T10:24:31.014Z</time></trkpt><trkpt lat="42.2793833" lon="13.517893"><ele>571.5</ele><time>2026-05-03T10:24:32.017Z</time></trkpt><trkpt lat="42.279481" lon="13.5177543"><ele>570.25</ele><time>2026-05-03T10:24:33.032Z</time></trkpt><trkpt lat="42.2795747" lon="13.5176065"><ele>569.0</ele><time>2026-05-03T10:24:34.023Z</time></trkpt><trkpt lat="42.2796677" lon="13.5174546"><ele>569.0</ele><time>2026-05-03T10:24:35.021Z</time></trkpt><trkpt lat="42.2797564" lon="13.5172903"><ele>569.0</ele><time>2026-05-03T10:24:36.017Z</time></trkpt><trkpt lat="42.2798409" lon="13.5171308"><ele>569.0</ele><time>2026-05-03T10:24:37.02Z</time></trkpt><trkpt lat="42.2799259" lon="13.5169648"><ele>569.0</ele><time>2026-05-03T10:24:38.016Z</time></trkpt><trkpt lat="42.2800012" lon="13.5168037"><ele>567.5</ele><time>2026-05-03T10:24:39.025Z</time></trkpt><trkpt lat="42.2800791" lon="13.5166398"><ele>566.0</ele><time>2026-05-03T10:24:40.01Z</time></trkpt><trkpt lat="42.280155" lon="13.5164752"><ele>564.5</ele><time>2026-05-03T10:24:41.053Z</time></trkpt><trkpt lat="42.2802327" lon="13.5163059"><ele>563.0</ele><time>2026-05-03T10:24:42.021Z</time></trkpt><trkpt lat="42.2803121" lon="13.5161378"><ele>563.0</ele><time>2026-05-03T10:24:43.027Z</time></trkpt><trkpt lat="42.2803892" lon="13.5159702"><ele>563.0</ele><time>2026-05-03T10:24:44.012Z</time></trkpt><trkpt lat="42.2804647" lon="13.5158019"><ele>563.0</ele><time>2026-05-03T10:24:45.001Z</time></trkpt><trkpt lat="42.280538" lon="13.5156325"><ele>563.0</ele><time>2026-05-03T10:24:46.037Z</time></trkpt><trkpt lat="42.2806165" lon="13.5154611"><ele>563.75</ele><time>2026-05-03T10:24:47.027Z</time></trkpt><trkpt lat="42.2806972" lon="13.5152931"><ele>564.5</ele><time>2026-05-03T10:24:48.042Z</time></trkpt><trkpt lat="42.2807801" lon="13.5151225"><ele>565.25</ele><time>2026-05-03T10:24:49.013Z</time></trkpt><trkpt lat="42.2808598" lon="13.5149607"><ele>566.0</ele><time>2026-05-03T10:24:50.024Z</time></trkpt><trkpt lat="42.2809431" lon="13.5148063"><ele>566.0</ele><time>2026-05-03T10:24:51.03Z</time></trkpt><trkpt lat="42.2810268" lon="13.5146714"><ele>566.0</ele><time>2026-05-03T10:24:52.03Z</time></trkpt><trkpt lat="42.2811104" lon="13.514548"><ele>566.0</ele><time>2026-05-03T10:24:53.028Z</time></trkpt><trkpt lat="42.2811904" lon="13.5144249"><ele>566.0</ele><time>2026-05-03T10:24:54.021Z</time></trkpt><trkpt lat="42.2812706" lon="13.5143053"><ele>565.75</ele><time>2026-05-03T10:24:55.036Z</time></trkpt><trkpt lat="42.281348" lon="13.5141861"><ele>565.5</ele><time>2026-05-03T10:24:56.021Z</time></trkpt><trkpt lat="42.2814281" lon="13.5140701"><ele>565.25</ele><time>2026-05-03T10:24:57.022Z</time></trkpt><trkpt lat="42.281504" lon="13.5139551"><ele>565.0</ele><time>2026-05-03T10:24:58.025Z</time></trkpt><trkpt lat="42.2815833" lon="13.5138429"><ele>565.6</ele><time>2026-05-03T10:24:59.019Z</time></trkpt><trkpt lat="42.2816621" lon="13.5137281"><ele>566.2</ele><time>2026-05-03T10:25:00.025Z</time></trkpt><trkpt lat="42.2817388" lon="13.5136147"><ele>566.8</ele><time>2026-05-03T10:25:01.009Z</time></trkpt><trkpt lat="42.2818087" lon="13.5135057"><ele>567.4</ele><time>2026-05-03T10:25:02.026Z</time></trkpt><trkpt lat="42.281876" lon="13.513398"><ele>568.0</ele><time>2026-05-03T10:25:03.015Z</time></trkpt><trkpt lat="42.28194" lon="13.5132931"><ele>568.0</ele><time>2026-05-03T10:25:04.029Z</time></trkpt><trkpt lat="42.2820029" lon="13.5131916"><ele>568.0</ele><time>2026-05-03T10:25:05.023Z</time></trkpt><trkpt lat="42.2820639" lon="13.5130949"><ele>568.0</ele><time>2026-05-03T10:25:06.031Z</time></trkpt><trkpt lat="42.2821173" lon="13.5130043"><ele>568.0</ele><time>2026-05-03T10:25:07.02Z</time></trkpt><trkpt lat="42.2821687" lon="13.512932"><ele>568.0</ele><time>2026-05-03T10:25:08.019Z</time></trkpt><trkpt lat="42.2822147" lon="13.5128715"><ele>568.0</ele><time>2026-05-03T10:25:09.016Z</time></trkpt><trkpt lat="42.2822843" lon="13.5127978"><ele>567.1999999999999</ele><time>2026-05-03T10:25:11.025Z</time></trkpt><trkpt lat="42.2823202" lon="13.5126819"><ele>566.4</ele><time>2026-05-03T10:25:14.031Z</time></trkpt><trkpt lat="42.2823028" lon="13.5125649"><ele>565.5999999999999</ele><time>2026-05-03T10:25:16.029Z</time></trkpt><trkpt lat="42.2823252" lon="13.5123909"><ele>564.8</ele><time>2026-05-03T10:25:18.013Z</time></trkpt><trkpt lat="42.2823558" lon="13.5122923"><ele>564.0</ele><time>2026-05-03T10:25:19.031Z</time></trkpt><trkpt lat="42.2823895" lon="13.512181"><ele>564.0</ele><time>2026-05-03T10:25:20.015Z</time></trkpt><trkpt lat="42.2824252" lon="13.5120689"><ele>564.0</ele><time>2026-05-03T10:25:21.015Z</time></trkpt><trkpt lat="42.2824605" lon="13.5119593"><ele>564.0</ele><time>2026-05-03T10:25:22.038Z</time></trkpt><trkpt lat="42.2824993" lon="13.5118422"><ele>564.0</ele><time>2026-05-03T10:25:23.018Z</time></trkpt><trkpt lat="42.282541" lon="13.5117193"><ele>564.0</ele><time>2026-05-03T10:25:24.041Z</time></trkpt><trkpt lat="42.282582" lon="13.5115916"><ele>564.0</ele><time>2026-05-03T10:25:25.012Z</time></trkpt><trkpt lat="42.2826183" lon="13.5114609"><ele>564.0</ele><time>2026-05-03T10:25:26.015Z</time></trkpt><trkpt lat="42.2826664" lon="13.5113257"><ele>564.0</ele><time>2026-05-03T10:25:27.016Z</time></trkpt><trkpt lat="42.2827154" lon="13.5111802"><ele>564.0</ele><time>2026-05-03T10:25:28.027Z</time></trkpt><trkpt lat="42.2827655" lon="13.5110387"><ele>564.0</ele><time>2026-05-03T10:25:29.021Z</time></trkpt><trkpt lat="42.2828117" lon="13.5108953"><ele>564.75</ele><time>2026-05-03T10:25:30.013Z</time></trkpt><trkpt lat="42.2828639" lon="13.5107502"><ele>565.5</ele><time>2026-05-03T10:25:31.022Z</time></trkpt><trkpt lat="42.2829182" lon="13.5106005"><ele>566.25</ele><time>2026-05-03T10:25:32.02Z</time></trkpt><trkpt lat="42.2829734" lon="13.5104518"><ele>567.0</ele><time>2026-05-03T10:25:33.024Z</time></trkpt><trkpt lat="42.2830228" lon="13.5103009"><ele>567.0</ele><time>2026-05-03T10:25:34.025Z</time></trkpt><trkpt lat="42.2830737" lon="13.510148"><ele>567.0</ele><time>2026-05-03T10:25:35.022Z</time></trkpt><trkpt lat="42.2831243" lon="13.5099935"><ele>567.0</ele><time>2026-05-03T10:25:36.019Z</time></trkpt><trkpt lat="42.2831741" lon="13.509837"><ele>567.0</ele><time>2026-05-03T10:25:37.025Z</time></trkpt><trkpt lat="42.283229" lon="13.5096766"><ele>567.0</ele><time>2026-05-03T10:25:38.023Z</time></trkpt><trkpt lat="42.2832873" lon="13.5095127"><ele>567.0</ele><time>2026-05-03T10:25:39.006Z</time></trkpt><trkpt lat="42.2833448" lon="13.5093466"><ele>567.0</ele><time>2026-05-03T10:25:40.02Z</time></trkpt><trkpt lat="42.283402" lon="13.5091796"><ele>567.0</ele><time>2026-05-03T10:25:41.014Z</time></trkpt><trkpt lat="42.2834554" lon="13.5090126"><ele>567.0</ele><time>2026-05-03T10:25:42.022Z</time></trkpt><trkpt lat="42.2835115" lon="13.50884"><ele>567.0</ele><time>2026-05-03T10:25:43.015Z</time></trkpt><trkpt lat="42.2835721" lon="13.5086717"><ele>567.0</ele><time>2026-05-03T10:25:44.026Z</time></trkpt><trkpt lat="42.283632" lon="13.5085002"><ele>567.0</ele><time>2026-05-03T10:25:45.009Z</time></trkpt><trkpt lat="42.2836915" lon="13.5083297"><ele>567.25</ele><time>2026-05-03T10:25:46.014Z</time></trkpt><trkpt lat="42.2837486" lon="13.5081637"><ele>567.5</ele><time>2026-05-03T10:25:47.017Z</time></trkpt><trkpt lat="42.2838082" lon="13.5080008"><ele>567.75</ele><time>2026-05-03T10:25:48.009Z</time></trkpt><trkpt lat="42.283861" lon="13.5078312"><ele>568.0</ele><time>2026-05-03T10:25:49.011Z</time></trkpt><trkpt lat="42.2839168" lon="13.5076666"><ele>568.0</ele><time>2026-05-03T10:25:50.015Z</time></trkpt><trkpt lat="42.2839749" lon="13.507499"><ele>568.0</ele><time>2026-05-03T10:25:51.031Z</time></trkpt><trkpt lat="42.2840309" lon="13.5073302"><ele>568.0</ele><time>2026-05-03T10:25:52.026Z</time></trkpt><trkpt lat="42.2840824" lon="13.5071635"><ele>568.0</ele><time>2026-05-03T10:25:53.024Z</time></trkpt><trkpt lat="42.2841372" lon="13.5069993"><ele>567.5</ele><time>2026-05-03T10:25:54.021Z</time></trkpt><trkpt lat="42.2841947" lon="13.506831"><ele>567.0</ele><time>2026-05-03T10:25:55.01Z</time></trkpt><trkpt lat="42.284251" lon="13.5066591"><ele>566.5</ele><time>2026-05-03T10:25:56.023Z</time></trkpt><trkpt lat="42.2843088" lon="13.5064929"><ele>566.0</ele><time>2026-05-03T10:25:57.015Z</time></trkpt><trkpt lat="42.2843688" lon="13.5063217"><ele>565.75</ele><time>2026-05-03T10:25:58.022Z</time></trkpt><trkpt lat="42.2844294" lon="13.5061434"><ele>565.5</ele><time>2026-05-03T10:25:59.017Z</time></trkpt><trkpt lat="42.2844835" lon="13.5059677"><ele>565.25</ele><time>2026-05-03T10:26:00.028Z</time></trkpt><trkpt lat="42.2845386" lon="13.5057893"><ele>565.0</ele><time>2026-05-03T10:26:01.027Z</time></trkpt><trkpt lat="42.2845972" lon="13.505609"><ele>565.0</ele><time>2026-05-03T10:26:02.02Z</time></trkpt><trkpt lat="42.2846582" lon="13.5054334"><ele>565.0</ele><time>2026-05-03T10:26:03.019Z</time></trkpt><trkpt lat="42.2847183" lon="13.5052578"><ele>565.0</ele><time>2026-05-03T10:26:04.022Z</time></trkpt><trkpt lat="42.2847775" lon="13.5050791"><ele>565.0</ele><time>2026-05-03T10:26:05.017Z</time></trkpt><trkpt lat="42.2848342" lon="13.5049043"><ele>564.75</ele><time>2026-05-03T10:26:06.017Z</time></trkpt><trkpt lat="42.2848949" lon="13.5047258"><ele>564.5</ele><time>2026-05-03T10:26:07.021Z</time></trkpt><trkpt lat="42.2849554" lon="13.5045507"><ele>564.25</ele><time>2026-05-03T10:26:08.015Z</time></trkpt><trkpt lat="42.285017" lon="13.5043731"><ele>564.0</ele><time>2026-05-03T10:26:09.023Z</time></trkpt><trkpt lat="42.2850786" lon="13.5041946"><ele>564.5</ele><time>2026-05-03T10:26:10.016Z</time></trkpt><trkpt lat="42.2851394" lon="13.504014"><ele>565.0</ele><time>2026-05-03T10:26:11.024Z</time></trkpt><trkpt lat="42.2852045" lon="13.5038336"><ele>565.5</ele><time>2026-05-03T10:26:12.024Z</time></trkpt><trkpt lat="42.285262" lon="13.5036614"><ele>566.0</ele><time>2026-05-03T10:26:13.012Z</time></trkpt><trkpt lat="42.2853203" lon="13.5034939"><ele>567.0</ele><time>2026-05-03T10:26:14.029Z</time></trkpt><trkpt lat="42.2853738" lon="13.5033288"><ele>568.0</ele><time>2026-05-03T10:26:15.037Z</time></trkpt><trkpt lat="42.2854263" lon="13.5031702"><ele>569.0</ele><time>2026-05-03T10:26:16.014Z</time></trkpt><trkpt lat="42.2854802" lon="13.5030106"><ele>570.0</ele><time>2026-05-03T10:26:17.026Z</time></trkpt><trkpt lat="42.285538" lon="13.5028658"><ele>570.4</ele><time>2026-05-03T10:26:18.02Z</time></trkpt><trkpt lat="42.2855888" lon="13.5027205"><ele>570.8</ele><time>2026-05-03T10:26:19.015Z</time></trkpt><trkpt lat="42.2856023" lon="13.5026204"><ele>571.2</ele><time>2026-05-03T10:26:21.021Z</time></trkpt><trkpt lat="42.2856551" lon="13.5024632"><ele>571.6</ele><time>2026-05-03T10:26:22.02Z</time></trkpt><trkpt lat="42.2857061" lon="13.5023154"><ele>572.0</ele><time>2026-05-03T10:26:23.031Z</time></trkpt><trkpt lat="42.2857547" lon="13.5021824"><ele>571.6</ele><time>2026-05-03T10:26:24.025Z</time></trkpt><trkpt lat="42.2857936" lon="13.5020604"><ele>571.2</ele><time>2026-05-03T10:26:25.021Z</time></trkpt><trkpt lat="42.2858398" lon="13.5019275"><ele>570.8</ele><time>2026-05-03T10:26:28.026Z</time></trkpt><trkpt lat="42.2858632" lon="13.5018187"><ele>570.4</ele><time>2026-05-03T10:26:31.016Z</time></trkpt><trkpt lat="42.2858836" lon="13.5016441"><ele>570.0</ele><time>2026-05-03T10:26:33.022Z</time></trkpt><trkpt lat="42.2858572" lon="13.5015581"><ele>570.0</ele><time>2026-05-03T10:26:34.02Z</time></trkpt><trkpt lat="42.2858152" lon="13.5014855"><ele>570.0</ele><time>2026-05-03T10:26:35.029Z</time></trkpt><trkpt lat="42.2857548" lon="13.501411"><ele>570.0</ele><time>2026-05-03T10:26:36.032Z</time></trkpt><trkpt lat="42.2856862" lon="13.501336"><ele>570.0</ele><time>2026-05-03T10:26:37.009Z</time></trkpt><trkpt lat="42.2856102" lon="13.5012526"><ele>570.0</ele><time>2026-05-03T10:26:38.015Z</time></trkpt><trkpt lat="42.2855189" lon="13.5011827"><ele>570.0</ele><time>2026-05-03T10:26:39.006Z</time></trkpt><trkpt lat="42.2854123" lon="13.5011285"><ele>571.5</ele><time>2026-05-03T10:26:40.024Z</time></trkpt><trkpt lat="42.2852973" lon="13.5010873"><ele>573.0</ele><time>2026-05-03T10:26:41.028Z</time></trkpt><trkpt lat="42.2851783" lon="13.5010496"><ele>574.5</ele><time>2026-05-03T10:26:42.026Z</time></trkpt><trkpt lat="42.2850625" lon="13.5010132"><ele>576.0</ele><time>2026-05-03T10:26:43.029Z</time></trkpt><trkpt lat="42.2849583" lon="13.50095"><ele>576.0</ele><time>2026-05-03T10:26:44.01Z</time></trkpt><trkpt lat="42.2848703" lon="13.5008649"><ele>576.0</ele><time>2026-05-03T10:26:45.025Z</time></trkpt><trkpt lat="42.2847865" lon="13.5007613"><ele>576.0</ele><time>2026-05-03T10:26:46.02Z</time></trkpt><trkpt lat="42.284706" lon="13.5006568"><ele>576.0</ele><time>2026-05-03T10:26:47.022Z</time></trkpt><trkpt lat="42.2846318" lon="13.5005721"><ele>576.0</ele><time>2026-05-03T10:26:48.024Z</time></trkpt><trkpt lat="42.2845561" lon="13.5004926"><ele>578.0</ele><time>2026-05-03T10:26:49.019Z</time></trkpt><trkpt lat="42.2844906" lon="13.5004094"><ele>580.0</ele><time>2026-05-03T10:26:50.021Z</time></trkpt><trkpt lat="42.28444" lon="13.5003211"><ele>582.0</ele><time>2026-05-03T10:26:51.002Z</time></trkpt><trkpt lat="42.2844073" lon="13.5002162"><ele>584.0</ele><time>2026-05-03T10:26:52.025Z</time></trkpt><trkpt lat="42.2844074" lon="13.5001169"><ele>586.0</ele><time>2026-05-03T10:26:53.016Z</time></trkpt><trkpt lat="42.2844283" lon="13.5000125"><ele>588.0</ele><time>2026-05-03T10:26:54.01Z</time></trkpt><trkpt lat="42.2844672" lon="13.4999021"><ele>588.0</ele><time>2026-05-03T10:26:55.013Z</time></trkpt><trkpt lat="42.2845143" lon="13.4997899"><ele>588.0</ele><time>2026-05-03T10:26:56.017Z</time></trkpt><trkpt lat="42.2845579" lon="13.49967"><ele>588.0</ele><time>2026-05-03T10:26:57.007Z</time></trkpt><trkpt lat="42.2846064" lon="13.4995455"><ele>588.0</ele><time>2026-05-03T10:26:58.026Z</time></trkpt><trkpt lat="42.2846589" lon="13.4994114"><ele>588.0</ele><time>2026-05-03T10:26:59.021Z</time></trkpt><trkpt lat="42.2847123" lon="13.4992687"><ele>588.25</ele><time>2026-05-03T10:27:00.021Z</time></trkpt><trkpt lat="42.2847719" lon="13.4991266"><ele>588.5</ele><time>2026-05-03T10:27:01.009Z</time></trkpt><trkpt lat="42.2848292" lon="13.498983"><ele>588.75</ele><time>2026-05-03T10:27:02.032Z</time></trkpt><trkpt lat="42.2848911" lon="13.4988479"><ele>589.0</ele><time>2026-05-03T10:27:03.008Z</time></trkpt><trkpt lat="42.2849574" lon="13.4987215"><ele>589.0</ele><time>2026-05-03T10:27:04.023Z</time></trkpt><trkpt lat="42.2850319" lon="13.4986066"><ele>589.0</ele><time>2026-05-03T10:27:05.007Z</time></trkpt><trkpt lat="42.285107" lon="13.4984941"><ele>589.0</ele><time>2026-05-03T10:27:06.011Z</time></trkpt><trkpt lat="42.2851778" lon="13.4983772"><ele>589.0</ele><time>2026-05-03T10:27:07.008Z</time></trkpt><trkpt lat="42.2852471" lon="13.4982631"><ele>589.0</ele><time>2026-05-03T10:27:08.016Z</time></trkpt><trkpt lat="42.2853093" lon="13.4981438"><ele>589.0</ele><time>2026-05-03T10:27:09.013Z</time></trkpt><trkpt lat="42.2853627" lon="13.4980237"><ele>589.0</ele><time>2026-05-03T10:27:10.01Z</time></trkpt><trkpt lat="42.2854114" lon="13.4979023"><ele>589.0</ele><time>2026-05-03T10:27:11.014Z</time></trkpt><trkpt lat="42.2854655" lon="13.4977812"><ele>589.0</ele><time>2026-05-03T10:27:12.011Z</time></trkpt><trkpt lat="42.2855208" lon="13.4976611"><ele>589.0</ele><time>2026-05-03T10:27:13.004Z</time></trkpt><trkpt lat="42.285577" lon="13.4975314"><ele>589.75</ele><time>2026-05-03T10:27:14.003Z</time></trkpt><trkpt lat="42.2856331" lon="13.4974029"><ele>590.5</ele><time>2026-05-03T10:27:15.02Z</time></trkpt><trkpt lat="42.2856898" lon="13.4972687"><ele>591.25</ele><time>2026-05-03T10:27:16.009Z</time></trkpt><trkpt lat="42.2857424" lon="13.4971316"><ele>592.0</ele><time>2026-05-03T10:27:17.013Z</time></trkpt><trkpt lat="42.2857976" lon="13.4969984"><ele>592.0</ele><time>2026-05-03T10:27:18.015Z</time></trkpt><trkpt lat="42.2858499" lon="13.4968679"><ele>592.0</ele><time>2026-05-03T10:27:19.014Z</time></trkpt><trkpt lat="42.2858967" lon="13.4967395"><ele>592.0</ele><time>2026-05-03T10:27:20.011Z</time></trkpt><trkpt lat="42.2859436" lon="13.4966122"><ele>592.0</ele><time>2026-05-03T10:27:21.022Z</time></trkpt><trkpt lat="42.2859979" lon="13.4964878"><ele>592.0</ele><time>2026-05-03T10:27:22.03Z</time></trkpt><trkpt lat="42.2860581" lon="13.4963597"><ele>596.0</ele><time>2026-05-03T10:27:23.011Z</time></trkpt><trkpt lat="42.2861221" lon="13.4962368"><ele>600.0</ele><time>2026-05-03T10:27:24.022Z</time></trkpt><trkpt lat="42.2861944" lon="13.4961139"><ele>604.0</ele><time>2026-05-03T10:27:25.018Z</time></trkpt><trkpt lat="42.2862722" lon="13.4959929"><ele>608.0</ele><time>2026-05-03T10:27:26.02Z</time></trkpt><trkpt lat="42.2863499" lon="13.4958745"><ele>608.0</ele><time>2026-05-03T10:27:27.015Z</time></trkpt><trkpt lat="42.2864225" lon="13.4957596"><ele>608.0</ele><time>2026-05-03T10:27:28.018Z</time></trkpt><trkpt lat="42.2864916" lon="13.4956454"><ele>608.0</ele><time>2026-05-03T10:27:29.019Z</time></trkpt><trkpt lat="42.2865569" lon="13.4955313"><ele>608.0</ele><time>2026-05-03T10:27:30.016Z</time></trkpt><trkpt lat="42.2866207" lon="13.4954087"><ele>608.0</ele><time>2026-05-03T10:27:31.023Z</time></trkpt><trkpt lat="42.2866707" lon="13.4952798"><ele>607.1999999999999</ele><time>2026-05-03T10:27:32.023Z</time></trkpt><trkpt lat="42.2867182" lon="13.495167"><ele>606.4</ele><time>2026-05-03T10:27:33.018Z</time></trkpt><trkpt lat="42.2867804" lon="13.4950685"><ele>605.5999999999999</ele><time>2026-05-03T10:27:34.023Z</time></trkpt><trkpt lat="42.2868586" lon="13.4949752"><ele>604.8</ele><time>2026-05-03T10:27:35.01Z</time></trkpt><trkpt lat="42.2869475" lon="13.4948813"><ele>604.0</ele><time>2026-05-03T10:27:36.016Z</time></trkpt><trkpt lat="42.2870386" lon="13.4947919"><ele>604.0</ele><time>2026-05-03T10:27:37.005Z</time></trkpt><trkpt lat="42.2871297" lon="13.4946905"><ele>604.0</ele><time>2026-05-03T10:27:38.022Z</time></trkpt><trkpt lat="42.2872177" lon="13.4945795"><ele>604.0</ele><time>2026-05-03T10:27:39.01Z</time></trkpt><trkpt lat="42.2873013" lon="13.4944614"><ele>604.0</ele><time>2026-05-03T10:27:40.016Z</time></trkpt><trkpt lat="42.287384" lon="13.4943386"><ele>603.75</ele><time>2026-05-03T10:27:41.013Z</time></trkpt><trkpt lat="42.2874663" lon="13.4942169"><ele>603.5</ele><time>2026-05-03T10:27:42.022Z</time></trkpt><trkpt lat="42.2875445" lon="13.4940833"><ele>603.25</ele><time>2026-05-03T10:27:43.029Z</time></trkpt><trkpt lat="42.2876139" lon="13.4939493"><ele>603.0</ele><time>2026-05-03T10:27:44.015Z</time></trkpt><trkpt lat="42.2876787" lon="13.493821"><ele>609.5</ele><time>2026-05-03T10:27:45.022Z</time></trkpt><trkpt lat="42.2877439" lon="13.4936996"><ele>616.0</ele><time>2026-05-03T10:27:46.018Z</time></trkpt><trkpt lat="42.2878252" lon="13.4935935"><ele>622.5</ele><time>2026-05-03T10:27:47.013Z</time></trkpt><trkpt lat="42.2879286" lon="13.4935058"><ele>629.0</ele><time>2026-05-03T10:27:48.028Z</time></trkpt><trkpt lat="42.2880406" lon="13.4934212"><ele>623.5</ele><time>2026-05-03T10:27:49.014Z</time></trkpt><trkpt lat="42.2881614" lon="13.4933365"><ele>618.0</ele><time>2026-05-03T10:27:50.016Z</time></trkpt><trkpt lat="42.2882913" lon="13.4932547"><ele>612.5</ele><time>2026-05-03T10:27:51.008Z</time></trkpt><trkpt lat="42.2884169" lon="13.4931757"><ele>607.0</ele><time>2026-05-03T10:27:52.016Z</time></trkpt><trkpt lat="42.2885358" lon="13.4930899"><ele>607.0</ele><time>2026-05-03T10:27:53.036Z</time></trkpt><trkpt lat="42.2886469" lon="13.4930006"><ele>607.0</ele><time>2026-05-03T10:27:54.026Z</time></trkpt><trkpt lat="42.2887515" lon="13.4929098"><ele>607.0</ele><time>2026-05-03T10:27:55.02Z</time></trkpt><trkpt lat="42.2888582" lon="13.4928104"><ele>607.0</ele><time>2026-05-03T10:27:56.019Z</time></trkpt><trkpt lat="42.2889622" lon="13.4927017"><ele>609.5</ele><time>2026-05-03T10:27:57.012Z</time></trkpt><trkpt lat="42.2890639" lon="13.4925877"><ele>612.0</ele><time>2026-05-03T10:27:58.007Z</time></trkpt><trkpt lat="42.2891598" lon="13.4924692"><ele>614.5</ele><time>2026-05-03T10:27:59.006Z</time></trkpt><trkpt lat="42.2892477" lon="13.4923415"><ele>617.0</ele><time>2026-05-03T10:28:00.014Z</time></trkpt><trkpt lat="42.2893329" lon="13.4922055"><ele>623.75</ele><time>2026-05-03T10:28:01.007Z</time></trkpt><trkpt lat="42.289414" lon="13.492065"><ele>630.5</ele><time>2026-05-03T10:28:02.009Z</time></trkpt><trkpt lat="42.2894918" lon="13.4919251"><ele>637.25</ele><time>2026-05-03T10:28:03.014Z</time></trkpt><trkpt lat="42.2895724" lon="13.4917833"><ele>644.0</ele><time>2026-05-03T10:28:04.012Z</time></trkpt><trkpt lat="42.2896548" lon="13.4916423"><ele>644.0</ele><time>2026-05-03T10:28:05.011Z</time></trkpt><trkpt lat="42.2897383" lon="13.4915018"><ele>644.0</ele><time>2026-05-03T10:28:06.016Z</time></trkpt><trkpt lat="42.289822" lon="13.4913652"><ele>644.0</ele><time>2026-05-03T10:28:07.02Z</time></trkpt><trkpt lat="42.289896" lon="13.491229"><ele>644.0</ele><time>2026-05-03T10:28:08.017Z</time></trkpt><trkpt lat="42.2899707" lon="13.4910975"><ele>643.3333333333333</ele><time>2026-05-03T10:28:09.004Z</time></trkpt><trkpt lat="42.2900403" lon="13.4909898"><ele>642.6666666666666</ele><time>2026-05-03T10:28:10.011Z</time></trkpt><trkpt lat="42.2901048" lon="13.4909074"><ele>642.0</ele><time>2026-05-03T10:28:11.012Z</time></trkpt><trkpt lat="42.2901651" lon="13.490844"><ele>641.3333333333334</ele><time>2026-05-03T10:28:12.017Z</time></trkpt><trkpt lat="42.2902261" lon="13.4908009"><ele>640.6666666666667</ele><time>2026-05-03T10:28:13.016Z</time></trkpt><trkpt lat="42.2902828" lon="13.4907525"><ele>640.0</ele><time>2026-05-03T10:28:14.019Z</time></trkpt><trkpt lat="42.2902848" lon="13.4906017"><ele>640.0</ele><time>2026-05-03T10:28:16.013Z</time></trkpt><trkpt lat="42.2901811" lon="13.4905457"><ele>640.0</ele><time>2026-05-03T10:28:18.021Z</time></trkpt><trkpt lat="42.290112" lon="13.4905892"><ele>640.0</ele><time>2026-05-03T10:28:19.004Z</time></trkpt><trkpt lat="42.2900404" lon="13.4906553"><ele>640.0</ele><time>2026-05-03T10:28:20.02Z</time></trkpt><trkpt lat="42.2899632" lon="13.4907197"><ele>640.0</ele><time>2026-05-03T10:28:21.01Z</time></trkpt><trkpt lat="42.2898803" lon="13.490784"><ele>640.0</ele><time>2026-05-03T10:28:22.011Z</time></trkpt><trkpt lat="42.2897881" lon="13.4908508"><ele>640.0</ele><time>2026-05-03T10:28:23.01Z</time></trkpt><trkpt lat="42.289692" lon="13.4909243"><ele>640.0</ele><time>2026-05-03T10:28:24.007Z</time></trkpt><trkpt lat="42.2895981" lon="13.4910006"><ele>640.0</ele><time>2026-05-03T10:28:25.024Z</time></trkpt><trkpt lat="42.2895017" lon="13.4910792"><ele>640.0</ele><time>2026-05-03T10:28:26.022Z</time></trkpt><trkpt lat="42.2894095" lon="13.4911587"><ele>640.8</ele><time>2026-05-03T10:28:27.005Z</time></trkpt><trkpt lat="42.2893213" lon="13.49124"><ele>641.6</ele><time>2026-05-03T10:28:28.021Z</time></trkpt><trkpt lat="42.2892405" lon="13.4913207"><ele>642.4000000000001</ele><time>2026-05-03T10:28:29.002Z</time></trkpt><trkpt lat="42.2891618" lon="13.4913898"><ele>643.2</ele><time>2026-05-03T10:28:30.015Z</time></trkpt><trkpt lat="42.2890947" lon="13.4914535"><ele>644.0</ele><time>2026-05-03T10:28:31.013Z</time></trkpt><trkpt lat="42.2890356" lon="13.4915092"><ele>644.0</ele><time>2026-05-03T10:28:32.015Z</time></trkpt><trkpt lat="42.28895" lon="13.4915854"><ele>644.0</ele><time>2026-05-03T10:28:34.014Z</time></trkpt><trkpt lat="42.2888748" lon="13.4915515"><ele>644.0</ele><time>2026-05-03T10:28:36.01Z</time></trkpt><trkpt lat="42.2888617" lon="13.4914292"><ele>644.0</ele><time>2026-05-03T10:28:38.014Z</time></trkpt><trkpt lat="42.2889502" lon="13.4913065"><ele>644.0</ele><time>2026-05-03T10:28:40.012Z</time></trkpt><trkpt lat="42.2890134" lon="13.4912461"><ele>649.6</ele><time>2026-05-03T10:28:41.022Z</time></trkpt><trkpt lat="42.2890779" lon="13.4911736"><ele>655.2</ele><time>2026-05-03T10:28:42.013Z</time></trkpt><trkpt lat="42.2891383" lon="13.4910868"><ele>660.8000000000001</ele><time>2026-05-03T10:28:43.01Z</time></trkpt><trkpt lat="42.2892008" lon="13.4909954"><ele>666.4000000000001</ele><time>2026-05-03T10:28:44.006Z</time></trkpt><trkpt lat="42.2892671" lon="13.4909063"><ele>672.0</ele><time>2026-05-03T10:28:45.01Z</time></trkpt><trkpt lat="42.289334" lon="13.4908161"><ele>672.0</ele><time>2026-05-03T10:28:46.013Z</time></trkpt><trkpt lat="42.2893973" lon="13.4907243"><ele>672.0</ele><time>2026-05-03T10:28:47.007Z</time></trkpt><trkpt lat="42.2894596" lon="13.4906316"><ele>672.0</ele><time>2026-05-03T10:28:48.017Z</time></trkpt><trkpt lat="42.2895187" lon="13.490531"><ele>672.0</ele><time>2026-05-03T10:28:49.013Z</time></trkpt><trkpt lat="42.2895837" lon="13.4904349"><ele>672.0</ele><time>2026-05-03T10:28:50.015Z</time></trkpt><trkpt lat="42.2896515" lon="13.4903442"><ele>671.8333333333334</ele><time>2026-05-03T10:28:51.009Z</time></trkpt><trkpt lat="42.2897198" lon="13.4902589"><ele>671.6666666666666</ele><time>2026-05-03T10:28:52.013Z</time></trkpt><trkpt lat="42.2897916" lon="13.4901733"><ele>671.5</ele><time>2026-05-03T10:28:53.022Z</time></trkpt><trkpt lat="42.2898505" lon="13.4901046"><ele>671.3333333333333</ele><time>2026-05-03T10:28:54.017Z</time></trkpt><trkpt lat="42.2898978" lon="13.4900426"><ele>671.1666666666666</ele><time>2026-05-03T10:28:55.011Z</time></trkpt><trkpt lat="42.2899282" lon="13.4899533"><ele>671.0</ele><time>2026-05-03T10:28:57.021Z</time></trkpt><trkpt lat="42.2898494" lon="13.4899288"><ele>676.4</ele><time>2026-05-03T10:29:08.011Z</time></trkpt><trkpt lat="42.289743" lon="13.4900229"><ele>681.8</ele><time>2026-05-03T10:29:10.009Z</time></trkpt><trkpt lat="42.2896834" lon="13.4900858"><ele>687.1999999999999</ele><time>2026-05-03T10:29:11.015Z</time></trkpt><trkpt lat="42.2896217" lon="13.4901505"><ele>692.5999999999999</ele><time>2026-05-03T10:29:12.023Z</time></trkpt><trkpt lat="42.2895559" lon="13.4902081"><ele>698.0</ele><time>2026-05-03T10:29:13.008Z</time></trkpt><trkpt lat="42.2894702" lon="13.4902759"><ele>698.0</ele><time>2026-05-03T10:29:14.031Z</time></trkpt><trkpt lat="42.2893752" lon="13.4903448"><ele>698.0</ele><time>2026-05-03T10:29:15.011Z</time></trkpt><trkpt lat="42.2892833" lon="13.4904234"><ele>698.0</ele><time>2026-05-03T10:29:16.019Z</time></trkpt><trkpt lat="42.2891957" lon="13.490507"><ele>698.0</ele><time>2026-05-03T10:29:17.023Z</time></trkpt><trkpt lat="42.2891176" lon="13.4905853"><ele>698.0</ele><time>2026-05-03T10:29:18.019Z</time></trkpt><trkpt lat="42.2890244" lon="13.4906608"><ele>699.5999999999999</ele><time>2026-05-03T10:29:19.021Z</time></trkpt><trkpt lat="42.2889266" lon="13.4907385"><ele>701.1999999999999</ele><time>2026-05-03T10:29:20.021Z</time></trkpt><trkpt lat="42.2888351" lon="13.4908265"><ele>702.8</ele><time>2026-05-03T10:29:21.027Z</time></trkpt><trkpt lat="42.2887525" lon="13.4909007"><ele>704.4</ele><time>2026-05-03T10:29:22.023Z</time></trkpt><trkpt lat="42.2886803" lon="13.4909791"><ele>706.0</ele><time>2026-05-03T10:29:23.021Z</time></trkpt><trkpt lat="42.2886179" lon="13.491055"><ele>706.0</ele><time>2026-05-03T10:29:24.018Z</time></trkpt><trkpt lat="42.2885555" lon="13.4911238"><ele>706.0</ele><time>2026-05-03T10:29:25.018Z</time></trkpt><trkpt lat="42.2884913" lon="13.4911845"><ele>706.0</ele><time>2026-05-03T10:29:26.039Z</time></trkpt><trkpt lat="42.2884336" lon="13.4912397"><ele>706.0</ele><time>2026-05-03T10:29:27.013Z</time></trkpt><trkpt lat="42.2883777" lon="13.4912825"><ele>706.0</ele><time>2026-05-03T10:29:28.018Z</time></trkpt><trkpt lat="42.2883147" lon="13.4913322"><ele>706.0</ele><time>2026-05-03T10:29:29.015Z</time></trkpt><trkpt lat="42.2882366" lon="13.4913778"><ele>704.0</ele><time>2026-05-03T10:29:30.03Z</time></trkpt><trkpt lat="42.28815" lon="13.4914108"><ele>702.0</ele><time>2026-05-03T10:29:31.017Z</time></trkpt><trkpt lat="42.2880557" lon="13.491434"><ele>700.0</ele><time>2026-05-03T10:29:32.009Z</time></trkpt><trkpt lat="42.2879496" lon="13.4914605"><ele>698.0</ele><time>2026-05-03T10:29:33.027Z</time></trkpt><trkpt lat="42.2878429" lon="13.4914869"><ele>696.0</ele><time>2026-05-03T10:29:34.016Z</time></trkpt><trkpt lat="42.2877336" lon="13.491515"><ele>696.0</ele><time>2026-05-03T10:29:35.03Z</time></trkpt><trkpt lat="42.2876249" lon="13.4915457"><ele>696.0</ele><time>2026-05-03T10:29:36.009Z</time></trkpt><trkpt lat="42.2875154" lon="13.4915766"><ele>696.0</ele><time>2026-05-03T10:29:37.011Z</time></trkpt><trkpt lat="42.2874105" lon="13.4916006"><ele>696.0</ele><time>2026-05-03T10:29:38.016Z</time></trkpt><trkpt lat="42.2873113" lon="13.4916256"><ele>696.0</ele><time>2026-05-03T10:29:39.008Z</time></trkpt><trkpt lat="42.2872094" lon="13.49166"><ele>698.5999999999999</ele><time>2026-05-03T10:29:40.023Z</time></trkpt><trkpt lat="42.2871087" lon="13.4916905"><ele>701.2</ele><time>2026-05-03T10:29:41.01Z</time></trkpt><trkpt lat="42.2870085" lon="13.4917153"><ele>703.8</ele><time>2026-05-03T10:29:42.024Z</time></trkpt><trkpt lat="42.2869131" lon="13.4917377"><ele>706.4000000000001</ele><time>2026-05-03T10:29:43.011Z</time></trkpt><trkpt lat="42.2868153" lon="13.4917563"><ele>709.0</ele><time>2026-05-03T10:29:44.014Z</time></trkpt><trkpt lat="42.286714" lon="13.4917702"><ele>709.0</ele><time>2026-05-03T10:29:45.001Z</time></trkpt><trkpt lat="42.286618" lon="13.4917719"><ele>709.0</ele><time>2026-05-03T10:29:46.015Z</time></trkpt><trkpt lat="42.2865277" lon="13.4917652"><ele>709.0</ele><time>2026-05-03T10:29:47.009Z</time></trkpt><trkpt lat="42.2864347" lon="13.4917506"><ele>709.0</ele><time>2026-05-03T10:29:48.016Z</time></trkpt><trkpt lat="42.2863475" lon="13.4917318"><ele>709.0</ele><time>2026-05-03T10:29:49.02Z</time></trkpt><trkpt lat="42.2862635" lon="13.4917227"><ele>711.6666666666667</ele><time>2026-05-03T10:29:50.023Z</time></trkpt><trkpt lat="42.2861852" lon="13.4917274"><ele>714.3333333333334</ele><time>2026-05-03T10:29:51.01Z</time></trkpt><trkpt lat="42.2861009" lon="13.4917561"><ele>717.0</ele><time>2026-05-03T10:29:52.011Z</time></trkpt><trkpt lat="42.2860165" lon="13.4918005"><ele>719.6666666666666</ele><time>2026-05-03T10:29:53.028Z</time></trkpt><trkpt lat="42.285935" lon="13.4918651"><ele>722.3333333333333</ele><time>2026-05-03T10:29:54.01Z</time></trkpt><trkpt lat="42.2858595" lon="13.4919467"><ele>725.0</ele><time>2026-05-03T10:29:55.014Z</time></trkpt><trkpt lat="42.285784" lon="13.4920459"><ele>726.4</ele><time>2026-05-03T10:29:56.001Z</time></trkpt><trkpt lat="42.2857087" lon="13.4921503"><ele>727.8</ele><time>2026-05-03T10:29:57.022Z</time></trkpt><trkpt lat="42.2856389" lon="13.4922572"><ele>729.2</ele><time>2026-05-03T10:29:58.02Z</time></trkpt><trkpt lat="42.285568" lon="13.4923665"><ele>730.6</ele><time>2026-05-03T10:29:59.014Z</time></trkpt><trkpt lat="42.2855043" lon="13.4924791"><ele>732.0</ele><time>2026-05-03T10:30:00.032Z</time></trkpt><trkpt lat="42.285449" lon="13.4926006"><ele>732.0</ele><time>2026-05-03T10:30:01.014Z</time></trkpt><trkpt lat="42.2853969" lon="13.4927102"><ele>732.0</ele><time>2026-05-03T10:30:02.02Z</time></trkpt><trkpt lat="42.2853401" lon="13.492808"><ele>732.0</ele><time>2026-05-03T10:30:03.02Z</time></trkpt><trkpt lat="42.2852812" lon="13.4928929"><ele>732.0</ele><time>2026-05-03T10:30:04.013Z</time></trkpt><trkpt lat="42.2852212" lon="13.4929672"><ele>732.0</ele><time>2026-05-03T10:30:05.01Z</time></trkpt><trkpt lat="42.2851553" lon="13.4930218"><ele>732.0</ele><time>2026-05-03T10:30:06.02Z</time></trkpt><trkpt lat="42.2850916" lon="13.4930626"><ele>729.0</ele><time>2026-05-03T10:30:07.013Z</time></trkpt><trkpt lat="42.2850306" lon="13.4931016"><ele>726.0</ele><time>2026-05-03T10:30:08.021Z</time></trkpt><trkpt lat="42.284972" lon="13.4931518"><ele>723.0</ele><time>2026-05-03T10:30:09.006Z</time></trkpt><trkpt lat="42.2849249" lon="13.4932185"><ele>720.0</ele><time>2026-05-03T10:30:10.017Z</time></trkpt><trkpt lat="42.2848895" lon="13.4933267"><ele>717.0</ele><time>2026-05-03T10:30:11.011Z</time></trkpt><trkpt lat="42.2848766" lon="13.4934677"><ele>714.0</ele><time>2026-05-03T10:30:12.014Z</time></trkpt><trkpt lat="42.2848522" lon="13.4936098"><ele>714.0</ele><time>2026-05-03T10:30:13.01Z</time></trkpt><trkpt lat="42.2848252" lon="13.4937438"><ele>714.0</ele><time>2026-05-03T10:30:14.021Z</time></trkpt><trkpt lat="42.2847931" lon="13.4938709"><ele>714.0</ele><time>2026-05-03T10:30:15.008Z</time></trkpt><trkpt lat="42.2847519" lon="13.4939843"><ele>714.0</ele><time>2026-05-03T10:30:16.013Z</time></trkpt><trkpt lat="42.2847154" lon="13.4940847"><ele>714.0</ele><time>2026-05-03T10:30:17.019Z</time></trkpt><trkpt lat="42.284681" lon="13.4941745"><ele>716.2</ele><time>2026-05-03T10:30:18.012Z</time></trkpt><trkpt lat="42.2846328" lon="13.4943145"><ele>718.4000000000001</ele><time>2026-05-03T10:30:20.023Z</time></trkpt><trkpt lat="42.2845934" lon="13.4944126"><ele>720.6</ele><time>2026-05-03T10:30:22.02Z</time></trkpt><trkpt lat="42.2845118" lon="13.494464"><ele>722.8</ele><time>2026-05-03T10:30:24.029Z</time></trkpt><trkpt lat="42.2843974" lon="13.4944814"><ele>725.0</ele><time>2026-05-03T10:30:26.015Z</time></trkpt><trkpt lat="42.284328" lon="13.49448"><ele>725.0</ele><time>2026-05-03T10:30:27.015Z</time></trkpt><trkpt lat="42.2842652" lon="13.4944686"><ele>725.0</ele><time>2026-05-03T10:30:28.014Z</time></trkpt><trkpt lat="42.2841997" lon="13.4944512"><ele>725.0</ele><time>2026-05-03T10:30:29.015Z</time></trkpt><trkpt lat="42.284133" lon="13.4944319"><ele>725.0</ele><time>2026-05-03T10:30:30.022Z</time></trkpt><trkpt lat="42.284059" lon="13.494413"><ele>725.0</ele><time>2026-05-03T10:30:31.023Z</time></trkpt><trkpt lat="42.2839776" lon="13.4943907"><ele>725.0</ele><time>2026-05-03T10:30:32.032Z</time></trkpt><trkpt lat="42.2838974" lon="13.4943732"><ele>725.0</ele><time>2026-05-03T10:30:33.014Z</time></trkpt><trkpt lat="42.2838153" lon="13.4943443"><ele>724.8</ele><time>2026-05-03T10:30:34.013Z</time></trkpt><trkpt lat="42.2837284" lon="13.4943086"><ele>724.6</ele><time>2026-05-03T10:30:35.013Z</time></trkpt><trkpt lat="42.2836394" lon="13.4942784"><ele>724.4000000000001</ele><time>2026-05-03T10:30:36.021Z</time></trkpt><trkpt lat="42.2835472" lon="13.4942544"><ele>724.2</ele><time>2026-05-03T10:30:37.015Z</time></trkpt><trkpt lat="42.283451" lon="13.4942288"><ele>724.0</ele><time>2026-05-03T10:30:38.029Z</time></trkpt><trkpt lat="42.2833534" lon="13.4942019"><ele>724.0</ele><time>2026-05-03T10:30:39.021Z</time></trkpt><trkpt lat="42.2832591" lon="13.494175"><ele>724.0</ele><time>2026-05-03T10:30:40.018Z</time></trkpt><trkpt lat="42.2831634" lon="13.4941512"><ele>724.0</ele><time>2026-05-03T10:30:41.016Z</time></trkpt><trkpt lat="42.2830718" lon="13.4941282"><ele>724.0</ele><time>2026-05-03T10:30:42.011Z</time></trkpt><trkpt lat="42.2829804" lon="13.4941029"><ele>724.0</ele><time>2026-05-03T10:30:43.013Z</time></trkpt><trkpt lat="42.2828978" lon="13.4940697"><ele>724.0</ele><time>2026-05-03T10:30:44.014Z</time></trkpt><trkpt lat="42.2828179" lon="13.4940223"><ele>724.0</ele><time>2026-05-03T10:30:45.015Z</time></trkpt><trkpt lat="42.2827518" lon="13.4939456"><ele>724.0</ele><time>2026-05-03T10:30:46.018Z</time></trkpt><trkpt lat="42.2826919" lon="13.4938437"><ele>724.0</ele><time>2026-05-03T10:30:47.026Z</time></trkpt><trkpt lat="42.2826471" lon="13.4937245"><ele>724.0</ele><time>2026-05-03T10:30:48.022Z</time></trkpt><trkpt lat="42.2826115" lon="13.4935874"><ele>724.0</ele><time>2026-05-03T10:30:49.015Z</time></trkpt><trkpt lat="42.2825854" lon="13.4934456"><ele>724.0</ele><time>2026-05-03T10:30:50.027Z</time></trkpt><trkpt lat="42.2825645" lon="13.4933161"><ele>724.0</ele><time>2026-05-03T10:30:51.011Z</time></trkpt><trkpt lat="42.2825489" lon="13.4932176"><ele>724.0</ele><time>2026-05-03T10:30:52.025Z</time></trkpt><trkpt lat="42.2825333" lon="13.4931206"><ele>724.0</ele><time>2026-05-03T10:30:53.019Z</time></trkpt><trkpt lat="42.2825191" lon="13.4930357"><ele>724.0</ele><time>2026-05-03T10:30:54.037Z</time></trkpt><trkpt lat="42.2825117" lon="13.4929092"><ele>724.7142857142857</ele><time>2026-05-03T10:30:56.023Z</time></trkpt><trkpt lat="42.2825051" lon="13.4928058"><ele>725.4285714285713</ele><time>2026-05-03T10:30:59.022Z</time></trkpt><trkpt lat="42.282496" lon="13.4927209"><ele>726.1428571428571</ele><time>2026-05-03T10:31:02.025Z</time></trkpt><trkpt lat="42.2824899" lon="13.4926132"><ele>726.8571428571429</ele><time>2026-05-03T10:31:06.02Z</time></trkpt><trkpt lat="42.2824779" lon="13.4925183"><ele>727.5714285714286</ele><time>2026-05-03T10:31:17.019Z</time></trkpt><trkpt lat="42.2824766" lon="13.4924209"><ele>728.2857142857143</ele><time>2026-05-03T10:31:23.012Z</time></trkpt><trkpt lat="42.2824646" lon="13.4923303"><ele>729.0</ele><time>2026-05-03T10:31:32.021Z</time></trkpt><trkpt lat="42.2824656" lon="13.4922433"><ele>729.0</ele><time>2026-05-03T10:31:34.016Z</time></trkpt><trkpt lat="42.2824847" lon="13.4921013"><ele>729.0</ele><time>2026-05-03T10:31:36.03Z</time></trkpt><trkpt lat="42.2824868" lon="13.4920021"><ele>729.0</ele><time>2026-05-03T10:31:37.024Z</time></trkpt><trkpt lat="42.2824944" lon="13.4918926"><ele>729.0</ele><time>2026-05-03T10:31:38.022Z</time></trkpt><trkpt lat="42.2825076" lon="13.4917792"><ele>729.0</ele><time>2026-05-03T10:31:39.011Z</time></trkpt><trkpt lat="42.2825323" lon="13.4916612"><ele>729.0</ele><time>2026-05-03T10:31:40.029Z</time></trkpt><trkpt lat="42.2825704" lon="13.4915426"><ele>730.2</ele><time>2026-05-03T10:31:41.025Z</time></trkpt><trkpt lat="42.2826192" lon="13.4914166"><ele>731.4000000000001</ele><time>2026-05-03T10:31:42.009Z</time></trkpt><trkpt lat="42.2826735" lon="13.4912867"><ele>732.6</ele><time>2026-05-03T10:31:43.017Z</time></trkpt><trkpt lat="42.2827263" lon="13.4911595"><ele>733.8</ele><time>2026-05-03T10:31:44.011Z</time></trkpt><trkpt lat="42.2827779" lon="13.4910338"><ele>735.0</ele><time>2026-05-03T10:31:45.016Z</time></trkpt><trkpt lat="42.2828248" lon="13.4908981"><ele>736.0</ele><time>2026-05-03T10:31:46.014Z</time></trkpt><trkpt lat="42.282855" lon="13.4907473"><ele>737.0</ele><time>2026-05-03T10:31:47.015Z</time></trkpt><trkpt lat="42.2828755" lon="13.4905939"><ele>738.0</ele><time>2026-05-03T10:31:48.022Z</time></trkpt><trkpt lat="42.2828682" lon="13.4904382"><ele>739.0</ele><time>2026-05-03T10:31:49.013Z</time></trkpt><trkpt lat="42.2828559" lon="13.4902772"><ele>740.0</ele><time>2026-05-03T10:31:50.026Z</time></trkpt><trkpt lat="42.2828389" lon="13.4901187"><ele>741.0</ele><time>2026-05-03T10:31:51.007Z</time></trkpt><trkpt lat="42.282826" lon="13.4899647"><ele>742.0</ele><time>2026-05-03T10:31:52.03Z</time></trkpt><trkpt lat="42.2828269" lon="13.4898029"><ele>743.0</ele><time>2026-05-03T10:31:53.016Z</time></trkpt><trkpt lat="42.2828441" lon="13.4896478"><ele>744.75</ele><time>2026-05-03T10:31:54.017Z</time></trkpt><trkpt lat="42.2828618" lon="13.4894895"><ele>746.5</ele><time>2026-05-03T10:31:55.018Z</time></trkpt><trkpt lat="42.2828565" lon="13.4893283"><ele>748.25</ele><time>2026-05-03T10:31:56.017Z</time></trkpt><trkpt lat="42.2828222" lon="13.4891602"><ele>750.0</ele><time>2026-05-03T10:31:57.024Z</time></trkpt><trkpt lat="42.282784" lon="13.4889864"><ele>750.0</ele><time>2026-05-03T10:31:58.016Z</time></trkpt><trkpt lat="42.2827468" lon="13.4888068"><ele>750.0</ele><time>2026-05-03T10:31:59.008Z</time></trkpt><trkpt lat="42.2827038" lon="13.4886271"><ele>750.0</ele><time>2026-05-03T10:32:00.029Z</time></trkpt><trkpt lat="42.2826637" lon="13.4884579"><ele>750.0</ele><time>2026-05-03T10:32:01.019Z</time></trkpt><trkpt lat="42.2826289" lon="13.4883009"><ele>751.6</ele><time>2026-05-03T10:32:02.015Z</time></trkpt><trkpt lat="42.2825955" lon="13.488153"><ele>753.2</ele><time>2026-05-03T10:32:03.021Z</time></trkpt><trkpt lat="42.2825652" lon="13.4880166"><ele>754.8</ele><time>2026-05-03T10:32:04.006Z</time></trkpt><trkpt lat="42.2825365" lon="13.4878812"><ele>756.4</ele><time>2026-05-03T10:32:05.01Z</time></trkpt><trkpt lat="42.2825108" lon="13.4877507"><ele>758.0</ele><time>2026-05-03T10:32:06.011Z</time></trkpt><trkpt lat="42.2824965" lon="13.4876113"><ele>759.8</ele><time>2026-05-03T10:32:07.011Z</time></trkpt><trkpt lat="42.2824998" lon="13.4874648"><ele>761.5999999999999</ele><time>2026-05-03T10:32:08.017Z</time></trkpt><trkpt lat="42.2825176" lon="13.4873185"><ele>763.4000000000001</ele><time>2026-05-03T10:32:09.019Z</time></trkpt><trkpt lat="42.2825451" lon="13.4871745"><ele>765.2</ele><time>2026-05-03T10:32:10.01Z</time></trkpt><trkpt lat="42.2825727" lon="13.4870202"><ele>767.0</ele><time>2026-05-03T10:32:11.018Z</time></trkpt><trkpt lat="42.2826046" lon="13.486871"><ele>767.75</ele><time>2026-05-03T10:32:12.013Z</time></trkpt><trkpt lat="42.2826433" lon="13.4867233"><ele>768.5</ele><time>2026-05-03T10:32:13.008Z</time></trkpt><trkpt lat="42.2826849" lon="13.4865704"><ele>769.25</ele><time>2026-05-03T10:32:14.021Z</time></trkpt><trkpt lat="42.28273" lon="13.4864208"><ele>770.0</ele><time>2026-05-03T10:32:15.01Z</time></trkpt><trkpt lat="42.282783" lon="13.4862856"><ele>771.0</ele><time>2026-05-03T10:32:16.02Z</time></trkpt><trkpt lat="42.2828343" lon="13.4861471"><ele>772.0</ele><time>2026-05-03T10:32:17.005Z</time></trkpt><trkpt lat="42.2828848" lon="13.4860195"><ele>773.0</ele><time>2026-05-03T10:32:18.014Z</time></trkpt><trkpt lat="42.2829277" lon="13.4858803"><ele>774.0</ele><time>2026-05-03T10:32:19.021Z</time></trkpt><trkpt lat="42.2829561" lon="13.4857234"><ele>774.0</ele><time>2026-05-03T10:32:20.02Z</time></trkpt><trkpt lat="42.2829711" lon="13.4855547"><ele>774.0</ele><time>2026-05-03T10:32:21.019Z</time></trkpt><trkpt lat="42.2829787" lon="13.4853766"><ele>774.0</ele><time>2026-05-03T10:32:22.014Z</time></trkpt><trkpt lat="42.2829851" lon="13.4851932"><ele>774.0</ele><time>2026-05-03T10:32:23.016Z</time></trkpt><trkpt lat="42.2829951" lon="13.4850108"><ele>775.5</ele><time>2026-05-03T10:32:24.01Z</time></trkpt><trkpt lat="42.2830104" lon="13.4848272"><ele>777.0</ele><time>2026-05-03T10:32:25.009Z</time></trkpt><trkpt lat="42.2830358" lon="13.4846407"><ele>778.5</ele><time>2026-05-03T10:32:26.024Z</time></trkpt><trkpt lat="42.2830692" lon="13.4844635"><ele>780.0</ele><time>2026-05-03T10:32:27.019Z</time></trkpt><trkpt lat="42.2831128" lon="13.4843063"><ele>781.25</ele><time>2026-05-03T10:32:28.022Z</time></trkpt><trkpt lat="42.2831628" lon="13.4841626"><ele>782.5</ele><time>2026-05-03T10:32:29.02Z</time></trkpt><trkpt lat="42.2832158" lon="13.4840122"><ele>783.75</ele><time>2026-05-03T10:32:30.018Z</time></trkpt><trkpt lat="42.2832617" lon="13.4838659"><ele>785.0</ele><time>2026-05-03T10:32:31.015Z</time></trkpt><trkpt lat="42.2833022" lon="13.4837229"><ele>786.4</ele><time>2026-05-03T10:32:32.013Z</time></trkpt><trkpt lat="42.2833281" lon="13.4835858"><ele>787.8</ele><time>2026-05-03T10:32:33.01Z</time></trkpt><trkpt lat="42.2833333" lon="13.4834493"><ele>789.2</ele><time>2026-05-03T10:32:34.021Z</time></trkpt><trkpt lat="42.2833137" lon="13.4833186"><ele>790.6</ele><time>2026-05-03T10:32:35.011Z</time></trkpt><trkpt lat="42.2832873" lon="13.4831916"><ele>792.0</ele><time>2026-05-03T10:32:36.011Z</time></trkpt><trkpt lat="42.2832721" lon="13.4830558"><ele>793.4000000000001</ele><time>2026-05-03T10:32:37.023Z</time></trkpt><trkpt lat="42.2832567" lon="13.4829098"><ele>794.8000000000001</ele><time>2026-05-03T10:32:38.017Z</time></trkpt><trkpt lat="42.283242" lon="13.4827616"><ele>796.2</ele><time>2026-05-03T10:32:39.028Z</time></trkpt><trkpt lat="42.2832297" lon="13.4826093"><ele>797.6</ele><time>2026-05-03T10:32:40.015Z</time></trkpt><trkpt lat="42.2832192" lon="13.4824619"><ele>799.0</ele><time>2026-05-03T10:32:41.015Z</time></trkpt><trkpt lat="42.2832217" lon="13.4823231"><ele>799.0</ele><time>2026-05-03T10:32:42.008Z</time></trkpt><trkpt lat="42.2832346" lon="13.4821775"><ele>799.0</ele><time>2026-05-03T10:32:43.015Z</time></trkpt><trkpt lat="42.2832526" lon="13.4820271"><ele>799.0</ele><time>2026-05-03T10:32:44.022Z</time></trkpt><trkpt lat="42.2832604" lon="13.4818841"><ele>799.0</ele><time>2026-05-03T10:32:45.012Z</time></trkpt><trkpt lat="42.2832534" lon="13.4817461"><ele>799.0</ele><time>2026-05-03T10:32:46.034Z</time></trkpt><trkpt lat="42.2832428" lon="13.4816173"><ele>799.8333333333333</ele><time>2026-05-03T10:32:47.015Z</time></trkpt><trkpt lat="42.2832305" lon="13.4815028"><ele>800.6666666666666</ele><time>2026-05-03T10:32:48.013Z</time></trkpt><trkpt lat="42.2832081" lon="13.4813965"><ele>801.5</ele><time>2026-05-03T10:32:49.004Z</time></trkpt><trkpt lat="42.2831839" lon="13.4812995"><ele>802.3333333333333</ele><time>2026-05-03T10:32:50.024Z</time></trkpt><trkpt lat="42.2831701" lon="13.4812083"><ele>803.1666666666666</ele><time>2026-05-03T10:32:51.034Z</time></trkpt><trkpt lat="42.2831667" lon="13.481119"><ele>804.0</ele><time>2026-05-03T10:32:52.007Z</time></trkpt><trkpt lat="42.2831891" lon="13.4809564"><ele>804.1666666666666</ele><time>2026-05-03T10:32:54.018Z</time></trkpt><trkpt lat="42.2832251" lon="13.4808648"><ele>804.3333333333333</ele><time>2026-05-03T10:32:55.011Z</time></trkpt><trkpt lat="42.2832863" lon="13.4807832"><ele>804.5</ele><time>2026-05-03T10:32:56.003Z</time></trkpt><trkpt lat="42.2833581" lon="13.4807207"><ele>804.6666666666666</ele><time>2026-05-03T10:32:57.005Z</time></trkpt><trkpt lat="42.2834225" lon="13.4806932"><ele>804.8333333333333</ele><time>2026-05-03T10:32:58.01Z</time></trkpt><trkpt lat="42.2834941" lon="13.48066"><ele>805.0</ele><time>2026-05-03T10:33:00.015Z</time></trkpt><trkpt lat="42.2835452" lon="13.4807188"><ele>805.0</ele><time>2026-05-03T10:33:50.026Z</time></trkpt><trkpt lat="42.2834993" lon="13.4806598"><ele>805.0</ele><time>2026-05-03T10:34:17.005Z</time></trkpt><trkpt lat="42.2835917" lon="13.4805556"><ele>805.0</ele><time>2026-05-03T10:34:26.016Z</time></trkpt><trkpt lat="42.2836644" lon="13.480443"><ele>805.0</ele><time>2026-05-03T10:34:27.011Z</time></trkpt><trkpt lat="42.2837489" lon="13.4802742"><ele>805.0</ele><time>2026-05-03T10:34:28.014Z</time></trkpt><trkpt lat="42.2838571" lon="13.4800901"><ele>806.3333333333333</ele><time>2026-05-03T10:34:29.016Z</time></trkpt><trkpt lat="42.2839763" lon="13.4798931"><ele>807.6666666666667</ele><time>2026-05-03T10:34:30.023Z</time></trkpt><trkpt lat="42.2840894" lon="13.4797113"><ele>809.0</ele><time>2026-05-03T10:34:31.02Z</time></trkpt><trkpt lat="42.2841919" lon="13.4795533"><ele>809.75</ele><time>2026-05-03T10:34:32.019Z</time></trkpt><trkpt lat="42.2842738" lon="13.47941"><ele>810.5</ele><time>2026-05-03T10:34:33.027Z</time></trkpt><trkpt lat="42.2843307" lon="13.4792814"><ele>811.25</ele><time>2026-05-03T10:34:34.023Z</time></trkpt><trkpt lat="42.2843747" lon="13.4791386"><ele>812.0</ele><time>2026-05-03T10:34:35.018Z</time></trkpt><trkpt lat="42.2843985" lon="13.4789582"><ele>813.0</ele><time>2026-05-03T10:34:36.027Z</time></trkpt><trkpt lat="42.2844053" lon="13.4787626"><ele>814.0</ele><time>2026-05-03T10:34:37.013Z</time></trkpt><trkpt lat="42.2844125" lon="13.4785643"><ele>815.0</ele><time>2026-05-03T10:34:38.023Z</time></trkpt><trkpt lat="42.2844339" lon="13.4783741"><ele>816.0</ele><time>2026-05-03T10:34:39.022Z</time></trkpt><trkpt lat="42.2844713" lon="13.4782327"><ele>816.0</ele><time>2026-05-03T10:34:40.016Z</time></trkpt><trkpt lat="42.2845161" lon="13.4781281"><ele>816.0</ele><time>2026-05-03T10:34:41.017Z</time></trkpt><trkpt lat="42.2845414" lon="13.4780328"><ele>816.0</ele><time>2026-05-03T10:34:42.011Z</time></trkpt><trkpt lat="42.2845489" lon="13.4779389"><ele>816.0</ele><time>2026-05-03T10:34:43.02Z</time></trkpt><trkpt lat="42.2845253" lon="13.4777984"><ele>816.0</ele><time>2026-05-03T10:34:44.029Z</time></trkpt><trkpt lat="42.284493" lon="13.4776423"><ele>817.25</ele><time>2026-05-03T10:34:45.007Z</time></trkpt><trkpt lat="42.2844868" lon="13.4774929"><ele>818.5</ele><time>2026-05-03T10:34:46.015Z</time></trkpt><trkpt lat="42.2844922" lon="13.4773548"><ele>819.75</ele><time>2026-05-03T10:34:47.023Z</time></trkpt><trkpt lat="42.2844733" lon="13.4772041"><ele>821.0</ele><time>2026-05-03T10:34:48.021Z</time></trkpt><trkpt lat="42.2844202" lon="13.4770283"><ele>822.8</ele><time>2026-05-03T10:34:49.014Z</time></trkpt><trkpt lat="42.2843697" lon="13.4768618"><ele>824.5999999999999</ele><time>2026-05-03T10:34:50.017Z</time></trkpt><trkpt lat="42.2843359" lon="13.4767016"><ele>826.4</ele><time>2026-05-03T10:34:51.015Z</time></trkpt><trkpt lat="42.2843289" lon="13.4765743"><ele>828.2</ele><time>2026-05-03T10:34:52.013Z</time></trkpt><trkpt lat="42.2843381" lon="13.4764554"><ele>830.0</ele><time>2026-05-03T10:34:53.032Z</time></trkpt><trkpt lat="42.284364" lon="13.4763372"><ele>831.6666666666667</ele><time>2026-05-03T10:34:54.018Z</time></trkpt><trkpt lat="42.2844199" lon="13.4762301"><ele>833.3333333333334</ele><time>2026-05-03T10:34:55.012Z</time></trkpt><trkpt lat="42.2844821" lon="13.4761476"><ele>835.0</ele><time>2026-05-03T10:34:56.012Z</time></trkpt><trkpt lat="42.2845178" lon="13.4760659"><ele>836.6666666666667</ele><time>2026-05-03T10:34:57.032Z</time></trkpt><trkpt lat="42.2845274" lon="13.4759778"><ele>838.3333333333334</ele><time>2026-05-03T10:34:58.033Z</time></trkpt><trkpt lat="42.2845142" lon="13.4758844"><ele>840.0</ele><time>2026-05-03T10:34:59.017Z</time></trkpt><trkpt lat="42.2844781" lon="13.4757845"><ele>840.0</ele><time>2026-05-03T10:35:00.013Z</time></trkpt><trkpt lat="42.2844282" lon="13.4756804"><ele>840.0</ele><time>2026-05-03T10:35:01.016Z</time></trkpt><trkpt lat="42.2843587" lon="13.4755361"><ele>840.0</ele><time>2026-05-03T10:35:02.01Z</time></trkpt><trkpt lat="42.2842784" lon="13.4753663"><ele>840.0</ele><time>2026-05-03T10:35:03.01Z</time></trkpt><trkpt lat="42.2842059" lon="13.4752007"><ele>840.5</ele><time>2026-05-03T10:35:04.015Z</time></trkpt><trkpt lat="42.2841392" lon="13.4750726"><ele>841.0</ele><time>2026-05-03T10:35:05.009Z</time></trkpt><trkpt lat="42.2840738" lon="13.4749585"><ele>841.5</ele><time>2026-05-03T10:35:06.018Z</time></trkpt><trkpt lat="42.2840047" lon="13.4748361"><ele>842.0</ele><time>2026-05-03T10:35:07.024Z</time></trkpt><trkpt lat="42.2839203" lon="13.474691"><ele>845.6666666666667</ele><time>2026-05-03T10:35:08.039Z</time></trkpt><trkpt lat="42.2838208" lon="13.4745126"><ele>849.3333333333333</ele><time>2026-05-03T10:35:09.011Z</time></trkpt><trkpt lat="42.2837205" lon="13.4743233"><ele>853.0</ele><time>2026-05-03T10:35:10.018Z</time></trkpt><trkpt lat="42.2836003" lon="13.4741158"><ele>853.0</ele><time>2026-05-03T10:35:11.019Z</time></trkpt><trkpt lat="42.283462" lon="13.4738763"><ele>853.0</ele><time>2026-05-03T10:35:12.025Z</time></trkpt><trkpt lat="42.2833212" lon="13.4736022"><ele>855.0</ele><time>2026-05-03T10:35:13.024Z</time></trkpt><trkpt lat="42.2831847" lon="13.4733125"><ele>857.0</ele><time>2026-05-03T10:35:14.023Z</time></trkpt><trkpt lat="42.2830552" lon="13.4730654"><ele>861.0</ele><time>2026-05-03T10:35:15.009Z</time></trkpt><trkpt lat="42.2829374" lon="13.4728549"><ele>865.0</ele><time>2026-05-03T10:35:16.024Z</time></trkpt><trkpt lat="42.28281" lon="13.472662"><ele>869.0</ele><time>2026-05-03T10:35:17.024Z</time></trkpt><trkpt lat="42.2826429" lon="13.4724854"><ele>869.0</ele><time>2026-05-03T10:35:18.02Z</time></trkpt><trkpt lat="42.2824411" lon="13.4723339"><ele>869.0</ele><time>2026-05-03T10:35:19.025Z</time></trkpt><trkpt lat="42.2822358" lon="13.4721999"><ele>871.6666666666667</ele><time>2026-05-03T10:35:20.012Z</time></trkpt><trkpt lat="42.2820596" lon="13.4720773"><ele>874.3333333333333</ele><time>2026-05-03T10:35:21.018Z</time></trkpt><trkpt lat="42.2819133" lon="13.4719272"><ele>877.0</ele><time>2026-05-03T10:35:22.015Z</time></trkpt><trkpt lat="42.2817762" lon="13.4717492"><ele>877.0</ele><time>2026-05-03T10:35:23.011Z</time></trkpt><trkpt lat="42.2816447" lon="13.4715493"><ele>877.0</ele><time>2026-05-03T10:35:24.045Z</time></trkpt><trkpt lat="42.2815242" lon="13.471346"><ele>877.0</ele><time>2026-05-03T10:35:25.022Z</time></trkpt><trkpt lat="42.2814146" lon="13.4711741"><ele>880.0</ele><time>2026-05-03T10:35:26.035Z</time></trkpt><trkpt lat="42.2813151" lon="13.4710234"><ele>883.0</ele><time>2026-05-03T10:35:27.028Z</time></trkpt><trkpt lat="42.2812146" lon="13.4708762"><ele>886.0</ele><time>2026-05-03T10:35:28.026Z</time></trkpt><trkpt lat="42.2810984" lon="13.4707414"><ele>886.0</ele><time>2026-05-03T10:35:29.027Z</time></trkpt><trkpt lat="42.2809581" lon="13.4706174"><ele>886.0</ele><time>2026-05-03T10:35:30.025Z</time></trkpt><trkpt lat="42.2808141" lon="13.4704947"><ele>886.0</ele><time>2026-05-03T10:35:31.024Z</time></trkpt><trkpt lat="42.2806792" lon="13.4703651"><ele>889.5</ele><time>2026-05-03T10:35:32.02Z</time></trkpt><trkpt lat="42.2805597" lon="13.4702455"><ele>893.0</ele><time>2026-05-03T10:35:33.019Z</time></trkpt><trkpt lat="42.2804634" lon="13.4701229"><ele>896.5</ele><time>2026-05-03T10:35:34.021Z</time></trkpt><trkpt lat="42.2803928" lon="13.4699791"><ele>900.0</ele><time>2026-05-03T10:35:35.024Z</time></trkpt><trkpt lat="42.2803489" lon="13.4698073"><ele>900.0</ele><time>2026-05-03T10:35:36.029Z</time></trkpt><trkpt lat="42.280329" lon="13.4696092"><ele>900.0</ele><time>2026-05-03T10:35:37.012Z</time></trkpt><trkpt lat="42.2803338" lon="13.4693892"><ele>900.0</ele><time>2026-05-03T10:35:38.023Z</time></trkpt><trkpt lat="42.2803354" lon="13.4691597"><ele>901.3333333333333</ele><time>2026-05-03T10:35:39.018Z</time></trkpt><trkpt lat="42.2803235" lon="13.4689302"><ele>902.6666666666666</ele><time>2026-05-03T10:35:40.021Z</time></trkpt><trkpt lat="42.280303" lon="13.4687017"><ele>904.0</ele><time>2026-05-03T10:35:41.026Z</time></trkpt><trkpt lat="42.2802749" lon="13.4684935"><ele>904.6666666666666</ele><time>2026-05-03T10:35:42.011Z</time></trkpt><trkpt lat="42.2802475" lon="13.4682883"><ele>905.3333333333333</ele><time>2026-05-03T10:35:43.014Z</time></trkpt><trkpt lat="42.2802174" lon="13.468076"><ele>906.0</ele><time>2026-05-03T10:35:44.032Z</time></trkpt><trkpt lat="42.2801816" lon="13.467866"><ele>906.0</ele><time>2026-05-03T10:35:45.028Z</time></trkpt><trkpt lat="42.2801374" lon="13.4676531"><ele>906.0</ele><time>2026-05-03T10:35:46.031Z</time></trkpt><trkpt lat="42.2800963" lon="13.4674378"><ele>906.0</ele><time>2026-05-03T10:35:47.029Z</time></trkpt><trkpt lat="42.2800519" lon="13.4672172"><ele>906.6666666666667</ele><time>2026-05-03T10:35:48.033Z</time></trkpt><trkpt lat="42.2800097" lon="13.466995"><ele>907.3333333333334</ele><time>2026-05-03T10:35:49.012Z</time></trkpt><trkpt lat="42.2799738" lon="13.466781"><ele>908.0</ele><time>2026-05-03T10:35:50.019Z</time></trkpt><trkpt lat="42.2799402" lon="13.4665686"><ele>908.0</ele><time>2026-05-03T10:35:51.029Z</time></trkpt><trkpt lat="42.2799099" lon="13.466362"><ele>908.0</ele><time>2026-05-03T10:35:52.034Z</time></trkpt><trkpt lat="42.2798816" lon="13.4661515"><ele>908.0</ele><time>2026-05-03T10:35:53.018Z</time></trkpt><trkpt lat="42.2798599" lon="13.4659416"><ele>909.0</ele><time>2026-05-03T10:35:54.033Z</time></trkpt><trkpt lat="42.2798403" lon="13.4657278"><ele>910.0</ele><time>2026-05-03T10:35:55.028Z</time></trkpt><trkpt lat="42.279825" lon="13.4655083"><ele>911.0</ele><time>2026-05-03T10:35:56.018Z</time></trkpt><trkpt lat="42.2798112" lon="13.465294"><ele>912.6666666666667</ele><time>2026-05-03T10:35:57.026Z</time></trkpt><trkpt lat="42.2798059" lon="13.4650725"><ele>914.3333333333333</ele><time>2026-05-03T10:35:58.025Z</time></trkpt><trkpt lat="42.2798098" lon="13.4648453"><ele>916.0</ele><time>2026-05-03T10:35:59.013Z</time></trkpt><trkpt lat="42.2798146" lon="13.4646236"><ele>917.75</ele><time>2026-05-03T10:36:00.03Z</time></trkpt><trkpt lat="42.2798213" lon="13.4644102"><ele>919.5</ele><time>2026-05-03T10:36:01.023Z</time></trkpt><trkpt lat="42.2798301" lon="13.464212"><ele>921.25</ele><time>2026-05-03T10:36:02.038Z</time></trkpt><trkpt lat="42.2798343" lon="13.4640269"><ele>923.0</ele><time>2026-05-03T10:36:03.023Z</time></trkpt><trkpt lat="42.2798379" lon="13.4638474"><ele>924.25</ele><time>2026-05-03T10:36:04.028Z</time></trkpt><trkpt lat="42.2798399" lon="13.463661"><ele>925.5</ele><time>2026-05-03T10:36:05.019Z</time></trkpt><trkpt lat="42.2798416" lon="13.4634677"><ele>926.75</ele><time>2026-05-03T10:36:06.029Z</time></trkpt><trkpt lat="42.2798401" lon="13.4632615"><ele>928.0</ele><time>2026-05-03T10:36:07.015Z</time></trkpt><trkpt lat="42.2798316" lon="13.4630493"><ele>928.75</ele><time>2026-05-03T10:36:08.018Z</time></trkpt><trkpt lat="42.279812" lon="13.4628396"><ele>929.5</ele><time>2026-05-03T10:36:09.025Z</time></trkpt><trkpt lat="42.2797907" lon="13.4626494"><ele>930.25</ele><time>2026-05-03T10:36:10.034Z</time></trkpt><trkpt lat="42.2797742" lon="13.4624794"><ele>931.0</ele><time>2026-05-03T10:36:11.026Z</time></trkpt><trkpt lat="42.2797552" lon="13.462315"><ele>934.0</ele><time>2026-05-03T10:36:12.023Z</time></trkpt><trkpt lat="42.2797247" lon="13.4621385"><ele>937.0</ele><time>2026-05-03T10:36:13.017Z</time></trkpt><trkpt lat="42.2796821" lon="13.4619565"><ele>940.0</ele><time>2026-05-03T10:36:14.033Z</time></trkpt><trkpt lat="42.2796286" lon="13.4617602"><ele>943.0</ele><time>2026-05-03T10:36:15.042Z</time></trkpt><trkpt lat="42.279567" lon="13.4615608"><ele>943.75</ele><time>2026-05-03T10:36:16.016Z</time></trkpt><trkpt lat="42.2795056" lon="13.4613706"><ele>944.5</ele><time>2026-05-03T10:36:17.029Z</time></trkpt><trkpt lat="42.2794553" lon="13.4612018"><ele>945.25</ele><time>2026-05-03T10:36:18.012Z</time></trkpt><trkpt lat="42.2794171" lon="13.461035"><ele>946.0</ele><time>2026-05-03T10:36:19.017Z</time></trkpt><trkpt lat="42.2793974" lon="13.4608608"><ele>947.0</ele><time>2026-05-03T10:36:20.038Z</time></trkpt><trkpt lat="42.2794133" lon="13.4606773"><ele>948.0</ele><time>2026-05-03T10:36:21.013Z</time></trkpt><trkpt lat="42.2794712" lon="13.460492"><ele>949.0</ele><time>2026-05-03T10:36:22.042Z</time></trkpt><trkpt lat="42.2795524" lon="13.4603201"><ele>950.0</ele><time>2026-05-03T10:36:23.012Z</time></trkpt><trkpt lat="42.2796479" lon="13.4601664"><ele>949.6666666666667</ele><time>2026-05-03T10:36:24.043Z</time></trkpt><trkpt lat="42.2797568" lon="13.4600381"><ele>949.3333333333333</ele><time>2026-05-03T10:36:25.013Z</time></trkpt><trkpt lat="42.2798907" lon="13.4599365"><ele>949.0</ele><time>2026-05-03T10:36:26.02Z</time></trkpt><trkpt lat="42.28005" lon="13.4598754"><ele>949.0</ele><time>2026-05-03T10:36:27.015Z</time></trkpt><trkpt lat="42.2802199" lon="13.4598358"><ele>949.0</ele><time>2026-05-03T10:36:28.026Z</time></trkpt><trkpt lat="42.2803875" lon="13.4597916"><ele>949.0</ele><time>2026-05-03T10:36:29.015Z</time></trkpt><trkpt lat="42.2805379" lon="13.4597469"><ele>950.2</ele><time>2026-05-03T10:36:30.024Z</time></trkpt><trkpt lat="42.2806655" lon="13.4596977"><ele>951.4000000000001</ele><time>2026-05-03T10:36:31.022Z</time></trkpt><trkpt lat="42.2807775" lon="13.4596554"><ele>952.6</ele><time>2026-05-03T10:36:32.017Z</time></trkpt><trkpt lat="42.2808726" lon="13.4596005"><ele>953.8</ele><time>2026-05-03T10:36:33.011Z</time></trkpt><trkpt lat="42.2809541" lon="13.4595312"><ele>955.0</ele><time>2026-05-03T10:36:34.02Z</time></trkpt><trkpt lat="42.2810236" lon="13.4594359"><ele>954.9999999999999</ele><time>2026-05-03T10:36:35.032Z</time></trkpt><trkpt lat="42.2810803" lon="13.4593412"><ele>955.0</ele><time>2026-05-03T10:36:36.026Z</time></trkpt><trkpt lat="42.2811272" lon="13.4592505"><ele>955.0</ele><time>2026-05-03T10:36:37.021Z</time></trkpt><trkpt lat="42.2811692" lon="13.4591641"><ele>955.0</ele><time>2026-05-03T10:36:38.013Z</time></trkpt><trkpt lat="42.2812012" lon="13.4590216"><ele>954.9999999999999</ele><time>2026-05-03T10:36:40.043Z</time></trkpt><trkpt lat="42.2811624" lon="13.4589206"><ele>955.0</ele><time>2026-05-03T10:36:42.009Z</time></trkpt><trkpt lat="42.2810787" lon="13.4588974"><ele>954.9999999999999</ele><time>2026-05-03T10:36:44.014Z</time></trkpt><trkpt lat="42.2809966" lon="13.4589837"><ele>955.0</ele><time>2026-05-03T10:36:46.019Z</time></trkpt><trkpt lat="42.2809578" lon="13.4590609"><ele>955.0</ele><time>2026-05-03T10:36:47.016Z</time></trkpt><trkpt lat="42.2809132" lon="13.4591475"><ele>955.0</ele><time>2026-05-03T10:36:48.026Z</time></trkpt><trkpt lat="42.2808517" lon="13.4592239"><ele>954.9999999999999</ele><time>2026-05-03T10:36:49.022Z</time></trkpt><trkpt lat="42.2807835" lon="13.4592973"><ele>955.0</ele><time>2026-05-03T10:36:50.011Z</time></trkpt><trkpt lat="42.2807025" lon="13.4593601"><ele>955.0</ele><time>2026-05-03T10:36:51.016Z</time></trkpt><trkpt lat="42.2806158" lon="13.4594113"><ele>955.0</ele><time>2026-05-03T10:36:52.028Z</time></trkpt><trkpt lat="42.2805223" lon="13.459443"><ele>955.0</ele><time>2026-05-03T10:36:53.011Z</time></trkpt><trkpt lat="42.2804209" lon="13.459446"><ele>955.0</ele><time>2026-05-03T10:36:54.01Z</time></trkpt><trkpt lat="42.2803181" lon="13.4594455"><ele>955.0</ele><time>2026-05-03T10:36:55.017Z</time></trkpt><trkpt lat="42.2802124" lon="13.4594392"><ele>957.6</ele><time>2026-05-03T10:36:56.016Z</time></trkpt><trkpt lat="42.2801021" lon="13.4594296"><ele>960.2</ele><time>2026-05-03T10:36:56.999Z</time></trkpt><trkpt lat="42.2799953" lon="13.459424"><ele>962.8</ele><time>2026-05-03T10:36:58.016Z</time></trkpt><trkpt lat="42.2798858" lon="13.4594273"><ele>965.4</ele><time>2026-05-03T10:36:59.019Z</time></trkpt><trkpt lat="42.2797721" lon="13.4594451"><ele>968.0</ele><time>2026-05-03T10:37:00.019Z</time></trkpt><trkpt lat="42.2796512" lon="13.4594828"><ele>970.0</ele><time>2026-05-03T10:37:01.023Z</time></trkpt><trkpt lat="42.2795335" lon="13.4595451"><ele>972.0</ele><time>2026-05-03T10:37:02.006Z</time></trkpt><trkpt lat="42.2794049" lon="13.459626"><ele>974.0</ele><time>2026-05-03T10:37:03.029Z</time></trkpt><trkpt lat="42.2792805" lon="13.4597163"><ele>976.0</ele><time>2026-05-03T10:37:04.015Z</time></trkpt><trkpt lat="42.2791525" lon="13.4598108"><ele>975.0</ele><time>2026-05-03T10:37:05.005Z</time></trkpt><trkpt lat="42.2790221" lon="13.4599148"><ele>974.0</ele><time>2026-05-03T10:37:06.019Z</time></trkpt><trkpt lat="42.278893" lon="13.4600297"><ele>973.0</ele><time>2026-05-03T10:37:07.008Z</time></trkpt><trkpt lat="42.2787726" lon="13.4601456"><ele>973.0</ele><time>2026-05-03T10:37:08.007Z</time></trkpt><trkpt lat="42.2786559" lon="13.4602746"><ele>973.0</ele><time>2026-05-03T10:37:09.011Z</time></trkpt><trkpt lat="42.2785537" lon="13.4604158"><ele>973.0</ele><time>2026-05-03T10:37:10.021Z</time></trkpt><trkpt lat="42.2784677" lon="13.4605841"><ele>973.0</ele><time>2026-05-03T10:37:11.02Z</time></trkpt><trkpt lat="42.2783986" lon="13.4607741"><ele>971.3333333333333</ele><time>2026-05-03T10:37:12.009Z</time></trkpt><trkpt lat="42.2783372" lon="13.4609769"><ele>969.6666666666667</ele><time>2026-05-03T10:37:13.022Z</time></trkpt><trkpt lat="42.2782733" lon="13.4611801"><ele>968.0</ele><time>2026-05-03T10:37:14.019Z</time></trkpt><trkpt lat="42.2782004" lon="13.4613725"><ele>967.5</ele><time>2026-05-03T10:37:15.024Z</time></trkpt><trkpt lat="42.2781286" lon="13.4615537"><ele>967.0</ele><time>2026-05-03T10:37:16.018Z</time></trkpt><trkpt lat="42.2780667" lon="13.4617148"><ele>966.5</ele><time>2026-05-03T10:37:17.019Z</time></trkpt><trkpt lat="42.2780098" lon="13.4618618"><ele>966.0</ele><time>2026-05-03T10:37:18.018Z</time></trkpt><trkpt lat="42.2779477" lon="13.4620015"><ele>969.0</ele><time>2026-05-03T10:37:19.031Z</time></trkpt><trkpt lat="42.2778927" lon="13.4621407"><ele>972.0</ele><time>2026-05-03T10:37:20.017Z</time></trkpt><trkpt lat="42.2778795" lon="13.4622966"><ele>975.0</ele><time>2026-05-03T10:37:21.017Z</time></trkpt><trkpt lat="42.2779023" lon="13.4624675"><ele>978.0</ele><time>2026-05-03T10:37:22.022Z</time></trkpt><trkpt lat="42.2779569" lon="13.4626615"><ele>978.0</ele><time>2026-05-03T10:37:23.018Z</time></trkpt><trkpt lat="42.278006" lon="13.4628772"><ele>978.0</ele><time>2026-05-03T10:37:24.029Z</time></trkpt><trkpt lat="42.2780459" lon="13.4631039"><ele>978.0</ele><time>2026-05-03T10:37:25.01Z</time></trkpt><trkpt lat="42.2780845" lon="13.4633368"><ele>978.0</ele><time>2026-05-03T10:37:26.018Z</time></trkpt><trkpt lat="42.278122" lon="13.4635561"><ele>978.0</ele><time>2026-05-03T10:37:26.999Z</time></trkpt><trkpt lat="42.2781609" lon="13.4637581"><ele>978.0</ele><time>2026-05-03T10:37:28.005Z</time></trkpt><trkpt lat="42.2781843" lon="13.4639542"><ele>978.0</ele><time>2026-05-03T10:37:29.025Z</time></trkpt><trkpt lat="42.278196" lon="13.4641539"><ele>978.0</ele><time>2026-05-03T10:37:30.009Z</time></trkpt><trkpt lat="42.2781908" lon="13.4643609"><ele>978.0</ele><time>2026-05-03T10:37:31.014Z</time></trkpt><trkpt lat="42.2781656" lon="13.4645754"><ele>979.0</ele><time>2026-05-03T10:37:32.014Z</time></trkpt><trkpt lat="42.2781325" lon="13.464804"><ele>980.0</ele><time>2026-05-03T10:37:33.011Z</time></trkpt><trkpt lat="42.2780909" lon="13.4650444"><ele>981.0</ele><time>2026-05-03T10:37:34.02Z</time></trkpt><trkpt lat="42.2780521" lon="13.4653007"><ele>995.6666666666667</ele><time>2026-05-03T10:37:35.019Z</time></trkpt><trkpt lat="42.2780207" lon="13.4655672"><ele>1010.3333333333334</ele><time>2026-05-03T10:37:36.006Z</time></trkpt><trkpt lat="42.2779906" lon="13.465847"><ele>1025.0</ele><time>2026-05-03T10:37:37.012Z</time></trkpt><trkpt lat="42.2779585" lon="13.4661304"><ele>1026.6666666666667</ele><time>2026-05-03T10:37:38.009Z</time></trkpt><trkpt lat="42.2779285" lon="13.4664254"><ele>1028.3333333333333</ele><time>2026-05-03T10:37:39.012Z</time></trkpt><trkpt lat="42.2778948" lon="13.466722"><ele>1030.0</ele><time>2026-05-03T10:37:40.018Z</time></trkpt><trkpt lat="42.2778644" lon="13.4670211"><ele>1030.3333333333333</ele><time>2026-05-03T10:37:41.015Z</time></trkpt><trkpt lat="42.2778324" lon="13.4673156"><ele>1030.6666666666667</ele><time>2026-05-03T10:37:42.018Z</time></trkpt><trkpt lat="42.2778048" lon="13.4676171"><ele>1031.0</ele><time>2026-05-03T10:37:43.015Z</time></trkpt><trkpt lat="42.2777806" lon="13.4679248"><ele>1030.0</ele><time>2026-05-03T10:37:44.012Z</time></trkpt><trkpt lat="42.2777525" lon="13.4682407"><ele>1029.0</ele><time>2026-05-03T10:37:45.018Z</time></trkpt><trkpt lat="42.2777237" lon="13.4685599"><ele>1031.5</ele><time>2026-05-03T10:37:46.003Z</time></trkpt><trkpt lat="42.2776995" lon="13.4688752"><ele>1034.0</ele><time>2026-05-03T10:37:47.01Z</time></trkpt><trkpt lat="42.2776784" lon="13.4691825"><ele>1034.0</ele><time>2026-05-03T10:37:48.009Z</time></trkpt><trkpt lat="42.277662" lon="13.4694802"><ele>1034.0</ele><time>2026-05-03T10:37:49.009Z</time></trkpt><trkpt lat="42.2776412" lon="13.4697734"><ele>1034.0</ele><time>2026-05-03T10:37:50.025Z</time></trkpt><trkpt lat="42.2776007" lon="13.4700704"><ele>1033.0</ele><time>2026-05-03T10:37:51.006Z</time></trkpt><trkpt lat="42.2775551" lon="13.4703849"><ele>1032.0</ele><time>2026-05-03T10:37:52.001Z</time></trkpt><trkpt lat="42.2774949" lon="13.4707045"><ele>1027.0</ele><time>2026-05-03T10:37:52.998Z</time></trkpt><trkpt lat="42.27743" lon="13.4710417"><ele>1022.0</ele><time>2026-05-03T10:37:54.012Z</time></trkpt><trkpt lat="42.2773644" lon="13.4713892"><ele>1018.0</ele><time>2026-05-03T10:37:55.011Z</time></trkpt><trkpt lat="42.2772953" lon="13.4717503"><ele>1014.0</ele><time>2026-05-03T10:37:56.009Z</time></trkpt><trkpt lat="42.277223" lon="13.4721137"><ele>1046.0</ele><time>2026-05-03T10:37:57.015Z</time></trkpt><trkpt lat="42.2771529" lon="13.4724522"><ele>1078.0</ele><time>2026-05-03T10:37:57.994Z</time></trkpt><trkpt lat="42.2770932" lon="13.4727832"><ele>1074.0</ele><time>2026-05-03T10:37:59.013Z</time></trkpt><trkpt lat="42.277044" lon="13.473124"><ele>1070.0</ele><time>2026-05-03T10:38:00.008Z</time></trkpt><trkpt lat="42.2770146" lon="13.4734788"><ele>1069.5</ele><time>2026-05-03T10:38:01.007Z</time></trkpt><trkpt lat="42.2770079" lon="13.4738359"><ele>1069.0</ele><time>2026-05-03T10:38:02.013Z</time></trkpt><trkpt lat="42.276993" lon="13.4741866"><ele>1069.0</ele><time>2026-05-03T10:38:03.01Z</time></trkpt><trkpt lat="42.2769539" lon="13.4745367"><ele>1069.0</ele><time>2026-05-03T10:38:04.014Z</time></trkpt><trkpt lat="42.276894" lon="13.4748872"><ele>1066.5</ele><time>2026-05-03T10:38:05.015Z</time></trkpt><trkpt lat="42.2768471" lon="13.4752131"><ele>1064.0</ele><time>2026-05-03T10:38:06.016Z</time></trkpt><trkpt lat="42.2768039" lon="13.4755216"><ele>1062.5</ele><time>2026-05-03T10:38:07.004Z</time></trkpt><trkpt lat="42.2767578" lon="13.4758261"><ele>1061.0</ele><time>2026-05-03T10:38:08.011Z</time></trkpt><trkpt lat="42.2767039" lon="13.4761276"><ele>1056.0</ele><time>2026-05-03T10:38:09.005Z</time></trkpt><trkpt lat="42.2766445" lon="13.4764331"><ele>1051.0</ele><time>2026-05-03T10:38:10.017Z</time></trkpt><trkpt lat="42.2765788" lon="13.4767382"><ele>1051.0</ele><time>2026-05-03T10:38:11.011Z</time></trkpt><trkpt lat="42.2765079" lon="13.4770372"><ele>1051.0</ele><time>2026-05-03T10:38:12.016Z</time></trkpt><trkpt lat="42.2764327" lon="13.4773327"><ele>1063.0</ele><time>2026-05-03T10:38:13.014Z</time></trkpt><trkpt lat="42.2763636" lon="13.4776271"><ele>1075.0</ele><time>2026-05-03T10:38:13.994Z</time></trkpt><trkpt lat="42.2762994" lon="13.4779079"><ele>1087.0</ele><time>2026-05-03T10:38:15.008Z</time></trkpt><trkpt lat="42.2762358" lon="13.4781906"><ele>1087.0</ele><time>2026-05-03T10:38:16.017Z</time></trkpt><trkpt lat="42.2761718" lon="13.4784668"><ele>1087.0</ele><time>2026-05-03T10:38:17.007Z</time></trkpt><trkpt lat="42.2761128" lon="13.4787386"><ele>1087.0</ele><time>2026-05-03T10:38:18.016Z</time></trkpt><trkpt lat="42.2760499" lon="13.4790057"><ele>1084.0</ele><time>2026-05-03T10:38:19.008Z</time></trkpt><trkpt lat="42.2759737" lon="13.4792653"><ele>1081.0</ele><time>2026-05-03T10:38:20.02Z</time></trkpt><trkpt lat="42.2758841" lon="13.4795198"><ele>1078.0</ele><time>2026-05-03T10:38:21.009Z</time></trkpt><trkpt lat="42.2758044" lon="13.479764"><ele>1073.6666666666665</ele><time>2026-05-03T10:38:22.028Z</time></trkpt><trkpt lat="42.2757334" lon="13.4799864"><ele>1069.3333333333333</ele><time>2026-05-03T10:38:23.012Z</time></trkpt><trkpt lat="42.2756723" lon="13.4801944"><ele>1065.0</ele><time>2026-05-03T10:38:24.009Z</time></trkpt><trkpt lat="42.2756145" lon="13.4803878"><ele>1072.25</ele><time>2026-05-03T10:38:25.013Z</time></trkpt><trkpt lat="42.2755565" lon="13.4805796"><ele>1079.5</ele><time>2026-05-03T10:38:26.01Z</time></trkpt><trkpt lat="42.2754953" lon="13.480763"><ele>1086.75</ele><time>2026-05-03T10:38:27.01Z</time></trkpt><trkpt lat="42.2754371" lon="13.4809335"><ele>1094.0</ele><time>2026-05-03T10:38:28.008Z</time></trkpt><trkpt lat="42.2753829" lon="13.4810925"><ele>1094.0</ele><time>2026-05-03T10:38:29.006Z</time></trkpt><trkpt lat="42.2753387" lon="13.4812247"><ele>1094.0</ele><time>2026-05-03T10:38:30.015Z</time></trkpt><trkpt lat="42.2752879" lon="13.4813368"><ele>1094.0</ele><time>2026-05-03T10:38:31.017Z</time></trkpt><trkpt lat="42.2752175" lon="13.481407"><ele>1094.0</ele><time>2026-05-03T10:38:32.015Z</time></trkpt><trkpt lat="42.2751369" lon="13.4814242"><ele>1094.0</ele><time>2026-05-03T10:38:33.018Z</time></trkpt><trkpt lat="42.2750626" lon="13.4814034"><ele>1094.0</ele><time>2026-05-03T10:38:34.02Z</time></trkpt><trkpt lat="42.2750018" lon="13.4813272"><ele>1094.0</ele><time>2026-05-03T10:38:35.013Z</time></trkpt><trkpt lat="42.2749635" lon="13.4812115"><ele>1094.0</ele><time>2026-05-03T10:38:36.024Z</time></trkpt><trkpt lat="42.2749622" lon="13.4810816"><ele>1094.0</ele><time>2026-05-03T10:38:37.016Z</time></trkpt><trkpt lat="42.2749897" lon="13.4809351"><ele>1094.0</ele><time>2026-05-03T10:38:38.007Z</time></trkpt><trkpt lat="42.2750434" lon="13.4807787"><ele>1094.0</ele><time>2026-05-03T10:38:39.017Z</time></trkpt><trkpt lat="42.2750914" lon="13.4806124"><ele>1094.0</ele><time>2026-05-03T10:38:40.013Z</time></trkpt><trkpt lat="42.275132" lon="13.4804223"><ele>1094.0</ele><time>2026-05-03T10:38:41.013Z</time></trkpt><trkpt lat="42.2751702" lon="13.480226"><ele>1094.0</ele><time>2026-05-03T10:38:42.008Z</time></trkpt><trkpt lat="42.2752157" lon="13.4800285"><ele>1094.3333333333335</ele><time>2026-05-03T10:38:43.018Z</time></trkpt><trkpt lat="42.2752581" lon="13.4798281"><ele>1094.6666666666667</ele><time>2026-05-03T10:38:44.01Z</time></trkpt><trkpt lat="42.275301" lon="13.4796188"><ele>1095.0</ele><time>2026-05-03T10:38:45.021Z</time></trkpt><trkpt lat="42.2753451" lon="13.4794099"><ele>1095.0</ele><time>2026-05-03T10:38:46.019Z</time></trkpt><trkpt lat="42.2753933" lon="13.4791962"><ele>1095.0</ele><time>2026-05-03T10:38:47.014Z</time></trkpt><trkpt lat="42.2754422" lon="13.4789755"><ele>1095.0</ele><time>2026-05-03T10:38:48.04Z</time></trkpt><trkpt lat="42.2754881" lon="13.4787595"><ele>1095.0</ele><time>2026-05-03T10:38:49.009Z</time></trkpt><trkpt lat="42.2755346" lon="13.478544"><ele>1095.0</ele><time>2026-05-03T10:38:50.021Z</time></trkpt><trkpt lat="42.2755725" lon="13.4783362"><ele>1095.0</ele><time>2026-05-03T10:38:51.013Z</time></trkpt><trkpt lat="42.275612" lon="13.4781445"><ele>1093.25</ele><time>2026-05-03T10:38:52.013Z</time></trkpt><trkpt lat="42.2756513" lon="13.4779655"><ele>1091.5</ele><time>2026-05-03T10:38:53.013Z</time></trkpt><trkpt lat="42.2756869" lon="13.4777989"><ele>1089.75</ele><time>2026-05-03T10:38:54.021Z</time></trkpt><trkpt lat="42.2757083" lon="13.4776365"><ele>1088.0</ele><time>2026-05-03T10:38:55.028Z</time></trkpt><trkpt lat="42.2757166" lon="13.4774778"><ele>1088.0</ele><time>2026-05-03T10:38:56.018Z</time></trkpt><trkpt lat="42.2756962" lon="13.4773236"><ele>1088.0</ele><time>2026-05-03T10:38:57.022Z</time></trkpt><trkpt lat="42.2756467" lon="13.4771743"><ele>1088.0</ele><time>2026-05-03T10:38:58.012Z</time></trkpt><trkpt lat="42.2755677" lon="13.4770485"><ele>1088.0</ele><time>2026-05-03T10:38:59.013Z</time></trkpt><trkpt lat="42.2754733" lon="13.4769366"><ele>1091.0</ele><time>2026-05-03T10:39:00.018Z</time></trkpt><trkpt lat="42.2753591" lon="13.4768494"><ele>1094.0</ele><time>2026-05-03T10:39:01.005Z</time></trkpt><trkpt lat="42.2752341" lon="13.4767945"><ele>1097.0</ele><time>2026-05-03T10:39:02.02Z</time></trkpt><trkpt lat="42.2750991" lon="13.4767818"><ele>1100.0</ele><time>2026-05-03T10:39:03.018Z</time></trkpt><trkpt lat="42.2749683" lon="13.476815"><ele>1100.0</ele><time>2026-05-03T10:39:04.013Z</time></trkpt><trkpt lat="42.2748456" lon="13.4768982"><ele>1100.0</ele><time>2026-05-03T10:39:05.015Z</time></trkpt><trkpt lat="42.2747334" lon="13.4770205"><ele>1100.0</ele><time>2026-05-03T10:39:06.012Z</time></trkpt><trkpt lat="42.2746446" lon="13.4771714"><ele>1100.0</ele><time>2026-05-03T10:39:07.014Z</time></trkpt><trkpt lat="42.2745869" lon="13.4773603"><ele>1105.0</ele><time>2026-05-03T10:39:08.018Z</time></trkpt><trkpt lat="42.2745328" lon="13.4775766"><ele>1110.0</ele><time>2026-05-03T10:39:09.003Z</time></trkpt><trkpt lat="42.2744762" lon="13.4777994"><ele>1115.0</ele><time>2026-05-03T10:39:10.026Z</time></trkpt><trkpt lat="42.2744282" lon="13.4780338"><ele>1116.0</ele><time>2026-05-03T10:39:11.007Z</time></trkpt><trkpt lat="42.274402" lon="13.4782773"><ele>1117.0</ele><time>2026-05-03T10:39:12.02Z</time></trkpt><trkpt lat="42.2743994" lon="13.4785226"><ele>1118.0</ele><time>2026-05-03T10:39:13.005Z</time></trkpt><trkpt lat="42.2744309" lon="13.4787734"><ele>1118.0</ele><time>2026-05-03T10:39:14.014Z</time></trkpt><trkpt lat="42.2744623" lon="13.4790328"><ele>1118.0</ele><time>2026-05-03T10:39:15.022Z</time></trkpt><trkpt lat="42.2744809" lon="13.4792916"><ele>1118.0</ele><time>2026-05-03T10:39:16.02Z</time></trkpt><trkpt lat="42.2744912" lon="13.4795375"><ele>1119.3333333333335</ele><time>2026-05-03T10:39:17.01Z</time></trkpt><trkpt lat="42.274504" lon="13.4797665"><ele>1120.6666666666667</ele><time>2026-05-03T10:39:18.02Z</time></trkpt><trkpt lat="42.2745228" lon="13.4799732"><ele>1122.0</ele><time>2026-05-03T10:39:19.02Z</time></trkpt><trkpt lat="42.2745386" lon="13.4801793"><ele>1122.0</ele><time>2026-05-03T10:39:20.009Z</time></trkpt><trkpt lat="42.2745461" lon="13.4803907"><ele>1122.0</ele><time>2026-05-03T10:39:21.01Z</time></trkpt><trkpt lat="42.2745536" lon="13.4806114"><ele>1122.0</ele><time>2026-05-03T10:39:22.017Z</time></trkpt><trkpt lat="42.2745407" lon="13.4808409"><ele>1122.3333333333333</ele><time>2026-05-03T10:39:23.027Z</time></trkpt><trkpt lat="42.2745171" lon="13.4810748"><ele>1122.6666666666665</ele><time>2026-05-03T10:39:24.009Z</time></trkpt><trkpt lat="42.2744916" lon="13.4813179"><ele>1123.0</ele><time>2026-05-03T10:39:25.022Z</time></trkpt><trkpt lat="42.2744558" lon="13.4815589"><ele>1123.0</ele><time>2026-05-03T10:39:26.019Z</time></trkpt><trkpt lat="42.2744131" lon="13.4818036"><ele>1123.0</ele><time>2026-05-03T10:39:27.017Z</time></trkpt><trkpt lat="42.2743589" lon="13.4820562"><ele>1123.0</ele><time>2026-05-03T10:39:28.02Z</time></trkpt><trkpt lat="42.2742859" lon="13.4823014"><ele>1121.6666666666665</ele><time>2026-05-03T10:39:29.011Z</time></trkpt><trkpt lat="42.2742095" lon="13.4825443"><ele>1120.3333333333333</ele><time>2026-05-03T10:39:30.029Z</time></trkpt><trkpt lat="42.2741379" lon="13.4827871"><ele>1119.0</ele><time>2026-05-03T10:39:31.023Z</time></trkpt><trkpt lat="42.2740874" lon="13.4830483"><ele>1117.3333333333333</ele><time>2026-05-03T10:39:32.007Z</time></trkpt><trkpt lat="42.274061" lon="13.4833212"><ele>1115.6666666666665</ele><time>2026-05-03T10:39:33.01Z</time></trkpt><trkpt lat="42.2740341" lon="13.4835951"><ele>1114.0</ele><time>2026-05-03T10:39:34.017Z</time></trkpt><trkpt lat="42.2740005" lon="13.4838668"><ele>1114.0</ele><time>2026-05-03T10:39:35.023Z</time></trkpt><trkpt lat="42.2739634" lon="13.4841245"><ele>1114.0</ele><time>2026-05-03T10:39:36.009Z</time></trkpt><trkpt lat="42.2739266" lon="13.4843636"><ele>1114.0</ele><time>2026-05-03T10:39:37.015Z</time></trkpt><trkpt lat="42.2738907" lon="13.4845757"><ele>1118.75</ele><time>2026-05-03T10:39:38.011Z</time></trkpt><trkpt lat="42.2738519" lon="13.4847549"><ele>1123.5</ele><time>2026-05-03T10:39:39.003Z</time></trkpt><trkpt lat="42.273816" lon="13.4849199"><ele>1128.25</ele><time>2026-05-03T10:39:40.012Z</time></trkpt><trkpt lat="42.2737694" lon="13.4850844"><ele>1133.0</ele><time>2026-05-03T10:39:41.014Z</time></trkpt><trkpt lat="42.2736948" lon="13.4852153"><ele>1133.0</ele><time>2026-05-03T10:39:42.004Z</time></trkpt><trkpt lat="42.2735977" lon="13.4853061"><ele>1133.0</ele><time>2026-05-03T10:39:43.016Z</time></trkpt><trkpt lat="42.2734798" lon="13.4853447"><ele>1133.0</ele><time>2026-05-03T10:39:44.015Z</time></trkpt><trkpt lat="42.2733355" lon="13.4853088"><ele>1133.0</ele><time>2026-05-03T10:39:45.008Z</time></trkpt><trkpt lat="42.2731916" lon="13.4852444"><ele>1135.0</ele><time>2026-05-03T10:39:46.023Z</time></trkpt><trkpt lat="42.2730351" lon="13.4851831"><ele>1137.0</ele><time>2026-05-03T10:39:47.001Z</time></trkpt><trkpt lat="42.2728736" lon="13.4851271"><ele>1139.0</ele><time>2026-05-03T10:39:48.038Z</time></trkpt><trkpt lat="42.2727272" lon="13.4850717"><ele>1139.0</ele><time>2026-05-03T10:39:49.014Z</time></trkpt><trkpt lat="42.2725976" lon="13.485016"><ele>1139.0</ele><time>2026-05-03T10:39:50.023Z</time></trkpt><trkpt lat="42.2724777" lon="13.4849717"><ele>1139.0</ele><time>2026-05-03T10:39:51.014Z</time></trkpt><trkpt lat="42.272371" lon="13.4849777"><ele>1139.0</ele><time>2026-05-03T10:39:52.012Z</time></trkpt><trkpt lat="42.2722716" lon="13.4850424"><ele>1144.75</ele><time>2026-05-03T10:39:53.007Z</time></trkpt><trkpt lat="42.2721941" lon="13.4851502"><ele>1150.5</ele><time>2026-05-03T10:39:54.019Z</time></trkpt><trkpt lat="42.2721475" lon="13.4853047"><ele>1156.25</ele><time>2026-05-03T10:39:55.015Z</time></trkpt><trkpt lat="42.2721436" lon="13.4854662"><ele>1162.0</ele><time>2026-05-03T10:39:56.022Z</time></trkpt><trkpt lat="42.2721842" lon="13.4856508"><ele>1166.3333333333333</ele><time>2026-05-03T10:39:57.01Z</time></trkpt><trkpt lat="42.2722729" lon="13.4858327"><ele>1170.6666666666667</ele><time>2026-05-03T10:39:58.02Z</time></trkpt><trkpt lat="42.2723721" lon="13.4860195"><ele>1175.0</ele><time>2026-05-03T10:39:59.01Z</time></trkpt><trkpt lat="42.2724717" lon="13.4862145"><ele>1169.0</ele><time>2026-05-03T10:40:00.005Z</time></trkpt><trkpt lat="42.2725639" lon="13.4864082"><ele>1163.0</ele><time>2026-05-03T10:40:01.015Z</time></trkpt><trkpt lat="42.2726469" lon="13.4865885"><ele>1157.0</ele><time>2026-05-03T10:40:02.004Z</time></trkpt><trkpt lat="42.2727258" lon="13.4867605"><ele>1157.0</ele><time>2026-05-03T10:40:03.021Z</time></trkpt><trkpt lat="42.2727905" lon="13.4869258"><ele>1157.0</ele><time>2026-05-03T10:40:04.035Z</time></trkpt><trkpt lat="42.2728377" lon="13.48709"><ele>1157.0</ele><time>2026-05-03T10:40:05.014Z</time></trkpt><trkpt lat="42.2728554" lon="13.4872826"><ele>1157.0</ele><time>2026-05-03T10:40:06.004Z</time></trkpt><trkpt lat="42.2728423" lon="13.4874881"><ele>1159.3333333333335</ele><time>2026-05-03T10:40:07.007Z</time></trkpt><trkpt lat="42.2728139" lon="13.4877016"><ele>1161.6666666666667</ele><time>2026-05-03T10:40:08.004Z</time></trkpt><trkpt lat="42.2727831" lon="13.4879214"><ele>1164.0</ele><time>2026-05-03T10:40:09.02Z</time></trkpt><trkpt lat="42.2727523" lon="13.488157"><ele>1164.3333333333333</ele><time>2026-05-03T10:40:10.012Z</time></trkpt><trkpt lat="42.2727286" lon="13.4883784"><ele>1164.6666666666665</ele><time>2026-05-03T10:40:11.014Z</time></trkpt><trkpt lat="42.2727004" lon="13.4885961"><ele>1165.0</ele><time>2026-05-03T10:40:12.025Z</time></trkpt><trkpt lat="42.2726751" lon="13.4887976"><ele>1165.0</ele><time>2026-05-03T10:40:13.015Z</time></trkpt><trkpt lat="42.2726478" lon="13.488994"><ele>1165.0</ele><time>2026-05-03T10:40:14.013Z</time></trkpt><trkpt lat="42.2726059" lon="13.4891834"><ele>1165.0</ele><time>2026-05-03T10:40:15.021Z</time></trkpt><trkpt lat="42.272543" lon="13.4893668"><ele>1165.0</ele><time>2026-05-03T10:40:16.016Z</time></trkpt><trkpt lat="42.2724402" lon="13.4895347"><ele>1165.3333333333333</ele><time>2026-05-03T10:40:17.014Z</time></trkpt><trkpt lat="42.2723122" lon="13.4896872"><ele>1165.6666666666667</ele><time>2026-05-03T10:40:18.008Z</time></trkpt><trkpt lat="42.2721681" lon="13.4898179"><ele>1166.0</ele><time>2026-05-03T10:40:19.009Z</time></trkpt><trkpt lat="42.2720124" lon="13.489946"><ele>1169.3333333333335</ele><time>2026-05-03T10:40:20.024Z</time></trkpt><trkpt lat="42.2718678" lon="13.4900764"><ele>1172.6666666666667</ele><time>2026-05-03T10:40:21.011Z</time></trkpt><trkpt lat="42.2717414" lon="13.4901913"><ele>1176.0</ele><time>2026-05-03T10:40:22.027Z</time></trkpt><trkpt lat="42.2716349" lon="13.4903122"><ele>1174.5</ele><time>2026-05-03T10:40:23.017Z</time></trkpt><trkpt lat="42.2715445" lon="13.4904435"><ele>1173.0</ele><time>2026-05-03T10:40:24.024Z</time></trkpt><trkpt lat="42.2714791" lon="13.4906124"><ele>1171.5</ele><time>2026-05-03T10:40:25.024Z</time></trkpt><trkpt lat="42.2714451" lon="13.4908096"><ele>1170.0</ele><time>2026-05-03T10:40:26.005Z</time></trkpt><trkpt lat="42.2714437" lon="13.4910169"><ele>1170.0</ele><time>2026-05-03T10:40:27.014Z</time></trkpt><trkpt lat="42.2714636" lon="13.4912331"><ele>1170.0</ele><time>2026-05-03T10:40:28.014Z</time></trkpt><trkpt lat="42.2714931" lon="13.4914616"><ele>1170.0</ele><time>2026-05-03T10:40:29.009Z</time></trkpt><trkpt lat="42.2715197" lon="13.4917099"><ele>1170.6666666666667</ele><time>2026-05-03T10:40:30.014Z</time></trkpt><trkpt lat="42.2715379" lon="13.4919684"><ele>1171.3333333333335</ele><time>2026-05-03T10:40:31.024Z</time></trkpt><trkpt lat="42.2715611" lon="13.4922367"><ele>1172.0</ele><time>2026-05-03T10:40:32.003Z</time></trkpt><trkpt lat="42.2715808" lon="13.4924938"><ele>1171.6666666666667</ele><time>2026-05-03T10:40:33.01Z</time></trkpt><trkpt lat="42.2716011" lon="13.4927356"><ele>1171.3333333333333</ele><time>2026-05-03T10:40:34.012Z</time></trkpt><trkpt lat="42.2716255" lon="13.4929663"><ele>1171.0</ele><time>2026-05-03T10:40:35.015Z</time></trkpt><trkpt lat="42.2716486" lon="13.4931967"><ele>1171.0</ele><time>2026-05-03T10:40:36.008Z</time></trkpt><trkpt lat="42.2716642" lon="13.4934297"><ele>1171.0</ele><time>2026-05-03T10:40:37.009Z</time></trkpt><trkpt lat="42.2716664" lon="13.4936734"><ele>1171.0</ele><time>2026-05-03T10:40:38.018Z</time></trkpt><trkpt lat="42.2716544" lon="13.4939174"><ele>1170.6666666666665</ele><time>2026-05-03T10:40:39.007Z</time></trkpt><trkpt lat="42.2716335" lon="13.4941858"><ele>1170.3333333333333</ele><time>2026-05-03T10:40:40.018Z</time></trkpt><trkpt lat="42.2715917" lon="13.4944627"><ele>1170.0</ele><time>2026-05-03T10:40:41.017Z</time></trkpt><trkpt lat="42.2715546" lon="13.4947457"><ele>1169.6666666666667</ele><time>2026-05-03T10:40:42.017Z</time></trkpt><trkpt lat="42.2715136" lon="13.4950327"><ele>1169.3333333333335</ele><time>2026-05-03T10:40:43.011Z</time></trkpt><trkpt lat="42.2714715" lon="13.4953161"><ele>1169.0</ele><time>2026-05-03T10:40:44.017Z</time></trkpt><trkpt lat="42.2714327" lon="13.4955738"><ele>1169.0</ele><time>2026-05-03T10:40:45.007Z</time></trkpt><trkpt lat="42.2713955" lon="13.4958126"><ele>1169.0</ele><time>2026-05-03T10:40:46.013Z</time></trkpt><trkpt lat="42.2713642" lon="13.4960437"><ele>1169.0</ele><time>2026-05-03T10:40:47.009Z</time></trkpt><trkpt lat="42.271336" lon="13.4962496"><ele>1169.5</ele><time>2026-05-03T10:40:48.01Z</time></trkpt><trkpt lat="42.2713003" lon="13.4964345"><ele>1170.0</ele><time>2026-05-03T10:40:49.005Z</time></trkpt><trkpt lat="42.2712415" lon="13.4965897"><ele>1170.5</ele><time>2026-05-03T10:40:50.01Z</time></trkpt><trkpt lat="42.2711542" lon="13.4967152"><ele>1171.0</ele><time>2026-05-03T10:40:51.008Z</time></trkpt><trkpt lat="42.2710345" lon="13.4968121"><ele>1171.0</ele><time>2026-05-03T10:40:52.026Z</time></trkpt><trkpt lat="42.2708863" lon="13.496893"><ele>1171.0</ele><time>2026-05-03T10:40:53.006Z</time></trkpt><trkpt lat="42.2707314" lon="13.4969401"><ele>1171.0</ele><time>2026-05-03T10:40:54.011Z</time></trkpt><trkpt lat="42.2705654" lon="13.4969904"><ele>1171.0</ele><time>2026-05-03T10:40:55.009Z</time></trkpt><trkpt lat="42.2704014" lon="13.4970434"><ele>1171.0</ele><time>2026-05-03T10:40:56.012Z</time></trkpt><trkpt lat="42.2702375" lon="13.4970934"><ele>1171.0</ele><time>2026-05-03T10:40:57.025Z</time></trkpt><trkpt lat="42.2700786" lon="13.4971274"><ele>1171.0</ele><time>2026-05-03T10:40:58.018Z</time></trkpt><trkpt lat="42.2699286" lon="13.4971197"><ele>1171.0</ele><time>2026-05-03T10:40:59.008Z</time></trkpt><trkpt lat="42.2697693" lon="13.4970614"><ele>1171.0</ele><time>2026-05-03T10:41:00.013Z</time></trkpt><trkpt lat="42.2696188" lon="13.4969602"><ele>1175.3333333333333</ele><time>2026-05-03T10:41:01.018Z</time></trkpt><trkpt lat="42.269471" lon="13.4968447"><ele>1179.6666666666667</ele><time>2026-05-03T10:41:02.014Z</time></trkpt><trkpt lat="42.2693314" lon="13.4967411"><ele>1184.0</ele><time>2026-05-03T10:41:03.017Z</time></trkpt><trkpt lat="42.2692157" lon="13.4966557"><ele>1184.0</ele><time>2026-05-03T10:41:04.025Z</time></trkpt><trkpt lat="42.2690966" lon="13.4966117"><ele>1184.0</ele><time>2026-05-03T10:41:05.019Z</time></trkpt><trkpt lat="42.2689781" lon="13.4966157"><ele>1184.0</ele><time>2026-05-03T10:41:06.02Z</time></trkpt><trkpt lat="42.2688514" lon="13.4966755"><ele>1184.0</ele><time>2026-05-03T10:41:07.015Z</time></trkpt><trkpt lat="42.2687363" lon="13.4967948"><ele>1189.0</ele><time>2026-05-03T10:41:08.02Z</time></trkpt><trkpt lat="42.2686455" lon="13.4969724"><ele>1194.0</ele><time>2026-05-03T10:41:09.013Z</time></trkpt><trkpt lat="42.2685578" lon="13.4971729"><ele>1199.0</ele><time>2026-05-03T10:41:10.013Z</time></trkpt><trkpt lat="42.2684522" lon="13.497379"><ele>1199.0</ele><time>2026-05-03T10:41:11.02Z</time></trkpt><trkpt lat="42.2683474" lon="13.4975828"><ele>1199.0</ele><time>2026-05-03T10:41:12.027Z</time></trkpt><trkpt lat="42.2682573" lon="13.4978136"><ele>1199.0</ele><time>2026-05-03T10:41:13.011Z</time></trkpt><trkpt lat="42.268185" lon="13.4980536"><ele>1197.3333333333335</ele><time>2026-05-03T10:41:14.019Z</time></trkpt><trkpt lat="42.2681391" lon="13.4982844"><ele>1195.6666666666667</ele><time>2026-05-03T10:41:15.015Z</time></trkpt><trkpt lat="42.2681037" lon="13.4985088"><ele>1194.0</ele><time>2026-05-03T10:41:16.03Z</time></trkpt><trkpt lat="42.2680692" lon="13.4987187"><ele>1201.0</ele><time>2026-05-03T10:41:17.015Z</time></trkpt><trkpt lat="42.2680539" lon="13.4989317"><ele>1208.0</ele><time>2026-05-03T10:41:18.021Z</time></trkpt><trkpt lat="42.2680686" lon="13.4991517"><ele>1215.0</ele><time>2026-05-03T10:41:19.019Z</time></trkpt><trkpt lat="42.2681083" lon="13.4993868"><ele>1207.6666666666667</ele><time>2026-05-03T10:41:20.035Z</time></trkpt><trkpt lat="42.2681746" lon="13.4996239"><ele>1200.3333333333335</ele><time>2026-05-03T10:41:21.013Z</time></trkpt><trkpt lat="42.2682447" lon="13.4998501"><ele>1193.0</ele><time>2026-05-03T10:41:22.02Z</time></trkpt><trkpt lat="42.2683134" lon="13.5000582"><ele>1193.0</ele><time>2026-05-03T10:41:22.999Z</time></trkpt><trkpt lat="42.2683702" lon="13.5002568"><ele>1193.0</ele><time>2026-05-03T10:41:24.017Z</time></trkpt><trkpt lat="42.2684225" lon="13.5004593"><ele>1193.0</ele><time>2026-05-03T10:41:25.013Z</time></trkpt><trkpt lat="42.2684525" lon="13.5006727"><ele>1194.0</ele><time>2026-05-03T10:41:26.007Z</time></trkpt><trkpt lat="42.2684634" lon="13.5008991"><ele>1195.0</ele><time>2026-05-03T10:41:27.004Z</time></trkpt><trkpt lat="42.2684592" lon="13.5011266"><ele>1196.0</ele><time>2026-05-03T10:41:28.016Z</time></trkpt><trkpt lat="42.2684424" lon="13.5013387"><ele>1196.0</ele><time>2026-05-03T10:41:29.017Z</time></trkpt><trkpt lat="42.2684212" lon="13.5015438"><ele>1196.0</ele><time>2026-05-03T10:41:30.031Z</time></trkpt><trkpt lat="42.268388" lon="13.501741"><ele>1196.0</ele><time>2026-05-03T10:41:31.011Z</time></trkpt><trkpt lat="42.2683344" lon="13.5019378"><ele>1192.6666666666667</ele><time>2026-05-03T10:41:32.019Z</time></trkpt><trkpt lat="42.2682609" lon="13.5021391"><ele>1189.3333333333333</ele><time>2026-05-03T10:41:33.002Z</time></trkpt><trkpt lat="42.2681791" lon="13.5023471"><ele>1186.0</ele><time>2026-05-03T10:41:34.011Z</time></trkpt><trkpt lat="42.2680991" lon="13.5025611"><ele>1193.6666666666665</ele><time>2026-05-03T10:41:35.013Z</time></trkpt><trkpt lat="42.2680063" lon="13.5027913"><ele>1201.3333333333333</ele><time>2026-05-03T10:41:36.015Z</time></trkpt><trkpt lat="42.2679111" lon="13.5030229"><ele>1209.0</ele><time>2026-05-03T10:41:37.03Z</time></trkpt><trkpt lat="42.2678089" lon="13.503257"><ele>1209.0</ele><time>2026-05-03T10:41:38.01Z</time></trkpt><trkpt lat="42.2676991" lon="13.5034853"><ele>1209.0</ele><time>2026-05-03T10:41:39.005Z</time></trkpt><trkpt lat="42.2675907" lon="13.5037021"><ele>1209.0</ele><time>2026-05-03T10:41:40.008Z</time></trkpt><trkpt lat="42.2674911" lon="13.5039033"><ele>1210.6666666666667</ele><time>2026-05-03T10:41:41.016Z</time></trkpt><trkpt lat="42.2674023" lon="13.504087"><ele>1212.3333333333335</ele><time>2026-05-03T10:41:42.008Z</time></trkpt><trkpt lat="42.2673257" lon="13.5042645"><ele>1214.0</ele><time>2026-05-03T10:41:43.015Z</time></trkpt><trkpt lat="42.2672445" lon="13.504426"><ele>1214.0</ele><time>2026-05-03T10:41:44.012Z</time></trkpt><trkpt lat="42.2671687" lon="13.5045707"><ele>1214.0</ele><time>2026-05-03T10:41:45.012Z</time></trkpt><trkpt lat="42.2670864" lon="13.5047005"><ele>1214.0</ele><time>2026-05-03T10:41:46.013Z</time></trkpt><trkpt lat="42.2669821" lon="13.5048185"><ele>1214.0</ele><time>2026-05-03T10:41:47.024Z</time></trkpt><trkpt lat="42.2668555" lon="13.5049211"><ele>1212.6666666666667</ele><time>2026-05-03T10:41:48.012Z</time></trkpt><trkpt lat="42.2667055" lon="13.5050165"><ele>1211.3333333333333</ele><time>2026-05-03T10:41:49.01Z</time></trkpt><trkpt lat="42.2665383" lon="13.5051191"><ele>1210.0</ele><time>2026-05-03T10:41:50.013Z</time></trkpt><trkpt lat="42.2663798" lon="13.5052215"><ele>1210.0</ele><time>2026-05-03T10:41:51.019Z</time></trkpt><trkpt lat="42.2662342" lon="13.5053186"><ele>1210.0</ele><time>2026-05-03T10:41:52.016Z</time></trkpt><trkpt lat="42.2661006" lon="13.5054068"><ele>1210.0</ele><time>2026-05-03T10:41:53.013Z</time></trkpt><trkpt lat="42.2659645" lon="13.5054825"><ele>1207.5</ele><time>2026-05-03T10:41:54.007Z</time></trkpt><trkpt lat="42.26584" lon="13.5055494"><ele>1205.0</ele><time>2026-05-03T10:41:55.011Z</time></trkpt><trkpt lat="42.2657169" lon="13.5055695"><ele>1202.5</ele><time>2026-05-03T10:41:56.012Z</time></trkpt><trkpt lat="42.2655871" lon="13.5055589"><ele>1200.0</ele><time>2026-05-03T10:41:57.011Z</time></trkpt><trkpt lat="42.2654607" lon="13.5054912"><ele>1203.0</ele><time>2026-05-03T10:41:58.009Z</time></trkpt><trkpt lat="42.2653388" lon="13.505386"><ele>1206.0</ele><time>2026-05-03T10:41:59.021Z</time></trkpt><trkpt lat="42.2652148" lon="13.5052598"><ele>1209.0</ele><time>2026-05-03T10:42:00.023Z</time></trkpt><trkpt lat="42.2651059" lon="13.5051444"><ele>1212.0</ele><time>2026-05-03T10:42:01.009Z</time></trkpt><trkpt lat="42.2650036" lon="13.5050541"><ele>1212.0</ele><time>2026-05-03T10:42:02.008Z</time></trkpt><trkpt lat="42.2649047" lon="13.5049893"><ele>1212.0</ele><time>2026-05-03T10:42:03.003Z</time></trkpt><trkpt lat="42.2648021" lon="13.5049716"><ele>1212.0</ele><time>2026-05-03T10:42:04.014Z</time></trkpt><trkpt lat="42.2646879" lon="13.5050158"><ele>1212.0</ele><time>2026-05-03T10:42:05.009Z</time></trkpt><trkpt lat="42.2645934" lon="13.5050972"><ele>1212.0</ele><time>2026-05-03T10:42:06.034Z</time></trkpt><trkpt lat="42.2645054" lon="13.5052488"><ele>1216.3333333333333</ele><time>2026-05-03T10:42:07.001Z</time></trkpt><trkpt lat="42.2644341" lon="13.5054391"><ele>1220.6666666666665</ele><time>2026-05-03T10:42:08.009Z</time></trkpt><trkpt lat="42.264379" lon="13.5056451"><ele>1225.0</ele><time>2026-05-03T10:42:09.006Z</time></trkpt><trkpt lat="42.2643125" lon="13.5058663"><ele>1225.0</ele><time>2026-05-03T10:42:10.025Z</time></trkpt><trkpt lat="42.2642407" lon="13.5060996"><ele>1225.0</ele><time>2026-05-03T10:42:11.006Z</time></trkpt><trkpt lat="42.2641729" lon="13.506343"><ele>1225.0</ele><time>2026-05-03T10:42:12.02Z</time></trkpt><trkpt lat="42.2640967" lon="13.5065846"><ele>1227.3333333333333</ele><time>2026-05-03T10:42:13.012Z</time></trkpt><trkpt lat="42.2640205" lon="13.5068328"><ele>1229.6666666666667</ele><time>2026-05-03T10:42:14.018Z</time></trkpt><trkpt lat="42.2639485" lon="13.5070797"><ele>1232.0</ele><time>2026-05-03T10:42:15.007Z</time></trkpt><trkpt lat="42.2638826" lon="13.5073312"><ele>1232.0</ele><time>2026-05-03T10:42:16.001Z</time></trkpt><trkpt lat="42.2638344" lon="13.5075744"><ele>1232.0</ele><time>2026-05-03T10:42:17.007Z</time></trkpt><trkpt lat="42.2637944" lon="13.5078021"><ele>1232.0</ele><time>2026-05-03T10:42:18.016Z</time></trkpt><trkpt lat="42.2637591" lon="13.5080045"><ele>1229.0</ele><time>2026-05-03T10:42:19.024Z</time></trkpt><trkpt lat="42.2637098" lon="13.5081865"><ele>1226.0</ele><time>2026-05-03T10:42:20.017Z</time></trkpt><trkpt lat="42.2636259" lon="13.5083573"><ele>1223.0</ele><time>2026-05-03T10:42:21.025Z</time></trkpt><trkpt lat="42.263504" lon="13.5085341"><ele>1223.0</ele><time>2026-05-03T10:42:22.02Z</time></trkpt><trkpt lat="42.2633729" lon="13.5086922"><ele>1223.0</ele><time>2026-05-03T10:42:23.014Z</time></trkpt><trkpt lat="42.2632313" lon="13.5088462"><ele>1223.0</ele><time>2026-05-03T10:42:24.013Z</time></trkpt><trkpt lat="42.263066" lon="13.5089832"><ele>1223.0</ele><time>2026-05-03T10:42:25.016Z</time></trkpt><trkpt lat="42.2628741" lon="13.5091118"><ele>1223.0</ele><time>2026-05-03T10:42:26.009Z</time></trkpt><trkpt lat="42.2626657" lon="13.5092376"><ele>1223.0</ele><time>2026-05-03T10:42:27.016Z</time></trkpt><trkpt lat="42.2624392" lon="13.5093619"><ele>1223.5</ele><time>2026-05-03T10:42:28.015Z</time></trkpt><trkpt lat="42.2622203" lon="13.5094795"><ele>1224.0</ele><time>2026-05-03T10:42:29.019Z</time></trkpt><trkpt lat="42.2620194" lon="13.5095946"><ele>1224.0</ele><time>2026-05-03T10:42:30.018Z</time></trkpt><trkpt lat="42.2618298" lon="13.5097"><ele>1224.0</ele><time>2026-05-03T10:42:31.011Z</time></trkpt><trkpt lat="42.2616467" lon="13.5098013"><ele>1224.0</ele><time>2026-05-03T10:42:32.011Z</time></trkpt><trkpt lat="42.2614747" lon="13.5098928"><ele>1222.6666666666667</ele><time>2026-05-03T10:42:32.999Z</time></trkpt><trkpt lat="42.2613156" lon="13.5099755"><ele>1221.3333333333335</ele><time>2026-05-03T10:42:34.018Z</time></trkpt><trkpt lat="42.2611592" lon="13.5100457"><ele>1220.0</ele><time>2026-05-03T10:42:35.022Z</time></trkpt><trkpt lat="42.2610095" lon="13.5101169"><ele>1220.0</ele><time>2026-05-03T10:42:36.014Z</time></trkpt><trkpt lat="42.2608616" lon="13.5101762"><ele>1220.0</ele><time>2026-05-03T10:42:37.011Z</time></trkpt><trkpt lat="42.2607025" lon="13.5102166"><ele>1220.0</ele><time>2026-05-03T10:42:38.007Z</time></trkpt><trkpt lat="42.2605271" lon="13.5102361"><ele>1221.6666666666667</ele><time>2026-05-03T10:42:39.023Z</time></trkpt><trkpt lat="42.2603479" lon="13.5102348"><ele>1223.3333333333333</ele><time>2026-05-03T10:42:40.012Z</time></trkpt><trkpt lat="42.2601688" lon="13.5102019"><ele>1225.0</ele><time>2026-05-03T10:42:41.017Z</time></trkpt><trkpt lat="42.2599901" lon="13.5101488"><ele>1225.0</ele><time>2026-05-03T10:42:42.021Z</time></trkpt><trkpt lat="42.2598048" lon="13.5100882"><ele>1225.0</ele><time>2026-05-03T10:42:43.021Z</time></trkpt><trkpt lat="42.25962" lon="13.5100248"><ele>1225.0</ele><time>2026-05-03T10:42:44.022Z</time></trkpt><trkpt lat="42.2594335" lon="13.5099617"><ele>1225.0</ele><time>2026-05-03T10:42:45.024Z</time></trkpt><trkpt lat="42.2592451" lon="13.5099001"><ele>1225.0</ele><time>2026-05-03T10:42:46.035Z</time></trkpt><trkpt lat="42.2590514" lon="13.5098389"><ele>1225.0</ele><time>2026-05-03T10:42:47.019Z</time></trkpt><trkpt lat="42.2588549" lon="13.5097755"><ele>1225.3333333333333</ele><time>2026-05-03T10:42:48.018Z</time></trkpt><trkpt lat="42.2586581" lon="13.5097094"><ele>1225.6666666666667</ele><time>2026-05-03T10:42:49.012Z</time></trkpt><trkpt lat="42.2584637" lon="13.5096449"><ele>1226.0</ele><time>2026-05-03T10:42:50.027Z</time></trkpt><trkpt lat="42.2582779" lon="13.5095868"><ele>1225.6666666666667</ele><time>2026-05-03T10:42:51.018Z</time></trkpt><trkpt lat="42.2580991" lon="13.5095278"><ele>1225.3333333333333</ele><time>2026-05-03T10:42:52.025Z</time></trkpt><trkpt lat="42.2579155" lon="13.509461"><ele>1225.0</ele><time>2026-05-03T10:42:53.024Z</time></trkpt><trkpt lat="42.2577308" lon="13.5093773"><ele>1225.0</ele><time>2026-05-03T10:42:54.022Z</time></trkpt><trkpt lat="42.2575537" lon="13.5092587"><ele>1225.0</ele><time>2026-05-03T10:42:55.024Z</time></trkpt><trkpt lat="42.2573803" lon="13.5091218"><ele>1225.0</ele><time>2026-05-03T10:42:56.031Z</time></trkpt><trkpt lat="42.2572001" lon="13.5089716"><ele>1226.3333333333333</ele><time>2026-05-03T10:42:57.023Z</time></trkpt><trkpt lat="42.2570227" lon="13.5088237"><ele>1227.6666666666667</ele><time>2026-05-03T10:42:58.028Z</time></trkpt><trkpt lat="42.2568584" lon="13.5086876"><ele>1229.0</ele><time>2026-05-03T10:42:59.01Z</time></trkpt><trkpt lat="42.2567026" lon="13.5085539"><ele>1229.0</ele><time>2026-05-03T10:43:00.029Z</time></trkpt><trkpt lat="42.2565381" lon="13.5084203"><ele>1229.0</ele><time>2026-05-03T10:43:01.016Z</time></trkpt><trkpt lat="42.2563653" lon="13.5082879"><ele>1229.0</ele><time>2026-05-03T10:43:02.027Z</time></trkpt><trkpt lat="42.2561835" lon="13.5081679"><ele>1230.0</ele><time>2026-05-03T10:43:03.03Z</time></trkpt><trkpt lat="42.2559918" lon="13.5080569"><ele>1231.0</ele><time>2026-05-03T10:43:04.023Z</time></trkpt><trkpt lat="42.255796" lon="13.5079524"><ele>1232.0</ele><time>2026-05-03T10:43:05.027Z</time></trkpt><trkpt lat="42.255595" lon="13.5078639"><ele>1232.6666666666667</ele><time>2026-05-03T10:43:06.034Z</time></trkpt><trkpt lat="42.2553909" lon="13.507782"><ele>1233.3333333333333</ele><time>2026-05-03T10:43:07.019Z</time></trkpt><trkpt lat="42.255202" lon="13.5077064"><ele>1234.0</ele><time>2026-05-03T10:43:08.027Z</time></trkpt><trkpt lat="42.2550258" lon="13.5076454"><ele>1234.0</ele><time>2026-05-03T10:43:09.019Z</time></trkpt><trkpt lat="42.2548584" lon="13.5076051"><ele>1234.0</ele><time>2026-05-03T10:43:10.04Z</time></trkpt><trkpt lat="42.2546865" lon="13.507601"><ele>1234.0</ele><time>2026-05-03T10:43:11.033Z</time></trkpt><trkpt lat="42.2545094" lon="13.507636"><ele>1236.0</ele><time>2026-05-03T10:43:12.008Z</time></trkpt><trkpt lat="42.2543384" lon="13.5077199"><ele>1238.0</ele><time>2026-05-03T10:43:13.019Z</time></trkpt><trkpt lat="42.2541659" lon="13.5078422"><ele>1240.0</ele><time>2026-05-03T10:43:14.003Z</time></trkpt><trkpt lat="42.2539976" lon="13.5079955"><ele>1246.0</ele><time>2026-05-03T10:43:15.016Z</time></trkpt><trkpt lat="42.2538233" lon="13.5081825"><ele>1252.0</ele><time>2026-05-03T10:43:16.024Z</time></trkpt><trkpt lat="42.2536521" lon="13.5083778"><ele>1258.0</ele><time>2026-05-03T10:43:17.018Z</time></trkpt><trkpt lat="42.2534736" lon="13.5085694"><ele>1254.0</ele><time>2026-05-03T10:43:18.024Z</time></trkpt><trkpt lat="42.253302" lon="13.5087474"><ele>1250.0</ele><time>2026-05-03T10:43:19.02Z</time></trkpt><trkpt lat="42.2531264" lon="13.5089232"><ele>1246.0</ele><time>2026-05-03T10:43:20.028Z</time></trkpt><trkpt lat="42.252964" lon="13.5091466"><ele>1258.0</ele><time>2026-05-03T10:43:21.019Z</time></trkpt><trkpt lat="42.2528295" lon="13.5094096"><ele>1270.0</ele><time>2026-05-03T10:43:22.014Z</time></trkpt><trkpt lat="42.2527053" lon="13.5096881"><ele>1270.0</ele><time>2026-05-03T10:43:23.017Z</time></trkpt><trkpt lat="42.2525793" lon="13.5099582"><ele>1270.0</ele><time>2026-05-03T10:43:24.014Z</time></trkpt><trkpt lat="42.2524644" lon="13.5102224"><ele>1264.0</ele><time>2026-05-03T10:43:25.007Z</time></trkpt><trkpt lat="42.2523763" lon="13.5105092"><ele>1258.0</ele><time>2026-05-03T10:43:26.039Z</time></trkpt><trkpt lat="42.2523122" lon="13.5108258"><ele>1280.0</ele><time>2026-05-03T10:43:27.01Z</time></trkpt><trkpt lat="42.2522584" lon="13.511158"><ele>1302.0</ele><time>2026-05-03T10:43:28.015Z</time></trkpt><trkpt lat="42.2522156" lon="13.5114802"><ele>1302.0</ele><time>2026-05-03T10:43:29.019Z</time></trkpt><trkpt lat="42.2521675" lon="13.5117816"><ele>1302.0</ele><time>2026-05-03T10:43:30.053Z</time></trkpt><trkpt lat="42.2521189" lon="13.5120627"><ele>1302.0</ele><time>2026-05-03T10:43:31.007Z</time></trkpt><trkpt lat="42.2520715" lon="13.5123239"><ele>1298.3333333333333</ele><time>2026-05-03T10:43:32.018Z</time></trkpt><trkpt lat="42.2520091" lon="13.5125782"><ele>1294.6666666666665</ele><time>2026-05-03T10:43:33.015Z</time></trkpt><trkpt lat="42.2519288" lon="13.5128204"><ele>1291.0</ele><time>2026-05-03T10:43:34.016Z</time></trkpt><trkpt lat="42.2518277" lon="13.5130497"><ele>1285.6666666666665</ele><time>2026-05-03T10:43:35.022Z</time></trkpt><trkpt lat="42.2517142" lon="13.513265"><ele>1280.3333333333333</ele><time>2026-05-03T10:43:36.025Z</time></trkpt><trkpt lat="42.2516031" lon="13.5134718"><ele>1275.0</ele><time>2026-05-03T10:43:37.02Z</time></trkpt><trkpt lat="42.2514869" lon="13.513665"><ele>1280.0</ele><time>2026-05-03T10:43:38.016Z</time></trkpt><trkpt lat="42.2513552" lon="13.5138429"><ele>1285.0</ele><time>2026-05-03T10:43:39.007Z</time></trkpt><trkpt lat="42.2512181" lon="13.5140183"><ele>1290.0</ele><time>2026-05-03T10:43:40.016Z</time></trkpt><trkpt lat="42.25108" lon="13.5141838"><ele>1290.0</ele><time>2026-05-03T10:43:41.018Z</time></trkpt><trkpt lat="42.2509503" lon="13.5143515"><ele>1290.0</ele><time>2026-05-03T10:43:42.032Z</time></trkpt><trkpt lat="42.2508223" lon="13.5145161"><ele>1290.0</ele><time>2026-05-03T10:43:43.012Z</time></trkpt><trkpt lat="42.2507024" lon="13.5146725"><ele>1291.6666666666667</ele><time>2026-05-03T10:43:44.01Z</time></trkpt><trkpt lat="42.2505813" lon="13.5148288"><ele>1293.3333333333335</ele><time>2026-05-03T10:43:45.008Z</time></trkpt><trkpt lat="42.2504723" lon="13.5149818"><ele>1295.0</ele><time>2026-05-03T10:43:46.021Z</time></trkpt><trkpt lat="42.2503806" lon="13.5151461"><ele>1295.0</ele><time>2026-05-03T10:43:46.992Z</time></trkpt><trkpt lat="42.2503131" lon="13.5153363"><ele>1295.0</ele><time>2026-05-03T10:43:48.023Z</time></trkpt><trkpt lat="42.2502759" lon="13.5155382"><ele>1295.0</ele><time>2026-05-03T10:43:49.02Z</time></trkpt><trkpt lat="42.2502635" lon="13.5157453"><ele>1294.75</ele><time>2026-05-03T10:43:50.015Z</time></trkpt><trkpt lat="42.2502541" lon="13.51595"><ele>1294.5</ele><time>2026-05-03T10:43:51.012Z</time></trkpt><trkpt lat="42.2502435" lon="13.5161442"><ele>1294.25</ele><time>2026-05-03T10:43:52.018Z</time></trkpt><trkpt lat="42.2502209" lon="13.5163264"><ele>1294.0</ele><time>2026-05-03T10:43:53.012Z</time></trkpt><trkpt lat="42.250194" lon="13.5165118"><ele>1294.75</ele><time>2026-05-03T10:43:54.015Z</time></trkpt><trkpt lat="42.2501587" lon="13.5166967"><ele>1295.5</ele><time>2026-05-03T10:43:55.02Z</time></trkpt><trkpt lat="42.2501008" lon="13.5168787"><ele>1296.25</ele><time>2026-05-03T10:43:56.02Z</time></trkpt><trkpt lat="42.2500334" lon="13.517058"><ele>1297.0</ele><time>2026-05-03T10:43:57.017Z</time></trkpt><trkpt lat="42.2499528" lon="13.5172288"><ele>1294.0</ele><time>2026-05-03T10:43:58.014Z</time></trkpt><trkpt lat="42.2498724" lon="13.5174119"><ele>1291.0</ele><time>2026-05-03T10:43:59.017Z</time></trkpt><trkpt lat="42.2497873" lon="13.5175921"><ele>1288.0</ele><time>2026-05-03T10:44:00.006Z</time></trkpt><trkpt lat="42.2496998" lon="13.5177798"><ele>1293.6666666666665</ele><time>2026-05-03T10:44:01.014Z</time></trkpt><trkpt lat="42.249614" lon="13.517969"><ele>1299.3333333333333</ele><time>2026-05-03T10:44:02.018Z</time></trkpt><trkpt lat="42.2495276" lon="13.5181582"><ele>1305.0</ele><time>2026-05-03T10:44:03.031Z</time></trkpt><trkpt lat="42.2494421" lon="13.5183521"><ele>1305.0</ele><time>2026-05-03T10:44:04.039Z</time></trkpt><trkpt lat="42.2493564" lon="13.5185477"><ele>1305.0</ele><time>2026-05-03T10:44:05.014Z</time></trkpt><trkpt lat="42.2492685" lon="13.5187477"><ele>1305.0</ele><time>2026-05-03T10:44:06.014Z</time></trkpt><trkpt lat="42.2491789" lon="13.5189488"><ele>1303.0</ele><time>2026-05-03T10:44:07.01Z</time></trkpt><trkpt lat="42.249096" lon="13.519143"><ele>1301.0</ele><time>2026-05-03T10:44:08.011Z</time></trkpt><trkpt lat="42.2490204" lon="13.5193309"><ele>1299.0</ele><time>2026-05-03T10:44:09.014Z</time></trkpt><trkpt lat="42.2489479" lon="13.5195118"><ele>1297.75</ele><time>2026-05-03T10:44:10.025Z</time></trkpt><trkpt lat="42.2488657" lon="13.519676"><ele>1296.5</ele><time>2026-05-03T10:44:11.021Z</time></trkpt><trkpt lat="42.248776" lon="13.5198277"><ele>1295.25</ele><time>2026-05-03T10:44:12.016Z</time></trkpt><trkpt lat="42.2486566" lon="13.5199547"><ele>1294.0</ele><time>2026-05-03T10:44:13.012Z</time></trkpt><trkpt lat="42.2485168" lon="13.5200689"><ele>1294.0</ele><time>2026-05-03T10:44:14.023Z</time></trkpt><trkpt lat="42.2483706" lon="13.5201532"><ele>1294.0</ele><time>2026-05-03T10:44:15.018Z</time></trkpt><trkpt lat="42.2482131" lon="13.5202305"><ele>1294.0</ele><time>2026-05-03T10:44:16.024Z</time></trkpt><trkpt lat="42.2480563" lon="13.5202888"><ele>1294.3333333333333</ele><time>2026-05-03T10:44:17.023Z</time></trkpt><trkpt lat="42.2478899" lon="13.520344"><ele>1294.6666666666667</ele><time>2026-05-03T10:44:18.026Z</time></trkpt><trkpt lat="42.247722" lon="13.520395"><ele>1295.0</ele><time>2026-05-03T10:44:19.01Z</time></trkpt><trkpt lat="42.2475469" lon="13.5204541"><ele>1295.3333333333335</ele><time>2026-05-03T10:44:20.031Z</time></trkpt><trkpt lat="42.2473689" lon="13.5205111"><ele>1295.6666666666667</ele><time>2026-05-03T10:44:21.011Z</time></trkpt><trkpt lat="42.2471802" lon="13.5205739"><ele>1296.0</ele><time>2026-05-03T10:44:22.012Z</time></trkpt><trkpt lat="42.2469869" lon="13.5206281"><ele>1296.0</ele><time>2026-05-03T10:44:23.013Z</time></trkpt><trkpt lat="42.2467997" lon="13.5206789"><ele>1296.0</ele><time>2026-05-03T10:44:24.02Z</time></trkpt><trkpt lat="42.2466171" lon="13.5207305"><ele>1296.0</ele><time>2026-05-03T10:44:25.016Z</time></trkpt><trkpt lat="42.2464375" lon="13.5207758"><ele>1297.6666666666667</ele><time>2026-05-03T10:44:26.01Z</time></trkpt><trkpt lat="42.2462601" lon="13.5208271"><ele>1299.3333333333335</ele><time>2026-05-03T10:44:27.02Z</time></trkpt><trkpt lat="42.2460779" lon="13.5208908"><ele>1301.0</ele><time>2026-05-03T10:44:28.007Z</time></trkpt><trkpt lat="42.2458896" lon="13.5209819"><ele>1301.0</ele><time>2026-05-03T10:44:29.021Z</time></trkpt><trkpt lat="42.2456885" lon="13.521113"><ele>1301.0</ele><time>2026-05-03T10:44:30.02Z</time></trkpt><trkpt lat="42.2454658" lon="13.5212752"><ele>1296.0</ele><time>2026-05-03T10:44:31.016Z</time></trkpt><trkpt lat="42.2452202" lon="13.5214415"><ele>1291.0</ele><time>2026-05-03T10:44:32.028Z</time></trkpt><trkpt lat="42.2449817" lon="13.5215878"><ele>1294.0</ele><time>2026-05-03T10:44:33.01Z</time></trkpt><trkpt lat="42.2447661" lon="13.521729"><ele>1297.0</ele><time>2026-05-03T10:44:34.019Z</time></trkpt><trkpt lat="42.2445539" lon="13.5218835"><ele>1294.5</ele><time>2026-05-03T10:44:35.017Z</time></trkpt><trkpt lat="42.2443454" lon="13.5220702"><ele>1292.0</ele><time>2026-05-03T10:44:36.015Z</time></trkpt><trkpt lat="42.2441343" lon="13.5222844"><ele>1295.0</ele><time>2026-05-03T10:44:37.026Z</time></trkpt><trkpt lat="42.2439306" lon="13.5225226"><ele>1298.0</ele><time>2026-05-03T10:44:38.015Z</time></trkpt><trkpt lat="42.2437367" lon="13.5227844"><ele>1294.5</ele><time>2026-05-03T10:44:39.018Z</time></trkpt><trkpt lat="42.2435578" lon="13.5230407"><ele>1291.0</ele><time>2026-05-03T10:44:40.015Z</time></trkpt><trkpt lat="42.2434034" lon="13.5232824"><ele>1291.0</ele><time>2026-05-03T10:44:41.014Z</time></trkpt><trkpt lat="42.2432464" lon="13.5235211"><ele>1291.0</ele><time>2026-05-03T10:44:42.019Z</time></trkpt><trkpt lat="42.2430966" lon="13.5237704"><ele>1293.3333333333333</ele><time>2026-05-03T10:44:43.019Z</time></trkpt><trkpt lat="42.2429571" lon="13.5240015"><ele>1295.6666666666667</ele><time>2026-05-03T10:44:44.016Z</time></trkpt><trkpt lat="42.2428316" lon="13.5242"><ele>1298.0</ele><time>2026-05-03T10:44:45.054Z</time></trkpt><trkpt lat="42.2427142" lon="13.5243627"><ele>1298.0</ele><time>2026-05-03T10:44:46.016Z</time></trkpt><trkpt lat="42.2425896" lon="13.5244993"><ele>1298.0</ele><time>2026-05-03T10:44:47.014Z</time></trkpt><trkpt lat="42.2424344" lon="13.5245786"><ele>1298.0</ele><time>2026-05-03T10:44:48.021Z</time></trkpt><trkpt lat="42.242254" lon="13.5246174"><ele>1297.6666666666667</ele><time>2026-05-03T10:44:49.02Z</time></trkpt><trkpt lat="42.242042" lon="13.5246331"><ele>1297.3333333333333</ele><time>2026-05-03T10:44:50.02Z</time></trkpt><trkpt lat="42.2418113" lon="13.5246484"><ele>1297.0</ele><time>2026-05-03T10:44:51.009Z</time></trkpt><trkpt lat="42.2415829" lon="13.5246747"><ele>1296.6666666666665</ele><time>2026-05-03T10:44:52.014Z</time></trkpt><trkpt lat="42.2413651" lon="13.5247006"><ele>1296.3333333333333</ele><time>2026-05-03T10:44:53.016Z</time></trkpt><trkpt lat="42.241166" lon="13.5247192"><ele>1296.0</ele><time>2026-05-03T10:44:54.042Z</time></trkpt><trkpt lat="42.2409722" lon="13.5247355"><ele>1296.0</ele><time>2026-05-03T10:44:55.019Z</time></trkpt><trkpt lat="42.2407917" lon="13.5247711"><ele>1296.0</ele><time>2026-05-03T10:44:56.014Z</time></trkpt><trkpt lat="42.240628" lon="13.524845"><ele>1296.0</ele><time>2026-05-03T10:44:57.018Z</time></trkpt><trkpt lat="42.2404763" lon="13.524967"><ele>1296.3333333333333</ele><time>2026-05-03T10:44:58.012Z</time></trkpt><trkpt lat="42.2403482" lon="13.5251357"><ele>1296.6666666666665</ele><time>2026-05-03T10:44:59.001Z</time></trkpt><trkpt lat="42.240236" lon="13.5253664"><ele>1297.0</ele><time>2026-05-03T10:45:00.018Z</time></trkpt><trkpt lat="42.2401338" lon="13.5256155"><ele>1297.0</ele><time>2026-05-03T10:45:01.019Z</time></trkpt><trkpt lat="42.2400215" lon="13.5258754"><ele>1297.0</ele><time>2026-05-03T10:45:02.023Z</time></trkpt><trkpt lat="42.2399033" lon="13.5261178"><ele>1297.0</ele><time>2026-05-03T10:45:03.012Z</time></trkpt><trkpt lat="42.2397661" lon="13.5263484"><ele>1298.3333333333333</ele><time>2026-05-03T10:45:04.028Z</time></trkpt><trkpt lat="42.2396239" lon="13.5265547"><ele>1299.6666666666667</ele><time>2026-05-03T10:45:05.019Z</time></trkpt><trkpt lat="42.2394771" lon="13.5267497"><ele>1301.0</ele><time>2026-05-03T10:45:06.024Z</time></trkpt><trkpt lat="42.239324" lon="13.5269318"><ele>1299.6666666666667</ele><time>2026-05-03T10:45:07.013Z</time></trkpt><trkpt lat="42.239174" lon="13.5270918"><ele>1298.3333333333333</ele><time>2026-05-03T10:45:08.012Z</time></trkpt><trkpt lat="42.2390269" lon="13.5272439"><ele>1297.0</ele><time>2026-05-03T10:45:09.007Z</time></trkpt><trkpt lat="42.238876" lon="13.5273891"><ele>1296.3333333333333</ele><time>2026-05-03T10:45:10.016Z</time></trkpt><trkpt lat="42.2387331" lon="13.5275307"><ele>1295.6666666666667</ele><time>2026-05-03T10:45:11.005Z</time></trkpt><trkpt lat="42.2385908" lon="13.5276724"><ele>1295.0</ele><time>2026-05-03T10:45:12.02Z</time></trkpt><trkpt lat="42.2384529" lon="13.5278192"><ele>1296.0</ele><time>2026-05-03T10:45:13.009Z</time></trkpt><trkpt lat="42.2383235" lon="13.527957"><ele>1297.0</ele><time>2026-05-03T10:45:14.01Z</time></trkpt><trkpt lat="42.2381899" lon="13.5281002"><ele>1298.0</ele><time>2026-05-03T10:45:15.019Z</time></trkpt><trkpt lat="42.2380596" lon="13.5282512"><ele>1295.0</ele><time>2026-05-03T10:45:16.019Z</time></trkpt><trkpt lat="42.237936" lon="13.5284107"><ele>1292.0</ele><time>2026-05-03T10:45:17.012Z</time></trkpt><trkpt lat="42.2378133" lon="13.5285747"><ele>1289.0</ele><time>2026-05-03T10:45:18.02Z</time></trkpt><trkpt lat="42.2376941" lon="13.5287532"><ele>1289.0</ele><time>2026-05-03T10:45:18.997Z</time></trkpt><trkpt lat="42.2375714" lon="13.5289343"><ele>1289.0</ele><time>2026-05-03T10:45:20.037Z</time></trkpt><trkpt lat="42.2374429" lon="13.5291157"><ele>1289.0</ele><time>2026-05-03T10:45:21.02Z</time></trkpt><trkpt lat="42.2373105" lon="13.5293017"><ele>1287.0</ele><time>2026-05-03T10:45:22.014Z</time></trkpt><trkpt lat="42.2371778" lon="13.5294908"><ele>1285.0</ele><time>2026-05-03T10:45:23.011Z</time></trkpt><trkpt lat="42.2370417" lon="13.5296811"><ele>1283.0</ele><time>2026-05-03T10:45:24.011Z</time></trkpt><trkpt lat="42.2369039" lon="13.5298746"><ele>1283.0</ele><time>2026-05-03T10:45:25.015Z</time></trkpt><trkpt lat="42.2367657" lon="13.5300704"><ele>1283.0</ele><time>2026-05-03T10:45:26.025Z</time></trkpt><trkpt lat="42.2366288" lon="13.530272"><ele>1283.0</ele><time>2026-05-03T10:45:27.028Z</time></trkpt><trkpt lat="42.2364992" lon="13.5304817"><ele>1280.3333333333335</ele><time>2026-05-03T10:45:28.024Z</time></trkpt><trkpt lat="42.2363803" lon="13.5306953"><ele>1277.6666666666667</ele><time>2026-05-03T10:45:29.006Z</time></trkpt><trkpt lat="42.2362673" lon="13.5309023"><ele>1275.0</ele><time>2026-05-03T10:45:30.014Z</time></trkpt><trkpt lat="42.2361589" lon="13.5311072"><ele>1276.6666666666667</ele><time>2026-05-03T10:45:31.016Z</time></trkpt><trkpt lat="42.2360517" lon="13.5313111"><ele>1278.3333333333335</ele><time>2026-05-03T10:45:32.007Z</time></trkpt><trkpt lat="42.2359505" lon="13.5315018"><ele>1280.0</ele><time>2026-05-03T10:45:33.013Z</time></trkpt><trkpt lat="42.2358523" lon="13.5316835"><ele>1280.0</ele><time>2026-05-03T10:45:34.017Z</time></trkpt><trkpt lat="42.2357583" lon="13.5318688"><ele>1280.0</ele><time>2026-05-03T10:45:35.017Z</time></trkpt><trkpt lat="42.2356704" lon="13.5320553"><ele>1280.0</ele><time>2026-05-03T10:45:36.016Z</time></trkpt><trkpt lat="42.2355832" lon="13.5322404"><ele>1277.3333333333335</ele><time>2026-05-03T10:45:37.016Z</time></trkpt><trkpt lat="42.2355014" lon="13.5324278"><ele>1274.6666666666667</ele><time>2026-05-03T10:45:38.003Z</time></trkpt><trkpt lat="42.2354288" lon="13.5326205"><ele>1272.0</ele><time>2026-05-03T10:45:39.009Z</time></trkpt><trkpt lat="42.235359" lon="13.5328137"><ele>1272.75</ele><time>2026-05-03T10:45:40.012Z</time></trkpt><trkpt lat="42.2352962" lon="13.533007"><ele>1273.5</ele><time>2026-05-03T10:45:41.015Z</time></trkpt><trkpt lat="42.2352414" lon="13.533196"><ele>1274.25</ele><time>2026-05-03T10:45:42.021Z</time></trkpt><trkpt lat="42.2351869" lon="13.5333743"><ele>1275.0</ele><time>2026-05-03T10:45:43.013Z</time></trkpt><trkpt lat="42.235136" lon="13.5335375"><ele>1275.0</ele><time>2026-05-03T10:45:44.009Z</time></trkpt><trkpt lat="42.235087" lon="13.5336919"><ele>1275.0</ele><time>2026-05-03T10:45:45.009Z</time></trkpt><trkpt lat="42.2350428" lon="13.533841"><ele>1275.0</ele><time>2026-05-03T10:45:46.013Z</time></trkpt><trkpt lat="42.2349993" lon="13.533985"><ele>1275.0</ele><time>2026-05-03T10:45:47.001Z</time></trkpt><trkpt lat="42.234962" lon="13.5341193"><ele>1275.6</ele><time>2026-05-03T10:45:48.017Z</time></trkpt><trkpt lat="42.2349256" lon="13.5342491"><ele>1276.2</ele><time>2026-05-03T10:45:49.005Z</time></trkpt><trkpt lat="42.2348859" lon="13.5343637"><ele>1276.8</ele><time>2026-05-03T10:45:50.017Z</time></trkpt><trkpt lat="42.2348415" lon="13.5344679"><ele>1277.4</ele><time>2026-05-03T10:45:51.013Z</time></trkpt><trkpt lat="42.2347814" lon="13.5345525"><ele>1278.0</ele><time>2026-05-03T10:45:52.001Z</time></trkpt><trkpt lat="42.2347057" lon="13.5346139"><ele>1276.5</ele><time>2026-05-03T10:45:53.005Z</time></trkpt><trkpt lat="42.2346114" lon="13.5346598"><ele>1275.0</ele><time>2026-05-03T10:45:54.012Z</time></trkpt><trkpt lat="42.2344973" lon="13.534702"><ele>1273.5</ele><time>2026-05-03T10:45:55.011Z</time></trkpt><trkpt lat="42.2343717" lon="13.5347419"><ele>1272.0</ele><time>2026-05-03T10:45:56.004Z</time></trkpt><trkpt lat="42.2342426" lon="13.5347946"><ele>1272.0</ele><time>2026-05-03T10:45:57.01Z</time></trkpt><trkpt lat="42.2341141" lon="13.5348377"><ele>1272.0</ele><time>2026-05-03T10:45:58.019Z</time></trkpt><trkpt lat="42.2339776" lon="13.534868"><ele>1272.0</ele><time>2026-05-03T10:45:59.015Z</time></trkpt><trkpt lat="42.2338347" lon="13.5348808"><ele>1272.0</ele><time>2026-05-03T10:46:00.013Z</time></trkpt><trkpt lat="42.2336984" lon="13.5348796"><ele>1272.25</ele><time>2026-05-03T10:46:01.005Z</time></trkpt><trkpt lat="42.2335609" lon="13.5348603"><ele>1272.5</ele><time>2026-05-03T10:46:02.014Z</time></trkpt><trkpt lat="42.2334197" lon="13.5348247"><ele>1272.75</ele><time>2026-05-03T10:46:03.013Z</time></trkpt><trkpt lat="42.2332795" lon="13.5347779"><ele>1273.0</ele><time>2026-05-03T10:46:04.006Z</time></trkpt><trkpt lat="42.2331426" lon="13.5347103"><ele>1273.5</ele><time>2026-05-03T10:46:05.011Z</time></trkpt><trkpt lat="42.233016" lon="13.5346258"><ele>1274.0</ele><time>2026-05-03T10:46:06.009Z</time></trkpt><trkpt lat="42.2328906" lon="13.5345411"><ele>1274.5</ele><time>2026-05-03T10:46:07.012Z</time></trkpt><trkpt lat="42.23276" lon="13.5344627"><ele>1275.0</ele><time>2026-05-03T10:46:08.009Z</time></trkpt><trkpt lat="42.2326156" lon="13.5343905"><ele>1275.0</ele><time>2026-05-03T10:46:09.013Z</time></trkpt><trkpt lat="42.2324568" lon="13.5343307"><ele>1275.0</ele><time>2026-05-03T10:46:10.013Z</time></trkpt><trkpt lat="42.2322873" lon="13.5342822"><ele>1275.0</ele><time>2026-05-03T10:46:11.007Z</time></trkpt><trkpt lat="42.2321086" lon="13.5342433"><ele>1274.3333333333333</ele><time>2026-05-03T10:46:12.011Z</time></trkpt><trkpt lat="42.2319214" lon="13.5341995"><ele>1273.6666666666665</ele><time>2026-05-03T10:46:13.022Z</time></trkpt><trkpt lat="42.2317301" lon="13.5341488"><ele>1273.0</ele><time>2026-05-03T10:46:14.015Z</time></trkpt><trkpt lat="42.2315341" lon="13.5340908"><ele>1272.3333333333333</ele><time>2026-05-03T10:46:15.001Z</time></trkpt><trkpt lat="42.231333" lon="13.5340386"><ele>1271.6666666666667</ele><time>2026-05-03T10:46:16.005Z</time></trkpt><trkpt lat="42.2311247" lon="13.5339891"><ele>1271.0</ele><time>2026-05-03T10:46:17.003Z</time></trkpt><trkpt lat="42.2309064" lon="13.5339342"><ele>1271.0</ele><time>2026-05-03T10:46:18.008Z</time></trkpt><trkpt lat="42.2306832" lon="13.5338757"><ele>1271.0</ele><time>2026-05-03T10:46:19.013Z</time></trkpt><trkpt lat="42.2304553" lon="13.5338212"><ele>1268.5</ele><time>2026-05-03T10:46:20.009Z</time></trkpt><trkpt lat="42.2302151" lon="13.53376"><ele>1266.0</ele><time>2026-05-03T10:46:21.012Z</time></trkpt><trkpt lat="42.2299793" lon="13.5336958"><ele>1262.5</ele><time>2026-05-03T10:46:22.007Z</time></trkpt><trkpt lat="42.2297532" lon="13.5336235"><ele>1259.0</ele><time>2026-05-03T10:46:23.01Z</time></trkpt><trkpt lat="42.229536" lon="13.5335403"><ele>1259.0</ele><time>2026-05-03T10:46:24.013Z</time></trkpt><trkpt lat="42.2293322" lon="13.5334549"><ele>1259.0</ele><time>2026-05-03T10:46:25.013Z</time></trkpt><trkpt lat="42.2291352" lon="13.5333542"><ele>1259.0</ele><time>2026-05-03T10:46:26.016Z</time></trkpt><trkpt lat="42.2289484" lon="13.5332571"><ele>1258.3333333333335</ele><time>2026-05-03T10:46:27.014Z</time></trkpt><trkpt lat="42.2287651" lon="13.5331515"><ele>1257.6666666666667</ele><time>2026-05-03T10:46:28.032Z</time></trkpt><trkpt lat="42.2285845" lon="13.5330477"><ele>1257.0</ele><time>2026-05-03T10:46:29.004Z</time></trkpt><trkpt lat="42.2283951" lon="13.5329404"><ele>1257.6666666666667</ele><time>2026-05-03T10:46:30.016Z</time></trkpt><trkpt lat="42.2281982" lon="13.5328353"><ele>1258.3333333333335</ele><time>2026-05-03T10:46:31.014Z</time></trkpt><trkpt lat="42.2280049" lon="13.5327273"><ele>1259.0</ele><time>2026-05-03T10:46:32.027Z</time></trkpt><trkpt lat="42.2278186" lon="13.5326221"><ele>1259.0</ele><time>2026-05-03T10:46:33.001Z</time></trkpt><trkpt lat="42.2276419" lon="13.5325159"><ele>1259.0</ele><time>2026-05-03T10:46:34.013Z</time></trkpt><trkpt lat="42.2274666" lon="13.5324249"><ele>1259.0</ele><time>2026-05-03T10:46:35.012Z</time></trkpt><trkpt lat="42.2272868" lon="13.5323512"><ele>1260.0</ele><time>2026-05-03T10:46:36.01Z</time></trkpt><trkpt lat="42.2270995" lon="13.5323129"><ele>1261.0</ele><time>2026-05-03T10:46:37.014Z</time></trkpt><trkpt lat="42.2269012" lon="13.5323135"><ele>1262.0</ele><time>2026-05-03T10:46:38.017Z</time></trkpt><trkpt lat="42.2266962" lon="13.5323462"><ele>1262.0</ele><time>2026-05-03T10:46:39.015Z</time></trkpt><trkpt lat="42.2264875" lon="13.5323854"><ele>1262.0</ele><time>2026-05-03T10:46:40.01Z</time></trkpt><trkpt lat="42.2262667" lon="13.532429"><ele>1262.0</ele><time>2026-05-03T10:46:41.018Z</time></trkpt><trkpt lat="42.2260408" lon="13.5324782"><ele>1262.5</ele><time>2026-05-03T10:46:42.028Z</time></trkpt><trkpt lat="42.2258117" lon="13.5325268"><ele>1263.0</ele><time>2026-05-03T10:46:43.009Z</time></trkpt><trkpt lat="42.2255778" lon="13.532579"><ele>1261.0</ele><time>2026-05-03T10:46:44.027Z</time></trkpt><trkpt lat="42.2253472" lon="13.5326235"><ele>1259.0</ele><time>2026-05-03T10:46:45.008Z</time></trkpt><trkpt lat="42.2251284" lon="13.53267"><ele>1259.0</ele><time>2026-05-03T10:46:46.015Z</time></trkpt><trkpt lat="42.2249192" lon="13.5327135"><ele>1259.0</ele><time>2026-05-03T10:46:47.015Z</time></trkpt><trkpt lat="42.2247163" lon="13.5327546"><ele>1259.0</ele><time>2026-05-03T10:46:48.013Z</time></trkpt><trkpt lat="42.2245135" lon="13.5328002"><ele>1259.6666666666667</ele><time>2026-05-03T10:46:49.002Z</time></trkpt><trkpt lat="42.2243096" lon="13.5328436"><ele>1260.3333333333333</ele><time>2026-05-03T10:46:50.019Z</time></trkpt><trkpt lat="42.2241059" lon="13.5328858"><ele>1261.0</ele><time>2026-05-03T10:46:51.016Z</time></trkpt><trkpt lat="42.2239004" lon="13.5329292"><ele>1261.3333333333333</ele><time>2026-05-03T10:46:52.014Z</time></trkpt><trkpt lat="42.223698" lon="13.5329736"><ele>1261.6666666666667</ele><time>2026-05-03T10:46:53.013Z</time></trkpt><trkpt lat="42.2234987" lon="13.5330231"><ele>1262.0</ele><time>2026-05-03T10:46:54.007Z</time></trkpt><trkpt lat="42.2233023" lon="13.5330852"><ele>1262.3333333333335</ele><time>2026-05-03T10:46:55.003Z</time></trkpt><trkpt lat="42.2231173" lon="13.5331704"><ele>1262.6666666666667</ele><time>2026-05-03T10:46:56.022Z</time></trkpt><trkpt lat="42.2229443" lon="13.533268"><ele>1263.0</ele><time>2026-05-03T10:46:57.012Z</time></trkpt><trkpt lat="42.2227805" lon="13.5333662"><ele>1263.0</ele><time>2026-05-03T10:46:58.031Z</time></trkpt><trkpt lat="42.222619" lon="13.5334557"><ele>1263.0</ele><time>2026-05-03T10:46:59.011Z</time></trkpt><trkpt lat="42.2224589" lon="13.533517"><ele>1263.0</ele><time>2026-05-03T10:47:00.026Z</time></trkpt><trkpt lat="42.222296" lon="13.5335227"><ele>1263.6666666666667</ele><time>2026-05-03T10:47:01.015Z</time></trkpt><trkpt lat="42.2221297" lon="13.5334784"><ele>1264.3333333333335</ele><time>2026-05-03T10:47:02.009Z</time></trkpt><trkpt lat="42.2219656" lon="13.5333841"><ele>1265.0</ele><time>2026-05-03T10:47:03.024Z</time></trkpt><trkpt lat="42.2218035" lon="13.5332691"><ele>1265.0</ele><time>2026-05-03T10:47:04.012Z</time></trkpt><trkpt lat="42.2216516" lon="13.5331247"><ele>1265.0</ele><time>2026-05-03T10:47:05.027Z</time></trkpt><trkpt lat="42.2215069" lon="13.5329814"><ele>1265.0</ele><time>2026-05-03T10:47:06.011Z</time></trkpt><trkpt lat="42.2213483" lon="13.5328325"><ele>1264.3333333333335</ele><time>2026-05-03T10:47:07.007Z</time></trkpt><trkpt lat="42.2211833" lon="13.5326905"><ele>1263.6666666666667</ele><time>2026-05-03T10:47:08.01Z</time></trkpt><trkpt lat="42.2210119" lon="13.532554"><ele>1263.0</ele><time>2026-05-03T10:47:09.014Z</time></trkpt><trkpt lat="42.2208431" lon="13.5324314"><ele>1263.0</ele><time>2026-05-03T10:47:10.014Z</time></trkpt><trkpt lat="42.2206718" lon="13.5323165"><ele>1263.0</ele><time>2026-05-03T10:47:11.009Z</time></trkpt><trkpt lat="42.2205019" lon="13.5322134"><ele>1263.0</ele><time>2026-05-03T10:47:12.029Z</time></trkpt><trkpt lat="42.2203257" lon="13.5321264"><ele>1262.3333333333333</ele><time>2026-05-03T10:47:13.02Z</time></trkpt><trkpt lat="42.2201489" lon="13.532045"><ele>1261.6666666666665</ele><time>2026-05-03T10:47:14.028Z</time></trkpt><trkpt lat="42.2199731" lon="13.5319614"><ele>1261.0</ele><time>2026-05-03T10:47:15.014Z</time></trkpt><trkpt lat="42.2197902" lon="13.531872"><ele>1261.0</ele><time>2026-05-03T10:47:16.011Z</time></trkpt><trkpt lat="42.2196029" lon="13.5317788"><ele>1261.0</ele><time>2026-05-03T10:47:17.01Z</time></trkpt><trkpt lat="42.2194121" lon="13.5316794"><ele>1261.0</ele><time>2026-05-03T10:47:18.012Z</time></trkpt><trkpt lat="42.2192232" lon="13.5315867"><ele>1261.0</ele><time>2026-05-03T10:47:19.019Z</time></trkpt><trkpt lat="42.2190395" lon="13.5314981"><ele>1261.0</ele><time>2026-05-03T10:47:20.021Z</time></trkpt><trkpt lat="42.2188548" lon="13.5314059"><ele>1261.0</ele><time>2026-05-03T10:47:21.034Z</time></trkpt><trkpt lat="42.2186713" lon="13.5313093"><ele>1261.6666666666665</ele><time>2026-05-03T10:47:22.026Z</time></trkpt><trkpt lat="42.2184895" lon="13.5312112"><ele>1262.3333333333333</ele><time>2026-05-03T10:47:23.031Z</time></trkpt><trkpt lat="42.2183084" lon="13.5311194"><ele>1263.0</ele><time>2026-05-03T10:47:24.017Z</time></trkpt><trkpt lat="42.2181231" lon="13.5310272"><ele>1263.3333333333333</ele><time>2026-05-03T10:47:25.019Z</time></trkpt><trkpt lat="42.2179377" lon="13.5309326"><ele>1263.6666666666665</ele><time>2026-05-03T10:47:26.015Z</time></trkpt><trkpt lat="42.217755" lon="13.5308383"><ele>1264.0</ele><time>2026-05-03T10:47:27.005Z</time></trkpt><trkpt lat="42.217571" lon="13.5307379"><ele>1264.0</ele><time>2026-05-03T10:47:28.02Z</time></trkpt><trkpt lat="42.2173884" lon="13.5306377"><ele>1264.0</ele><time>2026-05-03T10:47:29.016Z</time></trkpt><trkpt lat="42.2172066" lon="13.5305328"><ele>1264.0</ele><time>2026-05-03T10:47:30.021Z</time></trkpt><trkpt lat="42.2170235" lon="13.5304201"><ele>1263.6666666666665</ele><time>2026-05-03T10:47:31.027Z</time></trkpt><trkpt lat="42.2168453" lon="13.5302994"><ele>1263.3333333333333</ele><time>2026-05-03T10:47:32.01Z</time></trkpt><trkpt lat="42.2166683" lon="13.5301778"><ele>1263.0</ele><time>2026-05-03T10:47:33.021Z</time></trkpt><trkpt lat="42.2164889" lon="13.530058"><ele>1263.6666666666667</ele><time>2026-05-03T10:47:34.022Z</time></trkpt><trkpt lat="42.2163109" lon="13.5299368"><ele>1264.3333333333335</ele><time>2026-05-03T10:47:35.008Z</time></trkpt><trkpt lat="42.2161353" lon="13.5298199"><ele>1265.0</ele><time>2026-05-03T10:47:36.03Z</time></trkpt><trkpt lat="42.215967" lon="13.5297057"><ele>1265.0</ele><time>2026-05-03T10:47:37.019Z</time></trkpt><trkpt lat="42.2158094" lon="13.5295915"><ele>1265.0</ele><time>2026-05-03T10:47:38.019Z</time></trkpt><trkpt lat="42.2156598" lon="13.5294861"><ele>1265.0</ele><time>2026-05-03T10:47:39.023Z</time></trkpt><trkpt lat="42.2155123" lon="13.5293765"><ele>1265.6666666666667</ele><time>2026-05-03T10:47:40.016Z</time></trkpt><trkpt lat="42.2153714" lon="13.5292668"><ele>1266.3333333333333</ele><time>2026-05-03T10:47:41.021Z</time></trkpt><trkpt lat="42.2152399" lon="13.5291508"><ele>1267.0</ele><time>2026-05-03T10:47:42.038Z</time></trkpt><trkpt lat="42.2151129" lon="13.5290311"><ele>1267.0</ele><time>2026-05-03T10:47:43.028Z</time></trkpt><trkpt lat="42.2149933" lon="13.5289054"><ele>1267.0</ele><time>2026-05-03T10:47:44.021Z</time></trkpt><trkpt lat="42.2148724" lon="13.5287833"><ele>1267.0</ele><time>2026-05-03T10:47:45.012Z</time></trkpt><trkpt lat="42.2147519" lon="13.5286568"><ele>1267.25</ele><time>2026-05-03T10:47:46.011Z</time></trkpt><trkpt lat="42.2146321" lon="13.5285276"><ele>1267.5</ele><time>2026-05-03T10:47:47.02Z</time></trkpt><trkpt lat="42.2145183" lon="13.5284057"><ele>1267.75</ele><time>2026-05-03T10:47:48.017Z</time></trkpt><trkpt lat="42.214406" lon="13.5282871"><ele>1268.0</ele><time>2026-05-03T10:47:49.016Z</time></trkpt><trkpt lat="42.2142959" lon="13.5281767"><ele>1268.0</ele><time>2026-05-03T10:47:50.014Z</time></trkpt><trkpt lat="42.2141916" lon="13.5280601"><ele>1268.0</ele><time>2026-05-03T10:47:51.012Z</time></trkpt><trkpt lat="42.2140936" lon="13.5279426"><ele>1268.0</ele><time>2026-05-03T10:47:52.021Z</time></trkpt><trkpt lat="42.2140143" lon="13.5278148"><ele>1268.0</ele><time>2026-05-03T10:47:53.008Z</time></trkpt><trkpt lat="42.213952" lon="13.5276736"><ele>1267.75</ele><time>2026-05-03T10:47:54.03Z</time></trkpt><trkpt lat="42.2139053" lon="13.5275228"><ele>1267.5</ele><time>2026-05-03T10:47:55.016Z</time></trkpt><trkpt lat="42.2138714" lon="13.5273656"><ele>1267.25</ele><time>2026-05-03T10:47:56.014Z</time></trkpt><trkpt lat="42.2138476" lon="13.5272155"><ele>1267.0</ele><time>2026-05-03T10:47:57.013Z</time></trkpt><trkpt lat="42.213831" lon="13.5270815"><ele>1267.5</ele><time>2026-05-03T10:47:58.017Z</time></trkpt><trkpt lat="42.2138177" lon="13.5269689"><ele>1268.0</ele><time>2026-05-03T10:47:59.007Z</time></trkpt><trkpt lat="42.2138072" lon="13.5268834"><ele>1268.5</ele><time>2026-05-03T10:48:00.015Z</time></trkpt><trkpt lat="42.2137985" lon="13.5267907"><ele>1269.0</ele><time>2026-05-03T10:48:02.011Z</time></trkpt><trkpt lat="42.2137837" lon="13.5266679"><ele>1269.5</ele><time>2026-05-03T10:48:34.006Z</time></trkpt><trkpt lat="42.2137495" lon="13.5264979"><ele>1270.0</ele><time>2026-05-03T10:48:36.037Z</time></trkpt><trkpt lat="42.2137289" lon="13.5263739"><ele>1270.75</ele><time>2026-05-03T10:48:37.001Z</time></trkpt><trkpt lat="42.2137037" lon="13.5262245"><ele>1271.5</ele><time>2026-05-03T10:48:38.009Z</time></trkpt><trkpt lat="42.2136712" lon="13.5260599"><ele>1272.25</ele><time>2026-05-03T10:48:39.022Z</time></trkpt><trkpt lat="42.2136293" lon="13.5258968"><ele>1273.0</ele><time>2026-05-03T10:48:40.01Z</time></trkpt><trkpt lat="42.2135754" lon="13.5257222"><ele>1273.0</ele><time>2026-05-03T10:48:41.036Z</time></trkpt><trkpt lat="42.2135088" lon="13.5255423"><ele>1273.0</ele><time>2026-05-03T10:48:42.032Z</time></trkpt><trkpt lat="42.2134309" lon="13.5253596"><ele>1273.0</ele><time>2026-05-03T10:48:43.007Z</time></trkpt><trkpt lat="42.2133412" lon="13.5251783"><ele>1272.0</ele><time>2026-05-03T10:48:44.031Z</time></trkpt><trkpt lat="42.2132375" lon="13.5250051"><ele>1271.0</ele><time>2026-05-03T10:48:45.009Z</time></trkpt><trkpt lat="42.2131285" lon="13.5248279"><ele>1270.0</ele><time>2026-05-03T10:48:46.008Z</time></trkpt><trkpt lat="42.2130205" lon="13.52465"><ele>1271.0</ele><time>2026-05-03T10:48:47.007Z</time></trkpt><trkpt lat="42.212919" lon="13.5244718"><ele>1272.0</ele><time>2026-05-03T10:48:48.021Z</time></trkpt><trkpt lat="42.2128239" lon="13.5243074"><ele>1273.0</ele><time>2026-05-03T10:48:49.011Z</time></trkpt><trkpt lat="42.2127259" lon="13.5241422"><ele>1273.0</ele><time>2026-05-03T10:48:50.006Z</time></trkpt><trkpt lat="42.2126256" lon="13.523981"><ele>1273.0</ele><time>2026-05-03T10:48:51.007Z</time></trkpt><trkpt lat="42.2125273" lon="13.5238199"><ele>1273.0</ele><time>2026-05-03T10:48:52.013Z</time></trkpt><trkpt lat="42.2124319" lon="13.5236586"><ele>1273.0</ele><time>2026-05-03T10:48:53.008Z</time></trkpt><trkpt lat="42.2123381" lon="13.5235009"><ele>1273.0</ele><time>2026-05-03T10:48:54.027Z</time></trkpt><trkpt lat="42.2122451" lon="13.5233482"><ele>1273.0</ele><time>2026-05-03T10:48:55.016Z</time></trkpt><trkpt lat="42.2121563" lon="13.5231944"><ele>1273.0</ele><time>2026-05-03T10:48:56.014Z</time></trkpt><trkpt lat="42.2120728" lon="13.5230304"><ele>1273.0</ele><time>2026-05-03T10:48:57.01Z</time></trkpt><trkpt lat="42.2119897" lon="13.5228506"><ele>1273.0</ele><time>2026-05-03T10:48:58.009Z</time></trkpt><trkpt lat="42.2119116" lon="13.5226599"><ele>1273.0</ele><time>2026-05-03T10:48:59.003Z</time></trkpt><trkpt lat="42.2118399" lon="13.5224545"><ele>1273.0</ele><time>2026-05-03T10:49:00.007Z</time></trkpt><trkpt lat="42.2117791" lon="13.5222428"><ele>1273.0</ele><time>2026-05-03T10:49:01.008Z</time></trkpt><trkpt lat="42.2117252" lon="13.5220259"><ele>1273.0</ele><time>2026-05-03T10:49:02.018Z</time></trkpt><trkpt lat="42.2116762" lon="13.5218072"><ele>1271.6666666666665</ele><time>2026-05-03T10:49:03.008Z</time></trkpt><trkpt lat="42.2116261" lon="13.5215806"><ele>1270.3333333333333</ele><time>2026-05-03T10:49:04.006Z</time></trkpt><trkpt lat="42.2115778" lon="13.5213545"><ele>1269.0</ele><time>2026-05-03T10:49:05.007Z</time></trkpt><trkpt lat="42.2115267" lon="13.5211254"><ele>1269.3333333333333</ele><time>2026-05-03T10:49:06.005Z</time></trkpt><trkpt lat="42.2114784" lon="13.5208976"><ele>1269.6666666666665</ele><time>2026-05-03T10:49:07.014Z</time></trkpt><trkpt lat="42.2114249" lon="13.5206647"><ele>1270.0</ele><time>2026-05-03T10:49:08.008Z</time></trkpt><trkpt lat="42.2113743" lon="13.5204289"><ele>1270.3333333333333</ele><time>2026-05-03T10:49:09.017Z</time></trkpt><trkpt lat="42.2113242" lon="13.5201947"><ele>1270.6666666666667</ele><time>2026-05-03T10:49:10.017Z</time></trkpt><trkpt lat="42.2112723" lon="13.5199567"><ele>1271.0</ele><time>2026-05-03T10:49:11.012Z</time></trkpt><trkpt lat="42.2112211" lon="13.5197244"><ele>1272.0</ele><time>2026-05-03T10:49:12.014Z</time></trkpt><trkpt lat="42.2111725" lon="13.5195032"><ele>1273.0</ele><time>2026-05-03T10:49:13.012Z</time></trkpt><trkpt lat="42.2111176" lon="13.5192953"><ele>1274.0</ele><time>2026-05-03T10:49:14.038Z</time></trkpt><trkpt lat="42.2110567" lon="13.5191012"><ele>1274.0</ele><time>2026-05-03T10:49:15.016Z</time></trkpt><trkpt lat="42.2109805" lon="13.5189254"><ele>1274.0</ele><time>2026-05-03T10:49:16.014Z</time></trkpt><trkpt lat="42.2108928" lon="13.5187687"><ele>1274.0</ele><time>2026-05-03T10:49:17.011Z</time></trkpt><trkpt lat="42.2107931" lon="13.5186226"><ele>1274.0</ele><time>2026-05-03T10:49:18.005Z</time></trkpt><trkpt lat="42.2106907" lon="13.5184919"><ele>1275.75</ele><time>2026-05-03T10:49:18.991Z</time></trkpt><trkpt lat="42.2105856" lon="13.5183708"><ele>1277.5</ele><time>2026-05-03T10:49:20.014Z</time></trkpt><trkpt lat="42.2104772" lon="13.5182638"><ele>1279.25</ele><time>2026-05-03T10:49:21.01Z</time></trkpt><trkpt lat="42.2103691" lon="13.518169"><ele>1281.0</ele><time>2026-05-03T10:49:22.016Z</time></trkpt><trkpt lat="42.2102653" lon="13.5180879"><ele>1281.0</ele><time>2026-05-03T10:49:23.01Z</time></trkpt><trkpt lat="42.2101771" lon="13.5180131"><ele>1281.0</ele><time>2026-05-03T10:49:24.012Z</time></trkpt><trkpt lat="42.2101111" lon="13.5179407"><ele>1281.0</ele><time>2026-05-03T10:49:25.007Z</time></trkpt><trkpt lat="42.2100684" lon="13.5178664"><ele>1281.0</ele><time>2026-05-03T10:49:26.009Z</time></trkpt><trkpt lat="42.210038" lon="13.5177907"><ele>1281.0</ele><time>2026-05-03T10:49:27.001Z</time></trkpt><trkpt lat="42.2099479" lon="13.5176884"><ele>1281.0</ele><time>2026-05-03T10:49:29.013Z</time></trkpt><trkpt lat="42.2098816" lon="13.5176884"><ele>1281.1666666666667</ele><time>2026-05-03T10:49:30.019Z</time></trkpt><trkpt lat="42.2098154" lon="13.5177105"><ele>1281.3333333333333</ele><time>2026-05-03T10:49:31.006Z</time></trkpt><trkpt lat="42.20975" lon="13.5177334"><ele>1281.5</ele><time>2026-05-03T10:49:32.009Z</time></trkpt><trkpt lat="42.2096781" lon="13.5177331"><ele>1281.6666666666665</ele><time>2026-05-03T10:49:33.005Z</time></trkpt><trkpt lat="42.209596" lon="13.5177236"><ele>1281.8333333333333</ele><time>2026-05-03T10:49:34.009Z</time></trkpt><trkpt lat="42.2095135" lon="13.5177207"><ele>1282.0</ele><time>2026-05-03T10:49:35.001Z</time></trkpt><trkpt lat="42.2094325" lon="13.5177299"><ele>1282.0</ele><time>2026-05-03T10:49:36.045Z</time></trkpt><trkpt lat="42.2093523" lon="13.517749"><ele>1282.0</ele><time>2026-05-03T10:49:37.006Z</time></trkpt><trkpt lat="42.209273" lon="13.5177667"><ele>1282.0</ele><time>2026-05-03T10:49:38.002Z</time></trkpt><trkpt lat="42.2091967" lon="13.5177865"><ele>1282.0</ele><time>2026-05-03T10:49:39.008Z</time></trkpt><trkpt lat="42.2091157" lon="13.5178037"><ele>1282.0</ele><time>2026-05-03T10:49:40.015Z</time></trkpt><trkpt lat="42.2090341" lon="13.517821"><ele>1282.0</ele><time>2026-05-03T10:49:41.008Z</time></trkpt><trkpt lat="42.2089468" lon="13.5178401"><ele>1281.8</ele><time>2026-05-03T10:49:42.028Z</time></trkpt><trkpt lat="42.2088508" lon="13.5178642"><ele>1281.6</ele><time>2026-05-03T10:49:43.008Z</time></trkpt><trkpt lat="42.2087551" lon="13.5178847"><ele>1281.3999999999999</ele><time>2026-05-03T10:49:44.016Z</time></trkpt><trkpt lat="42.2086602" lon="13.5179124"><ele>1281.1999999999998</ele><time>2026-05-03T10:49:45.011Z</time></trkpt><trkpt lat="42.2085668" lon="13.5179336"><ele>1281.0</ele><time>2026-05-03T10:49:46.017Z</time></trkpt><trkpt lat="42.2084739" lon="13.5179531"><ele>1280.6</ele><time>2026-05-03T10:49:47.007Z</time></trkpt><trkpt lat="42.2083793" lon="13.5179697"><ele>1280.1999999999998</ele><time>2026-05-03T10:49:48.022Z</time></trkpt><trkpt lat="42.2082843" lon="13.5179923"><ele>1279.8000000000002</ele><time>2026-05-03T10:49:49.016Z</time></trkpt><trkpt lat="42.2081925" lon="13.5180175"><ele>1279.4</ele><time>2026-05-03T10:49:50.014Z</time></trkpt><trkpt lat="42.2080984" lon="13.5180384"><ele>1279.0</ele><time>2026-05-03T10:49:51.009Z</time></trkpt><trkpt lat="42.208007" lon="13.5180641"><ele>1279.0</ele><time>2026-05-03T10:49:52.013Z</time></trkpt><trkpt lat="42.2079148" lon="13.5180858"><ele>1279.0</ele><time>2026-05-03T10:49:53.013Z</time></trkpt><trkpt lat="42.2078273" lon="13.5181106"><ele>1279.0</ele><time>2026-05-03T10:49:54.009Z</time></trkpt><trkpt lat="42.2077376" lon="13.5181278"><ele>1279.0</ele><time>2026-05-03T10:49:55.021Z</time></trkpt><trkpt lat="42.2076467" lon="13.518149"><ele>1279.0</ele><time>2026-05-03T10:49:56.018Z</time></trkpt><trkpt lat="42.2075585" lon="13.518163"><ele>1279.0</ele><time>2026-05-03T10:49:57.007Z</time></trkpt><trkpt lat="42.2074733" lon="13.518181"><ele>1279.0</ele><time>2026-05-03T10:49:58.008Z</time></trkpt><trkpt lat="42.2073882" lon="13.5181976"><ele>1279.0</ele><time>2026-05-03T10:49:59.008Z</time></trkpt><trkpt lat="42.2073026" lon="13.5182178"><ele>1279.0</ele><time>2026-05-03T10:50:00.014Z</time></trkpt><trkpt lat="42.207214" lon="13.5182336"><ele>1279.0</ele><time>2026-05-03T10:50:01.007Z</time></trkpt><trkpt lat="42.2071223" lon="13.5182581"><ele>1279.0</ele><time>2026-05-03T10:50:02.016Z</time></trkpt><trkpt lat="42.2070307" lon="13.518281"><ele>1279.4</ele><time>2026-05-03T10:50:03.021Z</time></trkpt><trkpt lat="42.2069375" lon="13.5182993"><ele>1279.8000000000002</ele><time>2026-05-03T10:50:04.002Z</time></trkpt><trkpt lat="42.2068482" lon="13.5183132"><ele>1280.1999999999998</ele><time>2026-05-03T10:50:05.008Z</time></trkpt><trkpt lat="42.2067518" lon="13.5183318"><ele>1280.6</ele><time>2026-05-03T10:50:06.01Z</time></trkpt><trkpt lat="42.2066609" lon="13.5183485"><ele>1281.0</ele><time>2026-05-03T10:50:07.025Z</time></trkpt><trkpt lat="42.2065641" lon="13.5183627"><ele>1281.1999999999998</ele><time>2026-05-03T10:50:08.011Z</time></trkpt><trkpt lat="42.2064679" lon="13.518375"><ele>1281.3999999999999</ele><time>2026-05-03T10:50:09.013Z</time></trkpt><trkpt lat="42.2063768" lon="13.5183938"><ele>1281.6</ele><time>2026-05-03T10:50:10.017Z</time></trkpt><trkpt lat="42.2062851" lon="13.518414"><ele>1281.8</ele><time>2026-05-03T10:50:11.015Z</time></trkpt><trkpt lat="42.2061899" lon="13.518432"><ele>1282.0</ele><time>2026-05-03T10:50:12.021Z</time></trkpt><trkpt lat="42.2060945" lon="13.5184574"><ele>1282.0</ele><time>2026-05-03T10:50:13.015Z</time></trkpt><trkpt lat="42.206" lon="13.5184847"><ele>1282.0</ele><time>2026-05-03T10:50:14.019Z</time></trkpt><trkpt lat="42.2059058" lon="13.5185057"><ele>1282.0</ele><time>2026-05-03T10:50:15.01Z</time></trkpt><trkpt lat="42.2058119" lon="13.5185272"><ele>1282.0</ele><time>2026-05-03T10:50:16.015Z</time></trkpt><trkpt lat="42.2057174" lon="13.5185488"><ele>1282.0</ele><time>2026-05-03T10:50:17.011Z</time></trkpt><trkpt lat="42.2056223" lon="13.5185732"><ele>1282.1999999999998</ele><time>2026-05-03T10:50:18.011Z</time></trkpt><trkpt lat="42.2055269" lon="13.5185939"><ele>1282.4</ele><time>2026-05-03T10:50:19.012Z</time></trkpt><trkpt lat="42.2054299" lon="13.5186102"><ele>1282.6</ele><time>2026-05-03T10:50:20.013Z</time></trkpt><trkpt lat="42.2053361" lon="13.5186317"><ele>1282.8000000000002</ele><time>2026-05-03T10:50:21.011Z</time></trkpt><trkpt lat="42.2052445" lon="13.518653"><ele>1283.0</ele><time>2026-05-03T10:50:22.01Z</time></trkpt><trkpt lat="42.2051509" lon="13.5186695"><ele>1283.0</ele><time>2026-05-03T10:50:23.008Z</time></trkpt><trkpt lat="42.2050563" lon="13.5186883"><ele>1283.0</ele><time>2026-05-03T10:50:24.007Z</time></trkpt><trkpt lat="42.2049603" lon="13.5187093"><ele>1283.0</ele><time>2026-05-03T10:50:25.046Z</time></trkpt><trkpt lat="42.2048658" lon="13.5187306"><ele>1283.0</ele><time>2026-05-03T10:50:26.01Z</time></trkpt><trkpt lat="42.2047668" lon="13.5187519"><ele>1283.0</ele><time>2026-05-03T10:50:27.009Z</time></trkpt><trkpt lat="42.2046663" lon="13.518774"><ele>1283.2</ele><time>2026-05-03T10:50:28.013Z</time></trkpt><trkpt lat="42.2045674" lon="13.5187997"><ele>1283.4</ele><time>2026-05-03T10:50:29.018Z</time></trkpt><trkpt lat="42.2044695" lon="13.5188226"><ele>1283.6000000000001</ele><time>2026-05-03T10:50:30.011Z</time></trkpt><trkpt lat="42.2043687" lon="13.5188425"><ele>1283.8000000000002</ele><time>2026-05-03T10:50:31.013Z</time></trkpt><trkpt lat="42.2042679" lon="13.5188622"><ele>1284.0</ele><time>2026-05-03T10:50:32.018Z</time></trkpt><trkpt lat="42.2041679" lon="13.518883"><ele>1284.0</ele><time>2026-05-03T10:50:33.007Z</time></trkpt><trkpt lat="42.2040665" lon="13.5188993"><ele>1284.0</ele><time>2026-05-03T10:50:34.021Z</time></trkpt><trkpt lat="42.2039634" lon="13.5189198"><ele>1284.0</ele><time>2026-05-03T10:50:35.02Z</time></trkpt><trkpt lat="42.2038635" lon="13.5189439"><ele>1284.0</ele><time>2026-05-03T10:50:36.017Z</time></trkpt><trkpt lat="42.2037634" lon="13.5189684"><ele>1284.0</ele><time>2026-05-03T10:50:37.017Z</time></trkpt><trkpt lat="42.203659" lon="13.5189954"><ele>1283.6</ele><time>2026-05-03T10:50:38.026Z</time></trkpt><trkpt lat="42.2035573" lon="13.5190207"><ele>1283.2</ele><time>2026-05-03T10:50:39.004Z</time></trkpt><trkpt lat="42.203453" lon="13.5190451"><ele>1282.8</ele><time>2026-05-03T10:50:40.017Z</time></trkpt><trkpt lat="42.2033451" lon="13.5190706"><ele>1282.3999999999999</ele><time>2026-05-03T10:50:41.006Z</time></trkpt><trkpt lat="42.203226" lon="13.5190928"><ele>1282.0</ele><time>2026-05-03T10:50:42.017Z</time></trkpt><trkpt lat="42.2031059" lon="13.5191225"><ele>1281.75</ele><time>2026-05-03T10:50:43.011Z</time></trkpt><trkpt lat="42.2029841" lon="13.5191466"><ele>1281.5</ele><time>2026-05-03T10:50:44.014Z</time></trkpt><trkpt lat="42.2028671" lon="13.5191725"><ele>1281.25</ele><time>2026-05-03T10:50:45.01Z</time></trkpt><trkpt lat="42.2027513" lon="13.519195"><ele>1281.0</ele><time>2026-05-03T10:50:46.023Z</time></trkpt><trkpt lat="42.2026359" lon="13.5192195"><ele>1281.0</ele><time>2026-05-03T10:50:47.012Z</time></trkpt><trkpt lat="42.2025235" lon="13.5192493"><ele>1281.0</ele><time>2026-05-03T10:50:48.012Z</time></trkpt><trkpt lat="42.2024083" lon="13.5192753"><ele>1281.0</ele><time>2026-05-03T10:50:49.009Z</time></trkpt><trkpt lat="42.2022927" lon="13.5193031"><ele>1281.0</ele><time>2026-05-03T10:50:50.017Z</time></trkpt><trkpt lat="42.2021716" lon="13.5193292"><ele>1281.25</ele><time>2026-05-03T10:50:51.012Z</time></trkpt><trkpt lat="42.2020519" lon="13.5193544"><ele>1281.5</ele><time>2026-05-03T10:50:52.007Z</time></trkpt><trkpt lat="42.2019337" lon="13.5193854"><ele>1281.75</ele><time>2026-05-03T10:50:53.009Z</time></trkpt><trkpt lat="42.2018151" lon="13.5194094"><ele>1282.0</ele><time>2026-05-03T10:50:54.015Z</time></trkpt><trkpt lat="42.2016963" lon="13.5194329"><ele>1282.0</ele><time>2026-05-03T10:50:55.013Z</time></trkpt><trkpt lat="42.2015764" lon="13.5194537"><ele>1282.0</ele><time>2026-05-03T10:50:56.014Z</time></trkpt><trkpt lat="42.2014603" lon="13.5194802"><ele>1282.0</ele><time>2026-05-03T10:50:57.016Z</time></trkpt><trkpt lat="42.2013485" lon="13.5195054"><ele>1282.0</ele><time>2026-05-03T10:50:58.02Z</time></trkpt><trkpt lat="42.2012446" lon="13.5195271"><ele>1282.142857142857</ele><time>2026-05-03T10:50:59.011Z</time></trkpt><trkpt lat="42.2011537" lon="13.5195464"><ele>1282.2857142857142</ele><time>2026-05-03T10:51:00.014Z</time></trkpt><trkpt lat="42.2010725" lon="13.519561"><ele>1282.4285714285716</ele><time>2026-05-03T10:51:01.005Z</time></trkpt><trkpt lat="42.2010023" lon="13.5195689"><ele>1282.5714285714284</ele><time>2026-05-03T10:51:02.014Z</time></trkpt><trkpt lat="42.2009348" lon="13.5195683"><ele>1282.7142857142856</ele><time>2026-05-03T10:51:03.009Z</time></trkpt><trkpt lat="42.2008701" lon="13.5195894"><ele>1282.857142857143</ele><time>2026-05-03T10:51:04.02Z</time></trkpt><trkpt lat="42.2008023" lon="13.5196152"><ele>1283.0</ele><time>2026-05-03T10:51:05.007Z</time></trkpt><trkpt lat="42.2007315" lon="13.5196404"><ele>1283.2</ele><time>2026-05-03T10:51:06.02Z</time></trkpt><trkpt lat="42.2006528" lon="13.5196594"><ele>1283.4</ele><time>2026-05-03T10:51:07.017Z</time></trkpt><trkpt lat="42.2005652" lon="13.5196753"><ele>1283.6000000000001</ele><time>2026-05-03T10:51:08.01Z</time></trkpt><trkpt lat="42.2004732" lon="13.5196946"><ele>1283.8000000000002</ele><time>2026-05-03T10:51:09.014Z</time></trkpt><trkpt lat="42.2003749" lon="13.5197107"><ele>1284.0</ele><time>2026-05-03T10:51:10.016Z</time></trkpt><trkpt lat="42.2002773" lon="13.5197328"><ele>1284.0</ele><time>2026-05-03T10:51:11.022Z</time></trkpt><trkpt lat="42.2001739" lon="13.519753"><ele>1284.0</ele><time>2026-05-03T10:51:12.009Z</time></trkpt><trkpt lat="42.2000737" lon="13.5197719"><ele>1284.0</ele><time>2026-05-03T10:51:13.014Z</time></trkpt><trkpt lat="42.1999773" lon="13.5197905"><ele>1284.0</ele><time>2026-05-03T10:51:14.013Z</time></trkpt><trkpt lat="42.1998842" lon="13.5198128"><ele>1284.0</ele><time>2026-05-03T10:51:15.012Z</time></trkpt><trkpt lat="42.199799" lon="13.5198295"><ele>1283.6666666666667</ele><time>2026-05-03T10:51:16.016Z</time></trkpt><trkpt lat="42.1997248" lon="13.5198405"><ele>1283.3333333333333</ele><time>2026-05-03T10:51:17.033Z</time></trkpt><trkpt lat="42.1996239" lon="13.5198501"><ele>1283.0</ele><time>2026-05-03T10:51:19.029Z</time></trkpt><trkpt lat="42.1995524" lon="13.5198566"><ele>1282.6666666666665</ele><time>2026-05-03T10:53:59.015Z</time></trkpt><trkpt lat="42.1994557" lon="13.5198924"><ele>1282.3333333333333</ele><time>2026-05-03T10:54:01.011Z</time></trkpt><trkpt lat="42.1993899" lon="13.5199213"><ele>1282.0</ele><time>2026-05-03T10:54:02.017Z</time></trkpt><trkpt lat="42.199316" lon="13.519943"><ele>1282.0</ele><time>2026-05-03T10:54:03.003Z</time></trkpt><trkpt lat="42.1992326" lon="13.5199622"><ele>1282.0</ele><time>2026-05-03T10:54:04.014Z</time></trkpt><trkpt lat="42.1991426" lon="13.5199785"><ele>1282.0</ele><time>2026-05-03T10:54:05.013Z</time></trkpt><trkpt lat="42.1990419" lon="13.5200016"><ele>1282.0</ele><time>2026-05-03T10:54:06.011Z</time></trkpt><trkpt lat="42.1989286" lon="13.5200292"><ele>1282.0</ele><time>2026-05-03T10:54:07.021Z</time></trkpt><trkpt lat="42.198805" lon="13.5200612"><ele>1281.6666666666665</ele><time>2026-05-03T10:54:08.031Z</time></trkpt><trkpt lat="42.1986651" lon="13.5200909"><ele>1281.3333333333333</ele><time>2026-05-03T10:54:09.015Z</time></trkpt><trkpt lat="42.1985173" lon="13.5201244"><ele>1281.0</ele><time>2026-05-03T10:54:10.015Z</time></trkpt><trkpt lat="42.1983583" lon="13.520164"><ele>1281.0</ele><time>2026-05-03T10:54:11.015Z</time></trkpt><trkpt lat="42.1981894" lon="13.5202055"><ele>1281.0</ele><time>2026-05-03T10:54:12.017Z</time></trkpt><trkpt lat="42.1980128" lon="13.5202433"><ele>1281.0</ele><time>2026-05-03T10:54:13.016Z</time></trkpt><trkpt lat="42.1978331" lon="13.5202812"><ele>1281.6666666666667</ele><time>2026-05-03T10:54:14.007Z</time></trkpt><trkpt lat="42.1976546" lon="13.5203226"><ele>1282.3333333333335</ele><time>2026-05-03T10:54:15.016Z</time></trkpt><trkpt lat="42.1974764" lon="13.5203588"><ele>1283.0</ele><time>2026-05-03T10:54:16.025Z</time></trkpt><trkpt lat="42.1973007" lon="13.520395"><ele>1283.6666666666667</ele><time>2026-05-03T10:54:17.032Z</time></trkpt><trkpt lat="42.197126" lon="13.5204285"><ele>1284.3333333333333</ele><time>2026-05-03T10:54:18.009Z</time></trkpt><trkpt lat="42.1969534" lon="13.520465"><ele>1285.0</ele><time>2026-05-03T10:54:19.01Z</time></trkpt><trkpt lat="42.196783" lon="13.5205007"><ele>1285.0</ele><time>2026-05-03T10:54:20.002Z</time></trkpt><trkpt lat="42.1966224" lon="13.5205393"><ele>1285.0</ele><time>2026-05-03T10:54:21.006Z</time></trkpt><trkpt lat="42.1964649" lon="13.5205724"><ele>1285.0</ele><time>2026-05-03T10:54:22.01Z</time></trkpt><trkpt lat="42.1963117" lon="13.5206069"><ele>1285.6666666666665</ele><time>2026-05-03T10:54:23.019Z</time></trkpt><trkpt lat="42.1961593" lon="13.520641"><ele>1286.3333333333333</ele><time>2026-05-03T10:54:24.01Z</time></trkpt><trkpt lat="42.1960072" lon="13.5206703"><ele>1287.0</ele><time>2026-05-03T10:54:25.011Z</time></trkpt><trkpt lat="42.195846" lon="13.5207049"><ele>1287.0</ele><time>2026-05-03T10:54:26.024Z</time></trkpt><trkpt lat="42.1956725" lon="13.5207396"><ele>1287.0</ele><time>2026-05-03T10:54:27.008Z</time></trkpt><trkpt lat="42.1954882" lon="13.5207783"><ele>1287.0</ele><time>2026-05-03T10:54:28.012Z</time></trkpt><trkpt lat="42.1953028" lon="13.5208199"><ele>1288.3333333333333</ele><time>2026-05-03T10:54:29.009Z</time></trkpt><trkpt lat="42.1951199" lon="13.5208614"><ele>1289.6666666666665</ele><time>2026-05-03T10:54:30.016Z</time></trkpt><trkpt lat="42.1949547" lon="13.5209005"><ele>1291.0</ele><time>2026-05-03T10:54:31.01Z</time></trkpt><trkpt lat="42.194793" lon="13.5209352"><ele>1291.5</ele><time>2026-05-03T10:54:32.007Z</time></trkpt><trkpt lat="42.194638" lon="13.5209692"><ele>1292.0</ele><time>2026-05-03T10:54:33.023Z</time></trkpt><trkpt lat="42.194493" lon="13.5210031"><ele>1292.5</ele><time>2026-05-03T10:54:34.012Z</time></trkpt><trkpt lat="42.1943502" lon="13.5210317"><ele>1293.0</ele><time>2026-05-03T10:54:35.011Z</time></trkpt><trkpt lat="42.1942085" lon="13.5210617"><ele>1293.0</ele><time>2026-05-03T10:54:36.013Z</time></trkpt><trkpt lat="42.1940607" lon="13.5210971"><ele>1293.0</ele><time>2026-05-03T10:54:37.002Z</time></trkpt><trkpt lat="42.1938928" lon="13.5211408"><ele>1293.0</ele><time>2026-05-03T10:54:38.016Z</time></trkpt><trkpt lat="42.1937022" lon="13.5212016"><ele>1294.0</ele><time>2026-05-03T10:54:39.006Z</time></trkpt><trkpt lat="42.1934908" lon="13.5212604"><ele>1295.0</ele><time>2026-05-03T10:54:40.017Z</time></trkpt><trkpt lat="42.1932712" lon="13.5213096"><ele>1296.0</ele><time>2026-05-03T10:54:41.01Z</time></trkpt><trkpt lat="42.1930615" lon="13.521333"><ele>1297.6666666666667</ele><time>2026-05-03T10:54:42.031Z</time></trkpt><trkpt lat="42.192865" lon="13.5213699"><ele>1299.3333333333335</ele><time>2026-05-03T10:54:43.017Z</time></trkpt><trkpt lat="42.1926734" lon="13.5214109"><ele>1301.0</ele><time>2026-05-03T10:54:44.009Z</time></trkpt><trkpt lat="42.1924913" lon="13.5214499"><ele>1302.3333333333335</ele><time>2026-05-03T10:54:45.007Z</time></trkpt><trkpt lat="42.1923224" lon="13.5214721"><ele>1303.6666666666667</ele><time>2026-05-03T10:54:46.012Z</time></trkpt><trkpt lat="42.1921634" lon="13.5214876"><ele>1305.0</ele><time>2026-05-03T10:54:47.008Z</time></trkpt><trkpt lat="42.1920141" lon="13.5214873"><ele>1305.0</ele><time>2026-05-03T10:54:48.009Z</time></trkpt><trkpt lat="42.1918735" lon="13.5214713"><ele>1305.0</ele><time>2026-05-03T10:54:49.016Z</time></trkpt><trkpt lat="42.191733" lon="13.5214419"><ele>1305.0</ele><time>2026-05-03T10:54:50.021Z</time></trkpt><trkpt lat="42.1915956" lon="13.5214141"><ele>1305.0</ele><time>2026-05-03T10:54:51.014Z</time></trkpt><trkpt lat="42.1914593" lon="13.5213766"><ele>1304.75</ele><time>2026-05-03T10:54:52.015Z</time></trkpt><trkpt lat="42.1913158" lon="13.5213337"><ele>1304.5</ele><time>2026-05-03T10:54:53.007Z</time></trkpt><trkpt lat="42.1911721" lon="13.5212776"><ele>1304.25</ele><time>2026-05-03T10:54:54.018Z</time></trkpt><trkpt lat="42.1910328" lon="13.5212125"><ele>1304.0</ele><time>2026-05-03T10:54:55.016Z</time></trkpt><trkpt lat="42.1909005" lon="13.5211342"><ele>1304.0</ele><time>2026-05-03T10:54:56.009Z</time></trkpt><trkpt lat="42.1907665" lon="13.521056"><ele>1304.0</ele><time>2026-05-03T10:54:57.014Z</time></trkpt><trkpt lat="42.1906283" lon="13.5209617"><ele>1304.0</ele><time>2026-05-03T10:54:58.035Z</time></trkpt><trkpt lat="42.190475" lon="13.5208434"><ele>1303.6666666666667</ele><time>2026-05-03T10:54:59.004Z</time></trkpt><trkpt lat="42.1903081" lon="13.520693"><ele>1303.3333333333333</ele><time>2026-05-03T10:55:00.024Z</time></trkpt><trkpt lat="42.1901456" lon="13.5205053"><ele>1303.0</ele><time>2026-05-03T10:55:01.004Z</time></trkpt><trkpt lat="42.190012" lon="13.5202876"><ele>1304.5</ele><time>2026-05-03T10:55:02.007Z</time></trkpt><trkpt lat="42.1898758" lon="13.5200243"><ele>1306.0</ele><time>2026-05-03T10:55:03.002Z</time></trkpt><trkpt lat="42.1897352" lon="13.5197372"><ele>1308.0</ele><time>2026-05-03T10:55:04.008Z</time></trkpt><trkpt lat="42.1895916" lon="13.519456"><ele>1310.0</ele><time>2026-05-03T10:55:05.01Z</time></trkpt><trkpt lat="42.1894609" lon="13.519201"><ele>1310.0</ele><time>2026-05-03T10:55:06.014Z</time></trkpt><trkpt lat="42.1893296" lon="13.5189503"><ele>1310.0</ele><time>2026-05-03T10:55:07.013Z</time></trkpt><trkpt lat="42.18918" lon="13.5186795"><ele>1310.0</ele><time>2026-05-03T10:55:08.017Z</time></trkpt><trkpt lat="42.1890209" lon="13.5183867"><ele>1310.0</ele><time>2026-05-03T10:55:09.008Z</time></trkpt><trkpt lat="42.1888654" lon="13.5180645"><ele>1310.0</ele><time>2026-05-03T10:55:10.018Z</time></trkpt><trkpt lat="42.1887088" lon="13.5177219"><ele>1310.0</ele><time>2026-05-03T10:55:11.013Z</time></trkpt><trkpt lat="42.1885518" lon="13.5173894"><ele>1310.0</ele><time>2026-05-03T10:55:12.012Z</time></trkpt><trkpt lat="42.188399" lon="13.5170777"><ele>1310.0</ele><time>2026-05-03T10:55:13.012Z</time></trkpt><trkpt lat="42.1882557" lon="13.5167916"><ele>1311.5</ele><time>2026-05-03T10:55:14.018Z</time></trkpt><trkpt lat="42.1881178" lon="13.5165163"><ele>1313.0</ele><time>2026-05-03T10:55:15.016Z</time></trkpt><trkpt lat="42.1879839" lon="13.516253"><ele>1313.0</ele><time>2026-05-03T10:55:16.019Z</time></trkpt><trkpt lat="42.1878613" lon="13.5160027"><ele>1313.0</ele><time>2026-05-03T10:55:17.027Z</time></trkpt><trkpt lat="42.1877494" lon="13.5157728"><ele>1313.0</ele><time>2026-05-03T10:55:18.012Z</time></trkpt><trkpt lat="42.187652" lon="13.5155653"><ele>1313.6666666666667</ele><time>2026-05-03T10:55:19.009Z</time></trkpt><trkpt lat="42.1875542" lon="13.5153637"><ele>1314.3333333333333</ele><time>2026-05-03T10:55:20.013Z</time></trkpt><trkpt lat="42.1874507" lon="13.5151889"><ele>1315.0</ele><time>2026-05-03T10:55:21.01Z</time></trkpt><trkpt lat="42.1873291" lon="13.5150419"><ele>1315.6666666666665</ele><time>2026-05-03T10:55:22.015Z</time></trkpt><trkpt lat="42.1871705" lon="13.5149575"><ele>1316.3333333333333</ele><time>2026-05-03T10:55:23.026Z</time></trkpt><trkpt lat="42.1869864" lon="13.514907"><ele>1317.0</ele><time>2026-05-03T10:55:24.01Z</time></trkpt><trkpt lat="42.1867727" lon="13.5148859"><ele>1317.0</ele><time>2026-05-03T10:55:25.02Z</time></trkpt><trkpt lat="42.186537" lon="13.5148615"><ele>1317.0</ele><time>2026-05-03T10:55:26.022Z</time></trkpt><trkpt lat="42.1862888" lon="13.5148249"><ele>1318.5</ele><time>2026-05-03T10:55:27.009Z</time></trkpt><trkpt lat="42.1860329" lon="13.514779"><ele>1320.0</ele><time>2026-05-03T10:55:28.016Z</time></trkpt><trkpt lat="42.1857719" lon="13.5147237"><ele>1319.0</ele><time>2026-05-03T10:55:29.02Z</time></trkpt><trkpt lat="42.1855145" lon="13.5146667"><ele>1318.0</ele><time>2026-05-03T10:55:30.016Z</time></trkpt><trkpt lat="42.1852457" lon="13.5146125"><ele>1319.0</ele><time>2026-05-03T10:55:31.019Z</time></trkpt><trkpt lat="42.1849574" lon="13.5145548"><ele>1320.0</ele><time>2026-05-03T10:55:32.013Z</time></trkpt><trkpt lat="42.1846748" lon="13.5144974"><ele>1321.0</ele><time>2026-05-03T10:55:33.009Z</time></trkpt><trkpt lat="42.1844125" lon="13.5144436"><ele>1322.0</ele><time>2026-05-03T10:55:34.025Z</time></trkpt><trkpt lat="42.1841666" lon="13.5143903"><ele>1324.0</ele><time>2026-05-03T10:55:35.012Z</time></trkpt><trkpt lat="42.1839338" lon="13.514343"><ele>1326.0</ele><time>2026-05-03T10:55:36.008Z</time></trkpt><trkpt lat="42.1837126" lon="13.5142978"><ele>1326.0</ele><time>2026-05-03T10:55:37.002Z</time></trkpt><trkpt lat="42.1835002" lon="13.5142537"><ele>1326.0</ele><time>2026-05-03T10:55:38.016Z</time></trkpt><trkpt lat="42.1832953" lon="13.5142151"><ele>1326.0</ele><time>2026-05-03T10:55:39.006Z</time></trkpt><trkpt lat="42.1830902" lon="13.5141831"><ele>1326.6666666666667</ele><time>2026-05-03T10:55:40.015Z</time></trkpt><trkpt lat="42.1828831" lon="13.5141739"><ele>1327.3333333333335</ele><time>2026-05-03T10:55:41.011Z</time></trkpt><trkpt lat="42.1826703" lon="13.5141842"><ele>1328.0</ele><time>2026-05-03T10:55:42.027Z</time></trkpt><trkpt lat="42.1824546" lon="13.5142302"><ele>1330.3333333333335</ele><time>2026-05-03T10:55:43.011Z</time></trkpt><trkpt lat="42.1822433" lon="13.5143092"><ele>1332.6666666666667</ele><time>2026-05-03T10:55:44.014Z</time></trkpt><trkpt lat="42.1820379" lon="13.5144103"><ele>1335.0</ele><time>2026-05-03T10:55:45.008Z</time></trkpt><trkpt lat="42.1818674" lon="13.5145426"><ele>1335.3333333333333</ele><time>2026-05-03T10:55:46.017Z</time></trkpt><trkpt lat="42.1817082" lon="13.5146974"><ele>1335.6666666666665</ele><time>2026-05-03T10:55:47.017Z</time></trkpt><trkpt lat="42.1815671" lon="13.5148635"><ele>1336.0</ele><time>2026-05-03T10:55:48.011Z</time></trkpt><trkpt lat="42.1814339" lon="13.5150105"><ele>1336.0</ele><time>2026-05-03T10:55:49.015Z</time></trkpt><trkpt lat="42.1813117" lon="13.515131"><ele>1336.0</ele><time>2026-05-03T10:55:50.019Z</time></trkpt><trkpt lat="42.1811855" lon="13.5152171"><ele>1336.0</ele><time>2026-05-03T10:55:51.018Z</time></trkpt><trkpt lat="42.18104" lon="13.5152589"><ele>1336.0</ele><time>2026-05-03T10:55:52.015Z</time></trkpt><trkpt lat="42.1808806" lon="13.5152264"><ele>1336.0</ele><time>2026-05-03T10:55:53.029Z</time></trkpt><trkpt lat="42.1807161" lon="13.5151606"><ele>1336.0</ele><time>2026-05-03T10:55:54.01Z</time></trkpt><trkpt lat="42.1805415" lon="13.5150544"><ele>1336.0</ele><time>2026-05-03T10:55:55.019Z</time></trkpt><trkpt lat="42.1803628" lon="13.5149356"><ele>1337.3333333333333</ele><time>2026-05-03T10:55:56.015Z</time></trkpt><trkpt lat="42.1801898" lon="13.5148192"><ele>1338.6666666666667</ele><time>2026-05-03T10:55:57.01Z</time></trkpt><trkpt lat="42.1800359" lon="13.5147186"><ele>1340.0</ele><time>2026-05-03T10:55:58.012Z</time></trkpt><trkpt lat="42.1798934" lon="13.5146466"><ele>1343.25</ele><time>2026-05-03T10:55:59.014Z</time></trkpt><trkpt lat="42.1797563" lon="13.5146177"><ele>1346.5</ele><time>2026-05-03T10:56:00.013Z</time></trkpt><trkpt lat="42.1796264" lon="13.5146536"><ele>1349.75</ele><time>2026-05-03T10:56:01.01Z</time></trkpt><trkpt lat="42.1795252" lon="13.5147607"><ele>1353.0</ele><time>2026-05-03T10:56:02.011Z</time></trkpt><trkpt lat="42.1794435" lon="13.5149356"><ele>1353.0</ele><time>2026-05-03T10:56:03.004Z</time></trkpt><trkpt lat="42.1793906" lon="13.5151577"><ele>1353.0</ele><time>2026-05-03T10:56:04.008Z</time></trkpt><trkpt lat="42.1793493" lon="13.5153968"><ele>1353.0</ele><time>2026-05-03T10:56:05.001Z</time></trkpt><trkpt lat="42.1792939" lon="13.5156578"><ele>1353.3333333333333</ele><time>2026-05-03T10:56:06.022Z</time></trkpt><trkpt lat="42.1792378" lon="13.5159117"><ele>1353.6666666666665</ele><time>2026-05-03T10:56:07.005Z</time></trkpt><trkpt lat="42.1791969" lon="13.5161438"><ele>1354.0</ele><time>2026-05-03T10:56:08.003Z</time></trkpt><trkpt lat="42.1791466" lon="13.5163411"><ele>1354.5</ele><time>2026-05-03T10:56:09.004Z</time></trkpt><trkpt lat="42.1790766" lon="13.5164915"><ele>1355.0</ele><time>2026-05-03T10:56:10.019Z</time></trkpt><trkpt lat="42.1789719" lon="13.5165803"><ele>1355.5</ele><time>2026-05-03T10:56:11.009Z</time></trkpt><trkpt lat="42.1788377" lon="13.5166247"><ele>1356.0</ele><time>2026-05-03T10:56:12.011Z</time></trkpt><trkpt lat="42.1786853" lon="13.5166205"><ele>1356.0</ele><time>2026-05-03T10:56:13.008Z</time></trkpt><trkpt lat="42.1785125" lon="13.5165897"><ele>1356.0</ele><time>2026-05-03T10:56:14.005Z</time></trkpt><trkpt lat="42.178319" lon="13.516518"><ele>1356.0</ele><time>2026-05-03T10:56:15.012Z</time></trkpt><trkpt lat="42.1781409" lon="13.5164118"><ele>1358.3333333333333</ele><time>2026-05-03T10:56:16.021Z</time></trkpt><trkpt lat="42.1779827" lon="13.5162973"><ele>1360.6666666666665</ele><time>2026-05-03T10:56:17.009Z</time></trkpt><trkpt lat="42.1778443" lon="13.5161802"><ele>1363.0</ele><time>2026-05-03T10:56:18.008Z</time></trkpt><trkpt lat="42.1777159" lon="13.5160694"><ele>1363.0</ele><time>2026-05-03T10:56:18.999Z</time></trkpt><trkpt lat="42.1776004" lon="13.5159712"><ele>1363.0</ele><time>2026-05-03T10:56:20.014Z</time></trkpt><trkpt lat="42.1774895" lon="13.515889"><ele>1363.0</ele><time>2026-05-03T10:56:21.013Z</time></trkpt><trkpt lat="42.1773855" lon="13.5158049"><ele>1363.0</ele><time>2026-05-03T10:56:22.009Z</time></trkpt><trkpt lat="42.1772816" lon="13.5157225"><ele>1362.75</ele><time>2026-05-03T10:56:23.014Z</time></trkpt><trkpt lat="42.1771703" lon="13.5156442"><ele>1362.5</ele><time>2026-05-03T10:56:24.012Z</time></trkpt><trkpt lat="42.1770499" lon="13.5155742"><ele>1362.25</ele><time>2026-05-03T10:56:25.015Z</time></trkpt><trkpt lat="42.1769173" lon="13.5155351"><ele>1362.0</ele><time>2026-05-03T10:56:26.004Z</time></trkpt><trkpt lat="42.1767767" lon="13.5155252"><ele>1362.0</ele><time>2026-05-03T10:56:27.002Z</time></trkpt><trkpt lat="42.1766272" lon="13.5155486"><ele>1362.0</ele><time>2026-05-03T10:56:28.009Z</time></trkpt><trkpt lat="42.1764748" lon="13.5155859"><ele>1362.0</ele><time>2026-05-03T10:56:29.011Z</time></trkpt><trkpt lat="42.1763155" lon="13.5156272"><ele>1360.3333333333333</ele><time>2026-05-03T10:56:30.005Z</time></trkpt><trkpt lat="42.1761563" lon="13.5156658"><ele>1358.6666666666665</ele><time>2026-05-03T10:56:31.009Z</time></trkpt><trkpt lat="42.1759978" lon="13.5157107"><ele>1357.0</ele><time>2026-05-03T10:56:32.015Z</time></trkpt><trkpt lat="42.1758458" lon="13.5157527"><ele>1357.0</ele><time>2026-05-03T10:56:33.004Z</time></trkpt><trkpt lat="42.1756956" lon="13.5157844"><ele>1357.0</ele><time>2026-05-03T10:56:34.025Z</time></trkpt><trkpt lat="42.1755532" lon="13.5158241"><ele>1357.0</ele><time>2026-05-03T10:56:35.023Z</time></trkpt><trkpt lat="42.1754097" lon="13.5158601"><ele>1357.0</ele><time>2026-05-03T10:56:36.001Z</time></trkpt><trkpt lat="42.1752698" lon="13.5158956"><ele>1356.5</ele><time>2026-05-03T10:56:37.002Z</time></trkpt><trkpt lat="42.1751294" lon="13.5159346"><ele>1356.0</ele><time>2026-05-03T10:56:38.007Z</time></trkpt><trkpt lat="42.1749882" lon="13.5159733"><ele>1355.5</ele><time>2026-05-03T10:56:39.013Z</time></trkpt><trkpt lat="42.1748478" lon="13.5160092"><ele>1355.0</ele><time>2026-05-03T10:56:40.012Z</time></trkpt><trkpt lat="42.1747157" lon="13.5160417"><ele>1354.8</ele><time>2026-05-03T10:56:41.025Z</time></trkpt><trkpt lat="42.1745918" lon="13.5160729"><ele>1354.6</ele><time>2026-05-03T10:56:42.005Z</time></trkpt><trkpt lat="42.1744736" lon="13.5160966"><ele>1354.4</ele><time>2026-05-03T10:56:43.015Z</time></trkpt><trkpt lat="42.1743688" lon="13.5160974"><ele>1354.2</ele><time>2026-05-03T10:56:44.005Z</time></trkpt><trkpt lat="42.1742797" lon="13.516082"><ele>1354.0</ele><time>2026-05-03T10:56:45.004Z</time></trkpt><trkpt lat="42.1741955" lon="13.5160753"><ele>1354.0</ele><time>2026-05-03T10:56:46.018Z</time></trkpt><trkpt lat="42.1741175" lon="13.5161157"><ele>1354.0</ele><time>2026-05-03T10:56:47.021Z</time></trkpt><trkpt lat="42.1740272" lon="13.5161814"><ele>1354.0</ele><time>2026-05-03T10:56:48.007Z</time></trkpt><trkpt lat="42.1739205" lon="13.5162348"><ele>1354.0</ele><time>2026-05-03T10:56:49.008Z</time></trkpt><trkpt lat="42.1737926" lon="13.5162707"><ele>1354.0</ele><time>2026-05-03T10:56:50.013Z</time></trkpt><trkpt lat="42.1736519" lon="13.516297"><ele>1353.3333333333333</ele><time>2026-05-03T10:56:51.011Z</time></trkpt><trkpt lat="42.1734991" lon="13.5163266"><ele>1352.6666666666667</ele><time>2026-05-03T10:56:52.024Z</time></trkpt><trkpt lat="42.173343" lon="13.5163586"><ele>1352.0</ele><time>2026-05-03T10:56:53.015Z</time></trkpt><trkpt lat="42.1731782" lon="13.5163995"><ele>1351.0</ele><time>2026-05-03T10:56:54.007Z</time></trkpt><trkpt lat="42.1730042" lon="13.5164403"><ele>1350.0</ele><time>2026-05-03T10:56:55.01Z</time></trkpt><trkpt lat="42.1728183" lon="13.5164785"><ele>1349.0</ele><time>2026-05-03T10:56:56.011Z</time></trkpt><trkpt lat="42.1726297" lon="13.516522"><ele>1349.0</ele><time>2026-05-03T10:56:57.012Z</time></trkpt><trkpt lat="42.1724373" lon="13.5165696"><ele>1349.0</ele><time>2026-05-03T10:56:58.017Z</time></trkpt><trkpt lat="42.1722353" lon="13.5166151"><ele>1349.0</ele><time>2026-05-03T10:56:59.016Z</time></trkpt><trkpt lat="42.1720234" lon="13.5166622"><ele>1349.0</ele><time>2026-05-03T10:57:00.025Z</time></trkpt><trkpt lat="42.1718078" lon="13.51671"><ele>1349.0</ele><time>2026-05-03T10:57:01.018Z</time></trkpt><trkpt lat="42.1715829" lon="13.5167646"><ele>1349.0</ele><time>2026-05-03T10:57:02.011Z</time></trkpt><trkpt lat="42.1713589" lon="13.5168238"><ele>1348.0</ele><time>2026-05-03T10:57:03.016Z</time></trkpt><trkpt lat="42.1711272" lon="13.5168782"><ele>1347.0</ele><time>2026-05-03T10:57:04.015Z</time></trkpt><trkpt lat="42.1708926" lon="13.5169328"><ele>1348.5</ele><time>2026-05-03T10:57:05.01Z</time></trkpt><trkpt lat="42.1706531" lon="13.5169901"><ele>1350.0</ele><time>2026-05-03T10:57:06.021Z</time></trkpt><trkpt lat="42.1704132" lon="13.5170453"><ele>1350.0</ele><time>2026-05-03T10:57:07.007Z</time></trkpt><trkpt lat="42.1701688" lon="13.5171009"><ele>1350.0</ele><time>2026-05-03T10:57:08.024Z</time></trkpt><trkpt lat="42.1699179" lon="13.5171606"><ele>1350.5</ele><time>2026-05-03T10:57:09.045Z</time></trkpt><trkpt lat="42.1696685" lon="13.5172194"><ele>1351.0</ele><time>2026-05-03T10:57:10.014Z</time></trkpt><trkpt lat="42.169416" lon="13.5172785"><ele>1351.0</ele><time>2026-05-03T10:57:11.021Z</time></trkpt><trkpt lat="42.1691601" lon="13.5173379"><ele>1351.0</ele><time>2026-05-03T10:57:12.009Z</time></trkpt><trkpt lat="42.1689052" lon="13.5173962"><ele>1349.0</ele><time>2026-05-03T10:57:13Z</time></trkpt><trkpt lat="42.1686519" lon="13.5174586"><ele>1347.0</ele><time>2026-05-03T10:57:14.006Z</time></trkpt><trkpt lat="42.1683958" lon="13.5175177"><ele>1349.0</ele><time>2026-05-03T10:57:15.015Z</time></trkpt><trkpt lat="42.168138" lon="13.517576"><ele>1351.0</ele><time>2026-05-03T10:57:16.022Z</time></trkpt><trkpt lat="42.1678797" lon="13.5176362"><ele>1351.0</ele><time>2026-05-03T10:57:16.999Z</time></trkpt><trkpt lat="42.1676176" lon="13.5177005"><ele>1351.0</ele><time>2026-05-03T10:57:18.038Z</time></trkpt><trkpt lat="42.1673536" lon="13.5177659"><ele>1355.0</ele><time>2026-05-03T10:57:19.017Z</time></trkpt><trkpt lat="42.1670939" lon="13.5178328"><ele>1359.0</ele><time>2026-05-03T10:57:20.008Z</time></trkpt><trkpt lat="42.1668359" lon="13.5178923"><ele>1356.5</ele><time>2026-05-03T10:57:21.014Z</time></trkpt><trkpt lat="42.1665794" lon="13.51795"><ele>1354.0</ele><time>2026-05-03T10:57:22.01Z</time></trkpt><trkpt lat="42.1663281" lon="13.5180105"><ele>1354.0</ele><time>2026-05-03T10:57:23.005Z</time></trkpt><trkpt lat="42.1660806" lon="13.5180706"><ele>1354.0</ele><time>2026-05-03T10:57:24.034Z</time></trkpt><trkpt lat="42.1658366" lon="13.5181246"><ele>1355.0</ele><time>2026-05-03T10:57:25.005Z</time></trkpt><trkpt lat="42.1656112" lon="13.51818"><ele>1356.0</ele><time>2026-05-03T10:57:26.032Z</time></trkpt><trkpt lat="42.165387" lon="13.518232"><ele>1356.0</ele><time>2026-05-03T10:57:27.005Z</time></trkpt><trkpt lat="42.1651631" lon="13.5182716"><ele>1356.0</ele><time>2026-05-03T10:57:28.016Z</time></trkpt><trkpt lat="42.1649357" lon="13.5182846"><ele>1356.0</ele><time>2026-05-03T10:57:29.027Z</time></trkpt><trkpt lat="42.1646937" lon="13.5182759"><ele>1356.0</ele><time>2026-05-03T10:57:30.01Z</time></trkpt><trkpt lat="42.1644437" lon="13.5182524"><ele>1356.0</ele><time>2026-05-03T10:57:31.03Z</time></trkpt><trkpt lat="42.1641772" lon="13.5182335"><ele>1356.0</ele><time>2026-05-03T10:57:32.021Z</time></trkpt><trkpt lat="42.1638987" lon="13.5182137"><ele>1356.0</ele><time>2026-05-03T10:57:33.01Z</time></trkpt><trkpt lat="42.163614" lon="13.518194"><ele>1356.0</ele><time>2026-05-03T10:57:34.021Z</time></trkpt><trkpt lat="42.1633193" lon="13.5181704"><ele>1355.0</ele><time>2026-05-03T10:57:35.017Z</time></trkpt><trkpt lat="42.1630238" lon="13.5181471"><ele>1354.0</ele><time>2026-05-03T10:57:36.029Z</time></trkpt><trkpt lat="42.1627275" lon="13.5181207"><ele>1354.0</ele><time>2026-05-03T10:57:37.02Z</time></trkpt><trkpt lat="42.1624233" lon="13.5180956"><ele>1354.0</ele><time>2026-05-03T10:57:38.024Z</time></trkpt><trkpt lat="42.1621166" lon="13.5180683"><ele>1354.0</ele><time>2026-05-03T10:57:39.018Z</time></trkpt><trkpt lat="42.1618083" lon="13.5180461"><ele>1354.0</ele><time>2026-05-03T10:57:40.028Z</time></trkpt><trkpt lat="42.1614964" lon="13.5180189"><ele>1355.5</ele><time>2026-05-03T10:57:41.03Z</time></trkpt><trkpt lat="42.1611974" lon="13.5179917"><ele>1357.0</ele><time>2026-05-03T10:57:42.031Z</time></trkpt><trkpt lat="42.160914" lon="13.5179692"><ele>1357.5</ele><time>2026-05-03T10:57:43.025Z</time></trkpt><trkpt lat="42.1606426" lon="13.5179445"><ele>1358.0</ele><time>2026-05-03T10:57:44.02Z</time></trkpt><trkpt lat="42.1603837" lon="13.5179212"><ele>1358.0</ele><time>2026-05-03T10:57:45.029Z</time></trkpt><trkpt lat="42.1601358" lon="13.5178965"><ele>1358.0</ele><time>2026-05-03T10:57:46.033Z</time></trkpt><trkpt lat="42.1598946" lon="13.5178775"><ele>1358.5</ele><time>2026-05-03T10:57:47.016Z</time></trkpt><trkpt lat="42.1596588" lon="13.5178609"><ele>1359.0</ele><time>2026-05-03T10:57:48.018Z</time></trkpt><trkpt lat="42.1594275" lon="13.5178407"><ele>1359.0</ele><time>2026-05-03T10:57:49.02Z</time></trkpt><trkpt lat="42.159199" lon="13.5178232"><ele>1359.0</ele><time>2026-05-03T10:57:50.025Z</time></trkpt><trkpt lat="42.1589744" lon="13.517806"><ele>1360.0</ele><time>2026-05-03T10:57:51.019Z</time></trkpt><trkpt lat="42.1587497" lon="13.5177897"><ele>1361.0</ele><time>2026-05-03T10:57:52.022Z</time></trkpt><trkpt lat="42.1585236" lon="13.5177736"><ele>1361.0</ele><time>2026-05-03T10:57:53.014Z</time></trkpt><trkpt lat="42.1582944" lon="13.5177554"><ele>1361.0</ele><time>2026-05-03T10:57:54.018Z</time></trkpt><trkpt lat="42.1580673" lon="13.5177356"><ele>1360.5</ele><time>2026-05-03T10:57:55.033Z</time></trkpt><trkpt lat="42.157844" lon="13.5177149"><ele>1360.0</ele><time>2026-05-03T10:57:56.033Z</time></trkpt><trkpt lat="42.1576181" lon="13.5176936"><ele>1360.0</ele><time>2026-05-03T10:57:57.025Z</time></trkpt><trkpt lat="42.1573848" lon="13.517675"><ele>1360.0</ele><time>2026-05-03T10:57:58.033Z</time></trkpt><trkpt lat="42.1571455" lon="13.5176593"><ele>1360.5</ele><time>2026-05-03T10:57:59.015Z</time></trkpt><trkpt lat="42.1568988" lon="13.5176464"><ele>1361.0</ele><time>2026-05-03T10:58:00.027Z</time></trkpt><trkpt lat="42.1566429" lon="13.5176342"><ele>1362.5</ele><time>2026-05-03T10:58:01.015Z</time></trkpt><trkpt lat="42.1563825" lon="13.5176285"><ele>1364.0</ele><time>2026-05-03T10:58:02.034Z</time></trkpt><trkpt lat="42.1561141" lon="13.5176283"><ele>1364.0</ele><time>2026-05-03T10:58:03.022Z</time></trkpt><trkpt lat="42.155846" lon="13.5176386"><ele>1364.0</ele><time>2026-05-03T10:58:04.011Z</time></trkpt><trkpt lat="42.1555761" lon="13.5176573"><ele>1363.5</ele><time>2026-05-03T10:58:05.006Z</time></trkpt><trkpt lat="42.1553245" lon="13.5176794"><ele>1363.0</ele><time>2026-05-03T10:58:06.014Z</time></trkpt><trkpt lat="42.1550865" lon="13.517704"><ele>1362.5</ele><time>2026-05-03T10:58:07.023Z</time></trkpt><trkpt lat="42.154849" lon="13.5177284"><ele>1362.0</ele><time>2026-05-03T10:58:08.023Z</time></trkpt><trkpt lat="42.1546163" lon="13.5177479"><ele>1362.0</ele><time>2026-05-03T10:58:09.012Z</time></trkpt><trkpt lat="42.1543923" lon="13.5177704"><ele>1362.0</ele><time>2026-05-03T10:58:10.017Z</time></trkpt><trkpt lat="42.1541741" lon="13.5178051"><ele>1362.0</ele><time>2026-05-03T10:58:11.014Z</time></trkpt><trkpt lat="42.1539686" lon="13.5178599"><ele>1361.6666666666667</ele><time>2026-05-03T10:58:12.054Z</time></trkpt><trkpt lat="42.1537843" lon="13.5179283"><ele>1361.3333333333335</ele><time>2026-05-03T10:58:13.006Z</time></trkpt><trkpt lat="42.153619" lon="13.5180014"><ele>1361.0</ele><time>2026-05-03T10:58:14.022Z</time></trkpt><trkpt lat="42.1534721" lon="13.5180767"><ele>1361.0</ele><time>2026-05-03T10:58:15.024Z</time></trkpt><trkpt lat="42.1533253" lon="13.5181435"><ele>1361.0</ele><time>2026-05-03T10:58:16.024Z</time></trkpt><trkpt lat="42.1531785" lon="13.5182065"><ele>1361.0</ele><time>2026-05-03T10:58:17.016Z</time></trkpt><trkpt lat="42.1530333" lon="13.5182722"><ele>1360.3333333333335</ele><time>2026-05-03T10:58:18.014Z</time></trkpt><trkpt lat="42.1528858" lon="13.5183376"><ele>1359.6666666666667</ele><time>2026-05-03T10:58:19.014Z</time></trkpt><trkpt lat="42.1527359" lon="13.5184112"><ele>1359.0</ele><time>2026-05-03T10:58:20.016Z</time></trkpt><trkpt lat="42.1525802" lon="13.5184868"><ele>1359.0</ele><time>2026-05-03T10:58:21.011Z</time></trkpt><trkpt lat="42.1524204" lon="13.518563"><ele>1359.0</ele><time>2026-05-03T10:58:22.025Z</time></trkpt><trkpt lat="42.1522526" lon="13.5186373"><ele>1359.0</ele><time>2026-05-03T10:58:23.01Z</time></trkpt><trkpt lat="42.1520817" lon="13.518715"><ele>1359.0</ele><time>2026-05-03T10:58:24.018Z</time></trkpt><trkpt lat="42.1519076" lon="13.5187944"><ele>1359.0</ele><time>2026-05-03T10:58:25.01Z</time></trkpt><trkpt lat="42.1517267" lon="13.5188777"><ele>1359.0</ele><time>2026-05-03T10:58:26.012Z</time></trkpt><trkpt lat="42.1515491" lon="13.5189629"><ele>1358.0</ele><time>2026-05-03T10:58:27.018Z</time></trkpt><trkpt lat="42.151365" lon="13.5190482"><ele>1357.0</ele><time>2026-05-03T10:58:28.018Z</time></trkpt><trkpt lat="42.1511815" lon="13.5191333"><ele>1356.0</ele><time>2026-05-03T10:58:29.032Z</time></trkpt><trkpt lat="42.1510005" lon="13.5192224"><ele>1356.0</ele><time>2026-05-03T10:58:30.023Z</time></trkpt><trkpt lat="42.1508288" lon="13.5193015"><ele>1356.0</ele><time>2026-05-03T10:58:31.031Z</time></trkpt><trkpt lat="42.1506599" lon="13.5193709"><ele>1356.0</ele><time>2026-05-03T10:58:32.011Z</time></trkpt><trkpt lat="42.150485" lon="13.5194317"><ele>1356.0</ele><time>2026-05-03T10:58:33.002Z</time></trkpt><trkpt lat="42.1502996" lon="13.5194771"><ele>1356.0</ele><time>2026-05-03T10:58:34.022Z</time></trkpt><trkpt lat="42.1501091" lon="13.5195136"><ele>1356.0</ele><time>2026-05-03T10:58:35.014Z</time></trkpt><trkpt lat="42.1499111" lon="13.5195396"><ele>1355.3333333333333</ele><time>2026-05-03T10:58:36.007Z</time></trkpt><trkpt lat="42.1497125" lon="13.5195638"><ele>1354.6666666666665</ele><time>2026-05-03T10:58:37.005Z</time></trkpt><trkpt lat="42.1495091" lon="13.5195863"><ele>1354.0</ele><time>2026-05-03T10:58:38.023Z</time></trkpt><trkpt lat="42.1493056" lon="13.5196151"><ele>1354.0</ele><time>2026-05-03T10:58:39.008Z</time></trkpt><trkpt lat="42.149098" lon="13.5196423"><ele>1354.0</ele><time>2026-05-03T10:58:40.02Z</time></trkpt><trkpt lat="42.1488872" lon="13.5196678"><ele>1354.0</ele><time>2026-05-03T10:58:41.012Z</time></trkpt><trkpt lat="42.1486737" lon="13.5196922"><ele>1354.0</ele><time>2026-05-03T10:58:42.016Z</time></trkpt><trkpt lat="42.1484593" lon="13.5197179"><ele>1354.0</ele><time>2026-05-03T10:58:43.006Z</time></trkpt><trkpt lat="42.1482416" lon="13.5197465"><ele>1354.0</ele><time>2026-05-03T10:58:44.007Z</time></trkpt><trkpt lat="42.1480255" lon="13.5197694"><ele>1353.0</ele><time>2026-05-03T10:58:45.029Z</time></trkpt><trkpt lat="42.1478075" lon="13.5197968"><ele>1352.0</ele><time>2026-05-03T10:58:46.017Z</time></trkpt><trkpt lat="42.1475889" lon="13.5198232"><ele>1351.0</ele><time>2026-05-03T10:58:47.016Z</time></trkpt><trkpt lat="42.1473717" lon="13.5198501"><ele>1353.0</ele><time>2026-05-03T10:58:48.033Z</time></trkpt><trkpt lat="42.147155" lon="13.5198722"><ele>1355.0</ele><time>2026-05-03T10:58:49.015Z</time></trkpt><trkpt lat="42.1469401" lon="13.5198952"><ele>1357.0</ele><time>2026-05-03T10:58:50.014Z</time></trkpt><trkpt lat="42.1467279" lon="13.51992"><ele>1357.6666666666665</ele><time>2026-05-03T10:58:51.016Z</time></trkpt><trkpt lat="42.1465209" lon="13.5199428"><ele>1358.3333333333333</ele><time>2026-05-03T10:58:52.014Z</time></trkpt><trkpt lat="42.1463176" lon="13.5199609"><ele>1359.0</ele><time>2026-05-03T10:58:53.022Z</time></trkpt><trkpt lat="42.1461229" lon="13.5199724"><ele>1359.0</ele><time>2026-05-03T10:58:54.022Z</time></trkpt><trkpt lat="42.1459266" lon="13.519969"><ele>1359.0</ele><time>2026-05-03T10:58:55.024Z</time></trkpt><trkpt lat="42.1457264" lon="13.5199584"><ele>1359.0</ele><time>2026-05-03T10:58:56.01Z</time></trkpt><trkpt lat="42.1455237" lon="13.5199411"><ele>1358.3333333333333</ele><time>2026-05-03T10:58:57.028Z</time></trkpt><trkpt lat="42.1453186" lon="13.5199209"><ele>1357.6666666666665</ele><time>2026-05-03T10:58:58.018Z</time></trkpt><trkpt lat="42.1451145" lon="13.5198983"><ele>1357.0</ele><time>2026-05-03T10:58:59.018Z</time></trkpt><trkpt lat="42.1449109" lon="13.5198797"><ele>1357.3333333333333</ele><time>2026-05-03T10:59:00.024Z</time></trkpt><trkpt lat="42.1447169" lon="13.5198589"><ele>1357.6666666666667</ele><time>2026-05-03T10:59:01.008Z</time></trkpt><trkpt lat="42.1445327" lon="13.5198384"><ele>1358.0</ele><time>2026-05-03T10:59:02.011Z</time></trkpt><trkpt lat="42.1443494" lon="13.5198097"><ele>1358.0</ele><time>2026-05-03T10:59:03.005Z</time></trkpt><trkpt lat="42.1441699" lon="13.5197641"><ele>1358.0</ele><time>2026-05-03T10:59:04.022Z</time></trkpt><trkpt lat="42.1439901" lon="13.5196878"><ele>1358.0</ele><time>2026-05-03T10:59:05.019Z</time></trkpt><trkpt lat="42.1438069" lon="13.5195907"><ele>1357.3333333333335</ele><time>2026-05-03T10:59:06.011Z</time></trkpt><trkpt lat="42.1436193" lon="13.5194732"><ele>1356.6666666666667</ele><time>2026-05-03T10:59:07.008Z</time></trkpt><trkpt lat="42.143435" lon="13.5193452"><ele>1356.0</ele><time>2026-05-03T10:59:08.014Z</time></trkpt><trkpt lat="42.1432472" lon="13.5192259"><ele>1353.6666666666667</ele><time>2026-05-03T10:59:09.024Z</time></trkpt><trkpt lat="42.1430572" lon="13.5191047"><ele>1351.3333333333335</ele><time>2026-05-03T10:59:10.016Z</time></trkpt><trkpt lat="42.1428727" lon="13.5189836"><ele>1349.0</ele><time>2026-05-03T10:59:11.009Z</time></trkpt><trkpt lat="42.1426974" lon="13.5188633"><ele>1349.0</ele><time>2026-05-03T10:59:12.013Z</time></trkpt><trkpt lat="42.1425233" lon="13.5187477"><ele>1349.0</ele><time>2026-05-03T10:59:13.011Z</time></trkpt><trkpt lat="42.1423567" lon="13.5186378"><ele>1349.0</ele><time>2026-05-03T10:59:14.029Z</time></trkpt><trkpt lat="42.142196" lon="13.5185338"><ele>1349.0</ele><time>2026-05-03T10:59:15.008Z</time></trkpt><trkpt lat="42.1420464" lon="13.5184401"><ele>1349.0</ele><time>2026-05-03T10:59:16.011Z</time></trkpt><trkpt lat="42.1419089" lon="13.5183607"><ele>1349.0</ele><time>2026-05-03T10:59:17.011Z</time></trkpt><trkpt lat="42.1417888" lon="13.5183054"><ele>1349.0</ele><time>2026-05-03T10:59:18.011Z</time></trkpt><trkpt lat="42.1416765" lon="13.5182639"><ele>1349.0</ele><time>2026-05-03T10:59:19.019Z</time></trkpt><trkpt lat="42.1415777" lon="13.5182294"><ele>1349.0</ele><time>2026-05-03T10:59:20.013Z</time></trkpt><trkpt lat="42.141492" lon="13.5181797"><ele>1349.0</ele><time>2026-05-03T10:59:21.01Z</time></trkpt><trkpt lat="42.141418" lon="13.518111"><ele>1349.0</ele><time>2026-05-03T10:59:22.016Z</time></trkpt><trkpt lat="42.1413529" lon="13.5180188"><ele>1349.0</ele><time>2026-05-03T10:59:23.008Z</time></trkpt><trkpt lat="42.1412939" lon="13.5179106"><ele>1349.8000000000002</ele><time>2026-05-03T10:59:24.005Z</time></trkpt><trkpt lat="42.1412554" lon="13.5177923"><ele>1350.6000000000001</ele><time>2026-05-03T10:59:25.015Z</time></trkpt><trkpt lat="42.141241" lon="13.5176659"><ele>1351.4</ele><time>2026-05-03T10:59:26.026Z</time></trkpt><trkpt lat="42.1412512" lon="13.5175283"><ele>1352.2</ele><time>2026-05-03T10:59:27.007Z</time></trkpt><trkpt lat="42.1412896" lon="13.517376"><ele>1353.0</ele><time>2026-05-03T10:59:28.016Z</time></trkpt><trkpt lat="42.1413398" lon="13.5172093"><ele>1354.3333333333333</ele><time>2026-05-03T10:59:29.002Z</time></trkpt><trkpt lat="42.1413876" lon="13.5170199"><ele>1355.6666666666665</ele><time>2026-05-03T10:59:30.009Z</time></trkpt><trkpt lat="42.1414306" lon="13.516814"><ele>1357.0</ele><time>2026-05-03T10:59:31.016Z</time></trkpt><trkpt lat="42.141472" lon="13.5165944"><ele>1357.0</ele><time>2026-05-03T10:59:32.011Z</time></trkpt><trkpt lat="42.1415195" lon="13.5163662"><ele>1357.0</ele><time>2026-05-03T10:59:33.011Z</time></trkpt><trkpt lat="42.141575" lon="13.5161427"><ele>1357.0</ele><time>2026-05-03T10:59:34.016Z</time></trkpt><trkpt lat="42.1416326" lon="13.5159174"><ele>1355.6666666666665</ele><time>2026-05-03T10:59:35.014Z</time></trkpt><trkpt lat="42.1416885" lon="13.5157025"><ele>1354.3333333333333</ele><time>2026-05-03T10:59:36.017Z</time></trkpt><trkpt lat="42.1417347" lon="13.5155052"><ele>1353.0</ele><time>2026-05-03T10:59:37.005Z</time></trkpt><trkpt lat="42.1417764" lon="13.5153175"><ele>1353.0</ele><time>2026-05-03T10:59:38.02Z</time></trkpt><trkpt lat="42.1418012" lon="13.5151488"><ele>1353.0</ele><time>2026-05-03T10:59:39.016Z</time></trkpt><trkpt lat="42.1417963" lon="13.5149937"><ele>1353.0</ele><time>2026-05-03T10:59:40.015Z</time></trkpt><trkpt lat="42.1417548" lon="13.5148511"><ele>1353.0</ele><time>2026-05-03T10:59:41.012Z</time></trkpt><trkpt lat="42.1416848" lon="13.5147307"><ele>1353.0</ele><time>2026-05-03T10:59:42.028Z</time></trkpt><trkpt lat="42.1415817" lon="13.5146257"><ele>1353.0</ele><time>2026-05-03T10:59:43.015Z</time></trkpt><trkpt lat="42.1414685" lon="13.5145239"><ele>1353.0</ele><time>2026-05-03T10:59:44.01Z</time></trkpt><trkpt lat="42.1413487" lon="13.5144075"><ele>1353.0</ele><time>2026-05-03T10:59:45.015Z</time></trkpt><trkpt lat="42.1412333" lon="13.514278"><ele>1355.3333333333333</ele><time>2026-05-03T10:59:46.015Z</time></trkpt><trkpt lat="42.1411104" lon="13.5141414"><ele>1357.6666666666665</ele><time>2026-05-03T10:59:47.012Z</time></trkpt><trkpt lat="42.140985" lon="13.5140049"><ele>1360.0</ele><time>2026-05-03T10:59:48.017Z</time></trkpt><trkpt lat="42.1408602" lon="13.5138723"><ele>1360.0</ele><time>2026-05-03T10:59:49.018Z</time></trkpt><trkpt lat="42.1407467" lon="13.5137473"><ele>1360.0</ele><time>2026-05-03T10:59:50.016Z</time></trkpt><trkpt lat="42.140647" lon="13.5136332"><ele>1360.0</ele><time>2026-05-03T10:59:51.013Z</time></trkpt><trkpt lat="42.140562" lon="13.5135356"><ele>1360.0</ele><time>2026-05-03T10:59:52.022Z</time></trkpt><trkpt lat="42.1404947" lon="13.5134512"><ele>1361.0</ele><time>2026-05-03T10:59:53.012Z</time></trkpt><trkpt lat="42.1404458" lon="13.5133713"><ele>1362.0</ele><time>2026-05-03T10:59:54.007Z</time></trkpt><trkpt lat="42.1404434" lon="13.5132314"><ele>1363.0</ele><time>2026-05-03T10:59:56.004Z</time></trkpt><trkpt lat="42.1405441" lon="13.513118"><ele>1364.0</ele><time>2026-05-03T10:59:58.019Z</time></trkpt><trkpt lat="42.1405976" lon="13.5130558"><ele>1365.0</ele><time>2026-05-03T10:59:59.028Z</time></trkpt><trkpt lat="42.140616" lon="13.5129631"><ele>1363.2</ele><time>2026-05-03T11:00:00.022Z</time></trkpt><trkpt lat="42.140618" lon="13.5128619"><ele>1361.4</ele><time>2026-05-03T11:00:01.017Z</time></trkpt><trkpt lat="42.1405932" lon="13.512758"><ele>1359.6</ele><time>2026-05-03T11:00:02.025Z</time></trkpt><trkpt lat="42.1405593" lon="13.5126415"><ele>1357.8</ele><time>2026-05-03T11:00:03.011Z</time></trkpt><trkpt lat="42.1405355" lon="13.5125011"><ele>1356.0</ele><time>2026-05-03T11:00:04.019Z</time></trkpt><trkpt lat="42.1405322" lon="13.5123531"><ele>1356.0</ele><time>2026-05-03T11:00:05.007Z</time></trkpt><trkpt lat="42.1405331" lon="13.5121937"><ele>1356.0</ele><time>2026-05-03T11:00:06.022Z</time></trkpt><trkpt lat="42.1405305" lon="13.5120244"><ele>1356.0</ele><time>2026-05-03T11:00:07.016Z</time></trkpt><trkpt lat="42.1405237" lon="13.5118468"><ele>1356.0</ele><time>2026-05-03T11:00:08.009Z</time></trkpt><trkpt lat="42.1405205" lon="13.5116754"><ele>1352.5</ele><time>2026-05-03T11:00:09.014Z</time></trkpt><trkpt lat="42.1405208" lon="13.511508"><ele>1349.0</ele><time>2026-05-03T11:00:10.018Z</time></trkpt><trkpt lat="42.140522" lon="13.5113391"><ele>1345.5</ele><time>2026-05-03T11:00:11.01Z</time></trkpt><trkpt lat="42.1405201" lon="13.5111747"><ele>1342.0</ele><time>2026-05-03T11:00:12.019Z</time></trkpt><trkpt lat="42.1405149" lon="13.5110079"><ele>1341.1999999999998</ele><time>2026-05-03T11:00:13.016Z</time></trkpt><trkpt lat="42.1405113" lon="13.5108533"><ele>1340.4</ele><time>2026-05-03T11:00:14.008Z</time></trkpt><trkpt lat="42.1405115" lon="13.510708"><ele>1339.6</ele><time>2026-05-03T11:00:15.011Z</time></trkpt><trkpt lat="42.140523" lon="13.510572"><ele>1338.8000000000002</ele><time>2026-05-03T11:00:16.023Z</time></trkpt><trkpt lat="42.1405559" lon="13.5104482"><ele>1338.0</ele><time>2026-05-03T11:00:17.016Z</time></trkpt><trkpt lat="42.1406187" lon="13.5103479"><ele>1337.4</ele><time>2026-05-03T11:00:18.023Z</time></trkpt><trkpt lat="42.1407028" lon="13.510273"><ele>1336.8000000000002</ele><time>2026-05-03T11:00:19.014Z</time></trkpt><trkpt lat="42.1407885" lon="13.5102053"><ele>1336.2</ele><time>2026-05-03T11:00:20.01Z</time></trkpt><trkpt lat="42.1408754" lon="13.5101281"><ele>1335.6</ele><time>2026-05-03T11:00:21.005Z</time></trkpt><trkpt lat="42.140947" lon="13.5100339"><ele>1335.0</ele><time>2026-05-03T11:00:22.01Z</time></trkpt><trkpt lat="42.1409996" lon="13.5099253"><ele>1338.0</ele><time>2026-05-03T11:00:23.011Z</time></trkpt><trkpt lat="42.1410361" lon="13.509806"><ele>1341.0</ele><time>2026-05-03T11:00:24.015Z</time></trkpt><trkpt lat="42.1410434" lon="13.5096733"><ele>1344.0</ele><time>2026-05-03T11:00:25.006Z</time></trkpt><trkpt lat="42.1410308" lon="13.5095441"><ele>1347.0</ele><time>2026-05-03T11:00:26.013Z</time></trkpt><trkpt lat="42.1409993" lon="13.509411"><ele>1350.0</ele><time>2026-05-03T11:00:27.006Z</time></trkpt><trkpt lat="42.1409545" lon="13.5092888"><ele>1350.2</ele><time>2026-05-03T11:00:28.008Z</time></trkpt><trkpt lat="42.1408914" lon="13.5091854"><ele>1350.4</ele><time>2026-05-03T11:00:29.011Z</time></trkpt><trkpt lat="42.1408089" lon="13.5090968"><ele>1350.6</ele><time>2026-05-03T11:00:30.006Z</time></trkpt><trkpt lat="42.1407164" lon="13.5090266"><ele>1350.8</ele><time>2026-05-03T11:00:30.997Z</time></trkpt><trkpt lat="42.1406134" lon="13.5089768"><ele>1351.0</ele><time>2026-05-03T11:00:32.001Z</time></trkpt><trkpt lat="42.140509" lon="13.5089582"><ele>1349.0</ele><time>2026-05-03T11:00:32.998Z</time></trkpt><trkpt lat="42.1403994" lon="13.5089759"><ele>1347.0</ele><time>2026-05-03T11:00:34.011Z</time></trkpt><trkpt lat="42.1402912" lon="13.509024"><ele>1345.0</ele><time>2026-05-03T11:00:35.004Z</time></trkpt><trkpt lat="42.140195" lon="13.5091044"><ele>1343.0</ele><time>2026-05-03T11:00:36.009Z</time></trkpt><trkpt lat="42.140101" lon="13.5092079"><ele>1343.0</ele><time>2026-05-03T11:00:37.014Z</time></trkpt><trkpt lat="42.140025" lon="13.5093474"><ele>1343.0</ele><time>2026-05-03T11:00:38Z</time></trkpt><trkpt lat="42.1399686" lon="13.5095147"><ele>1343.0</ele><time>2026-05-03T11:00:38.991Z</time></trkpt><trkpt lat="42.1399311" lon="13.5096939"><ele>1343.0</ele><time>2026-05-03T11:00:40.007Z</time></trkpt><trkpt lat="42.1399111" lon="13.5098893"><ele>1340.3333333333335</ele><time>2026-05-03T11:00:40.998Z</time></trkpt><trkpt lat="42.1398903" lon="13.5100953"><ele>1337.6666666666667</ele><time>2026-05-03T11:00:42.018Z</time></trkpt><trkpt lat="42.1398703" lon="13.5102983"><ele>1335.0</ele><time>2026-05-03T11:00:43.002Z</time></trkpt><trkpt lat="42.1398394" lon="13.5104937"><ele>1332.75</ele><time>2026-05-03T11:00:44.009Z</time></trkpt><trkpt lat="42.1397998" lon="13.5106773"><ele>1330.5</ele><time>2026-05-03T11:00:44.995Z</time></trkpt><trkpt lat="42.1397517" lon="13.5108492"><ele>1328.25</ele><time>2026-05-03T11:00:45.999Z</time></trkpt><trkpt lat="42.1397009" lon="13.5110036"><ele>1326.0</ele><time>2026-05-03T11:00:47.005Z</time></trkpt><trkpt lat="42.1396373" lon="13.5111345"><ele>1326.0</ele><time>2026-05-03T11:00:48.007Z</time></trkpt><trkpt lat="42.1395597" lon="13.5112257"><ele>1326.0</ele><time>2026-05-03T11:00:49.005Z</time></trkpt><trkpt lat="42.1394647" lon="13.5112768"><ele>1326.0</ele><time>2026-05-03T11:00:50.005Z</time></trkpt><trkpt lat="42.1393598" lon="13.5112928"><ele>1326.0</ele><time>2026-05-03T11:00:51.012Z</time></trkpt><trkpt lat="42.1392408" lon="13.5112705"><ele>1326.0</ele><time>2026-05-03T11:00:52.003Z</time></trkpt><trkpt lat="42.139129" lon="13.511221"><ele>1327.0</ele><time>2026-05-03T11:00:53.005Z</time></trkpt><trkpt lat="42.1390321" lon="13.5111483"><ele>1328.0</ele><time>2026-05-03T11:00:54.014Z</time></trkpt><trkpt lat="42.1389505" lon="13.5110565"><ele>1329.0</ele><time>2026-05-03T11:00:55.006Z</time></trkpt><trkpt lat="42.1388894" lon="13.5109379"><ele>1330.0</ele><time>2026-05-03T11:00:56.002Z</time></trkpt><trkpt lat="42.1388469" lon="13.5107818"><ele>1331.0</ele><time>2026-05-03T11:00:57.014Z</time></trkpt><trkpt lat="42.1388252" lon="13.5106139"><ele>1331.0</ele><time>2026-05-03T11:00:58.016Z</time></trkpt><trkpt lat="42.1388066" lon="13.5104282"><ele>1331.0</ele><time>2026-05-03T11:00:58.998Z</time></trkpt><trkpt lat="42.1387824" lon="13.5102395"><ele>1331.0</ele><time>2026-05-03T11:01:00.007Z</time></trkpt><trkpt lat="42.138761" lon="13.5100545"><ele>1331.0</ele><time>2026-05-03T11:01:01.009Z</time></trkpt><trkpt lat="42.1387404" lon="13.5098791"><ele>1329.4</ele><time>2026-05-03T11:01:02.001Z</time></trkpt><trkpt lat="42.1387206" lon="13.5097216"><ele>1327.8</ele><time>2026-05-03T11:01:03.005Z</time></trkpt><trkpt lat="42.1387125" lon="13.5095746"><ele>1326.2</ele><time>2026-05-03T11:01:04.007Z</time></trkpt><trkpt lat="42.1387055" lon="13.509445"><ele>1324.6000000000001</ele><time>2026-05-03T11:01:05.004Z</time></trkpt><trkpt lat="42.1387053" lon="13.5093306"><ele>1323.0</ele><time>2026-05-03T11:01:06.006Z</time></trkpt><trkpt lat="42.1387172" lon="13.5092153"><ele>1317.75</ele><time>2026-05-03T11:01:07.007Z</time></trkpt><trkpt lat="42.1387441" lon="13.509092"><ele>1312.5</ele><time>2026-05-03T11:01:08.01Z</time></trkpt><trkpt lat="42.1387928" lon="13.5089607"><ele>1307.25</ele><time>2026-05-03T11:01:09.004Z</time></trkpt><trkpt lat="42.1388547" lon="13.5088158"><ele>1302.0</ele><time>2026-05-03T11:01:10.006Z</time></trkpt><trkpt lat="42.138921" lon="13.5086562"><ele>1298.5</ele><time>2026-05-03T11:01:11.002Z</time></trkpt><trkpt lat="42.1389902" lon="13.5084898"><ele>1295.0</ele><time>2026-05-03T11:01:12.001Z</time></trkpt><trkpt lat="42.1390562" lon="13.5083262"><ele>1291.5</ele><time>2026-05-03T11:01:12.99Z</time></trkpt><trkpt lat="42.1391225" lon="13.5081721"><ele>1288.0</ele><time>2026-05-03T11:01:14.001Z</time></trkpt><trkpt lat="42.1391943" lon="13.5080394"><ele>1290.8000000000002</ele><time>2026-05-03T11:01:14.99Z</time></trkpt><trkpt lat="42.1392672" lon="13.5079112"><ele>1293.6</ele><time>2026-05-03T11:01:15.996Z</time></trkpt><trkpt lat="42.1393264" lon="13.5077974"><ele>1296.4</ele><time>2026-05-03T11:01:16.997Z</time></trkpt><trkpt lat="42.1393691" lon="13.5076971"><ele>1299.1999999999998</ele><time>2026-05-03T11:01:18.008Z</time></trkpt><trkpt lat="42.1393793" lon="13.507599"><ele>1302.0</ele><time>2026-05-03T11:01:19.004Z</time></trkpt><trkpt lat="42.139351" lon="13.507508"><ele>1302.0</ele><time>2026-05-03T11:01:20.006Z</time></trkpt><trkpt lat="42.1392984" lon="13.5074535"><ele>1302.0</ele><time>2026-05-03T11:01:20.997Z</time></trkpt><trkpt lat="42.1392243" lon="13.5074284"><ele>1302.0</ele><time>2026-05-03T11:01:22.014Z</time></trkpt><trkpt lat="42.139148" lon="13.5074615"><ele>1302.0</ele><time>2026-05-03T11:01:23.004Z</time></trkpt><trkpt lat="42.1390834" lon="13.5075485"><ele>1302.0</ele><time>2026-05-03T11:01:24.002Z</time></trkpt><trkpt lat="42.1390389" lon="13.5076774"><ele>1302.0</ele><time>2026-05-03T11:01:25.002Z</time></trkpt><trkpt lat="42.1390008" lon="13.5078331"><ele>1298.5</ele><time>2026-05-03T11:01:26.007Z</time></trkpt><trkpt lat="42.1389541" lon="13.5080043"><ele>1295.0</ele><time>2026-05-03T11:01:27.014Z</time></trkpt><trkpt lat="42.1388848" lon="13.5081783"><ele>1291.5</ele><time>2026-05-03T11:01:28.004Z</time></trkpt><trkpt lat="42.138796" lon="13.508356"><ele>1288.0</ele><time>2026-05-03T11:01:29.007Z</time></trkpt><trkpt lat="42.1386963" lon="13.5085186"><ele>1288.0</ele><time>2026-05-03T11:01:29.999Z</time></trkpt><trkpt lat="42.1385955" lon="13.5086777"><ele>1288.0</ele><time>2026-05-03T11:01:31.007Z</time></trkpt><trkpt lat="42.1384977" lon="13.5088265"><ele>1288.0</ele><time>2026-05-03T11:01:31.994Z</time></trkpt><trkpt lat="42.1383936" lon="13.5089604"><ele>1288.0</ele><time>2026-05-03T11:01:33Z</time></trkpt><trkpt lat="42.1382733" lon="13.5090646"><ele>1288.3333333333333</ele><time>2026-05-03T11:01:34.011Z</time></trkpt><trkpt lat="42.1381312" lon="13.5091278"><ele>1288.6666666666667</ele><time>2026-05-03T11:01:35.012Z</time></trkpt><trkpt lat="42.137976" lon="13.5091636"><ele>1289.0</ele><time>2026-05-03T11:01:36.023Z</time></trkpt><trkpt lat="42.1378144" lon="13.5091912"><ele>1289.0</ele><time>2026-05-03T11:01:36.997Z</time></trkpt><trkpt lat="42.1376499" lon="13.5092288"><ele>1289.0</ele><time>2026-05-03T11:01:38.016Z</time></trkpt><trkpt lat="42.137476" lon="13.5092819"><ele>1289.0</ele><time>2026-05-03T11:01:39.003Z</time></trkpt><trkpt lat="42.1372996" lon="13.5093578"><ele>1292.6666666666667</ele><time>2026-05-03T11:01:40.01Z</time></trkpt><trkpt lat="42.1371214" lon="13.5094516"><ele>1296.3333333333333</ele><time>2026-05-03T11:01:41.003Z</time></trkpt><trkpt lat="42.1369441" lon="13.509555"><ele>1300.0</ele><time>2026-05-03T11:01:42.003Z</time></trkpt><trkpt lat="42.1367719" lon="13.5096681"><ele>1300.0</ele><time>2026-05-03T11:01:43.012Z</time></trkpt><trkpt lat="42.1365999" lon="13.5097814"><ele>1300.0</ele><time>2026-05-03T11:01:44Z</time></trkpt><trkpt lat="42.136426" lon="13.509882"><ele>1300.0</ele><time>2026-05-03T11:01:44.994Z</time></trkpt><trkpt lat="42.136251" lon="13.5099841"><ele>1293.0</ele><time>2026-05-03T11:01:45.995Z</time></trkpt><trkpt lat="42.1360837" lon="13.5100758"><ele>1286.0</ele><time>2026-05-03T11:01:47.004Z</time></trkpt><trkpt lat="42.1359196" lon="13.5101695"><ele>1279.0</ele><time>2026-05-03T11:01:48.003Z</time></trkpt><trkpt lat="42.1357562" lon="13.5102683"><ele>1278.6666666666665</ele><time>2026-05-03T11:01:48.999Z</time></trkpt><trkpt lat="42.1355894" lon="13.5103783"><ele>1278.3333333333333</ele><time>2026-05-03T11:01:50.008Z</time></trkpt><trkpt lat="42.1354267" lon="13.5105087"><ele>1278.0</ele><time>2026-05-03T11:01:51Z</time></trkpt><trkpt lat="42.1352668" lon="13.5106544"><ele>1278.0</ele><time>2026-05-03T11:01:52.011Z</time></trkpt><trkpt lat="42.1351045" lon="13.5108002"><ele>1278.0</ele><time>2026-05-03T11:01:52.995Z</time></trkpt><trkpt lat="42.134941" lon="13.5109523"><ele>1278.0</ele><time>2026-05-03T11:01:54.001Z</time></trkpt><trkpt lat="42.1347746" lon="13.5111022"><ele>1275.6666666666667</ele><time>2026-05-03T11:01:54.996Z</time></trkpt><trkpt lat="42.1346037" lon="13.5112494"><ele>1273.3333333333335</ele><time>2026-05-03T11:01:56Z</time></trkpt><trkpt lat="42.1344414" lon="13.5113962"><ele>1271.0</ele><time>2026-05-03T11:01:56.997Z</time></trkpt><trkpt lat="42.1342885" lon="13.5115433"><ele>1271.0</ele><time>2026-05-03T11:01:58.002Z</time></trkpt><trkpt lat="42.1341391" lon="13.5116971"><ele>1271.0</ele><time>2026-05-03T11:01:59.005Z</time></trkpt><trkpt lat="42.1339932" lon="13.5118426"><ele>1271.0</ele><time>2026-05-03T11:02:00.002Z</time></trkpt><trkpt lat="42.1338422" lon="13.5119736"><ele>1270.3333333333335</ele><time>2026-05-03T11:02:01.002Z</time></trkpt><trkpt lat="42.1336918" lon="13.5120893"><ele>1269.6666666666667</ele><time>2026-05-03T11:02:02.001Z</time></trkpt><trkpt lat="42.133546" lon="13.5122039"><ele>1269.0</ele><time>2026-05-03T11:02:03.002Z</time></trkpt><trkpt lat="42.1334095" lon="13.5123302"><ele>1269.0</ele><time>2026-05-03T11:02:04.001Z</time></trkpt><trkpt lat="42.133285" lon="13.5124679"><ele>1269.0</ele><time>2026-05-03T11:02:04.993Z</time></trkpt><trkpt lat="42.1331558" lon="13.5126061"><ele>1269.0</ele><time>2026-05-03T11:02:06.004Z</time></trkpt><trkpt lat="42.1330305" lon="13.5127251"><ele>1271.3333333333333</ele><time>2026-05-03T11:02:07Z</time></trkpt><trkpt lat="42.1329036" lon="13.5128223"><ele>1273.6666666666665</ele><time>2026-05-03T11:02:08.003Z</time></trkpt><trkpt lat="42.132763" lon="13.512898"><ele>1276.0</ele><time>2026-05-03T11:02:08.998Z</time></trkpt><trkpt lat="42.1326092" lon="13.5129493"><ele>1276.0</ele><time>2026-05-03T11:02:10.015Z</time></trkpt><trkpt lat="42.1324449" lon="13.512997"><ele>1276.0</ele><time>2026-05-03T11:02:11.005Z</time></trkpt><trkpt lat="42.1322724" lon="13.5130528"><ele>1276.0</ele><time>2026-05-03T11:02:12.008Z</time></trkpt><trkpt lat="42.1320963" lon="13.5131196"><ele>1270.3333333333333</ele><time>2026-05-03T11:02:12.998Z</time></trkpt><trkpt lat="42.1319155" lon="13.5131852"><ele>1264.6666666666667</ele><time>2026-05-03T11:02:13.998Z</time></trkpt><trkpt lat="42.131731" lon="13.5132475"><ele>1259.0</ele><time>2026-05-03T11:02:15Z</time></trkpt><trkpt lat="42.1315371" lon="13.5133035"><ele>1255.6666666666667</ele><time>2026-05-03T11:02:16.007Z</time></trkpt><trkpt lat="42.1313418" lon="13.5133482"><ele>1252.3333333333333</ele><time>2026-05-03T11:02:17.009Z</time></trkpt><trkpt lat="42.1311431" lon="13.5133859"><ele>1249.0</ele><time>2026-05-03T11:02:18.008Z</time></trkpt><trkpt lat="42.1309505" lon="13.5134172"><ele>1249.0</ele><time>2026-05-03T11:02:19.001Z</time></trkpt><trkpt lat="42.1307693" lon="13.5134576"><ele>1249.0</ele><time>2026-05-03T11:02:19.997Z</time></trkpt><trkpt lat="42.1305906" lon="13.5134911"><ele>1249.0</ele><time>2026-05-03T11:02:21.01Z</time></trkpt><trkpt lat="42.1304184" lon="13.5135273"><ele>1242.0</ele><time>2026-05-03T11:02:22.009Z</time></trkpt><trkpt lat="42.130242" lon="13.5135663"><ele>1235.0</ele><time>2026-05-03T11:02:23.008Z</time></trkpt><trkpt lat="42.130069" lon="13.5136057"><ele>1228.0</ele><time>2026-05-03T11:02:24.004Z</time></trkpt><trkpt lat="42.1298973" lon="13.5136481"><ele>1226.0</ele><time>2026-05-03T11:02:25.009Z</time></trkpt><trkpt lat="42.1297329" lon="13.5136907"><ele>1224.0</ele><time>2026-05-03T11:02:26.016Z</time></trkpt><trkpt lat="42.129569" lon="13.5137355"><ele>1222.0</ele><time>2026-05-03T11:02:27.021Z</time></trkpt><trkpt lat="42.1294093" lon="13.5137779"><ele>1225.75</ele><time>2026-05-03T11:02:28.006Z</time></trkpt><trkpt lat="42.1292594" lon="13.5138138"><ele>1229.5</ele><time>2026-05-03T11:02:28.997Z</time></trkpt><trkpt lat="42.12912" lon="13.5138502"><ele>1233.25</ele><time>2026-05-03T11:02:30.013Z</time></trkpt><trkpt lat="42.1289952" lon="13.513892"><ele>1237.0</ele><time>2026-05-03T11:02:31.004Z</time></trkpt><trkpt lat="42.128875" lon="13.5139414"><ele>1237.0</ele><time>2026-05-03T11:02:32.01Z</time></trkpt><trkpt lat="42.1287706" lon="13.5139895"><ele>1237.0</ele><time>2026-05-03T11:02:33.012Z</time></trkpt><trkpt lat="42.1286792" lon="13.5140348"><ele>1237.0</ele><time>2026-05-03T11:02:33.998Z</time></trkpt><trkpt lat="42.1285944" lon="13.5140721"><ele>1237.0</ele><time>2026-05-03T11:02:35.002Z</time></trkpt><trkpt lat="42.1285157" lon="13.514071"><ele>1237.0</ele><time>2026-05-03T11:02:35.992Z</time></trkpt><trkpt lat="42.1284554" lon="13.5140253"><ele>1237.0</ele><time>2026-05-03T11:02:36.99Z</time></trkpt><trkpt lat="42.12843" lon="13.5139403"><ele>1237.0</ele><time>2026-05-03T11:02:38.024Z</time></trkpt><trkpt lat="42.1284372" lon="13.5138417"><ele>1237.0</ele><time>2026-05-03T11:02:38.985Z</time></trkpt><trkpt lat="42.1284935" lon="13.5137714"><ele>1237.0</ele><time>2026-05-03T11:02:39.982Z</time></trkpt><trkpt lat="42.1285764" lon="13.5137477"><ele>1237.0</ele><time>2026-05-03T11:02:41.001Z</time></trkpt><trkpt lat="42.1286742" lon="13.5137698"><ele>1237.0</ele><time>2026-05-03T11:02:42.001Z</time></trkpt><trkpt lat="42.1287696" lon="13.5137785"><ele>1237.0</ele><time>2026-05-03T11:02:43.011Z</time></trkpt><trkpt lat="42.1288684" lon="13.5137592"><ele>1233.25</ele><time>2026-05-03T11:02:44.009Z</time></trkpt><trkpt lat="42.1289873" lon="13.5137288"><ele>1229.5</ele><time>2026-05-03T11:02:44.989Z</time></trkpt><trkpt lat="42.129121" lon="13.5136822"><ele>1225.75</ele><time>2026-05-03T11:02:46.005Z</time></trkpt><trkpt lat="42.1292706" lon="13.5136235"><ele>1222.0</ele><time>2026-05-03T11:02:47.003Z</time></trkpt><trkpt lat="42.1294337" lon="13.5135601"><ele>1222.0</ele><time>2026-05-03T11:02:47.993Z</time></trkpt><trkpt lat="42.1296079" lon="13.5134854"><ele>1222.0</ele><time>2026-05-03T11:02:48.991Z</time></trkpt><trkpt lat="42.1297874" lon="13.5133985"><ele>1222.0</ele><time>2026-05-03T11:02:50.003Z</time></trkpt><trkpt lat="42.1299694" lon="13.5133107"><ele>1224.0</ele><time>2026-05-03T11:02:51.024Z</time></trkpt><trkpt lat="42.1301524" lon="13.5132218"><ele>1226.0</ele><time>2026-05-03T11:02:52.001Z</time></trkpt><trkpt lat="42.1303325" lon="13.5131351"><ele>1228.0</ele><time>2026-05-03T11:02:53.007Z</time></trkpt><trkpt lat="42.1305063" lon="13.51305"><ele>1228.0</ele><time>2026-05-03T11:02:54Z</time></trkpt><trkpt lat="42.1306759" lon="13.5129619"><ele>1228.0</ele><time>2026-05-03T11:02:55Z</time></trkpt><trkpt lat="42.1308392" lon="13.5128759"><ele>1228.0</ele><time>2026-05-03T11:02:56.009Z</time></trkpt><trkpt lat="42.1309973" lon="13.512797"><ele>1223.5</ele><time>2026-05-03T11:02:57.022Z</time></trkpt><trkpt lat="42.1311454" lon="13.5127271"><ele>1219.0</ele><time>2026-05-03T11:02:58.011Z</time></trkpt><trkpt lat="42.1312868" lon="13.5126629"><ele>1214.5</ele><time>2026-05-03T11:02:58.999Z</time></trkpt><trkpt lat="42.1314205" lon="13.5126044"><ele>1210.0</ele><time>2026-05-03T11:03:00.015Z</time></trkpt><trkpt lat="42.1315498" lon="13.5125574"><ele>1212.2</ele><time>2026-05-03T11:03:01.002Z</time></trkpt><trkpt lat="42.1316816" lon="13.5125244"><ele>1214.4</ele><time>2026-05-03T11:03:02.016Z</time></trkpt><trkpt lat="42.1318001" lon="13.5125074"><ele>1216.6</ele><time>2026-05-03T11:03:03.007Z</time></trkpt><trkpt lat="42.1319053" lon="13.5124948"><ele>1218.8</ele><time>2026-05-03T11:03:04.01Z</time></trkpt><trkpt lat="42.1319934" lon="13.5124774"><ele>1221.0</ele><time>2026-05-03T11:03:05.003Z</time></trkpt><trkpt lat="42.132059" lon="13.512424"><ele>1221.0</ele><time>2026-05-03T11:03:06.005Z</time></trkpt><trkpt lat="42.1320961" lon="13.5123277"><ele>1221.0</ele><time>2026-05-03T11:03:07.005Z</time></trkpt><trkpt lat="42.1320832" lon="13.5122271"><ele>1221.0</ele><time>2026-05-03T11:03:08.007Z</time></trkpt><trkpt lat="42.132042" lon="13.5121472"><ele>1221.0</ele><time>2026-05-03T11:03:09.002Z</time></trkpt><trkpt lat="42.131964" lon="13.5120984"><ele>1221.0</ele><time>2026-05-03T11:03:10.004Z</time></trkpt><trkpt lat="42.1318708" lon="13.5120996"><ele>1221.0</ele><time>2026-05-03T11:03:11.002Z</time></trkpt><trkpt lat="42.1317642" lon="13.5121458"><ele>1221.0</ele><time>2026-05-03T11:03:12.003Z</time></trkpt><trkpt lat="42.1316551" lon="13.5122101"><ele>1221.0</ele><time>2026-05-03T11:03:13.008Z</time></trkpt><trkpt lat="42.1315277" lon="13.512267"><ele>1221.0</ele><time>2026-05-03T11:03:14.014Z</time></trkpt><trkpt lat="42.1313793" lon="13.5123185"><ele>1221.0</ele><time>2026-05-03T11:03:15.001Z</time></trkpt><trkpt lat="42.1312135" lon="13.5123636"><ele>1217.3333333333333</ele><time>2026-05-03T11:03:16.013Z</time></trkpt><trkpt lat="42.1310343" lon="13.5124059"><ele>1213.6666666666665</ele><time>2026-05-03T11:03:17.005Z</time></trkpt><trkpt lat="42.1308479" lon="13.5124349"><ele>1210.0</ele><time>2026-05-03T11:03:18.012Z</time></trkpt><trkpt lat="42.1306572" lon="13.5124679"><ele>1206.3333333333333</ele><time>2026-05-03T11:03:18.998Z</time></trkpt><trkpt lat="42.1304675" lon="13.512503"><ele>1202.6666666666667</ele><time>2026-05-03T11:03:20.017Z</time></trkpt><trkpt lat="42.1302747" lon="13.5125385"><ele>1199.0</ele><time>2026-05-03T11:03:21.022Z</time></trkpt><trkpt lat="42.1300801" lon="13.5125739"><ele>1194.3333333333335</ele><time>2026-05-03T11:03:22.012Z</time></trkpt><trkpt lat="42.1298916" lon="13.5126063"><ele>1189.6666666666667</ele><time>2026-05-03T11:03:23.014Z</time></trkpt><trkpt lat="42.1297089" lon="13.5126386"><ele>1185.0</ele><time>2026-05-03T11:03:24.005Z</time></trkpt><trkpt lat="42.12953" lon="13.5126704"><ele>1185.0</ele><time>2026-05-03T11:03:25.01Z</time></trkpt><trkpt lat="42.1293549" lon="13.5126928"><ele>1185.0</ele><time>2026-05-03T11:03:26.012Z</time></trkpt><trkpt lat="42.1291871" lon="13.5127232"><ele>1185.0</ele><time>2026-05-03T11:03:27.004Z</time></trkpt><trkpt lat="42.1290203" lon="13.5127442"><ele>1183.0</ele><time>2026-05-03T11:03:28.01Z</time></trkpt><trkpt lat="42.1288605" lon="13.5127539"><ele>1181.0</ele><time>2026-05-03T11:03:29.014Z</time></trkpt><trkpt lat="42.1287004" lon="13.5127503"><ele>1179.0</ele><time>2026-05-03T11:03:30.011Z</time></trkpt><trkpt lat="42.1285443" lon="13.5127497"><ele>1179.0</ele><time>2026-05-03T11:03:31.002Z</time></trkpt><trkpt lat="42.1283891" lon="13.5127416"><ele>1179.0</ele><time>2026-05-03T11:03:32.002Z</time></trkpt><trkpt lat="42.1282328" lon="13.5127362"><ele>1179.0</ele><time>2026-05-03T11:03:33.012Z</time></trkpt><trkpt lat="42.1280767" lon="13.512754"><ele>1175.6666666666667</ele><time>2026-05-03T11:03:34.028Z</time></trkpt><trkpt lat="42.1279242" lon="13.5127964"><ele>1172.3333333333335</ele><time>2026-05-03T11:03:35.003Z</time></trkpt><trkpt lat="42.1277734" lon="13.5128606"><ele>1169.0</ele><time>2026-05-03T11:03:36.02Z</time></trkpt><trkpt lat="42.1276254" lon="13.5129344"><ele>1171.3333333333335</ele><time>2026-05-03T11:03:37.027Z</time></trkpt><trkpt lat="42.1274767" lon="13.5130025"><ele>1173.6666666666667</ele><time>2026-05-03T11:03:38.022Z</time></trkpt><trkpt lat="42.1273293" lon="13.5130751"><ele>1176.0</ele><time>2026-05-03T11:03:39.005Z</time></trkpt><trkpt lat="42.1271821" lon="13.5131529"><ele>1176.0</ele><time>2026-05-03T11:03:40.009Z</time></trkpt><trkpt lat="42.1270336" lon="13.5132473"><ele>1176.0</ele><time>2026-05-03T11:03:41.003Z</time></trkpt><trkpt lat="42.1268975" lon="13.513347"><ele>1176.0</ele><time>2026-05-03T11:03:42.014Z</time></trkpt><trkpt lat="42.1267652" lon="13.5134466"><ele>1176.0</ele><time>2026-05-03T11:03:43.021Z</time></trkpt><trkpt lat="42.1266389" lon="13.5135418"><ele>1176.0</ele><time>2026-05-03T11:03:44.007Z</time></trkpt><trkpt lat="42.1265132" lon="13.5136238"><ele>1176.0</ele><time>2026-05-03T11:03:45.018Z</time></trkpt><trkpt lat="42.1263819" lon="13.5136881"><ele>1176.0</ele><time>2026-05-03T11:03:46.014Z</time></trkpt><trkpt lat="42.1262456" lon="13.5137364"><ele>1176.5</ele><time>2026-05-03T11:03:47.013Z</time></trkpt><trkpt lat="42.1261184" lon="13.5137913"><ele>1177.0</ele><time>2026-05-03T11:03:48.008Z</time></trkpt><trkpt lat="42.125998" lon="13.5138541"><ele>1177.5</ele><time>2026-05-03T11:03:49.014Z</time></trkpt><trkpt lat="42.1258874" lon="13.5139393"><ele>1178.0</ele><time>2026-05-03T11:03:50.014Z</time></trkpt><trkpt lat="42.1257829" lon="13.5140432"><ele>1173.0</ele><time>2026-05-03T11:03:51.011Z</time></trkpt><trkpt lat="42.1256892" lon="13.5141652"><ele>1168.0</ele><time>2026-05-03T11:03:52.012Z</time></trkpt><trkpt lat="42.1256013" lon="13.5142857"><ele>1163.0</ele><time>2026-05-03T11:03:53.022Z</time></trkpt><trkpt lat="42.1255169" lon="13.5143897"><ele>1158.0</ele><time>2026-05-03T11:03:54.012Z</time></trkpt><trkpt lat="42.1254219" lon="13.5144636"><ele>1158.0</ele><time>2026-05-03T11:03:55.029Z</time></trkpt><trkpt lat="42.1253225" lon="13.5145046"><ele>1158.0</ele><time>2026-05-03T11:03:56.014Z</time></trkpt><trkpt lat="42.125219" lon="13.5144982"><ele>1158.0</ele><time>2026-05-03T11:03:57.016Z</time></trkpt><trkpt lat="42.125129" lon="13.5144421"><ele>1158.0</ele><time>2026-05-03T11:03:58.006Z</time></trkpt><trkpt lat="42.1250464" lon="13.5143804"><ele>1158.0</ele><time>2026-05-03T11:03:59.007Z</time></trkpt><trkpt lat="42.124956" lon="13.5143687"><ele>1155.8</ele><time>2026-05-03T11:04:00.014Z</time></trkpt><trkpt lat="42.1248627" lon="13.5144326"><ele>1153.6</ele><time>2026-05-03T11:04:01.013Z</time></trkpt><trkpt lat="42.1247841" lon="13.5145458"><ele>1151.4</ele><time>2026-05-03T11:04:02.024Z</time></trkpt><trkpt lat="42.124724" lon="13.5146519"><ele>1149.2</ele><time>2026-05-03T11:04:03.013Z</time></trkpt><trkpt lat="42.1246607" lon="13.5147102"><ele>1147.0</ele><time>2026-05-03T11:04:04.011Z</time></trkpt><trkpt lat="42.1245939" lon="13.5147055"><ele>1147.0</ele><time>2026-05-03T11:04:04.996Z</time></trkpt><trkpt lat="42.1245429" lon="13.514654"><ele>1147.0</ele><time>2026-05-03T11:04:06.018Z</time></trkpt><trkpt lat="42.1245252" lon="13.5145571"><ele>1147.0</ele><time>2026-05-03T11:04:07.008Z</time></trkpt><trkpt lat="42.1245683" lon="13.5144576"><ele>1147.0</ele><time>2026-05-03T11:04:08.012Z</time></trkpt><trkpt lat="42.1246328" lon="13.5143794"><ele>1147.0</ele><time>2026-05-03T11:04:09.002Z</time></trkpt><trkpt lat="42.1247246" lon="13.5142898"><ele>1147.0</ele><time>2026-05-03T11:04:10.008Z</time></trkpt><trkpt lat="42.1248155" lon="13.5141961"><ele>1149.75</ele><time>2026-05-03T11:04:11.005Z</time></trkpt><trkpt lat="42.1249305" lon="13.5141513"><ele>1152.5</ele><time>2026-05-03T11:04:12.021Z</time></trkpt><trkpt lat="42.1250611" lon="13.5141566"><ele>1155.25</ele><time>2026-05-03T11:04:13.004Z</time></trkpt><trkpt lat="42.1251775" lon="13.5141447"><ele>1158.0</ele><time>2026-05-03T11:04:14.002Z</time></trkpt><trkpt lat="42.1252878" lon="13.5140721"><ele>1158.0</ele><time>2026-05-03T11:04:15.011Z</time></trkpt><trkpt lat="42.1253649" lon="13.5139522"><ele>1158.0</ele><time>2026-05-03T11:04:15.999Z</time></trkpt><trkpt lat="42.1254395" lon="13.513807"><ele>1158.0</ele><time>2026-05-03T11:04:17.01Z</time></trkpt><trkpt lat="42.1255232" lon="13.5136556"><ele>1158.0</ele><time>2026-05-03T11:04:18.011Z</time></trkpt><trkpt lat="42.1256195" lon="13.5135024"><ele>1156.0</ele><time>2026-05-03T11:04:19.003Z</time></trkpt><trkpt lat="42.1257342" lon="13.5133522"><ele>1154.0</ele><time>2026-05-03T11:04:20.019Z</time></trkpt><trkpt lat="42.1258534" lon="13.5132295"><ele>1152.0</ele><time>2026-05-03T11:04:21.001Z</time></trkpt><trkpt lat="42.1259625" lon="13.5131024"><ele>1152.0</ele><time>2026-05-03T11:04:22.044Z</time></trkpt><trkpt lat="42.1260671" lon="13.5129758"><ele>1152.0</ele><time>2026-05-03T11:04:22.997Z</time></trkpt><trkpt lat="42.1261651" lon="13.5128385"><ele>1152.0</ele><time>2026-05-03T11:04:24.005Z</time></trkpt><trkpt lat="42.1262502" lon="13.5126866"><ele>1152.0</ele><time>2026-05-03T11:04:25.008Z</time></trkpt><trkpt lat="42.1263152" lon="13.5125231"><ele>1150.0</ele><time>2026-05-03T11:04:26.005Z</time></trkpt><trkpt lat="42.126383" lon="13.5123719"><ele>1148.0</ele><time>2026-05-03T11:04:27.002Z</time></trkpt><trkpt lat="42.1264634" lon="13.5122313"><ele>1146.0</ele><time>2026-05-03T11:04:28.011Z</time></trkpt><trkpt lat="42.1265534" lon="13.5121161"><ele>1144.0</ele><time>2026-05-03T11:04:29.004Z</time></trkpt><trkpt lat="42.1266518" lon="13.5120162"><ele>1144.0</ele><time>2026-05-03T11:04:30.005Z</time></trkpt><trkpt lat="42.1267545" lon="13.5119408"><ele>1144.0</ele><time>2026-05-03T11:04:31.009Z</time></trkpt><trkpt lat="42.1268619" lon="13.5118905"><ele>1144.0</ele><time>2026-05-03T11:04:32.002Z</time></trkpt><trkpt lat="42.1269561" lon="13.5118571"><ele>1144.0</ele><time>2026-05-03T11:04:33.003Z</time></trkpt><trkpt lat="42.127033" lon="13.5118194"><ele>1144.0</ele><time>2026-05-03T11:04:33.996Z</time></trkpt><trkpt lat="42.1270871" lon="13.5117557"><ele>1144.0</ele><time>2026-05-03T11:04:35.02Z</time></trkpt><trkpt lat="42.1271049" lon="13.5116635"><ele>1144.0</ele><time>2026-05-03T11:04:36.003Z</time></trkpt><trkpt lat="42.1270818" lon="13.5115743"><ele>1144.0</ele><time>2026-05-03T11:04:37.003Z</time></trkpt><trkpt lat="42.1270129" lon="13.511521"><ele>1144.0</ele><time>2026-05-03T11:04:38.006Z</time></trkpt><trkpt lat="42.1269341" lon="13.5115275"><ele>1144.0</ele><time>2026-05-03T11:04:39.013Z</time></trkpt><trkpt lat="42.1268514" lon="13.5115808"><ele>1144.0</ele><time>2026-05-03T11:04:40.011Z</time></trkpt><trkpt lat="42.1267687" lon="13.511653"><ele>1144.0</ele><time>2026-05-03T11:04:40.996Z</time></trkpt><trkpt lat="42.1266794" lon="13.511735"><ele>1144.0</ele><time>2026-05-03T11:04:42.002Z</time></trkpt><trkpt lat="42.1265821" lon="13.5118219"><ele>1144.0</ele><time>2026-05-03T11:04:42.997Z</time></trkpt><trkpt lat="42.1264761" lon="13.5118981"><ele>1144.0</ele><time>2026-05-03T11:04:44.01Z</time></trkpt><trkpt lat="42.1263628" lon="13.5119796"><ele>1141.25</ele><time>2026-05-03T11:04:45.008Z</time></trkpt><trkpt lat="42.1262523" lon="13.5120795"><ele>1138.5</ele><time>2026-05-03T11:04:46.004Z</time></trkpt><trkpt lat="42.1261425" lon="13.5121812"><ele>1135.75</ele><time>2026-05-03T11:04:47.044Z</time></trkpt><trkpt lat="42.1260242" lon="13.5122859"><ele>1133.0</ele><time>2026-05-03T11:04:47.999Z</time></trkpt><trkpt lat="42.1259036" lon="13.5123893"><ele>1133.0</ele><time>2026-05-03T11:04:49.007Z</time></trkpt><trkpt lat="42.125782" lon="13.51249"><ele>1133.0</ele><time>2026-05-03T11:04:49.998Z</time></trkpt><trkpt lat="42.1256574" lon="13.5125969"><ele>1133.0</ele><time>2026-05-03T11:04:51Z</time></trkpt><trkpt lat="42.125531" lon="13.5127052"><ele>1133.0</ele><time>2026-05-03T11:04:52.006Z</time></trkpt><trkpt lat="42.1254054" lon="13.5128073"><ele>1132.0</ele><time>2026-05-03T11:04:52.998Z</time></trkpt><trkpt lat="42.1252798" lon="13.5129165"><ele>1131.0</ele><time>2026-05-03T11:04:54.002Z</time></trkpt><trkpt lat="42.1251532" lon="13.5130269"><ele>1130.0</ele><time>2026-05-03T11:04:54.997Z</time></trkpt><trkpt lat="42.1250227" lon="13.5131383"><ele>1125.0</ele><time>2026-05-03T11:04:56.004Z</time></trkpt><trkpt lat="42.1248837" lon="13.5132378"><ele>1120.0</ele><time>2026-05-03T11:04:56.995Z</time></trkpt><trkpt lat="42.1247402" lon="13.5133085"><ele>1115.0</ele><time>2026-05-03T11:04:58Z</time></trkpt><trkpt lat="42.1246029" lon="13.5133497"><ele>1115.0</ele><time>2026-05-03T11:04:59.005Z</time></trkpt><trkpt lat="42.1244639" lon="13.5133724"><ele>1115.0</ele><time>2026-05-03T11:05:00.005Z</time></trkpt><trkpt lat="42.1243334" lon="13.5133847"><ele>1115.0</ele><time>2026-05-03T11:05:01.027Z</time></trkpt><trkpt lat="42.1242029" lon="13.5133995"><ele>1115.0</ele><time>2026-05-03T11:05:02.01Z</time></trkpt><trkpt lat="42.1240814" lon="13.51342"><ele>1113.2</ele><time>2026-05-03T11:05:03.008Z</time></trkpt><trkpt lat="42.1239622" lon="13.5134318"><ele>1111.4</ele><time>2026-05-03T11:05:04.007Z</time></trkpt><trkpt lat="42.1238463" lon="13.5134168"><ele>1109.6</ele><time>2026-05-03T11:05:05.004Z</time></trkpt><trkpt lat="42.123739" lon="13.5133777"><ele>1107.8</ele><time>2026-05-03T11:05:06.011Z</time></trkpt><trkpt lat="42.123646" lon="13.513323"><ele>1106.0</ele><time>2026-05-03T11:05:07.005Z</time></trkpt><trkpt lat="42.1235556" lon="13.5132814"><ele>1106.0</ele><time>2026-05-03T11:05:08.003Z</time></trkpt><trkpt lat="42.1234582" lon="13.5132835"><ele>1106.0</ele><time>2026-05-03T11:05:09.002Z</time></trkpt><trkpt lat="42.1233716" lon="13.5133217"><ele>1106.0</ele><time>2026-05-03T11:05:10.018Z</time></trkpt><trkpt lat="42.1232951" lon="13.5134161"><ele>1106.0</ele><time>2026-05-03T11:05:11.006Z</time></trkpt><trkpt lat="42.1232321" lon="13.513535"><ele>1106.0</ele><time>2026-05-03T11:05:12.001Z</time></trkpt><trkpt lat="42.123181" lon="13.5136769"><ele>1103.5</ele><time>2026-05-03T11:05:13.01Z</time></trkpt><trkpt lat="42.1231146" lon="13.5138217"><ele>1101.0</ele><time>2026-05-03T11:05:13.999Z</time></trkpt><trkpt lat="42.1230277" lon="13.5139477"><ele>1098.5</ele><time>2026-05-03T11:05:15.015Z</time></trkpt><trkpt lat="42.1229284" lon="13.5140566"><ele>1096.0</ele><time>2026-05-03T11:05:16.008Z</time></trkpt><trkpt lat="42.1228351" lon="13.5141634"><ele>1096.0</ele><time>2026-05-03T11:05:17.005Z</time></trkpt><trkpt lat="42.1227479" lon="13.5142717"><ele>1096.0</ele><time>2026-05-03T11:05:18.024Z</time></trkpt><trkpt lat="42.1226659" lon="13.5143767"><ele>1096.0</ele><time>2026-05-03T11:05:19.008Z</time></trkpt><trkpt lat="42.1225796" lon="13.5144625"><ele>1096.0</ele><time>2026-05-03T11:05:20.013Z</time></trkpt><trkpt lat="42.1224862" lon="13.5145266"><ele>1096.0</ele><time>2026-05-03T11:05:21.007Z</time></trkpt><trkpt lat="42.1223857" lon="13.514556"><ele>1097.3999999999999</ele><time>2026-05-03T11:05:22.017Z</time></trkpt><trkpt lat="42.1222864" lon="13.5145607"><ele>1098.8</ele><time>2026-05-03T11:05:22.996Z</time></trkpt><trkpt lat="42.1221775" lon="13.5145799"><ele>1100.1999999999998</ele><time>2026-05-03T11:05:24.008Z</time></trkpt><trkpt lat="42.1220608" lon="13.5146042"><ele>1101.6</ele><time>2026-05-03T11:05:24.992Z</time></trkpt><trkpt lat="42.1219426" lon="13.5146399"><ele>1103.0</ele><time>2026-05-03T11:05:26.006Z</time></trkpt><trkpt lat="42.1218252" lon="13.5146855"><ele>1103.0</ele><time>2026-05-03T11:05:27.002Z</time></trkpt><trkpt lat="42.1217089" lon="13.5147397"><ele>1103.0</ele><time>2026-05-03T11:05:28.012Z</time></trkpt><trkpt lat="42.1215913" lon="13.5148031"><ele>1103.0</ele><time>2026-05-03T11:05:29Z</time></trkpt><trkpt lat="42.1214764" lon="13.5148684"><ele>1103.0</ele><time>2026-05-03T11:05:30.015Z</time></trkpt><trkpt lat="42.1213576" lon="13.514943"><ele>1098.5</ele><time>2026-05-03T11:05:30.999Z</time></trkpt><trkpt lat="42.1212401" lon="13.5150328"><ele>1094.0</ele><time>2026-05-03T11:05:32.006Z</time></trkpt><trkpt lat="42.1211291" lon="13.5151428"><ele>1089.5</ele><time>2026-05-03T11:05:33.008Z</time></trkpt><trkpt lat="42.1210221" lon="13.5152493"><ele>1085.0</ele><time>2026-05-03T11:05:34.01Z</time></trkpt><trkpt lat="42.1209067" lon="13.5153517"><ele>1084.25</ele><time>2026-05-03T11:05:35.033Z</time></trkpt><trkpt lat="42.1207865" lon="13.515439"><ele>1083.5</ele><time>2026-05-03T11:05:36.019Z</time></trkpt><trkpt lat="42.1206672" lon="13.5155249"><ele>1082.75</ele><time>2026-05-03T11:05:37.006Z</time></trkpt><trkpt lat="42.120549" lon="13.5156097"><ele>1082.0</ele><time>2026-05-03T11:05:38.008Z</time></trkpt><trkpt lat="42.1204283" lon="13.5156971"><ele>1082.0</ele><time>2026-05-03T11:05:39Z</time></trkpt><trkpt lat="42.1203138" lon="13.5157903"><ele>1082.0</ele><time>2026-05-03T11:05:40.009Z</time></trkpt><trkpt lat="42.1202077" lon="13.5158976"><ele>1082.0</ele><time>2026-05-03T11:05:41.017Z</time></trkpt><trkpt lat="42.120111" lon="13.5160125"><ele>1082.0</ele><time>2026-05-03T11:05:42.009Z</time></trkpt><trkpt lat="42.1200155" lon="13.5161336"><ele>1078.75</ele><time>2026-05-03T11:05:43.009Z</time></trkpt><trkpt lat="42.1199149" lon="13.5162532"><ele>1075.5</ele><time>2026-05-03T11:05:44Z</time></trkpt><trkpt lat="42.1198155" lon="13.5163741"><ele>1072.25</ele><time>2026-05-03T11:05:45.015Z</time></trkpt><trkpt lat="42.119719" lon="13.5164861"><ele>1069.0</ele><time>2026-05-03T11:05:46.008Z</time></trkpt><trkpt lat="42.1196256" lon="13.5165962"><ele>1069.0</ele><time>2026-05-03T11:05:47.004Z</time></trkpt><trkpt lat="42.119538" lon="13.5166961"><ele>1069.0</ele><time>2026-05-03T11:05:48.008Z</time></trkpt><trkpt lat="42.1194657" lon="13.5167964"><ele>1069.0</ele><time>2026-05-03T11:05:49.005Z</time></trkpt><trkpt lat="42.1194239" lon="13.5169183"><ele>1069.0</ele><time>2026-05-03T11:05:50.005Z</time></trkpt><trkpt lat="42.1194157" lon="13.5170573"><ele>1069.0</ele><time>2026-05-03T11:05:51.009Z</time></trkpt><trkpt lat="42.1194283" lon="13.5172152"><ele>1071.5</ele><time>2026-05-03T11:05:52.004Z</time></trkpt><trkpt lat="42.1194537" lon="13.5173791"><ele>1074.0</ele><time>2026-05-03T11:05:53.006Z</time></trkpt><trkpt lat="42.119471" lon="13.5175416"><ele>1076.5</ele><time>2026-05-03T11:05:54.001Z</time></trkpt><trkpt lat="42.11949" lon="13.517693"><ele>1079.0</ele><time>2026-05-03T11:05:55.006Z</time></trkpt><trkpt lat="42.1195215" lon="13.5178378"><ele>1082.5</ele><time>2026-05-03T11:05:56.013Z</time></trkpt><trkpt lat="42.1195571" lon="13.5179506"><ele>1086.0</ele><time>2026-05-03T11:05:56.998Z</time></trkpt><trkpt lat="42.1195844" lon="13.5180468"><ele>1089.5</ele><time>2026-05-03T11:05:58.022Z</time></trkpt><trkpt lat="42.1195944" lon="13.518138"><ele>1093.0</ele><time>2026-05-03T11:05:59.011Z</time></trkpt><trkpt lat="42.1195152" lon="13.5182546"><ele>1096.5</ele><time>2026-05-03T11:06:00.996Z</time></trkpt><trkpt lat="42.1194438" lon="13.5182494"><ele>1100.0</ele><time>2026-05-03T11:06:01.995Z</time></trkpt><trkpt lat="42.1193715" lon="13.5182002"><ele>1100.0</ele><time>2026-05-03T11:06:03.002Z</time></trkpt><trkpt lat="42.1192996" lon="13.518099"><ele>1100.0</ele><time>2026-05-03T11:06:04.007Z</time></trkpt><trkpt lat="42.1192328" lon="13.5179777"><ele>1100.0</ele><time>2026-05-03T11:06:04.993Z</time></trkpt><trkpt lat="42.1191591" lon="13.5178496"><ele>1100.0</ele><time>2026-05-03T11:06:06.015Z</time></trkpt><trkpt lat="42.1190854" lon="13.5177309"><ele>1092.75</ele><time>2026-05-03T11:06:07.002Z</time></trkpt><trkpt lat="42.1190112" lon="13.5176273"><ele>1085.5</ele><time>2026-05-03T11:06:08.004Z</time></trkpt><trkpt lat="42.118916" lon="13.517541"><ele>1078.25</ele><time>2026-05-03T11:06:09.005Z</time></trkpt><trkpt lat="42.1187914" lon="13.5174918"><ele>1071.0</ele><time>2026-05-03T11:06:10.018Z</time></trkpt><trkpt lat="42.11865" lon="13.5174889"><ele>1071.0</ele><time>2026-05-03T11:06:11.004Z</time></trkpt><trkpt lat="42.1185003" lon="13.5175239"><ele>1071.0</ele><time>2026-05-03T11:06:12.001Z</time></trkpt><trkpt lat="42.11834" lon="13.5175703"><ele>1071.0</ele><time>2026-05-03T11:06:13.003Z</time></trkpt><trkpt lat="42.1181653" lon="13.5176249"><ele>1066.3333333333333</ele><time>2026-05-03T11:06:14.012Z</time></trkpt><trkpt lat="42.1179974" lon="13.5176669"><ele>1061.6666666666665</ele><time>2026-05-03T11:06:14.992Z</time></trkpt><trkpt lat="42.1178282" lon="13.5177051"><ele>1057.0</ele><time>2026-05-03T11:06:15.996Z</time></trkpt><trkpt lat="42.1176508" lon="13.5177585"><ele>1057.0</ele><time>2026-05-03T11:06:16.999Z</time></trkpt><trkpt lat="42.117477" lon="13.5178204"><ele>1057.0</ele><time>2026-05-03T11:06:18Z</time></trkpt><trkpt lat="42.1172974" lon="13.5179015"><ele>1057.0</ele><time>2026-05-03T11:06:19.003Z</time></trkpt><trkpt lat="42.1171107" lon="13.5179822"><ele>1058.3333333333333</ele><time>2026-05-03T11:06:20.027Z</time></trkpt><trkpt lat="42.1169134" lon="13.5180485"><ele>1059.6666666666667</ele><time>2026-05-03T11:06:20.995Z</time></trkpt><trkpt lat="42.1167164" lon="13.5181082"><ele>1061.0</ele><time>2026-05-03T11:06:22.004Z</time></trkpt><trkpt lat="42.1165313" lon="13.5181638"><ele>1061.0</ele><time>2026-05-03T11:06:23.01Z</time></trkpt><trkpt lat="42.1163524" lon="13.5182084"><ele>1061.0</ele><time>2026-05-03T11:06:24.013Z</time></trkpt><trkpt lat="42.1161754" lon="13.5182591"><ele>1061.0</ele><time>2026-05-03T11:06:25.006Z</time></trkpt><trkpt lat="42.1159954" lon="13.5183126"><ele>1061.0</ele><time>2026-05-03T11:06:26.009Z</time></trkpt><trkpt lat="42.1158136" lon="13.5183808"><ele>1061.0</ele><time>2026-05-03T11:06:27.007Z</time></trkpt><trkpt lat="42.1156317" lon="13.5184666"><ele>1061.0</ele><time>2026-05-03T11:06:28.013Z</time></trkpt><trkpt lat="42.1154488" lon="13.5185665"><ele>1062.0</ele><time>2026-05-03T11:06:29.005Z</time></trkpt><trkpt lat="42.1152624" lon="13.5186783"><ele>1063.0</ele><time>2026-05-03T11:06:30.014Z</time></trkpt><trkpt lat="42.1150698" lon="13.5187935"><ele>1064.0</ele><time>2026-05-03T11:06:31.008Z</time></trkpt><trkpt lat="42.1148759" lon="13.5189155"><ele>1058.6666666666667</ele><time>2026-05-03T11:06:32Z</time></trkpt><trkpt lat="42.1146739" lon="13.51904"><ele>1053.3333333333333</ele><time>2026-05-03T11:06:33.009Z</time></trkpt><trkpt lat="42.1144756" lon="13.519164"><ele>1048.0</ele><time>2026-05-03T11:06:34.015Z</time></trkpt><trkpt lat="42.1142801" lon="13.5192818"><ele>1048.0</ele><time>2026-05-03T11:06:35.004Z</time></trkpt><trkpt lat="42.1140918" lon="13.5193987"><ele>1048.0</ele><time>2026-05-03T11:06:36.003Z</time></trkpt><trkpt lat="42.1139084" lon="13.519522"><ele>1048.0</ele><time>2026-05-03T11:06:37.012Z</time></trkpt><trkpt lat="42.1137327" lon="13.5196558"><ele>1047.3333333333333</ele><time>2026-05-03T11:06:38.028Z</time></trkpt><trkpt lat="42.1135653" lon="13.5197983"><ele>1046.6666666666667</ele><time>2026-05-03T11:06:39.009Z</time></trkpt><trkpt lat="42.1134085" lon="13.5199397"><ele>1046.0</ele><time>2026-05-03T11:06:40.005Z</time></trkpt><trkpt lat="42.1132551" lon="13.5200734"><ele>1042.3333333333335</ele><time>2026-05-03T11:06:41.006Z</time></trkpt><trkpt lat="42.1131021" lon="13.5201868"><ele>1038.6666666666667</ele><time>2026-05-03T11:06:42.007Z</time></trkpt><trkpt lat="42.1129445" lon="13.520285"><ele>1035.0</ele><time>2026-05-03T11:06:43.008Z</time></trkpt><trkpt lat="42.1127732" lon="13.5203665"><ele>1038.3333333333333</ele><time>2026-05-03T11:06:44.009Z</time></trkpt><trkpt lat="42.1125874" lon="13.5204209"><ele>1041.6666666666665</ele><time>2026-05-03T11:06:45.001Z</time></trkpt><trkpt lat="42.1123911" lon="13.5204466"><ele>1045.0</ele><time>2026-05-03T11:06:46.008Z</time></trkpt><trkpt lat="42.1121938" lon="13.5204488"><ele>1045.0</ele><time>2026-05-03T11:06:47.012Z</time></trkpt><trkpt lat="42.1120021" lon="13.5204367"><ele>1045.0</ele><time>2026-05-03T11:06:48.017Z</time></trkpt><trkpt lat="42.1118219" lon="13.5204165"><ele>1045.0</ele><time>2026-05-03T11:06:49.007Z</time></trkpt><trkpt lat="42.1116492" lon="13.5204135"><ele>1040.6666666666665</ele><time>2026-05-03T11:06:50.013Z</time></trkpt><trkpt lat="42.1114826" lon="13.5204262"><ele>1036.3333333333333</ele><time>2026-05-03T11:06:51.008Z</time></trkpt><trkpt lat="42.1113191" lon="13.5204641"><ele>1032.0</ele><time>2026-05-03T11:06:52.009Z</time></trkpt><trkpt lat="42.1111588" lon="13.5205378"><ele>1032.0</ele><time>2026-05-03T11:06:53.011Z</time></trkpt><trkpt lat="42.1109991" lon="13.5206426"><ele>1032.0</ele><time>2026-05-03T11:06:54.006Z</time></trkpt><trkpt lat="42.1108343" lon="13.5207698"><ele>1032.0</ele><time>2026-05-03T11:06:55.019Z</time></trkpt><trkpt lat="42.1106722" lon="13.5208934"><ele>1028.6666666666667</ele><time>2026-05-03T11:06:56.014Z</time></trkpt><trkpt lat="42.1105145" lon="13.521011"><ele>1025.3333333333335</ele><time>2026-05-03T11:06:57.006Z</time></trkpt><trkpt lat="42.1103607" lon="13.5211228"><ele>1022.0</ele><time>2026-05-03T11:06:58.005Z</time></trkpt><trkpt lat="42.1102079" lon="13.5212315"><ele>1023.0</ele><time>2026-05-03T11:06:59.012Z</time></trkpt><trkpt lat="42.1100571" lon="13.5213218"><ele>1024.0</ele><time>2026-05-03T11:07:00.014Z</time></trkpt><trkpt lat="42.1098912" lon="13.5213861"><ele>1025.0</ele><time>2026-05-03T11:07:01.01Z</time></trkpt><trkpt lat="42.1097172" lon="13.5214269"><ele>1025.0</ele><time>2026-05-03T11:07:02.026Z</time></trkpt><trkpt lat="42.1095423" lon="13.5214549"><ele>1025.0</ele><time>2026-05-03T11:07:03.013Z</time></trkpt><trkpt lat="42.109368" lon="13.5214819"><ele>1025.0</ele><time>2026-05-03T11:07:04.007Z</time></trkpt><trkpt lat="42.1092036" lon="13.5215106"><ele>1021.6666666666667</ele><time>2026-05-03T11:07:05.011Z</time></trkpt><trkpt lat="42.1090476" lon="13.5215541"><ele>1018.3333333333333</ele><time>2026-05-03T11:07:06.008Z</time></trkpt><trkpt lat="42.1088926" lon="13.5216172"><ele>1015.0</ele><time>2026-05-03T11:07:07.007Z</time></trkpt><trkpt lat="42.1087483" lon="13.521712"><ele>1015.0</ele><time>2026-05-03T11:07:08.018Z</time></trkpt><trkpt lat="42.1086086" lon="13.5218208"><ele>1015.0</ele><time>2026-05-03T11:07:09.004Z</time></trkpt><trkpt lat="42.1084729" lon="13.5219339"><ele>1015.0</ele><time>2026-05-03T11:07:10.015Z</time></trkpt><trkpt lat="42.108339" lon="13.5220441"><ele>1014.3333333333333</ele><time>2026-05-03T11:07:11.003Z</time></trkpt><trkpt lat="42.1082035" lon="13.5221568"><ele>1013.6666666666667</ele><time>2026-05-03T11:07:12.003Z</time></trkpt><trkpt lat="42.108059" lon="13.5222641"><ele>1013.0</ele><time>2026-05-03T11:07:13.019Z</time></trkpt><trkpt lat="42.1079095" lon="13.5223853"><ele>1013.0</ele><time>2026-05-03T11:07:14.007Z</time></trkpt><trkpt lat="42.1077557" lon="13.5225111"><ele>1013.0</ele><time>2026-05-03T11:07:15.009Z</time></trkpt><trkpt lat="42.1075995" lon="13.5226365"><ele>1013.0</ele><time>2026-05-03T11:07:16.008Z</time></trkpt><trkpt lat="42.1074475" lon="13.5227598"><ele>1010.0</ele><time>2026-05-03T11:07:17.007Z</time></trkpt><trkpt lat="42.1072995" lon="13.5228737"><ele>1007.0</ele><time>2026-05-03T11:07:18.017Z</time></trkpt><trkpt lat="42.107155" lon="13.5229841"><ele>1004.0</ele><time>2026-05-03T11:07:19.001Z</time></trkpt><trkpt lat="42.1070188" lon="13.5230907"><ele>1004.0</ele><time>2026-05-03T11:07:19.99Z</time></trkpt><trkpt lat="42.1068861" lon="13.5232057"><ele>1004.0</ele><time>2026-05-03T11:07:21.002Z</time></trkpt><trkpt lat="42.1067555" lon="13.5233306"><ele>1004.0</ele><time>2026-05-03T11:07:22.012Z</time></trkpt><trkpt lat="42.106634" lon="13.523472"><ele>998.6666666666667</ele><time>2026-05-03T11:07:23.006Z</time></trkpt><trkpt lat="42.1065222" lon="13.5236312"><ele>993.3333333333333</ele><time>2026-05-03T11:07:24.014Z</time></trkpt><trkpt lat="42.1064232" lon="13.523797"><ele>988.0</ele><time>2026-05-03T11:07:25.001Z</time></trkpt><trkpt lat="42.1063385" lon="13.5239641"><ele>988.0</ele><time>2026-05-03T11:07:26.012Z</time></trkpt><trkpt lat="42.1062585" lon="13.5241268"><ele>988.0</ele><time>2026-05-03T11:07:27.003Z</time></trkpt><trkpt lat="42.106177" lon="13.5242824"><ele>988.0</ele><time>2026-05-03T11:07:28.012Z</time></trkpt><trkpt lat="42.1060894" lon="13.5244204"><ele>988.0</ele><time>2026-05-03T11:07:28.993Z</time></trkpt><trkpt lat="42.1059852" lon="13.5245272"><ele>986.75</ele><time>2026-05-03T11:07:30.017Z</time></trkpt><trkpt lat="42.1058685" lon="13.5245938"><ele>985.5</ele><time>2026-05-03T11:07:31Z</time></trkpt><trkpt lat="42.105764" lon="13.5246522"><ele>984.25</ele><time>2026-05-03T11:07:32.006Z</time></trkpt><trkpt lat="42.1056806" lon="13.5247373"><ele>983.0</ele><time>2026-05-03T11:07:33.014Z</time></trkpt><trkpt lat="42.1056193" lon="13.5248844"><ele>983.0</ele><time>2026-05-03T11:07:34.011Z</time></trkpt><trkpt lat="42.1055992" lon="13.5250686"><ele>983.0</ele><time>2026-05-03T11:07:35.005Z</time></trkpt><trkpt lat="42.1056099" lon="13.5252558"><ele>983.0</ele><time>2026-05-03T11:07:36.016Z</time></trkpt><trkpt lat="42.1056174" lon="13.5254186"><ele>983.0</ele><time>2026-05-03T11:07:37.012Z</time></trkpt><trkpt lat="42.1056017" lon="13.5255736"><ele>987.0</ele><time>2026-05-03T11:07:38.003Z</time></trkpt><trkpt lat="42.1055624" lon="13.5257081"><ele>991.0</ele><time>2026-05-03T11:07:38.999Z</time></trkpt><trkpt lat="42.1054931" lon="13.5258108"><ele>995.0</ele><time>2026-05-03T11:07:40.004Z</time></trkpt><trkpt lat="42.1053974" lon="13.5258595"><ele>999.0</ele><time>2026-05-03T11:07:41.002Z</time></trkpt><trkpt lat="42.1052813" lon="13.5258385"><ele>1003.0</ele><time>2026-05-03T11:07:42.001Z</time></trkpt><trkpt lat="42.1051581" lon="13.5257555"><ele>1003.0</ele><time>2026-05-03T11:07:43.003Z</time></trkpt><trkpt lat="42.1050415" lon="13.5256282"><ele>1003.0</ele><time>2026-05-03T11:07:43.999Z</time></trkpt><trkpt lat="42.1049429" lon="13.5254866"><ele>1003.0</ele><time>2026-05-03T11:07:45.021Z</time></trkpt><trkpt lat="42.1048445" lon="13.5253654"><ele>1003.0</ele><time>2026-05-03T11:07:46.004Z</time></trkpt><trkpt lat="42.1047311" lon="13.5252559"><ele>997.75</ele><time>2026-05-03T11:07:47.005Z</time></trkpt><trkpt lat="42.1046165" lon="13.5251758"><ele>992.5</ele><time>2026-05-03T11:07:48.005Z</time></trkpt><trkpt lat="42.1044819" lon="13.5251489"><ele>987.25</ele><time>2026-05-03T11:07:49.004Z</time></trkpt><trkpt lat="42.1043339" lon="13.5251657"><ele>982.0</ele><time>2026-05-03T11:07:50.002Z</time></trkpt><trkpt lat="42.1041698" lon="13.525192"><ele>983.0</ele><time>2026-05-03T11:07:50.996Z</time></trkpt><trkpt lat="42.1039945" lon="13.5251959"><ele>984.0</ele><time>2026-05-03T11:07:52.007Z</time></trkpt><trkpt lat="42.1038161" lon="13.5251718"><ele>985.0</ele><time>2026-05-03T11:07:52.997Z</time></trkpt><trkpt lat="42.103637" lon="13.5251255"><ele>985.0</ele><time>2026-05-03T11:07:53.995Z</time></trkpt><trkpt lat="42.1034725" lon="13.5250493"><ele>985.0</ele><time>2026-05-03T11:07:54.995Z</time></trkpt><trkpt lat="42.1033284" lon="13.5249477"><ele>985.0</ele><time>2026-05-03T11:07:56.006Z</time></trkpt><trkpt lat="42.103194" lon="13.5248197"><ele>987.6666666666666</ele><time>2026-05-03T11:07:56.999Z</time></trkpt><trkpt lat="42.1030738" lon="13.5246868"><ele>990.3333333333333</ele><time>2026-05-03T11:07:57.996Z</time></trkpt><trkpt lat="42.1029538" lon="13.5245622"><ele>993.0</ele><time>2026-05-03T11:07:59.009Z</time></trkpt><trkpt lat="42.1028315" lon="13.5244484"><ele>987.25</ele><time>2026-05-03T11:07:59.999Z</time></trkpt><trkpt lat="42.1027051" lon="13.5243566"><ele>981.5</ele><time>2026-05-03T11:08:00.998Z</time></trkpt><trkpt lat="42.1025645" lon="13.5242963"><ele>975.75</ele><time>2026-05-03T11:08:02.001Z</time></trkpt><trkpt lat="42.1024099" lon="13.5242683"><ele>970.0</ele><time>2026-05-03T11:08:03.01Z</time></trkpt><trkpt lat="42.1022481" lon="13.5242615"><ele>968.0</ele><time>2026-05-03T11:08:03.992Z</time></trkpt><trkpt lat="42.1020789" lon="13.5242553"><ele>966.0</ele><time>2026-05-03T11:08:05Z</time></trkpt><trkpt lat="42.1019197" lon="13.5242533"><ele>964.0</ele><time>2026-05-03T11:08:06.001Z</time></trkpt><trkpt lat="42.1017732" lon="13.5242684"><ele>964.0</ele><time>2026-05-03T11:08:07.018Z</time></trkpt><trkpt lat="42.1016264" lon="13.5243113"><ele>964.0</ele><time>2026-05-03T11:08:07.997Z</time></trkpt><trkpt lat="42.1014806" lon="13.5243904"><ele>964.0</ele><time>2026-05-03T11:08:09.011Z</time></trkpt><trkpt lat="42.101336" lon="13.5244811"><ele>966.0</ele><time>2026-05-03T11:08:10.007Z</time></trkpt><trkpt lat="42.1011818" lon="13.5245553"><ele>968.0</ele><time>2026-05-03T11:08:11.009Z</time></trkpt><trkpt lat="42.1010214" lon="13.5246058"><ele>970.0</ele><time>2026-05-03T11:08:12.005Z</time></trkpt><trkpt lat="42.1008611" lon="13.5246344"><ele>966.6666666666666</ele><time>2026-05-03T11:08:13.005Z</time></trkpt><trkpt lat="42.1007012" lon="13.5246567"><ele>963.3333333333333</ele><time>2026-05-03T11:08:14.02Z</time></trkpt><trkpt lat="42.1005504" lon="13.524681"><ele>960.0</ele><time>2026-05-03T11:08:14.996Z</time></trkpt><trkpt lat="42.1004094" lon="13.524737"><ele>960.0</ele><time>2026-05-03T11:08:16.002Z</time></trkpt><trkpt lat="42.1002808" lon="13.5248379"><ele>960.0</ele><time>2026-05-03T11:08:17.012Z</time></trkpt><trkpt lat="42.1001653" lon="13.5249748"><ele>960.0</ele><time>2026-05-03T11:08:18.013Z</time></trkpt><trkpt lat="42.1000646" lon="13.5251387"><ele>960.0</ele><time>2026-05-03T11:08:19.02Z</time></trkpt><trkpt lat="42.0999762" lon="13.5253186"><ele>960.0</ele><time>2026-05-03T11:08:20.01Z</time></trkpt><trkpt lat="42.0998848" lon="13.5254794"><ele>960.0</ele><time>2026-05-03T11:08:21.013Z</time></trkpt><trkpt lat="42.0998109" lon="13.5256458"><ele>954.5</ele><time>2026-05-03T11:08:22.009Z</time></trkpt><trkpt lat="42.0997707" lon="13.5258252"><ele>949.0</ele><time>2026-05-03T11:08:23.023Z</time></trkpt><trkpt lat="42.0997468" lon="13.5260056"><ele>943.5</ele><time>2026-05-03T11:08:24.012Z</time></trkpt><trkpt lat="42.0997459" lon="13.5261864"><ele>938.0</ele><time>2026-05-03T11:08:25.01Z</time></trkpt><trkpt lat="42.0997578" lon="13.5263597"><ele>937.5</ele><time>2026-05-03T11:08:26.02Z</time></trkpt><trkpt lat="42.0997868" lon="13.5265538"><ele>937.0</ele><time>2026-05-03T11:08:27.012Z</time></trkpt><trkpt lat="42.0998074" lon="13.5267522"><ele>936.5</ele><time>2026-05-03T11:08:28.01Z</time></trkpt><trkpt lat="42.0998095" lon="13.5269423"><ele>936.0</ele><time>2026-05-03T11:08:29.021Z</time></trkpt><trkpt lat="42.099782" lon="13.527123"><ele>937.0</ele><time>2026-05-03T11:08:30.021Z</time></trkpt><trkpt lat="42.0997296" lon="13.5272978"><ele>938.0</ele><time>2026-05-03T11:08:31.017Z</time></trkpt><trkpt lat="42.0996505" lon="13.5274614"><ele>939.0</ele><time>2026-05-03T11:08:32.016Z</time></trkpt><trkpt lat="42.0995523" lon="13.5276211"><ele>940.0</ele><time>2026-05-03T11:08:33.014Z</time></trkpt><trkpt lat="42.0994417" lon="13.5277654"><ele>940.0</ele><time>2026-05-03T11:08:34.01Z</time></trkpt><trkpt lat="42.0993219" lon="13.5278889"><ele>940.0</ele><time>2026-05-03T11:08:34.996Z</time></trkpt><trkpt lat="42.0991987" lon="13.5280041"><ele>940.0</ele><time>2026-05-03T11:08:36.021Z</time></trkpt><trkpt lat="42.0990946" lon="13.5281395"><ele>940.0</ele><time>2026-05-03T11:08:36.998Z</time></trkpt><trkpt lat="42.0990108" lon="13.5282815"><ele>936.0</ele><time>2026-05-03T11:08:38.019Z</time></trkpt><trkpt lat="42.098947" lon="13.5284231"><ele>932.0</ele><time>2026-05-03T11:08:39.008Z</time></trkpt><trkpt lat="42.098911" lon="13.5285744"><ele>928.0</ele><time>2026-05-03T11:08:40.025Z</time></trkpt><trkpt lat="42.0989055" lon="13.5287399"><ele>924.0</ele><time>2026-05-03T11:08:41.004Z</time></trkpt><trkpt lat="42.098951" lon="13.5289217"><ele>924.0</ele><time>2026-05-03T11:08:42.007Z</time></trkpt><trkpt lat="42.0990257" lon="13.5291017"><ele>924.0</ele><time>2026-05-03T11:08:43.021Z</time></trkpt><trkpt lat="42.0991099" lon="13.5292732"><ele>924.0</ele><time>2026-05-03T11:08:43.998Z</time></trkpt><trkpt lat="42.0991846" lon="13.5294436"><ele>927.25</ele><time>2026-05-03T11:08:45.014Z</time></trkpt><trkpt lat="42.0992411" lon="13.5296217"><ele>930.5</ele><time>2026-05-03T11:08:46.012Z</time></trkpt><trkpt lat="42.0992798" lon="13.5298155"><ele>933.75</ele><time>2026-05-03T11:08:47.004Z</time></trkpt><trkpt lat="42.0992935" lon="13.5300224"><ele>937.0</ele><time>2026-05-03T11:08:48.014Z</time></trkpt><trkpt lat="42.0992834" lon="13.5302393"><ele>936.3333333333333</ele><time>2026-05-03T11:08:49.02Z</time></trkpt><trkpt lat="42.0992384" lon="13.5304558"><ele>935.6666666666667</ele><time>2026-05-03T11:08:50.002Z</time></trkpt><trkpt lat="42.0991606" lon="13.5306687"><ele>935.0</ele><time>2026-05-03T11:08:51.002Z</time></trkpt><trkpt lat="42.0990573" lon="13.5308743"><ele>932.0</ele><time>2026-05-03T11:08:52.001Z</time></trkpt><trkpt lat="42.098941" lon="13.5310778"><ele>929.0</ele><time>2026-05-03T11:08:53.009Z</time></trkpt><trkpt lat="42.0988208" lon="13.5312828"><ele>926.0</ele><time>2026-05-03T11:08:54.001Z</time></trkpt><trkpt lat="42.098703" lon="13.5314865"><ele>926.0</ele><time>2026-05-03T11:08:54.996Z</time></trkpt><trkpt lat="42.0985889" lon="13.5316962"><ele>926.0</ele><time>2026-05-03T11:08:56.009Z</time></trkpt><trkpt lat="42.0984745" lon="13.5319037"><ele>926.0</ele><time>2026-05-03T11:08:57.005Z</time></trkpt><trkpt lat="42.0983598" lon="13.5321001"><ele>919.0</ele><time>2026-05-03T11:08:58.009Z</time></trkpt><trkpt lat="42.0982489" lon="13.5322854"><ele>912.0</ele><time>2026-05-03T11:08:59.003Z</time></trkpt><trkpt lat="42.0981349" lon="13.5324661"><ele>905.0</ele><time>2026-05-03T11:09:00.011Z</time></trkpt><trkpt lat="42.098009" lon="13.5326401"><ele>905.0</ele><time>2026-05-03T11:09:01.001Z</time></trkpt><trkpt lat="42.0978697" lon="13.5328096"><ele>905.0</ele><time>2026-05-03T11:09:02.01Z</time></trkpt><trkpt lat="42.0977222" lon="13.5329677"><ele>905.0</ele><time>2026-05-03T11:09:03.019Z</time></trkpt><trkpt lat="42.0975708" lon="13.5331213"><ele>902.3333333333334</ele><time>2026-05-03T11:09:04.005Z</time></trkpt><trkpt lat="42.0974207" lon="13.5332783"><ele>899.6666666666667</ele><time>2026-05-03T11:09:04.999Z</time></trkpt><trkpt lat="42.0972728" lon="13.5334363"><ele>897.0</ele><time>2026-05-03T11:09:06.011Z</time></trkpt><trkpt lat="42.0971151" lon="13.5335894"><ele>903.6666666666667</ele><time>2026-05-03T11:09:06.991Z</time></trkpt><trkpt lat="42.0969591" lon="13.5337478"><ele>910.3333333333334</ele><time>2026-05-03T11:09:08.007Z</time></trkpt><trkpt lat="42.0967966" lon="13.533906"><ele>917.0</ele><time>2026-05-03T11:09:08.993Z</time></trkpt><trkpt lat="42.0966241" lon="13.5340674"><ele>914.0</ele><time>2026-05-03T11:09:10.006Z</time></trkpt><trkpt lat="42.0964514" lon="13.5342307"><ele>911.0</ele><time>2026-05-03T11:09:11.001Z</time></trkpt><trkpt lat="42.0962777" lon="13.5344033"><ele>908.0</ele><time>2026-05-03T11:09:12.006Z</time></trkpt><trkpt lat="42.0961103" lon="13.5345777"><ele>908.0</ele><time>2026-05-03T11:09:13Z</time></trkpt><trkpt lat="42.0959423" lon="13.5347494"><ele>908.0</ele><time>2026-05-03T11:09:13.999Z</time></trkpt><trkpt lat="42.0957735" lon="13.5349244"><ele>908.0</ele><time>2026-05-03T11:09:15.003Z</time></trkpt><trkpt lat="42.095608" lon="13.5350897"><ele>906.3333333333334</ele><time>2026-05-03T11:09:16.006Z</time></trkpt><trkpt lat="42.0954368" lon="13.5352469"><ele>904.6666666666667</ele><time>2026-05-03T11:09:17.004Z</time></trkpt><trkpt lat="42.0952774" lon="13.5353929"><ele>903.0</ele><time>2026-05-03T11:09:18.001Z</time></trkpt><trkpt lat="42.0951189" lon="13.5355231"><ele>903.0</ele><time>2026-05-03T11:09:19.003Z</time></trkpt><trkpt lat="42.0949587" lon="13.5356386"><ele>903.0</ele><time>2026-05-03T11:09:20.008Z</time></trkpt><trkpt lat="42.0948078" lon="13.535755"><ele>903.0</ele><time>2026-05-03T11:09:21.001Z</time></trkpt><trkpt lat="42.0946657" lon="13.5358841"><ele>901.6666666666667</ele><time>2026-05-03T11:09:22.008Z</time></trkpt><trkpt lat="42.0945403" lon="13.5360308"><ele>900.3333333333334</ele><time>2026-05-03T11:09:22.995Z</time></trkpt><trkpt lat="42.0944235" lon="13.5361974"><ele>899.0</ele><time>2026-05-03T11:09:24.005Z</time></trkpt><trkpt lat="42.0943157" lon="13.5363644"><ele>899.0</ele><time>2026-05-03T11:09:25.006Z</time></trkpt><trkpt lat="42.0942065" lon="13.5365181"><ele>899.0</ele><time>2026-05-03T11:09:26.004Z</time></trkpt><trkpt lat="42.0940804" lon="13.5366484"><ele>899.0</ele><time>2026-05-03T11:09:27.004Z</time></trkpt><trkpt lat="42.0939267" lon="13.5367289"><ele>892.3333333333334</ele><time>2026-05-03T11:09:28.019Z</time></trkpt><trkpt lat="42.0937526" lon="13.5367638"><ele>885.6666666666667</ele><time>2026-05-03T11:09:29.011Z</time></trkpt><trkpt lat="42.0935828" lon="13.5368072"><ele>879.0</ele><time>2026-05-03T11:09:30.016Z</time></trkpt><trkpt lat="42.093426" lon="13.5368522"><ele>879.0</ele><time>2026-05-03T11:09:31.021Z</time></trkpt><trkpt lat="42.0932785" lon="13.5369153"><ele>879.0</ele><time>2026-05-03T11:09:32.018Z</time></trkpt><trkpt lat="42.0931344" lon="13.5369972"><ele>879.0</ele><time>2026-05-03T11:09:33.026Z</time></trkpt><trkpt lat="42.0929933" lon="13.5370983"><ele>878.3333333333333</ele><time>2026-05-03T11:09:34.015Z</time></trkpt><trkpt lat="42.0928524" lon="13.5372139"><ele>877.6666666666666</ele><time>2026-05-03T11:09:34.994Z</time></trkpt><trkpt lat="42.0927201" lon="13.5373447"><ele>877.0</ele><time>2026-05-03T11:09:36.013Z</time></trkpt><trkpt lat="42.0925916" lon="13.5374764"><ele>877.0</ele><time>2026-05-03T11:09:37.017Z</time></trkpt><trkpt lat="42.0924687" lon="13.5376106"><ele>877.0</ele><time>2026-05-03T11:09:38.006Z</time></trkpt><trkpt lat="42.0923459" lon="13.5377362"><ele>877.0</ele><time>2026-05-03T11:09:39.007Z</time></trkpt><trkpt lat="42.0922327" lon="13.5378559"><ele>875.0</ele><time>2026-05-03T11:09:40.014Z</time></trkpt><trkpt lat="42.0921199" lon="13.5379715"><ele>873.0</ele><time>2026-05-03T11:09:41.011Z</time></trkpt><trkpt lat="42.0920028" lon="13.538091"><ele>871.0</ele><time>2026-05-03T11:09:42.013Z</time></trkpt><trkpt lat="42.0918872" lon="13.5382191"><ele>869.0</ele><time>2026-05-03T11:09:43.008Z</time></trkpt><trkpt lat="42.0917754" lon="13.5383628"><ele>869.0</ele><time>2026-05-03T11:09:44.01Z</time></trkpt><trkpt lat="42.0916578" lon="13.5385438"><ele>869.0</ele><time>2026-05-03T11:09:44.994Z</time></trkpt><trkpt lat="42.0915439" lon="13.538742"><ele>869.0</ele><time>2026-05-03T11:09:46.023Z</time></trkpt><trkpt lat="42.0914395" lon="13.5389522"><ele>863.6666666666667</ele><time>2026-05-03T11:09:47.002Z</time></trkpt><trkpt lat="42.0913522" lon="13.5391558"><ele>858.3333333333333</ele><time>2026-05-03T11:09:48.023Z</time></trkpt><trkpt lat="42.0912668" lon="13.5393567"><ele>853.0</ele><time>2026-05-03T11:09:48.998Z</time></trkpt><trkpt lat="42.0911678" lon="13.5395318"><ele>856.0</ele><time>2026-05-03T11:09:50.008Z</time></trkpt><trkpt lat="42.0910598" lon="13.5396735"><ele>859.0</ele><time>2026-05-03T11:09:51.008Z</time></trkpt><trkpt lat="42.090936" lon="13.5398056"><ele>862.0</ele><time>2026-05-03T11:09:52.01Z</time></trkpt><trkpt lat="42.0908345" lon="13.5399528"><ele>862.0</ele><time>2026-05-03T11:09:53.001Z</time></trkpt><trkpt lat="42.090759" lon="13.5401191"><ele>862.0</ele><time>2026-05-03T11:09:54Z</time></trkpt><trkpt lat="42.0906943" lon="13.5402954"><ele>862.0</ele><time>2026-05-03T11:09:55Z</time></trkpt><trkpt lat="42.090642" lon="13.5404806"><ele>862.0</ele><time>2026-05-03T11:09:56.006Z</time></trkpt><trkpt lat="42.0905902" lon="13.5406658"><ele>861.75</ele><time>2026-05-03T11:09:57.005Z</time></trkpt><trkpt lat="42.0905238" lon="13.5408447"><ele>861.5</ele><time>2026-05-03T11:09:58.009Z</time></trkpt><trkpt lat="42.0904355" lon="13.5409936"><ele>861.25</ele><time>2026-05-03T11:09:59.006Z</time></trkpt><trkpt lat="42.0903276" lon="13.5411361"><ele>861.0</ele><time>2026-05-03T11:10:00.015Z</time></trkpt><trkpt lat="42.0902011" lon="13.5413137"><ele>861.0</ele><time>2026-05-03T11:10:01.012Z</time></trkpt><trkpt lat="42.0900678" lon="13.5415035"><ele>861.0</ele><time>2026-05-03T11:10:02.004Z</time></trkpt><trkpt lat="42.0899196" lon="13.5416911"><ele>861.0</ele><time>2026-05-03T11:10:03.002Z</time></trkpt><trkpt lat="42.0897617" lon="13.5418811"><ele>857.6666666666667</ele><time>2026-05-03T11:10:04.01Z</time></trkpt><trkpt lat="42.0896148" lon="13.5420648"><ele>854.3333333333334</ele><time>2026-05-03T11:10:04.999Z</time></trkpt><trkpt lat="42.0894689" lon="13.5422255"><ele>851.0</ele><time>2026-05-03T11:10:06.003Z</time></trkpt><trkpt lat="42.0893217" lon="13.542374"><ele>851.0</ele><time>2026-05-03T11:10:07.004Z</time></trkpt><trkpt lat="42.0891716" lon="13.5425104"><ele>851.0</ele><time>2026-05-03T11:10:08.006Z</time></trkpt><trkpt lat="42.0890354" lon="13.5426358"><ele>851.0</ele><time>2026-05-03T11:10:09.018Z</time></trkpt><trkpt lat="42.0889149" lon="13.5427709"><ele>848.5</ele><time>2026-05-03T11:10:09.998Z</time></trkpt><trkpt lat="42.0888248" lon="13.5429273"><ele>846.0</ele><time>2026-05-03T11:10:10.999Z</time></trkpt><trkpt lat="42.0887571" lon="13.5430963"><ele>843.5</ele><time>2026-05-03T11:10:12.003Z</time></trkpt><trkpt lat="42.0886952" lon="13.5432524"><ele>841.0</ele><time>2026-05-03T11:10:13Z</time></trkpt><trkpt lat="42.0886163" lon="13.5433791"><ele>841.0</ele><time>2026-05-03T11:10:13.999Z</time></trkpt><trkpt lat="42.0885168" lon="13.5434701"><ele>841.0</ele><time>2026-05-03T11:10:15.005Z</time></trkpt><trkpt lat="42.0884113" lon="13.5435361"><ele>841.0</ele><time>2026-05-03T11:10:16.002Z</time></trkpt><trkpt lat="42.0883089" lon="13.5435936"><ele>841.0</ele><time>2026-05-03T11:10:16.996Z</time></trkpt><trkpt lat="42.0882012" lon="13.543648"><ele>839.9999999999999</ele><time>2026-05-03T11:10:18.012Z</time></trkpt><trkpt lat="42.0881014" lon="13.5436969"><ele>839.0</ele><time>2026-05-03T11:10:19Z</time></trkpt><trkpt lat="42.0880196" lon="13.5437495"><ele>838.0</ele><time>2026-05-03T11:10:20.003Z</time></trkpt><trkpt lat="42.0879549" lon="13.5437933"><ele>837.0</ele><time>2026-05-03T11:10:20.999Z</time></trkpt><trkpt lat="42.0878817" lon="13.5438646"><ele>835.9999999999999</ele><time>2026-05-03T11:10:22.995Z</time></trkpt><trkpt lat="42.0878268" lon="13.5439152"><ele>835.0</ele><time>2026-05-03T11:10:30.999Z</time></trkpt><trkpt lat="42.0877744" lon="13.5440277"><ele>835.0</ele><time>2026-05-03T11:10:56.004Z</time></trkpt><trkpt lat="42.0876702" lon="13.5441206"><ele>835.0</ele><time>2026-05-03T11:10:58.002Z</time></trkpt><trkpt lat="42.0876028" lon="13.5441761"><ele>835.0</ele><time>2026-05-03T11:10:58.994Z</time></trkpt><trkpt lat="42.0875321" lon="13.5442411"><ele>835.0</ele><time>2026-05-03T11:11:00.009Z</time></trkpt><trkpt lat="42.0874579" lon="13.5443144"><ele>835.0</ele><time>2026-05-03T11:11:01Z</time></trkpt><trkpt lat="42.0873812" lon="13.5443942"><ele>832.2</ele><time>2026-05-03T11:11:02Z</time></trkpt><trkpt lat="42.0873079" lon="13.5444794"><ele>829.4</ele><time>2026-05-03T11:11:03.001Z</time></trkpt><trkpt lat="42.0872477" lon="13.5445794"><ele>826.5999999999999</ele><time>2026-05-03T11:11:04.004Z</time></trkpt><trkpt lat="42.0872089" lon="13.5446976"><ele>823.8</ele><time>2026-05-03T11:11:05.01Z</time></trkpt><trkpt lat="42.0871894" lon="13.5448261"><ele>821.0</ele><time>2026-05-03T11:11:06.021Z</time></trkpt><trkpt lat="42.0871831" lon="13.5449622"><ele>821.0</ele><time>2026-05-03T11:11:07.011Z</time></trkpt><trkpt lat="42.087171" lon="13.5450961"><ele>821.0</ele><time>2026-05-03T11:11:08.008Z</time></trkpt><trkpt lat="42.0871561" lon="13.5452289"><ele>821.0</ele><time>2026-05-03T11:11:09.005Z</time></trkpt><trkpt lat="42.087145" lon="13.5453647"><ele>821.0</ele><time>2026-05-03T11:11:10.012Z</time></trkpt><trkpt lat="42.0871318" lon="13.5454823"><ele>821.0</ele><time>2026-05-03T11:11:11.012Z</time></trkpt><trkpt lat="42.0871247" lon="13.5455819"><ele>822.0000000000001</ele><time>2026-05-03T11:11:12.004Z</time></trkpt><trkpt lat="42.0871141" lon="13.5456781"><ele>823.0</ele><time>2026-05-03T11:11:12.999Z</time></trkpt><trkpt lat="42.0870961" lon="13.5457651"><ele>824.0</ele><time>2026-05-03T11:11:14.017Z</time></trkpt><trkpt lat="42.0870672" lon="13.5458407"><ele>825.0</ele><time>2026-05-03T11:11:15.01Z</time></trkpt><trkpt lat="42.0870119" lon="13.5459226"><ele>826.0000000000001</ele><time>2026-05-03T11:11:16.045Z</time></trkpt><trkpt lat="42.0869425" lon="13.5460101"><ele>827.0</ele><time>2026-05-03T11:11:17.003Z</time></trkpt><trkpt lat="42.0868717" lon="13.5461101"><ele>827.25</ele><time>2026-05-03T11:11:18.017Z</time></trkpt><trkpt lat="42.0868025" lon="13.5462232"><ele>827.5</ele><time>2026-05-03T11:11:18.995Z</time></trkpt><trkpt lat="42.0867359" lon="13.5463438"><ele>827.75</ele><time>2026-05-03T11:11:20.012Z</time></trkpt><trkpt lat="42.0866605" lon="13.5464662"><ele>828.0</ele><time>2026-05-03T11:11:21.004Z</time></trkpt><trkpt lat="42.0865878" lon="13.5465995"><ele>828.0</ele><time>2026-05-03T11:11:22Z</time></trkpt><trkpt lat="42.0865157" lon="13.5467548"><ele>828.0</ele><time>2026-05-03T11:11:23.003Z</time></trkpt><trkpt lat="42.0864339" lon="13.5469154"><ele>828.0</ele><time>2026-05-03T11:11:24.015Z</time></trkpt><trkpt lat="42.0863588" lon="13.5470768"><ele>828.0</ele><time>2026-05-03T11:11:24.998Z</time></trkpt><trkpt lat="42.0862904" lon="13.5472321"><ele>829.5</ele><time>2026-05-03T11:11:26.014Z</time></trkpt><trkpt lat="42.0862252" lon="13.5473776"><ele>831.0</ele><time>2026-05-03T11:11:27.014Z</time></trkpt><trkpt lat="42.0861608" lon="13.5475174"><ele>832.5</ele><time>2026-05-03T11:11:28.004Z</time></trkpt><trkpt lat="42.0861051" lon="13.5476456"><ele>834.0</ele><time>2026-05-03T11:11:29.009Z</time></trkpt><trkpt lat="42.0860479" lon="13.5477687"><ele>834.2</ele><time>2026-05-03T11:11:30.008Z</time></trkpt><trkpt lat="42.0859941" lon="13.5478923"><ele>834.4000000000001</ele><time>2026-05-03T11:11:31.011Z</time></trkpt><trkpt lat="42.0859309" lon="13.548001"><ele>834.6</ele><time>2026-05-03T11:11:32.021Z</time></trkpt><trkpt lat="42.0858657" lon="13.5480914"><ele>834.8</ele><time>2026-05-03T11:11:33.009Z</time></trkpt><trkpt lat="42.0857957" lon="13.548157"><ele>835.0</ele><time>2026-05-03T11:11:34.006Z</time></trkpt><trkpt lat="42.085706" lon="13.5481946"><ele>835.0</ele><time>2026-05-03T11:11:35.012Z</time></trkpt><trkpt lat="42.0856051" lon="13.5482097"><ele>835.0</ele><time>2026-05-03T11:11:36.012Z</time></trkpt><trkpt lat="42.0855035" lon="13.5482134"><ele>835.0</ele><time>2026-05-03T11:11:37.006Z</time></trkpt><trkpt lat="42.0854135" lon="13.5482235"><ele>835.0</ele><time>2026-05-03T11:11:38.007Z</time></trkpt><trkpt lat="42.0853287" lon="13.5482316"><ele>835.0</ele><time>2026-05-03T11:11:39.008Z</time></trkpt><trkpt lat="42.0852578" lon="13.5482433"><ele>834.9999999999999</ele><time>2026-05-03T11:11:40.01Z</time></trkpt><trkpt lat="42.0851832" lon="13.5482494"><ele>835.0</ele><time>2026-05-03T11:11:41.007Z</time></trkpt><trkpt lat="42.0851089" lon="13.5482505"><ele>835.0</ele><time>2026-05-03T11:11:42.013Z</time></trkpt><trkpt lat="42.0850389" lon="13.5482567"><ele>835.0</ele><time>2026-05-03T11:11:43Z</time></trkpt><trkpt lat="42.0849664" lon="13.5482611"><ele>834.9999999999999</ele><time>2026-05-03T11:11:44.004Z</time></trkpt><trkpt lat="42.0849012" lon="13.548258"><ele>835.0</ele><time>2026-05-03T11:11:45.007Z</time></trkpt><trkpt lat="42.084814" lon="13.5481812"><ele>834.0</ele><time>2026-05-03T11:11:47.001Z</time></trkpt><trkpt lat="42.0847719" lon="13.5480393"><ele>833.0</ele><time>2026-05-03T11:11:49.008Z</time></trkpt><trkpt lat="42.0846914" lon="13.5479402"><ele>832.0</ele><time>2026-05-03T11:11:51.012Z</time></trkpt><trkpt lat="42.0846221" lon="13.5479268"><ele>831.0</ele><time>2026-05-03T11:11:52.019Z</time></trkpt><trkpt lat="42.0845338" lon="13.5479306"><ele>830.0</ele><time>2026-05-03T11:11:54.006Z</time></trkpt><trkpt lat="42.084437" lon="13.5479599"><ele>830.0000000000001</ele><time>2026-05-03T11:12:00.005Z</time></trkpt><trkpt lat="42.0843709" lon="13.5479615"><ele>830.0</ele><time>2026-05-03T11:12:01.001Z</time></trkpt><trkpt lat="42.0842949" lon="13.5479537"><ele>830.0</ele><time>2026-05-03T11:12:02.014Z</time></trkpt><trkpt lat="42.0842114" lon="13.547948"><ele>830.0</ele><time>2026-05-03T11:12:03.011Z</time></trkpt><trkpt lat="42.0841328" lon="13.5479654"><ele>830.0000000000001</ele><time>2026-05-03T11:12:04.01Z</time></trkpt><trkpt lat="42.0840584" lon="13.5480061"><ele>830.0</ele><time>2026-05-03T11:12:05.01Z</time></trkpt><trkpt lat="42.0840091" lon="13.5480744"><ele>827.2</ele><time>2026-05-03T11:12:06.019Z</time></trkpt><trkpt lat="42.0839835" lon="13.5481925"><ele>824.4</ele><time>2026-05-03T11:12:07.01Z</time></trkpt><trkpt lat="42.0839888" lon="13.5483246"><ele>821.5999999999999</ele><time>2026-05-03T11:12:08.011Z</time></trkpt><trkpt lat="42.0840066" lon="13.5484729"><ele>818.8</ele><time>2026-05-03T11:12:09.006Z</time></trkpt><trkpt lat="42.0840225" lon="13.5486267"><ele>816.0</ele><time>2026-05-03T11:12:10.011Z</time></trkpt><trkpt lat="42.0840415" lon="13.5487921"><ele>816.0</ele><time>2026-05-03T11:12:11.011Z</time></trkpt><trkpt lat="42.0840591" lon="13.5489514"><ele>816.0</ele><time>2026-05-03T11:12:12.004Z</time></trkpt><trkpt lat="42.0840718" lon="13.5491004"><ele>816.0</ele><time>2026-05-03T11:12:13.003Z</time></trkpt><trkpt lat="42.0840866" lon="13.5492373"><ele>816.0</ele><time>2026-05-03T11:12:14.006Z</time></trkpt><trkpt lat="42.0840947" lon="13.5493678"><ele>816.0</ele><time>2026-05-03T11:12:15.019Z</time></trkpt><trkpt lat="42.0840918" lon="13.5494841"><ele>818.3333333333334</ele><time>2026-05-03T11:12:16.009Z</time></trkpt><trkpt lat="42.0840632" lon="13.5495845"><ele>820.6666666666667</ele><time>2026-05-03T11:12:17.003Z</time></trkpt><trkpt lat="42.0840172" lon="13.5496632"><ele>823.0</ele><time>2026-05-03T11:12:18.007Z</time></trkpt><trkpt lat="42.0839526" lon="13.5497205"><ele>825.3333333333334</ele><time>2026-05-03T11:12:19.013Z</time></trkpt><trkpt lat="42.0838641" lon="13.5497523"><ele>827.6666666666667</ele><time>2026-05-03T11:12:20.001Z</time></trkpt><trkpt lat="42.0837662" lon="13.5497572"><ele>830.0</ele><time>2026-05-03T11:12:20.996Z</time></trkpt><trkpt lat="42.0836665" lon="13.5497596"><ele>830.0000000000001</ele><time>2026-05-03T11:12:22Z</time></trkpt><trkpt lat="42.0835594" lon="13.5497482"><ele>830.0</ele><time>2026-05-03T11:12:22.988Z</time></trkpt><trkpt lat="42.0834591" lon="13.5497507"><ele>830.0</ele><time>2026-05-03T11:12:24.007Z</time></trkpt><trkpt lat="42.0833759" lon="13.5497618"><ele>830.0</ele><time>2026-05-03T11:12:24.995Z</time></trkpt><trkpt lat="42.083295" lon="13.549772"><ele>830.0000000000001</ele><time>2026-05-03T11:12:26.016Z</time></trkpt><trkpt lat="42.0832218" lon="13.5497749"><ele>830.0</ele><time>2026-05-03T11:12:27.008Z</time></trkpt><trkpt lat="42.0831492" lon="13.5497808"><ele>829.0000000000001</ele><time>2026-05-03T11:12:28.01Z</time></trkpt><trkpt lat="42.0830843" lon="13.5497907"><ele>828.0</ele><time>2026-05-03T11:12:28.998Z</time></trkpt><trkpt lat="42.0830209" lon="13.5497973"><ele>827.0</ele><time>2026-05-03T11:12:30.003Z</time></trkpt><trkpt lat="42.0829231" lon="13.5498063"><ele>826.0</ele><time>2026-05-03T11:12:32.013Z</time></trkpt><trkpt lat="42.082827" lon="13.5498241"><ele>825.0000000000001</ele><time>2026-05-03T11:12:34.007Z</time></trkpt><trkpt lat="42.0827107" lon="13.5498436"><ele>824.0</ele><time>2026-05-03T11:12:36.001Z</time></trkpt><trkpt lat="42.0826408" lon="13.5498447"><ele>824.0</ele><time>2026-05-03T11:12:36.999Z</time></trkpt><trkpt lat="42.0825623" lon="13.5498501"><ele>824.0</ele><time>2026-05-03T11:12:38.008Z</time></trkpt><trkpt lat="42.0824767" lon="13.5498586"><ele>824.0</ele><time>2026-05-03T11:12:38.999Z</time></trkpt><trkpt lat="42.0823831" lon="13.5498738"><ele>824.0</ele><time>2026-05-03T11:12:40.012Z</time></trkpt><trkpt lat="42.0822836" lon="13.5498824"><ele>824.0</ele><time>2026-05-03T11:12:41.002Z</time></trkpt><trkpt lat="42.0821911" lon="13.5498856"><ele>822.2</ele><time>2026-05-03T11:12:42.006Z</time></trkpt><trkpt lat="42.0820998" lon="13.5498942"><ele>820.4000000000001</ele><time>2026-05-03T11:12:43.002Z</time></trkpt><trkpt lat="42.0820029" lon="13.5498996"><ele>818.6</ele><time>2026-05-03T11:12:44.002Z</time></trkpt><trkpt lat="42.0819025" lon="13.5499052"><ele>816.8</ele><time>2026-05-03T11:12:45.003Z</time></trkpt><trkpt lat="42.0817992" lon="13.5499102"><ele>815.0</ele><time>2026-05-03T11:12:46.009Z</time></trkpt><trkpt lat="42.0817068" lon="13.549921"><ele>815.0</ele><time>2026-05-03T11:12:46.998Z</time></trkpt><trkpt lat="42.081612" lon="13.5499315"><ele>815.0</ele><time>2026-05-03T11:12:48.005Z</time></trkpt><trkpt lat="42.0815148" lon="13.5499452"><ele>815.0</ele><time>2026-05-03T11:12:49.006Z</time></trkpt><trkpt lat="42.0814116" lon="13.549954"><ele>815.0</ele><time>2026-05-03T11:12:50.004Z</time></trkpt><trkpt lat="42.0813072" lon="13.5499609"><ele>815.0</ele><time>2026-05-03T11:12:50.998Z</time></trkpt><trkpt lat="42.0811987" lon="13.5499652"><ele>813.8</ele><time>2026-05-03T11:12:52.01Z</time></trkpt><trkpt lat="42.0810864" lon="13.5499755"><ele>812.6</ele><time>2026-05-03T11:12:52.999Z</time></trkpt><trkpt lat="42.0809761" lon="13.5499826"><ele>811.4000000000001</ele><time>2026-05-03T11:12:54.01Z</time></trkpt><trkpt lat="42.0808763" lon="13.5499972"><ele>810.2</ele><time>2026-05-03T11:12:55.004Z</time></trkpt><trkpt lat="42.0807735" lon="13.5500069"><ele>809.0</ele><time>2026-05-03T11:12:56.007Z</time></trkpt><trkpt lat="42.0806705" lon="13.5500155"><ele>807.2</ele><time>2026-05-03T11:12:57.014Z</time></trkpt><trkpt lat="42.0805644" lon="13.5500268"><ele>805.4000000000001</ele><time>2026-05-03T11:12:58.019Z</time></trkpt><trkpt lat="42.0804571" lon="13.5500334"><ele>803.6</ele><time>2026-05-03T11:12:59.011Z</time></trkpt><trkpt lat="42.0803552" lon="13.550042"><ele>801.8</ele><time>2026-05-03T11:13:00.014Z</time></trkpt><trkpt lat="42.0802576" lon="13.5500517"><ele>800.0</ele><time>2026-05-03T11:13:00.999Z</time></trkpt><trkpt lat="42.0801624" lon="13.5500807"><ele>800.0</ele><time>2026-05-03T11:13:02.005Z</time></trkpt><trkpt lat="42.0800713" lon="13.5501376"><ele>800.0</ele><time>2026-05-03T11:13:02.999Z</time></trkpt><trkpt lat="42.079991" lon="13.5502117"><ele>800.0</ele><time>2026-05-03T11:13:04.003Z</time></trkpt><trkpt lat="42.0799183" lon="13.5503066"><ele>800.0</ele><time>2026-05-03T11:13:04.994Z</time></trkpt><trkpt lat="42.0798482" lon="13.5504044"><ele>800.0</ele><time>2026-05-03T11:13:06.006Z</time></trkpt><trkpt lat="42.0797728" lon="13.5504919"><ele>799.8</ele><time>2026-05-03T11:13:07.006Z</time></trkpt><trkpt lat="42.0796939" lon="13.5505764"><ele>799.6</ele><time>2026-05-03T11:13:08.008Z</time></trkpt><trkpt lat="42.0796075" lon="13.5506371"><ele>799.4000000000001</ele><time>2026-05-03T11:13:09.011Z</time></trkpt><trkpt lat="42.0795145" lon="13.5506771"><ele>799.2</ele><time>2026-05-03T11:13:10.01Z</time></trkpt><trkpt lat="42.0794289" lon="13.5507111"><ele>799.0</ele><time>2026-05-03T11:13:11.007Z</time></trkpt><trkpt lat="42.0793431" lon="13.5507463"><ele>798.9999999999999</ele><time>2026-05-03T11:13:12.004Z</time></trkpt><trkpt lat="42.0792688" lon="13.5507759"><ele>799.0</ele><time>2026-05-03T11:13:13.01Z</time></trkpt><trkpt lat="42.0791938" lon="13.5508044"><ele>799.0</ele><time>2026-05-03T11:13:14.005Z</time></trkpt><trkpt lat="42.0791156" lon="13.550837"><ele>799.0</ele><time>2026-05-03T11:13:14.997Z</time></trkpt><trkpt lat="42.0790356" lon="13.5508654"><ele>798.9999999999999</ele><time>2026-05-03T11:13:16.009Z</time></trkpt><trkpt lat="42.0789624" lon="13.5508944"><ele>799.0</ele><time>2026-05-03T11:13:17.002Z</time></trkpt><trkpt lat="42.0788855" lon="13.5509129"><ele>796.8333333333333</ele><time>2026-05-03T11:13:18.021Z</time></trkpt><trkpt lat="42.0788127" lon="13.5509246"><ele>794.6666666666666</ele><time>2026-05-03T11:13:19.015Z</time></trkpt><trkpt lat="42.0787387" lon="13.5509275"><ele>792.5</ele><time>2026-05-03T11:13:20.016Z</time></trkpt><trkpt lat="42.078675" lon="13.5508786"><ele>790.3333333333333</ele><time>2026-05-03T11:13:21.004Z</time></trkpt><trkpt lat="42.0786469" lon="13.5507043"><ele>788.1666666666666</ele><time>2026-05-03T11:13:23.007Z</time></trkpt><trkpt lat="42.0786642" lon="13.5506116"><ele>786.0</ele><time>2026-05-03T11:13:24.011Z</time></trkpt><trkpt lat="42.0787061" lon="13.5505185"><ele>786.0</ele><time>2026-05-03T11:13:25.007Z</time></trkpt><trkpt lat="42.0787746" lon="13.5504189"><ele>786.0</ele><time>2026-05-03T11:13:26.01Z</time></trkpt><trkpt lat="42.0788652" lon="13.5503174"><ele>786.0</ele><time>2026-05-03T11:13:27.006Z</time></trkpt><trkpt lat="42.0789645" lon="13.5502196"><ele>786.0</ele><time>2026-05-03T11:13:28.013Z</time></trkpt><trkpt lat="42.0790583" lon="13.5501146"><ele>787.0</ele><time>2026-05-03T11:13:29.005Z</time></trkpt><trkpt lat="42.0791579" lon="13.5500143"><ele>788.0</ele><time>2026-05-03T11:13:30.007Z</time></trkpt><trkpt lat="42.0792577" lon="13.5499168"><ele>789.0</ele><time>2026-05-03T11:13:31.009Z</time></trkpt><trkpt lat="42.0793608" lon="13.549817"><ele>790.0</ele><time>2026-05-03T11:13:32.013Z</time></trkpt><trkpt lat="42.0794562" lon="13.5497166"><ele>790.0</ele><time>2026-05-03T11:13:33.007Z</time></trkpt><trkpt lat="42.0795486" lon="13.5496206"><ele>790.0</ele><time>2026-05-03T11:13:34.013Z</time></trkpt><trkpt lat="42.0796384" lon="13.5495264"><ele>790.0</ele><time>2026-05-03T11:13:35.006Z</time></trkpt><trkpt lat="42.0797288" lon="13.5494289"><ele>790.0</ele><time>2026-05-03T11:13:36.018Z</time></trkpt><trkpt lat="42.0798322" lon="13.5493067"><ele>789.6666666666666</ele><time>2026-05-03T11:13:37.006Z</time></trkpt><trkpt lat="42.0799575" lon="13.5491513"><ele>789.3333333333333</ele><time>2026-05-03T11:13:38.004Z</time></trkpt><trkpt lat="42.0800922" lon="13.5490105"><ele>789.0</ele><time>2026-05-03T11:13:39.009Z</time></trkpt><trkpt lat="42.0802008" lon="13.5488996"><ele>789.0</ele><time>2026-05-03T11:13:40.003Z</time></trkpt><trkpt lat="42.0802974" lon="13.5488198"><ele>789.0</ele><time>2026-05-03T11:13:41.009Z</time></trkpt><trkpt lat="42.0803889" lon="13.5487385"><ele>789.0</ele><time>2026-05-03T11:13:42.001Z</time></trkpt><trkpt lat="42.0804762" lon="13.548648"><ele>789.0</ele><time>2026-05-03T11:13:43.004Z</time></trkpt><trkpt lat="42.0805728" lon="13.5485375"><ele>787.6666666666667</ele><time>2026-05-03T11:13:44.013Z</time></trkpt><trkpt lat="42.0806964" lon="13.5483985"><ele>786.3333333333334</ele><time>2026-05-03T11:13:45.001Z</time></trkpt><trkpt lat="42.0808361" lon="13.5482464"><ele>785.0</ele><time>2026-05-03T11:13:46.006Z</time></trkpt><trkpt lat="42.0809705" lon="13.5481029"><ele>785.0</ele><time>2026-05-03T11:13:46.996Z</time></trkpt><trkpt lat="42.0810995" lon="13.547976"><ele>785.0</ele><time>2026-05-03T11:13:48.014Z</time></trkpt><trkpt lat="42.0812235" lon="13.5478454"><ele>785.0</ele><time>2026-05-03T11:13:48.999Z</time></trkpt><trkpt lat="42.081343" lon="13.54772"><ele>782.0</ele><time>2026-05-03T11:13:50.011Z</time></trkpt><trkpt lat="42.0814614" lon="13.5476057"><ele>779.0</ele><time>2026-05-03T11:13:51.012Z</time></trkpt><trkpt lat="42.0815757" lon="13.5475088"><ele>776.0</ele><time>2026-05-03T11:13:52.009Z</time></trkpt><trkpt lat="42.0816936" lon="13.5474357"><ele>773.0</ele><time>2026-05-03T11:13:53.01Z</time></trkpt><trkpt lat="42.0817953" lon="13.5473809"><ele>773.0000000000001</ele><time>2026-05-03T11:13:53.995Z</time></trkpt><trkpt lat="42.0818545" lon="13.5473486"><ele>773.0</ele><time>2026-05-03T11:13:55.01Z</time></trkpt><trkpt lat="42.0819232" lon="13.5473186"><ele>773.0</ele><time>2026-05-03T11:13:57.011Z</time></trkpt><trkpt lat="42.0819944" lon="13.5472934"><ele>773.0</ele><time>2026-05-03T11:13:59.006Z</time></trkpt><trkpt lat="42.0820717" lon="13.547248"><ele>773.0000000000001</ele><time>2026-05-03T11:14:01.005Z</time></trkpt><trkpt lat="42.0821815" lon="13.5471788"><ele>773.0</ele><time>2026-05-03T11:14:03.007Z</time></trkpt><trkpt lat="42.0822344" lon="13.5471244"><ele>773.0000000000001</ele><time>2026-05-03T11:14:04.003Z</time></trkpt><trkpt lat="42.0822766" lon="13.5470524"><ele>773.0</ele><time>2026-05-03T11:14:05.004Z</time></trkpt><trkpt lat="42.0823223" lon="13.5469687"><ele>773.0</ele><time>2026-05-03T11:14:06.003Z</time></trkpt><trkpt lat="42.0823603" lon="13.5468735"><ele>773.0</ele><time>2026-05-03T11:14:07.007Z</time></trkpt><trkpt lat="42.0823941" lon="13.5467789"><ele>773.0000000000001</ele><time>2026-05-03T11:14:08.009Z</time></trkpt><trkpt lat="42.0824274" lon="13.5466567"><ele>773.0</ele><time>2026-05-03T11:14:09.004Z</time></trkpt><trkpt lat="42.0824621" lon="13.5464964"><ele>774.0</ele><time>2026-05-03T11:14:10.005Z</time></trkpt><trkpt lat="42.0825005" lon="13.5463057"><ele>775.0</ele><time>2026-05-03T11:14:11Z</time></trkpt><trkpt lat="42.0825377" lon="13.5460991"><ele>776.0</ele><time>2026-05-03T11:14:12.011Z</time></trkpt><trkpt lat="42.0825643" lon="13.5458946"><ele>774.5</ele><time>2026-05-03T11:14:13Z</time></trkpt><trkpt lat="42.0825728" lon="13.5456927"><ele>773.0</ele><time>2026-05-03T11:14:14.017Z</time></trkpt><trkpt lat="42.0825698" lon="13.5454929"><ele>771.5</ele><time>2026-05-03T11:14:15.009Z</time></trkpt><trkpt lat="42.082552" lon="13.5453047"><ele>770.0</ele><time>2026-05-03T11:14:16.003Z</time></trkpt><trkpt lat="42.0825168" lon="13.5451097"><ele>769.5</ele><time>2026-05-03T11:14:17.003Z</time></trkpt><trkpt lat="42.0824736" lon="13.5449073"><ele>769.0</ele><time>2026-05-03T11:14:18.007Z</time></trkpt><trkpt lat="42.0824318" lon="13.5447118"><ele>768.5</ele><time>2026-05-03T11:14:19.006Z</time></trkpt><trkpt lat="42.0823986" lon="13.5445332"><ele>768.0</ele><time>2026-05-03T11:14:20.011Z</time></trkpt><trkpt lat="42.0823739" lon="13.5443662"><ele>764.5</ele><time>2026-05-03T11:14:21.004Z</time></trkpt><trkpt lat="42.0823665" lon="13.5442094"><ele>761.0</ele><time>2026-05-03T11:14:22.003Z</time></trkpt><trkpt lat="42.0823664" lon="13.544052"><ele>757.5</ele><time>2026-05-03T11:14:22.997Z</time></trkpt><trkpt lat="42.0823628" lon="13.5439062"><ele>754.0</ele><time>2026-05-03T11:14:24.007Z</time></trkpt><trkpt lat="42.0823508" lon="13.5437583"><ele>753.4000000000001</ele><time>2026-05-03T11:14:25.017Z</time></trkpt><trkpt lat="42.0823364" lon="13.5436093"><ele>752.8</ele><time>2026-05-03T11:14:26.006Z</time></trkpt><trkpt lat="42.08233" lon="13.5434584"><ele>752.2</ele><time>2026-05-03T11:14:26.999Z</time></trkpt><trkpt lat="42.0823268" lon="13.5433071"><ele>751.5999999999999</ele><time>2026-05-03T11:14:28.019Z</time></trkpt><trkpt lat="42.0823296" lon="13.5431712"><ele>751.0</ele><time>2026-05-03T11:14:29.002Z</time></trkpt><trkpt lat="42.0823408" lon="13.5430521"><ele>751.0</ele><time>2026-05-03T11:14:30.009Z</time></trkpt><trkpt lat="42.0823606" lon="13.5429371"><ele>751.0</ele><time>2026-05-03T11:14:31.009Z</time></trkpt><trkpt lat="42.0823946" lon="13.5428409"><ele>751.0</ele><time>2026-05-03T11:14:32.008Z</time></trkpt><trkpt lat="42.082445" lon="13.5427576"><ele>751.0</ele><time>2026-05-03T11:14:32.998Z</time></trkpt><trkpt lat="42.082502" lon="13.5426955"><ele>751.0</ele><time>2026-05-03T11:14:34.011Z</time></trkpt><trkpt lat="42.0825597" lon="13.5425665"><ele>751.0</ele><time>2026-05-03T11:14:36.001Z</time></trkpt><trkpt lat="42.0825324" lon="13.5424813"><ele>751.4</ele><time>2026-05-03T11:14:37.022Z</time></trkpt><trkpt lat="42.0824792" lon="13.5423837"><ele>751.8</ele><time>2026-05-03T11:14:38.004Z</time></trkpt><trkpt lat="42.0824191" lon="13.5422774"><ele>752.1999999999999</ele><time>2026-05-03T11:14:38.997Z</time></trkpt><trkpt lat="42.0823685" lon="13.5421509"><ele>752.5999999999999</ele><time>2026-05-03T11:14:40.006Z</time></trkpt><trkpt lat="42.0823139" lon="13.5420163"><ele>753.0</ele><time>2026-05-03T11:14:41Z</time></trkpt><trkpt lat="42.082257" lon="13.5418732"><ele>751.5999999999999</ele><time>2026-05-03T11:14:42.014Z</time></trkpt><trkpt lat="42.0821961" lon="13.5417451"><ele>750.1999999999999</ele><time>2026-05-03T11:14:43.007Z</time></trkpt><trkpt lat="42.0821384" lon="13.5416237"><ele>748.8</ele><time>2026-05-03T11:14:44Z</time></trkpt><trkpt lat="42.0820806" lon="13.5415094"><ele>747.4</ele><time>2026-05-03T11:14:45.002Z</time></trkpt><trkpt lat="42.0820185" lon="13.5414058"><ele>746.0</ele><time>2026-05-03T11:14:46.006Z</time></trkpt><trkpt lat="42.0819503" lon="13.541315"><ele>746.0</ele><time>2026-05-03T11:14:47.009Z</time></trkpt><trkpt lat="42.0818728" lon="13.5412336"><ele>746.0</ele><time>2026-05-03T11:14:48.016Z</time></trkpt><trkpt lat="42.0817917" lon="13.5411623"><ele>746.0</ele><time>2026-05-03T11:14:48.998Z</time></trkpt><trkpt lat="42.0816984" lon="13.5411053"><ele>746.0</ele><time>2026-05-03T11:14:50.008Z</time></trkpt><trkpt lat="42.0816012" lon="13.5410844"><ele>746.0</ele><time>2026-05-03T11:14:51.016Z</time></trkpt><trkpt lat="42.0815016" lon="13.5410591"><ele>745.75</ele><time>2026-05-03T11:14:52.011Z</time></trkpt><trkpt lat="42.0814015" lon="13.5410357"><ele>745.5</ele><time>2026-05-03T11:14:53.012Z</time></trkpt><trkpt lat="42.0812879" lon="13.5410228"><ele>745.25</ele><time>2026-05-03T11:14:54.006Z</time></trkpt><trkpt lat="42.0811723" lon="13.5410124"><ele>745.0</ele><time>2026-05-03T11:14:55.002Z</time></trkpt><trkpt lat="42.0810539" lon="13.5410071"><ele>745.0</ele><time>2026-05-03T11:14:56.004Z</time></trkpt><trkpt lat="42.0809293" lon="13.5410024"><ele>745.0</ele><time>2026-05-03T11:14:57.004Z</time></trkpt><trkpt lat="42.0808096" lon="13.5410071"><ele>745.0</ele><time>2026-05-03T11:14:58.006Z</time></trkpt><trkpt lat="42.0806799" lon="13.5410116"><ele>745.0</ele><time>2026-05-03T11:14:59.009Z</time></trkpt><trkpt lat="42.0805487" lon="13.5410175"><ele>744.75</ele><time>2026-05-03T11:15:00.005Z</time></trkpt><trkpt lat="42.080417" lon="13.5410271"><ele>744.5</ele><time>2026-05-03T11:15:01Z</time></trkpt><trkpt lat="42.0802919" lon="13.5410252"><ele>744.25</ele><time>2026-05-03T11:15:02.007Z</time></trkpt><trkpt lat="42.0801674" lon="13.5410157"><ele>744.0</ele><time>2026-05-03T11:15:03.012Z</time></trkpt><trkpt lat="42.0800548" lon="13.5409823"><ele>744.0</ele><time>2026-05-03T11:15:04.024Z</time></trkpt><trkpt lat="42.0799491" lon="13.5409349"><ele>744.0</ele><time>2026-05-03T11:15:05.011Z</time></trkpt><trkpt lat="42.0798473" lon="13.5408624"><ele>744.0</ele><time>2026-05-03T11:15:06.017Z</time></trkpt><trkpt lat="42.0797649" lon="13.5407719"><ele>744.0</ele><time>2026-05-03T11:15:07.005Z</time></trkpt><trkpt lat="42.0796993" lon="13.5406617"><ele>744.0</ele><time>2026-05-03T11:15:08.022Z</time></trkpt><trkpt lat="42.0796548" lon="13.540529"><ele>744.25</ele><time>2026-05-03T11:15:08.999Z</time></trkpt><trkpt lat="42.0796272" lon="13.5403815"><ele>744.5</ele><time>2026-05-03T11:15:10.022Z</time></trkpt><trkpt lat="42.0796081" lon="13.5402254"><ele>744.75</ele><time>2026-05-03T11:15:11.01Z</time></trkpt><trkpt lat="42.0795845" lon="13.5400693"><ele>745.0</ele><time>2026-05-03T11:15:12.011Z</time></trkpt><trkpt lat="42.0795502" lon="13.5399168"><ele>745.0</ele><time>2026-05-03T11:15:13.006Z</time></trkpt><trkpt lat="42.0794986" lon="13.5397691"><ele>745.0</ele><time>2026-05-03T11:15:14.004Z</time></trkpt><trkpt lat="42.079425" lon="13.5396351"><ele>745.0</ele><time>2026-05-03T11:15:15.007Z</time></trkpt><trkpt lat="42.0793427" lon="13.5395033"><ele>745.0</ele><time>2026-05-03T11:15:16.012Z</time></trkpt><trkpt lat="42.0792633" lon="13.5393723"><ele>744.0</ele><time>2026-05-03T11:15:17.003Z</time></trkpt><trkpt lat="42.0791884" lon="13.5392536"><ele>743.0</ele><time>2026-05-03T11:15:18.011Z</time></trkpt><trkpt lat="42.079111" lon="13.5391501"><ele>742.0</ele><time>2026-05-03T11:15:19.007Z</time></trkpt><trkpt lat="42.0790279" lon="13.5390579"><ele>741.0</ele><time>2026-05-03T11:15:20.008Z</time></trkpt><trkpt lat="42.0789352" lon="13.5389882"><ele>740.0</ele><time>2026-05-03T11:15:21.006Z</time></trkpt><trkpt lat="42.078836" lon="13.5389439"><ele>739.25</ele><time>2026-05-03T11:15:22.02Z</time></trkpt><trkpt lat="42.0787291" lon="13.5389217"><ele>738.5</ele><time>2026-05-03T11:15:23.006Z</time></trkpt><trkpt lat="42.078614" lon="13.5389223"><ele>737.75</ele><time>2026-05-03T11:15:24.001Z</time></trkpt><trkpt lat="42.0784994" lon="13.5389312"><ele>737.0</ele><time>2026-05-03T11:15:24.999Z</time></trkpt><trkpt lat="42.0783852" lon="13.538964"><ele>737.0</ele><time>2026-05-03T11:15:26.004Z</time></trkpt><trkpt lat="42.0782782" lon="13.5390101"><ele>737.0</ele><time>2026-05-03T11:15:27.007Z</time></trkpt><trkpt lat="42.0781782" lon="13.5390679"><ele>737.0</ele><time>2026-05-03T11:15:28.002Z</time></trkpt><trkpt lat="42.0780905" lon="13.5391276"><ele>737.0</ele><time>2026-05-03T11:15:28.997Z</time></trkpt><trkpt lat="42.0780058" lon="13.5391758"><ele>737.0</ele><time>2026-05-03T11:15:30.006Z</time></trkpt><trkpt lat="42.0779092" lon="13.5392298"><ele>736.2</ele><time>2026-05-03T11:15:31.005Z</time></trkpt><trkpt lat="42.077814" lon="13.5392812"><ele>735.4000000000001</ele><time>2026-05-03T11:15:31.997Z</time></trkpt><trkpt lat="42.0777162" lon="13.5393282"><ele>734.5999999999999</ele><time>2026-05-03T11:15:33.003Z</time></trkpt><trkpt lat="42.0776189" lon="13.5393753"><ele>733.8</ele><time>2026-05-03T11:15:34.003Z</time></trkpt><trkpt lat="42.0775232" lon="13.5394182"><ele>733.0</ele><time>2026-05-03T11:15:35.004Z</time></trkpt><trkpt lat="42.0774303" lon="13.539455"><ele>732.1666666666667</ele><time>2026-05-03T11:15:36.011Z</time></trkpt><trkpt lat="42.0773479" lon="13.5394783"><ele>731.3333333333334</ele><time>2026-05-03T11:15:36.989Z</time></trkpt><trkpt lat="42.0772767" lon="13.5394997"><ele>730.5</ele><time>2026-05-03T11:15:38.007Z</time></trkpt><trkpt lat="42.0771727" lon="13.5395661"><ele>729.6666666666666</ele><time>2026-05-03T11:15:40.021Z</time></trkpt><trkpt lat="42.0771229" lon="13.539646"><ele>728.8333333333333</ele><time>2026-05-03T11:15:42.008Z</time></trkpt><trkpt lat="42.0771219" lon="13.5397477"><ele>728.0</ele><time>2026-05-03T11:15:44.004Z</time></trkpt><trkpt lat="42.0771649" lon="13.5398191"><ele>728.0</ele><time>2026-05-03T11:15:46.009Z</time></trkpt><trkpt lat="42.0772343" lon="13.5398419"><ele>728.0</ele><time>2026-05-03T11:15:49.001Z</time></trkpt><trkpt lat="42.0772007" lon="13.539769"><ele>728.0</ele><time>2026-05-03T11:15:53Z</time></trkpt><trkpt lat="42.0771482" lon="13.5398194"><ele>728.0</ele><time>2026-05-03T11:16:47.008Z</time></trkpt><trkpt lat="42.0771419" lon="13.5399067"><ele>728.0</ele><time>2026-05-03T11:16:54.009Z</time></trkpt><trkpt lat="42.0771091" lon="13.5399806"><ele>728.0</ele><time>2026-05-03T11:17:01.008Z</time></trkpt></trkseg></trk></gpx>